<?xml version="1.0" encoding="UTF-8"?>
<gpx version="1.1" creator="https://www.youtrack.es" xsi:schemaLocation="http://www.topografix.com/GPX/1/1 http://www.topografix.com/GPX/1/1/gpx.xsd http://www.garmin.com/xmlschemas/GpxExtensions/v3 http://www.garmin.com/xmlschemas/GpxExtensionsv3.xsd http://www.garmin.com/xmlschemas/TrackPointExtension/v1 http://www.garmin.com/xmlschemas/TrackPointExtensionv1.xsd" xmlns:gpxtpx="http://www.garmin.com/xmlschemas/TrackPointExtension/v1" xmlns:gpxx="http://www.garmin.com/xmlschemas/GpxExtensions/v3" xmlns:xsi="http://www.w3.org/2001/XMLSchema-instance">
  <metadata>
    <author>
      <name>Miguel Rodriguez</name>
      <email id="mgl.rdz" domain="gmail.com"/>
    </author>
    <link href="https://www.youtrack.es">
      <text>YouTrack.es</text>
    </link>
    <time>2026-05-10T13:40:22Z</time>
  </metadata>
  <trk>
    <src>https://www.youtrack.es</src>
    <link href="https://www.youtrack.es/ruta/10850-42k">
      <text>YouTrack.es</text>
    </link>
    <trkseg>
      <trkpt lat="25.687196" lon="-100.17607">
        <ele>436.303</ele>
        <time>2020-02-03T12:37:52Z</time>
      </trkpt>
      <trkpt lat="25.687196" lon="-100.17607">
        <ele>424.45</ele>
        <time>2020-02-03T12:37:57Z</time>
      </trkpt>
      <trkpt lat="25.687255" lon="-100.176044">
        <ele>423.276</ele>
        <time>2020-02-03T12:38:00Z</time>
      </trkpt>
      <trkpt lat="25.687281" lon="-100.176033">
        <ele>424.695</ele>
        <time>2020-02-03T12:38:01Z</time>
      </trkpt>
      <trkpt lat="25.687348" lon="-100.176016">
        <ele>426.46</ele>
        <time>2020-02-03T12:38:03Z</time>
      </trkpt>
      <trkpt lat="25.687377" lon="-100.176008">
        <ele>427.463</ele>
        <time>2020-02-03T12:38:04Z</time>
      </trkpt>
      <trkpt lat="25.68741" lon="-100.175999">
        <ele>427.823</ele>
        <time>2020-02-03T12:38:05Z</time>
      </trkpt>
      <trkpt lat="25.687444" lon="-100.175988">
        <ele>425.958</ele>
        <time>2020-02-03T12:38:06Z</time>
      </trkpt>
      <trkpt lat="25.687498" lon="-100.175959">
        <ele>425.72</ele>
        <time>2020-02-03T12:38:08Z</time>
      </trkpt>
      <trkpt lat="25.687524" lon="-100.175943">
        <ele>425.37</ele>
        <time>2020-02-03T12:38:09Z</time>
      </trkpt>
      <trkpt lat="25.687582" lon="-100.175921">
        <ele>426.571</ele>
        <time>2020-02-03T12:38:11Z</time>
      </trkpt>
      <trkpt lat="25.687631" lon="-100.175904">
        <ele>425.248</ele>
        <time>2020-02-03T12:38:13Z</time>
      </trkpt>
      <trkpt lat="25.687706" lon="-100.175876">
        <ele>425.642</ele>
        <time>2020-02-03T12:38:16Z</time>
      </trkpt>
      <trkpt lat="25.687771" lon="-100.175863">
        <ele>425.415</ele>
        <time>2020-02-03T12:38:18Z</time>
      </trkpt>
      <trkpt lat="25.687835" lon="-100.175862">
        <ele>425.232</ele>
        <time>2020-02-03T12:38:20Z</time>
      </trkpt>
      <trkpt lat="25.687864" lon="-100.175863">
        <ele>425.671</ele>
        <time>2020-02-03T12:38:21Z</time>
      </trkpt>
      <trkpt lat="25.687916" lon="-100.175853">
        <ele>425.848</ele>
        <time>2020-02-03T12:38:23Z</time>
      </trkpt>
      <trkpt lat="25.687968" lon="-100.175825">
        <ele>424.885</ele>
        <time>2020-02-03T12:38:25Z</time>
      </trkpt>
      <trkpt lat="25.688016" lon="-100.175793">
        <ele>424.834</ele>
        <time>2020-02-03T12:38:27Z</time>
      </trkpt>
      <trkpt lat="25.688038" lon="-100.175778">
        <ele>424.13</ele>
        <time>2020-02-03T12:38:28Z</time>
      </trkpt>
      <trkpt lat="25.688088" lon="-100.175752">
        <ele>423.742</ele>
        <time>2020-02-03T12:38:30Z</time>
      </trkpt>
      <trkpt lat="25.688114" lon="-100.175741">
        <ele>424.002</ele>
        <time>2020-02-03T12:38:31Z</time>
      </trkpt>
      <trkpt lat="25.688143" lon="-100.17573">
        <ele>423.765</ele>
        <time>2020-02-03T12:38:32Z</time>
      </trkpt>
      <trkpt lat="25.688174" lon="-100.17572">
        <ele>424.122</ele>
        <time>2020-02-03T12:38:33Z</time>
      </trkpt>
      <trkpt lat="25.688207" lon="-100.175713">
        <ele>423.294</ele>
        <time>2020-02-03T12:38:34Z</time>
      </trkpt>
      <trkpt lat="25.688275" lon="-100.175698">
        <ele>424.736</ele>
        <time>2020-02-03T12:38:36Z</time>
      </trkpt>
      <trkpt lat="25.688333" lon="-100.175674">
        <ele>423.781</ele>
        <time>2020-02-03T12:38:38Z</time>
      </trkpt>
      <trkpt lat="25.688363" lon="-100.175661">
        <ele>424.422</ele>
        <time>2020-02-03T12:38:39Z</time>
      </trkpt>
      <trkpt lat="25.688454" lon="-100.17563">
        <ele>424.105</ele>
        <time>2020-02-03T12:38:42Z</time>
      </trkpt>
      <trkpt lat="25.688481" lon="-100.175618">
        <ele>424.497</ele>
        <time>2020-02-03T12:38:43Z</time>
      </trkpt>
      <trkpt lat="25.68853" lon="-100.175587">
        <ele>427.068</ele>
        <time>2020-02-03T12:38:45Z</time>
      </trkpt>
      <trkpt lat="25.688583" lon="-100.175563">
        <ele>427.787</ele>
        <time>2020-02-03T12:38:47Z</time>
      </trkpt>
      <trkpt lat="25.688643" lon="-100.175552">
        <ele>427.478</ele>
        <time>2020-02-03T12:38:49Z</time>
      </trkpt>
      <trkpt lat="25.688671" lon="-100.175547">
        <ele>426.576</ele>
        <time>2020-02-03T12:38:50Z</time>
      </trkpt>
      <trkpt lat="25.688724" lon="-100.175528">
        <ele>427.319</ele>
        <time>2020-02-03T12:38:52Z</time>
      </trkpt>
      <trkpt lat="25.688747" lon="-100.175518">
        <ele>426.043</ele>
        <time>2020-02-03T12:38:53Z</time>
      </trkpt>
      <trkpt lat="25.688768" lon="-100.175509">
        <ele>424.391</ele>
        <time>2020-02-03T12:38:55Z</time>
      </trkpt>
      <trkpt lat="25.688814" lon="-100.175523">
        <ele>423.522</ele>
        <time>2020-02-03T12:39:01Z</time>
      </trkpt>
      <trkpt lat="25.688867" lon="-100.175574">
        <ele>424.91</ele>
        <time>2020-02-03T12:39:04Z</time>
      </trkpt>
      <trkpt lat="25.688958" lon="-100.175619">
        <ele>424.381</ele>
        <time>2020-02-03T12:39:07Z</time>
      </trkpt>
      <trkpt lat="25.688986" lon="-100.175634">
        <ele>424.361</ele>
        <time>2020-02-03T12:39:08Z</time>
      </trkpt>
      <trkpt lat="25.689012" lon="-100.175648">
        <ele>425.42</ele>
        <time>2020-02-03T12:39:09Z</time>
      </trkpt>
      <trkpt lat="25.68904" lon="-100.175665">
        <ele>426.043</ele>
        <time>2020-02-03T12:39:10Z</time>
      </trkpt>
      <trkpt lat="25.689069" lon="-100.175684">
        <ele>425.459</ele>
        <time>2020-02-03T12:39:11Z</time>
      </trkpt>
      <trkpt lat="25.689113" lon="-100.175725">
        <ele>424.539</ele>
        <time>2020-02-03T12:39:13Z</time>
      </trkpt>
      <trkpt lat="25.689132" lon="-100.175771">
        <ele>423.947</ele>
        <time>2020-02-03T12:39:15Z</time>
      </trkpt>
      <trkpt lat="25.689127" lon="-100.175829">
        <ele>424.519</ele>
        <time>2020-02-03T12:39:17Z</time>
      </trkpt>
      <trkpt lat="25.689126" lon="-100.175856">
        <ele>423.799</ele>
        <time>2020-02-03T12:39:18Z</time>
      </trkpt>
      <trkpt lat="25.689136" lon="-100.175913">
        <ele>424.071</ele>
        <time>2020-02-03T12:39:20Z</time>
      </trkpt>
      <trkpt lat="25.689144" lon="-100.175947">
        <ele>424.062</ele>
        <time>2020-02-03T12:39:21Z</time>
      </trkpt>
      <trkpt lat="25.689151" lon="-100.175981">
        <ele>423.603</ele>
        <time>2020-02-03T12:39:22Z</time>
      </trkpt>
      <trkpt lat="25.689157" lon="-100.176014">
        <ele>423.348</ele>
        <time>2020-02-03T12:39:23Z</time>
      </trkpt>
      <trkpt lat="25.689164" lon="-100.176046">
        <ele>423.213</ele>
        <time>2020-02-03T12:39:24Z</time>
      </trkpt>
      <trkpt lat="25.689169" lon="-100.176079">
        <ele>422.861</ele>
        <time>2020-02-03T12:39:25Z</time>
      </trkpt>
      <trkpt lat="25.689174" lon="-100.176144">
        <ele>424.338</ele>
        <time>2020-02-03T12:39:27Z</time>
      </trkpt>
      <trkpt lat="25.689185" lon="-100.176203">
        <ele>423.674</ele>
        <time>2020-02-03T12:39:29Z</time>
      </trkpt>
      <trkpt lat="25.68919" lon="-100.17623">
        <ele>423.265</ele>
        <time>2020-02-03T12:39:30Z</time>
      </trkpt>
      <trkpt lat="25.689195" lon="-100.176257">
        <ele>423.998</ele>
        <time>2020-02-03T12:39:31Z</time>
      </trkpt>
      <trkpt lat="25.689198" lon="-100.176286">
        <ele>423.877</ele>
        <time>2020-02-03T12:39:32Z</time>
      </trkpt>
      <trkpt lat="25.6892" lon="-100.176317">
        <ele>424.218</ele>
        <time>2020-02-03T12:39:33Z</time>
      </trkpt>
      <trkpt lat="25.6892" lon="-100.176347">
        <ele>423.242</ele>
        <time>2020-02-03T12:39:34Z</time>
      </trkpt>
      <trkpt lat="25.689192" lon="-100.176406">
        <ele>423.46</ele>
        <time>2020-02-03T12:39:36Z</time>
      </trkpt>
      <trkpt lat="25.689186" lon="-100.176435">
        <ele>423.068</ele>
        <time>2020-02-03T12:39:37Z</time>
      </trkpt>
      <trkpt lat="25.689181" lon="-100.176465">
        <ele>423.424</ele>
        <time>2020-02-03T12:39:38Z</time>
      </trkpt>
      <trkpt lat="25.689175" lon="-100.176494">
        <ele>423.115</ele>
        <time>2020-02-03T12:39:39Z</time>
      </trkpt>
      <trkpt lat="25.68917" lon="-100.176522">
        <ele>422.909</ele>
        <time>2020-02-03T12:39:40Z</time>
      </trkpt>
      <trkpt lat="25.689165" lon="-100.176549">
        <ele>423.144</ele>
        <time>2020-02-03T12:39:41Z</time>
      </trkpt>
      <trkpt lat="25.689162" lon="-100.176575">
        <ele>422.741</ele>
        <time>2020-02-03T12:39:42Z</time>
      </trkpt>
      <trkpt lat="25.689158" lon="-100.176603">
        <ele>424.052</ele>
        <time>2020-02-03T12:39:43Z</time>
      </trkpt>
      <trkpt lat="25.689139" lon="-100.176655">
        <ele>423.683</ele>
        <time>2020-02-03T12:39:45Z</time>
      </trkpt>
      <trkpt lat="25.689129" lon="-100.176679">
        <ele>423.909</ele>
        <time>2020-02-03T12:39:46Z</time>
      </trkpt>
      <trkpt lat="25.689119" lon="-100.176732">
        <ele>423.799</ele>
        <time>2020-02-03T12:39:48Z</time>
      </trkpt>
      <trkpt lat="25.689114" lon="-100.176804">
        <ele>423.599</ele>
        <time>2020-02-03T12:39:51Z</time>
      </trkpt>
      <trkpt lat="25.68911" lon="-100.176829">
        <ele>422.249</ele>
        <time>2020-02-03T12:39:52Z</time>
      </trkpt>
      <trkpt lat="25.689096" lon="-100.176882">
        <ele>422.614</ele>
        <time>2020-02-03T12:39:54Z</time>
      </trkpt>
      <trkpt lat="25.689088" lon="-100.17691">
        <ele>421.99</ele>
        <time>2020-02-03T12:39:55Z</time>
      </trkpt>
      <trkpt lat="25.68908" lon="-100.17694">
        <ele>421.575</ele>
        <time>2020-02-03T12:39:56Z</time>
      </trkpt>
      <trkpt lat="25.689073" lon="-100.176969">
        <ele>421.513</ele>
        <time>2020-02-03T12:39:57Z</time>
      </trkpt>
      <trkpt lat="25.689066" lon="-100.176998">
        <ele>421.221</ele>
        <time>2020-02-03T12:39:58Z</time>
      </trkpt>
      <trkpt lat="25.689058" lon="-100.177028">
        <ele>421.741</ele>
        <time>2020-02-03T12:39:59Z</time>
      </trkpt>
      <trkpt lat="25.689049" lon="-100.177057">
        <ele>421.293</ele>
        <time>2020-02-03T12:40:00Z</time>
      </trkpt>
      <trkpt lat="25.68904" lon="-100.177086">
        <ele>423.069</ele>
        <time>2020-02-03T12:40:01Z</time>
      </trkpt>
      <trkpt lat="25.689026" lon="-100.177126">
        <ele>423.966</ele>
        <time>2020-02-03T12:40:03Z</time>
      </trkpt>
      <trkpt lat="25.689018" lon="-100.177158">
        <ele>424.8</ele>
        <time>2020-02-03T12:40:05Z</time>
      </trkpt>
      <trkpt lat="25.689002" lon="-100.177205">
        <ele>425.145</ele>
        <time>2020-02-03T12:40:08Z</time>
      </trkpt>
      <trkpt lat="25.688987" lon="-100.177261">
        <ele>424.236</ele>
        <time>2020-02-03T12:40:12Z</time>
      </trkpt>
      <trkpt lat="25.688967" lon="-100.177308">
        <ele>424.047</ele>
        <time>2020-02-03T12:40:16Z</time>
      </trkpt>
      <trkpt lat="25.688958" lon="-100.177331">
        <ele>423.212</ele>
        <time>2020-02-03T12:40:18Z</time>
      </trkpt>
      <trkpt lat="25.688945" lon="-100.177326">
        <ele>423.75</ele>
        <time>2020-02-03T12:40:27Z</time>
      </trkpt>
      <trkpt lat="25.688923" lon="-100.177391">
        <ele>423.618</ele>
        <time>2020-02-03T12:40:40Z</time>
      </trkpt>
      <trkpt lat="25.688911" lon="-100.17742">
        <ele>423.65</ele>
        <time>2020-02-03T12:40:41Z</time>
      </trkpt>
      <trkpt lat="25.688899" lon="-100.177452">
        <ele>423.492</ele>
        <time>2020-02-03T12:40:42Z</time>
      </trkpt>
      <trkpt lat="25.688887" lon="-100.177486">
        <ele>423.332</ele>
        <time>2020-02-03T12:40:43Z</time>
      </trkpt>
      <trkpt lat="25.688875" lon="-100.17752">
        <ele>423.397</ele>
        <time>2020-02-03T12:40:44Z</time>
      </trkpt>
      <trkpt lat="25.688862" lon="-100.177552">
        <ele>424.287</ele>
        <time>2020-02-03T12:40:45Z</time>
      </trkpt>
      <trkpt lat="25.688849" lon="-100.177584">
        <ele>424.649</ele>
        <time>2020-02-03T12:40:46Z</time>
      </trkpt>
      <trkpt lat="25.688836" lon="-100.177618">
        <ele>425.504</ele>
        <time>2020-02-03T12:40:47Z</time>
      </trkpt>
      <trkpt lat="25.688826" lon="-100.17765">
        <ele>425.236</ele>
        <time>2020-02-03T12:40:48Z</time>
      </trkpt>
      <trkpt lat="25.688811" lon="-100.177713">
        <ele>424.735</ele>
        <time>2020-02-03T12:40:50Z</time>
      </trkpt>
      <trkpt lat="25.688788" lon="-100.17777">
        <ele>425.35</ele>
        <time>2020-02-03T12:40:52Z</time>
      </trkpt>
      <trkpt lat="25.688774" lon="-100.177799">
        <ele>425.598</ele>
        <time>2020-02-03T12:40:53Z</time>
      </trkpt>
      <trkpt lat="25.688761" lon="-100.177826">
        <ele>426.13</ele>
        <time>2020-02-03T12:40:54Z</time>
      </trkpt>
      <trkpt lat="25.688747" lon="-100.177854">
        <ele>427.32</ele>
        <time>2020-02-03T12:40:55Z</time>
      </trkpt>
      <trkpt lat="25.688731" lon="-100.177888">
        <ele>427.296</ele>
        <time>2020-02-03T12:40:56Z</time>
      </trkpt>
      <trkpt lat="25.688717" lon="-100.177921">
        <ele>426.204</ele>
        <time>2020-02-03T12:40:57Z</time>
      </trkpt>
      <trkpt lat="25.688701" lon="-100.177953">
        <ele>426.511</ele>
        <time>2020-02-03T12:40:58Z</time>
      </trkpt>
      <trkpt lat="25.688687" lon="-100.177985">
        <ele>426.789</ele>
        <time>2020-02-03T12:40:59Z</time>
      </trkpt>
      <trkpt lat="25.688673" lon="-100.178015">
        <ele>426.804</ele>
        <time>2020-02-03T12:41:00Z</time>
      </trkpt>
      <trkpt lat="25.688659" lon="-100.178046">
        <ele>427.286</ele>
        <time>2020-02-03T12:41:01Z</time>
      </trkpt>
      <trkpt lat="25.688649" lon="-100.178076">
        <ele>427.246</ele>
        <time>2020-02-03T12:41:02Z</time>
      </trkpt>
      <trkpt lat="25.688637" lon="-100.178107">
        <ele>426.035</ele>
        <time>2020-02-03T12:41:03Z</time>
      </trkpt>
      <trkpt lat="25.688626" lon="-100.178137">
        <ele>425.847</ele>
        <time>2020-02-03T12:41:04Z</time>
      </trkpt>
      <trkpt lat="25.688614" lon="-100.178166">
        <ele>425.859</ele>
        <time>2020-02-03T12:41:05Z</time>
      </trkpt>
      <trkpt lat="25.688601" lon="-100.178198">
        <ele>425.842</ele>
        <time>2020-02-03T12:41:06Z</time>
      </trkpt>
      <trkpt lat="25.688557" lon="-100.178281">
        <ele>426.424</ele>
        <time>2020-02-03T12:41:09Z</time>
      </trkpt>
      <trkpt lat="25.688542" lon="-100.17831">
        <ele>427.037</ele>
        <time>2020-02-03T12:41:10Z</time>
      </trkpt>
      <trkpt lat="25.688521" lon="-100.178377">
        <ele>426.7</ele>
        <time>2020-02-03T12:41:12Z</time>
      </trkpt>
      <trkpt lat="25.688508" lon="-100.178414">
        <ele>426.708</ele>
        <time>2020-02-03T12:41:13Z</time>
      </trkpt>
      <trkpt lat="25.688493" lon="-100.178448">
        <ele>426.688</ele>
        <time>2020-02-03T12:41:14Z</time>
      </trkpt>
      <trkpt lat="25.688479" lon="-100.17848">
        <ele>426.519</ele>
        <time>2020-02-03T12:41:15Z</time>
      </trkpt>
      <trkpt lat="25.688466" lon="-100.178509">
        <ele>426.265</ele>
        <time>2020-02-03T12:41:16Z</time>
      </trkpt>
      <trkpt lat="25.688452" lon="-100.17854">
        <ele>426.16</ele>
        <time>2020-02-03T12:41:17Z</time>
      </trkpt>
      <trkpt lat="25.688438" lon="-100.17857">
        <ele>426.556</ele>
        <time>2020-02-03T12:41:18Z</time>
      </trkpt>
      <trkpt lat="25.688424" lon="-100.178602">
        <ele>426.425</ele>
        <time>2020-02-03T12:41:19Z</time>
      </trkpt>
      <trkpt lat="25.68841" lon="-100.178633">
        <ele>426.454</ele>
        <time>2020-02-03T12:41:20Z</time>
      </trkpt>
      <trkpt lat="25.688394" lon="-100.178667">
        <ele>426.658</ele>
        <time>2020-02-03T12:41:21Z</time>
      </trkpt>
      <trkpt lat="25.688378" lon="-100.178698">
        <ele>426.088</ele>
        <time>2020-02-03T12:41:22Z</time>
      </trkpt>
      <trkpt lat="25.688366" lon="-100.178728">
        <ele>426.14</ele>
        <time>2020-02-03T12:41:23Z</time>
      </trkpt>
      <trkpt lat="25.688355" lon="-100.178759">
        <ele>425.803</ele>
        <time>2020-02-03T12:41:24Z</time>
      </trkpt>
      <trkpt lat="25.688345" lon="-100.17879">
        <ele>426.241</ele>
        <time>2020-02-03T12:41:25Z</time>
      </trkpt>
      <trkpt lat="25.688334" lon="-100.178822">
        <ele>426.599</ele>
        <time>2020-02-03T12:41:26Z</time>
      </trkpt>
      <trkpt lat="25.688322" lon="-100.178853">
        <ele>426.385</ele>
        <time>2020-02-03T12:41:27Z</time>
      </trkpt>
      <trkpt lat="25.688309" lon="-100.178884">
        <ele>426.387</ele>
        <time>2020-02-03T12:41:28Z</time>
      </trkpt>
      <trkpt lat="25.688294" lon="-100.178915">
        <ele>426.422</ele>
        <time>2020-02-03T12:41:29Z</time>
      </trkpt>
      <trkpt lat="25.688278" lon="-100.178948">
        <ele>426.606</ele>
        <time>2020-02-03T12:41:30Z</time>
      </trkpt>
      <trkpt lat="25.688254" lon="-100.17902">
        <ele>426.402</ele>
        <time>2020-02-03T12:41:32Z</time>
      </trkpt>
      <trkpt lat="25.688244" lon="-100.179054">
        <ele>427.355</ele>
        <time>2020-02-03T12:41:33Z</time>
      </trkpt>
      <trkpt lat="25.68823" lon="-100.179122">
        <ele>427.149</ele>
        <time>2020-02-03T12:41:35Z</time>
      </trkpt>
      <trkpt lat="25.688222" lon="-100.179154">
        <ele>426.562</ele>
        <time>2020-02-03T12:41:36Z</time>
      </trkpt>
      <trkpt lat="25.688213" lon="-100.179185">
        <ele>426.557</ele>
        <time>2020-02-03T12:41:37Z</time>
      </trkpt>
      <trkpt lat="25.688204" lon="-100.179216">
        <ele>426.438</ele>
        <time>2020-02-03T12:41:38Z</time>
      </trkpt>
      <trkpt lat="25.688193" lon="-100.179245">
        <ele>426.79</ele>
        <time>2020-02-03T12:41:39Z</time>
      </trkpt>
      <trkpt lat="25.688182" lon="-100.179276">
        <ele>426.828</ele>
        <time>2020-02-03T12:41:40Z</time>
      </trkpt>
      <trkpt lat="25.688172" lon="-100.179309">
        <ele>426.62</ele>
        <time>2020-02-03T12:41:41Z</time>
      </trkpt>
      <trkpt lat="25.688157" lon="-100.179374">
        <ele>425.879</ele>
        <time>2020-02-03T12:41:43Z</time>
      </trkpt>
      <trkpt lat="25.688151" lon="-100.179407">
        <ele>425.858</ele>
        <time>2020-02-03T12:41:44Z</time>
      </trkpt>
      <trkpt lat="25.688145" lon="-100.17944">
        <ele>424.946</ele>
        <time>2020-02-03T12:41:45Z</time>
      </trkpt>
      <trkpt lat="25.688141" lon="-100.179472">
        <ele>424.309</ele>
        <time>2020-02-03T12:41:46Z</time>
      </trkpt>
      <trkpt lat="25.688134" lon="-100.179504">
        <ele>423.683</ele>
        <time>2020-02-03T12:41:47Z</time>
      </trkpt>
      <trkpt lat="25.688126" lon="-100.179535">
        <ele>423.494</ele>
        <time>2020-02-03T12:41:48Z</time>
      </trkpt>
      <trkpt lat="25.688118" lon="-100.179566">
        <ele>423.277</ele>
        <time>2020-02-03T12:41:49Z</time>
      </trkpt>
      <trkpt lat="25.688109" lon="-100.179597">
        <ele>423.476</ele>
        <time>2020-02-03T12:41:50Z</time>
      </trkpt>
      <trkpt lat="25.688104" lon="-100.179627">
        <ele>424.078</ele>
        <time>2020-02-03T12:41:51Z</time>
      </trkpt>
      <trkpt lat="25.688099" lon="-100.179657">
        <ele>424.457</ele>
        <time>2020-02-03T12:41:52Z</time>
      </trkpt>
      <trkpt lat="25.688093" lon="-100.179688">
        <ele>424.34</ele>
        <time>2020-02-03T12:41:53Z</time>
      </trkpt>
      <trkpt lat="25.688088" lon="-100.17972">
        <ele>424.893</ele>
        <time>2020-02-03T12:41:54Z</time>
      </trkpt>
      <trkpt lat="25.688084" lon="-100.179753">
        <ele>424.908</ele>
        <time>2020-02-03T12:41:55Z</time>
      </trkpt>
      <trkpt lat="25.688078" lon="-100.179786">
        <ele>425.118</ele>
        <time>2020-02-03T12:41:56Z</time>
      </trkpt>
      <trkpt lat="25.688071" lon="-100.179819">
        <ele>424.881</ele>
        <time>2020-02-03T12:41:57Z</time>
      </trkpt>
      <trkpt lat="25.688063" lon="-100.179853">
        <ele>425.227</ele>
        <time>2020-02-03T12:41:58Z</time>
      </trkpt>
      <trkpt lat="25.688057" lon="-100.179883">
        <ele>425.447</ele>
        <time>2020-02-03T12:41:59Z</time>
      </trkpt>
      <trkpt lat="25.688051" lon="-100.179913">
        <ele>425.926</ele>
        <time>2020-02-03T12:42:00Z</time>
      </trkpt>
      <trkpt lat="25.688047" lon="-100.179944">
        <ele>425.782</ele>
        <time>2020-02-03T12:42:01Z</time>
      </trkpt>
      <trkpt lat="25.688042" lon="-100.179977">
        <ele>426.081</ele>
        <time>2020-02-03T12:42:02Z</time>
      </trkpt>
      <trkpt lat="25.688035" lon="-100.180008">
        <ele>426.2</ele>
        <time>2020-02-03T12:42:03Z</time>
      </trkpt>
      <trkpt lat="25.688029" lon="-100.180039">
        <ele>425.262</ele>
        <time>2020-02-03T12:42:04Z</time>
      </trkpt>
      <trkpt lat="25.688022" lon="-100.180069">
        <ele>424.563</ele>
        <time>2020-02-03T12:42:05Z</time>
      </trkpt>
      <trkpt lat="25.688013" lon="-100.180102">
        <ele>424.397</ele>
        <time>2020-02-03T12:42:06Z</time>
      </trkpt>
      <trkpt lat="25.688007" lon="-100.180136">
        <ele>424.418</ele>
        <time>2020-02-03T12:42:07Z</time>
      </trkpt>
      <trkpt lat="25.687999" lon="-100.180172">
        <ele>423.607</ele>
        <time>2020-02-03T12:42:08Z</time>
      </trkpt>
      <trkpt lat="25.687991" lon="-100.180207">
        <ele>423.714</ele>
        <time>2020-02-03T12:42:09Z</time>
      </trkpt>
      <trkpt lat="25.687984" lon="-100.180239">
        <ele>423.99</ele>
        <time>2020-02-03T12:42:10Z</time>
      </trkpt>
      <trkpt lat="25.687977" lon="-100.180273">
        <ele>424.86</ele>
        <time>2020-02-03T12:42:11Z</time>
      </trkpt>
      <trkpt lat="25.687972" lon="-100.180306">
        <ele>425.113</ele>
        <time>2020-02-03T12:42:12Z</time>
      </trkpt>
      <trkpt lat="25.687968" lon="-100.180371">
        <ele>424.457</ele>
        <time>2020-02-03T12:42:14Z</time>
      </trkpt>
      <trkpt lat="25.687964" lon="-100.180403">
        <ele>424.807</ele>
        <time>2020-02-03T12:42:15Z</time>
      </trkpt>
      <trkpt lat="25.687948" lon="-100.180468">
        <ele>424.122</ele>
        <time>2020-02-03T12:42:17Z</time>
      </trkpt>
      <trkpt lat="25.687942" lon="-100.180503">
        <ele>424.297</ele>
        <time>2020-02-03T12:42:18Z</time>
      </trkpt>
      <trkpt lat="25.687936" lon="-100.180536">
        <ele>423.364</ele>
        <time>2020-02-03T12:42:19Z</time>
      </trkpt>
      <trkpt lat="25.687929" lon="-100.180567">
        <ele>423.445</ele>
        <time>2020-02-03T12:42:20Z</time>
      </trkpt>
      <trkpt lat="25.68792" lon="-100.180601">
        <ele>422.668</ele>
        <time>2020-02-03T12:42:21Z</time>
      </trkpt>
      <trkpt lat="25.687912" lon="-100.180634">
        <ele>422.847</ele>
        <time>2020-02-03T12:42:22Z</time>
      </trkpt>
      <trkpt lat="25.687904" lon="-100.180666">
        <ele>422.941</ele>
        <time>2020-02-03T12:42:23Z</time>
      </trkpt>
      <trkpt lat="25.687897" lon="-100.180698">
        <ele>420.337</ele>
        <time>2020-02-03T12:42:24Z</time>
      </trkpt>
      <trkpt lat="25.68789" lon="-100.180733">
        <ele>420.864</ele>
        <time>2020-02-03T12:42:25Z</time>
      </trkpt>
      <trkpt lat="25.687882" lon="-100.180764">
        <ele>422.087</ele>
        <time>2020-02-03T12:42:26Z</time>
      </trkpt>
      <trkpt lat="25.687876" lon="-100.180798">
        <ele>422.545</ele>
        <time>2020-02-03T12:42:27Z</time>
      </trkpt>
      <trkpt lat="25.68787" lon="-100.18083">
        <ele>422.606</ele>
        <time>2020-02-03T12:42:28Z</time>
      </trkpt>
      <trkpt lat="25.687864" lon="-100.18086">
        <ele>422.094</ele>
        <time>2020-02-03T12:42:29Z</time>
      </trkpt>
      <trkpt lat="25.687858" lon="-100.18089">
        <ele>422.602</ele>
        <time>2020-02-03T12:42:30Z</time>
      </trkpt>
      <trkpt lat="25.687854" lon="-100.180921">
        <ele>423.822</ele>
        <time>2020-02-03T12:42:31Z</time>
      </trkpt>
      <trkpt lat="25.68785" lon="-100.180955">
        <ele>424.317</ele>
        <time>2020-02-03T12:42:32Z</time>
      </trkpt>
      <trkpt lat="25.687844" lon="-100.180989">
        <ele>424.925</ele>
        <time>2020-02-03T12:42:33Z</time>
      </trkpt>
      <trkpt lat="25.687831" lon="-100.181059">
        <ele>426.024</ele>
        <time>2020-02-03T12:42:35Z</time>
      </trkpt>
      <trkpt lat="25.687825" lon="-100.181157">
        <ele>425.841</ele>
        <time>2020-02-03T12:42:38Z</time>
      </trkpt>
      <trkpt lat="25.687823" lon="-100.181187">
        <ele>427.076</ele>
        <time>2020-02-03T12:42:39Z</time>
      </trkpt>
      <trkpt lat="25.687803" lon="-100.18128">
        <ele>426.844</ele>
        <time>2020-02-03T12:42:42Z</time>
      </trkpt>
      <trkpt lat="25.687797" lon="-100.181317">
        <ele>426.486</ele>
        <time>2020-02-03T12:42:43Z</time>
      </trkpt>
      <trkpt lat="25.687791" lon="-100.181352">
        <ele>426.651</ele>
        <time>2020-02-03T12:42:44Z</time>
      </trkpt>
      <trkpt lat="25.687777" lon="-100.181421">
        <ele>427.721</ele>
        <time>2020-02-03T12:42:46Z</time>
      </trkpt>
      <trkpt lat="25.687772" lon="-100.181453">
        <ele>428.462</ele>
        <time>2020-02-03T12:42:47Z</time>
      </trkpt>
      <trkpt lat="25.687767" lon="-100.18152">
        <ele>427.617</ele>
        <time>2020-02-03T12:42:49Z</time>
      </trkpt>
      <trkpt lat="25.687752" lon="-100.181583">
        <ele>427.754</ele>
        <time>2020-02-03T12:42:51Z</time>
      </trkpt>
      <trkpt lat="25.687741" lon="-100.181616">
        <ele>424.537</ele>
        <time>2020-02-03T12:42:52Z</time>
      </trkpt>
      <trkpt lat="25.687729" lon="-100.181652">
        <ele>426.604</ele>
        <time>2020-02-03T12:42:53Z</time>
      </trkpt>
      <trkpt lat="25.687699" lon="-100.181716">
        <ele>427.789</ele>
        <time>2020-02-03T12:42:55Z</time>
      </trkpt>
      <trkpt lat="25.687682" lon="-100.181747">
        <ele>427.901</ele>
        <time>2020-02-03T12:42:56Z</time>
      </trkpt>
      <trkpt lat="25.687669" lon="-100.181777">
        <ele>428.56</ele>
        <time>2020-02-03T12:42:57Z</time>
      </trkpt>
      <trkpt lat="25.687656" lon="-100.181807">
        <ele>429.488</ele>
        <time>2020-02-03T12:42:58Z</time>
      </trkpt>
      <trkpt lat="25.68764" lon="-100.18187">
        <ele>429.086</ele>
        <time>2020-02-03T12:43:00Z</time>
      </trkpt>
      <trkpt lat="25.687636" lon="-100.181932">
        <ele>428.434</ele>
        <time>2020-02-03T12:43:02Z</time>
      </trkpt>
      <trkpt lat="25.687633" lon="-100.181964">
        <ele>427.085</ele>
        <time>2020-02-03T12:43:03Z</time>
      </trkpt>
      <trkpt lat="25.687631" lon="-100.181999">
        <ele>427.511</ele>
        <time>2020-02-03T12:43:04Z</time>
      </trkpt>
      <trkpt lat="25.687629" lon="-100.182034">
        <ele>426.971</ele>
        <time>2020-02-03T12:43:05Z</time>
      </trkpt>
      <trkpt lat="25.687628" lon="-100.182071">
        <ele>426.859</ele>
        <time>2020-02-03T12:43:06Z</time>
      </trkpt>
      <trkpt lat="25.687628" lon="-100.182108">
        <ele>426.643</ele>
        <time>2020-02-03T12:43:07Z</time>
      </trkpt>
      <trkpt lat="25.687626" lon="-100.182145">
        <ele>426.214</ele>
        <time>2020-02-03T12:43:08Z</time>
      </trkpt>
      <trkpt lat="25.687622" lon="-100.182181">
        <ele>426.808</ele>
        <time>2020-02-03T12:43:09Z</time>
      </trkpt>
      <trkpt lat="25.687621" lon="-100.182213">
        <ele>427.571</ele>
        <time>2020-02-03T12:43:10Z</time>
      </trkpt>
      <trkpt lat="25.687618" lon="-100.182245">
        <ele>423.49</ele>
        <time>2020-02-03T12:43:11Z</time>
      </trkpt>
      <trkpt lat="25.68762" lon="-100.182304">
        <ele>424.158</ele>
        <time>2020-02-03T12:43:13Z</time>
      </trkpt>
      <trkpt lat="25.68762" lon="-100.182333">
        <ele>425.629</ele>
        <time>2020-02-03T12:43:14Z</time>
      </trkpt>
      <trkpt lat="25.687615" lon="-100.182393">
        <ele>425.255</ele>
        <time>2020-02-03T12:43:16Z</time>
      </trkpt>
      <trkpt lat="25.68761" lon="-100.182424">
        <ele>426.341</ele>
        <time>2020-02-03T12:43:17Z</time>
      </trkpt>
      <trkpt lat="25.687605" lon="-100.182455">
        <ele>426.243</ele>
        <time>2020-02-03T12:43:18Z</time>
      </trkpt>
      <trkpt lat="25.687601" lon="-100.182487">
        <ele>426.383</ele>
        <time>2020-02-03T12:43:19Z</time>
      </trkpt>
      <trkpt lat="25.687598" lon="-100.18252">
        <ele>426.181</ele>
        <time>2020-02-03T12:43:20Z</time>
      </trkpt>
      <trkpt lat="25.687594" lon="-100.182553">
        <ele>426.456</ele>
        <time>2020-02-03T12:43:21Z</time>
      </trkpt>
      <trkpt lat="25.687592" lon="-100.182587">
        <ele>426.619</ele>
        <time>2020-02-03T12:43:22Z</time>
      </trkpt>
      <trkpt lat="25.687588" lon="-100.182621">
        <ele>425.859</ele>
        <time>2020-02-03T12:43:23Z</time>
      </trkpt>
      <trkpt lat="25.687582" lon="-100.182657">
        <ele>425.747</ele>
        <time>2020-02-03T12:43:24Z</time>
      </trkpt>
      <trkpt lat="25.687574" lon="-100.182691">
        <ele>425.162</ele>
        <time>2020-02-03T12:43:25Z</time>
      </trkpt>
      <trkpt lat="25.687568" lon="-100.182721">
        <ele>425.656</ele>
        <time>2020-02-03T12:43:26Z</time>
      </trkpt>
      <trkpt lat="25.687562" lon="-100.182752">
        <ele>426.513</ele>
        <time>2020-02-03T12:43:27Z</time>
      </trkpt>
      <trkpt lat="25.687561" lon="-100.182814">
        <ele>426.004</ele>
        <time>2020-02-03T12:43:29Z</time>
      </trkpt>
      <trkpt lat="25.687569" lon="-100.182875">
        <ele>426.038</ele>
        <time>2020-02-03T12:43:31Z</time>
      </trkpt>
      <trkpt lat="25.687579" lon="-100.182938">
        <ele>425.541</ele>
        <time>2020-02-03T12:43:33Z</time>
      </trkpt>
      <trkpt lat="25.687583" lon="-100.182968">
        <ele>425.855</ele>
        <time>2020-02-03T12:43:34Z</time>
      </trkpt>
      <trkpt lat="25.687585" lon="-100.182998">
        <ele>426.538</ele>
        <time>2020-02-03T12:43:35Z</time>
      </trkpt>
      <trkpt lat="25.687598" lon="-100.183052">
        <ele>426.904</ele>
        <time>2020-02-03T12:43:37Z</time>
      </trkpt>
      <trkpt lat="25.687606" lon="-100.183081">
        <ele>426.876</ele>
        <time>2020-02-03T12:43:38Z</time>
      </trkpt>
      <trkpt lat="25.687615" lon="-100.183147">
        <ele>427.281</ele>
        <time>2020-02-03T12:43:40Z</time>
      </trkpt>
      <trkpt lat="25.687629" lon="-100.183213">
        <ele>426.511</ele>
        <time>2020-02-03T12:43:42Z</time>
      </trkpt>
      <trkpt lat="25.687635" lon="-100.183243">
        <ele>426.267</ele>
        <time>2020-02-03T12:43:43Z</time>
      </trkpt>
      <trkpt lat="25.687641" lon="-100.183275">
        <ele>426.566</ele>
        <time>2020-02-03T12:43:44Z</time>
      </trkpt>
      <trkpt lat="25.687646" lon="-100.183308">
        <ele>426.462</ele>
        <time>2020-02-03T12:43:45Z</time>
      </trkpt>
      <trkpt lat="25.687651" lon="-100.183342">
        <ele>425.49</ele>
        <time>2020-02-03T12:43:46Z</time>
      </trkpt>
      <trkpt lat="25.687654" lon="-100.183375">
        <ele>425.506</ele>
        <time>2020-02-03T12:43:47Z</time>
      </trkpt>
      <trkpt lat="25.687659" lon="-100.183407">
        <ele>427.46</ele>
        <time>2020-02-03T12:43:48Z</time>
      </trkpt>
      <trkpt lat="25.687663" lon="-100.18344">
        <ele>426.895</ele>
        <time>2020-02-03T12:43:49Z</time>
      </trkpt>
      <trkpt lat="25.68768" lon="-100.183499">
        <ele>426.495</ele>
        <time>2020-02-03T12:43:51Z</time>
      </trkpt>
      <trkpt lat="25.687687" lon="-100.183528">
        <ele>427.019</ele>
        <time>2020-02-03T12:43:52Z</time>
      </trkpt>
      <trkpt lat="25.6877" lon="-100.183587">
        <ele>427.625</ele>
        <time>2020-02-03T12:43:54Z</time>
      </trkpt>
      <trkpt lat="25.687724" lon="-100.183645">
        <ele>427.215</ele>
        <time>2020-02-03T12:43:56Z</time>
      </trkpt>
      <trkpt lat="25.687738" lon="-100.183674">
        <ele>426.315</ele>
        <time>2020-02-03T12:43:57Z</time>
      </trkpt>
      <trkpt lat="25.687751" lon="-100.183701">
        <ele>426.787</ele>
        <time>2020-02-03T12:43:58Z</time>
      </trkpt>
      <trkpt lat="25.687771" lon="-100.183754">
        <ele>426.748</ele>
        <time>2020-02-03T12:44:00Z</time>
      </trkpt>
      <trkpt lat="25.687784" lon="-100.18381">
        <ele>426.48</ele>
        <time>2020-02-03T12:44:02Z</time>
      </trkpt>
      <trkpt lat="25.687792" lon="-100.18384">
        <ele>426.566</ele>
        <time>2020-02-03T12:44:03Z</time>
      </trkpt>
      <trkpt lat="25.6878" lon="-100.183869">
        <ele>426.451</ele>
        <time>2020-02-03T12:44:04Z</time>
      </trkpt>
      <trkpt lat="25.687808" lon="-100.183896">
        <ele>425.967</ele>
        <time>2020-02-03T12:44:05Z</time>
      </trkpt>
      <trkpt lat="25.687816" lon="-100.183924">
        <ele>426.187</ele>
        <time>2020-02-03T12:44:06Z</time>
      </trkpt>
      <trkpt lat="25.687824" lon="-100.183954">
        <ele>426.007</ele>
        <time>2020-02-03T12:44:07Z</time>
      </trkpt>
      <trkpt lat="25.687833" lon="-100.183984">
        <ele>425.805</ele>
        <time>2020-02-03T12:44:08Z</time>
      </trkpt>
      <trkpt lat="25.687844" lon="-100.184015">
        <ele>425.755</ele>
        <time>2020-02-03T12:44:09Z</time>
      </trkpt>
      <trkpt lat="25.687855" lon="-100.184046">
        <ele>426.19</ele>
        <time>2020-02-03T12:44:10Z</time>
      </trkpt>
      <trkpt lat="25.687867" lon="-100.184079">
        <ele>426.455</ele>
        <time>2020-02-03T12:44:11Z</time>
      </trkpt>
      <trkpt lat="25.687876" lon="-100.184112">
        <ele>425.964</ele>
        <time>2020-02-03T12:44:12Z</time>
      </trkpt>
      <trkpt lat="25.687885" lon="-100.184143">
        <ele>425.941</ele>
        <time>2020-02-03T12:44:13Z</time>
      </trkpt>
      <trkpt lat="25.687892" lon="-100.184173">
        <ele>425.946</ele>
        <time>2020-02-03T12:44:14Z</time>
      </trkpt>
      <trkpt lat="25.687899" lon="-100.184204">
        <ele>426.095</ele>
        <time>2020-02-03T12:44:15Z</time>
      </trkpt>
      <trkpt lat="25.687907" lon="-100.184236">
        <ele>426.478</ele>
        <time>2020-02-03T12:44:16Z</time>
      </trkpt>
      <trkpt lat="25.687916" lon="-100.184268">
        <ele>427.054</ele>
        <time>2020-02-03T12:44:17Z</time>
      </trkpt>
      <trkpt lat="25.687924" lon="-100.184298">
        <ele>426.559</ele>
        <time>2020-02-03T12:44:18Z</time>
      </trkpt>
      <trkpt lat="25.687933" lon="-100.184325">
        <ele>426.377</ele>
        <time>2020-02-03T12:44:19Z</time>
      </trkpt>
      <trkpt lat="25.687942" lon="-100.184352">
        <ele>426.594</ele>
        <time>2020-02-03T12:44:20Z</time>
      </trkpt>
      <trkpt lat="25.687948" lon="-100.184379">
        <ele>426.84</ele>
        <time>2020-02-03T12:44:21Z</time>
      </trkpt>
      <trkpt lat="25.687958" lon="-100.184438">
        <ele>427.103</ele>
        <time>2020-02-03T12:44:23Z</time>
      </trkpt>
      <trkpt lat="25.687962" lon="-100.184472">
        <ele>426.708</ele>
        <time>2020-02-03T12:44:24Z</time>
      </trkpt>
      <trkpt lat="25.687968" lon="-100.184508">
        <ele>426.461</ele>
        <time>2020-02-03T12:44:25Z</time>
      </trkpt>
      <trkpt lat="25.687985" lon="-100.184576">
        <ele>426.962</ele>
        <time>2020-02-03T12:44:27Z</time>
      </trkpt>
      <trkpt lat="25.687994" lon="-100.18461">
        <ele>427.106</ele>
        <time>2020-02-03T12:44:28Z</time>
      </trkpt>
      <trkpt lat="25.688002" lon="-100.184643">
        <ele>426.989</ele>
        <time>2020-02-03T12:44:29Z</time>
      </trkpt>
      <trkpt lat="25.688009" lon="-100.184676">
        <ele>427.396</ele>
        <time>2020-02-03T12:44:30Z</time>
      </trkpt>
      <trkpt lat="25.688016" lon="-100.18471">
        <ele>427.161</ele>
        <time>2020-02-03T12:44:31Z</time>
      </trkpt>
      <trkpt lat="25.688024" lon="-100.184742">
        <ele>426.743</ele>
        <time>2020-02-03T12:44:32Z</time>
      </trkpt>
      <trkpt lat="25.688037" lon="-100.184799">
        <ele>426.289</ele>
        <time>2020-02-03T12:44:34Z</time>
      </trkpt>
      <trkpt lat="25.688043" lon="-100.184829">
        <ele>426.359</ele>
        <time>2020-02-03T12:44:35Z</time>
      </trkpt>
      <trkpt lat="25.688049" lon="-100.184859">
        <ele>426.393</ele>
        <time>2020-02-03T12:44:36Z</time>
      </trkpt>
      <trkpt lat="25.688054" lon="-100.18489">
        <ele>426.696</ele>
        <time>2020-02-03T12:44:37Z</time>
      </trkpt>
      <trkpt lat="25.688057" lon="-100.184922">
        <ele>426.398</ele>
        <time>2020-02-03T12:44:38Z</time>
      </trkpt>
      <trkpt lat="25.688061" lon="-100.184955">
        <ele>426.432</ele>
        <time>2020-02-03T12:44:39Z</time>
      </trkpt>
      <trkpt lat="25.688067" lon="-100.184989">
        <ele>426.526</ele>
        <time>2020-02-03T12:44:40Z</time>
      </trkpt>
      <trkpt lat="25.688073" lon="-100.185021">
        <ele>426.231</ele>
        <time>2020-02-03T12:44:41Z</time>
      </trkpt>
      <trkpt lat="25.68808" lon="-100.185053">
        <ele>426.846</ele>
        <time>2020-02-03T12:44:42Z</time>
      </trkpt>
      <trkpt lat="25.688084" lon="-100.185085">
        <ele>425.448</ele>
        <time>2020-02-03T12:44:43Z</time>
      </trkpt>
      <trkpt lat="25.688098" lon="-100.185142">
        <ele>425.559</ele>
        <time>2020-02-03T12:44:45Z</time>
      </trkpt>
      <trkpt lat="25.688103" lon="-100.185204">
        <ele>425.629</ele>
        <time>2020-02-03T12:44:47Z</time>
      </trkpt>
      <trkpt lat="25.688105" lon="-100.185236">
        <ele>425.847</ele>
        <time>2020-02-03T12:44:48Z</time>
      </trkpt>
      <trkpt lat="25.688108" lon="-100.18527">
        <ele>426.018</ele>
        <time>2020-02-03T12:44:49Z</time>
      </trkpt>
      <trkpt lat="25.688112" lon="-100.185302">
        <ele>425.797</ele>
        <time>2020-02-03T12:44:50Z</time>
      </trkpt>
      <trkpt lat="25.688114" lon="-100.185334">
        <ele>425.281</ele>
        <time>2020-02-03T12:44:51Z</time>
      </trkpt>
      <trkpt lat="25.688113" lon="-100.185396">
        <ele>425.439</ele>
        <time>2020-02-03T12:44:53Z</time>
      </trkpt>
      <trkpt lat="25.688113" lon="-100.185427">
        <ele>425.196</ele>
        <time>2020-02-03T12:44:54Z</time>
      </trkpt>
      <trkpt lat="25.688114" lon="-100.185456">
        <ele>425.609</ele>
        <time>2020-02-03T12:44:55Z</time>
      </trkpt>
      <trkpt lat="25.688115" lon="-100.185486">
        <ele>425.201</ele>
        <time>2020-02-03T12:44:56Z</time>
      </trkpt>
      <trkpt lat="25.688118" lon="-100.185518">
        <ele>423.41</ele>
        <time>2020-02-03T12:44:57Z</time>
      </trkpt>
      <trkpt lat="25.68812" lon="-100.185543">
        <ele>424.218</ele>
        <time>2020-02-03T12:44:58Z</time>
      </trkpt>
      <trkpt lat="25.688117" lon="-100.185602">
        <ele>423.696</ele>
        <time>2020-02-03T12:45:00Z</time>
      </trkpt>
      <trkpt lat="25.688114" lon="-100.185634">
        <ele>424.136</ele>
        <time>2020-02-03T12:45:01Z</time>
      </trkpt>
      <trkpt lat="25.688116" lon="-100.185697">
        <ele>424.98</ele>
        <time>2020-02-03T12:45:03Z</time>
      </trkpt>
      <trkpt lat="25.688115" lon="-100.185727">
        <ele>426.518</ele>
        <time>2020-02-03T12:45:04Z</time>
      </trkpt>
      <trkpt lat="25.688115" lon="-100.185757">
        <ele>426.826</ele>
        <time>2020-02-03T12:45:05Z</time>
      </trkpt>
      <trkpt lat="25.688112" lon="-100.185786">
        <ele>427.049</ele>
        <time>2020-02-03T12:45:06Z</time>
      </trkpt>
      <trkpt lat="25.688111" lon="-100.185818">
        <ele>426.647</ele>
        <time>2020-02-03T12:45:07Z</time>
      </trkpt>
      <trkpt lat="25.68811" lon="-100.185848">
        <ele>426.754</ele>
        <time>2020-02-03T12:45:08Z</time>
      </trkpt>
      <trkpt lat="25.688116" lon="-100.18591">
        <ele>425.955</ele>
        <time>2020-02-03T12:45:10Z</time>
      </trkpt>
      <trkpt lat="25.688118" lon="-100.185942">
        <ele>425.919</ele>
        <time>2020-02-03T12:45:11Z</time>
      </trkpt>
      <trkpt lat="25.688121" lon="-100.185973">
        <ele>425.867</ele>
        <time>2020-02-03T12:45:12Z</time>
      </trkpt>
      <trkpt lat="25.688123" lon="-100.186005">
        <ele>426.002</ele>
        <time>2020-02-03T12:45:13Z</time>
      </trkpt>
      <trkpt lat="25.688125" lon="-100.186037">
        <ele>425.528</ele>
        <time>2020-02-03T12:45:14Z</time>
      </trkpt>
      <trkpt lat="25.688126" lon="-100.186071">
        <ele>424.709</ele>
        <time>2020-02-03T12:45:15Z</time>
      </trkpt>
      <trkpt lat="25.688129" lon="-100.186102">
        <ele>425.664</ele>
        <time>2020-02-03T12:45:16Z</time>
      </trkpt>
      <trkpt lat="25.688131" lon="-100.186138">
        <ele>426.145</ele>
        <time>2020-02-03T12:45:17Z</time>
      </trkpt>
      <trkpt lat="25.688131" lon="-100.186177">
        <ele>426.829</ele>
        <time>2020-02-03T12:45:18Z</time>
      </trkpt>
      <trkpt lat="25.688129" lon="-100.186216">
        <ele>426.609</ele>
        <time>2020-02-03T12:45:19Z</time>
      </trkpt>
      <trkpt lat="25.688127" lon="-100.186255">
        <ele>426.627</ele>
        <time>2020-02-03T12:45:20Z</time>
      </trkpt>
      <trkpt lat="25.688125" lon="-100.186295">
        <ele>426.793</ele>
        <time>2020-02-03T12:45:21Z</time>
      </trkpt>
      <trkpt lat="25.688123" lon="-100.186331">
        <ele>426.64</ele>
        <time>2020-02-03T12:45:22Z</time>
      </trkpt>
      <trkpt lat="25.688121" lon="-100.186363">
        <ele>426.893</ele>
        <time>2020-02-03T12:45:23Z</time>
      </trkpt>
      <trkpt lat="25.68812" lon="-100.186395">
        <ele>427.115</ele>
        <time>2020-02-03T12:45:24Z</time>
      </trkpt>
      <trkpt lat="25.688121" lon="-100.186426">
        <ele>427.431</ele>
        <time>2020-02-03T12:45:25Z</time>
      </trkpt>
      <trkpt lat="25.688121" lon="-100.186457">
        <ele>427.95</ele>
        <time>2020-02-03T12:45:26Z</time>
      </trkpt>
      <trkpt lat="25.68812" lon="-100.18649">
        <ele>428.512</ele>
        <time>2020-02-03T12:45:27Z</time>
      </trkpt>
      <trkpt lat="25.688119" lon="-100.186525">
        <ele>427.893</ele>
        <time>2020-02-03T12:45:28Z</time>
      </trkpt>
      <trkpt lat="25.688119" lon="-100.186558">
        <ele>427.597</ele>
        <time>2020-02-03T12:45:29Z</time>
      </trkpt>
      <trkpt lat="25.68812" lon="-100.186589">
        <ele>427.719</ele>
        <time>2020-02-03T12:45:30Z</time>
      </trkpt>
      <trkpt lat="25.688119" lon="-100.186618">
        <ele>427.522</ele>
        <time>2020-02-03T12:45:31Z</time>
      </trkpt>
      <trkpt lat="25.688117" lon="-100.186645">
        <ele>428.778</ele>
        <time>2020-02-03T12:45:32Z</time>
      </trkpt>
      <trkpt lat="25.68811" lon="-100.1867">
        <ele>429.038</ele>
        <time>2020-02-03T12:45:34Z</time>
      </trkpt>
      <trkpt lat="25.688106" lon="-100.18673">
        <ele>428.897</ele>
        <time>2020-02-03T12:45:35Z</time>
      </trkpt>
      <trkpt lat="25.688104" lon="-100.186763">
        <ele>429.305</ele>
        <time>2020-02-03T12:45:36Z</time>
      </trkpt>
      <trkpt lat="25.688102" lon="-100.186793">
        <ele>428.868</ele>
        <time>2020-02-03T12:45:37Z</time>
      </trkpt>
      <trkpt lat="25.688099" lon="-100.186825">
        <ele>429.368</ele>
        <time>2020-02-03T12:45:38Z</time>
      </trkpt>
      <trkpt lat="25.688095" lon="-100.186857">
        <ele>429.26</ele>
        <time>2020-02-03T12:45:39Z</time>
      </trkpt>
      <trkpt lat="25.688089" lon="-100.186889">
        <ele>428.849</ele>
        <time>2020-02-03T12:45:40Z</time>
      </trkpt>
      <trkpt lat="25.688082" lon="-100.18692">
        <ele>428.861</ele>
        <time>2020-02-03T12:45:41Z</time>
      </trkpt>
      <trkpt lat="25.688077" lon="-100.186951">
        <ele>428.517</ele>
        <time>2020-02-03T12:45:42Z</time>
      </trkpt>
      <trkpt lat="25.688082" lon="-100.187012">
        <ele>428.39</ele>
        <time>2020-02-03T12:45:44Z</time>
      </trkpt>
      <trkpt lat="25.688096" lon="-100.187072">
        <ele>428.379</ele>
        <time>2020-02-03T12:45:46Z</time>
      </trkpt>
      <trkpt lat="25.688134" lon="-100.187103">
        <ele>429.228</ele>
        <time>2020-02-03T12:45:50Z</time>
      </trkpt>
      <trkpt lat="25.688179" lon="-100.187115">
        <ele>429.657</ele>
        <time>2020-02-03T12:45:53Z</time>
      </trkpt>
      <trkpt lat="25.688205" lon="-100.187163">
        <ele>430.221</ele>
        <time>2020-02-03T12:45:55Z</time>
      </trkpt>
      <trkpt lat="25.68821" lon="-100.187221">
        <ele>430.596</ele>
        <time>2020-02-03T12:45:57Z</time>
      </trkpt>
      <trkpt lat="25.688206" lon="-100.187284">
        <ele>430.626</ele>
        <time>2020-02-03T12:45:59Z</time>
      </trkpt>
      <trkpt lat="25.688203" lon="-100.187314">
        <ele>431.329</ele>
        <time>2020-02-03T12:46:00Z</time>
      </trkpt>
      <trkpt lat="25.688199" lon="-100.187345">
        <ele>431.095</ele>
        <time>2020-02-03T12:46:01Z</time>
      </trkpt>
      <trkpt lat="25.688196" lon="-100.187375">
        <ele>431.948</ele>
        <time>2020-02-03T12:46:02Z</time>
      </trkpt>
      <trkpt lat="25.688191" lon="-100.187436">
        <ele>431.958</ele>
        <time>2020-02-03T12:46:04Z</time>
      </trkpt>
      <trkpt lat="25.688185" lon="-100.187469">
        <ele>431.578</ele>
        <time>2020-02-03T12:46:05Z</time>
      </trkpt>
      <trkpt lat="25.688179" lon="-100.187504">
        <ele>431.666</ele>
        <time>2020-02-03T12:46:06Z</time>
      </trkpt>
      <trkpt lat="25.688172" lon="-100.187569">
        <ele>430.459</ele>
        <time>2020-02-03T12:46:08Z</time>
      </trkpt>
      <trkpt lat="25.688179" lon="-100.187638">
        <ele>430.523</ele>
        <time>2020-02-03T12:46:10Z</time>
      </trkpt>
      <trkpt lat="25.688188" lon="-100.187713">
        <ele>432.87</ele>
        <time>2020-02-03T12:46:12Z</time>
      </trkpt>
      <trkpt lat="25.688177" lon="-100.187793">
        <ele>433.194</ele>
        <time>2020-02-03T12:46:14Z</time>
      </trkpt>
      <trkpt lat="25.68817" lon="-100.187833">
        <ele>433.528</ele>
        <time>2020-02-03T12:46:15Z</time>
      </trkpt>
      <trkpt lat="25.688161" lon="-100.187871">
        <ele>433.188</ele>
        <time>2020-02-03T12:46:16Z</time>
      </trkpt>
      <trkpt lat="25.688151" lon="-100.187906">
        <ele>432.571</ele>
        <time>2020-02-03T12:46:17Z</time>
      </trkpt>
      <trkpt lat="25.688123" lon="-100.187973">
        <ele>432.791</ele>
        <time>2020-02-03T12:46:19Z</time>
      </trkpt>
      <trkpt lat="25.688109" lon="-100.188005">
        <ele>433.538</ele>
        <time>2020-02-03T12:46:20Z</time>
      </trkpt>
      <trkpt lat="25.688099" lon="-100.188036">
        <ele>432.91</ele>
        <time>2020-02-03T12:46:21Z</time>
      </trkpt>
      <trkpt lat="25.688088" lon="-100.188065">
        <ele>432.956</ele>
        <time>2020-02-03T12:46:22Z</time>
      </trkpt>
      <trkpt lat="25.688076" lon="-100.188093">
        <ele>433.08</ele>
        <time>2020-02-03T12:46:23Z</time>
      </trkpt>
      <trkpt lat="25.688046" lon="-100.188146">
        <ele>432.995</ele>
        <time>2020-02-03T12:46:25Z</time>
      </trkpt>
      <trkpt lat="25.688031" lon="-100.188174">
        <ele>432.8</ele>
        <time>2020-02-03T12:46:26Z</time>
      </trkpt>
      <trkpt lat="25.688018" lon="-100.188204">
        <ele>432.64</ele>
        <time>2020-02-03T12:46:27Z</time>
      </trkpt>
      <trkpt lat="25.688005" lon="-100.188235">
        <ele>432.825</ele>
        <time>2020-02-03T12:46:28Z</time>
      </trkpt>
      <trkpt lat="25.687994" lon="-100.188265">
        <ele>432.994</ele>
        <time>2020-02-03T12:46:29Z</time>
      </trkpt>
      <trkpt lat="25.687984" lon="-100.188298">
        <ele>432.613</ele>
        <time>2020-02-03T12:46:30Z</time>
      </trkpt>
      <trkpt lat="25.687974" lon="-100.18833">
        <ele>432.263</ele>
        <time>2020-02-03T12:46:31Z</time>
      </trkpt>
      <trkpt lat="25.687964" lon="-100.188361">
        <ele>431.349</ele>
        <time>2020-02-03T12:46:32Z</time>
      </trkpt>
      <trkpt lat="25.687957" lon="-100.188392">
        <ele>431.893</ele>
        <time>2020-02-03T12:46:33Z</time>
      </trkpt>
      <trkpt lat="25.68795" lon="-100.188419">
        <ele>430.909</ele>
        <time>2020-02-03T12:46:34Z</time>
      </trkpt>
      <trkpt lat="25.68794" lon="-100.18846">
        <ele>431.397</ele>
        <time>2020-02-03T12:46:36Z</time>
      </trkpt>
      <trkpt lat="25.687917" lon="-100.18852">
        <ele>431.326</ele>
        <time>2020-02-03T12:46:38Z</time>
      </trkpt>
      <trkpt lat="25.687903" lon="-100.18855">
        <ele>431.713</ele>
        <time>2020-02-03T12:46:39Z</time>
      </trkpt>
      <trkpt lat="25.687891" lon="-100.188581">
        <ele>432.078</ele>
        <time>2020-02-03T12:46:40Z</time>
      </trkpt>
      <trkpt lat="25.687878" lon="-100.188609">
        <ele>432.491</ele>
        <time>2020-02-03T12:46:41Z</time>
      </trkpt>
      <trkpt lat="25.687866" lon="-100.188637">
        <ele>432.659</ele>
        <time>2020-02-03T12:46:42Z</time>
      </trkpt>
      <trkpt lat="25.687843" lon="-100.188689">
        <ele>432.699</ele>
        <time>2020-02-03T12:46:44Z</time>
      </trkpt>
      <trkpt lat="25.687834" lon="-100.188714">
        <ele>433.275</ele>
        <time>2020-02-03T12:46:45Z</time>
      </trkpt>
      <trkpt lat="25.687827" lon="-100.188738">
        <ele>432.974</ele>
        <time>2020-02-03T12:46:46Z</time>
      </trkpt>
      <trkpt lat="25.68782" lon="-100.188763">
        <ele>432.613</ele>
        <time>2020-02-03T12:46:47Z</time>
      </trkpt>
      <trkpt lat="25.687811" lon="-100.18879">
        <ele>432.889</ele>
        <time>2020-02-03T12:46:48Z</time>
      </trkpt>
      <trkpt lat="25.6878" lon="-100.188821">
        <ele>432.26</ele>
        <time>2020-02-03T12:46:49Z</time>
      </trkpt>
      <trkpt lat="25.68779" lon="-100.18885">
        <ele>432.606</ele>
        <time>2020-02-03T12:46:50Z</time>
      </trkpt>
      <trkpt lat="25.687781" lon="-100.188879">
        <ele>432.613</ele>
        <time>2020-02-03T12:46:51Z</time>
      </trkpt>
      <trkpt lat="25.687771" lon="-100.188909">
        <ele>432.361</ele>
        <time>2020-02-03T12:46:52Z</time>
      </trkpt>
      <trkpt lat="25.687759" lon="-100.188941">
        <ele>431.144</ele>
        <time>2020-02-03T12:46:53Z</time>
      </trkpt>
      <trkpt lat="25.687746" lon="-100.188969">
        <ele>430.818</ele>
        <time>2020-02-03T12:46:54Z</time>
      </trkpt>
      <trkpt lat="25.687733" lon="-100.188993">
        <ele>430.877</ele>
        <time>2020-02-03T12:46:55Z</time>
      </trkpt>
      <trkpt lat="25.687706" lon="-100.189042">
        <ele>430.242</ele>
        <time>2020-02-03T12:46:57Z</time>
      </trkpt>
      <trkpt lat="25.687691" lon="-100.189071">
        <ele>430.522</ele>
        <time>2020-02-03T12:46:58Z</time>
      </trkpt>
      <trkpt lat="25.687674" lon="-100.189098">
        <ele>430.705</ele>
        <time>2020-02-03T12:46:59Z</time>
      </trkpt>
      <trkpt lat="25.687657" lon="-100.189124">
        <ele>430.59</ele>
        <time>2020-02-03T12:47:00Z</time>
      </trkpt>
      <trkpt lat="25.687642" lon="-100.189149">
        <ele>430.367</ele>
        <time>2020-02-03T12:47:01Z</time>
      </trkpt>
      <trkpt lat="25.687628" lon="-100.189176">
        <ele>429.743</ele>
        <time>2020-02-03T12:47:02Z</time>
      </trkpt>
      <trkpt lat="25.687607" lon="-100.189231">
        <ele>429.913</ele>
        <time>2020-02-03T12:47:04Z</time>
      </trkpt>
      <trkpt lat="25.687596" lon="-100.189261">
        <ele>429.055</ele>
        <time>2020-02-03T12:47:05Z</time>
      </trkpt>
      <trkpt lat="25.687583" lon="-100.189357">
        <ele>428.935</ele>
        <time>2020-02-03T12:47:08Z</time>
      </trkpt>
      <trkpt lat="25.68758" lon="-100.189388">
        <ele>429.061</ele>
        <time>2020-02-03T12:47:09Z</time>
      </trkpt>
      <trkpt lat="25.687576" lon="-100.18942">
        <ele>428.839</ele>
        <time>2020-02-03T12:47:10Z</time>
      </trkpt>
      <trkpt lat="25.68756" lon="-100.189485">
        <ele>430.167</ele>
        <time>2020-02-03T12:47:12Z</time>
      </trkpt>
      <trkpt lat="25.687538" lon="-100.189548">
        <ele>430.952</ele>
        <time>2020-02-03T12:47:14Z</time>
      </trkpt>
      <trkpt lat="25.68753" lon="-100.189579">
        <ele>431.098</ele>
        <time>2020-02-03T12:47:15Z</time>
      </trkpt>
      <trkpt lat="25.687521" lon="-100.189609">
        <ele>431.124</ele>
        <time>2020-02-03T12:47:16Z</time>
      </trkpt>
      <trkpt lat="25.687514" lon="-100.18964">
        <ele>430.621</ele>
        <time>2020-02-03T12:47:17Z</time>
      </trkpt>
      <trkpt lat="25.687507" lon="-100.189672">
        <ele>430.678</ele>
        <time>2020-02-03T12:47:18Z</time>
      </trkpt>
      <trkpt lat="25.6875" lon="-100.189703">
        <ele>430.812</ele>
        <time>2020-02-03T12:47:19Z</time>
      </trkpt>
      <trkpt lat="25.68749" lon="-100.189732">
        <ele>429.948</ele>
        <time>2020-02-03T12:47:20Z</time>
      </trkpt>
      <trkpt lat="25.687483" lon="-100.189763">
        <ele>430.443</ele>
        <time>2020-02-03T12:47:21Z</time>
      </trkpt>
      <trkpt lat="25.687477" lon="-100.189828">
        <ele>430.051</ele>
        <time>2020-02-03T12:47:23Z</time>
      </trkpt>
      <trkpt lat="25.687478" lon="-100.189924">
        <ele>429.936</ele>
        <time>2020-02-03T12:47:26Z</time>
      </trkpt>
      <trkpt lat="25.687479" lon="-100.189953">
        <ele>429.083</ele>
        <time>2020-02-03T12:47:27Z</time>
      </trkpt>
      <trkpt lat="25.687473" lon="-100.190013">
        <ele>428.016</ele>
        <time>2020-02-03T12:47:29Z</time>
      </trkpt>
      <trkpt lat="25.687454" lon="-100.190069">
        <ele>432.271</ele>
        <time>2020-02-03T12:47:31Z</time>
      </trkpt>
      <trkpt lat="25.687412" lon="-100.190124">
        <ele>433.958</ele>
        <time>2020-02-03T12:47:33Z</time>
      </trkpt>
      <trkpt lat="25.687391" lon="-100.190154">
        <ele>432.993</ele>
        <time>2020-02-03T12:47:34Z</time>
      </trkpt>
      <trkpt lat="25.687373" lon="-100.190183">
        <ele>432.842</ele>
        <time>2020-02-03T12:47:35Z</time>
      </trkpt>
      <trkpt lat="25.687348" lon="-100.190243">
        <ele>433.118</ele>
        <time>2020-02-03T12:47:37Z</time>
      </trkpt>
      <trkpt lat="25.687325" lon="-100.190301">
        <ele>433.302</ele>
        <time>2020-02-03T12:47:39Z</time>
      </trkpt>
      <trkpt lat="25.687315" lon="-100.190333">
        <ele>433.386</ele>
        <time>2020-02-03T12:47:40Z</time>
      </trkpt>
      <trkpt lat="25.687305" lon="-100.190367">
        <ele>433.083</ele>
        <time>2020-02-03T12:47:41Z</time>
      </trkpt>
      <trkpt lat="25.687297" lon="-100.190428">
        <ele>433.971</ele>
        <time>2020-02-03T12:47:43Z</time>
      </trkpt>
      <trkpt lat="25.687293" lon="-100.190491">
        <ele>433.445</ele>
        <time>2020-02-03T12:47:45Z</time>
      </trkpt>
      <trkpt lat="25.687293" lon="-100.190521">
        <ele>432.612</ele>
        <time>2020-02-03T12:47:46Z</time>
      </trkpt>
      <trkpt lat="25.687294" lon="-100.19055">
        <ele>432.852</ele>
        <time>2020-02-03T12:47:47Z</time>
      </trkpt>
      <trkpt lat="25.687295" lon="-100.190581">
        <ele>432.629</ele>
        <time>2020-02-03T12:47:48Z</time>
      </trkpt>
      <trkpt lat="25.687296" lon="-100.190616">
        <ele>431.186</ele>
        <time>2020-02-03T12:47:49Z</time>
      </trkpt>
      <trkpt lat="25.687296" lon="-100.190649">
        <ele>433.204</ele>
        <time>2020-02-03T12:47:50Z</time>
      </trkpt>
      <trkpt lat="25.687282" lon="-100.190717">
        <ele>433.198</ele>
        <time>2020-02-03T12:47:52Z</time>
      </trkpt>
      <trkpt lat="25.687275" lon="-100.190747">
        <ele>433.528</ele>
        <time>2020-02-03T12:47:53Z</time>
      </trkpt>
      <trkpt lat="25.687269" lon="-100.190777">
        <ele>433.67</ele>
        <time>2020-02-03T12:47:54Z</time>
      </trkpt>
      <trkpt lat="25.687265" lon="-100.190807">
        <ele>433.559</ele>
        <time>2020-02-03T12:47:55Z</time>
      </trkpt>
      <trkpt lat="25.687261" lon="-100.190836">
        <ele>434.13</ele>
        <time>2020-02-03T12:47:56Z</time>
      </trkpt>
      <trkpt lat="25.687256" lon="-100.190867">
        <ele>433.998</ele>
        <time>2020-02-03T12:47:57Z</time>
      </trkpt>
      <trkpt lat="25.687251" lon="-100.190923">
        <ele>432.841</ele>
        <time>2020-02-03T12:47:59Z</time>
      </trkpt>
      <trkpt lat="25.687241" lon="-100.190975">
        <ele>432.905</ele>
        <time>2020-02-03T12:48:01Z</time>
      </trkpt>
      <trkpt lat="25.687236" lon="-100.191">
        <ele>433.256</ele>
        <time>2020-02-03T12:48:02Z</time>
      </trkpt>
      <trkpt lat="25.687231" lon="-100.191029">
        <ele>433.316</ele>
        <time>2020-02-03T12:48:03Z</time>
      </trkpt>
      <trkpt lat="25.687227" lon="-100.191057">
        <ele>434.494</ele>
        <time>2020-02-03T12:48:04Z</time>
      </trkpt>
      <trkpt lat="25.687217" lon="-100.191118">
        <ele>434.163</ele>
        <time>2020-02-03T12:48:06Z</time>
      </trkpt>
      <trkpt lat="25.68721" lon="-100.191147">
        <ele>434.498</ele>
        <time>2020-02-03T12:48:07Z</time>
      </trkpt>
      <trkpt lat="25.687202" lon="-100.191174">
        <ele>432.578</ele>
        <time>2020-02-03T12:48:08Z</time>
      </trkpt>
      <trkpt lat="25.687189" lon="-100.191223">
        <ele>432.577</ele>
        <time>2020-02-03T12:48:10Z</time>
      </trkpt>
      <trkpt lat="25.687181" lon="-100.191252">
        <ele>432.878</ele>
        <time>2020-02-03T12:48:11Z</time>
      </trkpt>
      <trkpt lat="25.687175" lon="-100.191279">
        <ele>433.702</ele>
        <time>2020-02-03T12:48:12Z</time>
      </trkpt>
      <trkpt lat="25.68717" lon="-100.191308">
        <ele>434.466</ele>
        <time>2020-02-03T12:48:13Z</time>
      </trkpt>
      <trkpt lat="25.687169" lon="-100.191365">
        <ele>434.203</ele>
        <time>2020-02-03T12:48:15Z</time>
      </trkpt>
      <trkpt lat="25.687155" lon="-100.191426">
        <ele>434.007</ele>
        <time>2020-02-03T12:48:17Z</time>
      </trkpt>
      <trkpt lat="25.687147" lon="-100.191454">
        <ele>434.39</ele>
        <time>2020-02-03T12:48:18Z</time>
      </trkpt>
      <trkpt lat="25.687139" lon="-100.191485">
        <ele>434.453</ele>
        <time>2020-02-03T12:48:19Z</time>
      </trkpt>
      <trkpt lat="25.687132" lon="-100.191517">
        <ele>435.609</ele>
        <time>2020-02-03T12:48:20Z</time>
      </trkpt>
      <trkpt lat="25.68713" lon="-100.191579">
        <ele>435.105</ele>
        <time>2020-02-03T12:48:22Z</time>
      </trkpt>
      <trkpt lat="25.687129" lon="-100.191609">
        <ele>435.89</ele>
        <time>2020-02-03T12:48:23Z</time>
      </trkpt>
      <trkpt lat="25.687125" lon="-100.19164">
        <ele>435.388</ele>
        <time>2020-02-03T12:48:24Z</time>
      </trkpt>
      <trkpt lat="25.687105" lon="-100.191701">
        <ele>436.036</ele>
        <time>2020-02-03T12:48:26Z</time>
      </trkpt>
      <trkpt lat="25.687078" lon="-100.191757">
        <ele>435.785</ele>
        <time>2020-02-03T12:48:28Z</time>
      </trkpt>
      <trkpt lat="25.687059" lon="-100.191816">
        <ele>436.06</ele>
        <time>2020-02-03T12:48:30Z</time>
      </trkpt>
      <trkpt lat="25.687039" lon="-100.191909">
        <ele>435.815</ele>
        <time>2020-02-03T12:48:33Z</time>
      </trkpt>
      <trkpt lat="25.687023" lon="-100.191969">
        <ele>435.595</ele>
        <time>2020-02-03T12:48:35Z</time>
      </trkpt>
      <trkpt lat="25.687004" lon="-100.192031">
        <ele>435.24</ele>
        <time>2020-02-03T12:48:37Z</time>
      </trkpt>
      <trkpt lat="25.686994" lon="-100.192061">
        <ele>435.328</ele>
        <time>2020-02-03T12:48:38Z</time>
      </trkpt>
      <trkpt lat="25.686984" lon="-100.19209">
        <ele>435.094</ele>
        <time>2020-02-03T12:48:39Z</time>
      </trkpt>
      <trkpt lat="25.686972" lon="-100.19212">
        <ele>434.781</ele>
        <time>2020-02-03T12:48:40Z</time>
      </trkpt>
      <trkpt lat="25.686947" lon="-100.192178">
        <ele>435.748</ele>
        <time>2020-02-03T12:48:42Z</time>
      </trkpt>
      <trkpt lat="25.68693" lon="-100.192242">
        <ele>436.264</ele>
        <time>2020-02-03T12:48:44Z</time>
      </trkpt>
      <trkpt lat="25.686924" lon="-100.192308">
        <ele>436.116</ele>
        <time>2020-02-03T12:48:46Z</time>
      </trkpt>
      <trkpt lat="25.68692" lon="-100.19234">
        <ele>436.394</ele>
        <time>2020-02-03T12:48:47Z</time>
      </trkpt>
      <trkpt lat="25.686915" lon="-100.192374">
        <ele>436.571</ele>
        <time>2020-02-03T12:48:48Z</time>
      </trkpt>
      <trkpt lat="25.686907" lon="-100.192408">
        <ele>437.503</ele>
        <time>2020-02-03T12:48:49Z</time>
      </trkpt>
      <trkpt lat="25.6869" lon="-100.192442">
        <ele>437.98</ele>
        <time>2020-02-03T12:48:50Z</time>
      </trkpt>
      <trkpt lat="25.686893" lon="-100.192511">
        <ele>438.818</ele>
        <time>2020-02-03T12:48:52Z</time>
      </trkpt>
      <trkpt lat="25.686892" lon="-100.192577">
        <ele>439.119</ele>
        <time>2020-02-03T12:48:54Z</time>
      </trkpt>
      <trkpt lat="25.686889" lon="-100.192606">
        <ele>439.075</ele>
        <time>2020-02-03T12:48:55Z</time>
      </trkpt>
      <trkpt lat="25.686886" lon="-100.192633">
        <ele>438.904</ele>
        <time>2020-02-03T12:48:56Z</time>
      </trkpt>
      <trkpt lat="25.686882" lon="-100.19266">
        <ele>438.656</ele>
        <time>2020-02-03T12:48:57Z</time>
      </trkpt>
      <trkpt lat="25.686877" lon="-100.19269">
        <ele>438.027</ele>
        <time>2020-02-03T12:48:58Z</time>
      </trkpt>
      <trkpt lat="25.686873" lon="-100.192721">
        <ele>437.567</ele>
        <time>2020-02-03T12:48:59Z</time>
      </trkpt>
      <trkpt lat="25.68687" lon="-100.192752">
        <ele>435.954</ele>
        <time>2020-02-03T12:49:00Z</time>
      </trkpt>
      <trkpt lat="25.68685" lon="-100.192832">
        <ele>436.225</ele>
        <time>2020-02-03T12:49:03Z</time>
      </trkpt>
      <trkpt lat="25.686846" lon="-100.192857">
        <ele>436.55</ele>
        <time>2020-02-03T12:49:04Z</time>
      </trkpt>
      <trkpt lat="25.686839" lon="-100.192902">
        <ele>435.895</ele>
        <time>2020-02-03T12:49:06Z</time>
      </trkpt>
      <trkpt lat="25.686834" lon="-100.192947">
        <ele>435.92</ele>
        <time>2020-02-03T12:49:08Z</time>
      </trkpt>
      <trkpt lat="25.686831" lon="-100.192974">
        <ele>436.242</ele>
        <time>2020-02-03T12:49:09Z</time>
      </trkpt>
      <trkpt lat="25.686829" lon="-100.193003">
        <ele>435.817</ele>
        <time>2020-02-03T12:49:10Z</time>
      </trkpt>
      <trkpt lat="25.686825" lon="-100.193032">
        <ele>436.466</ele>
        <time>2020-02-03T12:49:11Z</time>
      </trkpt>
      <trkpt lat="25.686821" lon="-100.193062">
        <ele>436.592</ele>
        <time>2020-02-03T12:49:12Z</time>
      </trkpt>
      <trkpt lat="25.686809" lon="-100.193121">
        <ele>436.293</ele>
        <time>2020-02-03T12:49:14Z</time>
      </trkpt>
      <trkpt lat="25.686804" lon="-100.193148">
        <ele>435.91</ele>
        <time>2020-02-03T12:49:15Z</time>
      </trkpt>
      <trkpt lat="25.686799" lon="-100.193177">
        <ele>435.232</ele>
        <time>2020-02-03T12:49:16Z</time>
      </trkpt>
      <trkpt lat="25.686795" lon="-100.193206">
        <ele>435.161</ele>
        <time>2020-02-03T12:49:17Z</time>
      </trkpt>
      <trkpt lat="25.68679" lon="-100.193234">
        <ele>435.676</ele>
        <time>2020-02-03T12:49:18Z</time>
      </trkpt>
      <trkpt lat="25.686788" lon="-100.193262">
        <ele>435.947</ele>
        <time>2020-02-03T12:49:19Z</time>
      </trkpt>
      <trkpt lat="25.686786" lon="-100.19332">
        <ele>435.123</ele>
        <time>2020-02-03T12:49:21Z</time>
      </trkpt>
      <trkpt lat="25.686769" lon="-100.193403">
        <ele>434.894</ele>
        <time>2020-02-03T12:49:24Z</time>
      </trkpt>
      <trkpt lat="25.686763" lon="-100.193432">
        <ele>434.23</ele>
        <time>2020-02-03T12:49:25Z</time>
      </trkpt>
      <trkpt lat="25.686757" lon="-100.193463">
        <ele>435.107</ele>
        <time>2020-02-03T12:49:26Z</time>
      </trkpt>
      <trkpt lat="25.686751" lon="-100.193496">
        <ele>436.281</ele>
        <time>2020-02-03T12:49:27Z</time>
      </trkpt>
      <trkpt lat="25.686746" lon="-100.193529">
        <ele>436.052</ele>
        <time>2020-02-03T12:49:28Z</time>
      </trkpt>
      <trkpt lat="25.68674" lon="-100.19356">
        <ele>436.142</ele>
        <time>2020-02-03T12:49:29Z</time>
      </trkpt>
      <trkpt lat="25.686735" lon="-100.19359">
        <ele>436.45</ele>
        <time>2020-02-03T12:49:30Z</time>
      </trkpt>
      <trkpt lat="25.686731" lon="-100.193651">
        <ele>436.144</ele>
        <time>2020-02-03T12:49:32Z</time>
      </trkpt>
      <trkpt lat="25.686729" lon="-100.193681">
        <ele>436.299</ele>
        <time>2020-02-03T12:49:33Z</time>
      </trkpt>
      <trkpt lat="25.686724" lon="-100.193713">
        <ele>436.876</ele>
        <time>2020-02-03T12:49:34Z</time>
      </trkpt>
      <trkpt lat="25.686711" lon="-100.193769">
        <ele>435.569</ele>
        <time>2020-02-03T12:49:36Z</time>
      </trkpt>
      <trkpt lat="25.686704" lon="-100.193856">
        <ele>434.569</ele>
        <time>2020-02-03T12:49:39Z</time>
      </trkpt>
      <trkpt lat="25.686688" lon="-100.193913">
        <ele>435.117</ele>
        <time>2020-02-03T12:49:41Z</time>
      </trkpt>
      <trkpt lat="25.686681" lon="-100.193941">
        <ele>435.06</ele>
        <time>2020-02-03T12:49:42Z</time>
      </trkpt>
      <trkpt lat="25.686675" lon="-100.193971">
        <ele>435.987</ele>
        <time>2020-02-03T12:49:43Z</time>
      </trkpt>
      <trkpt lat="25.686667" lon="-100.19403">
        <ele>436.428</ele>
        <time>2020-02-03T12:49:45Z</time>
      </trkpt>
      <trkpt lat="25.686635" lon="-100.194119">
        <ele>436.588</ele>
        <time>2020-02-03T12:49:48Z</time>
      </trkpt>
      <trkpt lat="25.686624" lon="-100.19415">
        <ele>437.137</ele>
        <time>2020-02-03T12:49:49Z</time>
      </trkpt>
      <trkpt lat="25.686617" lon="-100.194213">
        <ele>438.664</ele>
        <time>2020-02-03T12:49:51Z</time>
      </trkpt>
      <trkpt lat="25.686612" lon="-100.194248">
        <ele>438.431</ele>
        <time>2020-02-03T12:49:52Z</time>
      </trkpt>
      <trkpt lat="25.686589" lon="-100.194313">
        <ele>437.895</ele>
        <time>2020-02-03T12:49:54Z</time>
      </trkpt>
      <trkpt lat="25.686576" lon="-100.194345">
        <ele>437.464</ele>
        <time>2020-02-03T12:49:55Z</time>
      </trkpt>
      <trkpt lat="25.686557" lon="-100.194407">
        <ele>437.835</ele>
        <time>2020-02-03T12:49:57Z</time>
      </trkpt>
      <trkpt lat="25.686549" lon="-100.194438">
        <ele>437.591</ele>
        <time>2020-02-03T12:49:58Z</time>
      </trkpt>
      <trkpt lat="25.686533" lon="-100.194497">
        <ele>437.575</ele>
        <time>2020-02-03T12:50:00Z</time>
      </trkpt>
      <trkpt lat="25.686527" lon="-100.194527">
        <ele>436.66</ele>
        <time>2020-02-03T12:50:01Z</time>
      </trkpt>
      <trkpt lat="25.686524" lon="-100.194558">
        <ele>436.149</ele>
        <time>2020-02-03T12:50:02Z</time>
      </trkpt>
      <trkpt lat="25.686519" lon="-100.194591">
        <ele>436.016</ele>
        <time>2020-02-03T12:50:03Z</time>
      </trkpt>
      <trkpt lat="25.686516" lon="-100.194655">
        <ele>437.017</ele>
        <time>2020-02-03T12:50:05Z</time>
      </trkpt>
      <trkpt lat="25.686515" lon="-100.19469">
        <ele>437.745</ele>
        <time>2020-02-03T12:50:06Z</time>
      </trkpt>
      <trkpt lat="25.686514" lon="-100.194757">
        <ele>437.715</ele>
        <time>2020-02-03T12:50:08Z</time>
      </trkpt>
      <trkpt lat="25.686514" lon="-100.194793">
        <ele>437.508</ele>
        <time>2020-02-03T12:50:09Z</time>
      </trkpt>
      <trkpt lat="25.686502" lon="-100.194858">
        <ele>438.891</ele>
        <time>2020-02-03T12:50:11Z</time>
      </trkpt>
      <trkpt lat="25.686493" lon="-100.194892">
        <ele>439.549</ele>
        <time>2020-02-03T12:50:12Z</time>
      </trkpt>
      <trkpt lat="25.686484" lon="-100.194926">
        <ele>439.779</ele>
        <time>2020-02-03T12:50:13Z</time>
      </trkpt>
      <trkpt lat="25.686474" lon="-100.194959">
        <ele>439.369</ele>
        <time>2020-02-03T12:50:14Z</time>
      </trkpt>
      <trkpt lat="25.686463" lon="-100.194992">
        <ele>439.319</ele>
        <time>2020-02-03T12:50:15Z</time>
      </trkpt>
      <trkpt lat="25.686452" lon="-100.195024">
        <ele>438.931</ele>
        <time>2020-02-03T12:50:16Z</time>
      </trkpt>
      <trkpt lat="25.686442" lon="-100.195056">
        <ele>439.168</ele>
        <time>2020-02-03T12:50:17Z</time>
      </trkpt>
      <trkpt lat="25.686432" lon="-100.195087">
        <ele>439.619</ele>
        <time>2020-02-03T12:50:18Z</time>
      </trkpt>
      <trkpt lat="25.686425" lon="-100.195118">
        <ele>439.743</ele>
        <time>2020-02-03T12:50:19Z</time>
      </trkpt>
      <trkpt lat="25.686417" lon="-100.195181">
        <ele>439.172</ele>
        <time>2020-02-03T12:50:21Z</time>
      </trkpt>
      <trkpt lat="25.686414" lon="-100.195212">
        <ele>439.147</ele>
        <time>2020-02-03T12:50:22Z</time>
      </trkpt>
      <trkpt lat="25.686412" lon="-100.195243">
        <ele>438.555</ele>
        <time>2020-02-03T12:50:23Z</time>
      </trkpt>
      <trkpt lat="25.68641" lon="-100.195274">
        <ele>439.077</ele>
        <time>2020-02-03T12:50:24Z</time>
      </trkpt>
      <trkpt lat="25.686408" lon="-100.195306">
        <ele>438.963</ele>
        <time>2020-02-03T12:50:25Z</time>
      </trkpt>
      <trkpt lat="25.686403" lon="-100.19534">
        <ele>438.94</ele>
        <time>2020-02-03T12:50:26Z</time>
      </trkpt>
      <trkpt lat="25.686399" lon="-100.195373">
        <ele>438.439</ele>
        <time>2020-02-03T12:50:27Z</time>
      </trkpt>
      <trkpt lat="25.686397" lon="-100.195409">
        <ele>439.083</ele>
        <time>2020-02-03T12:50:28Z</time>
      </trkpt>
      <trkpt lat="25.686396" lon="-100.195443">
        <ele>439.346</ele>
        <time>2020-02-03T12:50:29Z</time>
      </trkpt>
      <trkpt lat="25.686394" lon="-100.195475">
        <ele>439.154</ele>
        <time>2020-02-03T12:50:30Z</time>
      </trkpt>
      <trkpt lat="25.686392" lon="-100.195509">
        <ele>436.23</ele>
        <time>2020-02-03T12:50:31Z</time>
      </trkpt>
      <trkpt lat="25.686375" lon="-100.195571">
        <ele>436.843</ele>
        <time>2020-02-03T12:50:33Z</time>
      </trkpt>
      <trkpt lat="25.686365" lon="-100.195599">
        <ele>438.224</ele>
        <time>2020-02-03T12:50:34Z</time>
      </trkpt>
      <trkpt lat="25.686355" lon="-100.195658">
        <ele>439.944</ele>
        <time>2020-02-03T12:50:36Z</time>
      </trkpt>
      <trkpt lat="25.686349" lon="-100.195689">
        <ele>439.895</ele>
        <time>2020-02-03T12:50:37Z</time>
      </trkpt>
      <trkpt lat="25.686323" lon="-100.19578">
        <ele>442.075</ele>
        <time>2020-02-03T12:50:40Z</time>
      </trkpt>
      <trkpt lat="25.686315" lon="-100.195839">
        <ele>441.955</ele>
        <time>2020-02-03T12:50:42Z</time>
      </trkpt>
      <trkpt lat="25.68631" lon="-100.195869">
        <ele>441.583</ele>
        <time>2020-02-03T12:50:43Z</time>
      </trkpt>
      <trkpt lat="25.686305" lon="-100.195894">
        <ele>440.612</ele>
        <time>2020-02-03T12:50:44Z</time>
      </trkpt>
      <trkpt lat="25.686301" lon="-100.195922">
        <ele>440.876</ele>
        <time>2020-02-03T12:50:45Z</time>
      </trkpt>
      <trkpt lat="25.686299" lon="-100.195951">
        <ele>439.633</ele>
        <time>2020-02-03T12:50:46Z</time>
      </trkpt>
      <trkpt lat="25.686296" lon="-100.19598">
        <ele>439.181</ele>
        <time>2020-02-03T12:50:47Z</time>
      </trkpt>
      <trkpt lat="25.686292" lon="-100.196009">
        <ele>438.876</ele>
        <time>2020-02-03T12:50:48Z</time>
      </trkpt>
      <trkpt lat="25.686286" lon="-100.19604">
        <ele>438.465</ele>
        <time>2020-02-03T12:50:49Z</time>
      </trkpt>
      <trkpt lat="25.686278" lon="-100.196102">
        <ele>438.444</ele>
        <time>2020-02-03T12:50:51Z</time>
      </trkpt>
      <trkpt lat="25.68628" lon="-100.196164">
        <ele>438.715</ele>
        <time>2020-02-03T12:50:53Z</time>
      </trkpt>
      <trkpt lat="25.686279" lon="-100.196195">
        <ele>439.003</ele>
        <time>2020-02-03T12:50:54Z</time>
      </trkpt>
      <trkpt lat="25.686277" lon="-100.196228">
        <ele>439.445</ele>
        <time>2020-02-03T12:50:55Z</time>
      </trkpt>
      <trkpt lat="25.686275" lon="-100.19626">
        <ele>439.867</ele>
        <time>2020-02-03T12:50:56Z</time>
      </trkpt>
      <trkpt lat="25.686274" lon="-100.196292">
        <ele>440.037</ele>
        <time>2020-02-03T12:50:57Z</time>
      </trkpt>
      <trkpt lat="25.686273" lon="-100.196324">
        <ele>440.218</ele>
        <time>2020-02-03T12:50:58Z</time>
      </trkpt>
      <trkpt lat="25.686271" lon="-100.196356">
        <ele>440.338</ele>
        <time>2020-02-03T12:50:59Z</time>
      </trkpt>
      <trkpt lat="25.686267" lon="-100.196387">
        <ele>439.895</ele>
        <time>2020-02-03T12:51:00Z</time>
      </trkpt>
      <trkpt lat="25.686252" lon="-100.196449">
        <ele>438.901</ele>
        <time>2020-02-03T12:51:02Z</time>
      </trkpt>
      <trkpt lat="25.686223" lon="-100.196543">
        <ele>439.98</ele>
        <time>2020-02-03T12:51:05Z</time>
      </trkpt>
      <trkpt lat="25.686211" lon="-100.196602">
        <ele>440.931</ele>
        <time>2020-02-03T12:51:07Z</time>
      </trkpt>
      <trkpt lat="25.686205" lon="-100.196663">
        <ele>441.499</ele>
        <time>2020-02-03T12:51:09Z</time>
      </trkpt>
      <trkpt lat="25.686208" lon="-100.196722">
        <ele>440.792</ele>
        <time>2020-02-03T12:51:11Z</time>
      </trkpt>
      <trkpt lat="25.68621" lon="-100.19675">
        <ele>440.289</ele>
        <time>2020-02-03T12:51:12Z</time>
      </trkpt>
      <trkpt lat="25.686202" lon="-100.196812">
        <ele>440.518</ele>
        <time>2020-02-03T12:51:14Z</time>
      </trkpt>
      <trkpt lat="25.686197" lon="-100.196843">
        <ele>440.892</ele>
        <time>2020-02-03T12:51:15Z</time>
      </trkpt>
      <trkpt lat="25.686191" lon="-100.196874">
        <ele>441.345</ele>
        <time>2020-02-03T12:51:16Z</time>
      </trkpt>
      <trkpt lat="25.686187" lon="-100.196904">
        <ele>440.741</ele>
        <time>2020-02-03T12:51:17Z</time>
      </trkpt>
      <trkpt lat="25.686182" lon="-100.196936">
        <ele>441.251</ele>
        <time>2020-02-03T12:51:18Z</time>
      </trkpt>
      <trkpt lat="25.686171" lon="-100.197035">
        <ele>441.539</ele>
        <time>2020-02-03T12:51:21Z</time>
      </trkpt>
      <trkpt lat="25.686153" lon="-100.197097">
        <ele>441.744</ele>
        <time>2020-02-03T12:51:23Z</time>
      </trkpt>
      <trkpt lat="25.68613" lon="-100.197157">
        <ele>441.301</ele>
        <time>2020-02-03T12:51:25Z</time>
      </trkpt>
      <trkpt lat="25.686115" lon="-100.197283">
        <ele>439.801</ele>
        <time>2020-02-03T12:51:29Z</time>
      </trkpt>
      <trkpt lat="25.686111" lon="-100.197342">
        <ele>439.549</ele>
        <time>2020-02-03T12:51:31Z</time>
      </trkpt>
      <trkpt lat="25.686108" lon="-100.197371">
        <ele>439.646</ele>
        <time>2020-02-03T12:51:32Z</time>
      </trkpt>
      <trkpt lat="25.686103" lon="-100.1974">
        <ele>435.726</ele>
        <time>2020-02-03T12:51:33Z</time>
      </trkpt>
      <trkpt lat="25.686087" lon="-100.197466">
        <ele>436.835</ele>
        <time>2020-02-03T12:51:36Z</time>
      </trkpt>
      <trkpt lat="25.686081" lon="-100.197525">
        <ele>436.256</ele>
        <time>2020-02-03T12:51:39Z</time>
      </trkpt>
      <trkpt lat="25.686067" lon="-100.197576">
        <ele>436.254</ele>
        <time>2020-02-03T12:51:41Z</time>
      </trkpt>
      <trkpt lat="25.686041" lon="-100.197624">
        <ele>436.696</ele>
        <time>2020-02-03T12:51:43Z</time>
      </trkpt>
      <trkpt lat="25.686003" lon="-100.19767">
        <ele>434.257</ele>
        <time>2020-02-03T12:51:45Z</time>
      </trkpt>
      <trkpt lat="25.685991" lon="-100.19772">
        <ele>433.55</ele>
        <time>2020-02-03T12:51:47Z</time>
      </trkpt>
      <trkpt lat="25.685996" lon="-100.197777">
        <ele>434.529</ele>
        <time>2020-02-03T12:51:49Z</time>
      </trkpt>
      <trkpt lat="25.68599" lon="-100.197835">
        <ele>434.911</ele>
        <time>2020-02-03T12:51:51Z</time>
      </trkpt>
      <trkpt lat="25.685989" lon="-100.197863">
        <ele>433.829</ele>
        <time>2020-02-03T12:51:52Z</time>
      </trkpt>
      <trkpt lat="25.685987" lon="-100.197893">
        <ele>433.921</ele>
        <time>2020-02-03T12:51:53Z</time>
      </trkpt>
      <trkpt lat="25.685985" lon="-100.197922">
        <ele>433.87</ele>
        <time>2020-02-03T12:51:54Z</time>
      </trkpt>
      <trkpt lat="25.685984" lon="-100.197951">
        <ele>435.209</ele>
        <time>2020-02-03T12:51:55Z</time>
      </trkpt>
      <trkpt lat="25.685983" lon="-100.197982">
        <ele>434.071</ele>
        <time>2020-02-03T12:51:56Z</time>
      </trkpt>
      <trkpt lat="25.685983" lon="-100.198012">
        <ele>433.699</ele>
        <time>2020-02-03T12:51:57Z</time>
      </trkpt>
      <trkpt lat="25.685982" lon="-100.198043">
        <ele>432.926</ele>
        <time>2020-02-03T12:51:58Z</time>
      </trkpt>
      <trkpt lat="25.68598" lon="-100.198106">
        <ele>434.347</ele>
        <time>2020-02-03T12:52:00Z</time>
      </trkpt>
      <trkpt lat="25.685978" lon="-100.198138">
        <ele>434.747</ele>
        <time>2020-02-03T12:52:01Z</time>
      </trkpt>
      <trkpt lat="25.685964" lon="-100.198199">
        <ele>434.967</ele>
        <time>2020-02-03T12:52:03Z</time>
      </trkpt>
      <trkpt lat="25.685944" lon="-100.198259">
        <ele>435.782</ele>
        <time>2020-02-03T12:52:05Z</time>
      </trkpt>
      <trkpt lat="25.685935" lon="-100.198289">
        <ele>435.955</ele>
        <time>2020-02-03T12:52:06Z</time>
      </trkpt>
      <trkpt lat="25.685919" lon="-100.19835">
        <ele>436.131</ele>
        <time>2020-02-03T12:52:08Z</time>
      </trkpt>
      <trkpt lat="25.685911" lon="-100.198379">
        <ele>436.443</ele>
        <time>2020-02-03T12:52:09Z</time>
      </trkpt>
      <trkpt lat="25.685902" lon="-100.198411">
        <ele>436.193</ele>
        <time>2020-02-03T12:52:10Z</time>
      </trkpt>
      <trkpt lat="25.685895" lon="-100.198443">
        <ele>436.794</ele>
        <time>2020-02-03T12:52:11Z</time>
      </trkpt>
      <trkpt lat="25.685889" lon="-100.19851">
        <ele>437.804</ele>
        <time>2020-02-03T12:52:13Z</time>
      </trkpt>
      <trkpt lat="25.685887" lon="-100.198546">
        <ele>438.521</ele>
        <time>2020-02-03T12:52:14Z</time>
      </trkpt>
      <trkpt lat="25.685886" lon="-100.198581">
        <ele>438.878</ele>
        <time>2020-02-03T12:52:15Z</time>
      </trkpt>
      <trkpt lat="25.685886" lon="-100.198654">
        <ele>439.573</ele>
        <time>2020-02-03T12:52:17Z</time>
      </trkpt>
      <trkpt lat="25.685862" lon="-100.198747">
        <ele>439.547</ele>
        <time>2020-02-03T12:52:20Z</time>
      </trkpt>
      <trkpt lat="25.685854" lon="-100.198779">
        <ele>438.696</ele>
        <time>2020-02-03T12:52:21Z</time>
      </trkpt>
      <trkpt lat="25.685846" lon="-100.19881">
        <ele>438.666</ele>
        <time>2020-02-03T12:52:22Z</time>
      </trkpt>
      <trkpt lat="25.685839" lon="-100.198841">
        <ele>438.313</ele>
        <time>2020-02-03T12:52:23Z</time>
      </trkpt>
      <trkpt lat="25.685833" lon="-100.198872">
        <ele>438.264</ele>
        <time>2020-02-03T12:52:24Z</time>
      </trkpt>
      <trkpt lat="25.685825" lon="-100.198931">
        <ele>438.399</ele>
        <time>2020-02-03T12:52:26Z</time>
      </trkpt>
      <trkpt lat="25.685821" lon="-100.198959">
        <ele>439.49</ele>
        <time>2020-02-03T12:52:27Z</time>
      </trkpt>
      <trkpt lat="25.685818" lon="-100.198991">
        <ele>440.196</ele>
        <time>2020-02-03T12:52:28Z</time>
      </trkpt>
      <trkpt lat="25.685814" lon="-100.199023">
        <ele>441.313</ele>
        <time>2020-02-03T12:52:29Z</time>
      </trkpt>
      <trkpt lat="25.685809" lon="-100.199057">
        <ele>441.532</ele>
        <time>2020-02-03T12:52:30Z</time>
      </trkpt>
      <trkpt lat="25.685796" lon="-100.199125">
        <ele>441.864</ele>
        <time>2020-02-03T12:52:32Z</time>
      </trkpt>
      <trkpt lat="25.685789" lon="-100.199158">
        <ele>440.069</ele>
        <time>2020-02-03T12:52:33Z</time>
      </trkpt>
      <trkpt lat="25.685782" lon="-100.199189">
        <ele>440.707</ele>
        <time>2020-02-03T12:52:34Z</time>
      </trkpt>
      <trkpt lat="25.685778" lon="-100.19922">
        <ele>440.629</ele>
        <time>2020-02-03T12:52:35Z</time>
      </trkpt>
      <trkpt lat="25.685774" lon="-100.199252">
        <ele>440.032</ele>
        <time>2020-02-03T12:52:36Z</time>
      </trkpt>
      <trkpt lat="25.685769" lon="-100.19928">
        <ele>440.443</ele>
        <time>2020-02-03T12:52:37Z</time>
      </trkpt>
      <trkpt lat="25.685763" lon="-100.199312">
        <ele>440.872</ele>
        <time>2020-02-03T12:52:38Z</time>
      </trkpt>
      <trkpt lat="25.685759" lon="-100.199343">
        <ele>440.956</ele>
        <time>2020-02-03T12:52:39Z</time>
      </trkpt>
      <trkpt lat="25.685754" lon="-100.199374">
        <ele>441.056</ele>
        <time>2020-02-03T12:52:40Z</time>
      </trkpt>
      <trkpt lat="25.685749" lon="-100.199401">
        <ele>441.348</ele>
        <time>2020-02-03T12:52:41Z</time>
      </trkpt>
      <trkpt lat="25.685744" lon="-100.199429">
        <ele>441.951</ele>
        <time>2020-02-03T12:52:42Z</time>
      </trkpt>
      <trkpt lat="25.685739" lon="-100.199456">
        <ele>441.793</ele>
        <time>2020-02-03T12:52:43Z</time>
      </trkpt>
      <trkpt lat="25.685736" lon="-100.199483">
        <ele>442.4</ele>
        <time>2020-02-03T12:52:44Z</time>
      </trkpt>
      <trkpt lat="25.68573" lon="-100.199537">
        <ele>442.762</ele>
        <time>2020-02-03T12:52:46Z</time>
      </trkpt>
      <trkpt lat="25.685729" lon="-100.199565">
        <ele>443.678</ele>
        <time>2020-02-03T12:52:47Z</time>
      </trkpt>
      <trkpt lat="25.685726" lon="-100.199594">
        <ele>443.661</ele>
        <time>2020-02-03T12:52:48Z</time>
      </trkpt>
      <trkpt lat="25.685723" lon="-100.199622">
        <ele>444.526</ele>
        <time>2020-02-03T12:52:49Z</time>
      </trkpt>
      <trkpt lat="25.685718" lon="-100.199651">
        <ele>442.554</ele>
        <time>2020-02-03T12:52:50Z</time>
      </trkpt>
      <trkpt lat="25.685714" lon="-100.199705">
        <ele>441.661</ele>
        <time>2020-02-03T12:52:52Z</time>
      </trkpt>
      <trkpt lat="25.6857" lon="-100.199785">
        <ele>442.145</ele>
        <time>2020-02-03T12:52:55Z</time>
      </trkpt>
      <trkpt lat="25.685697" lon="-100.199814">
        <ele>441.598</ele>
        <time>2020-02-03T12:52:56Z</time>
      </trkpt>
      <trkpt lat="25.6857" lon="-100.199866">
        <ele>441.494</ele>
        <time>2020-02-03T12:52:58Z</time>
      </trkpt>
      <trkpt lat="25.685694" lon="-100.199918">
        <ele>440.996</ele>
        <time>2020-02-03T12:53:00Z</time>
      </trkpt>
      <trkpt lat="25.685679" lon="-100.200006">
        <ele>441.372</ele>
        <time>2020-02-03T12:53:03Z</time>
      </trkpt>
      <trkpt lat="25.685674" lon="-100.200036">
        <ele>441.274</ele>
        <time>2020-02-03T12:53:04Z</time>
      </trkpt>
      <trkpt lat="25.685666" lon="-100.200068">
        <ele>441.042</ele>
        <time>2020-02-03T12:53:05Z</time>
      </trkpt>
      <trkpt lat="25.685659" lon="-100.200101">
        <ele>440.71</ele>
        <time>2020-02-03T12:53:06Z</time>
      </trkpt>
      <trkpt lat="25.685654" lon="-100.200129">
        <ele>439.416</ele>
        <time>2020-02-03T12:53:07Z</time>
      </trkpt>
      <trkpt lat="25.685652" lon="-100.200185">
        <ele>438.676</ele>
        <time>2020-02-03T12:53:09Z</time>
      </trkpt>
      <trkpt lat="25.685651" lon="-100.200213">
        <ele>438.944</ele>
        <time>2020-02-03T12:53:10Z</time>
      </trkpt>
      <trkpt lat="25.685636" lon="-100.200275">
        <ele>438.975</ele>
        <time>2020-02-03T12:53:12Z</time>
      </trkpt>
      <trkpt lat="25.68562" lon="-100.20034">
        <ele>439.439</ele>
        <time>2020-02-03T12:53:14Z</time>
      </trkpt>
      <trkpt lat="25.685609" lon="-100.200409">
        <ele>439.415</ele>
        <time>2020-02-03T12:53:16Z</time>
      </trkpt>
      <trkpt lat="25.685606" lon="-100.200443">
        <ele>438.887</ele>
        <time>2020-02-03T12:53:17Z</time>
      </trkpt>
      <trkpt lat="25.685601" lon="-100.200477">
        <ele>438.644</ele>
        <time>2020-02-03T12:53:18Z</time>
      </trkpt>
      <trkpt lat="25.685587" lon="-100.200545">
        <ele>438.282</ele>
        <time>2020-02-03T12:53:20Z</time>
      </trkpt>
      <trkpt lat="25.685569" lon="-100.20061">
        <ele>437.192</ele>
        <time>2020-02-03T12:53:22Z</time>
      </trkpt>
      <trkpt lat="25.68556" lon="-100.200737">
        <ele>434.93</ele>
        <time>2020-02-03T12:53:26Z</time>
      </trkpt>
      <trkpt lat="25.68556" lon="-100.200766">
        <ele>435.957</ele>
        <time>2020-02-03T12:53:27Z</time>
      </trkpt>
      <trkpt lat="25.685559" lon="-100.2008">
        <ele>436.165</ele>
        <time>2020-02-03T12:53:28Z</time>
      </trkpt>
      <trkpt lat="25.685549" lon="-100.200871">
        <ele>436.015</ele>
        <time>2020-02-03T12:53:30Z</time>
      </trkpt>
      <trkpt lat="25.685535" lon="-100.200974">
        <ele>436.35</ele>
        <time>2020-02-03T12:53:33Z</time>
      </trkpt>
      <trkpt lat="25.685516" lon="-100.201044">
        <ele>436.337</ele>
        <time>2020-02-03T12:53:35Z</time>
      </trkpt>
      <trkpt lat="25.685509" lon="-100.201078">
        <ele>436.761</ele>
        <time>2020-02-03T12:53:36Z</time>
      </trkpt>
      <trkpt lat="25.685503" lon="-100.201113">
        <ele>436.48</ele>
        <time>2020-02-03T12:53:37Z</time>
      </trkpt>
      <trkpt lat="25.685495" lon="-100.201147">
        <ele>435.724</ele>
        <time>2020-02-03T12:53:38Z</time>
      </trkpt>
      <trkpt lat="25.685474" lon="-100.201209">
        <ele>436.659</ele>
        <time>2020-02-03T12:53:40Z</time>
      </trkpt>
      <trkpt lat="25.685464" lon="-100.201238">
        <ele>437.228</ele>
        <time>2020-02-03T12:53:41Z</time>
      </trkpt>
      <trkpt lat="25.685455" lon="-100.201269">
        <ele>437.563</ele>
        <time>2020-02-03T12:53:42Z</time>
      </trkpt>
      <trkpt lat="25.685448" lon="-100.2013">
        <ele>438.234</ele>
        <time>2020-02-03T12:53:43Z</time>
      </trkpt>
      <trkpt lat="25.685439" lon="-100.201331">
        <ele>438.721</ele>
        <time>2020-02-03T12:53:44Z</time>
      </trkpt>
      <trkpt lat="25.685432" lon="-100.201362">
        <ele>438.295</ele>
        <time>2020-02-03T12:53:45Z</time>
      </trkpt>
      <trkpt lat="25.685426" lon="-100.201392">
        <ele>439.198</ele>
        <time>2020-02-03T12:53:46Z</time>
      </trkpt>
      <trkpt lat="25.685422" lon="-100.20142">
        <ele>440.297</ele>
        <time>2020-02-03T12:53:47Z</time>
      </trkpt>
      <trkpt lat="25.685423" lon="-100.201474">
        <ele>440.989</ele>
        <time>2020-02-03T12:53:49Z</time>
      </trkpt>
      <trkpt lat="25.685423" lon="-100.201504">
        <ele>440.449</ele>
        <time>2020-02-03T12:53:50Z</time>
      </trkpt>
      <trkpt lat="25.685423" lon="-100.201535">
        <ele>440.638</ele>
        <time>2020-02-03T12:53:51Z</time>
      </trkpt>
      <trkpt lat="25.685422" lon="-100.201565">
        <ele>438.583</ele>
        <time>2020-02-03T12:53:52Z</time>
      </trkpt>
      <trkpt lat="25.685421" lon="-100.201591">
        <ele>439.151</ele>
        <time>2020-02-03T12:53:53Z</time>
      </trkpt>
      <trkpt lat="25.685411" lon="-100.201645">
        <ele>438.409</ele>
        <time>2020-02-03T12:53:55Z</time>
      </trkpt>
      <trkpt lat="25.685393" lon="-100.201693">
        <ele>438.971</ele>
        <time>2020-02-03T12:53:57Z</time>
      </trkpt>
      <trkpt lat="25.685383" lon="-100.20172">
        <ele>438.256</ele>
        <time>2020-02-03T12:53:58Z</time>
      </trkpt>
      <trkpt lat="25.685375" lon="-100.201748">
        <ele>438.451</ele>
        <time>2020-02-03T12:53:59Z</time>
      </trkpt>
      <trkpt lat="25.685367" lon="-100.201779">
        <ele>438.563</ele>
        <time>2020-02-03T12:54:00Z</time>
      </trkpt>
      <trkpt lat="25.685361" lon="-100.201807">
        <ele>438.808</ele>
        <time>2020-02-03T12:54:01Z</time>
      </trkpt>
      <trkpt lat="25.685356" lon="-100.201834">
        <ele>439.591</ele>
        <time>2020-02-03T12:54:02Z</time>
      </trkpt>
      <trkpt lat="25.685353" lon="-100.201862">
        <ele>440.234</ele>
        <time>2020-02-03T12:54:03Z</time>
      </trkpt>
      <trkpt lat="25.68535" lon="-100.201893">
        <ele>437.764</ele>
        <time>2020-02-03T12:54:04Z</time>
      </trkpt>
      <trkpt lat="25.685344" lon="-100.201944">
        <ele>438.331</ele>
        <time>2020-02-03T12:54:06Z</time>
      </trkpt>
      <trkpt lat="25.68534" lon="-100.201973">
        <ele>438.45</ele>
        <time>2020-02-03T12:54:07Z</time>
      </trkpt>
      <trkpt lat="25.685325" lon="-100.202032">
        <ele>437.937</ele>
        <time>2020-02-03T12:54:09Z</time>
      </trkpt>
      <trkpt lat="25.685316" lon="-100.20206">
        <ele>437.449</ele>
        <time>2020-02-03T12:54:10Z</time>
      </trkpt>
      <trkpt lat="25.685306" lon="-100.202112">
        <ele>437.882</ele>
        <time>2020-02-03T12:54:12Z</time>
      </trkpt>
      <trkpt lat="25.685294" lon="-100.202167">
        <ele>437.908</ele>
        <time>2020-02-03T12:54:14Z</time>
      </trkpt>
      <trkpt lat="25.685288" lon="-100.202195">
        <ele>438.088</ele>
        <time>2020-02-03T12:54:15Z</time>
      </trkpt>
      <trkpt lat="25.685282" lon="-100.202222">
        <ele>437.18</ele>
        <time>2020-02-03T12:54:16Z</time>
      </trkpt>
      <trkpt lat="25.685274" lon="-100.20225">
        <ele>436.898</ele>
        <time>2020-02-03T12:54:17Z</time>
      </trkpt>
      <trkpt lat="25.685264" lon="-100.202277">
        <ele>436.787</ele>
        <time>2020-02-03T12:54:18Z</time>
      </trkpt>
      <trkpt lat="25.685254" lon="-100.202305">
        <ele>436.553</ele>
        <time>2020-02-03T12:54:19Z</time>
      </trkpt>
      <trkpt lat="25.685244" lon="-100.20233">
        <ele>437.406</ele>
        <time>2020-02-03T12:54:20Z</time>
      </trkpt>
      <trkpt lat="25.685236" lon="-100.202385">
        <ele>438.617</ele>
        <time>2020-02-03T12:54:22Z</time>
      </trkpt>
      <trkpt lat="25.685233" lon="-100.202442">
        <ele>438.393</ele>
        <time>2020-02-03T12:54:24Z</time>
      </trkpt>
      <trkpt lat="25.685218" lon="-100.20253">
        <ele>438.439</ele>
        <time>2020-02-03T12:54:27Z</time>
      </trkpt>
      <trkpt lat="25.685213" lon="-100.20256">
        <ele>438.589</ele>
        <time>2020-02-03T12:54:28Z</time>
      </trkpt>
      <trkpt lat="25.685207" lon="-100.202589">
        <ele>438.568</ele>
        <time>2020-02-03T12:54:29Z</time>
      </trkpt>
      <trkpt lat="25.685203" lon="-100.202618">
        <ele>438.286</ele>
        <time>2020-02-03T12:54:30Z</time>
      </trkpt>
      <trkpt lat="25.685198" lon="-100.202647">
        <ele>438.814</ele>
        <time>2020-02-03T12:54:31Z</time>
      </trkpt>
      <trkpt lat="25.685192" lon="-100.202677">
        <ele>438.923</ele>
        <time>2020-02-03T12:54:32Z</time>
      </trkpt>
      <trkpt lat="25.685189" lon="-100.202708">
        <ele>439.797</ele>
        <time>2020-02-03T12:54:33Z</time>
      </trkpt>
      <trkpt lat="25.685191" lon="-100.202771">
        <ele>439.38</ele>
        <time>2020-02-03T12:54:35Z</time>
      </trkpt>
      <trkpt lat="25.685191" lon="-100.202801">
        <ele>439.491</ele>
        <time>2020-02-03T12:54:36Z</time>
      </trkpt>
      <trkpt lat="25.68519" lon="-100.202829">
        <ele>439.795</ele>
        <time>2020-02-03T12:54:37Z</time>
      </trkpt>
      <trkpt lat="25.685182" lon="-100.202882">
        <ele>440.415</ele>
        <time>2020-02-03T12:54:39Z</time>
      </trkpt>
      <trkpt lat="25.685176" lon="-100.202911">
        <ele>441.589</ele>
        <time>2020-02-03T12:54:40Z</time>
      </trkpt>
      <trkpt lat="25.685171" lon="-100.202944">
        <ele>441.499</ele>
        <time>2020-02-03T12:54:41Z</time>
      </trkpt>
      <trkpt lat="25.685167" lon="-100.202978">
        <ele>442.566</ele>
        <time>2020-02-03T12:54:42Z</time>
      </trkpt>
      <trkpt lat="25.685162" lon="-100.203014">
        <ele>442.973</ele>
        <time>2020-02-03T12:54:43Z</time>
      </trkpt>
      <trkpt lat="25.685158" lon="-100.203051">
        <ele>443.523</ele>
        <time>2020-02-03T12:54:44Z</time>
      </trkpt>
      <trkpt lat="25.685155" lon="-100.203087">
        <ele>443.538</ele>
        <time>2020-02-03T12:54:45Z</time>
      </trkpt>
      <trkpt lat="25.68515" lon="-100.203122">
        <ele>444.156</ele>
        <time>2020-02-03T12:54:46Z</time>
      </trkpt>
      <trkpt lat="25.685146" lon="-100.203157">
        <ele>444.51</ele>
        <time>2020-02-03T12:54:47Z</time>
      </trkpt>
      <trkpt lat="25.685142" lon="-100.20319">
        <ele>444.721</ele>
        <time>2020-02-03T12:54:48Z</time>
      </trkpt>
      <trkpt lat="25.685138" lon="-100.203222">
        <ele>443.958</ele>
        <time>2020-02-03T12:54:49Z</time>
      </trkpt>
      <trkpt lat="25.685134" lon="-100.203254">
        <ele>443.767</ele>
        <time>2020-02-03T12:54:50Z</time>
      </trkpt>
      <trkpt lat="25.685128" lon="-100.203285">
        <ele>445.23</ele>
        <time>2020-02-03T12:54:51Z</time>
      </trkpt>
      <trkpt lat="25.68512" lon="-100.203321">
        <ele>444.922</ele>
        <time>2020-02-03T12:54:52Z</time>
      </trkpt>
      <trkpt lat="25.685111" lon="-100.203356">
        <ele>446.082</ele>
        <time>2020-02-03T12:54:53Z</time>
      </trkpt>
      <trkpt lat="25.685087" lon="-100.203422">
        <ele>447.184</ele>
        <time>2020-02-03T12:54:55Z</time>
      </trkpt>
      <trkpt lat="25.685076" lon="-100.203457">
        <ele>447.651</ele>
        <time>2020-02-03T12:54:56Z</time>
      </trkpt>
      <trkpt lat="25.685065" lon="-100.203494">
        <ele>447.507</ele>
        <time>2020-02-03T12:54:57Z</time>
      </trkpt>
      <trkpt lat="25.685055" lon="-100.203528">
        <ele>447.009</ele>
        <time>2020-02-03T12:54:58Z</time>
      </trkpt>
      <trkpt lat="25.685047" lon="-100.203558">
        <ele>446.864</ele>
        <time>2020-02-03T12:54:59Z</time>
      </trkpt>
      <trkpt lat="25.685039" lon="-100.203589">
        <ele>446.682</ele>
        <time>2020-02-03T12:55:00Z</time>
      </trkpt>
      <trkpt lat="25.685031" lon="-100.203618">
        <ele>446.813</ele>
        <time>2020-02-03T12:55:01Z</time>
      </trkpt>
      <trkpt lat="25.685009" lon="-100.203674">
        <ele>447.372</ele>
        <time>2020-02-03T12:55:03Z</time>
      </trkpt>
      <trkpt lat="25.685" lon="-100.203704">
        <ele>447.397</ele>
        <time>2020-02-03T12:55:04Z</time>
      </trkpt>
      <trkpt lat="25.684991" lon="-100.203768">
        <ele>447.547</ele>
        <time>2020-02-03T12:55:06Z</time>
      </trkpt>
      <trkpt lat="25.684989" lon="-100.2038">
        <ele>447.76</ele>
        <time>2020-02-03T12:55:07Z</time>
      </trkpt>
      <trkpt lat="25.684986" lon="-100.203834">
        <ele>448.877</ele>
        <time>2020-02-03T12:55:08Z</time>
      </trkpt>
      <trkpt lat="25.684982" lon="-100.203867">
        <ele>448.165</ele>
        <time>2020-02-03T12:55:09Z</time>
      </trkpt>
      <trkpt lat="25.684981" lon="-100.203901">
        <ele>446.913</ele>
        <time>2020-02-03T12:55:10Z</time>
      </trkpt>
      <trkpt lat="25.684968" lon="-100.203966">
        <ele>446.857</ele>
        <time>2020-02-03T12:55:12Z</time>
      </trkpt>
      <trkpt lat="25.684963" lon="-100.203995">
        <ele>447.238</ele>
        <time>2020-02-03T12:55:13Z</time>
      </trkpt>
      <trkpt lat="25.684958" lon="-100.204025">
        <ele>447.486</ele>
        <time>2020-02-03T12:55:14Z</time>
      </trkpt>
      <trkpt lat="25.684954" lon="-100.204055">
        <ele>448.77</ele>
        <time>2020-02-03T12:55:15Z</time>
      </trkpt>
      <trkpt lat="25.684949" lon="-100.204086">
        <ele>448.466</ele>
        <time>2020-02-03T12:55:16Z</time>
      </trkpt>
      <trkpt lat="25.684937" lon="-100.204183">
        <ele>447.982</ele>
        <time>2020-02-03T12:55:19Z</time>
      </trkpt>
      <trkpt lat="25.684933" lon="-100.204244">
        <ele>447.684</ele>
        <time>2020-02-03T12:55:21Z</time>
      </trkpt>
      <trkpt lat="25.684931" lon="-100.204273">
        <ele>448.223</ele>
        <time>2020-02-03T12:55:22Z</time>
      </trkpt>
      <trkpt lat="25.684931" lon="-100.204302">
        <ele>447.169</ele>
        <time>2020-02-03T12:55:23Z</time>
      </trkpt>
      <trkpt lat="25.684932" lon="-100.204331">
        <ele>445.965</ele>
        <time>2020-02-03T12:55:24Z</time>
      </trkpt>
      <trkpt lat="25.684916" lon="-100.204409">
        <ele>446.877</ele>
        <time>2020-02-03T12:55:27Z</time>
      </trkpt>
      <trkpt lat="25.684889" lon="-100.204483">
        <ele>446.725</ele>
        <time>2020-02-03T12:55:30Z</time>
      </trkpt>
      <trkpt lat="25.684881" lon="-100.204512">
        <ele>445.892</ele>
        <time>2020-02-03T12:55:31Z</time>
      </trkpt>
      <trkpt lat="25.68487" lon="-100.204541">
        <ele>445.604</ele>
        <time>2020-02-03T12:55:32Z</time>
      </trkpt>
      <trkpt lat="25.684861" lon="-100.204572">
        <ele>446.195</ele>
        <time>2020-02-03T12:55:33Z</time>
      </trkpt>
      <trkpt lat="25.684853" lon="-100.204602">
        <ele>445.629</ele>
        <time>2020-02-03T12:55:34Z</time>
      </trkpt>
      <trkpt lat="25.684843" lon="-100.204632">
        <ele>445.235</ele>
        <time>2020-02-03T12:55:35Z</time>
      </trkpt>
      <trkpt lat="25.684807" lon="-100.204683">
        <ele>444.816</ele>
        <time>2020-02-03T12:55:37Z</time>
      </trkpt>
      <trkpt lat="25.684788" lon="-100.204707">
        <ele>444.997</ele>
        <time>2020-02-03T12:55:38Z</time>
      </trkpt>
      <trkpt lat="25.684765" lon="-100.204768">
        <ele>446.91</ele>
        <time>2020-02-03T12:55:40Z</time>
      </trkpt>
      <trkpt lat="25.684746" lon="-100.204839">
        <ele>447.589</ele>
        <time>2020-02-03T12:55:42Z</time>
      </trkpt>
      <trkpt lat="25.684712" lon="-100.204936">
        <ele>446.744</ele>
        <time>2020-02-03T12:55:45Z</time>
      </trkpt>
      <trkpt lat="25.6847" lon="-100.204991">
        <ele>446.031</ele>
        <time>2020-02-03T12:55:47Z</time>
      </trkpt>
      <trkpt lat="25.684696" lon="-100.205022">
        <ele>445.599</ele>
        <time>2020-02-03T12:55:48Z</time>
      </trkpt>
      <trkpt lat="25.684689" lon="-100.205053">
        <ele>444.637</ele>
        <time>2020-02-03T12:55:49Z</time>
      </trkpt>
      <trkpt lat="25.68467" lon="-100.205109">
        <ele>444.838</ele>
        <time>2020-02-03T12:55:51Z</time>
      </trkpt>
      <trkpt lat="25.684645" lon="-100.205161">
        <ele>444.663</ele>
        <time>2020-02-03T12:55:53Z</time>
      </trkpt>
      <trkpt lat="25.684615" lon="-100.205243">
        <ele>444.536</ele>
        <time>2020-02-03T12:55:56Z</time>
      </trkpt>
      <trkpt lat="25.684589" lon="-100.205299">
        <ele>444.934</ele>
        <time>2020-02-03T12:55:58Z</time>
      </trkpt>
      <trkpt lat="25.684577" lon="-100.205328">
        <ele>444.434</ele>
        <time>2020-02-03T12:55:59Z</time>
      </trkpt>
      <trkpt lat="25.684566" lon="-100.205357">
        <ele>444.106</ele>
        <time>2020-02-03T12:56:00Z</time>
      </trkpt>
      <trkpt lat="25.684541" lon="-100.205446">
        <ele>444.813</ele>
        <time>2020-02-03T12:56:03Z</time>
      </trkpt>
      <trkpt lat="25.684534" lon="-100.205476">
        <ele>444.062</ele>
        <time>2020-02-03T12:56:04Z</time>
      </trkpt>
      <trkpt lat="25.684524" lon="-100.205506">
        <ele>444.49</ele>
        <time>2020-02-03T12:56:05Z</time>
      </trkpt>
      <trkpt lat="25.684514" lon="-100.205535">
        <ele>444.935</ele>
        <time>2020-02-03T12:56:06Z</time>
      </trkpt>
      <trkpt lat="25.684505" lon="-100.205566">
        <ele>445.122</ele>
        <time>2020-02-03T12:56:07Z</time>
      </trkpt>
      <trkpt lat="25.684494" lon="-100.205596">
        <ele>445.844</ele>
        <time>2020-02-03T12:56:08Z</time>
      </trkpt>
      <trkpt lat="25.684482" lon="-100.205629">
        <ele>445.269</ele>
        <time>2020-02-03T12:56:09Z</time>
      </trkpt>
      <trkpt lat="25.684471" lon="-100.20566">
        <ele>445.15</ele>
        <time>2020-02-03T12:56:10Z</time>
      </trkpt>
      <trkpt lat="25.684458" lon="-100.205689">
        <ele>442.638</ele>
        <time>2020-02-03T12:56:11Z</time>
      </trkpt>
      <trkpt lat="25.684413" lon="-100.205769">
        <ele>442.429</ele>
        <time>2020-02-03T12:56:14Z</time>
      </trkpt>
      <trkpt lat="25.684394" lon="-100.205829">
        <ele>441.785</ele>
        <time>2020-02-03T12:56:16Z</time>
      </trkpt>
      <trkpt lat="25.684377" lon="-100.20589">
        <ele>441.442</ele>
        <time>2020-02-03T12:56:18Z</time>
      </trkpt>
      <trkpt lat="25.684344" lon="-100.205982">
        <ele>441.338</ele>
        <time>2020-02-03T12:56:21Z</time>
      </trkpt>
      <trkpt lat="25.684332" lon="-100.206012">
        <ele>441.498</ele>
        <time>2020-02-03T12:56:22Z</time>
      </trkpt>
      <trkpt lat="25.684322" lon="-100.206044">
        <ele>441.354</ele>
        <time>2020-02-03T12:56:23Z</time>
      </trkpt>
      <trkpt lat="25.684313" lon="-100.206076">
        <ele>441.528</ele>
        <time>2020-02-03T12:56:24Z</time>
      </trkpt>
      <trkpt lat="25.684297" lon="-100.20614">
        <ele>440.441</ele>
        <time>2020-02-03T12:56:26Z</time>
      </trkpt>
      <trkpt lat="25.684287" lon="-100.206172">
        <ele>439.652</ele>
        <time>2020-02-03T12:56:27Z</time>
      </trkpt>
      <trkpt lat="25.684277" lon="-100.206201">
        <ele>439.119</ele>
        <time>2020-02-03T12:56:28Z</time>
      </trkpt>
      <trkpt lat="25.684265" lon="-100.206229">
        <ele>439.452</ele>
        <time>2020-02-03T12:56:29Z</time>
      </trkpt>
      <trkpt lat="25.684255" lon="-100.206258">
        <ele>439.873</ele>
        <time>2020-02-03T12:56:30Z</time>
      </trkpt>
      <trkpt lat="25.684246" lon="-100.20629">
        <ele>439.831</ele>
        <time>2020-02-03T12:56:31Z</time>
      </trkpt>
      <trkpt lat="25.684238" lon="-100.20632">
        <ele>440.512</ele>
        <time>2020-02-03T12:56:32Z</time>
      </trkpt>
      <trkpt lat="25.684229" lon="-100.206349">
        <ele>441.171</ele>
        <time>2020-02-03T12:56:33Z</time>
      </trkpt>
      <trkpt lat="25.684218" lon="-100.206378">
        <ele>440.825</ele>
        <time>2020-02-03T12:56:34Z</time>
      </trkpt>
      <trkpt lat="25.68421" lon="-100.206407">
        <ele>441.555</ele>
        <time>2020-02-03T12:56:35Z</time>
      </trkpt>
      <trkpt lat="25.684193" lon="-100.206465">
        <ele>442.485</ele>
        <time>2020-02-03T12:56:37Z</time>
      </trkpt>
      <trkpt lat="25.684181" lon="-100.20652">
        <ele>443.042</ele>
        <time>2020-02-03T12:56:39Z</time>
      </trkpt>
      <trkpt lat="25.684162" lon="-100.206577">
        <ele>443.159</ele>
        <time>2020-02-03T12:56:41Z</time>
      </trkpt>
      <trkpt lat="25.684128" lon="-100.206659">
        <ele>443.189</ele>
        <time>2020-02-03T12:56:44Z</time>
      </trkpt>
      <trkpt lat="25.684117" lon="-100.206684">
        <ele>443.42</ele>
        <time>2020-02-03T12:56:45Z</time>
      </trkpt>
      <trkpt lat="25.684088" lon="-100.206728">
        <ele>442.292</ele>
        <time>2020-02-03T12:56:47Z</time>
      </trkpt>
      <trkpt lat="25.684051" lon="-100.206769">
        <ele>441.938</ele>
        <time>2020-02-03T12:56:49Z</time>
      </trkpt>
      <trkpt lat="25.684034" lon="-100.206792">
        <ele>443.292</ele>
        <time>2020-02-03T12:56:50Z</time>
      </trkpt>
      <trkpt lat="25.684008" lon="-100.206846">
        <ele>443.023</ele>
        <time>2020-02-03T12:56:52Z</time>
      </trkpt>
      <trkpt lat="25.683994" lon="-100.206906">
        <ele>442.748</ele>
        <time>2020-02-03T12:56:54Z</time>
      </trkpt>
      <trkpt lat="25.683987" lon="-100.206968">
        <ele>443.004</ele>
        <time>2020-02-03T12:56:56Z</time>
      </trkpt>
      <trkpt lat="25.683984" lon="-100.206998">
        <ele>443.65</ele>
        <time>2020-02-03T12:56:57Z</time>
      </trkpt>
      <trkpt lat="25.683965" lon="-100.207087">
        <ele>443.826</ele>
        <time>2020-02-03T12:57:00Z</time>
      </trkpt>
      <trkpt lat="25.683942" lon="-100.207142">
        <ele>443.704</ele>
        <time>2020-02-03T12:57:02Z</time>
      </trkpt>
      <trkpt lat="25.683929" lon="-100.207169">
        <ele>443.171</ele>
        <time>2020-02-03T12:57:03Z</time>
      </trkpt>
      <trkpt lat="25.683918" lon="-100.207195">
        <ele>442.595</ele>
        <time>2020-02-03T12:57:04Z</time>
      </trkpt>
      <trkpt lat="25.683896" lon="-100.207268">
        <ele>443.129</ele>
        <time>2020-02-03T12:57:07Z</time>
      </trkpt>
      <trkpt lat="25.683889" lon="-100.207298">
        <ele>443.191</ele>
        <time>2020-02-03T12:57:08Z</time>
      </trkpt>
      <trkpt lat="25.683882" lon="-100.207328">
        <ele>442.836</ele>
        <time>2020-02-03T12:57:09Z</time>
      </trkpt>
      <trkpt lat="25.683876" lon="-100.207359">
        <ele>443.188</ele>
        <time>2020-02-03T12:57:10Z</time>
      </trkpt>
      <trkpt lat="25.683869" lon="-100.207392">
        <ele>443.244</ele>
        <time>2020-02-03T12:57:11Z</time>
      </trkpt>
      <trkpt lat="25.68386" lon="-100.207423">
        <ele>444.421</ele>
        <time>2020-02-03T12:57:12Z</time>
      </trkpt>
      <trkpt lat="25.683849" lon="-100.207455">
        <ele>444.587</ele>
        <time>2020-02-03T12:57:13Z</time>
      </trkpt>
      <trkpt lat="25.683836" lon="-100.207488">
        <ele>444.458</ele>
        <time>2020-02-03T12:57:14Z</time>
      </trkpt>
      <trkpt lat="25.683823" lon="-100.207521">
        <ele>443.84</ele>
        <time>2020-02-03T12:57:15Z</time>
      </trkpt>
      <trkpt lat="25.68381" lon="-100.207554">
        <ele>443.214</ele>
        <time>2020-02-03T12:57:16Z</time>
      </trkpt>
      <trkpt lat="25.683788" lon="-100.207619">
        <ele>442.849</ele>
        <time>2020-02-03T12:57:18Z</time>
      </trkpt>
      <trkpt lat="25.68378" lon="-100.207648">
        <ele>441.713</ele>
        <time>2020-02-03T12:57:19Z</time>
      </trkpt>
      <trkpt lat="25.68377" lon="-100.207678">
        <ele>440.169</ele>
        <time>2020-02-03T12:57:20Z</time>
      </trkpt>
      <trkpt lat="25.683742" lon="-100.207732">
        <ele>439.953</ele>
        <time>2020-02-03T12:57:22Z</time>
      </trkpt>
      <trkpt lat="25.683705" lon="-100.207779">
        <ele>439.146</ele>
        <time>2020-02-03T12:57:24Z</time>
      </trkpt>
      <trkpt lat="25.683685" lon="-100.207801">
        <ele>439.942</ele>
        <time>2020-02-03T12:57:25Z</time>
      </trkpt>
      <trkpt lat="25.683667" lon="-100.207825">
        <ele>441.606</ele>
        <time>2020-02-03T12:57:26Z</time>
      </trkpt>
      <trkpt lat="25.683629" lon="-100.207908">
        <ele>442.767</ele>
        <time>2020-02-03T12:57:29Z</time>
      </trkpt>
      <trkpt lat="25.683614" lon="-100.207971">
        <ele>442.399</ele>
        <time>2020-02-03T12:57:31Z</time>
      </trkpt>
      <trkpt lat="25.683606" lon="-100.208033">
        <ele>442.141</ele>
        <time>2020-02-03T12:57:33Z</time>
      </trkpt>
      <trkpt lat="25.683595" lon="-100.208094">
        <ele>442.302</ele>
        <time>2020-02-03T12:57:35Z</time>
      </trkpt>
      <trkpt lat="25.68359" lon="-100.208124">
        <ele>441.07</ele>
        <time>2020-02-03T12:57:36Z</time>
      </trkpt>
      <trkpt lat="25.683603" lon="-100.208199">
        <ele>440.798</ele>
        <time>2020-02-03T12:57:39Z</time>
      </trkpt>
      <trkpt lat="25.683606" lon="-100.208229">
        <ele>441.592</ele>
        <time>2020-02-03T12:57:40Z</time>
      </trkpt>
      <trkpt lat="25.683609" lon="-100.208261">
        <ele>440.876</ele>
        <time>2020-02-03T12:57:41Z</time>
      </trkpt>
      <trkpt lat="25.683613" lon="-100.208293">
        <ele>441.396</ele>
        <time>2020-02-03T12:57:42Z</time>
      </trkpt>
      <trkpt lat="25.68362" lon="-100.208328">
        <ele>441.707</ele>
        <time>2020-02-03T12:57:43Z</time>
      </trkpt>
      <trkpt lat="25.683652" lon="-100.208417">
        <ele>441.551</ele>
        <time>2020-02-03T12:57:46Z</time>
      </trkpt>
      <trkpt lat="25.683665" lon="-100.208483">
        <ele>442.417</ele>
        <time>2020-02-03T12:57:48Z</time>
      </trkpt>
      <trkpt lat="25.683664" lon="-100.208571">
        <ele>442.194</ele>
        <time>2020-02-03T12:57:51Z</time>
      </trkpt>
      <trkpt lat="25.683662" lon="-100.2086">
        <ele>442.401</ele>
        <time>2020-02-03T12:57:52Z</time>
      </trkpt>
      <trkpt lat="25.68366" lon="-100.20863">
        <ele>442.087</ele>
        <time>2020-02-03T12:57:53Z</time>
      </trkpt>
      <trkpt lat="25.683665" lon="-100.208687">
        <ele>442.991</ele>
        <time>2020-02-03T12:57:55Z</time>
      </trkpt>
      <trkpt lat="25.683669" lon="-100.208716">
        <ele>442.585</ele>
        <time>2020-02-03T12:57:56Z</time>
      </trkpt>
      <trkpt lat="25.683672" lon="-100.208748">
        <ele>442.58</ele>
        <time>2020-02-03T12:57:57Z</time>
      </trkpt>
      <trkpt lat="25.683669" lon="-100.208838">
        <ele>442.514</ele>
        <time>2020-02-03T12:58:00Z</time>
      </trkpt>
      <trkpt lat="25.683682" lon="-100.208954">
        <ele>443.116</ele>
        <time>2020-02-03T12:58:04Z</time>
      </trkpt>
      <trkpt lat="25.683691" lon="-100.209004">
        <ele>443.469</ele>
        <time>2020-02-03T12:58:06Z</time>
      </trkpt>
      <trkpt lat="25.683706" lon="-100.209057">
        <ele>444.125</ele>
        <time>2020-02-03T12:58:08Z</time>
      </trkpt>
      <trkpt lat="25.683712" lon="-100.209083">
        <ele>444.422</ele>
        <time>2020-02-03T12:58:09Z</time>
      </trkpt>
      <trkpt lat="25.683719" lon="-100.209137">
        <ele>444.852</ele>
        <time>2020-02-03T12:58:11Z</time>
      </trkpt>
      <trkpt lat="25.683719" lon="-100.209198">
        <ele>445.205</ele>
        <time>2020-02-03T12:58:13Z</time>
      </trkpt>
      <trkpt lat="25.683719" lon="-100.209229">
        <ele>445.554</ele>
        <time>2020-02-03T12:58:14Z</time>
      </trkpt>
      <trkpt lat="25.683724" lon="-100.209287">
        <ele>445.323</ele>
        <time>2020-02-03T12:58:16Z</time>
      </trkpt>
      <trkpt lat="25.683725" lon="-100.209316">
        <ele>445.486</ele>
        <time>2020-02-03T12:58:17Z</time>
      </trkpt>
      <trkpt lat="25.683729" lon="-100.209407">
        <ele>445.764</ele>
        <time>2020-02-03T12:58:20Z</time>
      </trkpt>
      <trkpt lat="25.683727" lon="-100.209466">
        <ele>446.489</ele>
        <time>2020-02-03T12:58:22Z</time>
      </trkpt>
      <trkpt lat="25.683733" lon="-100.209523">
        <ele>446.35</ele>
        <time>2020-02-03T12:58:24Z</time>
      </trkpt>
      <trkpt lat="25.683732" lon="-100.209584">
        <ele>447.9</ele>
        <time>2020-02-03T12:58:26Z</time>
      </trkpt>
      <trkpt lat="25.683733" lon="-100.209615">
        <ele>446.73</ele>
        <time>2020-02-03T12:58:27Z</time>
      </trkpt>
      <trkpt lat="25.683735" lon="-100.209645">
        <ele>445.771</ele>
        <time>2020-02-03T12:58:28Z</time>
      </trkpt>
      <trkpt lat="25.683734" lon="-100.209674">
        <ele>445.65</ele>
        <time>2020-02-03T12:58:29Z</time>
      </trkpt>
      <trkpt lat="25.683732" lon="-100.209703">
        <ele>445.606</ele>
        <time>2020-02-03T12:58:30Z</time>
      </trkpt>
      <trkpt lat="25.683729" lon="-100.209732">
        <ele>445.156</ele>
        <time>2020-02-03T12:58:31Z</time>
      </trkpt>
      <trkpt lat="25.683728" lon="-100.209759">
        <ele>444.631</ele>
        <time>2020-02-03T12:58:32Z</time>
      </trkpt>
      <trkpt lat="25.683727" lon="-100.209788">
        <ele>444.808</ele>
        <time>2020-02-03T12:58:33Z</time>
      </trkpt>
      <trkpt lat="25.683719" lon="-100.209843">
        <ele>443.998</ele>
        <time>2020-02-03T12:58:35Z</time>
      </trkpt>
      <trkpt lat="25.683716" lon="-100.209872">
        <ele>444.055</ele>
        <time>2020-02-03T12:58:36Z</time>
      </trkpt>
      <trkpt lat="25.683714" lon="-100.209904">
        <ele>443.978</ele>
        <time>2020-02-03T12:58:37Z</time>
      </trkpt>
      <trkpt lat="25.683714" lon="-100.209936">
        <ele>444.744</ele>
        <time>2020-02-03T12:58:38Z</time>
      </trkpt>
      <trkpt lat="25.683714" lon="-100.209969">
        <ele>444.401</ele>
        <time>2020-02-03T12:58:39Z</time>
      </trkpt>
      <trkpt lat="25.683717" lon="-100.209999">
        <ele>444.392</ele>
        <time>2020-02-03T12:58:40Z</time>
      </trkpt>
      <trkpt lat="25.683718" lon="-100.210029">
        <ele>444.746</ele>
        <time>2020-02-03T12:58:41Z</time>
      </trkpt>
      <trkpt lat="25.683718" lon="-100.21006">
        <ele>444.257</ele>
        <time>2020-02-03T12:58:42Z</time>
      </trkpt>
      <trkpt lat="25.683719" lon="-100.210089">
        <ele>444.315</ele>
        <time>2020-02-03T12:58:43Z</time>
      </trkpt>
      <trkpt lat="25.683718" lon="-100.210119">
        <ele>443.732</ele>
        <time>2020-02-03T12:58:44Z</time>
      </trkpt>
      <trkpt lat="25.683717" lon="-100.21015">
        <ele>442.771</ele>
        <time>2020-02-03T12:58:45Z</time>
      </trkpt>
      <trkpt lat="25.683715" lon="-100.210179">
        <ele>443.368</ele>
        <time>2020-02-03T12:58:46Z</time>
      </trkpt>
      <trkpt lat="25.683713" lon="-100.210209">
        <ele>443.857</ele>
        <time>2020-02-03T12:58:47Z</time>
      </trkpt>
      <trkpt lat="25.683712" lon="-100.210241">
        <ele>444.357</ele>
        <time>2020-02-03T12:58:48Z</time>
      </trkpt>
      <trkpt lat="25.683711" lon="-100.210274">
        <ele>444.153</ele>
        <time>2020-02-03T12:58:49Z</time>
      </trkpt>
      <trkpt lat="25.683707" lon="-100.210306">
        <ele>443.977</ele>
        <time>2020-02-03T12:58:50Z</time>
      </trkpt>
      <trkpt lat="25.68368" lon="-100.210395">
        <ele>443.902</ele>
        <time>2020-02-03T12:58:53Z</time>
      </trkpt>
      <trkpt lat="25.683693" lon="-100.210488">
        <ele>443.717</ele>
        <time>2020-02-03T12:58:56Z</time>
      </trkpt>
      <trkpt lat="25.683702" lon="-100.210537">
        <ele>443.499</ele>
        <time>2020-02-03T12:58:58Z</time>
      </trkpt>
      <trkpt lat="25.683714" lon="-100.210595">
        <ele>443.193</ele>
        <time>2020-02-03T12:59:00Z</time>
      </trkpt>
      <trkpt lat="25.683734" lon="-100.210653">
        <ele>443.809</ele>
        <time>2020-02-03T12:59:03Z</time>
      </trkpt>
      <trkpt lat="25.683749" lon="-100.210713">
        <ele>444.625</ele>
        <time>2020-02-03T12:59:05Z</time>
      </trkpt>
      <trkpt lat="25.683766" lon="-100.210776">
        <ele>444.12</ele>
        <time>2020-02-03T12:59:07Z</time>
      </trkpt>
      <trkpt lat="25.683777" lon="-100.210839">
        <ele>444.336</ele>
        <time>2020-02-03T12:59:09Z</time>
      </trkpt>
      <trkpt lat="25.683783" lon="-100.210935">
        <ele>444.925</ele>
        <time>2020-02-03T12:59:12Z</time>
      </trkpt>
      <trkpt lat="25.683784" lon="-100.210973">
        <ele>444.449</ele>
        <time>2020-02-03T12:59:13Z</time>
      </trkpt>
      <trkpt lat="25.683785" lon="-100.21101">
        <ele>444.117</ele>
        <time>2020-02-03T12:59:14Z</time>
      </trkpt>
      <trkpt lat="25.683786" lon="-100.211046">
        <ele>444.035</ele>
        <time>2020-02-03T12:59:15Z</time>
      </trkpt>
      <trkpt lat="25.683785" lon="-100.211078">
        <ele>443.498</ele>
        <time>2020-02-03T12:59:16Z</time>
      </trkpt>
      <trkpt lat="25.683794" lon="-100.211141">
        <ele>444.247</ele>
        <time>2020-02-03T12:59:18Z</time>
      </trkpt>
      <trkpt lat="25.68382" lon="-100.21123">
        <ele>445.711</ele>
        <time>2020-02-03T12:59:21Z</time>
      </trkpt>
      <trkpt lat="25.683836" lon="-100.211292">
        <ele>447.099</ele>
        <time>2020-02-03T12:59:23Z</time>
      </trkpt>
      <trkpt lat="25.683845" lon="-100.211324">
        <ele>446.495</ele>
        <time>2020-02-03T12:59:24Z</time>
      </trkpt>
      <trkpt lat="25.683852" lon="-100.211356">
        <ele>445.287</ele>
        <time>2020-02-03T12:59:25Z</time>
      </trkpt>
      <trkpt lat="25.683857" lon="-100.211382">
        <ele>445.343</ele>
        <time>2020-02-03T12:59:26Z</time>
      </trkpt>
      <trkpt lat="25.683862" lon="-100.211409">
        <ele>445.921</ele>
        <time>2020-02-03T12:59:27Z</time>
      </trkpt>
      <trkpt lat="25.683867" lon="-100.211436">
        <ele>445.649</ele>
        <time>2020-02-03T12:59:28Z</time>
      </trkpt>
      <trkpt lat="25.683884" lon="-100.211494">
        <ele>446.842</ele>
        <time>2020-02-03T12:59:30Z</time>
      </trkpt>
      <trkpt lat="25.683891" lon="-100.211523">
        <ele>447.439</ele>
        <time>2020-02-03T12:59:31Z</time>
      </trkpt>
      <trkpt lat="25.6839" lon="-100.211554">
        <ele>447.924</ele>
        <time>2020-02-03T12:59:32Z</time>
      </trkpt>
      <trkpt lat="25.683909" lon="-100.211586">
        <ele>447.726</ele>
        <time>2020-02-03T12:59:33Z</time>
      </trkpt>
      <trkpt lat="25.683917" lon="-100.211617">
        <ele>448.469</ele>
        <time>2020-02-03T12:59:34Z</time>
      </trkpt>
      <trkpt lat="25.683924" lon="-100.21165">
        <ele>449.469</ele>
        <time>2020-02-03T12:59:35Z</time>
      </trkpt>
      <trkpt lat="25.683929" lon="-100.211683">
        <ele>449.491</ele>
        <time>2020-02-03T12:59:36Z</time>
      </trkpt>
      <trkpt lat="25.683939" lon="-100.211746">
        <ele>449.161</ele>
        <time>2020-02-03T12:59:38Z</time>
      </trkpt>
      <trkpt lat="25.683942" lon="-100.211777">
        <ele>449.286</ele>
        <time>2020-02-03T12:59:39Z</time>
      </trkpt>
      <trkpt lat="25.683944" lon="-100.211812">
        <ele>448.897</ele>
        <time>2020-02-03T12:59:40Z</time>
      </trkpt>
      <trkpt lat="25.683946" lon="-100.211846">
        <ele>448.906</ele>
        <time>2020-02-03T12:59:41Z</time>
      </trkpt>
      <trkpt lat="25.683948" lon="-100.211884">
        <ele>447.618</ele>
        <time>2020-02-03T12:59:42Z</time>
      </trkpt>
      <trkpt lat="25.683942" lon="-100.211993">
        <ele>448.383</ele>
        <time>2020-02-03T12:59:45Z</time>
      </trkpt>
      <trkpt lat="25.68395" lon="-100.212061">
        <ele>447.192</ele>
        <time>2020-02-03T12:59:47Z</time>
      </trkpt>
      <trkpt lat="25.68397" lon="-100.212122">
        <ele>447.639</ele>
        <time>2020-02-03T12:59:49Z</time>
      </trkpt>
      <trkpt lat="25.683984" lon="-100.212186">
        <ele>448.903</ele>
        <time>2020-02-03T12:59:51Z</time>
      </trkpt>
      <trkpt lat="25.68399" lon="-100.212218">
        <ele>448.844</ele>
        <time>2020-02-03T12:59:52Z</time>
      </trkpt>
      <trkpt lat="25.683995" lon="-100.21225">
        <ele>449.476</ele>
        <time>2020-02-03T12:59:53Z</time>
      </trkpt>
      <trkpt lat="25.684" lon="-100.212284">
        <ele>449.719</ele>
        <time>2020-02-03T12:59:54Z</time>
      </trkpt>
      <trkpt lat="25.684005" lon="-100.212315">
        <ele>448.862</ele>
        <time>2020-02-03T12:59:55Z</time>
      </trkpt>
      <trkpt lat="25.68401" lon="-100.21238">
        <ele>448.488</ele>
        <time>2020-02-03T12:59:57Z</time>
      </trkpt>
      <trkpt lat="25.684017" lon="-100.212439">
        <ele>447.55</ele>
        <time>2020-02-03T12:59:59Z</time>
      </trkpt>
      <trkpt lat="25.684019" lon="-100.212469">
        <ele>447.797</ele>
        <time>2020-02-03T13:00:00Z</time>
      </trkpt>
      <trkpt lat="25.684021" lon="-100.2125">
        <ele>446.974</ele>
        <time>2020-02-03T13:00:01Z</time>
      </trkpt>
      <trkpt lat="25.68404" lon="-100.212587">
        <ele>446.982</ele>
        <time>2020-02-03T13:00:04Z</time>
      </trkpt>
      <trkpt lat="25.684046" lon="-100.212616">
        <ele>447.41</ele>
        <time>2020-02-03T13:00:05Z</time>
      </trkpt>
      <trkpt lat="25.684051" lon="-100.212646">
        <ele>447.896</ele>
        <time>2020-02-03T13:00:06Z</time>
      </trkpt>
      <trkpt lat="25.684073" lon="-100.212736">
        <ele>447.267</ele>
        <time>2020-02-03T13:00:09Z</time>
      </trkpt>
      <trkpt lat="25.684078" lon="-100.212766">
        <ele>446.702</ele>
        <time>2020-02-03T13:00:10Z</time>
      </trkpt>
      <trkpt lat="25.684082" lon="-100.212795">
        <ele>446.586</ele>
        <time>2020-02-03T13:00:11Z</time>
      </trkpt>
      <trkpt lat="25.684085" lon="-100.212824">
        <ele>447.684</ele>
        <time>2020-02-03T13:00:12Z</time>
      </trkpt>
      <trkpt lat="25.684082" lon="-100.212887">
        <ele>448.568</ele>
        <time>2020-02-03T13:00:14Z</time>
      </trkpt>
      <trkpt lat="25.68408" lon="-100.212917">
        <ele>448.133</ele>
        <time>2020-02-03T13:00:15Z</time>
      </trkpt>
      <trkpt lat="25.684083" lon="-100.212981">
        <ele>447.742</ele>
        <time>2020-02-03T13:00:17Z</time>
      </trkpt>
      <trkpt lat="25.684076" lon="-100.21305">
        <ele>447.494</ele>
        <time>2020-02-03T13:00:19Z</time>
      </trkpt>
      <trkpt lat="25.68407" lon="-100.213085">
        <ele>447.27</ele>
        <time>2020-02-03T13:00:20Z</time>
      </trkpt>
      <trkpt lat="25.684069" lon="-100.213153">
        <ele>447.591</ele>
        <time>2020-02-03T13:00:22Z</time>
      </trkpt>
      <trkpt lat="25.68406" lon="-100.213217">
        <ele>447.234</ele>
        <time>2020-02-03T13:00:24Z</time>
      </trkpt>
      <trkpt lat="25.684058" lon="-100.213246">
        <ele>447.948</ele>
        <time>2020-02-03T13:00:25Z</time>
      </trkpt>
      <trkpt lat="25.684061" lon="-100.213328">
        <ele>448.284</ele>
        <time>2020-02-03T13:00:28Z</time>
      </trkpt>
      <trkpt lat="25.684056" lon="-100.213385">
        <ele>448.372</ele>
        <time>2020-02-03T13:00:30Z</time>
      </trkpt>
      <trkpt lat="25.684053" lon="-100.213414">
        <ele>448.242</ele>
        <time>2020-02-03T13:00:31Z</time>
      </trkpt>
      <trkpt lat="25.684049" lon="-100.213443">
        <ele>447.797</ele>
        <time>2020-02-03T13:00:32Z</time>
      </trkpt>
      <trkpt lat="25.684045" lon="-100.213472">
        <ele>450.328</ele>
        <time>2020-02-03T13:00:33Z</time>
      </trkpt>
      <trkpt lat="25.684066" lon="-100.213556">
        <ele>451.025</ele>
        <time>2020-02-03T13:00:36Z</time>
      </trkpt>
      <trkpt lat="25.684079" lon="-100.213643">
        <ele>450.701</ele>
        <time>2020-02-03T13:00:39Z</time>
      </trkpt>
      <trkpt lat="25.684072" lon="-100.213704">
        <ele>450.182</ele>
        <time>2020-02-03T13:00:41Z</time>
      </trkpt>
      <trkpt lat="25.684071" lon="-100.213764">
        <ele>450.867</ele>
        <time>2020-02-03T13:00:43Z</time>
      </trkpt>
      <trkpt lat="25.684068" lon="-100.213822">
        <ele>449.264</ele>
        <time>2020-02-03T13:00:45Z</time>
      </trkpt>
      <trkpt lat="25.684049" lon="-100.213878">
        <ele>445.147</ele>
        <time>2020-02-03T13:00:48Z</time>
      </trkpt>
      <trkpt lat="25.684009" lon="-100.213921">
        <ele>444.613</ele>
        <time>2020-02-03T13:00:54Z</time>
      </trkpt>
      <trkpt lat="25.683993" lon="-100.21394">
        <ele>444.82</ele>
        <time>2020-02-03T13:00:56Z</time>
      </trkpt>
      <trkpt lat="25.68397" lon="-100.213998">
        <ele>445.205</ele>
        <time>2020-02-03T13:01:01Z</time>
      </trkpt>
      <trkpt lat="25.683963" lon="-100.214072">
        <ele>445.085</ele>
        <time>2020-02-03T13:01:04Z</time>
      </trkpt>
      <trkpt lat="25.683946" lon="-100.214137">
        <ele>445.913</ele>
        <time>2020-02-03T13:01:06Z</time>
      </trkpt>
      <trkpt lat="25.683937" lon="-100.214175">
        <ele>445.861</ele>
        <time>2020-02-03T13:01:07Z</time>
      </trkpt>
      <trkpt lat="25.683936" lon="-100.214236">
        <ele>445.358</ele>
        <time>2020-02-03T13:01:09Z</time>
      </trkpt>
      <trkpt lat="25.683941" lon="-100.214304">
        <ele>445.298</ele>
        <time>2020-02-03T13:01:11Z</time>
      </trkpt>
      <trkpt lat="25.683937" lon="-100.214408">
        <ele>445.872</ele>
        <time>2020-02-03T13:01:14Z</time>
      </trkpt>
      <trkpt lat="25.683949" lon="-100.214504">
        <ele>446.322</ele>
        <time>2020-02-03T13:01:17Z</time>
      </trkpt>
      <trkpt lat="25.683965" lon="-100.214599">
        <ele>446.85</ele>
        <time>2020-02-03T13:01:20Z</time>
      </trkpt>
      <trkpt lat="25.68396" lon="-100.214663">
        <ele>447.202</ele>
        <time>2020-02-03T13:01:22Z</time>
      </trkpt>
      <trkpt lat="25.683959" lon="-100.214694">
        <ele>447.017</ele>
        <time>2020-02-03T13:01:23Z</time>
      </trkpt>
      <trkpt lat="25.683956" lon="-100.214723">
        <ele>446.265</ele>
        <time>2020-02-03T13:01:24Z</time>
      </trkpt>
      <trkpt lat="25.683955" lon="-100.214748">
        <ele>445.743</ele>
        <time>2020-02-03T13:01:25Z</time>
      </trkpt>
      <trkpt lat="25.683968" lon="-100.214807">
        <ele>445.831</ele>
        <time>2020-02-03T13:01:27Z</time>
      </trkpt>
      <trkpt lat="25.683977" lon="-100.214867">
        <ele>444.66</ele>
        <time>2020-02-03T13:01:29Z</time>
      </trkpt>
      <trkpt lat="25.683979" lon="-100.214926">
        <ele>444.645</ele>
        <time>2020-02-03T13:01:31Z</time>
      </trkpt>
      <trkpt lat="25.683973" lon="-100.214987">
        <ele>445.787</ele>
        <time>2020-02-03T13:01:33Z</time>
      </trkpt>
      <trkpt lat="25.683969" lon="-100.215021">
        <ele>446.456</ele>
        <time>2020-02-03T13:01:34Z</time>
      </trkpt>
      <trkpt lat="25.683971" lon="-100.215083">
        <ele>445.315</ele>
        <time>2020-02-03T13:01:36Z</time>
      </trkpt>
      <trkpt lat="25.68397" lon="-100.21511">
        <ele>446.013</ele>
        <time>2020-02-03T13:01:37Z</time>
      </trkpt>
      <trkpt lat="25.683967" lon="-100.215139">
        <ele>444.809</ele>
        <time>2020-02-03T13:01:38Z</time>
      </trkpt>
      <trkpt lat="25.683962" lon="-100.215167">
        <ele>445.008</ele>
        <time>2020-02-03T13:01:39Z</time>
      </trkpt>
      <trkpt lat="25.683959" lon="-100.215196">
        <ele>446.407</ele>
        <time>2020-02-03T13:01:40Z</time>
      </trkpt>
      <trkpt lat="25.683958" lon="-100.215281">
        <ele>447.713</ele>
        <time>2020-02-03T13:01:43Z</time>
      </trkpt>
      <trkpt lat="25.683951" lon="-100.215336">
        <ele>447.91</ele>
        <time>2020-02-03T13:01:45Z</time>
      </trkpt>
      <trkpt lat="25.683948" lon="-100.215363">
        <ele>448.137</ele>
        <time>2020-02-03T13:01:46Z</time>
      </trkpt>
      <trkpt lat="25.683945" lon="-100.21539">
        <ele>447.152</ele>
        <time>2020-02-03T13:01:47Z</time>
      </trkpt>
      <trkpt lat="25.683942" lon="-100.215417">
        <ele>447.625</ele>
        <time>2020-02-03T13:01:48Z</time>
      </trkpt>
      <trkpt lat="25.683939" lon="-100.215446">
        <ele>447.87</ele>
        <time>2020-02-03T13:01:49Z</time>
      </trkpt>
      <trkpt lat="25.683939" lon="-100.215474">
        <ele>448.012</ele>
        <time>2020-02-03T13:01:50Z</time>
      </trkpt>
      <trkpt lat="25.683939" lon="-100.215503">
        <ele>448.556</ele>
        <time>2020-02-03T13:01:51Z</time>
      </trkpt>
      <trkpt lat="25.683941" lon="-100.215532">
        <ele>447.101</ele>
        <time>2020-02-03T13:01:52Z</time>
      </trkpt>
      <trkpt lat="25.683943" lon="-100.215558">
        <ele>446.975</ele>
        <time>2020-02-03T13:01:53Z</time>
      </trkpt>
      <trkpt lat="25.683944" lon="-100.215585">
        <ele>446.17</ele>
        <time>2020-02-03T13:01:54Z</time>
      </trkpt>
      <trkpt lat="25.683944" lon="-100.21561">
        <ele>446.026</ele>
        <time>2020-02-03T13:01:55Z</time>
      </trkpt>
      <trkpt lat="25.683942" lon="-100.215636">
        <ele>445.257</ele>
        <time>2020-02-03T13:01:56Z</time>
      </trkpt>
      <trkpt lat="25.683936" lon="-100.215714">
        <ele>444.522</ele>
        <time>2020-02-03T13:01:59Z</time>
      </trkpt>
      <trkpt lat="25.683935" lon="-100.21574">
        <ele>444.498</ele>
        <time>2020-02-03T13:02:00Z</time>
      </trkpt>
      <trkpt lat="25.683934" lon="-100.215767">
        <ele>444.786</ele>
        <time>2020-02-03T13:02:01Z</time>
      </trkpt>
      <trkpt lat="25.683928" lon="-100.215826">
        <ele>445.115</ele>
        <time>2020-02-03T13:02:03Z</time>
      </trkpt>
      <trkpt lat="25.683924" lon="-100.215856">
        <ele>444.82</ele>
        <time>2020-02-03T13:02:04Z</time>
      </trkpt>
      <trkpt lat="25.68392" lon="-100.215888">
        <ele>445.029</ele>
        <time>2020-02-03T13:02:05Z</time>
      </trkpt>
      <trkpt lat="25.683918" lon="-100.215919">
        <ele>445.501</ele>
        <time>2020-02-03T13:02:06Z</time>
      </trkpt>
      <trkpt lat="25.683917" lon="-100.215951">
        <ele>445.874</ele>
        <time>2020-02-03T13:02:07Z</time>
      </trkpt>
      <trkpt lat="25.683924" lon="-100.21601">
        <ele>446.28</ele>
        <time>2020-02-03T13:02:09Z</time>
      </trkpt>
      <trkpt lat="25.683928" lon="-100.216041">
        <ele>445.954</ele>
        <time>2020-02-03T13:02:10Z</time>
      </trkpt>
      <trkpt lat="25.683931" lon="-100.216073">
        <ele>446.861</ele>
        <time>2020-02-03T13:02:11Z</time>
      </trkpt>
      <trkpt lat="25.683933" lon="-100.216107">
        <ele>446.533</ele>
        <time>2020-02-03T13:02:12Z</time>
      </trkpt>
      <trkpt lat="25.683934" lon="-100.216142">
        <ele>448.102</ele>
        <time>2020-02-03T13:02:13Z</time>
      </trkpt>
      <trkpt lat="25.683938" lon="-100.216178">
        <ele>448.477</ele>
        <time>2020-02-03T13:02:14Z</time>
      </trkpt>
      <trkpt lat="25.683941" lon="-100.216214">
        <ele>449.02</ele>
        <time>2020-02-03T13:02:15Z</time>
      </trkpt>
      <trkpt lat="25.683937" lon="-100.216285">
        <ele>449.691</ele>
        <time>2020-02-03T13:02:17Z</time>
      </trkpt>
      <trkpt lat="25.683922" lon="-100.21635">
        <ele>449.495</ele>
        <time>2020-02-03T13:02:19Z</time>
      </trkpt>
      <trkpt lat="25.683916" lon="-100.216383">
        <ele>449.679</ele>
        <time>2020-02-03T13:02:20Z</time>
      </trkpt>
      <trkpt lat="25.683912" lon="-100.216415">
        <ele>449.225</ele>
        <time>2020-02-03T13:02:21Z</time>
      </trkpt>
      <trkpt lat="25.683909" lon="-100.216448">
        <ele>449.021</ele>
        <time>2020-02-03T13:02:22Z</time>
      </trkpt>
      <trkpt lat="25.683909" lon="-100.216478">
        <ele>448.082</ele>
        <time>2020-02-03T13:02:23Z</time>
      </trkpt>
      <trkpt lat="25.683902" lon="-100.216534">
        <ele>447.747</ele>
        <time>2020-02-03T13:02:25Z</time>
      </trkpt>
      <trkpt lat="25.683898" lon="-100.216563">
        <ele>448.596</ele>
        <time>2020-02-03T13:02:26Z</time>
      </trkpt>
      <trkpt lat="25.683894" lon="-100.216591">
        <ele>448.696</ele>
        <time>2020-02-03T13:02:27Z</time>
      </trkpt>
      <trkpt lat="25.683892" lon="-100.21662">
        <ele>448.218</ele>
        <time>2020-02-03T13:02:28Z</time>
      </trkpt>
      <trkpt lat="25.683889" lon="-100.216652">
        <ele>448.773</ele>
        <time>2020-02-03T13:02:29Z</time>
      </trkpt>
      <trkpt lat="25.683886" lon="-100.216684">
        <ele>449.261</ele>
        <time>2020-02-03T13:02:30Z</time>
      </trkpt>
      <trkpt lat="25.683886" lon="-100.216714">
        <ele>448.248</ele>
        <time>2020-02-03T13:02:31Z</time>
      </trkpt>
      <trkpt lat="25.683884" lon="-100.216743">
        <ele>446.454</ele>
        <time>2020-02-03T13:02:32Z</time>
      </trkpt>
      <trkpt lat="25.683883" lon="-100.216772">
        <ele>446.449</ele>
        <time>2020-02-03T13:02:33Z</time>
      </trkpt>
      <trkpt lat="25.683887" lon="-100.21685">
        <ele>446.607</ele>
        <time>2020-02-03T13:02:36Z</time>
      </trkpt>
      <trkpt lat="25.683881" lon="-100.21691">
        <ele>446.535</ele>
        <time>2020-02-03T13:02:38Z</time>
      </trkpt>
      <trkpt lat="25.683877" lon="-100.21694">
        <ele>445.468</ele>
        <time>2020-02-03T13:02:39Z</time>
      </trkpt>
      <trkpt lat="25.683873" lon="-100.216969">
        <ele>445.146</ele>
        <time>2020-02-03T13:02:40Z</time>
      </trkpt>
      <trkpt lat="25.683871" lon="-100.216997">
        <ele>446.008</ele>
        <time>2020-02-03T13:02:41Z</time>
      </trkpt>
      <trkpt lat="25.683874" lon="-100.217052">
        <ele>445.709</ele>
        <time>2020-02-03T13:02:43Z</time>
      </trkpt>
      <trkpt lat="25.683874" lon="-100.21708">
        <ele>446.47</ele>
        <time>2020-02-03T13:02:44Z</time>
      </trkpt>
      <trkpt lat="25.683873" lon="-100.217109">
        <ele>446.664</ele>
        <time>2020-02-03T13:02:45Z</time>
      </trkpt>
      <trkpt lat="25.68387" lon="-100.217137">
        <ele>446.964</ele>
        <time>2020-02-03T13:02:46Z</time>
      </trkpt>
      <trkpt lat="25.683868" lon="-100.217167">
        <ele>447.612</ele>
        <time>2020-02-03T13:02:47Z</time>
      </trkpt>
      <trkpt lat="25.683868" lon="-100.217197">
        <ele>448.328</ele>
        <time>2020-02-03T13:02:48Z</time>
      </trkpt>
      <trkpt lat="25.683877" lon="-100.217249">
        <ele>448.447</ele>
        <time>2020-02-03T13:02:50Z</time>
      </trkpt>
      <trkpt lat="25.683882" lon="-100.21728">
        <ele>449.44</ele>
        <time>2020-02-03T13:02:51Z</time>
      </trkpt>
      <trkpt lat="25.683886" lon="-100.217312">
        <ele>449.33</ele>
        <time>2020-02-03T13:02:52Z</time>
      </trkpt>
      <trkpt lat="25.683891" lon="-100.217402">
        <ele>449.586</ele>
        <time>2020-02-03T13:02:55Z</time>
      </trkpt>
      <trkpt lat="25.683892" lon="-100.217432">
        <ele>449.248</ele>
        <time>2020-02-03T13:02:56Z</time>
      </trkpt>
      <trkpt lat="25.683892" lon="-100.217459">
        <ele>448.997</ele>
        <time>2020-02-03T13:02:57Z</time>
      </trkpt>
      <trkpt lat="25.683894" lon="-100.217485">
        <ele>449.144</ele>
        <time>2020-02-03T13:02:58Z</time>
      </trkpt>
      <trkpt lat="25.683896" lon="-100.21751">
        <ele>449.35</ele>
        <time>2020-02-03T13:02:59Z</time>
      </trkpt>
      <trkpt lat="25.683885" lon="-100.217559">
        <ele>448.549</ele>
        <time>2020-02-03T13:03:01Z</time>
      </trkpt>
      <trkpt lat="25.683866" lon="-100.217613">
        <ele>449.431</ele>
        <time>2020-02-03T13:03:03Z</time>
      </trkpt>
      <trkpt lat="25.683855" lon="-100.21767">
        <ele>449.764</ele>
        <time>2020-02-03T13:03:05Z</time>
      </trkpt>
      <trkpt lat="25.683858" lon="-100.217765">
        <ele>448.649</ele>
        <time>2020-02-03T13:03:08Z</time>
      </trkpt>
      <trkpt lat="25.683886" lon="-100.217852">
        <ele>449.477</ele>
        <time>2020-02-03T13:03:11Z</time>
      </trkpt>
      <trkpt lat="25.683892" lon="-100.217907">
        <ele>449.786</ele>
        <time>2020-02-03T13:03:13Z</time>
      </trkpt>
      <trkpt lat="25.683896" lon="-100.217936">
        <ele>448.668</ele>
        <time>2020-02-03T13:03:14Z</time>
      </trkpt>
      <trkpt lat="25.683899" lon="-100.217961">
        <ele>448.703</ele>
        <time>2020-02-03T13:03:15Z</time>
      </trkpt>
      <trkpt lat="25.683891" lon="-100.218043">
        <ele>448.782</ele>
        <time>2020-02-03T13:03:18Z</time>
      </trkpt>
      <trkpt lat="25.683887" lon="-100.218071">
        <ele>449.876</ele>
        <time>2020-02-03T13:03:19Z</time>
      </trkpt>
      <trkpt lat="25.683889" lon="-100.218131">
        <ele>449.519</ele>
        <time>2020-02-03T13:03:21Z</time>
      </trkpt>
      <trkpt lat="25.683889" lon="-100.218163">
        <ele>449.359</ele>
        <time>2020-02-03T13:03:22Z</time>
      </trkpt>
      <trkpt lat="25.68389" lon="-100.218195">
        <ele>449.613</ele>
        <time>2020-02-03T13:03:23Z</time>
      </trkpt>
      <trkpt lat="25.683893" lon="-100.218226">
        <ele>449.682</ele>
        <time>2020-02-03T13:03:24Z</time>
      </trkpt>
      <trkpt lat="25.683895" lon="-100.218259">
        <ele>448.758</ele>
        <time>2020-02-03T13:03:25Z</time>
      </trkpt>
      <trkpt lat="25.683896" lon="-100.218293">
        <ele>448.682</ele>
        <time>2020-02-03T13:03:26Z</time>
      </trkpt>
      <trkpt lat="25.683896" lon="-100.218327">
        <ele>449.152</ele>
        <time>2020-02-03T13:03:27Z</time>
      </trkpt>
      <trkpt lat="25.683898" lon="-100.21836">
        <ele>449.042</ele>
        <time>2020-02-03T13:03:28Z</time>
      </trkpt>
      <trkpt lat="25.6839" lon="-100.218395">
        <ele>449.297</ele>
        <time>2020-02-03T13:03:29Z</time>
      </trkpt>
      <trkpt lat="25.683902" lon="-100.218431">
        <ele>449.249</ele>
        <time>2020-02-03T13:03:30Z</time>
      </trkpt>
      <trkpt lat="25.683901" lon="-100.218469">
        <ele>449.259</ele>
        <time>2020-02-03T13:03:31Z</time>
      </trkpt>
      <trkpt lat="25.6839" lon="-100.218508">
        <ele>449.792</ele>
        <time>2020-02-03T13:03:32Z</time>
      </trkpt>
      <trkpt lat="25.6839" lon="-100.218548">
        <ele>449.395</ele>
        <time>2020-02-03T13:03:33Z</time>
      </trkpt>
      <trkpt lat="25.683899" lon="-100.218588">
        <ele>449.678</ele>
        <time>2020-02-03T13:03:34Z</time>
      </trkpt>
      <trkpt lat="25.683898" lon="-100.218627">
        <ele>449.293</ele>
        <time>2020-02-03T13:03:35Z</time>
      </trkpt>
      <trkpt lat="25.683894" lon="-100.218666">
        <ele>449.461</ele>
        <time>2020-02-03T13:03:36Z</time>
      </trkpt>
      <trkpt lat="25.683892" lon="-100.218703">
        <ele>449.618</ele>
        <time>2020-02-03T13:03:37Z</time>
      </trkpt>
      <trkpt lat="25.683896" lon="-100.218777">
        <ele>450.17</ele>
        <time>2020-02-03T13:03:39Z</time>
      </trkpt>
      <trkpt lat="25.683912" lon="-100.218844">
        <ele>450.631</ele>
        <time>2020-02-03T13:03:41Z</time>
      </trkpt>
      <trkpt lat="25.683918" lon="-100.218876">
        <ele>450.681</ele>
        <time>2020-02-03T13:03:42Z</time>
      </trkpt>
      <trkpt lat="25.683923" lon="-100.218907">
        <ele>449.738</ele>
        <time>2020-02-03T13:03:43Z</time>
      </trkpt>
      <trkpt lat="25.683919" lon="-100.218985">
        <ele>451.114</ele>
        <time>2020-02-03T13:03:46Z</time>
      </trkpt>
      <trkpt lat="25.683926" lon="-100.219058">
        <ele>451.4</ele>
        <time>2020-02-03T13:03:49Z</time>
      </trkpt>
      <trkpt lat="25.683923" lon="-100.219118">
        <ele>452.072</ele>
        <time>2020-02-03T13:03:51Z</time>
      </trkpt>
      <trkpt lat="25.683917" lon="-100.219175">
        <ele>452.606</ele>
        <time>2020-02-03T13:03:53Z</time>
      </trkpt>
      <trkpt lat="25.683917" lon="-100.21923">
        <ele>452.65</ele>
        <time>2020-02-03T13:03:55Z</time>
      </trkpt>
      <trkpt lat="25.683926" lon="-100.219287">
        <ele>452.452</ele>
        <time>2020-02-03T13:03:57Z</time>
      </trkpt>
      <trkpt lat="25.683927" lon="-100.219344">
        <ele>452.407</ele>
        <time>2020-02-03T13:03:59Z</time>
      </trkpt>
      <trkpt lat="25.683925" lon="-100.219373">
        <ele>452.237</ele>
        <time>2020-02-03T13:04:00Z</time>
      </trkpt>
      <trkpt lat="25.683926" lon="-100.219401">
        <ele>452.328</ele>
        <time>2020-02-03T13:04:01Z</time>
      </trkpt>
      <trkpt lat="25.683927" lon="-100.219433">
        <ele>452.35</ele>
        <time>2020-02-03T13:04:02Z</time>
      </trkpt>
      <trkpt lat="25.683927" lon="-100.219465">
        <ele>452.679</ele>
        <time>2020-02-03T13:04:03Z</time>
      </trkpt>
      <trkpt lat="25.683926" lon="-100.219496">
        <ele>452.684</ele>
        <time>2020-02-03T13:04:04Z</time>
      </trkpt>
      <trkpt lat="25.683923" lon="-100.219526">
        <ele>453.396</ele>
        <time>2020-02-03T13:04:05Z</time>
      </trkpt>
      <trkpt lat="25.68392" lon="-100.219556">
        <ele>452.578</ele>
        <time>2020-02-03T13:04:06Z</time>
      </trkpt>
      <trkpt lat="25.683917" lon="-100.219587">
        <ele>452.445</ele>
        <time>2020-02-03T13:04:07Z</time>
      </trkpt>
      <trkpt lat="25.683916" lon="-100.219621">
        <ele>451.107</ele>
        <time>2020-02-03T13:04:08Z</time>
      </trkpt>
      <trkpt lat="25.683914" lon="-100.219652">
        <ele>450.885</ele>
        <time>2020-02-03T13:04:09Z</time>
      </trkpt>
      <trkpt lat="25.683918" lon="-100.219708">
        <ele>451.519</ele>
        <time>2020-02-03T13:04:11Z</time>
      </trkpt>
      <trkpt lat="25.683923" lon="-100.219736">
        <ele>451.676</ele>
        <time>2020-02-03T13:04:12Z</time>
      </trkpt>
      <trkpt lat="25.683926" lon="-100.219765">
        <ele>451.191</ele>
        <time>2020-02-03T13:04:13Z</time>
      </trkpt>
      <trkpt lat="25.683928" lon="-100.219794">
        <ele>450.872</ele>
        <time>2020-02-03T13:04:14Z</time>
      </trkpt>
      <trkpt lat="25.683929" lon="-100.219824">
        <ele>451.301</ele>
        <time>2020-02-03T13:04:15Z</time>
      </trkpt>
      <trkpt lat="25.683932" lon="-100.219886">
        <ele>451.51</ele>
        <time>2020-02-03T13:04:17Z</time>
      </trkpt>
      <trkpt lat="25.683931" lon="-100.21992">
        <ele>451.3</ele>
        <time>2020-02-03T13:04:18Z</time>
      </trkpt>
      <trkpt lat="25.683928" lon="-100.219987">
        <ele>450.278</ele>
        <time>2020-02-03T13:04:20Z</time>
      </trkpt>
      <trkpt lat="25.68394" lon="-100.220095">
        <ele>451.207</ele>
        <time>2020-02-03T13:04:23Z</time>
      </trkpt>
      <trkpt lat="25.683943" lon="-100.220132">
        <ele>452.384</ele>
        <time>2020-02-03T13:04:24Z</time>
      </trkpt>
      <trkpt lat="25.68394" lon="-100.220204">
        <ele>451.8</ele>
        <time>2020-02-03T13:04:26Z</time>
      </trkpt>
      <trkpt lat="25.68394" lon="-100.220238">
        <ele>451.807</ele>
        <time>2020-02-03T13:04:27Z</time>
      </trkpt>
      <trkpt lat="25.68394" lon="-100.22027">
        <ele>452.678</ele>
        <time>2020-02-03T13:04:28Z</time>
      </trkpt>
      <trkpt lat="25.68394" lon="-100.220303">
        <ele>453.157</ele>
        <time>2020-02-03T13:04:29Z</time>
      </trkpt>
      <trkpt lat="25.68394" lon="-100.220336">
        <ele>452.941</ele>
        <time>2020-02-03T13:04:30Z</time>
      </trkpt>
      <trkpt lat="25.68394" lon="-100.220367">
        <ele>452.455</ele>
        <time>2020-02-03T13:04:31Z</time>
      </trkpt>
      <trkpt lat="25.683948" lon="-100.220462">
        <ele>451.814</ele>
        <time>2020-02-03T13:04:34Z</time>
      </trkpt>
      <trkpt lat="25.683956" lon="-100.22052">
        <ele>450.729</ele>
        <time>2020-02-03T13:04:36Z</time>
      </trkpt>
      <trkpt lat="25.683958" lon="-100.220547">
        <ele>450.817</ele>
        <time>2020-02-03T13:04:37Z</time>
      </trkpt>
      <trkpt lat="25.683959" lon="-100.220574">
        <ele>451.765</ele>
        <time>2020-02-03T13:04:38Z</time>
      </trkpt>
      <trkpt lat="25.683963" lon="-100.220622">
        <ele>453.716</ele>
        <time>2020-02-03T13:04:40Z</time>
      </trkpt>
      <trkpt lat="25.683958" lon="-100.22071">
        <ele>454.393</ele>
        <time>2020-02-03T13:04:43Z</time>
      </trkpt>
      <trkpt lat="25.68395" lon="-100.220766">
        <ele>453.985</ele>
        <time>2020-02-03T13:04:45Z</time>
      </trkpt>
      <trkpt lat="25.683946" lon="-100.220792">
        <ele>454.51</ele>
        <time>2020-02-03T13:04:46Z</time>
      </trkpt>
      <trkpt lat="25.683945" lon="-100.220868">
        <ele>455.457</ele>
        <time>2020-02-03T13:04:49Z</time>
      </trkpt>
      <trkpt lat="25.683945" lon="-100.220896">
        <ele>455.484</ele>
        <time>2020-02-03T13:04:50Z</time>
      </trkpt>
      <trkpt lat="25.683944" lon="-100.220925">
        <ele>456.848</ele>
        <time>2020-02-03T13:04:51Z</time>
      </trkpt>
      <trkpt lat="25.683944" lon="-100.220955">
        <ele>456.433</ele>
        <time>2020-02-03T13:04:52Z</time>
      </trkpt>
      <trkpt lat="25.683945" lon="-100.220986">
        <ele>456.464</ele>
        <time>2020-02-03T13:04:53Z</time>
      </trkpt>
      <trkpt lat="25.683947" lon="-100.221052">
        <ele>456.312</ele>
        <time>2020-02-03T13:04:55Z</time>
      </trkpt>
      <trkpt lat="25.683947" lon="-100.221084">
        <ele>456.56</ele>
        <time>2020-02-03T13:04:56Z</time>
      </trkpt>
      <trkpt lat="25.683947" lon="-100.221116">
        <ele>455.436</ele>
        <time>2020-02-03T13:04:57Z</time>
      </trkpt>
      <trkpt lat="25.68395" lon="-100.221177">
        <ele>454.305</ele>
        <time>2020-02-03T13:04:59Z</time>
      </trkpt>
      <trkpt lat="25.683954" lon="-100.22123">
        <ele>454.922</ele>
        <time>2020-02-03T13:05:01Z</time>
      </trkpt>
      <trkpt lat="25.683963" lon="-100.221312">
        <ele>454.33</ele>
        <time>2020-02-03T13:05:04Z</time>
      </trkpt>
      <trkpt lat="25.683961" lon="-100.22137">
        <ele>454.978</ele>
        <time>2020-02-03T13:05:06Z</time>
      </trkpt>
      <trkpt lat="25.683962" lon="-100.2214">
        <ele>455.636</ele>
        <time>2020-02-03T13:05:07Z</time>
      </trkpt>
      <trkpt lat="25.683961" lon="-100.221431">
        <ele>454.924</ele>
        <time>2020-02-03T13:05:08Z</time>
      </trkpt>
      <trkpt lat="25.683962" lon="-100.221463">
        <ele>454.642</ele>
        <time>2020-02-03T13:05:09Z</time>
      </trkpt>
      <trkpt lat="25.683965" lon="-100.221492">
        <ele>454.826</ele>
        <time>2020-02-03T13:05:10Z</time>
      </trkpt>
      <trkpt lat="25.683966" lon="-100.221523">
        <ele>455.085</ele>
        <time>2020-02-03T13:05:11Z</time>
      </trkpt>
      <trkpt lat="25.683974" lon="-100.221583">
        <ele>453.816</ele>
        <time>2020-02-03T13:05:13Z</time>
      </trkpt>
      <trkpt lat="25.683977" lon="-100.221641">
        <ele>453.816</ele>
        <time>2020-02-03T13:05:15Z</time>
      </trkpt>
      <trkpt lat="25.683976" lon="-100.221707">
        <ele>453.575</ele>
        <time>2020-02-03T13:05:18Z</time>
      </trkpt>
      <trkpt lat="25.683978" lon="-100.221734">
        <ele>454.307</ele>
        <time>2020-02-03T13:05:19Z</time>
      </trkpt>
      <trkpt lat="25.683978" lon="-100.221761">
        <ele>454.417</ele>
        <time>2020-02-03T13:05:20Z</time>
      </trkpt>
      <trkpt lat="25.683978" lon="-100.221788">
        <ele>454.542</ele>
        <time>2020-02-03T13:05:21Z</time>
      </trkpt>
      <trkpt lat="25.683976" lon="-100.221818">
        <ele>454.069</ele>
        <time>2020-02-03T13:05:22Z</time>
      </trkpt>
      <trkpt lat="25.683972" lon="-100.221848">
        <ele>454.143</ele>
        <time>2020-02-03T13:05:23Z</time>
      </trkpt>
      <trkpt lat="25.683972" lon="-100.221901">
        <ele>454.304</ele>
        <time>2020-02-03T13:05:25Z</time>
      </trkpt>
      <trkpt lat="25.683985" lon="-100.221954">
        <ele>454.736</ele>
        <time>2020-02-03T13:05:27Z</time>
      </trkpt>
      <trkpt lat="25.683993" lon="-100.22198">
        <ele>455.014</ele>
        <time>2020-02-03T13:05:28Z</time>
      </trkpt>
      <trkpt lat="25.683998" lon="-100.222005">
        <ele>455.775</ele>
        <time>2020-02-03T13:05:29Z</time>
      </trkpt>
      <trkpt lat="25.684011" lon="-100.222084">
        <ele>455.245</ele>
        <time>2020-02-03T13:05:32Z</time>
      </trkpt>
      <trkpt lat="25.684017" lon="-100.222109">
        <ele>455.955</ele>
        <time>2020-02-03T13:05:33Z</time>
      </trkpt>
      <trkpt lat="25.684021" lon="-100.222164">
        <ele>453.778</ele>
        <time>2020-02-03T13:05:35Z</time>
      </trkpt>
      <trkpt lat="25.684024" lon="-100.222193">
        <ele>453.871</ele>
        <time>2020-02-03T13:05:36Z</time>
      </trkpt>
      <trkpt lat="25.684028" lon="-100.222221">
        <ele>453.866</ele>
        <time>2020-02-03T13:05:37Z</time>
      </trkpt>
      <trkpt lat="25.68403" lon="-100.222247">
        <ele>452.521</ele>
        <time>2020-02-03T13:05:38Z</time>
      </trkpt>
      <trkpt lat="25.684037" lon="-100.222294">
        <ele>452.86</ele>
        <time>2020-02-03T13:05:40Z</time>
      </trkpt>
      <trkpt lat="25.68404" lon="-100.222365">
        <ele>452.593</ele>
        <time>2020-02-03T13:05:43Z</time>
      </trkpt>
      <trkpt lat="25.684048" lon="-100.222423">
        <ele>452.419</ele>
        <time>2020-02-03T13:05:45Z</time>
      </trkpt>
      <trkpt lat="25.684052" lon="-100.22245">
        <ele>452.177</ele>
        <time>2020-02-03T13:05:46Z</time>
      </trkpt>
      <trkpt lat="25.684055" lon="-100.222507">
        <ele>452.731</ele>
        <time>2020-02-03T13:05:48Z</time>
      </trkpt>
      <trkpt lat="25.684058" lon="-100.222536">
        <ele>452.47</ele>
        <time>2020-02-03T13:05:49Z</time>
      </trkpt>
      <trkpt lat="25.684064" lon="-100.222563">
        <ele>452.277</ele>
        <time>2020-02-03T13:05:50Z</time>
      </trkpt>
      <trkpt lat="25.68407" lon="-100.222592">
        <ele>452.647</ele>
        <time>2020-02-03T13:05:51Z</time>
      </trkpt>
      <trkpt lat="25.684075" lon="-100.222623">
        <ele>452.444</ele>
        <time>2020-02-03T13:05:52Z</time>
      </trkpt>
      <trkpt lat="25.684082" lon="-100.222654">
        <ele>452.53</ele>
        <time>2020-02-03T13:05:53Z</time>
      </trkpt>
      <trkpt lat="25.684087" lon="-100.222684">
        <ele>453.665</ele>
        <time>2020-02-03T13:05:54Z</time>
      </trkpt>
      <trkpt lat="25.684091" lon="-100.222717">
        <ele>453.991</ele>
        <time>2020-02-03T13:05:55Z</time>
      </trkpt>
      <trkpt lat="25.6841" lon="-100.222778">
        <ele>454.221</ele>
        <time>2020-02-03T13:05:57Z</time>
      </trkpt>
      <trkpt lat="25.684105" lon="-100.222805">
        <ele>454.947</ele>
        <time>2020-02-03T13:05:58Z</time>
      </trkpt>
      <trkpt lat="25.684115" lon="-100.222857">
        <ele>454.438</ele>
        <time>2020-02-03T13:06:00Z</time>
      </trkpt>
      <trkpt lat="25.684134" lon="-100.222907">
        <ele>453.574</ele>
        <time>2020-02-03T13:06:02Z</time>
      </trkpt>
      <trkpt lat="25.684146" lon="-100.222931">
        <ele>453.15</ele>
        <time>2020-02-03T13:06:03Z</time>
      </trkpt>
      <trkpt lat="25.684158" lon="-100.222988">
        <ele>453.388</ele>
        <time>2020-02-03T13:06:05Z</time>
      </trkpt>
      <trkpt lat="25.68416" lon="-100.223086">
        <ele>453.086</ele>
        <time>2020-02-03T13:06:08Z</time>
      </trkpt>
      <trkpt lat="25.684162" lon="-100.223119">
        <ele>452.805</ele>
        <time>2020-02-03T13:06:09Z</time>
      </trkpt>
      <trkpt lat="25.684164" lon="-100.22315">
        <ele>453.621</ele>
        <time>2020-02-03T13:06:10Z</time>
      </trkpt>
      <trkpt lat="25.684168" lon="-100.223182">
        <ele>454.418</ele>
        <time>2020-02-03T13:06:11Z</time>
      </trkpt>
      <trkpt lat="25.684172" lon="-100.223215">
        <ele>455.181</ele>
        <time>2020-02-03T13:06:12Z</time>
      </trkpt>
      <trkpt lat="25.684176" lon="-100.22325">
        <ele>454.206</ele>
        <time>2020-02-03T13:06:13Z</time>
      </trkpt>
      <trkpt lat="25.684178" lon="-100.223283">
        <ele>455.459</ele>
        <time>2020-02-03T13:06:14Z</time>
      </trkpt>
      <trkpt lat="25.684187" lon="-100.223347">
        <ele>457.278</ele>
        <time>2020-02-03T13:06:16Z</time>
      </trkpt>
      <trkpt lat="25.68419" lon="-100.223414">
        <ele>456.812</ele>
        <time>2020-02-03T13:06:18Z</time>
      </trkpt>
      <trkpt lat="25.684192" lon="-100.223446">
        <ele>456.123</ele>
        <time>2020-02-03T13:06:19Z</time>
      </trkpt>
      <trkpt lat="25.684192" lon="-100.223479">
        <ele>456.975</ele>
        <time>2020-02-03T13:06:20Z</time>
      </trkpt>
      <trkpt lat="25.684192" lon="-100.223513">
        <ele>456.96</ele>
        <time>2020-02-03T13:06:21Z</time>
      </trkpt>
      <trkpt lat="25.684195" lon="-100.22355">
        <ele>456.437</ele>
        <time>2020-02-03T13:06:22Z</time>
      </trkpt>
      <trkpt lat="25.684198" lon="-100.223585">
        <ele>456.762</ele>
        <time>2020-02-03T13:06:23Z</time>
      </trkpt>
      <trkpt lat="25.684201" lon="-100.223619">
        <ele>456.743</ele>
        <time>2020-02-03T13:06:24Z</time>
      </trkpt>
      <trkpt lat="25.684205" lon="-100.223654">
        <ele>456.685</ele>
        <time>2020-02-03T13:06:25Z</time>
      </trkpt>
      <trkpt lat="25.684209" lon="-100.223687">
        <ele>456.359</ele>
        <time>2020-02-03T13:06:26Z</time>
      </trkpt>
      <trkpt lat="25.684213" lon="-100.22372">
        <ele>455.628</ele>
        <time>2020-02-03T13:06:27Z</time>
      </trkpt>
      <trkpt lat="25.684217" lon="-100.22375">
        <ele>455.725</ele>
        <time>2020-02-03T13:06:28Z</time>
      </trkpt>
      <trkpt lat="25.68422" lon="-100.223782">
        <ele>456.005</ele>
        <time>2020-02-03T13:06:29Z</time>
      </trkpt>
      <trkpt lat="25.684225" lon="-100.223814">
        <ele>455.793</ele>
        <time>2020-02-03T13:06:30Z</time>
      </trkpt>
      <trkpt lat="25.684229" lon="-100.223846">
        <ele>456.234</ele>
        <time>2020-02-03T13:06:31Z</time>
      </trkpt>
      <trkpt lat="25.684233" lon="-100.223878">
        <ele>455.97</ele>
        <time>2020-02-03T13:06:32Z</time>
      </trkpt>
      <trkpt lat="25.684237" lon="-100.223908">
        <ele>455.987</ele>
        <time>2020-02-03T13:06:33Z</time>
      </trkpt>
      <trkpt lat="25.684243" lon="-100.223967">
        <ele>456.069</ele>
        <time>2020-02-03T13:06:35Z</time>
      </trkpt>
      <trkpt lat="25.684256" lon="-100.224026">
        <ele>455.896</ele>
        <time>2020-02-03T13:06:37Z</time>
      </trkpt>
      <trkpt lat="25.684262" lon="-100.224056">
        <ele>456.016</ele>
        <time>2020-02-03T13:06:38Z</time>
      </trkpt>
      <trkpt lat="25.684267" lon="-100.224086">
        <ele>455.421</ele>
        <time>2020-02-03T13:06:39Z</time>
      </trkpt>
      <trkpt lat="25.684269" lon="-100.224114">
        <ele>454.878</ele>
        <time>2020-02-03T13:06:40Z</time>
      </trkpt>
      <trkpt lat="25.684271" lon="-100.224142">
        <ele>455.008</ele>
        <time>2020-02-03T13:06:41Z</time>
      </trkpt>
      <trkpt lat="25.684271" lon="-100.224173">
        <ele>455.136</ele>
        <time>2020-02-03T13:06:42Z</time>
      </trkpt>
      <trkpt lat="25.68427" lon="-100.224232">
        <ele>456.191</ele>
        <time>2020-02-03T13:06:44Z</time>
      </trkpt>
      <trkpt lat="25.684301" lon="-100.224309">
        <ele>454.4</ele>
        <time>2020-02-03T13:06:47Z</time>
      </trkpt>
      <trkpt lat="25.684309" lon="-100.224365">
        <ele>453.278</ele>
        <time>2020-02-03T13:06:49Z</time>
      </trkpt>
      <trkpt lat="25.684304" lon="-100.224423">
        <ele>453.616</ele>
        <time>2020-02-03T13:06:51Z</time>
      </trkpt>
      <trkpt lat="25.684303" lon="-100.224482">
        <ele>453.636</ele>
        <time>2020-02-03T13:06:53Z</time>
      </trkpt>
      <trkpt lat="25.68431" lon="-100.224542">
        <ele>452.996</ele>
        <time>2020-02-03T13:06:55Z</time>
      </trkpt>
      <trkpt lat="25.684315" lon="-100.22457">
        <ele>452.628</ele>
        <time>2020-02-03T13:06:56Z</time>
      </trkpt>
      <trkpt lat="25.684319" lon="-100.2246">
        <ele>452.926</ele>
        <time>2020-02-03T13:06:57Z</time>
      </trkpt>
      <trkpt lat="25.684324" lon="-100.224629">
        <ele>453.869</ele>
        <time>2020-02-03T13:06:58Z</time>
      </trkpt>
      <trkpt lat="25.684331" lon="-100.224659">
        <ele>453.845</ele>
        <time>2020-02-03T13:06:59Z</time>
      </trkpt>
      <trkpt lat="25.684336" lon="-100.224688">
        <ele>452.942</ele>
        <time>2020-02-03T13:07:00Z</time>
      </trkpt>
      <trkpt lat="25.684341" lon="-100.224716">
        <ele>453.855</ele>
        <time>2020-02-03T13:07:01Z</time>
      </trkpt>
      <trkpt lat="25.684354" lon="-100.224769">
        <ele>455.14</ele>
        <time>2020-02-03T13:07:03Z</time>
      </trkpt>
      <trkpt lat="25.684349" lon="-100.224866">
        <ele>454.609</ele>
        <time>2020-02-03T13:07:06Z</time>
      </trkpt>
      <trkpt lat="25.684337" lon="-100.224931">
        <ele>454.906</ele>
        <time>2020-02-03T13:07:08Z</time>
      </trkpt>
      <trkpt lat="25.684333" lon="-100.224962">
        <ele>455.954</ele>
        <time>2020-02-03T13:07:09Z</time>
      </trkpt>
      <trkpt lat="25.68433" lon="-100.225027">
        <ele>456.07</ele>
        <time>2020-02-03T13:07:11Z</time>
      </trkpt>
      <trkpt lat="25.68433" lon="-100.225088">
        <ele>456.541</ele>
        <time>2020-02-03T13:07:13Z</time>
      </trkpt>
      <trkpt lat="25.684327" lon="-100.225143">
        <ele>456.838</ele>
        <time>2020-02-03T13:07:15Z</time>
      </trkpt>
      <trkpt lat="25.684325" lon="-100.22517">
        <ele>456.994</ele>
        <time>2020-02-03T13:07:16Z</time>
      </trkpt>
      <trkpt lat="25.684324" lon="-100.225197">
        <ele>456.987</ele>
        <time>2020-02-03T13:07:17Z</time>
      </trkpt>
      <trkpt lat="25.684328" lon="-100.225254">
        <ele>457.611</ele>
        <time>2020-02-03T13:07:19Z</time>
      </trkpt>
      <trkpt lat="25.684324" lon="-100.225317">
        <ele>457.09</ele>
        <time>2020-02-03T13:07:21Z</time>
      </trkpt>
      <trkpt lat="25.68432" lon="-100.225381">
        <ele>456.99</ele>
        <time>2020-02-03T13:07:23Z</time>
      </trkpt>
      <trkpt lat="25.684322" lon="-100.225445">
        <ele>457.26</ele>
        <time>2020-02-03T13:07:25Z</time>
      </trkpt>
      <trkpt lat="25.68432" lon="-100.225477">
        <ele>456.647</ele>
        <time>2020-02-03T13:07:26Z</time>
      </trkpt>
      <trkpt lat="25.684318" lon="-100.225509">
        <ele>457.283</ele>
        <time>2020-02-03T13:07:27Z</time>
      </trkpt>
      <trkpt lat="25.684316" lon="-100.225542">
        <ele>456.917</ele>
        <time>2020-02-03T13:07:28Z</time>
      </trkpt>
      <trkpt lat="25.684315" lon="-100.225573">
        <ele>457.139</ele>
        <time>2020-02-03T13:07:29Z</time>
      </trkpt>
      <trkpt lat="25.684319" lon="-100.225632">
        <ele>456.931</ele>
        <time>2020-02-03T13:07:31Z</time>
      </trkpt>
      <trkpt lat="25.684312" lon="-100.225694">
        <ele>456.989</ele>
        <time>2020-02-03T13:07:33Z</time>
      </trkpt>
      <trkpt lat="25.68431" lon="-100.225726">
        <ele>456.944</ele>
        <time>2020-02-03T13:07:34Z</time>
      </trkpt>
      <trkpt lat="25.684313" lon="-100.225787">
        <ele>457.573</ele>
        <time>2020-02-03T13:07:36Z</time>
      </trkpt>
      <trkpt lat="25.684315" lon="-100.225819">
        <ele>457.978</ele>
        <time>2020-02-03T13:07:37Z</time>
      </trkpt>
      <trkpt lat="25.684313" lon="-100.225885">
        <ele>459.115</ele>
        <time>2020-02-03T13:07:39Z</time>
      </trkpt>
      <trkpt lat="25.68431" lon="-100.22595">
        <ele>458.4</ele>
        <time>2020-02-03T13:07:41Z</time>
      </trkpt>
      <trkpt lat="25.684309" lon="-100.226014">
        <ele>457.946</ele>
        <time>2020-02-03T13:07:43Z</time>
      </trkpt>
      <trkpt lat="25.684309" lon="-100.226047">
        <ele>458.353</ele>
        <time>2020-02-03T13:07:44Z</time>
      </trkpt>
      <trkpt lat="25.684299" lon="-100.226113">
        <ele>458.195</ele>
        <time>2020-02-03T13:07:46Z</time>
      </trkpt>
      <trkpt lat="25.684284" lon="-100.226177">
        <ele>455.738</ele>
        <time>2020-02-03T13:07:48Z</time>
      </trkpt>
      <trkpt lat="25.684279" lon="-100.226209">
        <ele>456.257</ele>
        <time>2020-02-03T13:07:49Z</time>
      </trkpt>
      <trkpt lat="25.684276" lon="-100.22624">
        <ele>456.617</ele>
        <time>2020-02-03T13:07:50Z</time>
      </trkpt>
      <trkpt lat="25.684271" lon="-100.22627">
        <ele>456.103</ele>
        <time>2020-02-03T13:07:51Z</time>
      </trkpt>
      <trkpt lat="25.684265" lon="-100.226303">
        <ele>456.708</ele>
        <time>2020-02-03T13:07:52Z</time>
      </trkpt>
      <trkpt lat="25.684258" lon="-100.226336">
        <ele>456.872</ele>
        <time>2020-02-03T13:07:53Z</time>
      </trkpt>
      <trkpt lat="25.684251" lon="-100.226371">
        <ele>457.702</ele>
        <time>2020-02-03T13:07:54Z</time>
      </trkpt>
      <trkpt lat="25.684243" lon="-100.226405">
        <ele>458.546</ele>
        <time>2020-02-03T13:07:55Z</time>
      </trkpt>
      <trkpt lat="25.684237" lon="-100.226437">
        <ele>458.86</ele>
        <time>2020-02-03T13:07:56Z</time>
      </trkpt>
      <trkpt lat="25.684233" lon="-100.22647">
        <ele>459.005</ele>
        <time>2020-02-03T13:07:57Z</time>
      </trkpt>
      <trkpt lat="25.68423" lon="-100.226501">
        <ele>459.128</ele>
        <time>2020-02-03T13:07:58Z</time>
      </trkpt>
      <trkpt lat="25.684228" lon="-100.226532">
        <ele>458.787</ele>
        <time>2020-02-03T13:07:59Z</time>
      </trkpt>
      <trkpt lat="25.684225" lon="-100.226561">
        <ele>457.589</ele>
        <time>2020-02-03T13:08:00Z</time>
      </trkpt>
      <trkpt lat="25.684225" lon="-100.226619">
        <ele>457.986</ele>
        <time>2020-02-03T13:08:02Z</time>
      </trkpt>
      <trkpt lat="25.684224" lon="-100.22665">
        <ele>457.333</ele>
        <time>2020-02-03T13:08:03Z</time>
      </trkpt>
      <trkpt lat="25.684221" lon="-100.226682">
        <ele>456.278</ele>
        <time>2020-02-03T13:08:04Z</time>
      </trkpt>
      <trkpt lat="25.684201" lon="-100.226777">
        <ele>457.123</ele>
        <time>2020-02-03T13:08:07Z</time>
      </trkpt>
      <trkpt lat="25.684193" lon="-100.226808">
        <ele>457.159</ele>
        <time>2020-02-03T13:08:08Z</time>
      </trkpt>
      <trkpt lat="25.684186" lon="-100.226841">
        <ele>457.627</ele>
        <time>2020-02-03T13:08:09Z</time>
      </trkpt>
      <trkpt lat="25.68418" lon="-100.226874">
        <ele>456.396</ele>
        <time>2020-02-03T13:08:10Z</time>
      </trkpt>
      <trkpt lat="25.684175" lon="-100.226905">
        <ele>456.102</ele>
        <time>2020-02-03T13:08:11Z</time>
      </trkpt>
      <trkpt lat="25.684168" lon="-100.226934">
        <ele>455.896</ele>
        <time>2020-02-03T13:08:12Z</time>
      </trkpt>
      <trkpt lat="25.684162" lon="-100.226965">
        <ele>455.822</ele>
        <time>2020-02-03T13:08:13Z</time>
      </trkpt>
      <trkpt lat="25.684155" lon="-100.226998">
        <ele>456.302</ele>
        <time>2020-02-03T13:08:14Z</time>
      </trkpt>
      <trkpt lat="25.684147" lon="-100.227032">
        <ele>456.58</ele>
        <time>2020-02-03T13:08:15Z</time>
      </trkpt>
      <trkpt lat="25.684125" lon="-100.227103">
        <ele>457.021</ele>
        <time>2020-02-03T13:08:17Z</time>
      </trkpt>
      <trkpt lat="25.684115" lon="-100.227143">
        <ele>456.6</ele>
        <time>2020-02-03T13:08:18Z</time>
      </trkpt>
      <trkpt lat="25.684102" lon="-100.227215">
        <ele>456.158</ele>
        <time>2020-02-03T13:08:20Z</time>
      </trkpt>
      <trkpt lat="25.684096" lon="-100.227249">
        <ele>456.318</ele>
        <time>2020-02-03T13:08:21Z</time>
      </trkpt>
      <trkpt lat="25.684091" lon="-100.227313">
        <ele>456.605</ele>
        <time>2020-02-03T13:08:23Z</time>
      </trkpt>
      <trkpt lat="25.684091" lon="-100.227342">
        <ele>456.704</ele>
        <time>2020-02-03T13:08:24Z</time>
      </trkpt>
      <trkpt lat="25.684088" lon="-100.227372">
        <ele>456.359</ele>
        <time>2020-02-03T13:08:25Z</time>
      </trkpt>
      <trkpt lat="25.684085" lon="-100.227401">
        <ele>455.389</ele>
        <time>2020-02-03T13:08:26Z</time>
      </trkpt>
      <trkpt lat="25.684072" lon="-100.227458">
        <ele>455.435</ele>
        <time>2020-02-03T13:08:28Z</time>
      </trkpt>
      <trkpt lat="25.684051" lon="-100.227514">
        <ele>456.812</ele>
        <time>2020-02-03T13:08:30Z</time>
      </trkpt>
      <trkpt lat="25.684015" lon="-100.227572">
        <ele>457.492</ele>
        <time>2020-02-03T13:08:32Z</time>
      </trkpt>
      <trkpt lat="25.683969" lon="-100.227626">
        <ele>457.012</ele>
        <time>2020-02-03T13:08:34Z</time>
      </trkpt>
      <trkpt lat="25.683925" lon="-100.227713">
        <ele>457.645</ele>
        <time>2020-02-03T13:08:37Z</time>
      </trkpt>
      <trkpt lat="25.683913" lon="-100.227743">
        <ele>458.051</ele>
        <time>2020-02-03T13:08:38Z</time>
      </trkpt>
      <trkpt lat="25.683898" lon="-100.227773">
        <ele>457.838</ele>
        <time>2020-02-03T13:08:39Z</time>
      </trkpt>
      <trkpt lat="25.683867" lon="-100.227826">
        <ele>457.878</ele>
        <time>2020-02-03T13:08:41Z</time>
      </trkpt>
      <trkpt lat="25.683849" lon="-100.227852">
        <ele>458.811</ele>
        <time>2020-02-03T13:08:42Z</time>
      </trkpt>
      <trkpt lat="25.683822" lon="-100.227907">
        <ele>458.169</ele>
        <time>2020-02-03T13:08:44Z</time>
      </trkpt>
      <trkpt lat="25.683807" lon="-100.227936">
        <ele>458.63</ele>
        <time>2020-02-03T13:08:45Z</time>
      </trkpt>
      <trkpt lat="25.683794" lon="-100.227965">
        <ele>458.229</ele>
        <time>2020-02-03T13:08:46Z</time>
      </trkpt>
      <trkpt lat="25.68378" lon="-100.227992">
        <ele>457.9</ele>
        <time>2020-02-03T13:08:47Z</time>
      </trkpt>
      <trkpt lat="25.683767" lon="-100.228018">
        <ele>457.658</ele>
        <time>2020-02-03T13:08:48Z</time>
      </trkpt>
      <trkpt lat="25.683742" lon="-100.228061">
        <ele>457.315</ele>
        <time>2020-02-03T13:08:50Z</time>
      </trkpt>
      <trkpt lat="25.683711" lon="-100.228133">
        <ele>456.848</ele>
        <time>2020-02-03T13:08:53Z</time>
      </trkpt>
      <trkpt lat="25.6837" lon="-100.228156">
        <ele>457.556</ele>
        <time>2020-02-03T13:08:54Z</time>
      </trkpt>
      <trkpt lat="25.683688" lon="-100.22818">
        <ele>457.21</ele>
        <time>2020-02-03T13:08:55Z</time>
      </trkpt>
      <trkpt lat="25.683664" lon="-100.228231">
        <ele>457.125</ele>
        <time>2020-02-03T13:08:57Z</time>
      </trkpt>
      <trkpt lat="25.683644" lon="-100.228283">
        <ele>456.597</ele>
        <time>2020-02-03T13:08:59Z</time>
      </trkpt>
      <trkpt lat="25.683629" lon="-100.228335">
        <ele>457.331</ele>
        <time>2020-02-03T13:09:01Z</time>
      </trkpt>
      <trkpt lat="25.683619" lon="-100.22839">
        <ele>457.065</ele>
        <time>2020-02-03T13:09:03Z</time>
      </trkpt>
      <trkpt lat="25.683601" lon="-100.22844">
        <ele>457.684</ele>
        <time>2020-02-03T13:09:05Z</time>
      </trkpt>
      <trkpt lat="25.683592" lon="-100.228466">
        <ele>456.009</ele>
        <time>2020-02-03T13:09:06Z</time>
      </trkpt>
      <trkpt lat="25.683574" lon="-100.22852">
        <ele>455.64</ele>
        <time>2020-02-03T13:09:08Z</time>
      </trkpt>
      <trkpt lat="25.683535" lon="-100.228595">
        <ele>457.156</ele>
        <time>2020-02-03T13:09:11Z</time>
      </trkpt>
      <trkpt lat="25.683522" lon="-100.228623">
        <ele>457.301</ele>
        <time>2020-02-03T13:09:12Z</time>
      </trkpt>
      <trkpt lat="25.683509" lon="-100.228651">
        <ele>456.762</ele>
        <time>2020-02-03T13:09:13Z</time>
      </trkpt>
      <trkpt lat="25.683496" lon="-100.228679">
        <ele>456.712</ele>
        <time>2020-02-03T13:09:14Z</time>
      </trkpt>
      <trkpt lat="25.683483" lon="-100.228704">
        <ele>457.224</ele>
        <time>2020-02-03T13:09:15Z</time>
      </trkpt>
      <trkpt lat="25.683471" lon="-100.22873">
        <ele>458.21</ele>
        <time>2020-02-03T13:09:16Z</time>
      </trkpt>
      <trkpt lat="25.683451" lon="-100.228784">
        <ele>456.952</ele>
        <time>2020-02-03T13:09:18Z</time>
      </trkpt>
      <trkpt lat="25.68344" lon="-100.228809">
        <ele>456.366</ele>
        <time>2020-02-03T13:09:19Z</time>
      </trkpt>
      <trkpt lat="25.683418" lon="-100.228858">
        <ele>456.376</ele>
        <time>2020-02-03T13:09:21Z</time>
      </trkpt>
      <trkpt lat="25.683391" lon="-100.228908">
        <ele>455.829</ele>
        <time>2020-02-03T13:09:23Z</time>
      </trkpt>
      <trkpt lat="25.683377" lon="-100.228934">
        <ele>455.725</ele>
        <time>2020-02-03T13:09:24Z</time>
      </trkpt>
      <trkpt lat="25.683362" lon="-100.228959">
        <ele>455.053</ele>
        <time>2020-02-03T13:09:25Z</time>
      </trkpt>
      <trkpt lat="25.683325" lon="-100.229008">
        <ele>455.126</ele>
        <time>2020-02-03T13:09:27Z</time>
      </trkpt>
      <trkpt lat="25.6833" lon="-100.229062">
        <ele>453.636</ele>
        <time>2020-02-03T13:09:29Z</time>
      </trkpt>
      <trkpt lat="25.683285" lon="-100.229114">
        <ele>454.301</ele>
        <time>2020-02-03T13:09:31Z</time>
      </trkpt>
      <trkpt lat="25.683275" lon="-100.229142">
        <ele>454.226</ele>
        <time>2020-02-03T13:09:32Z</time>
      </trkpt>
      <trkpt lat="25.683256" lon="-100.229198">
        <ele>454.148</ele>
        <time>2020-02-03T13:09:34Z</time>
      </trkpt>
      <trkpt lat="25.683246" lon="-100.229225">
        <ele>455.747</ele>
        <time>2020-02-03T13:09:35Z</time>
      </trkpt>
      <trkpt lat="25.683186" lon="-100.229333">
        <ele>457.362</ele>
        <time>2020-02-03T13:09:39Z</time>
      </trkpt>
      <trkpt lat="25.683171" lon="-100.229394">
        <ele>457.222</ele>
        <time>2020-02-03T13:09:41Z</time>
      </trkpt>
      <trkpt lat="25.683132" lon="-100.229472">
        <ele>456.182</ele>
        <time>2020-02-03T13:09:44Z</time>
      </trkpt>
      <trkpt lat="25.683114" lon="-100.229594">
        <ele>457.235</ele>
        <time>2020-02-03T13:09:48Z</time>
      </trkpt>
      <trkpt lat="25.683109" lon="-100.229626">
        <ele>456.78</ele>
        <time>2020-02-03T13:09:49Z</time>
      </trkpt>
      <trkpt lat="25.683103" lon="-100.229659">
        <ele>456.056</ele>
        <time>2020-02-03T13:09:50Z</time>
      </trkpt>
      <trkpt lat="25.683085" lon="-100.229721">
        <ele>454.696</ele>
        <time>2020-02-03T13:09:52Z</time>
      </trkpt>
      <trkpt lat="25.683058" lon="-100.229777">
        <ele>453.538</ele>
        <time>2020-02-03T13:09:54Z</time>
      </trkpt>
      <trkpt lat="25.683028" lon="-100.229826">
        <ele>454.206</ele>
        <time>2020-02-03T13:09:56Z</time>
      </trkpt>
      <trkpt lat="25.683014" lon="-100.229852">
        <ele>454.589</ele>
        <time>2020-02-03T13:09:57Z</time>
      </trkpt>
      <trkpt lat="25.682992" lon="-100.229937">
        <ele>453.222</ele>
        <time>2020-02-03T13:10:00Z</time>
      </trkpt>
      <trkpt lat="25.682987" lon="-100.229995">
        <ele>453.203</ele>
        <time>2020-02-03T13:10:02Z</time>
      </trkpt>
      <trkpt lat="25.682969" lon="-100.23005">
        <ele>453.506</ele>
        <time>2020-02-03T13:10:04Z</time>
      </trkpt>
      <trkpt lat="25.682947" lon="-100.230104">
        <ele>454.262</ele>
        <time>2020-02-03T13:10:06Z</time>
      </trkpt>
      <trkpt lat="25.682918" lon="-100.230192">
        <ele>453.137</ele>
        <time>2020-02-03T13:10:09Z</time>
      </trkpt>
      <trkpt lat="25.682892" lon="-100.23025">
        <ele>453.754</ele>
        <time>2020-02-03T13:10:11Z</time>
      </trkpt>
      <trkpt lat="25.682882" lon="-100.230276">
        <ele>452.259</ele>
        <time>2020-02-03T13:10:12Z</time>
      </trkpt>
      <trkpt lat="25.682874" lon="-100.230302">
        <ele>453.054</ele>
        <time>2020-02-03T13:10:13Z</time>
      </trkpt>
      <trkpt lat="25.682857" lon="-100.230358">
        <ele>453.464</ele>
        <time>2020-02-03T13:10:15Z</time>
      </trkpt>
      <trkpt lat="25.682848" lon="-100.230384">
        <ele>453.922</ele>
        <time>2020-02-03T13:10:16Z</time>
      </trkpt>
      <trkpt lat="25.682814" lon="-100.230447">
        <ele>454.655</ele>
        <time>2020-02-03T13:10:19Z</time>
      </trkpt>
      <trkpt lat="25.682767" lon="-100.230497">
        <ele>454.979</ele>
        <time>2020-02-03T13:10:22Z</time>
      </trkpt>
      <trkpt lat="25.682722" lon="-100.230523">
        <ele>456.575</ele>
        <time>2020-02-03T13:10:24Z</time>
      </trkpt>
      <trkpt lat="25.6827" lon="-100.230569">
        <ele>456.564</ele>
        <time>2020-02-03T13:10:27Z</time>
      </trkpt>
      <trkpt lat="25.682744" lon="-100.230636">
        <ele>454.191</ele>
        <time>2020-02-03T13:10:31Z</time>
      </trkpt>
      <trkpt lat="25.682761" lon="-100.230712">
        <ele>453.582</ele>
        <time>2020-02-03T13:10:34Z</time>
      </trkpt>
      <trkpt lat="25.68276" lon="-100.230796">
        <ele>454.71</ele>
        <time>2020-02-03T13:10:37Z</time>
      </trkpt>
      <trkpt lat="25.682767" lon="-100.23086">
        <ele>454.975</ele>
        <time>2020-02-03T13:10:39Z</time>
      </trkpt>
      <trkpt lat="25.682771" lon="-100.230894">
        <ele>455.504</ele>
        <time>2020-02-03T13:10:40Z</time>
      </trkpt>
      <trkpt lat="25.682773" lon="-100.230929">
        <ele>455.354</ele>
        <time>2020-02-03T13:10:41Z</time>
      </trkpt>
      <trkpt lat="25.682775" lon="-100.230963">
        <ele>455.291</ele>
        <time>2020-02-03T13:10:42Z</time>
      </trkpt>
      <trkpt lat="25.682777" lon="-100.230997">
        <ele>454.991</ele>
        <time>2020-02-03T13:10:43Z</time>
      </trkpt>
      <trkpt lat="25.682779" lon="-100.231032">
        <ele>455.133</ele>
        <time>2020-02-03T13:10:44Z</time>
      </trkpt>
      <trkpt lat="25.68278" lon="-100.231096">
        <ele>455.569</ele>
        <time>2020-02-03T13:10:46Z</time>
      </trkpt>
      <trkpt lat="25.682779" lon="-100.231127">
        <ele>456.285</ele>
        <time>2020-02-03T13:10:47Z</time>
      </trkpt>
      <trkpt lat="25.682779" lon="-100.231159">
        <ele>456.694</ele>
        <time>2020-02-03T13:10:48Z</time>
      </trkpt>
      <trkpt lat="25.682778" lon="-100.231192">
        <ele>457.099</ele>
        <time>2020-02-03T13:10:49Z</time>
      </trkpt>
      <trkpt lat="25.682777" lon="-100.231223">
        <ele>457.426</ele>
        <time>2020-02-03T13:10:50Z</time>
      </trkpt>
      <trkpt lat="25.682775" lon="-100.231286">
        <ele>457.371</ele>
        <time>2020-02-03T13:10:52Z</time>
      </trkpt>
      <trkpt lat="25.682775" lon="-100.231316">
        <ele>457.141</ele>
        <time>2020-02-03T13:10:53Z</time>
      </trkpt>
      <trkpt lat="25.682781" lon="-100.231369">
        <ele>456.16</ele>
        <time>2020-02-03T13:10:55Z</time>
      </trkpt>
      <trkpt lat="25.682768" lon="-100.231449">
        <ele>456.405</ele>
        <time>2020-02-03T13:10:58Z</time>
      </trkpt>
      <trkpt lat="25.682765" lon="-100.231481">
        <ele>456.551</ele>
        <time>2020-02-03T13:10:59Z</time>
      </trkpt>
      <trkpt lat="25.682763" lon="-100.231513">
        <ele>456.374</ele>
        <time>2020-02-03T13:11:00Z</time>
      </trkpt>
      <trkpt lat="25.682759" lon="-100.231544">
        <ele>456.222</ele>
        <time>2020-02-03T13:11:01Z</time>
      </trkpt>
      <trkpt lat="25.682757" lon="-100.231574">
        <ele>457.434</ele>
        <time>2020-02-03T13:11:02Z</time>
      </trkpt>
      <trkpt lat="25.682756" lon="-100.231605">
        <ele>456.962</ele>
        <time>2020-02-03T13:11:03Z</time>
      </trkpt>
      <trkpt lat="25.682756" lon="-100.231634">
        <ele>456.998</ele>
        <time>2020-02-03T13:11:04Z</time>
      </trkpt>
      <trkpt lat="25.682757" lon="-100.231663">
        <ele>456.991</ele>
        <time>2020-02-03T13:11:05Z</time>
      </trkpt>
      <trkpt lat="25.682758" lon="-100.231694">
        <ele>454.839</ele>
        <time>2020-02-03T13:11:06Z</time>
      </trkpt>
      <trkpt lat="25.682747" lon="-100.231752">
        <ele>454.943</ele>
        <time>2020-02-03T13:11:08Z</time>
      </trkpt>
      <trkpt lat="25.68273" lon="-100.231811">
        <ele>455.253</ele>
        <time>2020-02-03T13:11:10Z</time>
      </trkpt>
      <trkpt lat="25.682723" lon="-100.231843">
        <ele>455.557</ele>
        <time>2020-02-03T13:11:11Z</time>
      </trkpt>
      <trkpt lat="25.682718" lon="-100.231873">
        <ele>455.198</ele>
        <time>2020-02-03T13:11:12Z</time>
      </trkpt>
      <trkpt lat="25.682719" lon="-100.231939">
        <ele>455.339</ele>
        <time>2020-02-03T13:11:14Z</time>
      </trkpt>
      <trkpt lat="25.682725" lon="-100.232003">
        <ele>453.902</ele>
        <time>2020-02-03T13:11:16Z</time>
      </trkpt>
      <trkpt lat="25.682719" lon="-100.23206">
        <ele>453.99</ele>
        <time>2020-02-03T13:11:18Z</time>
      </trkpt>
      <trkpt lat="25.682717" lon="-100.232086">
        <ele>453.498</ele>
        <time>2020-02-03T13:11:19Z</time>
      </trkpt>
      <trkpt lat="25.682717" lon="-100.232114">
        <ele>453.873</ele>
        <time>2020-02-03T13:11:20Z</time>
      </trkpt>
      <trkpt lat="25.682717" lon="-100.232145">
        <ele>454.57</ele>
        <time>2020-02-03T13:11:21Z</time>
      </trkpt>
      <trkpt lat="25.682715" lon="-100.232178">
        <ele>456.038</ele>
        <time>2020-02-03T13:11:22Z</time>
      </trkpt>
      <trkpt lat="25.682714" lon="-100.232241">
        <ele>455.11</ele>
        <time>2020-02-03T13:11:24Z</time>
      </trkpt>
      <trkpt lat="25.682715" lon="-100.232274">
        <ele>455.251</ele>
        <time>2020-02-03T13:11:25Z</time>
      </trkpt>
      <trkpt lat="25.682714" lon="-100.232306">
        <ele>454.803</ele>
        <time>2020-02-03T13:11:26Z</time>
      </trkpt>
      <trkpt lat="25.682713" lon="-100.232339">
        <ele>455.431</ele>
        <time>2020-02-03T13:11:27Z</time>
      </trkpt>
      <trkpt lat="25.682708" lon="-100.232404">
        <ele>455.416</ele>
        <time>2020-02-03T13:11:29Z</time>
      </trkpt>
      <trkpt lat="25.682687" lon="-100.232467">
        <ele>455.728</ele>
        <time>2020-02-03T13:11:31Z</time>
      </trkpt>
      <trkpt lat="25.682678" lon="-100.232498">
        <ele>455.411</ele>
        <time>2020-02-03T13:11:32Z</time>
      </trkpt>
      <trkpt lat="25.682672" lon="-100.232585">
        <ele>455.189</ele>
        <time>2020-02-03T13:11:35Z</time>
      </trkpt>
      <trkpt lat="25.68268" lon="-100.232638">
        <ele>455.029</ele>
        <time>2020-02-03T13:11:37Z</time>
      </trkpt>
      <trkpt lat="25.682684" lon="-100.232666">
        <ele>455.553</ele>
        <time>2020-02-03T13:11:38Z</time>
      </trkpt>
      <trkpt lat="25.682687" lon="-100.232694">
        <ele>455.077</ele>
        <time>2020-02-03T13:11:39Z</time>
      </trkpt>
      <trkpt lat="25.682689" lon="-100.232724">
        <ele>455.545</ele>
        <time>2020-02-03T13:11:40Z</time>
      </trkpt>
      <trkpt lat="25.682689" lon="-100.232752">
        <ele>455.166</ele>
        <time>2020-02-03T13:11:41Z</time>
      </trkpt>
      <trkpt lat="25.682689" lon="-100.232781">
        <ele>455.464</ele>
        <time>2020-02-03T13:11:42Z</time>
      </trkpt>
      <trkpt lat="25.682688" lon="-100.232809">
        <ele>456.278</ele>
        <time>2020-02-03T13:11:43Z</time>
      </trkpt>
      <trkpt lat="25.682691" lon="-100.232864">
        <ele>456.7</ele>
        <time>2020-02-03T13:11:45Z</time>
      </trkpt>
      <trkpt lat="25.682691" lon="-100.232893">
        <ele>456.892</ele>
        <time>2020-02-03T13:11:46Z</time>
      </trkpt>
      <trkpt lat="25.682691" lon="-100.232923">
        <ele>457.285</ele>
        <time>2020-02-03T13:11:47Z</time>
      </trkpt>
      <trkpt lat="25.68269" lon="-100.232952">
        <ele>457.737</ele>
        <time>2020-02-03T13:11:48Z</time>
      </trkpt>
      <trkpt lat="25.682688" lon="-100.232981">
        <ele>457.187</ele>
        <time>2020-02-03T13:11:49Z</time>
      </trkpt>
      <trkpt lat="25.682687" lon="-100.23301">
        <ele>457.868</ele>
        <time>2020-02-03T13:11:50Z</time>
      </trkpt>
      <trkpt lat="25.682687" lon="-100.233041">
        <ele>457.612</ele>
        <time>2020-02-03T13:11:51Z</time>
      </trkpt>
      <trkpt lat="25.682689" lon="-100.23307">
        <ele>457.457</ele>
        <time>2020-02-03T13:11:52Z</time>
      </trkpt>
      <trkpt lat="25.682691" lon="-100.233099">
        <ele>457.612</ele>
        <time>2020-02-03T13:11:53Z</time>
      </trkpt>
      <trkpt lat="25.682693" lon="-100.233129">
        <ele>457.303</ele>
        <time>2020-02-03T13:11:54Z</time>
      </trkpt>
      <trkpt lat="25.682692" lon="-100.233158">
        <ele>456.393</ele>
        <time>2020-02-03T13:11:55Z</time>
      </trkpt>
      <trkpt lat="25.682692" lon="-100.233188">
        <ele>457.084</ele>
        <time>2020-02-03T13:11:56Z</time>
      </trkpt>
      <trkpt lat="25.68269" lon="-100.233217">
        <ele>457.999</ele>
        <time>2020-02-03T13:11:57Z</time>
      </trkpt>
      <trkpt lat="25.682686" lon="-100.233278">
        <ele>458.141</ele>
        <time>2020-02-03T13:11:59Z</time>
      </trkpt>
      <trkpt lat="25.682686" lon="-100.233309">
        <ele>459.175</ele>
        <time>2020-02-03T13:12:00Z</time>
      </trkpt>
      <trkpt lat="25.682687" lon="-100.233338">
        <ele>459.444</ele>
        <time>2020-02-03T13:12:01Z</time>
      </trkpt>
      <trkpt lat="25.682687" lon="-100.233369">
        <ele>460.699</ele>
        <time>2020-02-03T13:12:02Z</time>
      </trkpt>
      <trkpt lat="25.682688" lon="-100.233402">
        <ele>460.663</ele>
        <time>2020-02-03T13:12:03Z</time>
      </trkpt>
      <trkpt lat="25.682688" lon="-100.233433">
        <ele>460.482</ele>
        <time>2020-02-03T13:12:04Z</time>
      </trkpt>
      <trkpt lat="25.682689" lon="-100.233463">
        <ele>460.316</ele>
        <time>2020-02-03T13:12:05Z</time>
      </trkpt>
      <trkpt lat="25.682689" lon="-100.233493">
        <ele>460.649</ele>
        <time>2020-02-03T13:12:06Z</time>
      </trkpt>
      <trkpt lat="25.682687" lon="-100.233553">
        <ele>460.91</ele>
        <time>2020-02-03T13:12:08Z</time>
      </trkpt>
      <trkpt lat="25.682687" lon="-100.233581">
        <ele>460.975</ele>
        <time>2020-02-03T13:12:09Z</time>
      </trkpt>
      <trkpt lat="25.682676" lon="-100.233638">
        <ele>460.957</ele>
        <time>2020-02-03T13:12:11Z</time>
      </trkpt>
      <trkpt lat="25.682673" lon="-100.233666">
        <ele>460.551</ele>
        <time>2020-02-03T13:12:12Z</time>
      </trkpt>
      <trkpt lat="25.682677" lon="-100.233722">
        <ele>460.548</ele>
        <time>2020-02-03T13:12:14Z</time>
      </trkpt>
      <trkpt lat="25.682681" lon="-100.233749">
        <ele>460.731</ele>
        <time>2020-02-03T13:12:15Z</time>
      </trkpt>
      <trkpt lat="25.682683" lon="-100.233777">
        <ele>461.306</ele>
        <time>2020-02-03T13:12:16Z</time>
      </trkpt>
      <trkpt lat="25.682685" lon="-100.233805">
        <ele>461.684</ele>
        <time>2020-02-03T13:12:17Z</time>
      </trkpt>
      <trkpt lat="25.682687" lon="-100.233834">
        <ele>461.894</ele>
        <time>2020-02-03T13:12:18Z</time>
      </trkpt>
      <trkpt lat="25.682687" lon="-100.233862">
        <ele>461.837</ele>
        <time>2020-02-03T13:12:19Z</time>
      </trkpt>
      <trkpt lat="25.682687" lon="-100.233888">
        <ele>461.357</ele>
        <time>2020-02-03T13:12:20Z</time>
      </trkpt>
      <trkpt lat="25.682687" lon="-100.233915">
        <ele>461.153</ele>
        <time>2020-02-03T13:12:21Z</time>
      </trkpt>
      <trkpt lat="25.682685" lon="-100.233941">
        <ele>460.59</ele>
        <time>2020-02-03T13:12:22Z</time>
      </trkpt>
      <trkpt lat="25.682682" lon="-100.233966">
        <ele>460.414</ele>
        <time>2020-02-03T13:12:23Z</time>
      </trkpt>
      <trkpt lat="25.682678" lon="-100.233991">
        <ele>459.542</ele>
        <time>2020-02-03T13:12:24Z</time>
      </trkpt>
      <trkpt lat="25.682669" lon="-100.234027">
        <ele>460.628</ele>
        <time>2020-02-03T13:12:26Z</time>
      </trkpt>
      <trkpt lat="25.682661" lon="-100.234077">
        <ele>460.772</ele>
        <time>2020-02-03T13:12:28Z</time>
      </trkpt>
      <trkpt lat="25.682657" lon="-100.234104">
        <ele>460.433</ele>
        <time>2020-02-03T13:12:29Z</time>
      </trkpt>
      <trkpt lat="25.682652" lon="-100.234129">
        <ele>460.167</ele>
        <time>2020-02-03T13:12:30Z</time>
      </trkpt>
      <trkpt lat="25.682646" lon="-100.234154">
        <ele>460.236</ele>
        <time>2020-02-03T13:12:31Z</time>
      </trkpt>
      <trkpt lat="25.682642" lon="-100.234181">
        <ele>460.342</ele>
        <time>2020-02-03T13:12:32Z</time>
      </trkpt>
      <trkpt lat="25.682638" lon="-100.234208">
        <ele>460.014</ele>
        <time>2020-02-03T13:12:33Z</time>
      </trkpt>
      <trkpt lat="25.682635" lon="-100.234237">
        <ele>460.358</ele>
        <time>2020-02-03T13:12:34Z</time>
      </trkpt>
      <trkpt lat="25.682631" lon="-100.234267">
        <ele>460.213</ele>
        <time>2020-02-03T13:12:35Z</time>
      </trkpt>
      <trkpt lat="25.682629" lon="-100.234296">
        <ele>460.352</ele>
        <time>2020-02-03T13:12:36Z</time>
      </trkpt>
      <trkpt lat="25.682628" lon="-100.234325">
        <ele>460.225</ele>
        <time>2020-02-03T13:12:37Z</time>
      </trkpt>
      <trkpt lat="25.682629" lon="-100.234353">
        <ele>460.255</ele>
        <time>2020-02-03T13:12:38Z</time>
      </trkpt>
      <trkpt lat="25.682632" lon="-100.234382">
        <ele>460.337</ele>
        <time>2020-02-03T13:12:39Z</time>
      </trkpt>
      <trkpt lat="25.682634" lon="-100.234413">
        <ele>460.287</ele>
        <time>2020-02-03T13:12:40Z</time>
      </trkpt>
      <trkpt lat="25.682635" lon="-100.234444">
        <ele>460.054</ele>
        <time>2020-02-03T13:12:41Z</time>
      </trkpt>
      <trkpt lat="25.682633" lon="-100.234475">
        <ele>459.428</ele>
        <time>2020-02-03T13:12:42Z</time>
      </trkpt>
      <trkpt lat="25.682623" lon="-100.234533">
        <ele>459.529</ele>
        <time>2020-02-03T13:12:44Z</time>
      </trkpt>
      <trkpt lat="25.682619" lon="-100.234563">
        <ele>458.868</ele>
        <time>2020-02-03T13:12:45Z</time>
      </trkpt>
      <trkpt lat="25.682611" lon="-100.234608">
        <ele>458.552</ele>
        <time>2020-02-03T13:12:47Z</time>
      </trkpt>
      <trkpt lat="25.682607" lon="-100.234637">
        <ele>458.29</ele>
        <time>2020-02-03T13:12:48Z</time>
      </trkpt>
      <trkpt lat="25.682607" lon="-100.234698">
        <ele>458.161</ele>
        <time>2020-02-03T13:12:50Z</time>
      </trkpt>
      <trkpt lat="25.682606" lon="-100.23473">
        <ele>458.213</ele>
        <time>2020-02-03T13:12:51Z</time>
      </trkpt>
      <trkpt lat="25.682606" lon="-100.234763">
        <ele>458.434</ele>
        <time>2020-02-03T13:12:52Z</time>
      </trkpt>
      <trkpt lat="25.682606" lon="-100.234796">
        <ele>458.386</ele>
        <time>2020-02-03T13:12:53Z</time>
      </trkpt>
      <trkpt lat="25.682607" lon="-100.234829">
        <ele>457.977</ele>
        <time>2020-02-03T13:12:54Z</time>
      </trkpt>
      <trkpt lat="25.682618" lon="-100.234895">
        <ele>458.259</ele>
        <time>2020-02-03T13:12:56Z</time>
      </trkpt>
      <trkpt lat="25.682622" lon="-100.234927">
        <ele>460.249</ele>
        <time>2020-02-03T13:12:57Z</time>
      </trkpt>
      <trkpt lat="25.682624" lon="-100.234994">
        <ele>460.429</ele>
        <time>2020-02-03T13:12:59Z</time>
      </trkpt>
      <trkpt lat="25.68262" lon="-100.235063">
        <ele>459.716</ele>
        <time>2020-02-03T13:13:01Z</time>
      </trkpt>
      <trkpt lat="25.682617" lon="-100.235093">
        <ele>458.545</ele>
        <time>2020-02-03T13:13:02Z</time>
      </trkpt>
      <trkpt lat="25.68261" lon="-100.235133">
        <ele>457.63</ele>
        <time>2020-02-03T13:13:04Z</time>
      </trkpt>
      <trkpt lat="25.682588" lon="-100.235182">
        <ele>459.52</ele>
        <time>2020-02-03T13:13:07Z</time>
      </trkpt>
      <trkpt lat="25.682579" lon="-100.235237">
        <ele>458.943</ele>
        <time>2020-02-03T13:13:09Z</time>
      </trkpt>
      <trkpt lat="25.682576" lon="-100.235266">
        <ele>458.585</ele>
        <time>2020-02-03T13:13:10Z</time>
      </trkpt>
      <trkpt lat="25.682574" lon="-100.235294">
        <ele>456.114</ele>
        <time>2020-02-03T13:13:11Z</time>
      </trkpt>
      <trkpt lat="25.682582" lon="-100.235364">
        <ele>455.931</ele>
        <time>2020-02-03T13:13:14Z</time>
      </trkpt>
      <trkpt lat="25.682584" lon="-100.23539">
        <ele>455.791</ele>
        <time>2020-02-03T13:13:15Z</time>
      </trkpt>
      <trkpt lat="25.682586" lon="-100.235419">
        <ele>455.25</ele>
        <time>2020-02-03T13:13:16Z</time>
      </trkpt>
      <trkpt lat="25.682587" lon="-100.235448">
        <ele>454.8</ele>
        <time>2020-02-03T13:13:17Z</time>
      </trkpt>
      <trkpt lat="25.682587" lon="-100.235476">
        <ele>454.428</ele>
        <time>2020-02-03T13:13:18Z</time>
      </trkpt>
      <trkpt lat="25.682587" lon="-100.235503">
        <ele>456.437</ele>
        <time>2020-02-03T13:13:19Z</time>
      </trkpt>
      <trkpt lat="25.682586" lon="-100.235537">
        <ele>456.648</ele>
        <time>2020-02-03T13:13:20Z</time>
      </trkpt>
      <trkpt lat="25.682583" lon="-100.23557">
        <ele>458.29</ele>
        <time>2020-02-03T13:13:21Z</time>
      </trkpt>
      <trkpt lat="25.682572" lon="-100.235621">
        <ele>458.467</ele>
        <time>2020-02-03T13:13:23Z</time>
      </trkpt>
      <trkpt lat="25.682559" lon="-100.235669">
        <ele>457.845</ele>
        <time>2020-02-03T13:13:25Z</time>
      </trkpt>
      <trkpt lat="25.682552" lon="-100.235695">
        <ele>458.003</ele>
        <time>2020-02-03T13:13:26Z</time>
      </trkpt>
      <trkpt lat="25.682545" lon="-100.23572">
        <ele>458.205</ele>
        <time>2020-02-03T13:13:27Z</time>
      </trkpt>
      <trkpt lat="25.682537" lon="-100.235747">
        <ele>457.71</ele>
        <time>2020-02-03T13:13:28Z</time>
      </trkpt>
      <trkpt lat="25.682528" lon="-100.235772">
        <ele>458.143</ele>
        <time>2020-02-03T13:13:29Z</time>
      </trkpt>
      <trkpt lat="25.68252" lon="-100.235797">
        <ele>458.567</ele>
        <time>2020-02-03T13:13:30Z</time>
      </trkpt>
      <trkpt lat="25.682495" lon="-100.235842">
        <ele>458.76</ele>
        <time>2020-02-03T13:13:32Z</time>
      </trkpt>
      <trkpt lat="25.682482" lon="-100.235864">
        <ele>459.389</ele>
        <time>2020-02-03T13:13:33Z</time>
      </trkpt>
      <trkpt lat="25.682469" lon="-100.235888">
        <ele>460.11</ele>
        <time>2020-02-03T13:13:34Z</time>
      </trkpt>
      <trkpt lat="25.682458" lon="-100.235914">
        <ele>460.559</ele>
        <time>2020-02-03T13:13:35Z</time>
      </trkpt>
      <trkpt lat="25.682448" lon="-100.235939">
        <ele>460.888</ele>
        <time>2020-02-03T13:13:36Z</time>
      </trkpt>
      <trkpt lat="25.682436" lon="-100.235964">
        <ele>460.999</ele>
        <time>2020-02-03T13:13:37Z</time>
      </trkpt>
      <trkpt lat="25.682414" lon="-100.236011">
        <ele>462.794</ele>
        <time>2020-02-03T13:13:39Z</time>
      </trkpt>
      <trkpt lat="25.6824" lon="-100.236063">
        <ele>462.784</ele>
        <time>2020-02-03T13:13:41Z</time>
      </trkpt>
      <trkpt lat="25.682393" lon="-100.236089">
        <ele>461.743</ele>
        <time>2020-02-03T13:13:42Z</time>
      </trkpt>
      <trkpt lat="25.682374" lon="-100.236135">
        <ele>462.107</ele>
        <time>2020-02-03T13:13:44Z</time>
      </trkpt>
      <trkpt lat="25.682364" lon="-100.236157">
        <ele>462.055</ele>
        <time>2020-02-03T13:13:45Z</time>
      </trkpt>
      <trkpt lat="25.682354" lon="-100.236181">
        <ele>463.021</ele>
        <time>2020-02-03T13:13:46Z</time>
      </trkpt>
      <trkpt lat="25.682321" lon="-100.236245">
        <ele>462.603</ele>
        <time>2020-02-03T13:13:49Z</time>
      </trkpt>
      <trkpt lat="25.68231" lon="-100.236268">
        <ele>463.306</ele>
        <time>2020-02-03T13:13:50Z</time>
      </trkpt>
      <trkpt lat="25.682299" lon="-100.236292">
        <ele>463.013</ele>
        <time>2020-02-03T13:13:51Z</time>
      </trkpt>
      <trkpt lat="25.682286" lon="-100.236315">
        <ele>462.987</ele>
        <time>2020-02-03T13:13:52Z</time>
      </trkpt>
      <trkpt lat="25.682272" lon="-100.236338">
        <ele>458.849</ele>
        <time>2020-02-03T13:13:53Z</time>
      </trkpt>
      <trkpt lat="25.682232" lon="-100.236362">
        <ele>458.262</ele>
        <time>2020-02-03T13:13:56Z</time>
      </trkpt>
      <trkpt lat="25.682199" lon="-100.23638">
        <ele>458.038</ele>
        <time>2020-02-03T13:13:58Z</time>
      </trkpt>
      <trkpt lat="25.682165" lon="-100.23642">
        <ele>458.087</ele>
        <time>2020-02-03T13:14:00Z</time>
      </trkpt>
      <trkpt lat="25.682141" lon="-100.23647">
        <ele>457.418</ele>
        <time>2020-02-03T13:14:02Z</time>
      </trkpt>
      <trkpt lat="25.682127" lon="-100.236526">
        <ele>457.254</ele>
        <time>2020-02-03T13:14:04Z</time>
      </trkpt>
      <trkpt lat="25.682119" lon="-100.236554">
        <ele>457.022</ele>
        <time>2020-02-03T13:14:05Z</time>
      </trkpt>
      <trkpt lat="25.682111" lon="-100.236581">
        <ele>456.723</ele>
        <time>2020-02-03T13:14:06Z</time>
      </trkpt>
      <trkpt lat="25.682101" lon="-100.236608">
        <ele>456.779</ele>
        <time>2020-02-03T13:14:07Z</time>
      </trkpt>
      <trkpt lat="25.682092" lon="-100.236636">
        <ele>456.52</ele>
        <time>2020-02-03T13:14:08Z</time>
      </trkpt>
      <trkpt lat="25.682082" lon="-100.236661">
        <ele>456.709</ele>
        <time>2020-02-03T13:14:09Z</time>
      </trkpt>
      <trkpt lat="25.682059" lon="-100.236713">
        <ele>455.645</ele>
        <time>2020-02-03T13:14:11Z</time>
      </trkpt>
      <trkpt lat="25.682049" lon="-100.236739">
        <ele>455.314</ele>
        <time>2020-02-03T13:14:12Z</time>
      </trkpt>
      <trkpt lat="25.682041" lon="-100.236766">
        <ele>455.739</ele>
        <time>2020-02-03T13:14:13Z</time>
      </trkpt>
      <trkpt lat="25.68203" lon="-100.236826">
        <ele>455.593</ele>
        <time>2020-02-03T13:14:15Z</time>
      </trkpt>
      <trkpt lat="25.682024" lon="-100.236857">
        <ele>455.34</ele>
        <time>2020-02-03T13:14:16Z</time>
      </trkpt>
      <trkpt lat="25.682017" lon="-100.236888">
        <ele>455.821</ele>
        <time>2020-02-03T13:14:17Z</time>
      </trkpt>
      <trkpt lat="25.682008" lon="-100.236919">
        <ele>455.694</ele>
        <time>2020-02-03T13:14:18Z</time>
      </trkpt>
      <trkpt lat="25.682002" lon="-100.23695">
        <ele>455.838</ele>
        <time>2020-02-03T13:14:19Z</time>
      </trkpt>
      <trkpt lat="25.681996" lon="-100.236982">
        <ele>456.104</ele>
        <time>2020-02-03T13:14:20Z</time>
      </trkpt>
      <trkpt lat="25.681989" lon="-100.237013">
        <ele>456.012</ele>
        <time>2020-02-03T13:14:21Z</time>
      </trkpt>
      <trkpt lat="25.681981" lon="-100.237044">
        <ele>456.341</ele>
        <time>2020-02-03T13:14:22Z</time>
      </trkpt>
      <trkpt lat="25.681972" lon="-100.237074">
        <ele>456.455</ele>
        <time>2020-02-03T13:14:23Z</time>
      </trkpt>
      <trkpt lat="25.681964" lon="-100.237104">
        <ele>456.724</ele>
        <time>2020-02-03T13:14:24Z</time>
      </trkpt>
      <trkpt lat="25.681949" lon="-100.237164">
        <ele>456.327</ele>
        <time>2020-02-03T13:14:26Z</time>
      </trkpt>
      <trkpt lat="25.681945" lon="-100.237229">
        <ele>456.66</ele>
        <time>2020-02-03T13:14:28Z</time>
      </trkpt>
      <trkpt lat="25.681943" lon="-100.237262">
        <ele>456.067</ele>
        <time>2020-02-03T13:14:29Z</time>
      </trkpt>
      <trkpt lat="25.681943" lon="-100.237293">
        <ele>456.016</ele>
        <time>2020-02-03T13:14:30Z</time>
      </trkpt>
      <trkpt lat="25.68193" lon="-100.237354">
        <ele>456.172</ele>
        <time>2020-02-03T13:14:32Z</time>
      </trkpt>
      <trkpt lat="25.681911" lon="-100.237414">
        <ele>456.5</ele>
        <time>2020-02-03T13:14:34Z</time>
      </trkpt>
      <trkpt lat="25.681904" lon="-100.237444">
        <ele>457.089</ele>
        <time>2020-02-03T13:14:35Z</time>
      </trkpt>
      <trkpt lat="25.681897" lon="-100.237473">
        <ele>457.246</ele>
        <time>2020-02-03T13:14:36Z</time>
      </trkpt>
      <trkpt lat="25.681888" lon="-100.2375">
        <ele>457.212</ele>
        <time>2020-02-03T13:14:37Z</time>
      </trkpt>
      <trkpt lat="25.681878" lon="-100.237526">
        <ele>457.168</ele>
        <time>2020-02-03T13:14:38Z</time>
      </trkpt>
      <trkpt lat="25.681868" lon="-100.237553">
        <ele>458.299</ele>
        <time>2020-02-03T13:14:39Z</time>
      </trkpt>
      <trkpt lat="25.681859" lon="-100.237582">
        <ele>458.345</ele>
        <time>2020-02-03T13:14:40Z</time>
      </trkpt>
      <trkpt lat="25.68185" lon="-100.237609">
        <ele>458.408</ele>
        <time>2020-02-03T13:14:41Z</time>
      </trkpt>
      <trkpt lat="25.681844" lon="-100.237637">
        <ele>458.85</ele>
        <time>2020-02-03T13:14:42Z</time>
      </trkpt>
      <trkpt lat="25.681837" lon="-100.237666">
        <ele>458.015</ele>
        <time>2020-02-03T13:14:43Z</time>
      </trkpt>
      <trkpt lat="25.68183" lon="-100.237694">
        <ele>458.74</ele>
        <time>2020-02-03T13:14:44Z</time>
      </trkpt>
      <trkpt lat="25.681824" lon="-100.237723">
        <ele>458.589</ele>
        <time>2020-02-03T13:14:45Z</time>
      </trkpt>
      <trkpt lat="25.681816" lon="-100.237751">
        <ele>458.534</ele>
        <time>2020-02-03T13:14:46Z</time>
      </trkpt>
      <trkpt lat="25.681806" lon="-100.237779">
        <ele>459.124</ele>
        <time>2020-02-03T13:14:47Z</time>
      </trkpt>
      <trkpt lat="25.681793" lon="-100.237807">
        <ele>459.797</ele>
        <time>2020-02-03T13:14:48Z</time>
      </trkpt>
      <trkpt lat="25.681782" lon="-100.237836">
        <ele>460.941</ele>
        <time>2020-02-03T13:14:49Z</time>
      </trkpt>
      <trkpt lat="25.681771" lon="-100.237865">
        <ele>461.124</ele>
        <time>2020-02-03T13:14:50Z</time>
      </trkpt>
      <trkpt lat="25.681762" lon="-100.237894">
        <ele>460.606</ele>
        <time>2020-02-03T13:14:51Z</time>
      </trkpt>
      <trkpt lat="25.681753" lon="-100.237922">
        <ele>460.266</ele>
        <time>2020-02-03T13:14:52Z</time>
      </trkpt>
      <trkpt lat="25.681744" lon="-100.237949">
        <ele>459.755</ele>
        <time>2020-02-03T13:14:53Z</time>
      </trkpt>
      <trkpt lat="25.681733" lon="-100.237975">
        <ele>459.432</ele>
        <time>2020-02-03T13:14:54Z</time>
      </trkpt>
      <trkpt lat="25.681723" lon="-100.238002">
        <ele>459.885</ele>
        <time>2020-02-03T13:14:55Z</time>
      </trkpt>
      <trkpt lat="25.681713" lon="-100.238029">
        <ele>459.764</ele>
        <time>2020-02-03T13:14:56Z</time>
      </trkpt>
      <trkpt lat="25.681704" lon="-100.238055">
        <ele>460.327</ele>
        <time>2020-02-03T13:14:57Z</time>
      </trkpt>
      <trkpt lat="25.681692" lon="-100.23808">
        <ele>460.949</ele>
        <time>2020-02-03T13:14:58Z</time>
      </trkpt>
      <trkpt lat="25.681678" lon="-100.238106">
        <ele>461.851</ele>
        <time>2020-02-03T13:14:59Z</time>
      </trkpt>
      <trkpt lat="25.681664" lon="-100.238132">
        <ele>462.769</ele>
        <time>2020-02-03T13:15:00Z</time>
      </trkpt>
      <trkpt lat="25.681646" lon="-100.238159">
        <ele>462.865</ele>
        <time>2020-02-03T13:15:01Z</time>
      </trkpt>
      <trkpt lat="25.681618" lon="-100.238215">
        <ele>462.845</ele>
        <time>2020-02-03T13:15:03Z</time>
      </trkpt>
      <trkpt lat="25.681606" lon="-100.238241">
        <ele>464.056</ele>
        <time>2020-02-03T13:15:04Z</time>
      </trkpt>
      <trkpt lat="25.681591" lon="-100.238266">
        <ele>463.312</ele>
        <time>2020-02-03T13:15:05Z</time>
      </trkpt>
      <trkpt lat="25.681542" lon="-100.238341">
        <ele>465.166</ele>
        <time>2020-02-03T13:15:08Z</time>
      </trkpt>
      <trkpt lat="25.681513" lon="-100.238393">
        <ele>465.506</ele>
        <time>2020-02-03T13:15:10Z</time>
      </trkpt>
      <trkpt lat="25.681499" lon="-100.238419">
        <ele>465.759</ele>
        <time>2020-02-03T13:15:11Z</time>
      </trkpt>
      <trkpt lat="25.681484" lon="-100.238444">
        <ele>465.34</ele>
        <time>2020-02-03T13:15:12Z</time>
      </trkpt>
      <trkpt lat="25.681469" lon="-100.238468">
        <ele>465.219</ele>
        <time>2020-02-03T13:15:13Z</time>
      </trkpt>
      <trkpt lat="25.681436" lon="-100.238518">
        <ele>465.194</ele>
        <time>2020-02-03T13:15:15Z</time>
      </trkpt>
      <trkpt lat="25.68142" lon="-100.238543">
        <ele>463.356</ele>
        <time>2020-02-03T13:15:16Z</time>
      </trkpt>
      <trkpt lat="25.681392" lon="-100.238592">
        <ele>463.59</ele>
        <time>2020-02-03T13:15:18Z</time>
      </trkpt>
      <trkpt lat="25.681379" lon="-100.238618">
        <ele>464.711</ele>
        <time>2020-02-03T13:15:19Z</time>
      </trkpt>
      <trkpt lat="25.681366" lon="-100.238644">
        <ele>465.346</ele>
        <time>2020-02-03T13:15:20Z</time>
      </trkpt>
      <trkpt lat="25.681352" lon="-100.23867">
        <ele>466.076</ele>
        <time>2020-02-03T13:15:21Z</time>
      </trkpt>
      <trkpt lat="25.681342" lon="-100.238693">
        <ele>465.501</ele>
        <time>2020-02-03T13:15:22Z</time>
      </trkpt>
      <trkpt lat="25.681319" lon="-100.238745">
        <ele>465.246</ele>
        <time>2020-02-03T13:15:24Z</time>
      </trkpt>
      <trkpt lat="25.681305" lon="-100.238773">
        <ele>464.77</ele>
        <time>2020-02-03T13:15:25Z</time>
      </trkpt>
      <trkpt lat="25.681291" lon="-100.238798">
        <ele>464.804</ele>
        <time>2020-02-03T13:15:26Z</time>
      </trkpt>
      <trkpt lat="25.681275" lon="-100.238824">
        <ele>464.11</ele>
        <time>2020-02-03T13:15:27Z</time>
      </trkpt>
      <trkpt lat="25.681261" lon="-100.238851">
        <ele>464.741</ele>
        <time>2020-02-03T13:15:28Z</time>
      </trkpt>
      <trkpt lat="25.681247" lon="-100.238879">
        <ele>464.754</ele>
        <time>2020-02-03T13:15:29Z</time>
      </trkpt>
      <trkpt lat="25.681233" lon="-100.238907">
        <ele>464.258</ele>
        <time>2020-02-03T13:15:30Z</time>
      </trkpt>
      <trkpt lat="25.681218" lon="-100.238935">
        <ele>463.759</ele>
        <time>2020-02-03T13:15:31Z</time>
      </trkpt>
      <trkpt lat="25.681203" lon="-100.238961">
        <ele>463.725</ele>
        <time>2020-02-03T13:15:32Z</time>
      </trkpt>
      <trkpt lat="25.681187" lon="-100.238988">
        <ele>462.856</ele>
        <time>2020-02-03T13:15:33Z</time>
      </trkpt>
      <trkpt lat="25.681163" lon="-100.239044">
        <ele>463.318</ele>
        <time>2020-02-03T13:15:35Z</time>
      </trkpt>
      <trkpt lat="25.681151" lon="-100.239071">
        <ele>462.557</ele>
        <time>2020-02-03T13:15:36Z</time>
      </trkpt>
      <trkpt lat="25.68111" lon="-100.239147">
        <ele>462.376</ele>
        <time>2020-02-03T13:15:39Z</time>
      </trkpt>
      <trkpt lat="25.681097" lon="-100.239175">
        <ele>462.585</ele>
        <time>2020-02-03T13:15:40Z</time>
      </trkpt>
      <trkpt lat="25.681086" lon="-100.239203">
        <ele>462.498</ele>
        <time>2020-02-03T13:15:41Z</time>
      </trkpt>
      <trkpt lat="25.681074" lon="-100.23923">
        <ele>462.571</ele>
        <time>2020-02-03T13:15:42Z</time>
      </trkpt>
      <trkpt lat="25.681064" lon="-100.239257">
        <ele>463.028</ele>
        <time>2020-02-03T13:15:43Z</time>
      </trkpt>
      <trkpt lat="25.681053" lon="-100.239284">
        <ele>463.189</ele>
        <time>2020-02-03T13:15:44Z</time>
      </trkpt>
      <trkpt lat="25.681019" lon="-100.23933">
        <ele>463.168</ele>
        <time>2020-02-03T13:15:46Z</time>
      </trkpt>
      <trkpt lat="25.681002" lon="-100.239352">
        <ele>463.138</ele>
        <time>2020-02-03T13:15:47Z</time>
      </trkpt>
      <trkpt lat="25.680975" lon="-100.2394">
        <ele>463.065</ele>
        <time>2020-02-03T13:15:49Z</time>
      </trkpt>
      <trkpt lat="25.680963" lon="-100.239425">
        <ele>462.95</ele>
        <time>2020-02-03T13:15:50Z</time>
      </trkpt>
      <trkpt lat="25.68095" lon="-100.23945">
        <ele>462.988</ele>
        <time>2020-02-03T13:15:51Z</time>
      </trkpt>
      <trkpt lat="25.68094" lon="-100.239475">
        <ele>462.654</ele>
        <time>2020-02-03T13:15:52Z</time>
      </trkpt>
      <trkpt lat="25.68093" lon="-100.2395">
        <ele>462.845</ele>
        <time>2020-02-03T13:15:53Z</time>
      </trkpt>
      <trkpt lat="25.680921" lon="-100.239527">
        <ele>462.807</ele>
        <time>2020-02-03T13:15:54Z</time>
      </trkpt>
      <trkpt lat="25.680911" lon="-100.239554">
        <ele>462.644</ele>
        <time>2020-02-03T13:15:55Z</time>
      </trkpt>
      <trkpt lat="25.680899" lon="-100.23958">
        <ele>462.499</ele>
        <time>2020-02-03T13:15:56Z</time>
      </trkpt>
      <trkpt lat="25.680889" lon="-100.239606">
        <ele>462.455</ele>
        <time>2020-02-03T13:15:57Z</time>
      </trkpt>
      <trkpt lat="25.680878" lon="-100.23963">
        <ele>462.093</ele>
        <time>2020-02-03T13:15:58Z</time>
      </trkpt>
      <trkpt lat="25.680868" lon="-100.239655">
        <ele>461.616</ele>
        <time>2020-02-03T13:15:59Z</time>
      </trkpt>
      <trkpt lat="25.680858" lon="-100.239679">
        <ele>461.63</ele>
        <time>2020-02-03T13:16:00Z</time>
      </trkpt>
      <trkpt lat="25.680848" lon="-100.239704">
        <ele>461.623</ele>
        <time>2020-02-03T13:16:01Z</time>
      </trkpt>
      <trkpt lat="25.680839" lon="-100.239728">
        <ele>462.685</ele>
        <time>2020-02-03T13:16:02Z</time>
      </trkpt>
      <trkpt lat="25.680827" lon="-100.239753">
        <ele>463.375</ele>
        <time>2020-02-03T13:16:03Z</time>
      </trkpt>
      <trkpt lat="25.680814" lon="-100.239778">
        <ele>463.398</ele>
        <time>2020-02-03T13:16:04Z</time>
      </trkpt>
      <trkpt lat="25.6808" lon="-100.239804">
        <ele>463.319</ele>
        <time>2020-02-03T13:16:05Z</time>
      </trkpt>
      <trkpt lat="25.680787" lon="-100.239829">
        <ele>463.122</ele>
        <time>2020-02-03T13:16:06Z</time>
      </trkpt>
      <trkpt lat="25.680772" lon="-100.239853">
        <ele>463.174</ele>
        <time>2020-02-03T13:16:07Z</time>
      </trkpt>
      <trkpt lat="25.680758" lon="-100.239878">
        <ele>463.058</ele>
        <time>2020-02-03T13:16:08Z</time>
      </trkpt>
      <trkpt lat="25.680745" lon="-100.239903">
        <ele>462.291</ele>
        <time>2020-02-03T13:16:09Z</time>
      </trkpt>
      <trkpt lat="25.680732" lon="-100.239927">
        <ele>462.082</ele>
        <time>2020-02-03T13:16:10Z</time>
      </trkpt>
      <trkpt lat="25.68072" lon="-100.239953">
        <ele>461.782</ele>
        <time>2020-02-03T13:16:11Z</time>
      </trkpt>
      <trkpt lat="25.680708" lon="-100.239977">
        <ele>462.287</ele>
        <time>2020-02-03T13:16:12Z</time>
      </trkpt>
      <trkpt lat="25.680694" lon="-100.24">
        <ele>461.686</ele>
        <time>2020-02-03T13:16:13Z</time>
      </trkpt>
      <trkpt lat="25.680682" lon="-100.240023">
        <ele>463.041</ele>
        <time>2020-02-03T13:16:14Z</time>
      </trkpt>
      <trkpt lat="25.680672" lon="-100.240045">
        <ele>463.338</ele>
        <time>2020-02-03T13:16:15Z</time>
      </trkpt>
      <trkpt lat="25.680662" lon="-100.240068">
        <ele>463.258</ele>
        <time>2020-02-03T13:16:16Z</time>
      </trkpt>
      <trkpt lat="25.68065" lon="-100.240091">
        <ele>463.38</ele>
        <time>2020-02-03T13:16:17Z</time>
      </trkpt>
      <trkpt lat="25.680639" lon="-100.240115">
        <ele>462.701</ele>
        <time>2020-02-03T13:16:18Z</time>
      </trkpt>
      <trkpt lat="25.680627" lon="-100.240165">
        <ele>462.118</ele>
        <time>2020-02-03T13:16:20Z</time>
      </trkpt>
      <trkpt lat="25.680622" lon="-100.240218">
        <ele>461.622</ele>
        <time>2020-02-03T13:16:22Z</time>
      </trkpt>
      <trkpt lat="25.680626" lon="-100.240274">
        <ele>461.911</ele>
        <time>2020-02-03T13:16:24Z</time>
      </trkpt>
      <trkpt lat="25.680629" lon="-100.240302">
        <ele>461.715</ele>
        <time>2020-02-03T13:16:25Z</time>
      </trkpt>
      <trkpt lat="25.680631" lon="-100.240329">
        <ele>461.91</ele>
        <time>2020-02-03T13:16:26Z</time>
      </trkpt>
      <trkpt lat="25.680633" lon="-100.240358">
        <ele>461.862</ele>
        <time>2020-02-03T13:16:27Z</time>
      </trkpt>
      <trkpt lat="25.680635" lon="-100.240387">
        <ele>461.823</ele>
        <time>2020-02-03T13:16:28Z</time>
      </trkpt>
      <trkpt lat="25.680637" lon="-100.240417">
        <ele>461.956</ele>
        <time>2020-02-03T13:16:29Z</time>
      </trkpt>
      <trkpt lat="25.680637" lon="-100.240448">
        <ele>461.899</ele>
        <time>2020-02-03T13:16:30Z</time>
      </trkpt>
      <trkpt lat="25.680634" lon="-100.240477">
        <ele>461.958</ele>
        <time>2020-02-03T13:16:31Z</time>
      </trkpt>
      <trkpt lat="25.680632" lon="-100.240506">
        <ele>462.084</ele>
        <time>2020-02-03T13:16:32Z</time>
      </trkpt>
      <trkpt lat="25.680628" lon="-100.240534">
        <ele>464.05</ele>
        <time>2020-02-03T13:16:33Z</time>
      </trkpt>
      <trkpt lat="25.680622" lon="-100.240567">
        <ele>463.845</ele>
        <time>2020-02-03T13:16:34Z</time>
      </trkpt>
      <trkpt lat="25.680617" lon="-100.2406">
        <ele>464.239</ele>
        <time>2020-02-03T13:16:35Z</time>
      </trkpt>
      <trkpt lat="25.680611" lon="-100.240631">
        <ele>464.302</ele>
        <time>2020-02-03T13:16:36Z</time>
      </trkpt>
      <trkpt lat="25.680607" lon="-100.240662">
        <ele>464.455</ele>
        <time>2020-02-03T13:16:37Z</time>
      </trkpt>
      <trkpt lat="25.680602" lon="-100.240691">
        <ele>464.42</ele>
        <time>2020-02-03T13:16:38Z</time>
      </trkpt>
      <trkpt lat="25.680597" lon="-100.240753">
        <ele>464.448</ele>
        <time>2020-02-03T13:16:40Z</time>
      </trkpt>
      <trkpt lat="25.680599" lon="-100.240814">
        <ele>463.848</ele>
        <time>2020-02-03T13:16:42Z</time>
      </trkpt>
      <trkpt lat="25.680601" lon="-100.240845">
        <ele>463.883</ele>
        <time>2020-02-03T13:16:43Z</time>
      </trkpt>
      <trkpt lat="25.680602" lon="-100.240875">
        <ele>463.072</ele>
        <time>2020-02-03T13:16:44Z</time>
      </trkpt>
      <trkpt lat="25.680613" lon="-100.240934">
        <ele>462.758</ele>
        <time>2020-02-03T13:16:46Z</time>
      </trkpt>
      <trkpt lat="25.680617" lon="-100.240963">
        <ele>463.026</ele>
        <time>2020-02-03T13:16:47Z</time>
      </trkpt>
      <trkpt lat="25.680621" lon="-100.240992">
        <ele>463.108</ele>
        <time>2020-02-03T13:16:48Z</time>
      </trkpt>
      <trkpt lat="25.680624" lon="-100.241022">
        <ele>462.954</ele>
        <time>2020-02-03T13:16:49Z</time>
      </trkpt>
      <trkpt lat="25.680628" lon="-100.241052">
        <ele>463.37</ele>
        <time>2020-02-03T13:16:50Z</time>
      </trkpt>
      <trkpt lat="25.680633" lon="-100.241086">
        <ele>461.362</ele>
        <time>2020-02-03T13:16:51Z</time>
      </trkpt>
      <trkpt lat="25.680636" lon="-100.241147">
        <ele>461.146</ele>
        <time>2020-02-03T13:16:53Z</time>
      </trkpt>
      <trkpt lat="25.680635" lon="-100.241178">
        <ele>460.818</ele>
        <time>2020-02-03T13:16:54Z</time>
      </trkpt>
      <trkpt lat="25.680634" lon="-100.241208">
        <ele>460.828</ele>
        <time>2020-02-03T13:16:55Z</time>
      </trkpt>
      <trkpt lat="25.680633" lon="-100.241238">
        <ele>460.975</ele>
        <time>2020-02-03T13:16:56Z</time>
      </trkpt>
      <trkpt lat="25.680629" lon="-100.241268">
        <ele>460.997</ele>
        <time>2020-02-03T13:16:57Z</time>
      </trkpt>
      <trkpt lat="25.680624" lon="-100.241298">
        <ele>460.425</ele>
        <time>2020-02-03T13:16:58Z</time>
      </trkpt>
      <trkpt lat="25.680618" lon="-100.241327">
        <ele>461.636</ele>
        <time>2020-02-03T13:16:59Z</time>
      </trkpt>
      <trkpt lat="25.680613" lon="-100.241358">
        <ele>461.519</ele>
        <time>2020-02-03T13:17:00Z</time>
      </trkpt>
      <trkpt lat="25.680609" lon="-100.241388">
        <ele>461.629</ele>
        <time>2020-02-03T13:17:01Z</time>
      </trkpt>
      <trkpt lat="25.680608" lon="-100.241417">
        <ele>460.924</ele>
        <time>2020-02-03T13:17:02Z</time>
      </trkpt>
      <trkpt lat="25.680606" lon="-100.241445">
        <ele>460.574</ele>
        <time>2020-02-03T13:17:03Z</time>
      </trkpt>
      <trkpt lat="25.680605" lon="-100.241474">
        <ele>461.339</ele>
        <time>2020-02-03T13:17:04Z</time>
      </trkpt>
      <trkpt lat="25.680605" lon="-100.241504">
        <ele>460.926</ele>
        <time>2020-02-03T13:17:05Z</time>
      </trkpt>
      <trkpt lat="25.680614" lon="-100.241565">
        <ele>461.203</ele>
        <time>2020-02-03T13:17:07Z</time>
      </trkpt>
      <trkpt lat="25.68062" lon="-100.241598">
        <ele>461.75</ele>
        <time>2020-02-03T13:17:08Z</time>
      </trkpt>
      <trkpt lat="25.680622" lon="-100.241665">
        <ele>462.339</ele>
        <time>2020-02-03T13:17:10Z</time>
      </trkpt>
      <trkpt lat="25.680617" lon="-100.241733">
        <ele>462.233</ele>
        <time>2020-02-03T13:17:12Z</time>
      </trkpt>
      <trkpt lat="25.680613" lon="-100.241768">
        <ele>462.098</ele>
        <time>2020-02-03T13:17:13Z</time>
      </trkpt>
      <trkpt lat="25.68061" lon="-100.241802">
        <ele>462.107</ele>
        <time>2020-02-03T13:17:14Z</time>
      </trkpt>
      <trkpt lat="25.680608" lon="-100.241837">
        <ele>462.742</ele>
        <time>2020-02-03T13:17:15Z</time>
      </trkpt>
      <trkpt lat="25.680606" lon="-100.241871">
        <ele>462.892</ele>
        <time>2020-02-03T13:17:16Z</time>
      </trkpt>
      <trkpt lat="25.680605" lon="-100.241906">
        <ele>462.943</ele>
        <time>2020-02-03T13:17:17Z</time>
      </trkpt>
      <trkpt lat="25.680603" lon="-100.24194">
        <ele>463.124</ele>
        <time>2020-02-03T13:17:18Z</time>
      </trkpt>
      <trkpt lat="25.680601" lon="-100.241974">
        <ele>463.351</ele>
        <time>2020-02-03T13:17:19Z</time>
      </trkpt>
      <trkpt lat="25.6806" lon="-100.242008">
        <ele>463.231</ele>
        <time>2020-02-03T13:17:20Z</time>
      </trkpt>
      <trkpt lat="25.6806" lon="-100.242041">
        <ele>463.637</ele>
        <time>2020-02-03T13:17:21Z</time>
      </trkpt>
      <trkpt lat="25.680599" lon="-100.242075">
        <ele>463.679</ele>
        <time>2020-02-03T13:17:22Z</time>
      </trkpt>
      <trkpt lat="25.680599" lon="-100.242107">
        <ele>463.447</ele>
        <time>2020-02-03T13:17:23Z</time>
      </trkpt>
      <trkpt lat="25.680599" lon="-100.242139">
        <ele>463.82</ele>
        <time>2020-02-03T13:17:24Z</time>
      </trkpt>
      <trkpt lat="25.680599" lon="-100.24217">
        <ele>464.839</ele>
        <time>2020-02-03T13:17:25Z</time>
      </trkpt>
      <trkpt lat="25.680607" lon="-100.242235">
        <ele>465.005</ele>
        <time>2020-02-03T13:17:27Z</time>
      </trkpt>
      <trkpt lat="25.680608" lon="-100.242264">
        <ele>464.89</ele>
        <time>2020-02-03T13:17:28Z</time>
      </trkpt>
      <trkpt lat="25.680596" lon="-100.242318">
        <ele>464.714</ele>
        <time>2020-02-03T13:17:30Z</time>
      </trkpt>
      <trkpt lat="25.680589" lon="-100.242346">
        <ele>464.961</ele>
        <time>2020-02-03T13:17:31Z</time>
      </trkpt>
      <trkpt lat="25.680582" lon="-100.242375">
        <ele>464.448</ele>
        <time>2020-02-03T13:17:32Z</time>
      </trkpt>
      <trkpt lat="25.680575" lon="-100.242431">
        <ele>464.414</ele>
        <time>2020-02-03T13:17:34Z</time>
      </trkpt>
      <trkpt lat="25.680572" lon="-100.24246">
        <ele>464.474</ele>
        <time>2020-02-03T13:17:35Z</time>
      </trkpt>
      <trkpt lat="25.680569" lon="-100.242486">
        <ele>464.379</ele>
        <time>2020-02-03T13:17:36Z</time>
      </trkpt>
      <trkpt lat="25.680567" lon="-100.242513">
        <ele>464.24</ele>
        <time>2020-02-03T13:17:37Z</time>
      </trkpt>
      <trkpt lat="25.680566" lon="-100.242541">
        <ele>463.361</ele>
        <time>2020-02-03T13:17:38Z</time>
      </trkpt>
      <trkpt lat="25.680569" lon="-100.242599">
        <ele>463.329</ele>
        <time>2020-02-03T13:17:40Z</time>
      </trkpt>
      <trkpt lat="25.68057" lon="-100.242627">
        <ele>464.049</ele>
        <time>2020-02-03T13:17:41Z</time>
      </trkpt>
      <trkpt lat="25.680571" lon="-100.242685">
        <ele>463.723</ele>
        <time>2020-02-03T13:17:43Z</time>
      </trkpt>
      <trkpt lat="25.680572" lon="-100.242714">
        <ele>463.59</ele>
        <time>2020-02-03T13:17:44Z</time>
      </trkpt>
      <trkpt lat="25.680575" lon="-100.242741">
        <ele>463.873</ele>
        <time>2020-02-03T13:17:45Z</time>
      </trkpt>
      <trkpt lat="25.680577" lon="-100.242769">
        <ele>464.023</ele>
        <time>2020-02-03T13:17:46Z</time>
      </trkpt>
      <trkpt lat="25.680577" lon="-100.242825">
        <ele>464.107</ele>
        <time>2020-02-03T13:17:48Z</time>
      </trkpt>
      <trkpt lat="25.680575" lon="-100.242854">
        <ele>461.485</ele>
        <time>2020-02-03T13:17:49Z</time>
      </trkpt>
      <trkpt lat="25.680582" lon="-100.242908">
        <ele>461.593</ele>
        <time>2020-02-03T13:17:51Z</time>
      </trkpt>
      <trkpt lat="25.680586" lon="-100.242936">
        <ele>462.394</ele>
        <time>2020-02-03T13:17:52Z</time>
      </trkpt>
      <trkpt lat="25.680586" lon="-100.242991">
        <ele>462.618</ele>
        <time>2020-02-03T13:17:54Z</time>
      </trkpt>
      <trkpt lat="25.680584" lon="-100.243049">
        <ele>464.082</ele>
        <time>2020-02-03T13:17:56Z</time>
      </trkpt>
      <trkpt lat="25.680585" lon="-100.24311">
        <ele>464.812</ele>
        <time>2020-02-03T13:17:58Z</time>
      </trkpt>
      <trkpt lat="25.680584" lon="-100.243142">
        <ele>464.907</ele>
        <time>2020-02-03T13:17:59Z</time>
      </trkpt>
      <trkpt lat="25.680581" lon="-100.243173">
        <ele>465.055</ele>
        <time>2020-02-03T13:18:00Z</time>
      </trkpt>
      <trkpt lat="25.680577" lon="-100.243204">
        <ele>465.091</ele>
        <time>2020-02-03T13:18:01Z</time>
      </trkpt>
      <trkpt lat="25.680575" lon="-100.243235">
        <ele>465.541</ele>
        <time>2020-02-03T13:18:02Z</time>
      </trkpt>
      <trkpt lat="25.680574" lon="-100.243266">
        <ele>466.409</ele>
        <time>2020-02-03T13:18:03Z</time>
      </trkpt>
      <trkpt lat="25.680573" lon="-100.243297">
        <ele>466.613</ele>
        <time>2020-02-03T13:18:04Z</time>
      </trkpt>
      <trkpt lat="25.680573" lon="-100.24333">
        <ele>466.837</ele>
        <time>2020-02-03T13:18:05Z</time>
      </trkpt>
      <trkpt lat="25.680573" lon="-100.243363">
        <ele>467.352</ele>
        <time>2020-02-03T13:18:06Z</time>
      </trkpt>
      <trkpt lat="25.680572" lon="-100.243396">
        <ele>468.333</ele>
        <time>2020-02-03T13:18:07Z</time>
      </trkpt>
      <trkpt lat="25.680567" lon="-100.243466">
        <ele>468.42</ele>
        <time>2020-02-03T13:18:09Z</time>
      </trkpt>
      <trkpt lat="25.680564" lon="-100.243502">
        <ele>468.594</ele>
        <time>2020-02-03T13:18:10Z</time>
      </trkpt>
      <trkpt lat="25.680563" lon="-100.243538">
        <ele>468.87</ele>
        <time>2020-02-03T13:18:11Z</time>
      </trkpt>
      <trkpt lat="25.680561" lon="-100.243572">
        <ele>468.883</ele>
        <time>2020-02-03T13:18:12Z</time>
      </trkpt>
      <trkpt lat="25.680558" lon="-100.243606">
        <ele>468.229</ele>
        <time>2020-02-03T13:18:13Z</time>
      </trkpt>
      <trkpt lat="25.680552" lon="-100.243639">
        <ele>468.585</ele>
        <time>2020-02-03T13:18:14Z</time>
      </trkpt>
      <trkpt lat="25.680547" lon="-100.243673">
        <ele>467.723</ele>
        <time>2020-02-03T13:18:15Z</time>
      </trkpt>
      <trkpt lat="25.68054" lon="-100.243705">
        <ele>467.202</ele>
        <time>2020-02-03T13:18:16Z</time>
      </trkpt>
      <trkpt lat="25.680516" lon="-100.243786">
        <ele>468.076</ele>
        <time>2020-02-03T13:18:19Z</time>
      </trkpt>
      <trkpt lat="25.680509" lon="-100.24381">
        <ele>465.953</ele>
        <time>2020-02-03T13:18:20Z</time>
      </trkpt>
      <trkpt lat="25.680479" lon="-100.243832">
        <ele>465.644</ele>
        <time>2020-02-03T13:18:27Z</time>
      </trkpt>
      <trkpt lat="25.680444" lon="-100.243865">
        <ele>465.47</ele>
        <time>2020-02-03T13:18:40Z</time>
      </trkpt>
      <trkpt lat="25.680427" lon="-100.243915">
        <ele>464.633</ele>
        <time>2020-02-03T13:18:45Z</time>
      </trkpt>
      <trkpt lat="25.680416" lon="-100.243946">
        <ele>464.777</ele>
        <time>2020-02-03T13:19:00Z</time>
      </trkpt>
      <trkpt lat="25.680374" lon="-100.243987">
        <ele>465.202</ele>
        <time>2020-02-03T13:19:03Z</time>
      </trkpt>
      <trkpt lat="25.680327" lon="-100.244011">
        <ele>464.884</ele>
        <time>2020-02-03T13:19:05Z</time>
      </trkpt>
      <trkpt lat="25.680268" lon="-100.24403">
        <ele>464.088</ele>
        <time>2020-02-03T13:19:07Z</time>
      </trkpt>
      <trkpt lat="25.680237" lon="-100.244037">
        <ele>463.623</ele>
        <time>2020-02-03T13:19:08Z</time>
      </trkpt>
      <trkpt lat="25.680207" lon="-100.244043">
        <ele>463.272</ele>
        <time>2020-02-03T13:19:09Z</time>
      </trkpt>
      <trkpt lat="25.680178" lon="-100.24405">
        <ele>463.967</ele>
        <time>2020-02-03T13:19:10Z</time>
      </trkpt>
      <trkpt lat="25.680147" lon="-100.244057">
        <ele>463.198</ele>
        <time>2020-02-03T13:19:11Z</time>
      </trkpt>
      <trkpt lat="25.680118" lon="-100.244064">
        <ele>463.077</ele>
        <time>2020-02-03T13:19:12Z</time>
      </trkpt>
      <trkpt lat="25.680088" lon="-100.244069">
        <ele>462.6</ele>
        <time>2020-02-03T13:19:13Z</time>
      </trkpt>
      <trkpt lat="25.680058" lon="-100.244074">
        <ele>462.473</ele>
        <time>2020-02-03T13:19:14Z</time>
      </trkpt>
      <trkpt lat="25.680028" lon="-100.24408">
        <ele>461.114</ele>
        <time>2020-02-03T13:19:15Z</time>
      </trkpt>
      <trkpt lat="25.67997" lon="-100.244086">
        <ele>460.8</ele>
        <time>2020-02-03T13:19:17Z</time>
      </trkpt>
      <trkpt lat="25.679941" lon="-100.244087">
        <ele>460.361</ele>
        <time>2020-02-03T13:19:18Z</time>
      </trkpt>
      <trkpt lat="25.679846" lon="-100.244106">
        <ele>460.429</ele>
        <time>2020-02-03T13:19:21Z</time>
      </trkpt>
      <trkpt lat="25.679816" lon="-100.244113">
        <ele>460.927</ele>
        <time>2020-02-03T13:19:22Z</time>
      </trkpt>
      <trkpt lat="25.679789" lon="-100.244118">
        <ele>460.906</ele>
        <time>2020-02-03T13:19:23Z</time>
      </trkpt>
      <trkpt lat="25.679731" lon="-100.244122">
        <ele>461.919</ele>
        <time>2020-02-03T13:19:25Z</time>
      </trkpt>
      <trkpt lat="25.679684" lon="-100.244136">
        <ele>462.3</ele>
        <time>2020-02-03T13:19:27Z</time>
      </trkpt>
      <trkpt lat="25.679657" lon="-100.244143">
        <ele>462.356</ele>
        <time>2020-02-03T13:19:28Z</time>
      </trkpt>
      <trkpt lat="25.67963" lon="-100.24415">
        <ele>462.436</ele>
        <time>2020-02-03T13:19:29Z</time>
      </trkpt>
      <trkpt lat="25.679603" lon="-100.244156">
        <ele>459.448</ele>
        <time>2020-02-03T13:19:30Z</time>
      </trkpt>
      <trkpt lat="25.679566" lon="-100.244161">
        <ele>462.251</ele>
        <time>2020-02-03T13:19:32Z</time>
      </trkpt>
      <trkpt lat="25.679528" lon="-100.244188">
        <ele>463.16</ele>
        <time>2020-02-03T13:19:37Z</time>
      </trkpt>
      <trkpt lat="25.679479" lon="-100.244191">
        <ele>465.764</ele>
        <time>2020-02-03T13:19:44Z</time>
      </trkpt>
      <trkpt lat="25.679425" lon="-100.244174">
        <ele>466.571</ele>
        <time>2020-02-03T13:19:50Z</time>
      </trkpt>
      <trkpt lat="25.679402" lon="-100.244166">
        <ele>468.311</ele>
        <time>2020-02-03T13:19:54Z</time>
      </trkpt>
      <trkpt lat="25.679402" lon="-100.244166">
        <ele>466.593</ele>
        <time>2020-02-03T13:19:59Z</time>
      </trkpt>
      <trkpt lat="25.679402" lon="-100.244166">
        <ele>466.824</ele>
        <time>2020-02-03T13:23:25Z</time>
      </trkpt>
      <trkpt lat="25.679374" lon="-100.244144">
        <ele>467.107</ele>
        <time>2020-02-03T13:23:26Z</time>
      </trkpt>
      <trkpt lat="25.679317" lon="-100.244162">
        <ele>466.941</ele>
        <time>2020-02-03T13:23:46Z</time>
      </trkpt>
      <trkpt lat="25.67926" lon="-100.244167">
        <ele>465.915</ele>
        <time>2020-02-03T13:23:50Z</time>
      </trkpt>
      <trkpt lat="25.679195" lon="-100.244196">
        <ele>466.53</ele>
        <time>2020-02-03T13:23:53Z</time>
      </trkpt>
      <trkpt lat="25.679177" lon="-100.244281">
        <ele>466.53</ele>
        <time>2020-02-03T13:23:56Z</time>
      </trkpt>
      <trkpt lat="25.67917" lon="-100.244338">
        <ele>466.53</ele>
        <time>2020-02-03T13:23:58Z</time>
      </trkpt>
      <trkpt lat="25.679181" lon="-100.244389">
        <ele>466.544</ele>
        <time>2020-02-03T13:24:02Z</time>
      </trkpt>
      <trkpt lat="25.679181" lon="-100.244389">
        <ele>466.306</ele>
        <time>2020-02-03T13:24:09Z</time>
      </trkpt>
      <trkpt lat="25.679181" lon="-100.244389">
        <ele>465.941</ele>
        <time>2020-02-03T13:24:10Z</time>
      </trkpt>
      <trkpt lat="25.679213" lon="-100.244439">
        <ele>465.939</ele>
        <time>2020-02-03T13:24:12Z</time>
      </trkpt>
      <trkpt lat="25.679222" lon="-100.24451">
        <ele>466.677</ele>
        <time>2020-02-03T13:24:15Z</time>
      </trkpt>
      <trkpt lat="25.679222" lon="-100.244562">
        <ele>467.098</ele>
        <time>2020-02-03T13:24:17Z</time>
      </trkpt>
      <trkpt lat="25.679231" lon="-100.244616">
        <ele>467.327</ele>
        <time>2020-02-03T13:24:19Z</time>
      </trkpt>
      <trkpt lat="25.679235" lon="-100.244644">
        <ele>467.376</ele>
        <time>2020-02-03T13:24:20Z</time>
      </trkpt>
      <trkpt lat="25.679238" lon="-100.244673">
        <ele>468.062</ele>
        <time>2020-02-03T13:24:21Z</time>
      </trkpt>
      <trkpt lat="25.679242" lon="-100.244706">
        <ele>467.853</ele>
        <time>2020-02-03T13:24:22Z</time>
      </trkpt>
      <trkpt lat="25.679247" lon="-100.24474">
        <ele>468.468</ele>
        <time>2020-02-03T13:24:23Z</time>
      </trkpt>
      <trkpt lat="25.679252" lon="-100.244777">
        <ele>468.566</ele>
        <time>2020-02-03T13:24:24Z</time>
      </trkpt>
      <trkpt lat="25.679259" lon="-100.244813">
        <ele>468.879</ele>
        <time>2020-02-03T13:24:25Z</time>
      </trkpt>
      <trkpt lat="25.679266" lon="-100.244849">
        <ele>468.628</ele>
        <time>2020-02-03T13:24:26Z</time>
      </trkpt>
      <trkpt lat="25.679273" lon="-100.244885">
        <ele>468.055</ele>
        <time>2020-02-03T13:24:27Z</time>
      </trkpt>
      <trkpt lat="25.67928" lon="-100.24492">
        <ele>467.736</ele>
        <time>2020-02-03T13:24:28Z</time>
      </trkpt>
      <trkpt lat="25.679284" lon="-100.244955">
        <ele>467.156</ele>
        <time>2020-02-03T13:24:29Z</time>
      </trkpt>
      <trkpt lat="25.679285" lon="-100.244983">
        <ele>467.998</ele>
        <time>2020-02-03T13:24:30Z</time>
      </trkpt>
      <trkpt lat="25.679288" lon="-100.24501">
        <ele>467.652</ele>
        <time>2020-02-03T13:24:31Z</time>
      </trkpt>
      <trkpt lat="25.679323" lon="-100.245089">
        <ele>468.002</ele>
        <time>2020-02-03T13:24:34Z</time>
      </trkpt>
      <trkpt lat="25.679332" lon="-100.245156">
        <ele>467.395</ele>
        <time>2020-02-03T13:24:36Z</time>
      </trkpt>
      <trkpt lat="25.679335" lon="-100.245186">
        <ele>467.042</ele>
        <time>2020-02-03T13:24:37Z</time>
      </trkpt>
      <trkpt lat="25.679338" lon="-100.245219">
        <ele>466.295</ele>
        <time>2020-02-03T13:24:38Z</time>
      </trkpt>
      <trkpt lat="25.679344" lon="-100.245252">
        <ele>465.299</ele>
        <time>2020-02-03T13:24:39Z</time>
      </trkpt>
      <trkpt lat="25.67935" lon="-100.245283">
        <ele>464.077</ele>
        <time>2020-02-03T13:24:40Z</time>
      </trkpt>
      <trkpt lat="25.679354" lon="-100.245315">
        <ele>464.249</ele>
        <time>2020-02-03T13:24:41Z</time>
      </trkpt>
      <trkpt lat="25.679357" lon="-100.245346">
        <ele>463.051</ele>
        <time>2020-02-03T13:24:42Z</time>
      </trkpt>
      <trkpt lat="25.679361" lon="-100.245377">
        <ele>464.63</ele>
        <time>2020-02-03T13:24:43Z</time>
      </trkpt>
      <trkpt lat="25.679366" lon="-100.245408">
        <ele>464.014</ele>
        <time>2020-02-03T13:24:44Z</time>
      </trkpt>
      <trkpt lat="25.679389" lon="-100.245498">
        <ele>465.199</ele>
        <time>2020-02-03T13:24:47Z</time>
      </trkpt>
      <trkpt lat="25.67939" lon="-100.245562">
        <ele>465.816</ele>
        <time>2020-02-03T13:24:49Z</time>
      </trkpt>
      <trkpt lat="25.679393" lon="-100.245625">
        <ele>466.298</ele>
        <time>2020-02-03T13:24:51Z</time>
      </trkpt>
      <trkpt lat="25.679394" lon="-100.245659">
        <ele>467.846</ele>
        <time>2020-02-03T13:24:52Z</time>
      </trkpt>
      <trkpt lat="25.679415" lon="-100.245763">
        <ele>468.94</ele>
        <time>2020-02-03T13:24:55Z</time>
      </trkpt>
      <trkpt lat="25.679424" lon="-100.245797">
        <ele>468.741</ele>
        <time>2020-02-03T13:24:56Z</time>
      </trkpt>
      <trkpt lat="25.679426" lon="-100.245871">
        <ele>468.726</ele>
        <time>2020-02-03T13:24:58Z</time>
      </trkpt>
      <trkpt lat="25.679427" lon="-100.24591">
        <ele>468.983</ele>
        <time>2020-02-03T13:24:59Z</time>
      </trkpt>
      <trkpt lat="25.67943" lon="-100.245948">
        <ele>468.937</ele>
        <time>2020-02-03T13:25:00Z</time>
      </trkpt>
      <trkpt lat="25.679433" lon="-100.245983">
        <ele>470.083</ele>
        <time>2020-02-03T13:25:01Z</time>
      </trkpt>
      <trkpt lat="25.679435" lon="-100.246018">
        <ele>470.438</ele>
        <time>2020-02-03T13:25:02Z</time>
      </trkpt>
      <trkpt lat="25.679438" lon="-100.246052">
        <ele>470.788</ele>
        <time>2020-02-03T13:25:03Z</time>
      </trkpt>
      <trkpt lat="25.679457" lon="-100.246151">
        <ele>469.968</ele>
        <time>2020-02-03T13:25:06Z</time>
      </trkpt>
      <trkpt lat="25.679465" lon="-100.246217">
        <ele>469.624</ele>
        <time>2020-02-03T13:25:08Z</time>
      </trkpt>
      <trkpt lat="25.679467" lon="-100.246248">
        <ele>468.568</ele>
        <time>2020-02-03T13:25:09Z</time>
      </trkpt>
      <trkpt lat="25.679469" lon="-100.246279">
        <ele>469.047</ele>
        <time>2020-02-03T13:25:10Z</time>
      </trkpt>
      <trkpt lat="25.679454" lon="-100.246353">
        <ele>469.219</ele>
        <time>2020-02-03T13:25:14Z</time>
      </trkpt>
      <trkpt lat="25.679456" lon="-100.246409">
        <ele>469.324</ele>
        <time>2020-02-03T13:25:16Z</time>
      </trkpt>
      <trkpt lat="25.679482" lon="-100.246506">
        <ele>469.941</ele>
        <time>2020-02-03T13:25:19Z</time>
      </trkpt>
      <trkpt lat="25.679497" lon="-100.246577">
        <ele>468.793</ele>
        <time>2020-02-03T13:25:21Z</time>
      </trkpt>
      <trkpt lat="25.679521" lon="-100.246639">
        <ele>468.003</ele>
        <time>2020-02-03T13:25:23Z</time>
      </trkpt>
      <trkpt lat="25.679533" lon="-100.246672">
        <ele>468.167</ele>
        <time>2020-02-03T13:25:24Z</time>
      </trkpt>
      <trkpt lat="25.679546" lon="-100.246743">
        <ele>468.595</ele>
        <time>2020-02-03T13:25:26Z</time>
      </trkpt>
      <trkpt lat="25.679552" lon="-100.246839">
        <ele>468.311</ele>
        <time>2020-02-03T13:25:29Z</time>
      </trkpt>
      <trkpt lat="25.679553" lon="-100.246872">
        <ele>467.813</ele>
        <time>2020-02-03T13:25:30Z</time>
      </trkpt>
      <trkpt lat="25.679555" lon="-100.246907">
        <ele>467.172</ele>
        <time>2020-02-03T13:25:31Z</time>
      </trkpt>
      <trkpt lat="25.679557" lon="-100.246941">
        <ele>468.129</ele>
        <time>2020-02-03T13:25:32Z</time>
      </trkpt>
      <trkpt lat="25.67956" lon="-100.246976">
        <ele>468.324</ele>
        <time>2020-02-03T13:25:33Z</time>
      </trkpt>
      <trkpt lat="25.679562" lon="-100.247012">
        <ele>467.6</ele>
        <time>2020-02-03T13:25:34Z</time>
      </trkpt>
      <trkpt lat="25.679562" lon="-100.247045">
        <ele>467.237</ele>
        <time>2020-02-03T13:25:35Z</time>
      </trkpt>
      <trkpt lat="25.679553" lon="-100.247112">
        <ele>467.496</ele>
        <time>2020-02-03T13:25:37Z</time>
      </trkpt>
      <trkpt lat="25.679551" lon="-100.247144">
        <ele>467.12</ele>
        <time>2020-02-03T13:25:38Z</time>
      </trkpt>
      <trkpt lat="25.679559" lon="-100.247205">
        <ele>467.071</ele>
        <time>2020-02-03T13:25:40Z</time>
      </trkpt>
      <trkpt lat="25.679581" lon="-100.247302">
        <ele>467.109</ele>
        <time>2020-02-03T13:25:43Z</time>
      </trkpt>
      <trkpt lat="25.679588" lon="-100.247333">
        <ele>467.483</ele>
        <time>2020-02-03T13:25:44Z</time>
      </trkpt>
      <trkpt lat="25.679593" lon="-100.247363">
        <ele>467.93</ele>
        <time>2020-02-03T13:25:45Z</time>
      </trkpt>
      <trkpt lat="25.679597" lon="-100.247393">
        <ele>468.121</ele>
        <time>2020-02-03T13:25:46Z</time>
      </trkpt>
      <trkpt lat="25.679609" lon="-100.247452">
        <ele>467.991</ele>
        <time>2020-02-03T13:25:48Z</time>
      </trkpt>
      <trkpt lat="25.679614" lon="-100.247485">
        <ele>467.713</ele>
        <time>2020-02-03T13:25:49Z</time>
      </trkpt>
      <trkpt lat="25.679616" lon="-100.247519">
        <ele>468.427</ele>
        <time>2020-02-03T13:25:50Z</time>
      </trkpt>
      <trkpt lat="25.679618" lon="-100.247552">
        <ele>468.439</ele>
        <time>2020-02-03T13:25:51Z</time>
      </trkpt>
      <trkpt lat="25.679619" lon="-100.247585">
        <ele>468.725</ele>
        <time>2020-02-03T13:25:52Z</time>
      </trkpt>
      <trkpt lat="25.679621" lon="-100.24762">
        <ele>469.2</ele>
        <time>2020-02-03T13:25:53Z</time>
      </trkpt>
      <trkpt lat="25.679626" lon="-100.247681">
        <ele>471.057</ele>
        <time>2020-02-03T13:25:55Z</time>
      </trkpt>
      <trkpt lat="25.679629" lon="-100.247729">
        <ele>471.557</ele>
        <time>2020-02-03T13:25:57Z</time>
      </trkpt>
      <trkpt lat="25.679633" lon="-100.247759">
        <ele>471.725</ele>
        <time>2020-02-03T13:25:58Z</time>
      </trkpt>
      <trkpt lat="25.679641" lon="-100.247825">
        <ele>471.848</ele>
        <time>2020-02-03T13:26:00Z</time>
      </trkpt>
      <trkpt lat="25.679642" lon="-100.247938">
        <ele>472.173</ele>
        <time>2020-02-03T13:26:03Z</time>
      </trkpt>
      <trkpt lat="25.67965" lon="-100.248013">
        <ele>472.069</ele>
        <time>2020-02-03T13:26:05Z</time>
      </trkpt>
      <trkpt lat="25.679653" lon="-100.248047">
        <ele>472.596</ele>
        <time>2020-02-03T13:26:06Z</time>
      </trkpt>
      <trkpt lat="25.679654" lon="-100.24808">
        <ele>472.645</ele>
        <time>2020-02-03T13:26:07Z</time>
      </trkpt>
      <trkpt lat="25.679657" lon="-100.248111">
        <ele>471.529</ele>
        <time>2020-02-03T13:26:08Z</time>
      </trkpt>
      <trkpt lat="25.679672" lon="-100.248178">
        <ele>470.2</ele>
        <time>2020-02-03T13:26:10Z</time>
      </trkpt>
      <trkpt lat="25.679678" lon="-100.248209">
        <ele>471.114</ele>
        <time>2020-02-03T13:26:11Z</time>
      </trkpt>
      <trkpt lat="25.679689" lon="-100.24827">
        <ele>470.821</ele>
        <time>2020-02-03T13:26:14Z</time>
      </trkpt>
      <trkpt lat="25.67971" lon="-100.248319">
        <ele>469.988</ele>
        <time>2020-02-03T13:26:17Z</time>
      </trkpt>
      <trkpt lat="25.67972" lon="-100.248348">
        <ele>471.212</ele>
        <time>2020-02-03T13:26:18Z</time>
      </trkpt>
      <trkpt lat="25.67973" lon="-100.248446">
        <ele>472.281</ele>
        <time>2020-02-03T13:26:21Z</time>
      </trkpt>
      <trkpt lat="25.679722" lon="-100.248544">
        <ele>472.65</ele>
        <time>2020-02-03T13:26:24Z</time>
      </trkpt>
      <trkpt lat="25.679722" lon="-100.248609">
        <ele>472.541</ele>
        <time>2020-02-03T13:26:26Z</time>
      </trkpt>
      <trkpt lat="25.679726" lon="-100.248672">
        <ele>473.097</ele>
        <time>2020-02-03T13:26:28Z</time>
      </trkpt>
      <trkpt lat="25.679727" lon="-100.248707">
        <ele>473.339</ele>
        <time>2020-02-03T13:26:29Z</time>
      </trkpt>
      <trkpt lat="25.679728" lon="-100.248739">
        <ele>474.312</ele>
        <time>2020-02-03T13:26:30Z</time>
      </trkpt>
      <trkpt lat="25.679732" lon="-100.248802">
        <ele>472.708</ele>
        <time>2020-02-03T13:26:32Z</time>
      </trkpt>
      <trkpt lat="25.679734" lon="-100.248833">
        <ele>472.26</ele>
        <time>2020-02-03T13:26:33Z</time>
      </trkpt>
      <trkpt lat="25.679732" lon="-100.248893">
        <ele>473.222</ele>
        <time>2020-02-03T13:26:35Z</time>
      </trkpt>
      <trkpt lat="25.679722" lon="-100.248945">
        <ele>472.787</ele>
        <time>2020-02-03T13:26:37Z</time>
      </trkpt>
      <trkpt lat="25.679716" lon="-100.248972">
        <ele>472.366</ele>
        <time>2020-02-03T13:26:38Z</time>
      </trkpt>
      <trkpt lat="25.679718" lon="-100.249049">
        <ele>471.828</ele>
        <time>2020-02-03T13:26:41Z</time>
      </trkpt>
      <trkpt lat="25.679719" lon="-100.249077">
        <ele>472.216</ele>
        <time>2020-02-03T13:26:42Z</time>
      </trkpt>
      <trkpt lat="25.679719" lon="-100.249105">
        <ele>471.944</ele>
        <time>2020-02-03T13:26:43Z</time>
      </trkpt>
      <trkpt lat="25.679713" lon="-100.249159">
        <ele>473.638</ele>
        <time>2020-02-03T13:26:45Z</time>
      </trkpt>
      <trkpt lat="25.679693" lon="-100.249253">
        <ele>472.886</ele>
        <time>2020-02-03T13:26:48Z</time>
      </trkpt>
      <trkpt lat="25.679692" lon="-100.249315">
        <ele>472.886</ele>
        <time>2020-02-03T13:26:50Z</time>
      </trkpt>
      <trkpt lat="25.679697" lon="-100.249386">
        <ele>472.675</ele>
        <time>2020-02-03T13:26:52Z</time>
      </trkpt>
      <trkpt lat="25.679697" lon="-100.249422">
        <ele>473.447</ele>
        <time>2020-02-03T13:26:53Z</time>
      </trkpt>
      <trkpt lat="25.679695" lon="-100.249457">
        <ele>472.762</ele>
        <time>2020-02-03T13:26:54Z</time>
      </trkpt>
      <trkpt lat="25.679693" lon="-100.24949">
        <ele>473.334</ele>
        <time>2020-02-03T13:26:55Z</time>
      </trkpt>
      <trkpt lat="25.679691" lon="-100.249524">
        <ele>473.45</ele>
        <time>2020-02-03T13:26:56Z</time>
      </trkpt>
      <trkpt lat="25.67969" lon="-100.249556">
        <ele>474.547</ele>
        <time>2020-02-03T13:26:57Z</time>
      </trkpt>
      <trkpt lat="25.679691" lon="-100.249588">
        <ele>474.736</ele>
        <time>2020-02-03T13:26:58Z</time>
      </trkpt>
      <trkpt lat="25.679692" lon="-100.249623">
        <ele>473.716</ele>
        <time>2020-02-03T13:26:59Z</time>
      </trkpt>
      <trkpt lat="25.679692" lon="-100.249661">
        <ele>473.687</ele>
        <time>2020-02-03T13:27:00Z</time>
      </trkpt>
      <trkpt lat="25.679691" lon="-100.249697">
        <ele>474.208</ele>
        <time>2020-02-03T13:27:01Z</time>
      </trkpt>
      <trkpt lat="25.679691" lon="-100.249733">
        <ele>474.431</ele>
        <time>2020-02-03T13:27:02Z</time>
      </trkpt>
      <trkpt lat="25.679693" lon="-100.249769">
        <ele>474.987</ele>
        <time>2020-02-03T13:27:03Z</time>
      </trkpt>
      <trkpt lat="25.679695" lon="-100.249804">
        <ele>474.751</ele>
        <time>2020-02-03T13:27:04Z</time>
      </trkpt>
      <trkpt lat="25.679695" lon="-100.249838">
        <ele>474.198</ele>
        <time>2020-02-03T13:27:05Z</time>
      </trkpt>
      <trkpt lat="25.679692" lon="-100.249873">
        <ele>474.227</ele>
        <time>2020-02-03T13:27:06Z</time>
      </trkpt>
      <trkpt lat="25.679689" lon="-100.249907">
        <ele>474.327</ele>
        <time>2020-02-03T13:27:07Z</time>
      </trkpt>
      <trkpt lat="25.679683" lon="-100.249965">
        <ele>474.751</ele>
        <time>2020-02-03T13:27:09Z</time>
      </trkpt>
      <trkpt lat="25.67968" lon="-100.249992">
        <ele>472.78</ele>
        <time>2020-02-03T13:27:10Z</time>
      </trkpt>
      <trkpt lat="25.679671" lon="-100.250056">
        <ele>472.87</ele>
        <time>2020-02-03T13:27:12Z</time>
      </trkpt>
      <trkpt lat="25.679657" lon="-100.250157">
        <ele>473.724</ele>
        <time>2020-02-03T13:27:15Z</time>
      </trkpt>
      <trkpt lat="25.679664" lon="-100.250227">
        <ele>474.112</ele>
        <time>2020-02-03T13:27:17Z</time>
      </trkpt>
      <trkpt lat="25.679669" lon="-100.250292">
        <ele>474.398</ele>
        <time>2020-02-03T13:27:19Z</time>
      </trkpt>
      <trkpt lat="25.679673" lon="-100.250326">
        <ele>474.786</ele>
        <time>2020-02-03T13:27:20Z</time>
      </trkpt>
      <trkpt lat="25.679676" lon="-100.250359">
        <ele>473.573</ele>
        <time>2020-02-03T13:27:21Z</time>
      </trkpt>
      <trkpt lat="25.67968" lon="-100.250392">
        <ele>474.422</ele>
        <time>2020-02-03T13:27:22Z</time>
      </trkpt>
      <trkpt lat="25.679692" lon="-100.250457">
        <ele>474.573</ele>
        <time>2020-02-03T13:27:24Z</time>
      </trkpt>
      <trkpt lat="25.679697" lon="-100.250534">
        <ele>474.631</ele>
        <time>2020-02-03T13:27:27Z</time>
      </trkpt>
      <trkpt lat="25.67972" lon="-100.250619">
        <ele>474.765</ele>
        <time>2020-02-03T13:27:30Z</time>
      </trkpt>
      <trkpt lat="25.679703" lon="-100.250713">
        <ele>474.899</ele>
        <time>2020-02-03T13:27:33Z</time>
      </trkpt>
      <trkpt lat="25.679695" lon="-100.250747">
        <ele>473.81</ele>
        <time>2020-02-03T13:27:34Z</time>
      </trkpt>
      <trkpt lat="25.679689" lon="-100.250816">
        <ele>472.646</ele>
        <time>2020-02-03T13:27:36Z</time>
      </trkpt>
      <trkpt lat="25.679688" lon="-100.25085">
        <ele>473.423</ele>
        <time>2020-02-03T13:27:37Z</time>
      </trkpt>
      <trkpt lat="25.67968" lon="-100.25091">
        <ele>473.525</ele>
        <time>2020-02-03T13:27:39Z</time>
      </trkpt>
      <trkpt lat="25.679668" lon="-100.25097">
        <ele>472.542</ele>
        <time>2020-02-03T13:27:41Z</time>
      </trkpt>
      <trkpt lat="25.679677" lon="-100.251035">
        <ele>472.683</ele>
        <time>2020-02-03T13:27:43Z</time>
      </trkpt>
      <trkpt lat="25.679681" lon="-100.25107">
        <ele>472.104</ele>
        <time>2020-02-03T13:27:44Z</time>
      </trkpt>
      <trkpt lat="25.67968" lon="-100.251153">
        <ele>470.721</ele>
        <time>2020-02-03T13:27:47Z</time>
      </trkpt>
      <trkpt lat="25.679678" lon="-100.251211">
        <ele>471.038</ele>
        <time>2020-02-03T13:27:49Z</time>
      </trkpt>
      <trkpt lat="25.679677" lon="-100.251258">
        <ele>471.617</ele>
        <time>2020-02-03T13:27:51Z</time>
      </trkpt>
      <trkpt lat="25.679677" lon="-100.251289">
        <ele>470.227</ele>
        <time>2020-02-03T13:27:52Z</time>
      </trkpt>
      <trkpt lat="25.679677" lon="-100.25132">
        <ele>471.268</ele>
        <time>2020-02-03T13:27:53Z</time>
      </trkpt>
      <trkpt lat="25.679674" lon="-100.251383">
        <ele>471.103</ele>
        <time>2020-02-03T13:27:55Z</time>
      </trkpt>
      <trkpt lat="25.679679" lon="-100.251438">
        <ele>470.585</ele>
        <time>2020-02-03T13:27:57Z</time>
      </trkpt>
      <trkpt lat="25.679693" lon="-100.251495">
        <ele>471.034</ele>
        <time>2020-02-03T13:27:59Z</time>
      </trkpt>
      <trkpt lat="25.679696" lon="-100.251551">
        <ele>471.493</ele>
        <time>2020-02-03T13:28:01Z</time>
      </trkpt>
      <trkpt lat="25.679702" lon="-100.251597">
        <ele>471.175</ele>
        <time>2020-02-03T13:28:03Z</time>
      </trkpt>
      <trkpt lat="25.679701" lon="-100.251658">
        <ele>471.388</ele>
        <time>2020-02-03T13:28:05Z</time>
      </trkpt>
      <trkpt lat="25.679699" lon="-100.251692">
        <ele>471.807</ele>
        <time>2020-02-03T13:28:06Z</time>
      </trkpt>
      <trkpt lat="25.679696" lon="-100.251725">
        <ele>472.097</ele>
        <time>2020-02-03T13:28:07Z</time>
      </trkpt>
      <trkpt lat="25.679695" lon="-100.25176">
        <ele>471.878</ele>
        <time>2020-02-03T13:28:08Z</time>
      </trkpt>
      <trkpt lat="25.679694" lon="-100.251795">
        <ele>472.162</ele>
        <time>2020-02-03T13:28:09Z</time>
      </trkpt>
      <trkpt lat="25.679692" lon="-100.251831">
        <ele>471.62</ele>
        <time>2020-02-03T13:28:10Z</time>
      </trkpt>
      <trkpt lat="25.679692" lon="-100.251869">
        <ele>471.263</ele>
        <time>2020-02-03T13:28:11Z</time>
      </trkpt>
      <trkpt lat="25.679691" lon="-100.251908">
        <ele>471.435</ele>
        <time>2020-02-03T13:28:12Z</time>
      </trkpt>
      <trkpt lat="25.679689" lon="-100.251944">
        <ele>471.513</ele>
        <time>2020-02-03T13:28:13Z</time>
      </trkpt>
      <trkpt lat="25.679688" lon="-100.251977">
        <ele>471.293</ele>
        <time>2020-02-03T13:28:14Z</time>
      </trkpt>
      <trkpt lat="25.679688" lon="-100.252041">
        <ele>472.494</ele>
        <time>2020-02-03T13:28:16Z</time>
      </trkpt>
      <trkpt lat="25.67969" lon="-100.252072">
        <ele>472.407</ele>
        <time>2020-02-03T13:28:17Z</time>
      </trkpt>
      <trkpt lat="25.679682" lon="-100.252123">
        <ele>472.134</ele>
        <time>2020-02-03T13:28:19Z</time>
      </trkpt>
      <trkpt lat="25.679664" lon="-100.252171">
        <ele>471.818</ele>
        <time>2020-02-03T13:28:21Z</time>
      </trkpt>
      <trkpt lat="25.679655" lon="-100.252197">
        <ele>472.702</ele>
        <time>2020-02-03T13:28:22Z</time>
      </trkpt>
      <trkpt lat="25.679643" lon="-100.252249">
        <ele>472.147</ele>
        <time>2020-02-03T13:28:24Z</time>
      </trkpt>
      <trkpt lat="25.679646" lon="-100.252335">
        <ele>472.624</ele>
        <time>2020-02-03T13:28:27Z</time>
      </trkpt>
      <trkpt lat="25.679654" lon="-100.2524">
        <ele>473.1</ele>
        <time>2020-02-03T13:28:29Z</time>
      </trkpt>
      <trkpt lat="25.679657" lon="-100.252434">
        <ele>472.926</ele>
        <time>2020-02-03T13:28:30Z</time>
      </trkpt>
      <trkpt lat="25.679658" lon="-100.252468">
        <ele>472.817</ele>
        <time>2020-02-03T13:28:31Z</time>
      </trkpt>
      <trkpt lat="25.67966" lon="-100.252504">
        <ele>474.215</ele>
        <time>2020-02-03T13:28:32Z</time>
      </trkpt>
      <trkpt lat="25.679659" lon="-100.252537">
        <ele>474.005</ele>
        <time>2020-02-03T13:28:33Z</time>
      </trkpt>
      <trkpt lat="25.67966" lon="-100.252569">
        <ele>473.843</ele>
        <time>2020-02-03T13:28:34Z</time>
      </trkpt>
      <trkpt lat="25.67967" lon="-100.252626">
        <ele>472.842</ele>
        <time>2020-02-03T13:28:36Z</time>
      </trkpt>
      <trkpt lat="25.679676" lon="-100.252652">
        <ele>473.633</ele>
        <time>2020-02-03T13:28:37Z</time>
      </trkpt>
      <trkpt lat="25.679681" lon="-100.252715">
        <ele>473.38</ele>
        <time>2020-02-03T13:28:39Z</time>
      </trkpt>
      <trkpt lat="25.679672" lon="-100.252774">
        <ele>473.699</ele>
        <time>2020-02-03T13:28:41Z</time>
      </trkpt>
      <trkpt lat="25.679673" lon="-100.252835">
        <ele>473.75</ele>
        <time>2020-02-03T13:28:43Z</time>
      </trkpt>
      <trkpt lat="25.679676" lon="-100.252869">
        <ele>474.319</ele>
        <time>2020-02-03T13:28:44Z</time>
      </trkpt>
      <trkpt lat="25.679676" lon="-100.252904">
        <ele>473.422</ele>
        <time>2020-02-03T13:28:45Z</time>
      </trkpt>
      <trkpt lat="25.679676" lon="-100.252938">
        <ele>474.571</ele>
        <time>2020-02-03T13:28:46Z</time>
      </trkpt>
      <trkpt lat="25.679676" lon="-100.252973">
        <ele>474.897</ele>
        <time>2020-02-03T13:28:47Z</time>
      </trkpt>
      <trkpt lat="25.679673" lon="-100.253009">
        <ele>473.168</ele>
        <time>2020-02-03T13:28:48Z</time>
      </trkpt>
      <trkpt lat="25.67967" lon="-100.253044">
        <ele>472.104</ele>
        <time>2020-02-03T13:28:49Z</time>
      </trkpt>
      <trkpt lat="25.679668" lon="-100.253077">
        <ele>471.707</ele>
        <time>2020-02-03T13:28:50Z</time>
      </trkpt>
      <trkpt lat="25.679671" lon="-100.253138">
        <ele>471.869</ele>
        <time>2020-02-03T13:28:52Z</time>
      </trkpt>
      <trkpt lat="25.679672" lon="-100.253169">
        <ele>472.175</ele>
        <time>2020-02-03T13:28:53Z</time>
      </trkpt>
      <trkpt lat="25.679667" lon="-100.253263">
        <ele>471.847</ele>
        <time>2020-02-03T13:28:56Z</time>
      </trkpt>
      <trkpt lat="25.679667" lon="-100.253299">
        <ele>473.907</ele>
        <time>2020-02-03T13:28:57Z</time>
      </trkpt>
      <trkpt lat="25.679646" lon="-100.253392">
        <ele>474.916</ele>
        <time>2020-02-03T13:29:00Z</time>
      </trkpt>
      <trkpt lat="25.679624" lon="-100.253486">
        <ele>475.142</ele>
        <time>2020-02-03T13:29:03Z</time>
      </trkpt>
      <trkpt lat="25.679622" lon="-100.253552">
        <ele>475.147</ele>
        <time>2020-02-03T13:29:05Z</time>
      </trkpt>
      <trkpt lat="25.679625" lon="-100.253621">
        <ele>475.596</ele>
        <time>2020-02-03T13:29:07Z</time>
      </trkpt>
      <trkpt lat="25.679624" lon="-100.253657">
        <ele>475.602</ele>
        <time>2020-02-03T13:29:08Z</time>
      </trkpt>
      <trkpt lat="25.679623" lon="-100.253692">
        <ele>477.616</ele>
        <time>2020-02-03T13:29:09Z</time>
      </trkpt>
      <trkpt lat="25.679623" lon="-100.253724">
        <ele>477.685</ele>
        <time>2020-02-03T13:29:10Z</time>
      </trkpt>
      <trkpt lat="25.679621" lon="-100.253756">
        <ele>476.357</ele>
        <time>2020-02-03T13:29:11Z</time>
      </trkpt>
      <trkpt lat="25.679632" lon="-100.253839">
        <ele>476.742</ele>
        <time>2020-02-03T13:29:14Z</time>
      </trkpt>
      <trkpt lat="25.679635" lon="-100.253866">
        <ele>475.794</ele>
        <time>2020-02-03T13:29:15Z</time>
      </trkpt>
      <trkpt lat="25.679629" lon="-100.253925">
        <ele>475.146</ele>
        <time>2020-02-03T13:29:18Z</time>
      </trkpt>
      <trkpt lat="25.679633" lon="-100.253975">
        <ele>474.648</ele>
        <time>2020-02-03T13:29:20Z</time>
      </trkpt>
      <trkpt lat="25.679646" lon="-100.254042">
        <ele>474.245</ele>
        <time>2020-02-03T13:29:22Z</time>
      </trkpt>
      <trkpt lat="25.679649" lon="-100.254143">
        <ele>473.015</ele>
        <time>2020-02-03T13:29:25Z</time>
      </trkpt>
      <trkpt lat="25.679651" lon="-100.254178">
        <ele>474.204</ele>
        <time>2020-02-03T13:29:26Z</time>
      </trkpt>
      <trkpt lat="25.679659" lon="-100.254244">
        <ele>475.287</ele>
        <time>2020-02-03T13:29:28Z</time>
      </trkpt>
      <trkpt lat="25.679661" lon="-100.254275">
        <ele>474.678</ele>
        <time>2020-02-03T13:29:29Z</time>
      </trkpt>
      <trkpt lat="25.679658" lon="-100.254339">
        <ele>475.178</ele>
        <time>2020-02-03T13:29:31Z</time>
      </trkpt>
      <trkpt lat="25.679658" lon="-100.254372">
        <ele>475.282</ele>
        <time>2020-02-03T13:29:32Z</time>
      </trkpt>
      <trkpt lat="25.679646" lon="-100.25444">
        <ele>475.682</ele>
        <time>2020-02-03T13:29:35Z</time>
      </trkpt>
      <trkpt lat="25.679652" lon="-100.254522">
        <ele>475.73</ele>
        <time>2020-02-03T13:29:38Z</time>
      </trkpt>
      <trkpt lat="25.679654" lon="-100.254553">
        <ele>475.215</ele>
        <time>2020-02-03T13:29:39Z</time>
      </trkpt>
      <trkpt lat="25.679655" lon="-100.254586">
        <ele>474.406</ele>
        <time>2020-02-03T13:29:40Z</time>
      </trkpt>
      <trkpt lat="25.679657" lon="-100.254617">
        <ele>472.588</ele>
        <time>2020-02-03T13:29:41Z</time>
      </trkpt>
      <trkpt lat="25.679658" lon="-100.254648">
        <ele>472.52</ele>
        <time>2020-02-03T13:29:42Z</time>
      </trkpt>
      <trkpt lat="25.67965" lon="-100.254713">
        <ele>472.406</ele>
        <time>2020-02-03T13:29:44Z</time>
      </trkpt>
      <trkpt lat="25.679639" lon="-100.254779">
        <ele>472.247</ele>
        <time>2020-02-03T13:29:46Z</time>
      </trkpt>
      <trkpt lat="25.679634" lon="-100.254841">
        <ele>472.876</ele>
        <time>2020-02-03T13:29:48Z</time>
      </trkpt>
      <trkpt lat="25.679632" lon="-100.254873">
        <ele>472.931</ele>
        <time>2020-02-03T13:29:49Z</time>
      </trkpt>
      <trkpt lat="25.679631" lon="-100.254905">
        <ele>473.084</ele>
        <time>2020-02-03T13:29:50Z</time>
      </trkpt>
      <trkpt lat="25.679631" lon="-100.254938">
        <ele>474.771</ele>
        <time>2020-02-03T13:29:51Z</time>
      </trkpt>
      <trkpt lat="25.679631" lon="-100.254973">
        <ele>475.863</ele>
        <time>2020-02-03T13:29:52Z</time>
      </trkpt>
      <trkpt lat="25.679632" lon="-100.255007">
        <ele>475.588</ele>
        <time>2020-02-03T13:29:53Z</time>
      </trkpt>
      <trkpt lat="25.679629" lon="-100.255044">
        <ele>474.689</ele>
        <time>2020-02-03T13:29:54Z</time>
      </trkpt>
      <trkpt lat="25.67963" lon="-100.255081">
        <ele>473.612</ele>
        <time>2020-02-03T13:29:55Z</time>
      </trkpt>
      <trkpt lat="25.679639" lon="-100.255174">
        <ele>472.459</ele>
        <time>2020-02-03T13:29:58Z</time>
      </trkpt>
      <trkpt lat="25.679641" lon="-100.255199">
        <ele>472.415</ele>
        <time>2020-02-03T13:29:59Z</time>
      </trkpt>
      <trkpt lat="25.679648" lon="-100.255253">
        <ele>472.145</ele>
        <time>2020-02-03T13:30:01Z</time>
      </trkpt>
      <trkpt lat="25.67966" lon="-100.255308">
        <ele>472.213</ele>
        <time>2020-02-03T13:30:03Z</time>
      </trkpt>
      <trkpt lat="25.679666" lon="-100.255392">
        <ele>471.381</ele>
        <time>2020-02-03T13:30:06Z</time>
      </trkpt>
      <trkpt lat="25.679666" lon="-100.255421">
        <ele>471.885</ele>
        <time>2020-02-03T13:30:07Z</time>
      </trkpt>
      <trkpt lat="25.679666" lon="-100.255451">
        <ele>471.467</ele>
        <time>2020-02-03T13:30:08Z</time>
      </trkpt>
      <trkpt lat="25.679667" lon="-100.255479">
        <ele>471.249</ele>
        <time>2020-02-03T13:30:09Z</time>
      </trkpt>
      <trkpt lat="25.679669" lon="-100.255508">
        <ele>471.519</ele>
        <time>2020-02-03T13:30:10Z</time>
      </trkpt>
      <trkpt lat="25.67967" lon="-100.255539">
        <ele>471.799</ele>
        <time>2020-02-03T13:30:11Z</time>
      </trkpt>
      <trkpt lat="25.679672" lon="-100.255573">
        <ele>471.064</ele>
        <time>2020-02-03T13:30:12Z</time>
      </trkpt>
      <trkpt lat="25.679674" lon="-100.255606">
        <ele>471.807</ele>
        <time>2020-02-03T13:30:13Z</time>
      </trkpt>
      <trkpt lat="25.679674" lon="-100.25564">
        <ele>472.151</ele>
        <time>2020-02-03T13:30:14Z</time>
      </trkpt>
      <trkpt lat="25.679665" lon="-100.255738">
        <ele>472.236</ele>
        <time>2020-02-03T13:30:17Z</time>
      </trkpt>
      <trkpt lat="25.679651" lon="-100.255834">
        <ele>473.815</ele>
        <time>2020-02-03T13:30:20Z</time>
      </trkpt>
      <trkpt lat="25.679648" lon="-100.255894">
        <ele>473.349</ele>
        <time>2020-02-03T13:30:22Z</time>
      </trkpt>
      <trkpt lat="25.679648" lon="-100.255925">
        <ele>473.565</ele>
        <time>2020-02-03T13:30:23Z</time>
      </trkpt>
      <trkpt lat="25.679648" lon="-100.255988">
        <ele>472.442</ele>
        <time>2020-02-03T13:30:25Z</time>
      </trkpt>
      <trkpt lat="25.679647" lon="-100.256033">
        <ele>472.114</ele>
        <time>2020-02-03T13:30:27Z</time>
      </trkpt>
      <trkpt lat="25.679639" lon="-100.256087">
        <ele>470.363</ele>
        <time>2020-02-03T13:30:29Z</time>
      </trkpt>
      <trkpt lat="25.679644" lon="-100.256143">
        <ele>470.281</ele>
        <time>2020-02-03T13:30:31Z</time>
      </trkpt>
      <trkpt lat="25.679653" lon="-100.256208">
        <ele>470.04</ele>
        <time>2020-02-03T13:30:34Z</time>
      </trkpt>
      <trkpt lat="25.679653" lon="-100.256265">
        <ele>470.305</ele>
        <time>2020-02-03T13:30:36Z</time>
      </trkpt>
      <trkpt lat="25.679653" lon="-100.256292">
        <ele>469.255</ele>
        <time>2020-02-03T13:30:37Z</time>
      </trkpt>
      <trkpt lat="25.679654" lon="-100.256319">
        <ele>470.832</ele>
        <time>2020-02-03T13:30:38Z</time>
      </trkpt>
      <trkpt lat="25.679656" lon="-100.256344">
        <ele>470.743</ele>
        <time>2020-02-03T13:30:39Z</time>
      </trkpt>
      <trkpt lat="25.679659" lon="-100.256383">
        <ele>470.767</ele>
        <time>2020-02-03T13:30:41Z</time>
      </trkpt>
      <trkpt lat="25.679659" lon="-100.256438">
        <ele>470.805</ele>
        <time>2020-02-03T13:30:43Z</time>
      </trkpt>
      <trkpt lat="25.679657" lon="-100.2565">
        <ele>471.132</ele>
        <time>2020-02-03T13:30:45Z</time>
      </trkpt>
      <trkpt lat="25.679657" lon="-100.25653">
        <ele>471.101</ele>
        <time>2020-02-03T13:30:46Z</time>
      </trkpt>
      <trkpt lat="25.679653" lon="-100.256587">
        <ele>469.891</ele>
        <time>2020-02-03T13:30:48Z</time>
      </trkpt>
      <trkpt lat="25.679639" lon="-100.256668">
        <ele>468.978</ele>
        <time>2020-02-03T13:30:51Z</time>
      </trkpt>
      <trkpt lat="25.679635" lon="-100.256695">
        <ele>470.027</ele>
        <time>2020-02-03T13:30:52Z</time>
      </trkpt>
      <trkpt lat="25.679628" lon="-100.256734">
        <ele>471.915</ele>
        <time>2020-02-03T13:30:54Z</time>
      </trkpt>
      <trkpt lat="25.679619" lon="-100.256814">
        <ele>472.148</ele>
        <time>2020-02-03T13:30:57Z</time>
      </trkpt>
      <trkpt lat="25.679617" lon="-100.256846">
        <ele>472.931</ele>
        <time>2020-02-03T13:30:58Z</time>
      </trkpt>
      <trkpt lat="25.67962" lon="-100.256918">
        <ele>473.981</ele>
        <time>2020-02-03T13:31:00Z</time>
      </trkpt>
      <trkpt lat="25.679624" lon="-100.256955">
        <ele>475.063</ele>
        <time>2020-02-03T13:31:01Z</time>
      </trkpt>
      <trkpt lat="25.679629" lon="-100.256993">
        <ele>474.512</ele>
        <time>2020-02-03T13:31:02Z</time>
      </trkpt>
      <trkpt lat="25.679633" lon="-100.257092">
        <ele>475.737</ele>
        <time>2020-02-03T13:31:05Z</time>
      </trkpt>
      <trkpt lat="25.679621" lon="-100.257154">
        <ele>476.457</ele>
        <time>2020-02-03T13:31:07Z</time>
      </trkpt>
      <trkpt lat="25.679614" lon="-100.257184">
        <ele>476.283</ele>
        <time>2020-02-03T13:31:08Z</time>
      </trkpt>
      <trkpt lat="25.679609" lon="-100.257215">
        <ele>477.666</ele>
        <time>2020-02-03T13:31:09Z</time>
      </trkpt>
      <trkpt lat="25.679605" lon="-100.257269">
        <ele>477.353</ele>
        <time>2020-02-03T13:31:11Z</time>
      </trkpt>
      <trkpt lat="25.679603" lon="-100.257305">
        <ele>477.059</ele>
        <time>2020-02-03T13:31:13Z</time>
      </trkpt>
      <trkpt lat="25.679599" lon="-100.25733">
        <ele>476.73</ele>
        <time>2020-02-03T13:31:14Z</time>
      </trkpt>
      <trkpt lat="25.679596" lon="-100.257361">
        <ele>476.416</ele>
        <time>2020-02-03T13:31:15Z</time>
      </trkpt>
      <trkpt lat="25.679595" lon="-100.257392">
        <ele>476.073</ele>
        <time>2020-02-03T13:31:16Z</time>
      </trkpt>
      <trkpt lat="25.679594" lon="-100.257422">
        <ele>476.997</ele>
        <time>2020-02-03T13:31:17Z</time>
      </trkpt>
      <trkpt lat="25.679595" lon="-100.257454">
        <ele>475.791</ele>
        <time>2020-02-03T13:31:18Z</time>
      </trkpt>
      <trkpt lat="25.679597" lon="-100.257485">
        <ele>474.638</ele>
        <time>2020-02-03T13:31:19Z</time>
      </trkpt>
      <trkpt lat="25.679598" lon="-100.257516">
        <ele>473.952</ele>
        <time>2020-02-03T13:31:20Z</time>
      </trkpt>
      <trkpt lat="25.679601" lon="-100.257544">
        <ele>475.169</ele>
        <time>2020-02-03T13:31:21Z</time>
      </trkpt>
      <trkpt lat="25.679607" lon="-100.257587">
        <ele>476.294</ele>
        <time>2020-02-03T13:31:23Z</time>
      </trkpt>
      <trkpt lat="25.679606" lon="-100.25764">
        <ele>476.249</ele>
        <time>2020-02-03T13:31:25Z</time>
      </trkpt>
      <trkpt lat="25.679602" lon="-100.257699">
        <ele>476.265</ele>
        <time>2020-02-03T13:31:27Z</time>
      </trkpt>
      <trkpt lat="25.679601" lon="-100.257731">
        <ele>476.605</ele>
        <time>2020-02-03T13:31:28Z</time>
      </trkpt>
      <trkpt lat="25.679601" lon="-100.257762">
        <ele>475.957</ele>
        <time>2020-02-03T13:31:29Z</time>
      </trkpt>
      <trkpt lat="25.679601" lon="-100.257792">
        <ele>476.242</ele>
        <time>2020-02-03T13:31:30Z</time>
      </trkpt>
      <trkpt lat="25.679602" lon="-100.257822">
        <ele>475.861</ele>
        <time>2020-02-03T13:31:31Z</time>
      </trkpt>
      <trkpt lat="25.679602" lon="-100.25785">
        <ele>476.695</ele>
        <time>2020-02-03T13:31:32Z</time>
      </trkpt>
      <trkpt lat="25.679602" lon="-100.257877">
        <ele>476.576</ele>
        <time>2020-02-03T13:31:33Z</time>
      </trkpt>
      <trkpt lat="25.679603" lon="-100.257902">
        <ele>477.357</ele>
        <time>2020-02-03T13:31:34Z</time>
      </trkpt>
      <trkpt lat="25.679604" lon="-100.257927">
        <ele>476.678</ele>
        <time>2020-02-03T13:31:35Z</time>
      </trkpt>
      <trkpt lat="25.679604" lon="-100.257952">
        <ele>477.045</ele>
        <time>2020-02-03T13:31:36Z</time>
      </trkpt>
      <trkpt lat="25.679595" lon="-100.258009">
        <ele>476.878</ele>
        <time>2020-02-03T13:31:38Z</time>
      </trkpt>
      <trkpt lat="25.679592" lon="-100.25804">
        <ele>475.926</ele>
        <time>2020-02-03T13:31:39Z</time>
      </trkpt>
      <trkpt lat="25.679599" lon="-100.258126">
        <ele>475.832</ele>
        <time>2020-02-03T13:31:42Z</time>
      </trkpt>
      <trkpt lat="25.6796" lon="-100.258153">
        <ele>475.643</ele>
        <time>2020-02-03T13:31:43Z</time>
      </trkpt>
      <trkpt lat="25.6796" lon="-100.25818">
        <ele>475.962</ele>
        <time>2020-02-03T13:31:44Z</time>
      </trkpt>
      <trkpt lat="25.679598" lon="-100.258207">
        <ele>476.356</ele>
        <time>2020-02-03T13:31:45Z</time>
      </trkpt>
      <trkpt lat="25.679596" lon="-100.258235">
        <ele>476.151</ele>
        <time>2020-02-03T13:31:46Z</time>
      </trkpt>
      <trkpt lat="25.679593" lon="-100.258263">
        <ele>475.9</ele>
        <time>2020-02-03T13:31:47Z</time>
      </trkpt>
      <trkpt lat="25.679589" lon="-100.258291">
        <ele>476.722</ele>
        <time>2020-02-03T13:31:48Z</time>
      </trkpt>
      <trkpt lat="25.679592" lon="-100.258346">
        <ele>476.964</ele>
        <time>2020-02-03T13:31:50Z</time>
      </trkpt>
      <trkpt lat="25.679594" lon="-100.258374">
        <ele>477.427</ele>
        <time>2020-02-03T13:31:51Z</time>
      </trkpt>
      <trkpt lat="25.679596" lon="-100.258401">
        <ele>477.636</ele>
        <time>2020-02-03T13:31:52Z</time>
      </trkpt>
      <trkpt lat="25.679598" lon="-100.258429">
        <ele>478.439</ele>
        <time>2020-02-03T13:31:53Z</time>
      </trkpt>
      <trkpt lat="25.679598" lon="-100.258456">
        <ele>478.304</ele>
        <time>2020-02-03T13:31:54Z</time>
      </trkpt>
      <trkpt lat="25.679598" lon="-100.258483">
        <ele>478.744</ele>
        <time>2020-02-03T13:31:55Z</time>
      </trkpt>
      <trkpt lat="25.679597" lon="-100.258513">
        <ele>478.819</ele>
        <time>2020-02-03T13:31:56Z</time>
      </trkpt>
      <trkpt lat="25.679596" lon="-100.258542">
        <ele>479.15</ele>
        <time>2020-02-03T13:31:57Z</time>
      </trkpt>
      <trkpt lat="25.679594" lon="-100.258571">
        <ele>479.205</ele>
        <time>2020-02-03T13:31:58Z</time>
      </trkpt>
      <trkpt lat="25.679594" lon="-100.258602">
        <ele>478.355</ele>
        <time>2020-02-03T13:31:59Z</time>
      </trkpt>
      <trkpt lat="25.679591" lon="-100.258634">
        <ele>479.142</ele>
        <time>2020-02-03T13:32:00Z</time>
      </trkpt>
      <trkpt lat="25.679588" lon="-100.258666">
        <ele>478.218</ele>
        <time>2020-02-03T13:32:01Z</time>
      </trkpt>
      <trkpt lat="25.679589" lon="-100.258725">
        <ele>477.641</ele>
        <time>2020-02-03T13:32:03Z</time>
      </trkpt>
      <trkpt lat="25.679591" lon="-100.258756">
        <ele>478.103</ele>
        <time>2020-02-03T13:32:04Z</time>
      </trkpt>
      <trkpt lat="25.679589" lon="-100.258816">
        <ele>477.415</ele>
        <time>2020-02-03T13:32:06Z</time>
      </trkpt>
      <trkpt lat="25.679588" lon="-100.258846">
        <ele>478.376</ele>
        <time>2020-02-03T13:32:07Z</time>
      </trkpt>
      <trkpt lat="25.679586" lon="-100.258878">
        <ele>478.938</ele>
        <time>2020-02-03T13:32:08Z</time>
      </trkpt>
      <trkpt lat="25.679593" lon="-100.258936">
        <ele>477.6</ele>
        <time>2020-02-03T13:32:10Z</time>
      </trkpt>
      <trkpt lat="25.679592" lon="-100.258994">
        <ele>477.209</ele>
        <time>2020-02-03T13:32:12Z</time>
      </trkpt>
      <trkpt lat="25.679594" lon="-100.259026">
        <ele>477.28</ele>
        <time>2020-02-03T13:32:13Z</time>
      </trkpt>
      <trkpt lat="25.679593" lon="-100.259085">
        <ele>477.804</ele>
        <time>2020-02-03T13:32:15Z</time>
      </trkpt>
      <trkpt lat="25.679594" lon="-100.259113">
        <ele>477.529</ele>
        <time>2020-02-03T13:32:16Z</time>
      </trkpt>
      <trkpt lat="25.679596" lon="-100.259143">
        <ele>477.029</ele>
        <time>2020-02-03T13:32:17Z</time>
      </trkpt>
      <trkpt lat="25.679597" lon="-100.259171">
        <ele>475.772</ele>
        <time>2020-02-03T13:32:18Z</time>
      </trkpt>
      <trkpt lat="25.679597" lon="-100.259198">
        <ele>476.01</ele>
        <time>2020-02-03T13:32:19Z</time>
      </trkpt>
      <trkpt lat="25.679589" lon="-100.259221">
        <ele>475.761</ele>
        <time>2020-02-03T13:32:25Z</time>
      </trkpt>
      <trkpt lat="25.679607" lon="-100.259271">
        <ele>475.35</ele>
        <time>2020-02-03T13:33:02Z</time>
      </trkpt>
      <trkpt lat="25.679621" lon="-100.259347">
        <ele>475.46</ele>
        <time>2020-02-03T13:33:05Z</time>
      </trkpt>
      <trkpt lat="25.679626" lon="-100.259378">
        <ele>474.538</ele>
        <time>2020-02-03T13:33:06Z</time>
      </trkpt>
      <trkpt lat="25.679629" lon="-100.259406">
        <ele>474.129</ele>
        <time>2020-02-03T13:33:07Z</time>
      </trkpt>
      <trkpt lat="25.679627" lon="-100.259462">
        <ele>473.92</ele>
        <time>2020-02-03T13:33:09Z</time>
      </trkpt>
      <trkpt lat="25.679626" lon="-100.259491">
        <ele>474.383</ele>
        <time>2020-02-03T13:33:10Z</time>
      </trkpt>
      <trkpt lat="25.679619" lon="-100.259576">
        <ele>473.902</ele>
        <time>2020-02-03T13:33:13Z</time>
      </trkpt>
      <trkpt lat="25.679615" lon="-100.259607">
        <ele>474.388</ele>
        <time>2020-02-03T13:33:14Z</time>
      </trkpt>
      <trkpt lat="25.67961" lon="-100.259637">
        <ele>474.517</ele>
        <time>2020-02-03T13:33:15Z</time>
      </trkpt>
      <trkpt lat="25.679604" lon="-100.259668">
        <ele>474.701</ele>
        <time>2020-02-03T13:33:16Z</time>
      </trkpt>
      <trkpt lat="25.679599" lon="-100.2597">
        <ele>475.49</ele>
        <time>2020-02-03T13:33:17Z</time>
      </trkpt>
      <trkpt lat="25.679596" lon="-100.259734">
        <ele>476.066</ele>
        <time>2020-02-03T13:33:18Z</time>
      </trkpt>
      <trkpt lat="25.679591" lon="-100.259771">
        <ele>477.429</ele>
        <time>2020-02-03T13:33:19Z</time>
      </trkpt>
      <trkpt lat="25.679576" lon="-100.259849">
        <ele>478.98</ele>
        <time>2020-02-03T13:33:21Z</time>
      </trkpt>
      <trkpt lat="25.679566" lon="-100.25989">
        <ele>479.287</ele>
        <time>2020-02-03T13:33:22Z</time>
      </trkpt>
      <trkpt lat="25.679557" lon="-100.259969">
        <ele>479.072</ele>
        <time>2020-02-03T13:33:24Z</time>
      </trkpt>
      <trkpt lat="25.679554" lon="-100.260006">
        <ele>478.939</ele>
        <time>2020-02-03T13:33:25Z</time>
      </trkpt>
      <trkpt lat="25.67955" lon="-100.260041">
        <ele>479.53</ele>
        <time>2020-02-03T13:33:26Z</time>
      </trkpt>
      <trkpt lat="25.679531" lon="-100.260102">
        <ele>480.254</ele>
        <time>2020-02-03T13:33:28Z</time>
      </trkpt>
      <trkpt lat="25.67952" lon="-100.260132">
        <ele>479.543</ele>
        <time>2020-02-03T13:33:29Z</time>
      </trkpt>
      <trkpt lat="25.679508" lon="-100.260162">
        <ele>481.017</ele>
        <time>2020-02-03T13:33:30Z</time>
      </trkpt>
      <trkpt lat="25.679498" lon="-100.260219">
        <ele>481.359</ele>
        <time>2020-02-03T13:33:32Z</time>
      </trkpt>
      <trkpt lat="25.679494" lon="-100.260275">
        <ele>482.538</ele>
        <time>2020-02-03T13:33:34Z</time>
      </trkpt>
      <trkpt lat="25.679489" lon="-100.260302">
        <ele>482.348</ele>
        <time>2020-02-03T13:33:35Z</time>
      </trkpt>
      <trkpt lat="25.679483" lon="-100.260359">
        <ele>482.413</ele>
        <time>2020-02-03T13:33:37Z</time>
      </trkpt>
      <trkpt lat="25.67947" lon="-100.26042">
        <ele>483.06</ele>
        <time>2020-02-03T13:33:39Z</time>
      </trkpt>
      <trkpt lat="25.679455" lon="-100.260482">
        <ele>482.905</ele>
        <time>2020-02-03T13:33:41Z</time>
      </trkpt>
      <trkpt lat="25.679447" lon="-100.260514">
        <ele>482.357</ele>
        <time>2020-02-03T13:33:42Z</time>
      </trkpt>
      <trkpt lat="25.679438" lon="-100.260545">
        <ele>483.31</ele>
        <time>2020-02-03T13:33:43Z</time>
      </trkpt>
      <trkpt lat="25.679427" lon="-100.260575">
        <ele>482.938</ele>
        <time>2020-02-03T13:33:44Z</time>
      </trkpt>
      <trkpt lat="25.679416" lon="-100.260605">
        <ele>482.807</ele>
        <time>2020-02-03T13:33:45Z</time>
      </trkpt>
      <trkpt lat="25.679405" lon="-100.260636">
        <ele>481.201</ele>
        <time>2020-02-03T13:33:46Z</time>
      </trkpt>
      <trkpt lat="25.679397" lon="-100.260669">
        <ele>481.201</ele>
        <time>2020-02-03T13:33:47Z</time>
      </trkpt>
      <trkpt lat="25.67939" lon="-100.260776">
        <ele>481.201</ele>
        <time>2020-02-03T13:33:50Z</time>
      </trkpt>
      <trkpt lat="25.679378" lon="-100.260827">
        <ele>480.144</ele>
        <time>2020-02-03T13:33:52Z</time>
      </trkpt>
      <trkpt lat="25.679378" lon="-100.260827">
        <ele>478.415</ele>
        <time>2020-02-03T13:33:58Z</time>
      </trkpt>
      <trkpt lat="25.679378" lon="-100.260827">
        <ele>477.448</ele>
        <time>2020-02-03T13:33:59Z</time>
      </trkpt>
      <trkpt lat="25.679372" lon="-100.260924">
        <ele>477.889</ele>
        <time>2020-02-03T13:34:17Z</time>
      </trkpt>
      <trkpt lat="25.679366" lon="-100.260973">
        <ele>476.551</ele>
        <time>2020-02-03T13:34:19Z</time>
      </trkpt>
      <trkpt lat="25.67935" lon="-100.261037">
        <ele>476.986</ele>
        <time>2020-02-03T13:34:21Z</time>
      </trkpt>
      <trkpt lat="25.679342" lon="-100.261073">
        <ele>477.598</ele>
        <time>2020-02-03T13:34:22Z</time>
      </trkpt>
      <trkpt lat="25.67934" lon="-100.261147">
        <ele>479.292</ele>
        <time>2020-02-03T13:34:24Z</time>
      </trkpt>
      <trkpt lat="25.679347" lon="-100.261225">
        <ele>479.549</ele>
        <time>2020-02-03T13:34:26Z</time>
      </trkpt>
      <trkpt lat="25.67935" lon="-100.261267">
        <ele>478.46</ele>
        <time>2020-02-03T13:34:27Z</time>
      </trkpt>
      <trkpt lat="25.679358" lon="-100.26135">
        <ele>479.79</ele>
        <time>2020-02-03T13:34:29Z</time>
      </trkpt>
      <trkpt lat="25.679351" lon="-100.261433">
        <ele>479.591</ele>
        <time>2020-02-03T13:34:31Z</time>
      </trkpt>
      <trkpt lat="25.679333" lon="-100.261514">
        <ele>479.051</ele>
        <time>2020-02-03T13:34:33Z</time>
      </trkpt>
      <trkpt lat="25.679327" lon="-100.261553">
        <ele>479.538</ele>
        <time>2020-02-03T13:34:34Z</time>
      </trkpt>
      <trkpt lat="25.679322" lon="-100.26159">
        <ele>480.46</ele>
        <time>2020-02-03T13:34:35Z</time>
      </trkpt>
      <trkpt lat="25.679319" lon="-100.261628">
        <ele>481.008</ele>
        <time>2020-02-03T13:34:36Z</time>
      </trkpt>
      <trkpt lat="25.67932" lon="-100.261701">
        <ele>481.266</ele>
        <time>2020-02-03T13:34:38Z</time>
      </trkpt>
      <trkpt lat="25.679321" lon="-100.261739">
        <ele>481.315</ele>
        <time>2020-02-03T13:34:39Z</time>
      </trkpt>
      <trkpt lat="25.679316" lon="-100.261816">
        <ele>481.604</ele>
        <time>2020-02-03T13:34:41Z</time>
      </trkpt>
      <trkpt lat="25.679315" lon="-100.261853">
        <ele>481.615</ele>
        <time>2020-02-03T13:34:42Z</time>
      </trkpt>
      <trkpt lat="25.67932" lon="-100.261924">
        <ele>482.534</ele>
        <time>2020-02-03T13:34:44Z</time>
      </trkpt>
      <trkpt lat="25.679322" lon="-100.261959">
        <ele>483.148</ele>
        <time>2020-02-03T13:34:45Z</time>
      </trkpt>
      <trkpt lat="25.679323" lon="-100.261991">
        <ele>483.544</ele>
        <time>2020-02-03T13:34:46Z</time>
      </trkpt>
      <trkpt lat="25.679317" lon="-100.262054">
        <ele>481.701</ele>
        <time>2020-02-03T13:34:48Z</time>
      </trkpt>
      <trkpt lat="25.679312" lon="-100.262087">
        <ele>482.195</ele>
        <time>2020-02-03T13:34:49Z</time>
      </trkpt>
      <trkpt lat="25.679312" lon="-100.262177">
        <ele>482.845</ele>
        <time>2020-02-03T13:34:52Z</time>
      </trkpt>
      <trkpt lat="25.679305" lon="-100.262241">
        <ele>483.398</ele>
        <time>2020-02-03T13:34:55Z</time>
      </trkpt>
      <trkpt lat="25.679308" lon="-100.262298">
        <ele>483.074</ele>
        <time>2020-02-03T13:34:57Z</time>
      </trkpt>
      <trkpt lat="25.679322" lon="-100.262358">
        <ele>484.247</ele>
        <time>2020-02-03T13:34:59Z</time>
      </trkpt>
      <trkpt lat="25.679341" lon="-100.262418">
        <ele>484.409</ele>
        <time>2020-02-03T13:35:01Z</time>
      </trkpt>
      <trkpt lat="25.679351" lon="-100.262449">
        <ele>484.475</ele>
        <time>2020-02-03T13:35:02Z</time>
      </trkpt>
      <trkpt lat="25.679365" lon="-100.262517">
        <ele>484.449</ele>
        <time>2020-02-03T13:35:04Z</time>
      </trkpt>
      <trkpt lat="25.67937" lon="-100.262583">
        <ele>485.119</ele>
        <time>2020-02-03T13:35:06Z</time>
      </trkpt>
      <trkpt lat="25.679372" lon="-100.262619">
        <ele>485.019</ele>
        <time>2020-02-03T13:35:07Z</time>
      </trkpt>
      <trkpt lat="25.679385" lon="-100.262694">
        <ele>483.516</ele>
        <time>2020-02-03T13:35:09Z</time>
      </trkpt>
      <trkpt lat="25.679391" lon="-100.262723">
        <ele>483.449</ele>
        <time>2020-02-03T13:35:10Z</time>
      </trkpt>
      <trkpt lat="25.679395" lon="-100.262751">
        <ele>483.857</ele>
        <time>2020-02-03T13:35:11Z</time>
      </trkpt>
      <trkpt lat="25.679405" lon="-100.262811">
        <ele>483.129</ele>
        <time>2020-02-03T13:35:13Z</time>
      </trkpt>
      <trkpt lat="25.679413" lon="-100.262843">
        <ele>482.703</ele>
        <time>2020-02-03T13:35:14Z</time>
      </trkpt>
      <trkpt lat="25.67942" lon="-100.262873">
        <ele>482.281</ele>
        <time>2020-02-03T13:35:15Z</time>
      </trkpt>
      <trkpt lat="25.679427" lon="-100.262902">
        <ele>482.522</ele>
        <time>2020-02-03T13:35:16Z</time>
      </trkpt>
      <trkpt lat="25.679434" lon="-100.262983">
        <ele>482.434</ele>
        <time>2020-02-03T13:35:19Z</time>
      </trkpt>
      <trkpt lat="25.679431" lon="-100.263048">
        <ele>482.742</ele>
        <time>2020-02-03T13:35:21Z</time>
      </trkpt>
      <trkpt lat="25.679429" lon="-100.263099">
        <ele>481.748</ele>
        <time>2020-02-03T13:35:23Z</time>
      </trkpt>
      <trkpt lat="25.679443" lon="-100.263186">
        <ele>482.839</ele>
        <time>2020-02-03T13:35:26Z</time>
      </trkpt>
      <trkpt lat="25.679447" lon="-100.263214">
        <ele>481.432</ele>
        <time>2020-02-03T13:35:27Z</time>
      </trkpt>
      <trkpt lat="25.679453" lon="-100.263274">
        <ele>481.546</ele>
        <time>2020-02-03T13:35:29Z</time>
      </trkpt>
      <trkpt lat="25.679454" lon="-100.263309">
        <ele>480.345</ele>
        <time>2020-02-03T13:35:30Z</time>
      </trkpt>
      <trkpt lat="25.679466" lon="-100.263371">
        <ele>480.179</ele>
        <time>2020-02-03T13:35:32Z</time>
      </trkpt>
      <trkpt lat="25.679482" lon="-100.263428">
        <ele>479.613</ele>
        <time>2020-02-03T13:35:34Z</time>
      </trkpt>
      <trkpt lat="25.67949" lon="-100.263486">
        <ele>480.928</ele>
        <time>2020-02-03T13:35:36Z</time>
      </trkpt>
      <trkpt lat="25.679494" lon="-100.263515">
        <ele>480.338</ele>
        <time>2020-02-03T13:35:37Z</time>
      </trkpt>
      <trkpt lat="25.6795" lon="-100.263548">
        <ele>480.446</ele>
        <time>2020-02-03T13:35:38Z</time>
      </trkpt>
      <trkpt lat="25.679508" lon="-100.263622">
        <ele>480.678</ele>
        <time>2020-02-03T13:35:40Z</time>
      </trkpt>
      <trkpt lat="25.679515" lon="-100.263682">
        <ele>479.21</ele>
        <time>2020-02-03T13:35:42Z</time>
      </trkpt>
      <trkpt lat="25.679519" lon="-100.26371">
        <ele>476.362</ele>
        <time>2020-02-03T13:35:43Z</time>
      </trkpt>
      <trkpt lat="25.679522" lon="-100.263735">
        <ele>477.241</ele>
        <time>2020-02-03T13:35:44Z</time>
      </trkpt>
      <trkpt lat="25.679519" lon="-100.263785">
        <ele>477.609</ele>
        <time>2020-02-03T13:35:47Z</time>
      </trkpt>
      <trkpt lat="25.679572" lon="-100.263906">
        <ele>477.89</ele>
        <time>2020-02-03T13:35:51Z</time>
      </trkpt>
      <trkpt lat="25.679589" lon="-100.264019">
        <ele>478.529</ele>
        <time>2020-02-03T13:35:54Z</time>
      </trkpt>
      <trkpt lat="25.679594" lon="-100.264056">
        <ele>479.242</ele>
        <time>2020-02-03T13:35:55Z</time>
      </trkpt>
      <trkpt lat="25.679597" lon="-100.264121">
        <ele>478.348</ele>
        <time>2020-02-03T13:35:57Z</time>
      </trkpt>
      <trkpt lat="25.679598" lon="-100.264153">
        <ele>477.695</ele>
        <time>2020-02-03T13:35:58Z</time>
      </trkpt>
      <trkpt lat="25.6796" lon="-100.26419">
        <ele>478.25</ele>
        <time>2020-02-03T13:35:59Z</time>
      </trkpt>
      <trkpt lat="25.6796" lon="-100.264226">
        <ele>477.859</ele>
        <time>2020-02-03T13:36:00Z</time>
      </trkpt>
      <trkpt lat="25.679602" lon="-100.264259">
        <ele>478.507</ele>
        <time>2020-02-03T13:36:01Z</time>
      </trkpt>
      <trkpt lat="25.679604" lon="-100.264293">
        <ele>479.006</ele>
        <time>2020-02-03T13:36:02Z</time>
      </trkpt>
      <trkpt lat="25.679607" lon="-100.264325">
        <ele>478.776</ele>
        <time>2020-02-03T13:36:03Z</time>
      </trkpt>
      <trkpt lat="25.679612" lon="-100.264358">
        <ele>479.419</ele>
        <time>2020-02-03T13:36:04Z</time>
      </trkpt>
      <trkpt lat="25.679615" lon="-100.264389">
        <ele>479.31</ele>
        <time>2020-02-03T13:36:05Z</time>
      </trkpt>
      <trkpt lat="25.67962" lon="-100.26445">
        <ele>478.926</ele>
        <time>2020-02-03T13:36:07Z</time>
      </trkpt>
      <trkpt lat="25.679628" lon="-100.26454">
        <ele>478.852</ele>
        <time>2020-02-03T13:36:10Z</time>
      </trkpt>
      <trkpt lat="25.679633" lon="-100.264575">
        <ele>479.564</ele>
        <time>2020-02-03T13:36:11Z</time>
      </trkpt>
      <trkpt lat="25.679636" lon="-100.264601">
        <ele>479.417</ele>
        <time>2020-02-03T13:36:12Z</time>
      </trkpt>
      <trkpt lat="25.679635" lon="-100.264671">
        <ele>479.296</ele>
        <time>2020-02-03T13:36:15Z</time>
      </trkpt>
      <trkpt lat="25.679637" lon="-100.264705">
        <ele>479.187</ele>
        <time>2020-02-03T13:36:16Z</time>
      </trkpt>
      <trkpt lat="25.679644" lon="-100.264772">
        <ele>478.749</ele>
        <time>2020-02-03T13:36:18Z</time>
      </trkpt>
      <trkpt lat="25.679641" lon="-100.264843">
        <ele>478.801</ele>
        <time>2020-02-03T13:36:20Z</time>
      </trkpt>
      <trkpt lat="25.679632" lon="-100.264914">
        <ele>479.563</ele>
        <time>2020-02-03T13:36:22Z</time>
      </trkpt>
      <trkpt lat="25.679626" lon="-100.264951">
        <ele>478.87</ele>
        <time>2020-02-03T13:36:23Z</time>
      </trkpt>
      <trkpt lat="25.679622" lon="-100.264988">
        <ele>479.289</ele>
        <time>2020-02-03T13:36:24Z</time>
      </trkpt>
      <trkpt lat="25.679616" lon="-100.265024">
        <ele>478.357</ele>
        <time>2020-02-03T13:36:25Z</time>
      </trkpt>
      <trkpt lat="25.67961" lon="-100.265059">
        <ele>479.093</ele>
        <time>2020-02-03T13:36:26Z</time>
      </trkpt>
      <trkpt lat="25.679606" lon="-100.265094">
        <ele>479.757</ele>
        <time>2020-02-03T13:36:27Z</time>
      </trkpt>
      <trkpt lat="25.679615" lon="-100.265172">
        <ele>479.475</ele>
        <time>2020-02-03T13:36:30Z</time>
      </trkpt>
      <trkpt lat="25.679619" lon="-100.265206">
        <ele>481.032</ele>
        <time>2020-02-03T13:36:31Z</time>
      </trkpt>
      <trkpt lat="25.679622" lon="-100.265241">
        <ele>481.511</ele>
        <time>2020-02-03T13:36:32Z</time>
      </trkpt>
      <trkpt lat="25.679624" lon="-100.265274">
        <ele>481.977</ele>
        <time>2020-02-03T13:36:33Z</time>
      </trkpt>
      <trkpt lat="25.679626" lon="-100.265337">
        <ele>481.307</ele>
        <time>2020-02-03T13:36:35Z</time>
      </trkpt>
      <trkpt lat="25.679625" lon="-100.265368">
        <ele>481.086</ele>
        <time>2020-02-03T13:36:36Z</time>
      </trkpt>
      <trkpt lat="25.679608" lon="-100.265452">
        <ele>481.324</ele>
        <time>2020-02-03T13:36:39Z</time>
      </trkpt>
      <trkpt lat="25.679601" lon="-100.265481">
        <ele>481.47</ele>
        <time>2020-02-03T13:36:40Z</time>
      </trkpt>
      <trkpt lat="25.679593" lon="-100.26551">
        <ele>482.154</ele>
        <time>2020-02-03T13:36:41Z</time>
      </trkpt>
      <trkpt lat="25.679584" lon="-100.265539">
        <ele>482.486</ele>
        <time>2020-02-03T13:36:42Z</time>
      </trkpt>
      <trkpt lat="25.679578" lon="-100.265569">
        <ele>482.284</ele>
        <time>2020-02-03T13:36:43Z</time>
      </trkpt>
      <trkpt lat="25.679568" lon="-100.265659">
        <ele>481.767</ele>
        <time>2020-02-03T13:36:46Z</time>
      </trkpt>
      <trkpt lat="25.679563" lon="-100.265689">
        <ele>482.177</ele>
        <time>2020-02-03T13:36:47Z</time>
      </trkpt>
      <trkpt lat="25.679558" lon="-100.265722">
        <ele>483.157</ele>
        <time>2020-02-03T13:36:48Z</time>
      </trkpt>
      <trkpt lat="25.679551" lon="-100.265791">
        <ele>483.357</ele>
        <time>2020-02-03T13:36:50Z</time>
      </trkpt>
      <trkpt lat="25.679548" lon="-100.265825">
        <ele>483.195</ele>
        <time>2020-02-03T13:36:51Z</time>
      </trkpt>
      <trkpt lat="25.679538" lon="-100.265895">
        <ele>482.096</ele>
        <time>2020-02-03T13:36:53Z</time>
      </trkpt>
      <trkpt lat="25.679533" lon="-100.265931">
        <ele>482.235</ele>
        <time>2020-02-03T13:36:54Z</time>
      </trkpt>
      <trkpt lat="25.67953" lon="-100.26596">
        <ele>482.403</ele>
        <time>2020-02-03T13:36:55Z</time>
      </trkpt>
      <trkpt lat="25.679527" lon="-100.265987">
        <ele>481.696</ele>
        <time>2020-02-03T13:36:56Z</time>
      </trkpt>
      <trkpt lat="25.679525" lon="-100.266013">
        <ele>479.487</ele>
        <time>2020-02-03T13:36:57Z</time>
      </trkpt>
      <trkpt lat="25.679514" lon="-100.266071">
        <ele>479.37</ele>
        <time>2020-02-03T13:36:59Z</time>
      </trkpt>
      <trkpt lat="25.679507" lon="-100.266122">
        <ele>479.051</ele>
        <time>2020-02-03T13:37:01Z</time>
      </trkpt>
      <trkpt lat="25.679473" lon="-100.266216">
        <ele>479.034</ele>
        <time>2020-02-03T13:37:05Z</time>
      </trkpt>
      <trkpt lat="25.679466" lon="-100.266276">
        <ele>479.092</ele>
        <time>2020-02-03T13:37:07Z</time>
      </trkpt>
      <trkpt lat="25.679463" lon="-100.266331">
        <ele>479.157</ele>
        <time>2020-02-03T13:37:09Z</time>
      </trkpt>
      <trkpt lat="25.679459" lon="-100.26636">
        <ele>478.507</ele>
        <time>2020-02-03T13:37:10Z</time>
      </trkpt>
      <trkpt lat="25.679447" lon="-100.266414">
        <ele>478.146</ele>
        <time>2020-02-03T13:37:12Z</time>
      </trkpt>
      <trkpt lat="25.679439" lon="-100.266442">
        <ele>477.827</ele>
        <time>2020-02-03T13:37:13Z</time>
      </trkpt>
      <trkpt lat="25.679433" lon="-100.26647">
        <ele>477.637</ele>
        <time>2020-02-03T13:37:14Z</time>
      </trkpt>
      <trkpt lat="25.679427" lon="-100.26653">
        <ele>477.494</ele>
        <time>2020-02-03T13:37:16Z</time>
      </trkpt>
      <trkpt lat="25.679422" lon="-100.266559">
        <ele>478.573</ele>
        <time>2020-02-03T13:37:17Z</time>
      </trkpt>
      <trkpt lat="25.679419" lon="-100.266589">
        <ele>478.179</ele>
        <time>2020-02-03T13:37:18Z</time>
      </trkpt>
      <trkpt lat="25.679415" lon="-100.266619">
        <ele>477.99</ele>
        <time>2020-02-03T13:37:19Z</time>
      </trkpt>
      <trkpt lat="25.679412" lon="-100.266653">
        <ele>478.884</ele>
        <time>2020-02-03T13:37:20Z</time>
      </trkpt>
      <trkpt lat="25.679408" lon="-100.266724">
        <ele>479.805</ele>
        <time>2020-02-03T13:37:22Z</time>
      </trkpt>
      <trkpt lat="25.679405" lon="-100.266792">
        <ele>480.144</ele>
        <time>2020-02-03T13:37:24Z</time>
      </trkpt>
      <trkpt lat="25.679395" lon="-100.266859">
        <ele>480.765</ele>
        <time>2020-02-03T13:37:26Z</time>
      </trkpt>
      <trkpt lat="25.679389" lon="-100.266897">
        <ele>479.945</ele>
        <time>2020-02-03T13:37:27Z</time>
      </trkpt>
      <trkpt lat="25.679384" lon="-100.266932">
        <ele>480.015</ele>
        <time>2020-02-03T13:37:28Z</time>
      </trkpt>
      <trkpt lat="25.679378" lon="-100.266964">
        <ele>480.097</ele>
        <time>2020-02-03T13:37:29Z</time>
      </trkpt>
      <trkpt lat="25.679371" lon="-100.266992">
        <ele>480.607</ele>
        <time>2020-02-03T13:37:30Z</time>
      </trkpt>
      <trkpt lat="25.679357" lon="-100.267047">
        <ele>480.755</ele>
        <time>2020-02-03T13:37:32Z</time>
      </trkpt>
      <trkpt lat="25.679364" lon="-100.267123">
        <ele>480.819</ele>
        <time>2020-02-03T13:37:35Z</time>
      </trkpt>
      <trkpt lat="25.67936" lon="-100.267173">
        <ele>482.517</ele>
        <time>2020-02-03T13:37:37Z</time>
      </trkpt>
      <trkpt lat="25.679336" lon="-100.267229">
        <ele>482.708</ele>
        <time>2020-02-03T13:37:39Z</time>
      </trkpt>
      <trkpt lat="25.679323" lon="-100.267287">
        <ele>482.921</ele>
        <time>2020-02-03T13:37:41Z</time>
      </trkpt>
      <trkpt lat="25.679322" lon="-100.267369">
        <ele>482.341</ele>
        <time>2020-02-03T13:37:44Z</time>
      </trkpt>
      <trkpt lat="25.679321" lon="-100.267402">
        <ele>482.711</ele>
        <time>2020-02-03T13:37:45Z</time>
      </trkpt>
      <trkpt lat="25.679321" lon="-100.267435">
        <ele>483.222</ele>
        <time>2020-02-03T13:37:46Z</time>
      </trkpt>
      <trkpt lat="25.679327" lon="-100.267501">
        <ele>483.181</ele>
        <time>2020-02-03T13:37:48Z</time>
      </trkpt>
      <trkpt lat="25.679321" lon="-100.267573">
        <ele>483.498</ele>
        <time>2020-02-03T13:37:50Z</time>
      </trkpt>
      <trkpt lat="25.679319" lon="-100.267611">
        <ele>482.751</ele>
        <time>2020-02-03T13:37:51Z</time>
      </trkpt>
      <trkpt lat="25.679317" lon="-100.267647">
        <ele>483.29</ele>
        <time>2020-02-03T13:37:52Z</time>
      </trkpt>
      <trkpt lat="25.679315" lon="-100.267719">
        <ele>483.235</ele>
        <time>2020-02-03T13:37:54Z</time>
      </trkpt>
      <trkpt lat="25.67932" lon="-100.26779">
        <ele>483.614</ele>
        <time>2020-02-03T13:37:56Z</time>
      </trkpt>
      <trkpt lat="25.679329" lon="-100.267896">
        <ele>483.652</ele>
        <time>2020-02-03T13:37:59Z</time>
      </trkpt>
      <trkpt lat="25.679331" lon="-100.267932">
        <ele>483.134</ele>
        <time>2020-02-03T13:38:00Z</time>
      </trkpt>
      <trkpt lat="25.679333" lon="-100.26797">
        <ele>482.476</ele>
        <time>2020-02-03T13:38:01Z</time>
      </trkpt>
      <trkpt lat="25.679336" lon="-100.268007">
        <ele>482.397</ele>
        <time>2020-02-03T13:38:02Z</time>
      </trkpt>
      <trkpt lat="25.679339" lon="-100.268044">
        <ele>482.287</ele>
        <time>2020-02-03T13:38:03Z</time>
      </trkpt>
      <trkpt lat="25.679344" lon="-100.26808">
        <ele>482.746</ele>
        <time>2020-02-03T13:38:04Z</time>
      </trkpt>
      <trkpt lat="25.679351" lon="-100.268115">
        <ele>481.948</ele>
        <time>2020-02-03T13:38:05Z</time>
      </trkpt>
      <trkpt lat="25.679356" lon="-100.268152">
        <ele>482.218</ele>
        <time>2020-02-03T13:38:06Z</time>
      </trkpt>
      <trkpt lat="25.679362" lon="-100.268191">
        <ele>483.366</ele>
        <time>2020-02-03T13:38:07Z</time>
      </trkpt>
      <trkpt lat="25.679367" lon="-100.268227">
        <ele>483.495</ele>
        <time>2020-02-03T13:38:08Z</time>
      </trkpt>
      <trkpt lat="25.679383" lon="-100.268298">
        <ele>483.983</ele>
        <time>2020-02-03T13:38:10Z</time>
      </trkpt>
      <trkpt lat="25.679404" lon="-100.268369">
        <ele>483.639</ele>
        <time>2020-02-03T13:38:12Z</time>
      </trkpt>
      <trkpt lat="25.679412" lon="-100.268403">
        <ele>484.052</ele>
        <time>2020-02-03T13:38:13Z</time>
      </trkpt>
      <trkpt lat="25.679421" lon="-100.268473">
        <ele>483.679</ele>
        <time>2020-02-03T13:38:15Z</time>
      </trkpt>
      <trkpt lat="25.679428" lon="-100.268506">
        <ele>484.119</ele>
        <time>2020-02-03T13:38:16Z</time>
      </trkpt>
      <trkpt lat="25.679433" lon="-100.268539">
        <ele>483.801</ele>
        <time>2020-02-03T13:38:17Z</time>
      </trkpt>
      <trkpt lat="25.67944" lon="-100.268572">
        <ele>483.329</ele>
        <time>2020-02-03T13:38:18Z</time>
      </trkpt>
      <trkpt lat="25.679446" lon="-100.268605">
        <ele>482.704</ele>
        <time>2020-02-03T13:38:19Z</time>
      </trkpt>
      <trkpt lat="25.679452" lon="-100.268637">
        <ele>482.554</ele>
        <time>2020-02-03T13:38:20Z</time>
      </trkpt>
      <trkpt lat="25.679458" lon="-100.268664">
        <ele>481.407</ele>
        <time>2020-02-03T13:38:21Z</time>
      </trkpt>
      <trkpt lat="25.679469" lon="-100.268719">
        <ele>482.128</ele>
        <time>2020-02-03T13:38:23Z</time>
      </trkpt>
      <trkpt lat="25.679488" lon="-100.268772">
        <ele>482.64</ele>
        <time>2020-02-03T13:38:25Z</time>
      </trkpt>
      <trkpt lat="25.679501" lon="-100.268806">
        <ele>482.138</ele>
        <time>2020-02-03T13:38:27Z</time>
      </trkpt>
      <trkpt lat="25.679509" lon="-100.268876">
        <ele>481.805</ele>
        <time>2020-02-03T13:38:30Z</time>
      </trkpt>
      <trkpt lat="25.679514" lon="-100.268941">
        <ele>482.017</ele>
        <time>2020-02-03T13:38:32Z</time>
      </trkpt>
      <trkpt lat="25.679518" lon="-100.268974">
        <ele>482.325</ele>
        <time>2020-02-03T13:38:33Z</time>
      </trkpt>
      <trkpt lat="25.679537" lon="-100.269028">
        <ele>482.114</ele>
        <time>2020-02-03T13:38:35Z</time>
      </trkpt>
      <trkpt lat="25.679546" lon="-100.269057">
        <ele>481.62</ele>
        <time>2020-02-03T13:38:36Z</time>
      </trkpt>
      <trkpt lat="25.679555" lon="-100.269086">
        <ele>482.785</ele>
        <time>2020-02-03T13:38:37Z</time>
      </trkpt>
      <trkpt lat="25.679566" lon="-100.269117">
        <ele>483.808</ele>
        <time>2020-02-03T13:38:38Z</time>
      </trkpt>
      <trkpt lat="25.679595" lon="-100.26918">
        <ele>484.106</ele>
        <time>2020-02-03T13:38:40Z</time>
      </trkpt>
      <trkpt lat="25.679616" lon="-100.26925">
        <ele>483.851</ele>
        <time>2020-02-03T13:38:42Z</time>
      </trkpt>
      <trkpt lat="25.679639" lon="-100.269318">
        <ele>483.812</ele>
        <time>2020-02-03T13:38:44Z</time>
      </trkpt>
      <trkpt lat="25.679671" lon="-100.269383">
        <ele>483.951</ele>
        <time>2020-02-03T13:38:46Z</time>
      </trkpt>
      <trkpt lat="25.679687" lon="-100.269441">
        <ele>483.452</ele>
        <time>2020-02-03T13:38:48Z</time>
      </trkpt>
      <trkpt lat="25.679736" lon="-100.26952">
        <ele>481.981</ele>
        <time>2020-02-03T13:38:51Z</time>
      </trkpt>
      <trkpt lat="25.679756" lon="-100.269583">
        <ele>480.369</ele>
        <time>2020-02-03T13:38:53Z</time>
      </trkpt>
      <trkpt lat="25.67976" lon="-100.269635">
        <ele>481.136</ele>
        <time>2020-02-03T13:38:56Z</time>
      </trkpt>
      <trkpt lat="25.679799" lon="-100.269666">
        <ele>481.238</ele>
        <time>2020-02-03T13:38:59Z</time>
      </trkpt>
      <trkpt lat="25.679824" lon="-100.269739">
        <ele>481.319</ele>
        <time>2020-02-03T13:39:02Z</time>
      </trkpt>
      <trkpt lat="25.679832" lon="-100.269765">
        <ele>481.218</ele>
        <time>2020-02-03T13:39:03Z</time>
      </trkpt>
      <trkpt lat="25.679841" lon="-100.269791">
        <ele>481.742</ele>
        <time>2020-02-03T13:39:04Z</time>
      </trkpt>
      <trkpt lat="25.67985" lon="-100.269817">
        <ele>481.586</ele>
        <time>2020-02-03T13:39:05Z</time>
      </trkpt>
      <trkpt lat="25.679868" lon="-100.269871">
        <ele>481.301</ele>
        <time>2020-02-03T13:39:07Z</time>
      </trkpt>
      <trkpt lat="25.679875" lon="-100.269931">
        <ele>481.792</ele>
        <time>2020-02-03T13:39:09Z</time>
      </trkpt>
      <trkpt lat="25.679901" lon="-100.270015">
        <ele>481.991</ele>
        <time>2020-02-03T13:39:12Z</time>
      </trkpt>
      <trkpt lat="25.679911" lon="-100.270041">
        <ele>482.096</ele>
        <time>2020-02-03T13:39:13Z</time>
      </trkpt>
      <trkpt lat="25.679924" lon="-100.270095">
        <ele>481.893</ele>
        <time>2020-02-03T13:39:15Z</time>
      </trkpt>
      <trkpt lat="25.67993" lon="-100.270122">
        <ele>481.914</ele>
        <time>2020-02-03T13:39:16Z</time>
      </trkpt>
      <trkpt lat="25.679937" lon="-100.270148">
        <ele>482.717</ele>
        <time>2020-02-03T13:39:17Z</time>
      </trkpt>
      <trkpt lat="25.67996" lon="-100.270229">
        <ele>483.144</ele>
        <time>2020-02-03T13:39:20Z</time>
      </trkpt>
      <trkpt lat="25.679971" lon="-100.270285">
        <ele>482.77</ele>
        <time>2020-02-03T13:39:22Z</time>
      </trkpt>
      <trkpt lat="25.679976" lon="-100.270312">
        <ele>482.879</ele>
        <time>2020-02-03T13:39:23Z</time>
      </trkpt>
      <trkpt lat="25.679981" lon="-100.270338">
        <ele>482.716</ele>
        <time>2020-02-03T13:39:24Z</time>
      </trkpt>
      <trkpt lat="25.680025" lon="-100.270389">
        <ele>482.075</ele>
        <time>2020-02-03T13:39:27Z</time>
      </trkpt>
      <trkpt lat="25.680066" lon="-100.270419">
        <ele>482.392</ele>
        <time>2020-02-03T13:39:29Z</time>
      </trkpt>
      <trkpt lat="25.680097" lon="-100.270458">
        <ele>483.147</ele>
        <time>2020-02-03T13:39:31Z</time>
      </trkpt>
      <trkpt lat="25.680114" lon="-100.270509">
        <ele>483.324</ele>
        <time>2020-02-03T13:39:33Z</time>
      </trkpt>
      <trkpt lat="25.68012" lon="-100.270536">
        <ele>482.827</ele>
        <time>2020-02-03T13:39:34Z</time>
      </trkpt>
      <trkpt lat="25.680128" lon="-100.270562">
        <ele>483.069</ele>
        <time>2020-02-03T13:39:35Z</time>
      </trkpt>
      <trkpt lat="25.680135" lon="-100.27059">
        <ele>483.079</ele>
        <time>2020-02-03T13:39:36Z</time>
      </trkpt>
      <trkpt lat="25.680143" lon="-100.270616">
        <ele>483.722</ele>
        <time>2020-02-03T13:39:37Z</time>
      </trkpt>
      <trkpt lat="25.680151" lon="-100.270645">
        <ele>484.095</ele>
        <time>2020-02-03T13:39:38Z</time>
      </trkpt>
      <trkpt lat="25.68016" lon="-100.270671">
        <ele>484.175</ele>
        <time>2020-02-03T13:39:39Z</time>
      </trkpt>
      <trkpt lat="25.680168" lon="-100.270698">
        <ele>484.496</ele>
        <time>2020-02-03T13:39:40Z</time>
      </trkpt>
      <trkpt lat="25.680178" lon="-100.270723">
        <ele>484.575</ele>
        <time>2020-02-03T13:39:41Z</time>
      </trkpt>
      <trkpt lat="25.680188" lon="-100.270748">
        <ele>484.612</ele>
        <time>2020-02-03T13:39:42Z</time>
      </trkpt>
      <trkpt lat="25.680199" lon="-100.270772">
        <ele>484.693</ele>
        <time>2020-02-03T13:39:43Z</time>
      </trkpt>
      <trkpt lat="25.68021" lon="-100.270796">
        <ele>485.436</ele>
        <time>2020-02-03T13:39:44Z</time>
      </trkpt>
      <trkpt lat="25.68022" lon="-100.270819">
        <ele>484.567</ele>
        <time>2020-02-03T13:39:45Z</time>
      </trkpt>
      <trkpt lat="25.680237" lon="-100.270863">
        <ele>485.126</ele>
        <time>2020-02-03T13:39:47Z</time>
      </trkpt>
      <trkpt lat="25.680244" lon="-100.270887">
        <ele>485.626</ele>
        <time>2020-02-03T13:39:48Z</time>
      </trkpt>
      <trkpt lat="25.680257" lon="-100.270937">
        <ele>486.333</ele>
        <time>2020-02-03T13:39:50Z</time>
      </trkpt>
      <trkpt lat="25.680264" lon="-100.270962">
        <ele>485.374</ele>
        <time>2020-02-03T13:39:51Z</time>
      </trkpt>
      <trkpt lat="25.680268" lon="-100.270987">
        <ele>485.254</ele>
        <time>2020-02-03T13:39:52Z</time>
      </trkpt>
      <trkpt lat="25.680277" lon="-100.271033">
        <ele>484.906</ele>
        <time>2020-02-03T13:39:54Z</time>
      </trkpt>
      <trkpt lat="25.680289" lon="-100.271079">
        <ele>484.401</ele>
        <time>2020-02-03T13:39:56Z</time>
      </trkpt>
      <trkpt lat="25.680295" lon="-100.271103">
        <ele>484.104</ele>
        <time>2020-02-03T13:39:57Z</time>
      </trkpt>
      <trkpt lat="25.680302" lon="-100.271128">
        <ele>484.493</ele>
        <time>2020-02-03T13:39:58Z</time>
      </trkpt>
      <trkpt lat="25.680309" lon="-100.271154">
        <ele>483.778</ele>
        <time>2020-02-03T13:39:59Z</time>
      </trkpt>
      <trkpt lat="25.68033" lon="-100.2712">
        <ele>484.161</ele>
        <time>2020-02-03T13:40:01Z</time>
      </trkpt>
      <trkpt lat="25.680341" lon="-100.271225">
        <ele>484.085</ele>
        <time>2020-02-03T13:40:02Z</time>
      </trkpt>
      <trkpt lat="25.680351" lon="-100.27125">
        <ele>484.278</ele>
        <time>2020-02-03T13:40:03Z</time>
      </trkpt>
      <trkpt lat="25.680359" lon="-100.271276">
        <ele>484.365</ele>
        <time>2020-02-03T13:40:04Z</time>
      </trkpt>
      <trkpt lat="25.680367" lon="-100.271302">
        <ele>483.501</ele>
        <time>2020-02-03T13:40:05Z</time>
      </trkpt>
      <trkpt lat="25.680376" lon="-100.271331">
        <ele>483.094</ele>
        <time>2020-02-03T13:40:06Z</time>
      </trkpt>
      <trkpt lat="25.680384" lon="-100.271359">
        <ele>483.452</ele>
        <time>2020-02-03T13:40:07Z</time>
      </trkpt>
      <trkpt lat="25.680393" lon="-100.271384">
        <ele>483.849</ele>
        <time>2020-02-03T13:40:08Z</time>
      </trkpt>
      <trkpt lat="25.680401" lon="-100.271408">
        <ele>482.769</ele>
        <time>2020-02-03T13:40:09Z</time>
      </trkpt>
      <trkpt lat="25.680407" lon="-100.271433">
        <ele>482.178</ele>
        <time>2020-02-03T13:40:10Z</time>
      </trkpt>
      <trkpt lat="25.680412" lon="-100.271461">
        <ele>481.976</ele>
        <time>2020-02-03T13:40:11Z</time>
      </trkpt>
      <trkpt lat="25.680418" lon="-100.271487">
        <ele>482.565</ele>
        <time>2020-02-03T13:40:12Z</time>
      </trkpt>
      <trkpt lat="25.680426" lon="-100.271512">
        <ele>483.098</ele>
        <time>2020-02-03T13:40:13Z</time>
      </trkpt>
      <trkpt lat="25.680432" lon="-100.271538">
        <ele>483.212</ele>
        <time>2020-02-03T13:40:14Z</time>
      </trkpt>
      <trkpt lat="25.680443" lon="-100.271594">
        <ele>483.617</ele>
        <time>2020-02-03T13:40:16Z</time>
      </trkpt>
      <trkpt lat="25.68047" lon="-100.271677">
        <ele>483.908</ele>
        <time>2020-02-03T13:40:19Z</time>
      </trkpt>
      <trkpt lat="25.68048" lon="-100.271707">
        <ele>483.347</ele>
        <time>2020-02-03T13:40:20Z</time>
      </trkpt>
      <trkpt lat="25.680488" lon="-100.271736">
        <ele>482.648</ele>
        <time>2020-02-03T13:40:21Z</time>
      </trkpt>
      <trkpt lat="25.680494" lon="-100.271766">
        <ele>482.595</ele>
        <time>2020-02-03T13:40:22Z</time>
      </trkpt>
      <trkpt lat="25.680502" lon="-100.271795">
        <ele>482.672</ele>
        <time>2020-02-03T13:40:23Z</time>
      </trkpt>
      <trkpt lat="25.680509" lon="-100.271823">
        <ele>482.81</ele>
        <time>2020-02-03T13:40:24Z</time>
      </trkpt>
      <trkpt lat="25.680517" lon="-100.271847">
        <ele>482.731</ele>
        <time>2020-02-03T13:40:25Z</time>
      </trkpt>
      <trkpt lat="25.680524" lon="-100.271873">
        <ele>483.198</ele>
        <time>2020-02-03T13:40:26Z</time>
      </trkpt>
      <trkpt lat="25.68053" lon="-100.271898">
        <ele>482.844</ele>
        <time>2020-02-03T13:40:27Z</time>
      </trkpt>
      <trkpt lat="25.680538" lon="-100.271954">
        <ele>482.809</ele>
        <time>2020-02-03T13:40:29Z</time>
      </trkpt>
      <trkpt lat="25.680564" lon="-100.27202">
        <ele>482.757</ele>
        <time>2020-02-03T13:40:32Z</time>
      </trkpt>
      <trkpt lat="25.680574" lon="-100.272045">
        <ele>482.34</ele>
        <time>2020-02-03T13:40:33Z</time>
      </trkpt>
      <trkpt lat="25.680585" lon="-100.272071">
        <ele>483.017</ele>
        <time>2020-02-03T13:40:34Z</time>
      </trkpt>
      <trkpt lat="25.680595" lon="-100.272097">
        <ele>483.163</ele>
        <time>2020-02-03T13:40:35Z</time>
      </trkpt>
      <trkpt lat="25.680605" lon="-100.272123">
        <ele>483.253</ele>
        <time>2020-02-03T13:40:36Z</time>
      </trkpt>
      <trkpt lat="25.680614" lon="-100.272151">
        <ele>483.681</ele>
        <time>2020-02-03T13:40:37Z</time>
      </trkpt>
      <trkpt lat="25.680622" lon="-100.272178">
        <ele>483.226</ele>
        <time>2020-02-03T13:40:38Z</time>
      </trkpt>
      <trkpt lat="25.68063" lon="-100.272202">
        <ele>483.26</ele>
        <time>2020-02-03T13:40:39Z</time>
      </trkpt>
      <trkpt lat="25.680638" lon="-100.272227">
        <ele>483.595</ele>
        <time>2020-02-03T13:40:40Z</time>
      </trkpt>
      <trkpt lat="25.680646" lon="-100.272253">
        <ele>483.411</ele>
        <time>2020-02-03T13:40:41Z</time>
      </trkpt>
      <trkpt lat="25.680665" lon="-100.272307">
        <ele>482.751</ele>
        <time>2020-02-03T13:40:43Z</time>
      </trkpt>
      <trkpt lat="25.680675" lon="-100.272333">
        <ele>482.679</ele>
        <time>2020-02-03T13:40:44Z</time>
      </trkpt>
      <trkpt lat="25.680685" lon="-100.272358">
        <ele>482.5</ele>
        <time>2020-02-03T13:40:45Z</time>
      </trkpt>
      <trkpt lat="25.680695" lon="-100.272381">
        <ele>482.022</ele>
        <time>2020-02-03T13:40:46Z</time>
      </trkpt>
      <trkpt lat="25.680705" lon="-100.272406">
        <ele>482.419</ele>
        <time>2020-02-03T13:40:47Z</time>
      </trkpt>
      <trkpt lat="25.680719" lon="-100.272458">
        <ele>482.341</ele>
        <time>2020-02-03T13:40:49Z</time>
      </trkpt>
      <trkpt lat="25.680727" lon="-100.272483">
        <ele>481.952</ele>
        <time>2020-02-03T13:40:50Z</time>
      </trkpt>
      <trkpt lat="25.680734" lon="-100.272507">
        <ele>482.05</ele>
        <time>2020-02-03T13:40:51Z</time>
      </trkpt>
      <trkpt lat="25.680744" lon="-100.272532">
        <ele>482.266</ele>
        <time>2020-02-03T13:40:52Z</time>
      </trkpt>
      <trkpt lat="25.680753" lon="-100.272556">
        <ele>482.619</ele>
        <time>2020-02-03T13:40:53Z</time>
      </trkpt>
      <trkpt lat="25.680763" lon="-100.272581">
        <ele>483.296</ele>
        <time>2020-02-03T13:40:54Z</time>
      </trkpt>
      <trkpt lat="25.680772" lon="-100.272606">
        <ele>483.87</ele>
        <time>2020-02-03T13:40:55Z</time>
      </trkpt>
      <trkpt lat="25.680779" lon="-100.272632">
        <ele>484.15</ele>
        <time>2020-02-03T13:40:56Z</time>
      </trkpt>
      <trkpt lat="25.680786" lon="-100.272657">
        <ele>484.029</ele>
        <time>2020-02-03T13:40:57Z</time>
      </trkpt>
      <trkpt lat="25.680791" lon="-100.272683">
        <ele>482.079</ele>
        <time>2020-02-03T13:40:58Z</time>
      </trkpt>
      <trkpt lat="25.680795" lon="-100.272711">
        <ele>482.087</ele>
        <time>2020-02-03T13:40:59Z</time>
      </trkpt>
      <trkpt lat="25.680801" lon="-100.272738">
        <ele>482.598</ele>
        <time>2020-02-03T13:41:00Z</time>
      </trkpt>
      <trkpt lat="25.680807" lon="-100.272764">
        <ele>482.054</ele>
        <time>2020-02-03T13:41:01Z</time>
      </trkpt>
      <trkpt lat="25.680812" lon="-100.27279">
        <ele>481.933</ele>
        <time>2020-02-03T13:41:02Z</time>
      </trkpt>
      <trkpt lat="25.680818" lon="-100.272816">
        <ele>482.525</ele>
        <time>2020-02-03T13:41:03Z</time>
      </trkpt>
      <trkpt lat="25.680825" lon="-100.27284">
        <ele>482.9</ele>
        <time>2020-02-03T13:41:04Z</time>
      </trkpt>
      <trkpt lat="25.680833" lon="-100.272864">
        <ele>482.941</ele>
        <time>2020-02-03T13:41:05Z</time>
      </trkpt>
      <trkpt lat="25.68084" lon="-100.272888">
        <ele>482.469</ele>
        <time>2020-02-03T13:41:06Z</time>
      </trkpt>
      <trkpt lat="25.680852" lon="-100.272935">
        <ele>482.661</ele>
        <time>2020-02-03T13:41:08Z</time>
      </trkpt>
      <trkpt lat="25.680859" lon="-100.27296">
        <ele>481.958</ele>
        <time>2020-02-03T13:41:09Z</time>
      </trkpt>
      <trkpt lat="25.680875" lon="-100.273005">
        <ele>480.825</ele>
        <time>2020-02-03T13:41:11Z</time>
      </trkpt>
      <trkpt lat="25.680884" lon="-100.273029">
        <ele>480.802</ele>
        <time>2020-02-03T13:41:12Z</time>
      </trkpt>
      <trkpt lat="25.680894" lon="-100.273052">
        <ele>481.123</ele>
        <time>2020-02-03T13:41:13Z</time>
      </trkpt>
      <trkpt lat="25.680905" lon="-100.273076">
        <ele>481.596</ele>
        <time>2020-02-03T13:41:14Z</time>
      </trkpt>
      <trkpt lat="25.680926" lon="-100.273127">
        <ele>482.088</ele>
        <time>2020-02-03T13:41:16Z</time>
      </trkpt>
      <trkpt lat="25.680937" lon="-100.273153">
        <ele>481.662</ele>
        <time>2020-02-03T13:41:17Z</time>
      </trkpt>
      <trkpt lat="25.680945" lon="-100.273179">
        <ele>481.458</ele>
        <time>2020-02-03T13:41:18Z</time>
      </trkpt>
      <trkpt lat="25.680954" lon="-100.273206">
        <ele>480.567</ele>
        <time>2020-02-03T13:41:19Z</time>
      </trkpt>
      <trkpt lat="25.680962" lon="-100.273233">
        <ele>478.969</ele>
        <time>2020-02-03T13:41:20Z</time>
      </trkpt>
      <trkpt lat="25.680969" lon="-100.273261">
        <ele>479.337</ele>
        <time>2020-02-03T13:41:21Z</time>
      </trkpt>
      <trkpt lat="25.680976" lon="-100.273291">
        <ele>479.838</ele>
        <time>2020-02-03T13:41:22Z</time>
      </trkpt>
      <trkpt lat="25.680982" lon="-100.273322">
        <ele>479.412</ele>
        <time>2020-02-03T13:41:23Z</time>
      </trkpt>
      <trkpt lat="25.680989" lon="-100.273353">
        <ele>480.167</ele>
        <time>2020-02-03T13:41:24Z</time>
      </trkpt>
      <trkpt lat="25.680997" lon="-100.273384">
        <ele>480.933</ele>
        <time>2020-02-03T13:41:25Z</time>
      </trkpt>
      <trkpt lat="25.681005" lon="-100.273413">
        <ele>482.078</ele>
        <time>2020-02-03T13:41:26Z</time>
      </trkpt>
      <trkpt lat="25.681017" lon="-100.273441">
        <ele>482.532</ele>
        <time>2020-02-03T13:41:27Z</time>
      </trkpt>
      <trkpt lat="25.681027" lon="-100.273471">
        <ele>482.923</ele>
        <time>2020-02-03T13:41:28Z</time>
      </trkpt>
      <trkpt lat="25.681037" lon="-100.273501">
        <ele>483.209</ele>
        <time>2020-02-03T13:41:29Z</time>
      </trkpt>
      <trkpt lat="25.681046" lon="-100.273532">
        <ele>484.55</ele>
        <time>2020-02-03T13:41:30Z</time>
      </trkpt>
      <trkpt lat="25.681066" lon="-100.273589">
        <ele>484.831</ele>
        <time>2020-02-03T13:41:32Z</time>
      </trkpt>
      <trkpt lat="25.681073" lon="-100.273647">
        <ele>485.276</ele>
        <time>2020-02-03T13:41:34Z</time>
      </trkpt>
      <trkpt lat="25.681046" lon="-100.273712">
        <ele>485.807</ele>
        <time>2020-02-03T13:41:37Z</time>
      </trkpt>
      <trkpt lat="25.681006" lon="-100.27376">
        <ele>486.87</ele>
        <time>2020-02-03T13:41:39Z</time>
      </trkpt>
      <trkpt lat="25.680993" lon="-100.273839">
        <ele>487.243</ele>
        <time>2020-02-03T13:41:42Z</time>
      </trkpt>
      <trkpt lat="25.681011" lon="-100.273913">
        <ele>487.94</ele>
        <time>2020-02-03T13:41:45Z</time>
      </trkpt>
      <trkpt lat="25.681055" lon="-100.273973">
        <ele>488.629</ele>
        <time>2020-02-03T13:41:48Z</time>
      </trkpt>
      <trkpt lat="25.681072" lon="-100.273994">
        <ele>489.42</ele>
        <time>2020-02-03T13:41:49Z</time>
      </trkpt>
      <trkpt lat="25.681098" lon="-100.27404">
        <ele>489.25</ele>
        <time>2020-02-03T13:41:51Z</time>
      </trkpt>
      <trkpt lat="25.681116" lon="-100.274089">
        <ele>488.122</ele>
        <time>2020-02-03T13:41:53Z</time>
      </trkpt>
      <trkpt lat="25.681132" lon="-100.274131">
        <ele>487.803</ele>
        <time>2020-02-03T13:41:55Z</time>
      </trkpt>
      <trkpt lat="25.681147" lon="-100.274182">
        <ele>487.261</ele>
        <time>2020-02-03T13:41:57Z</time>
      </trkpt>
      <trkpt lat="25.681154" lon="-100.27424">
        <ele>483.291</ele>
        <time>2020-02-03T13:41:59Z</time>
      </trkpt>
      <trkpt lat="25.681178" lon="-100.274312">
        <ele>483.203</ele>
        <time>2020-02-03T13:42:02Z</time>
      </trkpt>
      <trkpt lat="25.681215" lon="-100.274384">
        <ele>483.023</ele>
        <time>2020-02-03T13:42:05Z</time>
      </trkpt>
      <trkpt lat="25.681245" lon="-100.274476">
        <ele>484.203</ele>
        <time>2020-02-03T13:42:09Z</time>
      </trkpt>
      <trkpt lat="25.681253" lon="-100.274502">
        <ele>484.304</ele>
        <time>2020-02-03T13:42:10Z</time>
      </trkpt>
      <trkpt lat="25.681261" lon="-100.27453">
        <ele>484.987</ele>
        <time>2020-02-03T13:42:11Z</time>
      </trkpt>
      <trkpt lat="25.681271" lon="-100.274559">
        <ele>485.229</ele>
        <time>2020-02-03T13:42:12Z</time>
      </trkpt>
      <trkpt lat="25.681281" lon="-100.274588">
        <ele>486.106</ele>
        <time>2020-02-03T13:42:13Z</time>
      </trkpt>
      <trkpt lat="25.681289" lon="-100.274618">
        <ele>486.768</ele>
        <time>2020-02-03T13:42:14Z</time>
      </trkpt>
      <trkpt lat="25.681298" lon="-100.274649">
        <ele>486.658</ele>
        <time>2020-02-03T13:42:15Z</time>
      </trkpt>
      <trkpt lat="25.681323" lon="-100.274702">
        <ele>487.053</ele>
        <time>2020-02-03T13:42:18Z</time>
      </trkpt>
      <trkpt lat="25.681336" lon="-100.274753">
        <ele>487.072</ele>
        <time>2020-02-03T13:42:22Z</time>
      </trkpt>
      <trkpt lat="25.681346" lon="-100.274801">
        <ele>488.798</ele>
        <time>2020-02-03T13:42:24Z</time>
      </trkpt>
      <trkpt lat="25.681362" lon="-100.274865">
        <ele>489.309</ele>
        <time>2020-02-03T13:42:26Z</time>
      </trkpt>
      <trkpt lat="25.681369" lon="-100.274895">
        <ele>489.211</ele>
        <time>2020-02-03T13:42:27Z</time>
      </trkpt>
      <trkpt lat="25.681396" lon="-100.274944">
        <ele>489.591</ele>
        <time>2020-02-03T13:42:29Z</time>
      </trkpt>
      <trkpt lat="25.681438" lon="-100.274996">
        <ele>489.947</ele>
        <time>2020-02-03T13:42:31Z</time>
      </trkpt>
      <trkpt lat="25.68146" lon="-100.275027">
        <ele>489.471</ele>
        <time>2020-02-03T13:42:33Z</time>
      </trkpt>
      <trkpt lat="25.681472" lon="-100.275103">
        <ele>490.227</ele>
        <time>2020-02-03T13:42:36Z</time>
      </trkpt>
      <trkpt lat="25.68148" lon="-100.275141">
        <ele>490.621</ele>
        <time>2020-02-03T13:42:38Z</time>
      </trkpt>
      <trkpt lat="25.681519" lon="-100.275204">
        <ele>490.889</ele>
        <time>2020-02-03T13:42:41Z</time>
      </trkpt>
      <trkpt lat="25.681545" lon="-100.275262">
        <ele>491.239</ele>
        <time>2020-02-03T13:42:43Z</time>
      </trkpt>
      <trkpt lat="25.681556" lon="-100.275293">
        <ele>490.789</ele>
        <time>2020-02-03T13:42:44Z</time>
      </trkpt>
      <trkpt lat="25.681568" lon="-100.275324">
        <ele>491.564</ele>
        <time>2020-02-03T13:42:45Z</time>
      </trkpt>
      <trkpt lat="25.681585" lon="-100.275381">
        <ele>490.672</ele>
        <time>2020-02-03T13:42:47Z</time>
      </trkpt>
      <trkpt lat="25.681607" lon="-100.275436">
        <ele>490.651</ele>
        <time>2020-02-03T13:42:49Z</time>
      </trkpt>
      <trkpt lat="25.681627" lon="-100.27549">
        <ele>490.964</ele>
        <time>2020-02-03T13:42:51Z</time>
      </trkpt>
      <trkpt lat="25.681639" lon="-100.27558">
        <ele>491.357</ele>
        <time>2020-02-03T13:42:54Z</time>
      </trkpt>
      <trkpt lat="25.681641" lon="-100.275611">
        <ele>491.558</ele>
        <time>2020-02-03T13:42:55Z</time>
      </trkpt>
      <trkpt lat="25.681645" lon="-100.275681">
        <ele>491.603</ele>
        <time>2020-02-03T13:42:57Z</time>
      </trkpt>
      <trkpt lat="25.681646" lon="-100.275716">
        <ele>491.636</ele>
        <time>2020-02-03T13:42:58Z</time>
      </trkpt>
      <trkpt lat="25.681648" lon="-100.275748">
        <ele>492.561</ele>
        <time>2020-02-03T13:42:59Z</time>
      </trkpt>
      <trkpt lat="25.681652" lon="-100.275779">
        <ele>492.799</ele>
        <time>2020-02-03T13:43:00Z</time>
      </trkpt>
      <trkpt lat="25.681654" lon="-100.275809">
        <ele>492.534</ele>
        <time>2020-02-03T13:43:01Z</time>
      </trkpt>
      <trkpt lat="25.681655" lon="-100.27584">
        <ele>492.573</ele>
        <time>2020-02-03T13:43:02Z</time>
      </trkpt>
      <trkpt lat="25.681673" lon="-100.275895">
        <ele>493.733</ele>
        <time>2020-02-03T13:43:04Z</time>
      </trkpt>
      <trkpt lat="25.6817" lon="-100.275942">
        <ele>492.951</ele>
        <time>2020-02-03T13:43:06Z</time>
      </trkpt>
      <trkpt lat="25.681713" lon="-100.275966">
        <ele>492.644</ele>
        <time>2020-02-03T13:43:07Z</time>
      </trkpt>
      <trkpt lat="25.681725" lon="-100.275987">
        <ele>491.513</ele>
        <time>2020-02-03T13:43:08Z</time>
      </trkpt>
      <trkpt lat="25.68174" lon="-100.276039">
        <ele>493.043</ele>
        <time>2020-02-03T13:43:11Z</time>
      </trkpt>
      <trkpt lat="25.681752" lon="-100.27609">
        <ele>493.248</ele>
        <time>2020-02-03T13:43:13Z</time>
      </trkpt>
      <trkpt lat="25.681776" lon="-100.276144">
        <ele>494.041</ele>
        <time>2020-02-03T13:43:15Z</time>
      </trkpt>
      <trkpt lat="25.6818" lon="-100.276193">
        <ele>493.745</ele>
        <time>2020-02-03T13:43:17Z</time>
      </trkpt>
      <trkpt lat="25.68181" lon="-100.276218">
        <ele>493.646</ele>
        <time>2020-02-03T13:43:18Z</time>
      </trkpt>
      <trkpt lat="25.681829" lon="-100.276269">
        <ele>494.868</ele>
        <time>2020-02-03T13:43:20Z</time>
      </trkpt>
      <trkpt lat="25.681857" lon="-100.276349">
        <ele>494.182</ele>
        <time>2020-02-03T13:43:23Z</time>
      </trkpt>
      <trkpt lat="25.681869" lon="-100.276378">
        <ele>494.065</ele>
        <time>2020-02-03T13:43:24Z</time>
      </trkpt>
      <trkpt lat="25.681882" lon="-100.276407">
        <ele>491.564</ele>
        <time>2020-02-03T13:43:25Z</time>
      </trkpt>
      <trkpt lat="25.681895" lon="-100.276432">
        <ele>491.306</ele>
        <time>2020-02-03T13:43:26Z</time>
      </trkpt>
      <trkpt lat="25.681909" lon="-100.276456">
        <ele>491.367</ele>
        <time>2020-02-03T13:43:27Z</time>
      </trkpt>
      <trkpt lat="25.681922" lon="-100.276481">
        <ele>491.514</ele>
        <time>2020-02-03T13:43:28Z</time>
      </trkpt>
      <trkpt lat="25.681934" lon="-100.276507">
        <ele>492.305</ele>
        <time>2020-02-03T13:43:29Z</time>
      </trkpt>
      <trkpt lat="25.681945" lon="-100.276531">
        <ele>492.787</ele>
        <time>2020-02-03T13:43:30Z</time>
      </trkpt>
      <trkpt lat="25.681954" lon="-100.276555">
        <ele>492.046</ele>
        <time>2020-02-03T13:43:31Z</time>
      </trkpt>
      <trkpt lat="25.681962" lon="-100.27658">
        <ele>492.64</ele>
        <time>2020-02-03T13:43:32Z</time>
      </trkpt>
      <trkpt lat="25.681974" lon="-100.276635">
        <ele>493.755</ele>
        <time>2020-02-03T13:43:34Z</time>
      </trkpt>
      <trkpt lat="25.681999" lon="-100.27668">
        <ele>494.604</ele>
        <time>2020-02-03T13:43:36Z</time>
      </trkpt>
      <trkpt lat="25.682016" lon="-100.276733">
        <ele>494.841</ele>
        <time>2020-02-03T13:43:38Z</time>
      </trkpt>
      <trkpt lat="25.682028" lon="-100.276824">
        <ele>494.89</ele>
        <time>2020-02-03T13:43:41Z</time>
      </trkpt>
      <trkpt lat="25.682034" lon="-100.276857">
        <ele>495.511</ele>
        <time>2020-02-03T13:43:42Z</time>
      </trkpt>
      <trkpt lat="25.68205" lon="-100.27692">
        <ele>497.804</ele>
        <time>2020-02-03T13:43:44Z</time>
      </trkpt>
      <trkpt lat="25.68206" lon="-100.27695">
        <ele>499.324</ele>
        <time>2020-02-03T13:43:45Z</time>
      </trkpt>
      <trkpt lat="25.68208" lon="-100.277009">
        <ele>499.121</ele>
        <time>2020-02-03T13:43:47Z</time>
      </trkpt>
      <trkpt lat="25.682115" lon="-100.277102">
        <ele>498.658</ele>
        <time>2020-02-03T13:43:50Z</time>
      </trkpt>
      <trkpt lat="25.682125" lon="-100.277135">
        <ele>498.408</ele>
        <time>2020-02-03T13:43:51Z</time>
      </trkpt>
      <trkpt lat="25.682136" lon="-100.277167">
        <ele>498.351</ele>
        <time>2020-02-03T13:43:52Z</time>
      </trkpt>
      <trkpt lat="25.682149" lon="-100.277195">
        <ele>497.764</ele>
        <time>2020-02-03T13:43:53Z</time>
      </trkpt>
      <trkpt lat="25.682161" lon="-100.277223">
        <ele>497.445</ele>
        <time>2020-02-03T13:43:54Z</time>
      </trkpt>
      <trkpt lat="25.682179" lon="-100.277282">
        <ele>496.853</ele>
        <time>2020-02-03T13:43:56Z</time>
      </trkpt>
      <trkpt lat="25.682194" lon="-100.277338">
        <ele>496.721</ele>
        <time>2020-02-03T13:43:58Z</time>
      </trkpt>
      <trkpt lat="25.682202" lon="-100.277365">
        <ele>497.382</ele>
        <time>2020-02-03T13:43:59Z</time>
      </trkpt>
      <trkpt lat="25.68221" lon="-100.277394">
        <ele>496.498</ele>
        <time>2020-02-03T13:44:00Z</time>
      </trkpt>
      <trkpt lat="25.682216" lon="-100.277424">
        <ele>496.521</ele>
        <time>2020-02-03T13:44:01Z</time>
      </trkpt>
      <trkpt lat="25.682223" lon="-100.277454">
        <ele>496.408</ele>
        <time>2020-02-03T13:44:02Z</time>
      </trkpt>
      <trkpt lat="25.682231" lon="-100.277483">
        <ele>496.024</ele>
        <time>2020-02-03T13:44:03Z</time>
      </trkpt>
      <trkpt lat="25.682238" lon="-100.277512">
        <ele>496.241</ele>
        <time>2020-02-03T13:44:04Z</time>
      </trkpt>
      <trkpt lat="25.68226" lon="-100.277566">
        <ele>496.462</ele>
        <time>2020-02-03T13:44:06Z</time>
      </trkpt>
      <trkpt lat="25.68227" lon="-100.277594">
        <ele>496.804</ele>
        <time>2020-02-03T13:44:07Z</time>
      </trkpt>
      <trkpt lat="25.682289" lon="-100.277651">
        <ele>498.004</ele>
        <time>2020-02-03T13:44:09Z</time>
      </trkpt>
      <trkpt lat="25.682284" lon="-100.277712">
        <ele>497.479</ele>
        <time>2020-02-03T13:44:12Z</time>
      </trkpt>
      <trkpt lat="25.682222" lon="-100.277745">
        <ele>497.674</ele>
        <time>2020-02-03T13:44:15Z</time>
      </trkpt>
      <trkpt lat="25.682121" lon="-100.277729">
        <ele>498.016</ele>
        <time>2020-02-03T13:44:18Z</time>
      </trkpt>
      <trkpt lat="25.682051" lon="-100.277708">
        <ele>497.819</ele>
        <time>2020-02-03T13:44:20Z</time>
      </trkpt>
      <trkpt lat="25.681982" lon="-100.277693">
        <ele>497.937</ele>
        <time>2020-02-03T13:44:22Z</time>
      </trkpt>
      <trkpt lat="25.68192" lon="-100.277689">
        <ele>498.543</ele>
        <time>2020-02-03T13:44:24Z</time>
      </trkpt>
      <trkpt lat="25.68189" lon="-100.277688">
        <ele>499.052</ele>
        <time>2020-02-03T13:44:25Z</time>
      </trkpt>
      <trkpt lat="25.681861" lon="-100.277686">
        <ele>498.338</ele>
        <time>2020-02-03T13:44:26Z</time>
      </trkpt>
      <trkpt lat="25.681834" lon="-100.277687">
        <ele>497.904</ele>
        <time>2020-02-03T13:44:27Z</time>
      </trkpt>
      <trkpt lat="25.681808" lon="-100.27769">
        <ele>497.326</ele>
        <time>2020-02-03T13:44:28Z</time>
      </trkpt>
      <trkpt lat="25.681779" lon="-100.277692">
        <ele>497.901</ele>
        <time>2020-02-03T13:44:29Z</time>
      </trkpt>
      <trkpt lat="25.681671" lon="-100.277696">
        <ele>497.803</ele>
        <time>2020-02-03T13:44:33Z</time>
      </trkpt>
      <trkpt lat="25.681644" lon="-100.277695">
        <ele>498.251</ele>
        <time>2020-02-03T13:44:34Z</time>
      </trkpt>
      <trkpt lat="25.681618" lon="-100.277694">
        <ele>498.361</ele>
        <time>2020-02-03T13:44:35Z</time>
      </trkpt>
      <trkpt lat="25.681595" lon="-100.277691">
        <ele>500.338</ele>
        <time>2020-02-03T13:44:36Z</time>
      </trkpt>
      <trkpt lat="25.68153" lon="-100.277707">
        <ele>495.112</ele>
        <time>2020-02-03T13:44:39Z</time>
      </trkpt>
      <trkpt lat="25.681507" lon="-100.277714">
        <ele>496.705</ele>
        <time>2020-02-03T13:44:40Z</time>
      </trkpt>
      <trkpt lat="25.681425" lon="-100.277699">
        <ele>496.641</ele>
        <time>2020-02-03T13:44:43Z</time>
      </trkpt>
      <trkpt lat="25.681368" lon="-100.277684">
        <ele>497.222</ele>
        <time>2020-02-03T13:44:45Z</time>
      </trkpt>
      <trkpt lat="25.681292" lon="-100.277689">
        <ele>496.575</ele>
        <time>2020-02-03T13:44:48Z</time>
      </trkpt>
      <trkpt lat="25.681266" lon="-100.277689">
        <ele>496.452</ele>
        <time>2020-02-03T13:44:49Z</time>
      </trkpt>
      <trkpt lat="25.68122" lon="-100.277681">
        <ele>496.133</ele>
        <time>2020-02-03T13:44:51Z</time>
      </trkpt>
      <trkpt lat="25.681186" lon="-100.277674">
        <ele>496.585</ele>
        <time>2020-02-03T13:44:53Z</time>
      </trkpt>
      <trkpt lat="25.681163" lon="-100.277671">
        <ele>496.339</ele>
        <time>2020-02-03T13:44:54Z</time>
      </trkpt>
      <trkpt lat="25.681139" lon="-100.27767">
        <ele>497.599</ele>
        <time>2020-02-03T13:44:55Z</time>
      </trkpt>
      <trkpt lat="25.681115" lon="-100.277669">
        <ele>497.272</ele>
        <time>2020-02-03T13:44:56Z</time>
      </trkpt>
      <trkpt lat="25.681064" lon="-100.277671">
        <ele>492.213</ele>
        <time>2020-02-03T13:44:58Z</time>
      </trkpt>
      <trkpt lat="25.681001" lon="-100.277655">
        <ele>491.137</ele>
        <time>2020-02-03T13:45:00Z</time>
      </trkpt>
      <trkpt lat="25.680973" lon="-100.277647">
        <ele>490.995</ele>
        <time>2020-02-03T13:45:01Z</time>
      </trkpt>
      <trkpt lat="25.680927" lon="-100.277646">
        <ele>491.609</ele>
        <time>2020-02-03T13:45:03Z</time>
      </trkpt>
      <trkpt lat="25.680878" lon="-100.277661">
        <ele>491.68</ele>
        <time>2020-02-03T13:45:05Z</time>
      </trkpt>
      <trkpt lat="25.680828" lon="-100.277663">
        <ele>490.892</ele>
        <time>2020-02-03T13:45:07Z</time>
      </trkpt>
      <trkpt lat="25.68075" lon="-100.27766">
        <ele>491.255</ele>
        <time>2020-02-03T13:45:10Z</time>
      </trkpt>
      <trkpt lat="25.680723" lon="-100.277658">
        <ele>492.559</ele>
        <time>2020-02-03T13:45:11Z</time>
      </trkpt>
      <trkpt lat="25.680673" lon="-100.277643">
        <ele>494.238</ele>
        <time>2020-02-03T13:45:13Z</time>
      </trkpt>
      <trkpt lat="25.680648" lon="-100.277633">
        <ele>494.541</ele>
        <time>2020-02-03T13:45:14Z</time>
      </trkpt>
      <trkpt lat="25.680596" lon="-100.277627">
        <ele>494.527</ele>
        <time>2020-02-03T13:45:16Z</time>
      </trkpt>
      <trkpt lat="25.680518" lon="-100.277637">
        <ele>495.367</ele>
        <time>2020-02-03T13:45:19Z</time>
      </trkpt>
      <trkpt lat="25.680491" lon="-100.277639">
        <ele>495.451</ele>
        <time>2020-02-03T13:45:20Z</time>
      </trkpt>
      <trkpt lat="25.680465" lon="-100.277642">
        <ele>494.797</ele>
        <time>2020-02-03T13:45:21Z</time>
      </trkpt>
      <trkpt lat="25.680438" lon="-100.277647">
        <ele>495.212</ele>
        <time>2020-02-03T13:45:22Z</time>
      </trkpt>
      <trkpt lat="25.680387" lon="-100.277662">
        <ele>496.262</ele>
        <time>2020-02-03T13:45:24Z</time>
      </trkpt>
      <trkpt lat="25.680332" lon="-100.277667">
        <ele>496.102</ele>
        <time>2020-02-03T13:45:26Z</time>
      </trkpt>
      <trkpt lat="25.68028" lon="-100.277676">
        <ele>496.148</ele>
        <time>2020-02-03T13:45:28Z</time>
      </trkpt>
      <trkpt lat="25.680251" lon="-100.27768">
        <ele>496.128</ele>
        <time>2020-02-03T13:45:29Z</time>
      </trkpt>
      <trkpt lat="25.680221" lon="-100.277685">
        <ele>496.485</ele>
        <time>2020-02-03T13:45:30Z</time>
      </trkpt>
      <trkpt lat="25.680192" lon="-100.27769">
        <ele>495.239</ele>
        <time>2020-02-03T13:45:31Z</time>
      </trkpt>
      <trkpt lat="25.680164" lon="-100.277693">
        <ele>495.971</ele>
        <time>2020-02-03T13:45:32Z</time>
      </trkpt>
      <trkpt lat="25.680133" lon="-100.277696">
        <ele>495.485</ele>
        <time>2020-02-03T13:45:33Z</time>
      </trkpt>
      <trkpt lat="25.68007" lon="-100.277702">
        <ele>495.107</ele>
        <time>2020-02-03T13:45:35Z</time>
      </trkpt>
      <trkpt lat="25.680013" lon="-100.277712">
        <ele>495.116</ele>
        <time>2020-02-03T13:45:37Z</time>
      </trkpt>
      <trkpt lat="25.679985" lon="-100.277717">
        <ele>495.304</ele>
        <time>2020-02-03T13:45:38Z</time>
      </trkpt>
      <trkpt lat="25.679957" lon="-100.27772">
        <ele>495.401</ele>
        <time>2020-02-03T13:45:39Z</time>
      </trkpt>
      <trkpt lat="25.679929" lon="-100.277721">
        <ele>496.188</ele>
        <time>2020-02-03T13:45:40Z</time>
      </trkpt>
      <trkpt lat="25.679903" lon="-100.277724">
        <ele>496.37</ele>
        <time>2020-02-03T13:45:41Z</time>
      </trkpt>
      <trkpt lat="25.679877" lon="-100.277726">
        <ele>495.761</ele>
        <time>2020-02-03T13:45:42Z</time>
      </trkpt>
      <trkpt lat="25.679825" lon="-100.277729">
        <ele>496.024</ele>
        <time>2020-02-03T13:45:44Z</time>
      </trkpt>
      <trkpt lat="25.679776" lon="-100.277742">
        <ele>499.325</ele>
        <time>2020-02-03T13:45:46Z</time>
      </trkpt>
      <trkpt lat="25.679732" lon="-100.27775">
        <ele>500.405</ele>
        <time>2020-02-03T13:45:48Z</time>
      </trkpt>
      <trkpt lat="25.679686" lon="-100.277751">
        <ele>498.498</ele>
        <time>2020-02-03T13:45:50Z</time>
      </trkpt>
      <trkpt lat="25.679633" lon="-100.27774">
        <ele>497.788</ele>
        <time>2020-02-03T13:45:52Z</time>
      </trkpt>
      <trkpt lat="25.679604" lon="-100.277734">
        <ele>499.995</ele>
        <time>2020-02-03T13:45:53Z</time>
      </trkpt>
      <trkpt lat="25.67955" lon="-100.277729">
        <ele>499.556</ele>
        <time>2020-02-03T13:45:55Z</time>
      </trkpt>
      <trkpt lat="25.6795" lon="-100.277748">
        <ele>498.856</ele>
        <time>2020-02-03T13:45:57Z</time>
      </trkpt>
      <trkpt lat="25.679453" lon="-100.277783">
        <ele>499.728</ele>
        <time>2020-02-03T13:45:59Z</time>
      </trkpt>
      <trkpt lat="25.67943" lon="-100.277802">
        <ele>500.803</ele>
        <time>2020-02-03T13:46:00Z</time>
      </trkpt>
      <trkpt lat="25.679409" lon="-100.27782">
        <ele>500.742</ele>
        <time>2020-02-03T13:46:01Z</time>
      </trkpt>
      <trkpt lat="25.679362" lon="-100.277852">
        <ele>501.44</ele>
        <time>2020-02-03T13:46:03Z</time>
      </trkpt>
      <trkpt lat="25.679311" lon="-100.277867">
        <ele>499.938</ele>
        <time>2020-02-03T13:46:05Z</time>
      </trkpt>
      <trkpt lat="25.679262" lon="-100.277878">
        <ele>499.497</ele>
        <time>2020-02-03T13:46:07Z</time>
      </trkpt>
      <trkpt lat="25.679238" lon="-100.277886">
        <ele>500.158</ele>
        <time>2020-02-03T13:46:08Z</time>
      </trkpt>
      <trkpt lat="25.679215" lon="-100.277895">
        <ele>499.655</ele>
        <time>2020-02-03T13:46:09Z</time>
      </trkpt>
      <trkpt lat="25.679194" lon="-100.277907">
        <ele>499.655</ele>
        <time>2020-02-03T13:46:10Z</time>
      </trkpt>
      <trkpt lat="25.679158" lon="-100.277939">
        <ele>499.655</ele>
        <time>2020-02-03T13:46:12Z</time>
      </trkpt>
      <trkpt lat="25.679146" lon="-100.277993">
        <ele>496.259</ele>
        <time>2020-02-03T13:46:15Z</time>
      </trkpt>
      <trkpt lat="25.679146" lon="-100.277993">
        <ele>496.935</ele>
        <time>2020-02-03T13:46:21Z</time>
      </trkpt>
      <trkpt lat="25.679146" lon="-100.277993">
        <ele>496.672</ele>
        <time>2020-02-03T13:46:22Z</time>
      </trkpt>
      <trkpt lat="25.67915" lon="-100.278052">
        <ele>496.331</ele>
        <time>2020-02-03T13:46:40Z</time>
      </trkpt>
      <trkpt lat="25.6791" lon="-100.278105">
        <ele>497.062</ele>
        <time>2020-02-03T13:46:44Z</time>
      </trkpt>
      <trkpt lat="25.679079" lon="-100.278123">
        <ele>496.728</ele>
        <time>2020-02-03T13:46:45Z</time>
      </trkpt>
      <trkpt lat="25.679057" lon="-100.278142">
        <ele>496.679</ele>
        <time>2020-02-03T13:46:46Z</time>
      </trkpt>
      <trkpt lat="25.679036" lon="-100.278161">
        <ele>496.709</ele>
        <time>2020-02-03T13:46:47Z</time>
      </trkpt>
      <trkpt lat="25.679014" lon="-100.27818">
        <ele>497.278</ele>
        <time>2020-02-03T13:46:48Z</time>
      </trkpt>
      <trkpt lat="25.678992" lon="-100.2782">
        <ele>497.405</ele>
        <time>2020-02-03T13:46:49Z</time>
      </trkpt>
      <trkpt lat="25.678971" lon="-100.278219">
        <ele>497.997</ele>
        <time>2020-02-03T13:46:50Z</time>
      </trkpt>
      <trkpt lat="25.678923" lon="-100.278245">
        <ele>495.499</ele>
        <time>2020-02-03T13:46:52Z</time>
      </trkpt>
      <trkpt lat="25.6789" lon="-100.278261">
        <ele>495.685</ele>
        <time>2020-02-03T13:46:53Z</time>
      </trkpt>
      <trkpt lat="25.678861" lon="-100.278301">
        <ele>495.796</ele>
        <time>2020-02-03T13:46:55Z</time>
      </trkpt>
      <trkpt lat="25.678841" lon="-100.278322">
        <ele>496.317</ele>
        <time>2020-02-03T13:46:56Z</time>
      </trkpt>
      <trkpt lat="25.67882" lon="-100.278342">
        <ele>495.645</ele>
        <time>2020-02-03T13:46:57Z</time>
      </trkpt>
      <trkpt lat="25.6788" lon="-100.278363">
        <ele>496.348</ele>
        <time>2020-02-03T13:46:58Z</time>
      </trkpt>
      <trkpt lat="25.678771" lon="-100.278411">
        <ele>496.5</ele>
        <time>2020-02-03T13:47:00Z</time>
      </trkpt>
      <trkpt lat="25.678765" lon="-100.278468">
        <ele>494.47</ele>
        <time>2020-02-03T13:47:02Z</time>
      </trkpt>
      <trkpt lat="25.678773" lon="-100.278527">
        <ele>495.725</ele>
        <time>2020-02-03T13:47:04Z</time>
      </trkpt>
      <trkpt lat="25.678777" lon="-100.278556">
        <ele>495.898</ele>
        <time>2020-02-03T13:47:05Z</time>
      </trkpt>
      <trkpt lat="25.678789" lon="-100.278611">
        <ele>495.461</ele>
        <time>2020-02-03T13:47:07Z</time>
      </trkpt>
      <trkpt lat="25.678797" lon="-100.278641">
        <ele>495.338</ele>
        <time>2020-02-03T13:47:08Z</time>
      </trkpt>
      <trkpt lat="25.67883" lon="-100.278691">
        <ele>495.036</ele>
        <time>2020-02-03T13:47:10Z</time>
      </trkpt>
      <trkpt lat="25.678874" lon="-100.27872">
        <ele>494.493</ele>
        <time>2020-02-03T13:47:12Z</time>
      </trkpt>
      <trkpt lat="25.678924" lon="-100.278734">
        <ele>494.457</ele>
        <time>2020-02-03T13:47:16Z</time>
      </trkpt>
      <trkpt lat="25.67894" lon="-100.278714">
        <ele>494.054</ele>
        <time>2020-02-03T13:47:23Z</time>
      </trkpt>
      <trkpt lat="25.678968" lon="-100.278714">
        <ele>492.498</ele>
        <time>2020-02-03T13:47:27Z</time>
      </trkpt>
      <trkpt lat="25.679003" lon="-100.278714">
        <ele>492.458</ele>
        <time>2020-02-03T13:47:29Z</time>
      </trkpt>
      <trkpt lat="25.679026" lon="-100.278712">
        <ele>493.011</ele>
        <time>2020-02-03T13:47:30Z</time>
      </trkpt>
      <trkpt lat="25.679074" lon="-100.278698">
        <ele>493.422</ele>
        <time>2020-02-03T13:47:32Z</time>
      </trkpt>
      <trkpt lat="25.679124" lon="-100.27867">
        <ele>493.625</ele>
        <time>2020-02-03T13:47:34Z</time>
      </trkpt>
      <trkpt lat="25.679178" lon="-100.278654">
        <ele>493.249</ele>
        <time>2020-02-03T13:47:36Z</time>
      </trkpt>
      <trkpt lat="25.679278" lon="-100.278648">
        <ele>492.967</ele>
        <time>2020-02-03T13:47:39Z</time>
      </trkpt>
      <trkpt lat="25.679311" lon="-100.278645">
        <ele>493.475</ele>
        <time>2020-02-03T13:47:40Z</time>
      </trkpt>
      <trkpt lat="25.679373" lon="-100.278626">
        <ele>493.507</ele>
        <time>2020-02-03T13:47:42Z</time>
      </trkpt>
      <trkpt lat="25.679405" lon="-100.278614">
        <ele>493.517</ele>
        <time>2020-02-03T13:47:43Z</time>
      </trkpt>
      <trkpt lat="25.679469" lon="-100.278604">
        <ele>492.946</ele>
        <time>2020-02-03T13:47:45Z</time>
      </trkpt>
      <trkpt lat="25.6795" lon="-100.278598">
        <ele>493.14</ele>
        <time>2020-02-03T13:47:46Z</time>
      </trkpt>
      <trkpt lat="25.67953" lon="-100.278591">
        <ele>491.853</ele>
        <time>2020-02-03T13:47:47Z</time>
      </trkpt>
      <trkpt lat="25.679564" lon="-100.278585">
        <ele>492.467</ele>
        <time>2020-02-03T13:47:48Z</time>
      </trkpt>
      <trkpt lat="25.679633" lon="-100.278587">
        <ele>492.701</ele>
        <time>2020-02-03T13:47:50Z</time>
      </trkpt>
      <trkpt lat="25.679757" lon="-100.278597">
        <ele>493.238</ele>
        <time>2020-02-03T13:47:53Z</time>
      </trkpt>
      <trkpt lat="25.679791" lon="-100.2786">
        <ele>492.971</ele>
        <time>2020-02-03T13:47:54Z</time>
      </trkpt>
      <trkpt lat="25.679827" lon="-100.278602">
        <ele>493.496</ele>
        <time>2020-02-03T13:47:55Z</time>
      </trkpt>
      <trkpt lat="25.679861" lon="-100.278605">
        <ele>493.954</ele>
        <time>2020-02-03T13:47:56Z</time>
      </trkpt>
      <trkpt lat="25.679893" lon="-100.278607">
        <ele>494.569</ele>
        <time>2020-02-03T13:47:57Z</time>
      </trkpt>
      <trkpt lat="25.679925" lon="-100.278608">
        <ele>494.791</ele>
        <time>2020-02-03T13:47:58Z</time>
      </trkpt>
      <trkpt lat="25.679954" lon="-100.278611">
        <ele>495.079</ele>
        <time>2020-02-03T13:47:59Z</time>
      </trkpt>
      <trkpt lat="25.679985" lon="-100.278615">
        <ele>496.13</ele>
        <time>2020-02-03T13:48:00Z</time>
      </trkpt>
      <trkpt lat="25.680018" lon="-100.278623">
        <ele>497.201</ele>
        <time>2020-02-03T13:48:01Z</time>
      </trkpt>
      <trkpt lat="25.68005" lon="-100.278633">
        <ele>495.349</ele>
        <time>2020-02-03T13:48:02Z</time>
      </trkpt>
      <trkpt lat="25.680082" lon="-100.278645">
        <ele>494.502</ele>
        <time>2020-02-03T13:48:03Z</time>
      </trkpt>
      <trkpt lat="25.680112" lon="-100.278661">
        <ele>494.397</ele>
        <time>2020-02-03T13:48:04Z</time>
      </trkpt>
      <trkpt lat="25.680168" lon="-100.278696">
        <ele>494.222</ele>
        <time>2020-02-03T13:48:06Z</time>
      </trkpt>
      <trkpt lat="25.680226" lon="-100.278718">
        <ele>494.437</ele>
        <time>2020-02-03T13:48:08Z</time>
      </trkpt>
      <trkpt lat="25.680256" lon="-100.278729">
        <ele>495.423</ele>
        <time>2020-02-03T13:48:09Z</time>
      </trkpt>
      <trkpt lat="25.680334" lon="-100.278786">
        <ele>495.019</ele>
        <time>2020-02-03T13:48:12Z</time>
      </trkpt>
      <trkpt lat="25.680382" lon="-100.278837">
        <ele>494.82</ele>
        <time>2020-02-03T13:48:14Z</time>
      </trkpt>
      <trkpt lat="25.680407" lon="-100.278865">
        <ele>496.333</ele>
        <time>2020-02-03T13:48:15Z</time>
      </trkpt>
      <trkpt lat="25.680434" lon="-100.278895">
        <ele>495.61</ele>
        <time>2020-02-03T13:48:16Z</time>
      </trkpt>
      <trkpt lat="25.680459" lon="-100.278926">
        <ele>494.797</ele>
        <time>2020-02-03T13:48:17Z</time>
      </trkpt>
      <trkpt lat="25.680482" lon="-100.278958">
        <ele>493.878</ele>
        <time>2020-02-03T13:48:18Z</time>
      </trkpt>
      <trkpt lat="25.680514" lon="-100.279027">
        <ele>493.446</ele>
        <time>2020-02-03T13:48:20Z</time>
      </trkpt>
      <trkpt lat="25.680529" lon="-100.279058">
        <ele>492.938</ele>
        <time>2020-02-03T13:48:21Z</time>
      </trkpt>
      <trkpt lat="25.680565" lon="-100.279108">
        <ele>493.261</ele>
        <time>2020-02-03T13:48:23Z</time>
      </trkpt>
      <trkpt lat="25.680584" lon="-100.27913">
        <ele>493.215</ele>
        <time>2020-02-03T13:48:24Z</time>
      </trkpt>
      <trkpt lat="25.680602" lon="-100.279151">
        <ele>493.552</ele>
        <time>2020-02-03T13:48:25Z</time>
      </trkpt>
      <trkpt lat="25.68062" lon="-100.279176">
        <ele>493.341</ele>
        <time>2020-02-03T13:48:26Z</time>
      </trkpt>
      <trkpt lat="25.680638" lon="-100.279198">
        <ele>493.141</ele>
        <time>2020-02-03T13:48:27Z</time>
      </trkpt>
      <trkpt lat="25.680655" lon="-100.279223">
        <ele>493.617</ele>
        <time>2020-02-03T13:48:28Z</time>
      </trkpt>
      <trkpt lat="25.680672" lon="-100.27925">
        <ele>493.275</ele>
        <time>2020-02-03T13:48:29Z</time>
      </trkpt>
      <trkpt lat="25.680688" lon="-100.279277">
        <ele>492.911</ele>
        <time>2020-02-03T13:48:30Z</time>
      </trkpt>
      <trkpt lat="25.680705" lon="-100.279305">
        <ele>492.213</ele>
        <time>2020-02-03T13:48:31Z</time>
      </trkpt>
      <trkpt lat="25.680719" lon="-100.27933">
        <ele>491.695</ele>
        <time>2020-02-03T13:48:32Z</time>
      </trkpt>
      <trkpt lat="25.680747" lon="-100.279374">
        <ele>491.835</ele>
        <time>2020-02-03T13:48:34Z</time>
      </trkpt>
      <trkpt lat="25.68077" lon="-100.279441">
        <ele>491.808</ele>
        <time>2020-02-03T13:48:37Z</time>
      </trkpt>
      <trkpt lat="25.68078" lon="-100.27949">
        <ele>492.178</ele>
        <time>2020-02-03T13:48:39Z</time>
      </trkpt>
      <trkpt lat="25.680792" lon="-100.279548">
        <ele>493.343</ele>
        <time>2020-02-03T13:48:41Z</time>
      </trkpt>
      <trkpt lat="25.680791" lon="-100.27962">
        <ele>493.161</ele>
        <time>2020-02-03T13:48:43Z</time>
      </trkpt>
      <trkpt lat="25.680791" lon="-100.279655">
        <ele>492.909</ele>
        <time>2020-02-03T13:48:44Z</time>
      </trkpt>
      <trkpt lat="25.680804" lon="-100.27972">
        <ele>492.124</ele>
        <time>2020-02-03T13:48:46Z</time>
      </trkpt>
      <trkpt lat="25.680811" lon="-100.27975">
        <ele>492.079</ele>
        <time>2020-02-03T13:48:47Z</time>
      </trkpt>
      <trkpt lat="25.680822" lon="-100.27981">
        <ele>492.195</ele>
        <time>2020-02-03T13:48:49Z</time>
      </trkpt>
      <trkpt lat="25.680838" lon="-100.279869">
        <ele>492.509</ele>
        <time>2020-02-03T13:48:51Z</time>
      </trkpt>
      <trkpt lat="25.680844" lon="-100.2799">
        <ele>494.242</ele>
        <time>2020-02-03T13:48:52Z</time>
      </trkpt>
      <trkpt lat="25.68085" lon="-100.279927">
        <ele>494.215</ele>
        <time>2020-02-03T13:48:53Z</time>
      </trkpt>
      <trkpt lat="25.680852" lon="-100.279985">
        <ele>494.308</ele>
        <time>2020-02-03T13:48:55Z</time>
      </trkpt>
      <trkpt lat="25.680851" lon="-100.280016">
        <ele>493.45</ele>
        <time>2020-02-03T13:48:56Z</time>
      </trkpt>
      <trkpt lat="25.68085" lon="-100.280045">
        <ele>493.439</ele>
        <time>2020-02-03T13:48:57Z</time>
      </trkpt>
      <trkpt lat="25.68085" lon="-100.280073">
        <ele>493.408</ele>
        <time>2020-02-03T13:48:58Z</time>
      </trkpt>
      <trkpt lat="25.680854" lon="-100.28013">
        <ele>493.389</ele>
        <time>2020-02-03T13:49:00Z</time>
      </trkpt>
      <trkpt lat="25.680855" lon="-100.280157">
        <ele>493.505</ele>
        <time>2020-02-03T13:49:01Z</time>
      </trkpt>
      <trkpt lat="25.680855" lon="-100.280186">
        <ele>493.614</ele>
        <time>2020-02-03T13:49:02Z</time>
      </trkpt>
      <trkpt lat="25.680853" lon="-100.280213">
        <ele>493.651</ele>
        <time>2020-02-03T13:49:03Z</time>
      </trkpt>
      <trkpt lat="25.680852" lon="-100.280239">
        <ele>494.457</ele>
        <time>2020-02-03T13:49:04Z</time>
      </trkpt>
      <trkpt lat="25.680852" lon="-100.280267">
        <ele>491.974</ele>
        <time>2020-02-03T13:49:05Z</time>
      </trkpt>
      <trkpt lat="25.680846" lon="-100.28033">
        <ele>492.436</ele>
        <time>2020-02-03T13:49:07Z</time>
      </trkpt>
      <trkpt lat="25.680847" lon="-100.280393">
        <ele>492.228</ele>
        <time>2020-02-03T13:49:09Z</time>
      </trkpt>
      <trkpt lat="25.680864" lon="-100.280479">
        <ele>492.727</ele>
        <time>2020-02-03T13:49:12Z</time>
      </trkpt>
      <trkpt lat="25.68087" lon="-100.280508">
        <ele>492.783</ele>
        <time>2020-02-03T13:49:13Z</time>
      </trkpt>
      <trkpt lat="25.680877" lon="-100.280538">
        <ele>492.636</ele>
        <time>2020-02-03T13:49:14Z</time>
      </trkpt>
      <trkpt lat="25.680885" lon="-100.280566">
        <ele>492.387</ele>
        <time>2020-02-03T13:49:15Z</time>
      </trkpt>
      <trkpt lat="25.680889" lon="-100.280594">
        <ele>492.469</ele>
        <time>2020-02-03T13:49:16Z</time>
      </trkpt>
      <trkpt lat="25.680895" lon="-100.28062">
        <ele>492.445</ele>
        <time>2020-02-03T13:49:17Z</time>
      </trkpt>
      <trkpt lat="25.680901" lon="-100.280647">
        <ele>491.74</ele>
        <time>2020-02-03T13:49:18Z</time>
      </trkpt>
      <trkpt lat="25.68091" lon="-100.2807">
        <ele>491.134</ele>
        <time>2020-02-03T13:49:20Z</time>
      </trkpt>
      <trkpt lat="25.680912" lon="-100.280764">
        <ele>491.834</ele>
        <time>2020-02-03T13:49:22Z</time>
      </trkpt>
      <trkpt lat="25.680911" lon="-100.280799">
        <ele>491.293</ele>
        <time>2020-02-03T13:49:23Z</time>
      </trkpt>
      <trkpt lat="25.680911" lon="-100.280831">
        <ele>492.32</ele>
        <time>2020-02-03T13:49:24Z</time>
      </trkpt>
      <trkpt lat="25.680919" lon="-100.280897">
        <ele>492.749</ele>
        <time>2020-02-03T13:49:26Z</time>
      </trkpt>
      <trkpt lat="25.680937" lon="-100.280958">
        <ele>492.332</ele>
        <time>2020-02-03T13:49:28Z</time>
      </trkpt>
      <trkpt lat="25.680943" lon="-100.281017">
        <ele>492.679</ele>
        <time>2020-02-03T13:49:30Z</time>
      </trkpt>
      <trkpt lat="25.680941" lon="-100.281075">
        <ele>492.896</ele>
        <time>2020-02-03T13:49:32Z</time>
      </trkpt>
      <trkpt lat="25.680939" lon="-100.281134">
        <ele>493.238</ele>
        <time>2020-02-03T13:49:34Z</time>
      </trkpt>
      <trkpt lat="25.680939" lon="-100.281196">
        <ele>493.075</ele>
        <time>2020-02-03T13:49:36Z</time>
      </trkpt>
      <trkpt lat="25.680939" lon="-100.281259">
        <ele>493.501</ele>
        <time>2020-02-03T13:49:38Z</time>
      </trkpt>
      <trkpt lat="25.680938" lon="-100.281291">
        <ele>492.86</ele>
        <time>2020-02-03T13:49:39Z</time>
      </trkpt>
      <trkpt lat="25.680938" lon="-100.281321">
        <ele>492.465</ele>
        <time>2020-02-03T13:49:40Z</time>
      </trkpt>
      <trkpt lat="25.680938" lon="-100.281352">
        <ele>492.425</ele>
        <time>2020-02-03T13:49:41Z</time>
      </trkpt>
      <trkpt lat="25.68095" lon="-100.281449">
        <ele>492.653</ele>
        <time>2020-02-03T13:49:44Z</time>
      </trkpt>
      <trkpt lat="25.680951" lon="-100.281483">
        <ele>492.376</ele>
        <time>2020-02-03T13:49:45Z</time>
      </trkpt>
      <trkpt lat="25.680951" lon="-100.281517">
        <ele>490.975</ele>
        <time>2020-02-03T13:49:46Z</time>
      </trkpt>
      <trkpt lat="25.680949" lon="-100.281548">
        <ele>491.285</ele>
        <time>2020-02-03T13:49:47Z</time>
      </trkpt>
      <trkpt lat="25.680946" lon="-100.28158">
        <ele>492.366</ele>
        <time>2020-02-03T13:49:48Z</time>
      </trkpt>
      <trkpt lat="25.68094" lon="-100.281612">
        <ele>492.992</ele>
        <time>2020-02-03T13:49:49Z</time>
      </trkpt>
      <trkpt lat="25.680937" lon="-100.281643">
        <ele>492.939</ele>
        <time>2020-02-03T13:49:50Z</time>
      </trkpt>
      <trkpt lat="25.680942" lon="-100.281702">
        <ele>492.636</ele>
        <time>2020-02-03T13:49:52Z</time>
      </trkpt>
      <trkpt lat="25.680954" lon="-100.281763">
        <ele>492.687</ele>
        <time>2020-02-03T13:49:54Z</time>
      </trkpt>
      <trkpt lat="25.680955" lon="-100.281827">
        <ele>492.573</ele>
        <time>2020-02-03T13:49:56Z</time>
      </trkpt>
      <trkpt lat="25.680957" lon="-100.281858">
        <ele>492.873</ele>
        <time>2020-02-03T13:49:57Z</time>
      </trkpt>
      <trkpt lat="25.680963" lon="-100.281916">
        <ele>494.808</ele>
        <time>2020-02-03T13:49:59Z</time>
      </trkpt>
      <trkpt lat="25.680965" lon="-100.281946">
        <ele>495.3</ele>
        <time>2020-02-03T13:50:00Z</time>
      </trkpt>
      <trkpt lat="25.680968" lon="-100.281976">
        <ele>495.965</ele>
        <time>2020-02-03T13:50:01Z</time>
      </trkpt>
      <trkpt lat="25.680973" lon="-100.282007">
        <ele>495.936</ele>
        <time>2020-02-03T13:50:02Z</time>
      </trkpt>
      <trkpt lat="25.680981" lon="-100.282068">
        <ele>494.381</ele>
        <time>2020-02-03T13:50:04Z</time>
      </trkpt>
      <trkpt lat="25.680979" lon="-100.282129">
        <ele>493.672</ele>
        <time>2020-02-03T13:50:06Z</time>
      </trkpt>
      <trkpt lat="25.680981" lon="-100.282194">
        <ele>493.175</ele>
        <time>2020-02-03T13:50:08Z</time>
      </trkpt>
      <trkpt lat="25.680994" lon="-100.282263">
        <ele>493.124</ele>
        <time>2020-02-03T13:50:10Z</time>
      </trkpt>
      <trkpt lat="25.681" lon="-100.282295">
        <ele>493.092</ele>
        <time>2020-02-03T13:50:11Z</time>
      </trkpt>
      <trkpt lat="25.681005" lon="-100.282326">
        <ele>493.234</ele>
        <time>2020-02-03T13:50:12Z</time>
      </trkpt>
      <trkpt lat="25.681006" lon="-100.282389">
        <ele>492.787</ele>
        <time>2020-02-03T13:50:14Z</time>
      </trkpt>
      <trkpt lat="25.681008" lon="-100.282422">
        <ele>491.774</ele>
        <time>2020-02-03T13:50:15Z</time>
      </trkpt>
      <trkpt lat="25.681008" lon="-100.282457">
        <ele>491.239</ele>
        <time>2020-02-03T13:50:16Z</time>
      </trkpt>
      <trkpt lat="25.681009" lon="-100.282522">
        <ele>490.614</ele>
        <time>2020-02-03T13:50:18Z</time>
      </trkpt>
      <trkpt lat="25.681004" lon="-100.282586">
        <ele>490.882</ele>
        <time>2020-02-03T13:50:20Z</time>
      </trkpt>
      <trkpt lat="25.681002" lon="-100.282618">
        <ele>490.587</ele>
        <time>2020-02-03T13:50:21Z</time>
      </trkpt>
      <trkpt lat="25.680999" lon="-100.282677">
        <ele>490.089</ele>
        <time>2020-02-03T13:50:23Z</time>
      </trkpt>
      <trkpt lat="25.680998" lon="-100.282707">
        <ele>489.987</ele>
        <time>2020-02-03T13:50:24Z</time>
      </trkpt>
      <trkpt lat="25.680996" lon="-100.282736">
        <ele>490.924</ele>
        <time>2020-02-03T13:50:25Z</time>
      </trkpt>
      <trkpt lat="25.680996" lon="-100.282765">
        <ele>491.891</ele>
        <time>2020-02-03T13:50:26Z</time>
      </trkpt>
      <trkpt lat="25.680998" lon="-100.282794">
        <ele>492.622</ele>
        <time>2020-02-03T13:50:27Z</time>
      </trkpt>
      <trkpt lat="25.680999" lon="-100.282826">
        <ele>492.534</ele>
        <time>2020-02-03T13:50:28Z</time>
      </trkpt>
      <trkpt lat="25.681002" lon="-100.282859">
        <ele>492.34</ele>
        <time>2020-02-03T13:50:29Z</time>
      </trkpt>
      <trkpt lat="25.681005" lon="-100.282892">
        <ele>491.501</ele>
        <time>2020-02-03T13:50:30Z</time>
      </trkpt>
      <trkpt lat="25.681002" lon="-100.282957">
        <ele>491.252</ele>
        <time>2020-02-03T13:50:32Z</time>
      </trkpt>
      <trkpt lat="25.681" lon="-100.282988">
        <ele>490.178</ele>
        <time>2020-02-03T13:50:33Z</time>
      </trkpt>
      <trkpt lat="25.680999" lon="-100.283022">
        <ele>491.347</ele>
        <time>2020-02-03T13:50:34Z</time>
      </trkpt>
      <trkpt lat="25.681001" lon="-100.283077">
        <ele>490.559</ele>
        <time>2020-02-03T13:50:36Z</time>
      </trkpt>
      <trkpt lat="25.681" lon="-100.283103">
        <ele>490.597</ele>
        <time>2020-02-03T13:50:37Z</time>
      </trkpt>
      <trkpt lat="25.681" lon="-100.283129">
        <ele>490.324</ele>
        <time>2020-02-03T13:50:38Z</time>
      </trkpt>
      <trkpt lat="25.681011" lon="-100.283184">
        <ele>490.77</ele>
        <time>2020-02-03T13:50:40Z</time>
      </trkpt>
      <trkpt lat="25.681019" lon="-100.283212">
        <ele>490.003</ele>
        <time>2020-02-03T13:50:41Z</time>
      </trkpt>
      <trkpt lat="25.681037" lon="-100.283264">
        <ele>490.248</ele>
        <time>2020-02-03T13:50:43Z</time>
      </trkpt>
      <trkpt lat="25.681046" lon="-100.283295">
        <ele>489.741</ele>
        <time>2020-02-03T13:50:44Z</time>
      </trkpt>
      <trkpt lat="25.681056" lon="-100.283394">
        <ele>489.375</ele>
        <time>2020-02-03T13:50:47Z</time>
      </trkpt>
      <trkpt lat="25.681061" lon="-100.283429">
        <ele>489.486</ele>
        <time>2020-02-03T13:50:48Z</time>
      </trkpt>
      <trkpt lat="25.681064" lon="-100.283461">
        <ele>489.155</ele>
        <time>2020-02-03T13:50:49Z</time>
      </trkpt>
      <trkpt lat="25.681066" lon="-100.283493">
        <ele>489.386</ele>
        <time>2020-02-03T13:50:50Z</time>
      </trkpt>
      <trkpt lat="25.681067" lon="-100.283525">
        <ele>490.131</ele>
        <time>2020-02-03T13:50:51Z</time>
      </trkpt>
      <trkpt lat="25.681066" lon="-100.283556">
        <ele>490.413</ele>
        <time>2020-02-03T13:50:52Z</time>
      </trkpt>
      <trkpt lat="25.681065" lon="-100.283617">
        <ele>490.748</ele>
        <time>2020-02-03T13:50:54Z</time>
      </trkpt>
      <trkpt lat="25.681056" lon="-100.283686">
        <ele>491.151</ele>
        <time>2020-02-03T13:50:56Z</time>
      </trkpt>
      <trkpt lat="25.681034" lon="-100.283748">
        <ele>491.284</ele>
        <time>2020-02-03T13:50:58Z</time>
      </trkpt>
      <trkpt lat="25.680992" lon="-100.283795">
        <ele>492.228</ele>
        <time>2020-02-03T13:51:00Z</time>
      </trkpt>
      <trkpt lat="25.68091" lon="-100.283841">
        <ele>492.598</ele>
        <time>2020-02-03T13:51:03Z</time>
      </trkpt>
      <trkpt lat="25.680884" lon="-100.283854">
        <ele>493.111</ele>
        <time>2020-02-03T13:51:04Z</time>
      </trkpt>
      <trkpt lat="25.680858" lon="-100.283867">
        <ele>492.706</ele>
        <time>2020-02-03T13:51:05Z</time>
      </trkpt>
      <trkpt lat="25.680835" lon="-100.28388">
        <ele>493.345</ele>
        <time>2020-02-03T13:51:06Z</time>
      </trkpt>
      <trkpt lat="25.680812" lon="-100.283894">
        <ele>492.622</ele>
        <time>2020-02-03T13:51:07Z</time>
      </trkpt>
      <trkpt lat="25.680787" lon="-100.283909">
        <ele>493.336</ele>
        <time>2020-02-03T13:51:08Z</time>
      </trkpt>
      <trkpt lat="25.680734" lon="-100.283934">
        <ele>493.55</ele>
        <time>2020-02-03T13:51:10Z</time>
      </trkpt>
      <trkpt lat="25.680709" lon="-100.283947">
        <ele>493.382</ele>
        <time>2020-02-03T13:51:11Z</time>
      </trkpt>
      <trkpt lat="25.680685" lon="-100.28396">
        <ele>493.716</ele>
        <time>2020-02-03T13:51:12Z</time>
      </trkpt>
      <trkpt lat="25.680641" lon="-100.283994">
        <ele>493.537</ele>
        <time>2020-02-03T13:51:14Z</time>
      </trkpt>
      <trkpt lat="25.680602" lon="-100.284034">
        <ele>493.677</ele>
        <time>2020-02-03T13:51:16Z</time>
      </trkpt>
      <trkpt lat="25.680583" lon="-100.284054">
        <ele>492.422</ele>
        <time>2020-02-03T13:51:17Z</time>
      </trkpt>
      <trkpt lat="25.680562" lon="-100.284075">
        <ele>492.3</ele>
        <time>2020-02-03T13:51:18Z</time>
      </trkpt>
      <trkpt lat="25.680535" lon="-100.284116">
        <ele>493.605</ele>
        <time>2020-02-03T13:51:20Z</time>
      </trkpt>
      <trkpt lat="25.68051" lon="-100.284165">
        <ele>494.395</ele>
        <time>2020-02-03T13:51:22Z</time>
      </trkpt>
      <trkpt lat="25.680491" lon="-100.284215">
        <ele>493.939</ele>
        <time>2020-02-03T13:51:24Z</time>
      </trkpt>
      <trkpt lat="25.68048" lon="-100.284243">
        <ele>493.739</ele>
        <time>2020-02-03T13:51:25Z</time>
      </trkpt>
      <trkpt lat="25.680473" lon="-100.284268">
        <ele>494.244</ele>
        <time>2020-02-03T13:51:26Z</time>
      </trkpt>
      <trkpt lat="25.680465" lon="-100.284293">
        <ele>494.531</ele>
        <time>2020-02-03T13:51:27Z</time>
      </trkpt>
      <trkpt lat="25.680458" lon="-100.284322">
        <ele>493.622</ele>
        <time>2020-02-03T13:51:28Z</time>
      </trkpt>
      <trkpt lat="25.680452" lon="-100.284351">
        <ele>493.605</ele>
        <time>2020-02-03T13:51:29Z</time>
      </trkpt>
      <trkpt lat="25.680448" lon="-100.284381">
        <ele>493.748</ele>
        <time>2020-02-03T13:51:30Z</time>
      </trkpt>
      <trkpt lat="25.680449" lon="-100.284443">
        <ele>494.267</ele>
        <time>2020-02-03T13:51:32Z</time>
      </trkpt>
      <trkpt lat="25.680456" lon="-100.284508">
        <ele>494.313</ele>
        <time>2020-02-03T13:51:34Z</time>
      </trkpt>
      <trkpt lat="25.680459" lon="-100.284542">
        <ele>493.896</ele>
        <time>2020-02-03T13:51:35Z</time>
      </trkpt>
      <trkpt lat="25.680464" lon="-100.284576">
        <ele>494.007</ele>
        <time>2020-02-03T13:51:36Z</time>
      </trkpt>
      <trkpt lat="25.680484" lon="-100.284638">
        <ele>493.642</ele>
        <time>2020-02-03T13:51:38Z</time>
      </trkpt>
      <trkpt lat="25.680496" lon="-100.284668">
        <ele>492.673</ele>
        <time>2020-02-03T13:51:39Z</time>
      </trkpt>
      <trkpt lat="25.680506" lon="-100.284698">
        <ele>492.855</ele>
        <time>2020-02-03T13:51:40Z</time>
      </trkpt>
      <trkpt lat="25.680533" lon="-100.284754">
        <ele>492.959</ele>
        <time>2020-02-03T13:51:42Z</time>
      </trkpt>
      <trkpt lat="25.680594" lon="-100.284819">
        <ele>493.399</ele>
        <time>2020-02-03T13:51:45Z</time>
      </trkpt>
      <trkpt lat="25.680615" lon="-100.284843">
        <ele>492.817</ele>
        <time>2020-02-03T13:51:46Z</time>
      </trkpt>
      <trkpt lat="25.680633" lon="-100.284866">
        <ele>493.119</ele>
        <time>2020-02-03T13:51:47Z</time>
      </trkpt>
      <trkpt lat="25.68065" lon="-100.28489">
        <ele>493.043</ele>
        <time>2020-02-03T13:51:48Z</time>
      </trkpt>
      <trkpt lat="25.68067" lon="-100.284913">
        <ele>493.302</ele>
        <time>2020-02-03T13:51:49Z</time>
      </trkpt>
      <trkpt lat="25.680712" lon="-100.284951">
        <ele>493.177</ele>
        <time>2020-02-03T13:51:51Z</time>
      </trkpt>
      <trkpt lat="25.680761" lon="-100.284982">
        <ele>492.996</ele>
        <time>2020-02-03T13:51:53Z</time>
      </trkpt>
      <trkpt lat="25.680818" lon="-100.285008">
        <ele>492.663</ele>
        <time>2020-02-03T13:51:55Z</time>
      </trkpt>
      <trkpt lat="25.680845" lon="-100.285019">
        <ele>492.002</ele>
        <time>2020-02-03T13:51:56Z</time>
      </trkpt>
      <trkpt lat="25.680874" lon="-100.285028">
        <ele>491.523</ele>
        <time>2020-02-03T13:51:57Z</time>
      </trkpt>
      <trkpt lat="25.680905" lon="-100.285035">
        <ele>491.847</ele>
        <time>2020-02-03T13:51:58Z</time>
      </trkpt>
      <trkpt lat="25.680935" lon="-100.285039">
        <ele>492.777</ele>
        <time>2020-02-03T13:51:59Z</time>
      </trkpt>
      <trkpt lat="25.680965" lon="-100.285043">
        <ele>493.347</ele>
        <time>2020-02-03T13:52:00Z</time>
      </trkpt>
      <trkpt lat="25.680996" lon="-100.285047">
        <ele>493.327</ele>
        <time>2020-02-03T13:52:01Z</time>
      </trkpt>
      <trkpt lat="25.681027" lon="-100.285053">
        <ele>493.459</ele>
        <time>2020-02-03T13:52:02Z</time>
      </trkpt>
      <trkpt lat="25.681058" lon="-100.285056">
        <ele>493.424</ele>
        <time>2020-02-03T13:52:03Z</time>
      </trkpt>
      <trkpt lat="25.681156" lon="-100.285045">
        <ele>493.574</ele>
        <time>2020-02-03T13:52:06Z</time>
      </trkpt>
      <trkpt lat="25.681222" lon="-100.28503">
        <ele>493.999</ele>
        <time>2020-02-03T13:52:08Z</time>
      </trkpt>
      <trkpt lat="25.681252" lon="-100.285024">
        <ele>493.519</ele>
        <time>2020-02-03T13:52:09Z</time>
      </trkpt>
      <trkpt lat="25.681283" lon="-100.28502">
        <ele>493.695</ele>
        <time>2020-02-03T13:52:10Z</time>
      </trkpt>
      <trkpt lat="25.681315" lon="-100.285018">
        <ele>494.207</ele>
        <time>2020-02-03T13:52:11Z</time>
      </trkpt>
      <trkpt lat="25.681347" lon="-100.285014">
        <ele>495.015</ele>
        <time>2020-02-03T13:52:12Z</time>
      </trkpt>
      <trkpt lat="25.681379" lon="-100.285012">
        <ele>495.406</ele>
        <time>2020-02-03T13:52:13Z</time>
      </trkpt>
      <trkpt lat="25.681413" lon="-100.285012">
        <ele>495.013</ele>
        <time>2020-02-03T13:52:14Z</time>
      </trkpt>
      <trkpt lat="25.681482" lon="-100.285024">
        <ele>495.51</ele>
        <time>2020-02-03T13:52:16Z</time>
      </trkpt>
      <trkpt lat="25.681545" lon="-100.285048">
        <ele>495.217</ele>
        <time>2020-02-03T13:52:18Z</time>
      </trkpt>
      <trkpt lat="25.681626" lon="-100.285107">
        <ele>494.662</ele>
        <time>2020-02-03T13:52:21Z</time>
      </trkpt>
      <trkpt lat="25.681672" lon="-100.285152">
        <ele>494.768</ele>
        <time>2020-02-03T13:52:23Z</time>
      </trkpt>
      <trkpt lat="25.681714" lon="-100.285202">
        <ele>494.457</ele>
        <time>2020-02-03T13:52:25Z</time>
      </trkpt>
      <trkpt lat="25.681757" lon="-100.285249">
        <ele>494.802</ele>
        <time>2020-02-03T13:52:27Z</time>
      </trkpt>
      <trkpt lat="25.681778" lon="-100.285274">
        <ele>494.691</ele>
        <time>2020-02-03T13:52:28Z</time>
      </trkpt>
      <trkpt lat="25.681811" lon="-100.285363">
        <ele>493.708</ele>
        <time>2020-02-03T13:52:31Z</time>
      </trkpt>
      <trkpt lat="25.681821" lon="-100.285426">
        <ele>492.862</ele>
        <time>2020-02-03T13:52:33Z</time>
      </trkpt>
      <trkpt lat="25.681825" lon="-100.285458">
        <ele>492.246</ele>
        <time>2020-02-03T13:52:34Z</time>
      </trkpt>
      <trkpt lat="25.681828" lon="-100.285489">
        <ele>492.031</ele>
        <time>2020-02-03T13:52:35Z</time>
      </trkpt>
      <trkpt lat="25.681821" lon="-100.285554">
        <ele>492.522</ele>
        <time>2020-02-03T13:52:37Z</time>
      </trkpt>
      <trkpt lat="25.681807" lon="-100.285617">
        <ele>493.206</ele>
        <time>2020-02-03T13:52:39Z</time>
      </trkpt>
      <trkpt lat="25.681798" lon="-100.285648">
        <ele>492.685</ele>
        <time>2020-02-03T13:52:40Z</time>
      </trkpt>
      <trkpt lat="25.681786" lon="-100.285679">
        <ele>493.208</ele>
        <time>2020-02-03T13:52:41Z</time>
      </trkpt>
      <trkpt lat="25.681761" lon="-100.285739">
        <ele>493.109</ele>
        <time>2020-02-03T13:52:43Z</time>
      </trkpt>
      <trkpt lat="25.681729" lon="-100.285793">
        <ele>493.103</ele>
        <time>2020-02-03T13:52:45Z</time>
      </trkpt>
      <trkpt lat="25.681694" lon="-100.285841">
        <ele>493.5</ele>
        <time>2020-02-03T13:52:47Z</time>
      </trkpt>
      <trkpt lat="25.681676" lon="-100.285863">
        <ele>492.83</ele>
        <time>2020-02-03T13:52:48Z</time>
      </trkpt>
      <trkpt lat="25.681657" lon="-100.285885">
        <ele>492.811</ele>
        <time>2020-02-03T13:52:49Z</time>
      </trkpt>
      <trkpt lat="25.681605" lon="-100.285924">
        <ele>491.999</ele>
        <time>2020-02-03T13:52:51Z</time>
      </trkpt>
      <trkpt lat="25.681547" lon="-100.285949">
        <ele>492.357</ele>
        <time>2020-02-03T13:52:53Z</time>
      </trkpt>
      <trkpt lat="25.681519" lon="-100.285959">
        <ele>492.321</ele>
        <time>2020-02-03T13:52:54Z</time>
      </trkpt>
      <trkpt lat="25.681492" lon="-100.285967">
        <ele>492.566</ele>
        <time>2020-02-03T13:52:55Z</time>
      </trkpt>
      <trkpt lat="25.681444" lon="-100.285977">
        <ele>492.888</ele>
        <time>2020-02-03T13:52:57Z</time>
      </trkpt>
      <trkpt lat="25.681418" lon="-100.285982">
        <ele>492.777</ele>
        <time>2020-02-03T13:52:58Z</time>
      </trkpt>
      <trkpt lat="25.681393" lon="-100.285986">
        <ele>493.585</ele>
        <time>2020-02-03T13:52:59Z</time>
      </trkpt>
      <trkpt lat="25.681368" lon="-100.28599">
        <ele>493.296</ele>
        <time>2020-02-03T13:53:00Z</time>
      </trkpt>
      <trkpt lat="25.681342" lon="-100.285993">
        <ele>493.4</ele>
        <time>2020-02-03T13:53:01Z</time>
      </trkpt>
      <trkpt lat="25.681318" lon="-100.285997">
        <ele>493.752</ele>
        <time>2020-02-03T13:53:02Z</time>
      </trkpt>
      <trkpt lat="25.681294" lon="-100.286">
        <ele>494.161</ele>
        <time>2020-02-03T13:53:03Z</time>
      </trkpt>
      <trkpt lat="25.681269" lon="-100.286004">
        <ele>495.268</ele>
        <time>2020-02-03T13:53:04Z</time>
      </trkpt>
      <trkpt lat="25.681243" lon="-100.286007">
        <ele>495.673</ele>
        <time>2020-02-03T13:53:05Z</time>
      </trkpt>
      <trkpt lat="25.681218" lon="-100.28601">
        <ele>495.396</ele>
        <time>2020-02-03T13:53:06Z</time>
      </trkpt>
      <trkpt lat="25.681192" lon="-100.286012">
        <ele>496.126</ele>
        <time>2020-02-03T13:53:07Z</time>
      </trkpt>
      <trkpt lat="25.681106" lon="-100.286005">
        <ele>496.497</ele>
        <time>2020-02-03T13:53:10Z</time>
      </trkpt>
      <trkpt lat="25.681047" lon="-100.286011">
        <ele>496.118</ele>
        <time>2020-02-03T13:53:12Z</time>
      </trkpt>
      <trkpt lat="25.681018" lon="-100.286013">
        <ele>496.783</ele>
        <time>2020-02-03T13:53:13Z</time>
      </trkpt>
      <trkpt lat="25.680992" lon="-100.286014">
        <ele>496.778</ele>
        <time>2020-02-03T13:53:14Z</time>
      </trkpt>
      <trkpt lat="25.68094" lon="-100.28602">
        <ele>497.101</ele>
        <time>2020-02-03T13:53:16Z</time>
      </trkpt>
      <trkpt lat="25.680914" lon="-100.286022">
        <ele>497.017</ele>
        <time>2020-02-03T13:53:17Z</time>
      </trkpt>
      <trkpt lat="25.680888" lon="-100.286024">
        <ele>496.478</ele>
        <time>2020-02-03T13:53:18Z</time>
      </trkpt>
      <trkpt lat="25.680861" lon="-100.286027">
        <ele>496.79</ele>
        <time>2020-02-03T13:53:19Z</time>
      </trkpt>
      <trkpt lat="25.680833" lon="-100.286033">
        <ele>496.957</ele>
        <time>2020-02-03T13:53:20Z</time>
      </trkpt>
      <trkpt lat="25.680776" lon="-100.286044">
        <ele>497.086</ele>
        <time>2020-02-03T13:53:22Z</time>
      </trkpt>
      <trkpt lat="25.680748" lon="-100.286049">
        <ele>497.511</ele>
        <time>2020-02-03T13:53:23Z</time>
      </trkpt>
      <trkpt lat="25.680721" lon="-100.286055">
        <ele>497.513</ele>
        <time>2020-02-03T13:53:24Z</time>
      </trkpt>
      <trkpt lat="25.680694" lon="-100.286061">
        <ele>497.388</ele>
        <time>2020-02-03T13:53:25Z</time>
      </trkpt>
      <trkpt lat="25.680668" lon="-100.286065">
        <ele>497.392</ele>
        <time>2020-02-03T13:53:26Z</time>
      </trkpt>
      <trkpt lat="25.680642" lon="-100.286071">
        <ele>496.657</ele>
        <time>2020-02-03T13:53:27Z</time>
      </trkpt>
      <trkpt lat="25.680558" lon="-100.286083">
        <ele>497.56</ele>
        <time>2020-02-03T13:53:30Z</time>
      </trkpt>
      <trkpt lat="25.68053" lon="-100.286089">
        <ele>496.807</ele>
        <time>2020-02-03T13:53:31Z</time>
      </trkpt>
      <trkpt lat="25.680503" lon="-100.286094">
        <ele>497.805</ele>
        <time>2020-02-03T13:53:32Z</time>
      </trkpt>
      <trkpt lat="25.680449" lon="-100.286101">
        <ele>498.337</ele>
        <time>2020-02-03T13:53:34Z</time>
      </trkpt>
      <trkpt lat="25.680422" lon="-100.286106">
        <ele>498.994</ele>
        <time>2020-02-03T13:53:35Z</time>
      </trkpt>
      <trkpt lat="25.68037" lon="-100.286123">
        <ele>498.245</ele>
        <time>2020-02-03T13:53:37Z</time>
      </trkpt>
      <trkpt lat="25.680344" lon="-100.28613">
        <ele>498.735</ele>
        <time>2020-02-03T13:53:38Z</time>
      </trkpt>
      <trkpt lat="25.68029" lon="-100.286137">
        <ele>499.081</ele>
        <time>2020-02-03T13:53:40Z</time>
      </trkpt>
      <trkpt lat="25.680262" lon="-100.28614">
        <ele>498.624</ele>
        <time>2020-02-03T13:53:41Z</time>
      </trkpt>
      <trkpt lat="25.680234" lon="-100.286141">
        <ele>498.386</ele>
        <time>2020-02-03T13:53:42Z</time>
      </trkpt>
      <trkpt lat="25.680206" lon="-100.286145">
        <ele>498.622</ele>
        <time>2020-02-03T13:53:43Z</time>
      </trkpt>
      <trkpt lat="25.680151" lon="-100.286153">
        <ele>498.384</ele>
        <time>2020-02-03T13:53:45Z</time>
      </trkpt>
      <trkpt lat="25.680123" lon="-100.286158">
        <ele>499.251</ele>
        <time>2020-02-03T13:53:46Z</time>
      </trkpt>
      <trkpt lat="25.680096" lon="-100.286162">
        <ele>500.178</ele>
        <time>2020-02-03T13:53:47Z</time>
      </trkpt>
      <trkpt lat="25.680068" lon="-100.286166">
        <ele>500.323</ele>
        <time>2020-02-03T13:53:48Z</time>
      </trkpt>
      <trkpt lat="25.68004" lon="-100.286166">
        <ele>500.092</ele>
        <time>2020-02-03T13:53:49Z</time>
      </trkpt>
      <trkpt lat="25.679985" lon="-100.286164">
        <ele>500.184</ele>
        <time>2020-02-03T13:53:51Z</time>
      </trkpt>
      <trkpt lat="25.679954" lon="-100.286161">
        <ele>500.441</ele>
        <time>2020-02-03T13:53:52Z</time>
      </trkpt>
      <trkpt lat="25.679924" lon="-100.286159">
        <ele>500.536</ele>
        <time>2020-02-03T13:53:53Z</time>
      </trkpt>
      <trkpt lat="25.679863" lon="-100.286166">
        <ele>500.588</ele>
        <time>2020-02-03T13:53:55Z</time>
      </trkpt>
      <trkpt lat="25.679833" lon="-100.28617">
        <ele>500.729</ele>
        <time>2020-02-03T13:53:56Z</time>
      </trkpt>
      <trkpt lat="25.679805" lon="-100.286171">
        <ele>501.091</ele>
        <time>2020-02-03T13:53:57Z</time>
      </trkpt>
      <trkpt lat="25.679778" lon="-100.286171">
        <ele>501.146</ele>
        <time>2020-02-03T13:53:58Z</time>
      </trkpt>
      <trkpt lat="25.679751" lon="-100.286172">
        <ele>500.764</ele>
        <time>2020-02-03T13:53:59Z</time>
      </trkpt>
      <trkpt lat="25.679723" lon="-100.286174">
        <ele>501.758</ele>
        <time>2020-02-03T13:54:00Z</time>
      </trkpt>
      <trkpt lat="25.679695" lon="-100.286177">
        <ele>502.047</ele>
        <time>2020-02-03T13:54:01Z</time>
      </trkpt>
      <trkpt lat="25.679667" lon="-100.286182">
        <ele>502.103</ele>
        <time>2020-02-03T13:54:02Z</time>
      </trkpt>
      <trkpt lat="25.679638" lon="-100.286186">
        <ele>501.981</ele>
        <time>2020-02-03T13:54:03Z</time>
      </trkpt>
      <trkpt lat="25.679609" lon="-100.286189">
        <ele>501.896</ele>
        <time>2020-02-03T13:54:04Z</time>
      </trkpt>
      <trkpt lat="25.679581" lon="-100.286194">
        <ele>501.841</ele>
        <time>2020-02-03T13:54:05Z</time>
      </trkpt>
      <trkpt lat="25.679552" lon="-100.286197">
        <ele>501.415</ele>
        <time>2020-02-03T13:54:06Z</time>
      </trkpt>
      <trkpt lat="25.679523" lon="-100.2862">
        <ele>502.282</ele>
        <time>2020-02-03T13:54:07Z</time>
      </trkpt>
      <trkpt lat="25.679494" lon="-100.286202">
        <ele>502.198</ele>
        <time>2020-02-03T13:54:08Z</time>
      </trkpt>
      <trkpt lat="25.679467" lon="-100.286207">
        <ele>502.391</ele>
        <time>2020-02-03T13:54:09Z</time>
      </trkpt>
      <trkpt lat="25.679417" lon="-100.286223">
        <ele>502.433</ele>
        <time>2020-02-03T13:54:11Z</time>
      </trkpt>
      <trkpt lat="25.67939" lon="-100.28623">
        <ele>502.192</ele>
        <time>2020-02-03T13:54:12Z</time>
      </trkpt>
      <trkpt lat="25.679367" lon="-100.286235">
        <ele>502.32</ele>
        <time>2020-02-03T13:54:13Z</time>
      </trkpt>
      <trkpt lat="25.679319" lon="-100.28624">
        <ele>501.646</ele>
        <time>2020-02-03T13:54:15Z</time>
      </trkpt>
      <trkpt lat="25.679293" lon="-100.286243">
        <ele>501.565</ele>
        <time>2020-02-03T13:54:16Z</time>
      </trkpt>
      <trkpt lat="25.679265" lon="-100.286249">
        <ele>501.549</ele>
        <time>2020-02-03T13:54:17Z</time>
      </trkpt>
      <trkpt lat="25.679211" lon="-100.286272">
        <ele>502.004</ele>
        <time>2020-02-03T13:54:19Z</time>
      </trkpt>
      <trkpt lat="25.679183" lon="-100.286282">
        <ele>502.188</ele>
        <time>2020-02-03T13:54:20Z</time>
      </trkpt>
      <trkpt lat="25.679126" lon="-100.286279">
        <ele>501.645</ele>
        <time>2020-02-03T13:54:22Z</time>
      </trkpt>
      <trkpt lat="25.67907" lon="-100.286274">
        <ele>502.074</ele>
        <time>2020-02-03T13:54:24Z</time>
      </trkpt>
      <trkpt lat="25.678987" lon="-100.286281">
        <ele>502.48</ele>
        <time>2020-02-03T13:54:27Z</time>
      </trkpt>
      <trkpt lat="25.678927" lon="-100.286283">
        <ele>502.798</ele>
        <time>2020-02-03T13:54:29Z</time>
      </trkpt>
      <trkpt lat="25.678897" lon="-100.286285">
        <ele>502.607</ele>
        <time>2020-02-03T13:54:30Z</time>
      </trkpt>
      <trkpt lat="25.678868" lon="-100.286286">
        <ele>503.195</ele>
        <time>2020-02-03T13:54:31Z</time>
      </trkpt>
      <trkpt lat="25.67884" lon="-100.286286">
        <ele>503.985</ele>
        <time>2020-02-03T13:54:32Z</time>
      </trkpt>
      <trkpt lat="25.678756" lon="-100.2863">
        <ele>503.778</ele>
        <time>2020-02-03T13:54:35Z</time>
      </trkpt>
      <trkpt lat="25.6787" lon="-100.286294">
        <ele>503.953</ele>
        <time>2020-02-03T13:54:37Z</time>
      </trkpt>
      <trkpt lat="25.678646" lon="-100.286301">
        <ele>504.074</ele>
        <time>2020-02-03T13:54:39Z</time>
      </trkpt>
      <trkpt lat="25.678617" lon="-100.286304">
        <ele>504.514</ele>
        <time>2020-02-03T13:54:40Z</time>
      </trkpt>
      <trkpt lat="25.678589" lon="-100.286308">
        <ele>506.607</ele>
        <time>2020-02-03T13:54:41Z</time>
      </trkpt>
      <trkpt lat="25.678562" lon="-100.286312">
        <ele>507.201</ele>
        <time>2020-02-03T13:54:42Z</time>
      </trkpt>
      <trkpt lat="25.678506" lon="-100.286307">
        <ele>507.845</ele>
        <time>2020-02-03T13:54:44Z</time>
      </trkpt>
      <trkpt lat="25.67845" lon="-100.286301">
        <ele>507.988</ele>
        <time>2020-02-03T13:54:46Z</time>
      </trkpt>
      <trkpt lat="25.678393" lon="-100.286304">
        <ele>508.521</ele>
        <time>2020-02-03T13:54:48Z</time>
      </trkpt>
      <trkpt lat="25.678365" lon="-100.286305">
        <ele>509.434</ele>
        <time>2020-02-03T13:54:49Z</time>
      </trkpt>
      <trkpt lat="25.678337" lon="-100.286306">
        <ele>509.421</ele>
        <time>2020-02-03T13:54:50Z</time>
      </trkpt>
      <trkpt lat="25.678311" lon="-100.286306">
        <ele>509.551</ele>
        <time>2020-02-03T13:54:51Z</time>
      </trkpt>
      <trkpt lat="25.678256" lon="-100.286307">
        <ele>510.75</ele>
        <time>2020-02-03T13:54:53Z</time>
      </trkpt>
      <trkpt lat="25.678202" lon="-100.286317">
        <ele>510.814</ele>
        <time>2020-02-03T13:54:55Z</time>
      </trkpt>
      <trkpt lat="25.678176" lon="-100.286322">
        <ele>510.893</ele>
        <time>2020-02-03T13:54:56Z</time>
      </trkpt>
      <trkpt lat="25.678149" lon="-100.286329">
        <ele>510.174</ele>
        <time>2020-02-03T13:54:57Z</time>
      </trkpt>
      <trkpt lat="25.678122" lon="-100.286337">
        <ele>509.182</ele>
        <time>2020-02-03T13:54:58Z</time>
      </trkpt>
      <trkpt lat="25.678095" lon="-100.286346">
        <ele>508.672</ele>
        <time>2020-02-03T13:54:59Z</time>
      </trkpt>
      <trkpt lat="25.67804" lon="-100.286349">
        <ele>508.24</ele>
        <time>2020-02-03T13:55:01Z</time>
      </trkpt>
      <trkpt lat="25.677985" lon="-100.286349">
        <ele>509.155</ele>
        <time>2020-02-03T13:55:03Z</time>
      </trkpt>
      <trkpt lat="25.677931" lon="-100.286362">
        <ele>509.253</ele>
        <time>2020-02-03T13:55:05Z</time>
      </trkpt>
      <trkpt lat="25.677878" lon="-100.286385">
        <ele>511.585</ele>
        <time>2020-02-03T13:55:07Z</time>
      </trkpt>
      <trkpt lat="25.677825" lon="-100.286402">
        <ele>512.159</ele>
        <time>2020-02-03T13:55:09Z</time>
      </trkpt>
      <trkpt lat="25.677768" lon="-100.286412">
        <ele>511.65</ele>
        <time>2020-02-03T13:55:11Z</time>
      </trkpt>
      <trkpt lat="25.677658" lon="-100.286434">
        <ele>512.023</ele>
        <time>2020-02-03T13:55:15Z</time>
      </trkpt>
      <trkpt lat="25.677596" lon="-100.286436">
        <ele>511.521</ele>
        <time>2020-02-03T13:55:17Z</time>
      </trkpt>
      <trkpt lat="25.677569" lon="-100.286437">
        <ele>511.418</ele>
        <time>2020-02-03T13:55:18Z</time>
      </trkpt>
      <trkpt lat="25.67752" lon="-100.286446">
        <ele>511.32</ele>
        <time>2020-02-03T13:55:20Z</time>
      </trkpt>
      <trkpt lat="25.677497" lon="-100.286451">
        <ele>511.341</ele>
        <time>2020-02-03T13:55:21Z</time>
      </trkpt>
      <trkpt lat="25.677471" lon="-100.286456">
        <ele>511.039</ele>
        <time>2020-02-03T13:55:22Z</time>
      </trkpt>
      <trkpt lat="25.677445" lon="-100.286458">
        <ele>510.837</ele>
        <time>2020-02-03T13:55:23Z</time>
      </trkpt>
      <trkpt lat="25.67739" lon="-100.286454">
        <ele>508.732</ele>
        <time>2020-02-03T13:55:25Z</time>
      </trkpt>
      <trkpt lat="25.677319" lon="-100.286429">
        <ele>509.1</ele>
        <time>2020-02-03T13:55:27Z</time>
      </trkpt>
      <trkpt lat="25.677293" lon="-100.286423">
        <ele>509.078</ele>
        <time>2020-02-03T13:55:28Z</time>
      </trkpt>
      <trkpt lat="25.677242" lon="-100.286433">
        <ele>509.337</ele>
        <time>2020-02-03T13:55:30Z</time>
      </trkpt>
      <trkpt lat="25.677164" lon="-100.28645">
        <ele>509.718</ele>
        <time>2020-02-03T13:55:33Z</time>
      </trkpt>
      <trkpt lat="25.677113" lon="-100.286449">
        <ele>510.179</ele>
        <time>2020-02-03T13:55:35Z</time>
      </trkpt>
      <trkpt lat="25.677087" lon="-100.286446">
        <ele>508.367</ele>
        <time>2020-02-03T13:55:36Z</time>
      </trkpt>
      <trkpt lat="25.677036" lon="-100.286452">
        <ele>508.64</ele>
        <time>2020-02-03T13:55:38Z</time>
      </trkpt>
      <trkpt lat="25.676958" lon="-100.28647">
        <ele>508.493</ele>
        <time>2020-02-03T13:55:41Z</time>
      </trkpt>
      <trkpt lat="25.676933" lon="-100.286477">
        <ele>507.752</ele>
        <time>2020-02-03T13:55:42Z</time>
      </trkpt>
      <trkpt lat="25.676907" lon="-100.286484">
        <ele>507.674</ele>
        <time>2020-02-03T13:55:43Z</time>
      </trkpt>
      <trkpt lat="25.676857" lon="-100.286503">
        <ele>507.478</ele>
        <time>2020-02-03T13:55:45Z</time>
      </trkpt>
      <trkpt lat="25.676831" lon="-100.286512">
        <ele>507.305</ele>
        <time>2020-02-03T13:55:46Z</time>
      </trkpt>
      <trkpt lat="25.676804" lon="-100.28652">
        <ele>506.99</ele>
        <time>2020-02-03T13:55:47Z</time>
      </trkpt>
      <trkpt lat="25.676776" lon="-100.286527">
        <ele>506.644</ele>
        <time>2020-02-03T13:55:48Z</time>
      </trkpt>
      <trkpt lat="25.676748" lon="-100.286532">
        <ele>506.003</ele>
        <time>2020-02-03T13:55:49Z</time>
      </trkpt>
      <trkpt lat="25.676723" lon="-100.286538">
        <ele>505.279</ele>
        <time>2020-02-03T13:55:50Z</time>
      </trkpt>
      <trkpt lat="25.676699" lon="-100.286543">
        <ele>504.94</ele>
        <time>2020-02-03T13:55:51Z</time>
      </trkpt>
      <trkpt lat="25.676675" lon="-100.286549">
        <ele>506.585</ele>
        <time>2020-02-03T13:55:52Z</time>
      </trkpt>
      <trkpt lat="25.676627" lon="-100.286551">
        <ele>505.922</ele>
        <time>2020-02-03T13:55:54Z</time>
      </trkpt>
      <trkpt lat="25.676602" lon="-100.286554">
        <ele>504.326</ele>
        <time>2020-02-03T13:55:55Z</time>
      </trkpt>
      <trkpt lat="25.676561" lon="-100.286575">
        <ele>503.821</ele>
        <time>2020-02-03T13:55:57Z</time>
      </trkpt>
      <trkpt lat="25.676531" lon="-100.286614">
        <ele>502.828</ele>
        <time>2020-02-03T13:55:59Z</time>
      </trkpt>
      <trkpt lat="25.676503" lon="-100.286664">
        <ele>502.422</ele>
        <time>2020-02-03T13:56:01Z</time>
      </trkpt>
      <trkpt lat="25.676483" lon="-100.286723">
        <ele>500.651</ele>
        <time>2020-02-03T13:56:03Z</time>
      </trkpt>
      <trkpt lat="25.676476" lon="-100.286751">
        <ele>500.428</ele>
        <time>2020-02-03T13:56:04Z</time>
      </trkpt>
      <trkpt lat="25.676469" lon="-100.286778">
        <ele>499.923</ele>
        <time>2020-02-03T13:56:05Z</time>
      </trkpt>
      <trkpt lat="25.676463" lon="-100.286805">
        <ele>500.612</ele>
        <time>2020-02-03T13:56:06Z</time>
      </trkpt>
      <trkpt lat="25.676456" lon="-100.286834">
        <ele>501.21</ele>
        <time>2020-02-03T13:56:07Z</time>
      </trkpt>
      <trkpt lat="25.676448" lon="-100.286861">
        <ele>501.376</ele>
        <time>2020-02-03T13:56:08Z</time>
      </trkpt>
      <trkpt lat="25.676428" lon="-100.286911">
        <ele>501.264</ele>
        <time>2020-02-03T13:56:10Z</time>
      </trkpt>
      <trkpt lat="25.676416" lon="-100.286936">
        <ele>501.248</ele>
        <time>2020-02-03T13:56:11Z</time>
      </trkpt>
      <trkpt lat="25.676403" lon="-100.286961">
        <ele>501.376</ele>
        <time>2020-02-03T13:56:12Z</time>
      </trkpt>
      <trkpt lat="25.676391" lon="-100.286986">
        <ele>501.281</ele>
        <time>2020-02-03T13:56:13Z</time>
      </trkpt>
      <trkpt lat="25.67638" lon="-100.287011">
        <ele>500.599</ele>
        <time>2020-02-03T13:56:14Z</time>
      </trkpt>
      <trkpt lat="25.676371" lon="-100.287036">
        <ele>501.248</ele>
        <time>2020-02-03T13:56:15Z</time>
      </trkpt>
      <trkpt lat="25.676362" lon="-100.28706">
        <ele>500.66</ele>
        <time>2020-02-03T13:56:16Z</time>
      </trkpt>
      <trkpt lat="25.676352" lon="-100.287085">
        <ele>501.499</ele>
        <time>2020-02-03T13:56:17Z</time>
      </trkpt>
      <trkpt lat="25.676341" lon="-100.287113">
        <ele>502.253</ele>
        <time>2020-02-03T13:56:18Z</time>
      </trkpt>
      <trkpt lat="25.676329" lon="-100.287139">
        <ele>502.253</ele>
        <time>2020-02-03T13:56:19Z</time>
      </trkpt>
      <trkpt lat="25.676319" lon="-100.287163">
        <ele>502.253</ele>
        <time>2020-02-03T13:56:20Z</time>
      </trkpt>
      <trkpt lat="25.676305" lon="-100.287213">
        <ele>503.411</ele>
        <time>2020-02-03T13:56:22Z</time>
      </trkpt>
      <trkpt lat="25.676305" lon="-100.287213">
        <ele>504.053</ele>
        <time>2020-02-03T13:56:28Z</time>
      </trkpt>
      <trkpt lat="25.676305" lon="-100.287213">
        <ele>504.017</ele>
        <time>2020-02-03T13:56:29Z</time>
      </trkpt>
      <trkpt lat="25.676278" lon="-100.287265">
        <ele>504.009</ele>
        <time>2020-02-03T13:56:33Z</time>
      </trkpt>
      <trkpt lat="25.676262" lon="-100.287312">
        <ele>503.844</ele>
        <time>2020-02-03T13:56:35Z</time>
      </trkpt>
      <trkpt lat="25.676245" lon="-100.287366">
        <ele>503.37</ele>
        <time>2020-02-03T13:56:37Z</time>
      </trkpt>
      <trkpt lat="25.676238" lon="-100.28739">
        <ele>502.291</ele>
        <time>2020-02-03T13:56:38Z</time>
      </trkpt>
      <trkpt lat="25.676231" lon="-100.287416">
        <ele>502.837</ele>
        <time>2020-02-03T13:56:39Z</time>
      </trkpt>
      <trkpt lat="25.676213" lon="-100.287465">
        <ele>502.484</ele>
        <time>2020-02-03T13:56:41Z</time>
      </trkpt>
      <trkpt lat="25.676188" lon="-100.28751">
        <ele>503.238</ele>
        <time>2020-02-03T13:56:43Z</time>
      </trkpt>
      <trkpt lat="25.676174" lon="-100.287535">
        <ele>502.203</ele>
        <time>2020-02-03T13:56:44Z</time>
      </trkpt>
      <trkpt lat="25.676143" lon="-100.287613">
        <ele>503.199</ele>
        <time>2020-02-03T13:56:47Z</time>
      </trkpt>
      <trkpt lat="25.676111" lon="-100.287656">
        <ele>503.486</ele>
        <time>2020-02-03T13:56:49Z</time>
      </trkpt>
      <trkpt lat="25.676068" lon="-100.287695">
        <ele>503.351</ele>
        <time>2020-02-03T13:56:51Z</time>
      </trkpt>
      <trkpt lat="25.67599" lon="-100.28773">
        <ele>503.019</ele>
        <time>2020-02-03T13:56:54Z</time>
      </trkpt>
      <trkpt lat="25.675937" lon="-100.287733">
        <ele>503.41</ele>
        <time>2020-02-03T13:56:56Z</time>
      </trkpt>
      <trkpt lat="25.67591" lon="-100.287733">
        <ele>503.865</ele>
        <time>2020-02-03T13:56:57Z</time>
      </trkpt>
      <trkpt lat="25.675884" lon="-100.287734">
        <ele>504.167</ele>
        <time>2020-02-03T13:56:58Z</time>
      </trkpt>
      <trkpt lat="25.675835" lon="-100.287753">
        <ele>503.735</ele>
        <time>2020-02-03T13:57:00Z</time>
      </trkpt>
      <trkpt lat="25.675773" lon="-100.287811">
        <ele>504.008</ele>
        <time>2020-02-03T13:57:03Z</time>
      </trkpt>
      <trkpt lat="25.675755" lon="-100.287831">
        <ele>505.277</ele>
        <time>2020-02-03T13:57:04Z</time>
      </trkpt>
      <trkpt lat="25.675729" lon="-100.28788">
        <ele>508.071</ele>
        <time>2020-02-03T13:57:06Z</time>
      </trkpt>
      <trkpt lat="25.675714" lon="-100.287941">
        <ele>509.628</ele>
        <time>2020-02-03T13:57:08Z</time>
      </trkpt>
      <trkpt lat="25.675711" lon="-100.287992">
        <ele>508.245</ele>
        <time>2020-02-03T13:57:14Z</time>
      </trkpt>
      <trkpt lat="25.675711" lon="-100.287992">
        <ele>509.467</ele>
        <time>2020-02-03T13:57:21Z</time>
      </trkpt>
      <trkpt lat="25.675711" lon="-100.287992">
        <ele>508.854</ele>
        <time>2020-02-03T13:59:49Z</time>
      </trkpt>
      <trkpt lat="25.675726" lon="-100.287984">
        <ele>508.611</ele>
        <time>2020-02-03T13:59:50Z</time>
      </trkpt>
      <trkpt lat="25.675686" lon="-100.287952">
        <ele>508.275</ele>
        <time>2020-02-03T14:00:00Z</time>
      </trkpt>
      <trkpt lat="25.675602" lon="-100.287979">
        <ele>505.915</ele>
        <time>2020-02-03T14:00:05Z</time>
      </trkpt>
      <trkpt lat="25.675544" lon="-100.288016">
        <ele>506.238</ele>
        <time>2020-02-03T14:00:07Z</time>
      </trkpt>
      <trkpt lat="25.675515" lon="-100.288037">
        <ele>507.967</ele>
        <time>2020-02-03T14:00:08Z</time>
      </trkpt>
      <trkpt lat="25.675485" lon="-100.288058">
        <ele>508.25</ele>
        <time>2020-02-03T14:00:09Z</time>
      </trkpt>
      <trkpt lat="25.675414" lon="-100.288135">
        <ele>508.73</ele>
        <time>2020-02-03T14:00:12Z</time>
      </trkpt>
      <trkpt lat="25.675342" lon="-100.288198">
        <ele>507.998</ele>
        <time>2020-02-03T14:00:15Z</time>
      </trkpt>
      <trkpt lat="25.675315" lon="-100.288258">
        <ele>507.211</ele>
        <time>2020-02-03T14:00:17Z</time>
      </trkpt>
      <trkpt lat="25.6753" lon="-100.288319">
        <ele>506.111</ele>
        <time>2020-02-03T14:00:19Z</time>
      </trkpt>
      <trkpt lat="25.675288" lon="-100.288377">
        <ele>505.008</ele>
        <time>2020-02-03T14:00:21Z</time>
      </trkpt>
      <trkpt lat="25.675247" lon="-100.288443">
        <ele>503.417</ele>
        <time>2020-02-03T14:00:24Z</time>
      </trkpt>
      <trkpt lat="25.675203" lon="-100.288483">
        <ele>503.955</ele>
        <time>2020-02-03T14:00:26Z</time>
      </trkpt>
      <trkpt lat="25.675151" lon="-100.288549">
        <ele>504.75</ele>
        <time>2020-02-03T14:00:29Z</time>
      </trkpt>
      <trkpt lat="25.675113" lon="-100.288586">
        <ele>504.413</ele>
        <time>2020-02-03T14:00:31Z</time>
      </trkpt>
      <trkpt lat="25.675084" lon="-100.288625">
        <ele>502.505</ele>
        <time>2020-02-03T14:00:33Z</time>
      </trkpt>
      <trkpt lat="25.67506" lon="-100.288663">
        <ele>503.453</ele>
        <time>2020-02-03T14:00:35Z</time>
      </trkpt>
      <trkpt lat="25.675027" lon="-100.288742">
        <ele>503.461</ele>
        <time>2020-02-03T14:00:38Z</time>
      </trkpt>
      <trkpt lat="25.675006" lon="-100.288806">
        <ele>503.818</ele>
        <time>2020-02-03T14:00:40Z</time>
      </trkpt>
      <trkpt lat="25.674976" lon="-100.28886">
        <ele>503.941</ele>
        <time>2020-02-03T14:00:42Z</time>
      </trkpt>
      <trkpt lat="25.67496" lon="-100.288884">
        <ele>503.796</ele>
        <time>2020-02-03T14:00:43Z</time>
      </trkpt>
      <trkpt lat="25.674942" lon="-100.288911">
        <ele>504.14</ele>
        <time>2020-02-03T14:00:44Z</time>
      </trkpt>
      <trkpt lat="25.674924" lon="-100.288937">
        <ele>503.874</ele>
        <time>2020-02-03T14:00:45Z</time>
      </trkpt>
      <trkpt lat="25.674904" lon="-100.288962">
        <ele>503.87</ele>
        <time>2020-02-03T14:00:46Z</time>
      </trkpt>
      <trkpt lat="25.674882" lon="-100.288985">
        <ele>504.626</ele>
        <time>2020-02-03T14:00:47Z</time>
      </trkpt>
      <trkpt lat="25.67483" lon="-100.289015">
        <ele>504.906</ele>
        <time>2020-02-03T14:00:49Z</time>
      </trkpt>
      <trkpt lat="25.674775" lon="-100.289031">
        <ele>505.405</ele>
        <time>2020-02-03T14:00:51Z</time>
      </trkpt>
      <trkpt lat="25.674747" lon="-100.289039">
        <ele>504.341</ele>
        <time>2020-02-03T14:00:52Z</time>
      </trkpt>
      <trkpt lat="25.674658" lon="-100.289036">
        <ele>504.202</ele>
        <time>2020-02-03T14:00:55Z</time>
      </trkpt>
      <trkpt lat="25.674596" lon="-100.289027">
        <ele>504.097</ele>
        <time>2020-02-03T14:00:57Z</time>
      </trkpt>
      <trkpt lat="25.674563" lon="-100.289024">
        <ele>504.288</ele>
        <time>2020-02-03T14:00:58Z</time>
      </trkpt>
      <trkpt lat="25.674505" lon="-100.289038">
        <ele>503.589</ele>
        <time>2020-02-03T14:01:00Z</time>
      </trkpt>
      <trkpt lat="25.674439" lon="-100.289092">
        <ele>503.203</ele>
        <time>2020-02-03T14:01:03Z</time>
      </trkpt>
      <trkpt lat="25.674418" lon="-100.289109">
        <ele>503.502</ele>
        <time>2020-02-03T14:01:04Z</time>
      </trkpt>
      <trkpt lat="25.674397" lon="-100.289125">
        <ele>503.958</ele>
        <time>2020-02-03T14:01:05Z</time>
      </trkpt>
      <trkpt lat="25.674376" lon="-100.289143">
        <ele>504.366</ele>
        <time>2020-02-03T14:01:06Z</time>
      </trkpt>
      <trkpt lat="25.674344" lon="-100.289184">
        <ele>503.998</ele>
        <time>2020-02-03T14:01:08Z</time>
      </trkpt>
      <trkpt lat="25.6743" lon="-100.28925">
        <ele>504.373</ele>
        <time>2020-02-03T14:01:11Z</time>
      </trkpt>
      <trkpt lat="25.674284" lon="-100.28927">
        <ele>504.793</ele>
        <time>2020-02-03T14:01:12Z</time>
      </trkpt>
      <trkpt lat="25.674267" lon="-100.28929">
        <ele>505.356</ele>
        <time>2020-02-03T14:01:13Z</time>
      </trkpt>
      <trkpt lat="25.674241" lon="-100.289334">
        <ele>505.774</ele>
        <time>2020-02-03T14:01:15Z</time>
      </trkpt>
      <trkpt lat="25.67423" lon="-100.289358">
        <ele>506.733</ele>
        <time>2020-02-03T14:01:16Z</time>
      </trkpt>
      <trkpt lat="25.674218" lon="-100.289382">
        <ele>506.319</ele>
        <time>2020-02-03T14:01:17Z</time>
      </trkpt>
      <trkpt lat="25.674206" lon="-100.289405">
        <ele>506.066</ele>
        <time>2020-02-03T14:01:18Z</time>
      </trkpt>
      <trkpt lat="25.674195" lon="-100.289427">
        <ele>504.858</ele>
        <time>2020-02-03T14:01:19Z</time>
      </trkpt>
      <trkpt lat="25.674182" lon="-100.28945">
        <ele>504.804</ele>
        <time>2020-02-03T14:01:20Z</time>
      </trkpt>
      <trkpt lat="25.674152" lon="-100.289494">
        <ele>504.927</ele>
        <time>2020-02-03T14:01:22Z</time>
      </trkpt>
      <trkpt lat="25.674136" lon="-100.289518">
        <ele>505.035</ele>
        <time>2020-02-03T14:01:23Z</time>
      </trkpt>
      <trkpt lat="25.674111" lon="-100.289574">
        <ele>504.81</ele>
        <time>2020-02-03T14:01:25Z</time>
      </trkpt>
      <trkpt lat="25.674083" lon="-100.28966">
        <ele>504.481</ele>
        <time>2020-02-03T14:01:28Z</time>
      </trkpt>
      <trkpt lat="25.674074" lon="-100.289689">
        <ele>504.439</ele>
        <time>2020-02-03T14:01:29Z</time>
      </trkpt>
      <trkpt lat="25.674066" lon="-100.289719">
        <ele>503.452</ele>
        <time>2020-02-03T14:01:30Z</time>
      </trkpt>
      <trkpt lat="25.67406" lon="-100.289749">
        <ele>503.102</ele>
        <time>2020-02-03T14:01:31Z</time>
      </trkpt>
      <trkpt lat="25.674057" lon="-100.289779">
        <ele>502.541</ele>
        <time>2020-02-03T14:01:32Z</time>
      </trkpt>
      <trkpt lat="25.674051" lon="-100.289811">
        <ele>502.103</ele>
        <time>2020-02-03T14:01:33Z</time>
      </trkpt>
      <trkpt lat="25.674048" lon="-100.289843">
        <ele>502.346</ele>
        <time>2020-02-03T14:01:34Z</time>
      </trkpt>
      <trkpt lat="25.67404" lon="-100.289906">
        <ele>502.196</ele>
        <time>2020-02-03T14:01:36Z</time>
      </trkpt>
      <trkpt lat="25.674022" lon="-100.289969">
        <ele>502.626</ele>
        <time>2020-02-03T14:01:38Z</time>
      </trkpt>
      <trkpt lat="25.674016" lon="-100.289999">
        <ele>502.823</ele>
        <time>2020-02-03T14:01:39Z</time>
      </trkpt>
      <trkpt lat="25.67401" lon="-100.29003">
        <ele>502.37</ele>
        <time>2020-02-03T14:01:40Z</time>
      </trkpt>
      <trkpt lat="25.674005" lon="-100.290062">
        <ele>501.956</ele>
        <time>2020-02-03T14:01:41Z</time>
      </trkpt>
      <trkpt lat="25.673997" lon="-100.290093">
        <ele>501.937</ele>
        <time>2020-02-03T14:01:42Z</time>
      </trkpt>
      <trkpt lat="25.673975" lon="-100.290159">
        <ele>501.355</ele>
        <time>2020-02-03T14:01:44Z</time>
      </trkpt>
      <trkpt lat="25.673962" lon="-100.29019">
        <ele>500.549</ele>
        <time>2020-02-03T14:01:45Z</time>
      </trkpt>
      <trkpt lat="25.67395" lon="-100.29022">
        <ele>500.483</ele>
        <time>2020-02-03T14:01:46Z</time>
      </trkpt>
      <trkpt lat="25.673938" lon="-100.290256">
        <ele>501.395</ele>
        <time>2020-02-03T14:01:47Z</time>
      </trkpt>
      <trkpt lat="25.673928" lon="-100.290284">
        <ele>501.749</ele>
        <time>2020-02-03T14:01:48Z</time>
      </trkpt>
      <trkpt lat="25.67392" lon="-100.290313">
        <ele>501.799</ele>
        <time>2020-02-03T14:01:49Z</time>
      </trkpt>
      <trkpt lat="25.67391" lon="-100.290347">
        <ele>502.66</ele>
        <time>2020-02-03T14:01:50Z</time>
      </trkpt>
      <trkpt lat="25.673902" lon="-100.290381">
        <ele>502.865</ele>
        <time>2020-02-03T14:01:51Z</time>
      </trkpt>
      <trkpt lat="25.673891" lon="-100.290443">
        <ele>502.265</ele>
        <time>2020-02-03T14:01:53Z</time>
      </trkpt>
      <trkpt lat="25.673886" lon="-100.290473">
        <ele>502.137</ele>
        <time>2020-02-03T14:01:54Z</time>
      </trkpt>
      <trkpt lat="25.673882" lon="-100.290502">
        <ele>501.899</ele>
        <time>2020-02-03T14:01:55Z</time>
      </trkpt>
      <trkpt lat="25.673876" lon="-100.290533">
        <ele>502.247</ele>
        <time>2020-02-03T14:01:56Z</time>
      </trkpt>
      <trkpt lat="25.673871" lon="-100.290565">
        <ele>502.861</ele>
        <time>2020-02-03T14:01:57Z</time>
      </trkpt>
      <trkpt lat="25.67387" lon="-100.290625">
        <ele>503.323</ele>
        <time>2020-02-03T14:01:59Z</time>
      </trkpt>
      <trkpt lat="25.673882" lon="-100.29068">
        <ele>503.429</ele>
        <time>2020-02-03T14:02:01Z</time>
      </trkpt>
      <trkpt lat="25.673887" lon="-100.290707">
        <ele>503.427</ele>
        <time>2020-02-03T14:02:02Z</time>
      </trkpt>
      <trkpt lat="25.673889" lon="-100.29076">
        <ele>503.048</ele>
        <time>2020-02-03T14:02:04Z</time>
      </trkpt>
      <trkpt lat="25.673891" lon="-100.290789">
        <ele>502.324</ele>
        <time>2020-02-03T14:02:05Z</time>
      </trkpt>
      <trkpt lat="25.673893" lon="-100.290822">
        <ele>502.41</ele>
        <time>2020-02-03T14:02:06Z</time>
      </trkpt>
      <trkpt lat="25.673896" lon="-100.290853">
        <ele>502.534</ele>
        <time>2020-02-03T14:02:07Z</time>
      </trkpt>
      <trkpt lat="25.673896" lon="-100.290884">
        <ele>502.689</ele>
        <time>2020-02-03T14:02:08Z</time>
      </trkpt>
      <trkpt lat="25.673884" lon="-100.290945">
        <ele>502.378</ele>
        <time>2020-02-03T14:02:10Z</time>
      </trkpt>
      <trkpt lat="25.673877" lon="-100.290975">
        <ele>503.542</ele>
        <time>2020-02-03T14:02:11Z</time>
      </trkpt>
      <trkpt lat="25.673871" lon="-100.291004">
        <ele>503.869</ele>
        <time>2020-02-03T14:02:12Z</time>
      </trkpt>
      <trkpt lat="25.673865" lon="-100.291033">
        <ele>503.619</ele>
        <time>2020-02-03T14:02:13Z</time>
      </trkpt>
      <trkpt lat="25.673861" lon="-100.291063">
        <ele>503.563</ele>
        <time>2020-02-03T14:02:14Z</time>
      </trkpt>
      <trkpt lat="25.673855" lon="-100.291092">
        <ele>503.645</ele>
        <time>2020-02-03T14:02:15Z</time>
      </trkpt>
      <trkpt lat="25.673849" lon="-100.291122">
        <ele>503.343</ele>
        <time>2020-02-03T14:02:16Z</time>
      </trkpt>
      <trkpt lat="25.673829" lon="-100.291176">
        <ele>503.647</ele>
        <time>2020-02-03T14:02:18Z</time>
      </trkpt>
      <trkpt lat="25.673798" lon="-100.291228">
        <ele>503.881</ele>
        <time>2020-02-03T14:02:20Z</time>
      </trkpt>
      <trkpt lat="25.673775" lon="-100.291285">
        <ele>503.726</ele>
        <time>2020-02-03T14:02:22Z</time>
      </trkpt>
      <trkpt lat="25.673766" lon="-100.291316">
        <ele>503.7</ele>
        <time>2020-02-03T14:02:23Z</time>
      </trkpt>
      <trkpt lat="25.673757" lon="-100.291348">
        <ele>503.528</ele>
        <time>2020-02-03T14:02:24Z</time>
      </trkpt>
      <trkpt lat="25.67375" lon="-100.291379">
        <ele>505.782</ele>
        <time>2020-02-03T14:02:25Z</time>
      </trkpt>
      <trkpt lat="25.673743" lon="-100.291411">
        <ele>505.579</ele>
        <time>2020-02-03T14:02:26Z</time>
      </trkpt>
      <trkpt lat="25.673734" lon="-100.291444">
        <ele>506.162</ele>
        <time>2020-02-03T14:02:27Z</time>
      </trkpt>
      <trkpt lat="25.673728" lon="-100.291478">
        <ele>506.578</ele>
        <time>2020-02-03T14:02:28Z</time>
      </trkpt>
      <trkpt lat="25.673722" lon="-100.291512">
        <ele>506.719</ele>
        <time>2020-02-03T14:02:29Z</time>
      </trkpt>
      <trkpt lat="25.673717" lon="-100.291546">
        <ele>506.531</ele>
        <time>2020-02-03T14:02:30Z</time>
      </trkpt>
      <trkpt lat="25.673711" lon="-100.29158">
        <ele>507.073</ele>
        <time>2020-02-03T14:02:31Z</time>
      </trkpt>
      <trkpt lat="25.673705" lon="-100.291613">
        <ele>506.398</ele>
        <time>2020-02-03T14:02:32Z</time>
      </trkpt>
      <trkpt lat="25.6737" lon="-100.291646">
        <ele>506.462</ele>
        <time>2020-02-03T14:02:33Z</time>
      </trkpt>
      <trkpt lat="25.673696" lon="-100.291678">
        <ele>506.859</ele>
        <time>2020-02-03T14:02:34Z</time>
      </trkpt>
      <trkpt lat="25.673691" lon="-100.291711">
        <ele>505.867</ele>
        <time>2020-02-03T14:02:35Z</time>
      </trkpt>
      <trkpt lat="25.673686" lon="-100.291743">
        <ele>505.415</ele>
        <time>2020-02-03T14:02:36Z</time>
      </trkpt>
      <trkpt lat="25.673682" lon="-100.291776">
        <ele>504.003</ele>
        <time>2020-02-03T14:02:37Z</time>
      </trkpt>
      <trkpt lat="25.673679" lon="-100.291807">
        <ele>504.212</ele>
        <time>2020-02-03T14:02:38Z</time>
      </trkpt>
      <trkpt lat="25.673674" lon="-100.291837">
        <ele>504.398</ele>
        <time>2020-02-03T14:02:39Z</time>
      </trkpt>
      <trkpt lat="25.673666" lon="-100.291894">
        <ele>502.518</ele>
        <time>2020-02-03T14:02:41Z</time>
      </trkpt>
      <trkpt lat="25.67368" lon="-100.291986">
        <ele>502.508</ele>
        <time>2020-02-03T14:02:44Z</time>
      </trkpt>
      <trkpt lat="25.6737" lon="-100.292043">
        <ele>501.965</ele>
        <time>2020-02-03T14:02:46Z</time>
      </trkpt>
      <trkpt lat="25.673729" lon="-100.292096">
        <ele>503.002</ele>
        <time>2020-02-03T14:02:48Z</time>
      </trkpt>
      <trkpt lat="25.673751" lon="-100.292156">
        <ele>503.276</ele>
        <time>2020-02-03T14:02:50Z</time>
      </trkpt>
      <trkpt lat="25.673771" lon="-100.292251">
        <ele>503.203</ele>
        <time>2020-02-03T14:02:53Z</time>
      </trkpt>
      <trkpt lat="25.673776" lon="-100.292284">
        <ele>503.161</ele>
        <time>2020-02-03T14:02:54Z</time>
      </trkpt>
      <trkpt lat="25.673776" lon="-100.292349">
        <ele>503.896</ele>
        <time>2020-02-03T14:02:56Z</time>
      </trkpt>
      <trkpt lat="25.673768" lon="-100.29241">
        <ele>504.68</ele>
        <time>2020-02-03T14:02:58Z</time>
      </trkpt>
      <trkpt lat="25.673768" lon="-100.29247">
        <ele>505.135</ele>
        <time>2020-02-03T14:03:00Z</time>
      </trkpt>
      <trkpt lat="25.67378" lon="-100.292533">
        <ele>504.822</ele>
        <time>2020-02-03T14:03:02Z</time>
      </trkpt>
      <trkpt lat="25.673784" lon="-100.292565">
        <ele>504.866</ele>
        <time>2020-02-03T14:03:03Z</time>
      </trkpt>
      <trkpt lat="25.673786" lon="-100.292596">
        <ele>504.447</ele>
        <time>2020-02-03T14:03:04Z</time>
      </trkpt>
      <trkpt lat="25.673787" lon="-100.292626">
        <ele>504.02</ele>
        <time>2020-02-03T14:03:05Z</time>
      </trkpt>
      <trkpt lat="25.673787" lon="-100.292656">
        <ele>504.691</ele>
        <time>2020-02-03T14:03:06Z</time>
      </trkpt>
      <trkpt lat="25.673788" lon="-100.292687">
        <ele>504.72</ele>
        <time>2020-02-03T14:03:07Z</time>
      </trkpt>
      <trkpt lat="25.67379" lon="-100.292717">
        <ele>505.078</ele>
        <time>2020-02-03T14:03:08Z</time>
      </trkpt>
      <trkpt lat="25.673799" lon="-100.292777">
        <ele>505.296</ele>
        <time>2020-02-03T14:03:10Z</time>
      </trkpt>
      <trkpt lat="25.673804" lon="-100.292807">
        <ele>505.793</ele>
        <time>2020-02-03T14:03:11Z</time>
      </trkpt>
      <trkpt lat="25.673807" lon="-100.292837">
        <ele>505.701</ele>
        <time>2020-02-03T14:03:12Z</time>
      </trkpt>
      <trkpt lat="25.673809" lon="-100.292866">
        <ele>504.292</ele>
        <time>2020-02-03T14:03:13Z</time>
      </trkpt>
      <trkpt lat="25.673807" lon="-100.292933">
        <ele>503.372</ele>
        <time>2020-02-03T14:03:15Z</time>
      </trkpt>
      <trkpt lat="25.673801" lon="-100.292996">
        <ele>502.915</ele>
        <time>2020-02-03T14:03:17Z</time>
      </trkpt>
      <trkpt lat="25.673798" lon="-100.293027">
        <ele>502.333</ele>
        <time>2020-02-03T14:03:18Z</time>
      </trkpt>
      <trkpt lat="25.673797" lon="-100.293058">
        <ele>501.425</ele>
        <time>2020-02-03T14:03:19Z</time>
      </trkpt>
      <trkpt lat="25.673793" lon="-100.293121">
        <ele>501.358</ele>
        <time>2020-02-03T14:03:21Z</time>
      </trkpt>
      <trkpt lat="25.673797" lon="-100.293186">
        <ele>501.377</ele>
        <time>2020-02-03T14:03:23Z</time>
      </trkpt>
      <trkpt lat="25.673816" lon="-100.293248">
        <ele>501.304</ele>
        <time>2020-02-03T14:03:25Z</time>
      </trkpt>
      <trkpt lat="25.673835" lon="-100.293307">
        <ele>501.965</ele>
        <time>2020-02-03T14:03:27Z</time>
      </trkpt>
      <trkpt lat="25.673847" lon="-100.293372">
        <ele>501.622</ele>
        <time>2020-02-03T14:03:29Z</time>
      </trkpt>
      <trkpt lat="25.673854" lon="-100.293404">
        <ele>501.312</ele>
        <time>2020-02-03T14:03:30Z</time>
      </trkpt>
      <trkpt lat="25.67386" lon="-100.293437">
        <ele>501.731</ele>
        <time>2020-02-03T14:03:31Z</time>
      </trkpt>
      <trkpt lat="25.673865" lon="-100.293469">
        <ele>501.699</ele>
        <time>2020-02-03T14:03:32Z</time>
      </trkpt>
      <trkpt lat="25.67387" lon="-100.293503">
        <ele>501.816</ele>
        <time>2020-02-03T14:03:33Z</time>
      </trkpt>
      <trkpt lat="25.673877" lon="-100.293533">
        <ele>501.754</ele>
        <time>2020-02-03T14:03:34Z</time>
      </trkpt>
      <trkpt lat="25.673896" lon="-100.293592">
        <ele>501.102</ele>
        <time>2020-02-03T14:03:36Z</time>
      </trkpt>
      <trkpt lat="25.673904" lon="-100.293623">
        <ele>501.199</ele>
        <time>2020-02-03T14:03:37Z</time>
      </trkpt>
      <trkpt lat="25.673911" lon="-100.293655">
        <ele>501.496</ele>
        <time>2020-02-03T14:03:38Z</time>
      </trkpt>
      <trkpt lat="25.673927" lon="-100.293717">
        <ele>500.757</ele>
        <time>2020-02-03T14:03:40Z</time>
      </trkpt>
      <trkpt lat="25.673949" lon="-100.29378">
        <ele>500.962</ele>
        <time>2020-02-03T14:03:42Z</time>
      </trkpt>
      <trkpt lat="25.673959" lon="-100.293814">
        <ele>500.915</ele>
        <time>2020-02-03T14:03:43Z</time>
      </trkpt>
      <trkpt lat="25.673972" lon="-100.293888">
        <ele>500.247</ele>
        <time>2020-02-03T14:03:45Z</time>
      </trkpt>
      <trkpt lat="25.673978" lon="-100.293924">
        <ele>501.221</ele>
        <time>2020-02-03T14:03:46Z</time>
      </trkpt>
      <trkpt lat="25.673987" lon="-100.293962">
        <ele>501.786</ele>
        <time>2020-02-03T14:03:47Z</time>
      </trkpt>
      <trkpt lat="25.673998" lon="-100.293995">
        <ele>501.061</ele>
        <time>2020-02-03T14:03:48Z</time>
      </trkpt>
      <trkpt lat="25.674008" lon="-100.294029">
        <ele>500.768</ele>
        <time>2020-02-03T14:03:49Z</time>
      </trkpt>
      <trkpt lat="25.674014" lon="-100.294098">
        <ele>500.489</ele>
        <time>2020-02-03T14:03:51Z</time>
      </trkpt>
      <trkpt lat="25.674016" lon="-100.294168">
        <ele>500.572</ele>
        <time>2020-02-03T14:03:53Z</time>
      </trkpt>
      <trkpt lat="25.674031" lon="-100.294234">
        <ele>500.457</ele>
        <time>2020-02-03T14:03:55Z</time>
      </trkpt>
      <trkpt lat="25.674036" lon="-100.294266">
        <ele>501.302</ele>
        <time>2020-02-03T14:03:56Z</time>
      </trkpt>
      <trkpt lat="25.674042" lon="-100.294298">
        <ele>500.8</ele>
        <time>2020-02-03T14:03:57Z</time>
      </trkpt>
      <trkpt lat="25.674049" lon="-100.294329">
        <ele>501.222</ele>
        <time>2020-02-03T14:03:58Z</time>
      </trkpt>
      <trkpt lat="25.674057" lon="-100.29436">
        <ele>502.705</ele>
        <time>2020-02-03T14:03:59Z</time>
      </trkpt>
      <trkpt lat="25.674063" lon="-100.29439">
        <ele>502.191</ele>
        <time>2020-02-03T14:04:00Z</time>
      </trkpt>
      <trkpt lat="25.674068" lon="-100.29442">
        <ele>502.001</ele>
        <time>2020-02-03T14:04:01Z</time>
      </trkpt>
      <trkpt lat="25.674071" lon="-100.29445">
        <ele>501.671</ele>
        <time>2020-02-03T14:04:02Z</time>
      </trkpt>
      <trkpt lat="25.674074" lon="-100.294478">
        <ele>502.126</ele>
        <time>2020-02-03T14:04:03Z</time>
      </trkpt>
      <trkpt lat="25.674068" lon="-100.294568">
        <ele>501.147</ele>
        <time>2020-02-03T14:04:06Z</time>
      </trkpt>
      <trkpt lat="25.674063" lon="-100.294598">
        <ele>501.299</ele>
        <time>2020-02-03T14:04:07Z</time>
      </trkpt>
      <trkpt lat="25.674061" lon="-100.294629">
        <ele>501.576</ele>
        <time>2020-02-03T14:04:08Z</time>
      </trkpt>
      <trkpt lat="25.674064" lon="-100.294694">
        <ele>501.831</ele>
        <time>2020-02-03T14:04:10Z</time>
      </trkpt>
      <trkpt lat="25.674065" lon="-100.294725">
        <ele>502.889</ele>
        <time>2020-02-03T14:04:11Z</time>
      </trkpt>
      <trkpt lat="25.674063" lon="-100.294756">
        <ele>502.041</ele>
        <time>2020-02-03T14:04:12Z</time>
      </trkpt>
      <trkpt lat="25.67406" lon="-100.294788">
        <ele>501.918</ele>
        <time>2020-02-03T14:04:13Z</time>
      </trkpt>
      <trkpt lat="25.674061" lon="-100.294849">
        <ele>502.25</ele>
        <time>2020-02-03T14:04:15Z</time>
      </trkpt>
      <trkpt lat="25.674062" lon="-100.29488">
        <ele>502.267</ele>
        <time>2020-02-03T14:04:16Z</time>
      </trkpt>
      <trkpt lat="25.674056" lon="-100.294943">
        <ele>502.052</ele>
        <time>2020-02-03T14:04:18Z</time>
      </trkpt>
      <trkpt lat="25.674051" lon="-100.294971">
        <ele>501.994</ele>
        <time>2020-02-03T14:04:19Z</time>
      </trkpt>
      <trkpt lat="25.674046" lon="-100.295">
        <ele>499.825</ele>
        <time>2020-02-03T14:04:20Z</time>
      </trkpt>
      <trkpt lat="25.67404" lon="-100.295034">
        <ele>499.679</ele>
        <time>2020-02-03T14:04:21Z</time>
      </trkpt>
      <trkpt lat="25.674035" lon="-100.295101">
        <ele>499.898</ele>
        <time>2020-02-03T14:04:23Z</time>
      </trkpt>
      <trkpt lat="25.674033" lon="-100.295134">
        <ele>499.236</ele>
        <time>2020-02-03T14:04:24Z</time>
      </trkpt>
      <trkpt lat="25.67403" lon="-100.295166">
        <ele>499.209</ele>
        <time>2020-02-03T14:04:25Z</time>
      </trkpt>
      <trkpt lat="25.674034" lon="-100.295242">
        <ele>500.602</ele>
        <time>2020-02-03T14:04:28Z</time>
      </trkpt>
      <trkpt lat="25.67404" lon="-100.295298">
        <ele>502.326</ele>
        <time>2020-02-03T14:04:30Z</time>
      </trkpt>
      <trkpt lat="25.674034" lon="-100.295356">
        <ele>502.199</ele>
        <time>2020-02-03T14:04:32Z</time>
      </trkpt>
      <trkpt lat="25.674025" lon="-100.295415">
        <ele>502.139</ele>
        <time>2020-02-03T14:04:34Z</time>
      </trkpt>
      <trkpt lat="25.674022" lon="-100.295474">
        <ele>501.988</ele>
        <time>2020-02-03T14:04:36Z</time>
      </trkpt>
      <trkpt lat="25.674019" lon="-100.295503">
        <ele>501.278</ele>
        <time>2020-02-03T14:04:37Z</time>
      </trkpt>
      <trkpt lat="25.674004" lon="-100.295563">
        <ele>501.563</ele>
        <time>2020-02-03T14:04:39Z</time>
      </trkpt>
      <trkpt lat="25.673997" lon="-100.295594">
        <ele>501.5</ele>
        <time>2020-02-03T14:04:40Z</time>
      </trkpt>
      <trkpt lat="25.67399" lon="-100.295623">
        <ele>501.749</ele>
        <time>2020-02-03T14:04:41Z</time>
      </trkpt>
      <trkpt lat="25.673981" lon="-100.295652">
        <ele>501.962</ele>
        <time>2020-02-03T14:04:42Z</time>
      </trkpt>
      <trkpt lat="25.673973" lon="-100.29568">
        <ele>501.883</ele>
        <time>2020-02-03T14:04:43Z</time>
      </trkpt>
      <trkpt lat="25.673966" lon="-100.295707">
        <ele>501.691</ele>
        <time>2020-02-03T14:04:44Z</time>
      </trkpt>
      <trkpt lat="25.673959" lon="-100.295734">
        <ele>502.582</ele>
        <time>2020-02-03T14:04:45Z</time>
      </trkpt>
      <trkpt lat="25.673954" lon="-100.295762">
        <ele>502.816</ele>
        <time>2020-02-03T14:04:46Z</time>
      </trkpt>
      <trkpt lat="25.673948" lon="-100.29579">
        <ele>502.938</ele>
        <time>2020-02-03T14:04:47Z</time>
      </trkpt>
      <trkpt lat="25.673944" lon="-100.295817">
        <ele>502.626</ele>
        <time>2020-02-03T14:04:48Z</time>
      </trkpt>
      <trkpt lat="25.67394" lon="-100.295843">
        <ele>503.661</ele>
        <time>2020-02-03T14:04:49Z</time>
      </trkpt>
      <trkpt lat="25.673937" lon="-100.295869">
        <ele>503.245</ele>
        <time>2020-02-03T14:04:50Z</time>
      </trkpt>
      <trkpt lat="25.673932" lon="-100.295896">
        <ele>503.83</ele>
        <time>2020-02-03T14:04:51Z</time>
      </trkpt>
      <trkpt lat="25.673926" lon="-100.295922">
        <ele>504.845</ele>
        <time>2020-02-03T14:04:52Z</time>
      </trkpt>
      <trkpt lat="25.673917" lon="-100.295949">
        <ele>504.82</ele>
        <time>2020-02-03T14:04:53Z</time>
      </trkpt>
      <trkpt lat="25.673907" lon="-100.295978">
        <ele>504.956</ele>
        <time>2020-02-03T14:04:54Z</time>
      </trkpt>
      <trkpt lat="25.673899" lon="-100.296007">
        <ele>505.165</ele>
        <time>2020-02-03T14:04:55Z</time>
      </trkpt>
      <trkpt lat="25.673893" lon="-100.296037">
        <ele>505.651</ele>
        <time>2020-02-03T14:04:56Z</time>
      </trkpt>
      <trkpt lat="25.673886" lon="-100.296095">
        <ele>506.557</ele>
        <time>2020-02-03T14:04:58Z</time>
      </trkpt>
      <trkpt lat="25.67388" lon="-100.296126">
        <ele>506.246</ele>
        <time>2020-02-03T14:04:59Z</time>
      </trkpt>
      <trkpt lat="25.673873" lon="-100.296157">
        <ele>506.164</ele>
        <time>2020-02-03T14:05:00Z</time>
      </trkpt>
      <trkpt lat="25.673864" lon="-100.296187">
        <ele>505.743</ele>
        <time>2020-02-03T14:05:01Z</time>
      </trkpt>
      <trkpt lat="25.67384" lon="-100.296243">
        <ele>505.421</ele>
        <time>2020-02-03T14:05:03Z</time>
      </trkpt>
      <trkpt lat="25.673823" lon="-100.296275">
        <ele>505.393</ele>
        <time>2020-02-03T14:05:04Z</time>
      </trkpt>
      <trkpt lat="25.673806" lon="-100.296308">
        <ele>504.32</ele>
        <time>2020-02-03T14:05:05Z</time>
      </trkpt>
      <trkpt lat="25.673787" lon="-100.296337">
        <ele>503.853</ele>
        <time>2020-02-03T14:05:06Z</time>
      </trkpt>
      <trkpt lat="25.673769" lon="-100.296366">
        <ele>503.581</ele>
        <time>2020-02-03T14:05:07Z</time>
      </trkpt>
      <trkpt lat="25.673734" lon="-100.296422">
        <ele>504.878</ele>
        <time>2020-02-03T14:05:09Z</time>
      </trkpt>
      <trkpt lat="25.673671" lon="-100.296489">
        <ele>505.804</ele>
        <time>2020-02-03T14:05:12Z</time>
      </trkpt>
      <trkpt lat="25.673583" lon="-100.296549">
        <ele>507.399</ele>
        <time>2020-02-03T14:05:15Z</time>
      </trkpt>
      <trkpt lat="25.673534" lon="-100.296556">
        <ele>506.973</ele>
        <time>2020-02-03T14:05:17Z</time>
      </trkpt>
      <trkpt lat="25.673477" lon="-100.296542">
        <ele>507.459</ele>
        <time>2020-02-03T14:05:19Z</time>
      </trkpt>
      <trkpt lat="25.67343" lon="-100.296518">
        <ele>507.62</ele>
        <time>2020-02-03T14:05:21Z</time>
      </trkpt>
      <trkpt lat="25.673417" lon="-100.296478">
        <ele>507.354</ele>
        <time>2020-02-03T14:05:27Z</time>
      </trkpt>
      <trkpt lat="25.673369" lon="-100.296474">
        <ele>507.544</ele>
        <time>2020-02-03T14:05:50Z</time>
      </trkpt>
      <trkpt lat="25.673323" lon="-100.296481">
        <ele>507.771</ele>
        <time>2020-02-03T14:05:52Z</time>
      </trkpt>
      <trkpt lat="25.673297" lon="-100.296487">
        <ele>507.799</ele>
        <time>2020-02-03T14:05:53Z</time>
      </trkpt>
      <trkpt lat="25.673248" lon="-100.296488">
        <ele>506.682</ele>
        <time>2020-02-03T14:05:55Z</time>
      </trkpt>
      <trkpt lat="25.673195" lon="-100.296497">
        <ele>507.059</ele>
        <time>2020-02-03T14:05:57Z</time>
      </trkpt>
      <trkpt lat="25.673168" lon="-100.296503">
        <ele>507.688</ele>
        <time>2020-02-03T14:05:58Z</time>
      </trkpt>
      <trkpt lat="25.673142" lon="-100.296508">
        <ele>507.692</ele>
        <time>2020-02-03T14:05:59Z</time>
      </trkpt>
      <trkpt lat="25.673119" lon="-100.296511">
        <ele>506.289</ele>
        <time>2020-02-03T14:06:09Z</time>
      </trkpt>
      <trkpt lat="25.673081" lon="-100.29652">
        <ele>505.989</ele>
        <time>2020-02-03T14:06:44Z</time>
      </trkpt>
      <trkpt lat="25.673057" lon="-100.296527">
        <ele>504.689</ele>
        <time>2020-02-03T14:06:47Z</time>
      </trkpt>
      <trkpt lat="25.673007" lon="-100.296525">
        <ele>504.286</ele>
        <time>2020-02-03T14:06:53Z</time>
      </trkpt>
      <trkpt lat="25.672976" lon="-100.296524">
        <ele>503.767</ele>
        <time>2020-02-03T14:06:56Z</time>
      </trkpt>
      <trkpt lat="25.672938" lon="-100.296488">
        <ele>503.223</ele>
        <time>2020-02-03T14:07:02Z</time>
      </trkpt>
      <trkpt lat="25.67292" lon="-100.296468">
        <ele>503.422</ele>
        <time>2020-02-03T14:07:04Z</time>
      </trkpt>
      <trkpt lat="25.672896" lon="-100.296398">
        <ele>503.701</ele>
        <time>2020-02-03T14:07:07Z</time>
      </trkpt>
      <trkpt lat="25.67289" lon="-100.296341">
        <ele>502.669</ele>
        <time>2020-02-03T14:07:09Z</time>
      </trkpt>
      <trkpt lat="25.672898" lon="-100.296284">
        <ele>502.946</ele>
        <time>2020-02-03T14:07:11Z</time>
      </trkpt>
      <trkpt lat="25.672918" lon="-100.296227">
        <ele>501.155</ele>
        <time>2020-02-03T14:07:13Z</time>
      </trkpt>
      <trkpt lat="25.672929" lon="-100.29616">
        <ele>501.259</ele>
        <time>2020-02-03T14:07:15Z</time>
      </trkpt>
      <trkpt lat="25.67294" lon="-100.296092">
        <ele>502.187</ele>
        <time>2020-02-03T14:07:17Z</time>
      </trkpt>
      <trkpt lat="25.672964" lon="-100.296032">
        <ele>502.58</ele>
        <time>2020-02-03T14:07:19Z</time>
      </trkpt>
      <trkpt lat="25.67301" lon="-100.296005">
        <ele>502.62</ele>
        <time>2020-02-03T14:07:21Z</time>
      </trkpt>
      <trkpt lat="25.673058" lon="-100.296064">
        <ele>502.436</ele>
        <time>2020-02-03T14:07:24Z</time>
      </trkpt>
      <trkpt lat="25.673065" lon="-100.296124">
        <ele>502.199</ele>
        <time>2020-02-03T14:07:26Z</time>
      </trkpt>
      <trkpt lat="25.673065" lon="-100.296181">
        <ele>501.766</ele>
        <time>2020-02-03T14:07:28Z</time>
      </trkpt>
      <trkpt lat="25.673065" lon="-100.296208">
        <ele>502.308</ele>
        <time>2020-02-03T14:07:29Z</time>
      </trkpt>
      <trkpt lat="25.673056" lon="-100.296258">
        <ele>502.512</ele>
        <time>2020-02-03T14:07:31Z</time>
      </trkpt>
      <trkpt lat="25.673032" lon="-100.296322">
        <ele>500.076</ele>
        <time>2020-02-03T14:07:34Z</time>
      </trkpt>
      <trkpt lat="25.673024" lon="-100.296346">
        <ele>499.554</ele>
        <time>2020-02-03T14:07:35Z</time>
      </trkpt>
      <trkpt lat="25.673016" lon="-100.296369">
        <ele>499.275</ele>
        <time>2020-02-03T14:07:36Z</time>
      </trkpt>
      <trkpt lat="25.673002" lon="-100.296409">
        <ele>499.199</ele>
        <time>2020-02-03T14:07:38Z</time>
      </trkpt>
      <trkpt lat="25.672992" lon="-100.296432">
        <ele>498.844</ele>
        <time>2020-02-03T14:07:39Z</time>
      </trkpt>
      <trkpt lat="25.672948" lon="-100.296489">
        <ele>498.761</ele>
        <time>2020-02-03T14:07:42Z</time>
      </trkpt>
      <trkpt lat="25.672919" lon="-100.296558">
        <ele>498.39</ele>
        <time>2020-02-03T14:07:45Z</time>
      </trkpt>
      <trkpt lat="25.672908" lon="-100.296612">
        <ele>498.016</ele>
        <time>2020-02-03T14:07:47Z</time>
      </trkpt>
      <trkpt lat="25.6729" lon="-100.29666">
        <ele>497.3</ele>
        <time>2020-02-03T14:07:49Z</time>
      </trkpt>
      <trkpt lat="25.672897" lon="-100.296687">
        <ele>498.482</ele>
        <time>2020-02-03T14:07:50Z</time>
      </trkpt>
      <trkpt lat="25.672894" lon="-100.296714">
        <ele>498.539</ele>
        <time>2020-02-03T14:07:51Z</time>
      </trkpt>
      <trkpt lat="25.672891" lon="-100.296741">
        <ele>498.476</ele>
        <time>2020-02-03T14:07:52Z</time>
      </trkpt>
      <trkpt lat="25.67288" lon="-100.296796">
        <ele>498.621</ele>
        <time>2020-02-03T14:07:54Z</time>
      </trkpt>
      <trkpt lat="25.672873" lon="-100.296824">
        <ele>498.385</ele>
        <time>2020-02-03T14:07:55Z</time>
      </trkpt>
      <trkpt lat="25.672866" lon="-100.296855">
        <ele>498.149</ele>
        <time>2020-02-03T14:07:56Z</time>
      </trkpt>
      <trkpt lat="25.67286" lon="-100.296886">
        <ele>497.764</ele>
        <time>2020-02-03T14:07:57Z</time>
      </trkpt>
      <trkpt lat="25.672854" lon="-100.296917">
        <ele>496.321</ele>
        <time>2020-02-03T14:07:58Z</time>
      </trkpt>
      <trkpt lat="25.672849" lon="-100.296946">
        <ele>496.5</ele>
        <time>2020-02-03T14:07:59Z</time>
      </trkpt>
      <trkpt lat="25.672843" lon="-100.296974">
        <ele>496.636</ele>
        <time>2020-02-03T14:08:00Z</time>
      </trkpt>
      <trkpt lat="25.672835" lon="-100.297001">
        <ele>496.664</ele>
        <time>2020-02-03T14:08:01Z</time>
      </trkpt>
      <trkpt lat="25.672826" lon="-100.297027">
        <ele>496.339</ele>
        <time>2020-02-03T14:08:02Z</time>
      </trkpt>
      <trkpt lat="25.672806" lon="-100.297071">
        <ele>496.19</ele>
        <time>2020-02-03T14:08:04Z</time>
      </trkpt>
      <trkpt lat="25.672774" lon="-100.297128">
        <ele>495.642</ele>
        <time>2020-02-03T14:08:07Z</time>
      </trkpt>
      <trkpt lat="25.67276" lon="-100.297156">
        <ele>496.709</ele>
        <time>2020-02-03T14:08:08Z</time>
      </trkpt>
      <trkpt lat="25.672747" lon="-100.297182">
        <ele>498.297</ele>
        <time>2020-02-03T14:08:09Z</time>
      </trkpt>
      <trkpt lat="25.672731" lon="-100.297207">
        <ele>498.497</ele>
        <time>2020-02-03T14:08:10Z</time>
      </trkpt>
      <trkpt lat="25.672714" lon="-100.297233">
        <ele>498.867</ele>
        <time>2020-02-03T14:08:11Z</time>
      </trkpt>
      <trkpt lat="25.672698" lon="-100.297259">
        <ele>498.929</ele>
        <time>2020-02-03T14:08:12Z</time>
      </trkpt>
      <trkpt lat="25.672681" lon="-100.297284">
        <ele>498.507</ele>
        <time>2020-02-03T14:08:13Z</time>
      </trkpt>
      <trkpt lat="25.672647" lon="-100.297335">
        <ele>498.383</ele>
        <time>2020-02-03T14:08:15Z</time>
      </trkpt>
      <trkpt lat="25.67263" lon="-100.297359">
        <ele>499.003</ele>
        <time>2020-02-03T14:08:16Z</time>
      </trkpt>
      <trkpt lat="25.672613" lon="-100.297382">
        <ele>500.459</ele>
        <time>2020-02-03T14:08:17Z</time>
      </trkpt>
      <trkpt lat="25.672595" lon="-100.297404">
        <ele>501.128</ele>
        <time>2020-02-03T14:08:18Z</time>
      </trkpt>
      <trkpt lat="25.672578" lon="-100.297429">
        <ele>500.782</ele>
        <time>2020-02-03T14:08:19Z</time>
      </trkpt>
      <trkpt lat="25.672551" lon="-100.297482">
        <ele>500.222</ele>
        <time>2020-02-03T14:08:21Z</time>
      </trkpt>
      <trkpt lat="25.672535" lon="-100.297539">
        <ele>499.108</ele>
        <time>2020-02-03T14:08:23Z</time>
      </trkpt>
      <trkpt lat="25.672521" lon="-100.297582">
        <ele>498.462</ele>
        <time>2020-02-03T14:08:24Z</time>
      </trkpt>
      <trkpt lat="25.672506" lon="-100.29762">
        <ele>498.133</ele>
        <time>2020-02-03T14:08:25Z</time>
      </trkpt>
      <trkpt lat="25.672492" lon="-100.297656">
        <ele>498.352</ele>
        <time>2020-02-03T14:08:26Z</time>
      </trkpt>
      <trkpt lat="25.672477" lon="-100.297689">
        <ele>497.986</ele>
        <time>2020-02-03T14:08:27Z</time>
      </trkpt>
      <trkpt lat="25.672458" lon="-100.297756">
        <ele>498.311</ele>
        <time>2020-02-03T14:08:29Z</time>
      </trkpt>
      <trkpt lat="25.672451" lon="-100.297821">
        <ele>497.306</ele>
        <time>2020-02-03T14:08:31Z</time>
      </trkpt>
      <trkpt lat="25.672448" lon="-100.297851">
        <ele>499.2</ele>
        <time>2020-02-03T14:08:32Z</time>
      </trkpt>
      <trkpt lat="25.672444" lon="-100.297881">
        <ele>499.345</ele>
        <time>2020-02-03T14:08:33Z</time>
      </trkpt>
      <trkpt lat="25.672441" lon="-100.297911">
        <ele>501.392</ele>
        <time>2020-02-03T14:08:34Z</time>
      </trkpt>
      <trkpt lat="25.672441" lon="-100.29794">
        <ele>501.714</ele>
        <time>2020-02-03T14:08:35Z</time>
      </trkpt>
      <trkpt lat="25.672446" lon="-100.298014">
        <ele>502.922</ele>
        <time>2020-02-03T14:08:38Z</time>
      </trkpt>
      <trkpt lat="25.672448" lon="-100.298049">
        <ele>501.543</ele>
        <time>2020-02-03T14:08:39Z</time>
      </trkpt>
      <trkpt lat="25.672449" lon="-100.298084">
        <ele>501.772</ele>
        <time>2020-02-03T14:08:40Z</time>
      </trkpt>
      <trkpt lat="25.672456" lon="-100.298159">
        <ele>501.544</ele>
        <time>2020-02-03T14:08:42Z</time>
      </trkpt>
      <trkpt lat="25.672468" lon="-100.298228">
        <ele>502.256</ele>
        <time>2020-02-03T14:08:44Z</time>
      </trkpt>
      <trkpt lat="25.672442" lon="-100.298283">
        <ele>502.316</ele>
        <time>2020-02-03T14:08:47Z</time>
      </trkpt>
      <trkpt lat="25.672354" lon="-100.298288">
        <ele>501.71</ele>
        <time>2020-02-03T14:08:50Z</time>
      </trkpt>
      <trkpt lat="25.672297" lon="-100.298282">
        <ele>499.848</ele>
        <time>2020-02-03T14:08:52Z</time>
      </trkpt>
      <trkpt lat="25.672268" lon="-100.298281">
        <ele>499.274</ele>
        <time>2020-02-03T14:08:53Z</time>
      </trkpt>
      <trkpt lat="25.672239" lon="-100.298279">
        <ele>498.997</ele>
        <time>2020-02-03T14:08:54Z</time>
      </trkpt>
      <trkpt lat="25.672176" lon="-100.298285">
        <ele>498.216</ele>
        <time>2020-02-03T14:08:56Z</time>
      </trkpt>
      <trkpt lat="25.67213" lon="-100.298316">
        <ele>498.064</ele>
        <time>2020-02-03T14:08:59Z</time>
      </trkpt>
      <trkpt lat="25.672133" lon="-100.298395">
        <ele>498.554</ele>
        <time>2020-02-03T14:09:02Z</time>
      </trkpt>
      <trkpt lat="25.672161" lon="-100.298475">
        <ele>498.419</ele>
        <time>2020-02-03T14:09:04Z</time>
      </trkpt>
      <trkpt lat="25.672175" lon="-100.298513">
        <ele>499.221</ele>
        <time>2020-02-03T14:09:05Z</time>
      </trkpt>
      <trkpt lat="25.672188" lon="-100.298549">
        <ele>498.997</ele>
        <time>2020-02-03T14:09:06Z</time>
      </trkpt>
      <trkpt lat="25.672199" lon="-100.298584">
        <ele>499.604</ele>
        <time>2020-02-03T14:09:07Z</time>
      </trkpt>
      <trkpt lat="25.672208" lon="-100.298618">
        <ele>499.698</ele>
        <time>2020-02-03T14:09:08Z</time>
      </trkpt>
      <trkpt lat="25.672225" lon="-100.298685">
        <ele>499.052</ele>
        <time>2020-02-03T14:09:10Z</time>
      </trkpt>
      <trkpt lat="25.672226" lon="-100.29875">
        <ele>499.215</ele>
        <time>2020-02-03T14:09:12Z</time>
      </trkpt>
      <trkpt lat="25.672226" lon="-100.298782">
        <ele>499.26</ele>
        <time>2020-02-03T14:09:13Z</time>
      </trkpt>
      <trkpt lat="25.672228" lon="-100.298816">
        <ele>498.846</ele>
        <time>2020-02-03T14:09:14Z</time>
      </trkpt>
      <trkpt lat="25.672235" lon="-100.298881">
        <ele>498.408</ele>
        <time>2020-02-03T14:09:16Z</time>
      </trkpt>
      <trkpt lat="25.672251" lon="-100.298977">
        <ele>498.572</ele>
        <time>2020-02-03T14:09:19Z</time>
      </trkpt>
      <trkpt lat="25.672254" lon="-100.299011">
        <ele>501.651</ele>
        <time>2020-02-03T14:09:20Z</time>
      </trkpt>
      <trkpt lat="25.672257" lon="-100.299077">
        <ele>500.952</ele>
        <time>2020-02-03T14:09:22Z</time>
      </trkpt>
      <trkpt lat="25.672259" lon="-100.29911">
        <ele>499.992</ele>
        <time>2020-02-03T14:09:23Z</time>
      </trkpt>
      <trkpt lat="25.67226" lon="-100.299141">
        <ele>499.451</ele>
        <time>2020-02-03T14:09:24Z</time>
      </trkpt>
      <trkpt lat="25.67226" lon="-100.299172">
        <ele>499.263</ele>
        <time>2020-02-03T14:09:25Z</time>
      </trkpt>
      <trkpt lat="25.67226" lon="-100.299207">
        <ele>500.868</ele>
        <time>2020-02-03T14:09:26Z</time>
      </trkpt>
      <trkpt lat="25.672259" lon="-100.299274">
        <ele>502.383</ele>
        <time>2020-02-03T14:09:28Z</time>
      </trkpt>
      <trkpt lat="25.672259" lon="-100.299367">
        <ele>502.853</ele>
        <time>2020-02-03T14:09:31Z</time>
      </trkpt>
      <trkpt lat="25.672258" lon="-100.299399">
        <ele>503.205</ele>
        <time>2020-02-03T14:09:32Z</time>
      </trkpt>
      <trkpt lat="25.672256" lon="-100.29943">
        <ele>503.359</ele>
        <time>2020-02-03T14:09:33Z</time>
      </trkpt>
      <trkpt lat="25.672255" lon="-100.299467">
        <ele>501.109</ele>
        <time>2020-02-03T14:09:34Z</time>
      </trkpt>
      <trkpt lat="25.672265" lon="-100.299543">
        <ele>500.607</ele>
        <time>2020-02-03T14:09:36Z</time>
      </trkpt>
      <trkpt lat="25.672291" lon="-100.299611">
        <ele>500.506</ele>
        <time>2020-02-03T14:09:38Z</time>
      </trkpt>
      <trkpt lat="25.672302" lon="-100.299645">
        <ele>500.876</ele>
        <time>2020-02-03T14:09:39Z</time>
      </trkpt>
      <trkpt lat="25.672307" lon="-100.299712">
        <ele>500.217</ele>
        <time>2020-02-03T14:09:41Z</time>
      </trkpt>
      <trkpt lat="25.672295" lon="-100.29981">
        <ele>499.281</ele>
        <time>2020-02-03T14:09:44Z</time>
      </trkpt>
      <trkpt lat="25.672291" lon="-100.29984">
        <ele>499.171</ele>
        <time>2020-02-03T14:09:45Z</time>
      </trkpt>
      <trkpt lat="25.672281" lon="-100.299898">
        <ele>499.777</ele>
        <time>2020-02-03T14:09:47Z</time>
      </trkpt>
      <trkpt lat="25.672277" lon="-100.299926">
        <ele>499.903</ele>
        <time>2020-02-03T14:09:48Z</time>
      </trkpt>
      <trkpt lat="25.672274" lon="-100.299957">
        <ele>500.419</ele>
        <time>2020-02-03T14:09:49Z</time>
      </trkpt>
      <trkpt lat="25.672267" lon="-100.300045">
        <ele>500.291</ele>
        <time>2020-02-03T14:09:52Z</time>
      </trkpt>
      <trkpt lat="25.672264" lon="-100.300075">
        <ele>500.022</ele>
        <time>2020-02-03T14:09:53Z</time>
      </trkpt>
      <trkpt lat="25.672267" lon="-100.300132">
        <ele>501.073</ele>
        <time>2020-02-03T14:09:55Z</time>
      </trkpt>
      <trkpt lat="25.672293" lon="-100.300186">
        <ele>500.561</ele>
        <time>2020-02-03T14:09:57Z</time>
      </trkpt>
      <trkpt lat="25.672333" lon="-100.300231">
        <ele>500.159</ele>
        <time>2020-02-03T14:09:59Z</time>
      </trkpt>
      <trkpt lat="25.672352" lon="-100.300252">
        <ele>498.228</ele>
        <time>2020-02-03T14:10:00Z</time>
      </trkpt>
      <trkpt lat="25.672385" lon="-100.300295">
        <ele>498.669</ele>
        <time>2020-02-03T14:10:02Z</time>
      </trkpt>
      <trkpt lat="25.672406" lon="-100.300351">
        <ele>499.335</ele>
        <time>2020-02-03T14:10:06Z</time>
      </trkpt>
      <trkpt lat="25.672415" lon="-100.300414">
        <ele>500.055</ele>
        <time>2020-02-03T14:10:09Z</time>
      </trkpt>
      <trkpt lat="25.672415" lon="-100.300475">
        <ele>499.752</ele>
        <time>2020-02-03T14:10:11Z</time>
      </trkpt>
      <trkpt lat="25.672391" lon="-100.300572">
        <ele>499.985</ele>
        <time>2020-02-03T14:10:14Z</time>
      </trkpt>
      <trkpt lat="25.672384" lon="-100.300607">
        <ele>499.906</ele>
        <time>2020-02-03T14:10:15Z</time>
      </trkpt>
      <trkpt lat="25.672376" lon="-100.300644">
        <ele>498.936</ele>
        <time>2020-02-03T14:10:16Z</time>
      </trkpt>
      <trkpt lat="25.672353" lon="-100.300713">
        <ele>500.375</ele>
        <time>2020-02-03T14:10:18Z</time>
      </trkpt>
      <trkpt lat="25.672344" lon="-100.300746">
        <ele>500.359</ele>
        <time>2020-02-03T14:10:19Z</time>
      </trkpt>
      <trkpt lat="25.672337" lon="-100.30078">
        <ele>499.915</ele>
        <time>2020-02-03T14:10:20Z</time>
      </trkpt>
      <trkpt lat="25.672333" lon="-100.300809">
        <ele>498.596</ele>
        <time>2020-02-03T14:10:21Z</time>
      </trkpt>
      <trkpt lat="25.672329" lon="-100.300841">
        <ele>498.169</ele>
        <time>2020-02-03T14:10:22Z</time>
      </trkpt>
      <trkpt lat="25.672319" lon="-100.300908">
        <ele>497.423</ele>
        <time>2020-02-03T14:10:24Z</time>
      </trkpt>
      <trkpt lat="25.672316" lon="-100.30094">
        <ele>497.048</ele>
        <time>2020-02-03T14:10:25Z</time>
      </trkpt>
      <trkpt lat="25.672311" lon="-100.300972">
        <ele>492.108</ele>
        <time>2020-02-03T14:10:26Z</time>
      </trkpt>
      <trkpt lat="25.672292" lon="-100.301034">
        <ele>490.551</ele>
        <time>2020-02-03T14:10:28Z</time>
      </trkpt>
      <trkpt lat="25.672282" lon="-100.301063">
        <ele>491.606</ele>
        <time>2020-02-03T14:10:29Z</time>
      </trkpt>
      <trkpt lat="25.672269" lon="-100.301093">
        <ele>490.349</ele>
        <time>2020-02-03T14:10:30Z</time>
      </trkpt>
      <trkpt lat="25.672256" lon="-100.301124">
        <ele>490.039</ele>
        <time>2020-02-03T14:10:31Z</time>
      </trkpt>
      <trkpt lat="25.672246" lon="-100.301154">
        <ele>490.139</ele>
        <time>2020-02-03T14:10:32Z</time>
      </trkpt>
      <trkpt lat="25.672233" lon="-100.301212">
        <ele>490.422</ele>
        <time>2020-02-03T14:10:34Z</time>
      </trkpt>
      <trkpt lat="25.672213" lon="-100.301265">
        <ele>491.697</ele>
        <time>2020-02-03T14:10:36Z</time>
      </trkpt>
      <trkpt lat="25.67219" lon="-100.301316">
        <ele>492.777</ele>
        <time>2020-02-03T14:10:38Z</time>
      </trkpt>
      <trkpt lat="25.672175" lon="-100.301369">
        <ele>494.618</ele>
        <time>2020-02-03T14:10:40Z</time>
      </trkpt>
      <trkpt lat="25.672167" lon="-100.301394">
        <ele>494.089</ele>
        <time>2020-02-03T14:10:41Z</time>
      </trkpt>
      <trkpt lat="25.672158" lon="-100.301419">
        <ele>494.213</ele>
        <time>2020-02-03T14:10:42Z</time>
      </trkpt>
      <trkpt lat="25.672149" lon="-100.301445">
        <ele>493.968</ele>
        <time>2020-02-03T14:10:43Z</time>
      </trkpt>
      <trkpt lat="25.672135" lon="-100.301499">
        <ele>493.67</ele>
        <time>2020-02-03T14:10:45Z</time>
      </trkpt>
      <trkpt lat="25.672129" lon="-100.301529">
        <ele>493.718</ele>
        <time>2020-02-03T14:10:46Z</time>
      </trkpt>
      <trkpt lat="25.672123" lon="-100.301558">
        <ele>499.895</ele>
        <time>2020-02-03T14:10:47Z</time>
      </trkpt>
      <trkpt lat="25.672118" lon="-100.301586">
        <ele>498.515</ele>
        <time>2020-02-03T14:10:48Z</time>
      </trkpt>
      <trkpt lat="25.672113" lon="-100.301614">
        <ele>498.015</ele>
        <time>2020-02-03T14:10:49Z</time>
      </trkpt>
      <trkpt lat="25.672108" lon="-100.301641">
        <ele>497.392</ele>
        <time>2020-02-03T14:10:50Z</time>
      </trkpt>
      <trkpt lat="25.672085" lon="-100.30169">
        <ele>497.613</ele>
        <time>2020-02-03T14:10:52Z</time>
      </trkpt>
      <trkpt lat="25.67205" lon="-100.301735">
        <ele>497.343</ele>
        <time>2020-02-03T14:10:54Z</time>
      </trkpt>
      <trkpt lat="25.672034" lon="-100.30176">
        <ele>497.217</ele>
        <time>2020-02-03T14:10:55Z</time>
      </trkpt>
      <trkpt lat="25.672019" lon="-100.301783">
        <ele>497.182</ele>
        <time>2020-02-03T14:10:56Z</time>
      </trkpt>
      <trkpt lat="25.671989" lon="-100.301829">
        <ele>498.517</ele>
        <time>2020-02-03T14:10:58Z</time>
      </trkpt>
      <trkpt lat="25.671973" lon="-100.30185">
        <ele>499.422</ele>
        <time>2020-02-03T14:10:59Z</time>
      </trkpt>
      <trkpt lat="25.671958" lon="-100.301873">
        <ele>499.185</ele>
        <time>2020-02-03T14:11:00Z</time>
      </trkpt>
      <trkpt lat="25.671944" lon="-100.301895">
        <ele>498.991</ele>
        <time>2020-02-03T14:11:01Z</time>
      </trkpt>
      <trkpt lat="25.671929" lon="-100.301918">
        <ele>499.842</ele>
        <time>2020-02-03T14:11:02Z</time>
      </trkpt>
      <trkpt lat="25.671909" lon="-100.301948">
        <ele>500.558</ele>
        <time>2020-02-03T14:11:03Z</time>
      </trkpt>
      <trkpt lat="25.671888" lon="-100.301978">
        <ele>500.196</ele>
        <time>2020-02-03T14:11:04Z</time>
      </trkpt>
      <trkpt lat="25.671869" lon="-100.302006">
        <ele>499.729</ele>
        <time>2020-02-03T14:11:05Z</time>
      </trkpt>
      <trkpt lat="25.671851" lon="-100.302033">
        <ele>500.546</ele>
        <time>2020-02-03T14:11:06Z</time>
      </trkpt>
      <trkpt lat="25.671834" lon="-100.302054">
        <ele>501.21</ele>
        <time>2020-02-03T14:11:07Z</time>
      </trkpt>
      <trkpt lat="25.671819" lon="-100.302077">
        <ele>500.082</ele>
        <time>2020-02-03T14:11:08Z</time>
      </trkpt>
      <trkpt lat="25.671779" lon="-100.302123">
        <ele>502.426</ele>
        <time>2020-02-03T14:11:10Z</time>
      </trkpt>
      <trkpt lat="25.671742" lon="-100.302153">
        <ele>503.138</ele>
        <time>2020-02-03T14:11:12Z</time>
      </trkpt>
      <trkpt lat="25.671691" lon="-100.302172">
        <ele>502.902</ele>
        <time>2020-02-03T14:11:14Z</time>
      </trkpt>
      <trkpt lat="25.671642" lon="-100.302216">
        <ele>504.741</ele>
        <time>2020-02-03T14:11:16Z</time>
      </trkpt>
      <trkpt lat="25.671615" lon="-100.302264">
        <ele>502.604</ele>
        <time>2020-02-03T14:11:18Z</time>
      </trkpt>
      <trkpt lat="25.67158" lon="-100.30231">
        <ele>503.83</ele>
        <time>2020-02-03T14:11:20Z</time>
      </trkpt>
      <trkpt lat="25.671543" lon="-100.30235">
        <ele>505.603</ele>
        <time>2020-02-03T14:11:22Z</time>
      </trkpt>
      <trkpt lat="25.671524" lon="-100.302369">
        <ele>506.343</ele>
        <time>2020-02-03T14:11:23Z</time>
      </trkpt>
      <trkpt lat="25.671638" lon="-100.30237">
        <ele>505.899</ele>
        <time>2020-02-03T14:11:40Z</time>
      </trkpt>
      <trkpt lat="25.671666" lon="-100.302445">
        <ele>506.187</ele>
        <time>2020-02-03T14:11:44Z</time>
      </trkpt>
      <trkpt lat="25.67171" lon="-100.302479">
        <ele>506.053</ele>
        <time>2020-02-03T14:11:47Z</time>
      </trkpt>
      <trkpt lat="25.67172" lon="-100.302539">
        <ele>507.198</ele>
        <time>2020-02-03T14:11:50Z</time>
      </trkpt>
      <trkpt lat="25.671674" lon="-100.302607">
        <ele>507.257</ele>
        <time>2020-02-03T14:11:53Z</time>
      </trkpt>
      <trkpt lat="25.671629" lon="-100.302636">
        <ele>507.457</ele>
        <time>2020-02-03T14:11:57Z</time>
      </trkpt>
      <trkpt lat="25.671586" lon="-100.302654">
        <ele>507.026</ele>
        <time>2020-02-03T14:12:00Z</time>
      </trkpt>
      <trkpt lat="25.671539" lon="-100.30269">
        <ele>507.158</ele>
        <time>2020-02-03T14:12:02Z</time>
      </trkpt>
      <trkpt lat="25.671492" lon="-100.302764">
        <ele>508.23</ele>
        <time>2020-02-03T14:12:05Z</time>
      </trkpt>
      <trkpt lat="25.671477" lon="-100.30279">
        <ele>507.539</ele>
        <time>2020-02-03T14:12:06Z</time>
      </trkpt>
      <trkpt lat="25.671463" lon="-100.302813">
        <ele>506.953</ele>
        <time>2020-02-03T14:12:07Z</time>
      </trkpt>
      <trkpt lat="25.67145" lon="-100.302839">
        <ele>507.48</ele>
        <time>2020-02-03T14:12:08Z</time>
      </trkpt>
      <trkpt lat="25.671437" lon="-100.302866">
        <ele>508.956</ele>
        <time>2020-02-03T14:12:09Z</time>
      </trkpt>
      <trkpt lat="25.671422" lon="-100.302892">
        <ele>510.659</ele>
        <time>2020-02-03T14:12:10Z</time>
      </trkpt>
      <trkpt lat="25.671408" lon="-100.302918">
        <ele>511.551</ele>
        <time>2020-02-03T14:12:11Z</time>
      </trkpt>
      <trkpt lat="25.671392" lon="-100.302944">
        <ele>510.707</ele>
        <time>2020-02-03T14:12:12Z</time>
      </trkpt>
      <trkpt lat="25.671376" lon="-100.30297">
        <ele>508.84</ele>
        <time>2020-02-03T14:12:13Z</time>
      </trkpt>
      <trkpt lat="25.671336" lon="-100.303012">
        <ele>509.245</ele>
        <time>2020-02-03T14:12:15Z</time>
      </trkpt>
      <trkpt lat="25.671306" lon="-100.303058">
        <ele>509.73</ele>
        <time>2020-02-03T14:12:17Z</time>
      </trkpt>
      <trkpt lat="25.671284" lon="-100.303111">
        <ele>510.527</ele>
        <time>2020-02-03T14:12:19Z</time>
      </trkpt>
      <trkpt lat="25.671275" lon="-100.303138">
        <ele>510.009</ele>
        <time>2020-02-03T14:12:20Z</time>
      </trkpt>
      <trkpt lat="25.671264" lon="-100.303196">
        <ele>509.223</ele>
        <time>2020-02-03T14:12:22Z</time>
      </trkpt>
      <trkpt lat="25.67126" lon="-100.303224">
        <ele>511.023</ele>
        <time>2020-02-03T14:12:23Z</time>
      </trkpt>
      <trkpt lat="25.671256" lon="-100.303251">
        <ele>512.26</ele>
        <time>2020-02-03T14:12:24Z</time>
      </trkpt>
      <trkpt lat="25.671253" lon="-100.303279">
        <ele>514.212</ele>
        <time>2020-02-03T14:12:25Z</time>
      </trkpt>
      <trkpt lat="25.671251" lon="-100.303306">
        <ele>514.616</ele>
        <time>2020-02-03T14:12:26Z</time>
      </trkpt>
      <trkpt lat="25.67125" lon="-100.303334">
        <ele>515.37</ele>
        <time>2020-02-03T14:12:27Z</time>
      </trkpt>
      <trkpt lat="25.671247" lon="-100.303363">
        <ele>514.505</ele>
        <time>2020-02-03T14:12:28Z</time>
      </trkpt>
      <trkpt lat="25.671244" lon="-100.303395">
        <ele>514.133</ele>
        <time>2020-02-03T14:12:29Z</time>
      </trkpt>
      <trkpt lat="25.671239" lon="-100.303426">
        <ele>514.041</ele>
        <time>2020-02-03T14:12:30Z</time>
      </trkpt>
      <trkpt lat="25.671235" lon="-100.303456">
        <ele>514.915</ele>
        <time>2020-02-03T14:12:31Z</time>
      </trkpt>
      <trkpt lat="25.67123" lon="-100.303484">
        <ele>515.657</ele>
        <time>2020-02-03T14:12:32Z</time>
      </trkpt>
      <trkpt lat="25.671217" lon="-100.303538">
        <ele>516.264</ele>
        <time>2020-02-03T14:12:34Z</time>
      </trkpt>
      <trkpt lat="25.671212" lon="-100.303563">
        <ele>517.037</ele>
        <time>2020-02-03T14:12:35Z</time>
      </trkpt>
      <trkpt lat="25.671208" lon="-100.303588">
        <ele>516.962</ele>
        <time>2020-02-03T14:12:36Z</time>
      </trkpt>
      <trkpt lat="25.671203" lon="-100.303613">
        <ele>516.644</ele>
        <time>2020-02-03T14:12:37Z</time>
      </trkpt>
      <trkpt lat="25.671197" lon="-100.303639">
        <ele>516.121</ele>
        <time>2020-02-03T14:12:38Z</time>
      </trkpt>
      <trkpt lat="25.67119" lon="-100.303664">
        <ele>515.649</ele>
        <time>2020-02-03T14:12:39Z</time>
      </trkpt>
      <trkpt lat="25.671182" lon="-100.30369">
        <ele>515.947</ele>
        <time>2020-02-03T14:12:40Z</time>
      </trkpt>
      <trkpt lat="25.671174" lon="-100.303716">
        <ele>513.734</ele>
        <time>2020-02-03T14:12:41Z</time>
      </trkpt>
      <trkpt lat="25.671167" lon="-100.303742">
        <ele>513.829</ele>
        <time>2020-02-03T14:12:42Z</time>
      </trkpt>
      <trkpt lat="25.671161" lon="-100.303768">
        <ele>512.703</ele>
        <time>2020-02-03T14:12:43Z</time>
      </trkpt>
      <trkpt lat="25.671156" lon="-100.303794">
        <ele>511.21</ele>
        <time>2020-02-03T14:12:44Z</time>
      </trkpt>
      <trkpt lat="25.671153" lon="-100.303819">
        <ele>510.163</ele>
        <time>2020-02-03T14:12:45Z</time>
      </trkpt>
      <trkpt lat="25.67115" lon="-100.303847">
        <ele>509.756</ele>
        <time>2020-02-03T14:12:46Z</time>
      </trkpt>
      <trkpt lat="25.671145" lon="-100.303875">
        <ele>509.952</ele>
        <time>2020-02-03T14:12:47Z</time>
      </trkpt>
      <trkpt lat="25.67114" lon="-100.303902">
        <ele>510.448</ele>
        <time>2020-02-03T14:12:48Z</time>
      </trkpt>
      <trkpt lat="25.671135" lon="-100.303928">
        <ele>509.765</ele>
        <time>2020-02-03T14:12:49Z</time>
      </trkpt>
      <trkpt lat="25.671132" lon="-100.303955">
        <ele>509.337</ele>
        <time>2020-02-03T14:12:50Z</time>
      </trkpt>
      <trkpt lat="25.671129" lon="-100.303981">
        <ele>509.542</ele>
        <time>2020-02-03T14:12:51Z</time>
      </trkpt>
      <trkpt lat="25.671125" lon="-100.304006">
        <ele>509.379</ele>
        <time>2020-02-03T14:12:52Z</time>
      </trkpt>
      <trkpt lat="25.67112" lon="-100.304031">
        <ele>508.759</ele>
        <time>2020-02-03T14:12:53Z</time>
      </trkpt>
      <trkpt lat="25.671103" lon="-100.304078">
        <ele>508.161</ele>
        <time>2020-02-03T14:12:55Z</time>
      </trkpt>
      <trkpt lat="25.67109" lon="-100.30415">
        <ele>507.299</ele>
        <time>2020-02-03T14:12:58Z</time>
      </trkpt>
      <trkpt lat="25.671086" lon="-100.304202">
        <ele>507.062</ele>
        <time>2020-02-03T14:13:00Z</time>
      </trkpt>
      <trkpt lat="25.671087" lon="-100.304254">
        <ele>507.318</ele>
        <time>2020-02-03T14:13:02Z</time>
      </trkpt>
      <trkpt lat="25.671079" lon="-100.304325">
        <ele>506.358</ele>
        <time>2020-02-03T14:13:05Z</time>
      </trkpt>
      <trkpt lat="25.671059" lon="-100.30439">
        <ele>506.983</ele>
        <time>2020-02-03T14:13:08Z</time>
      </trkpt>
      <trkpt lat="25.671045" lon="-100.304432">
        <ele>506.454</ele>
        <time>2020-02-03T14:13:10Z</time>
      </trkpt>
      <trkpt lat="25.671029" lon="-100.304472">
        <ele>506.45</ele>
        <time>2020-02-03T14:13:12Z</time>
      </trkpt>
      <trkpt lat="25.67101" lon="-100.304511">
        <ele>505.739</ele>
        <time>2020-02-03T14:13:14Z</time>
      </trkpt>
      <trkpt lat="25.670992" lon="-100.304549">
        <ele>505.09</ele>
        <time>2020-02-03T14:13:16Z</time>
      </trkpt>
      <trkpt lat="25.670947" lon="-100.304592">
        <ele>504.856</ele>
        <time>2020-02-03T14:13:19Z</time>
      </trkpt>
      <trkpt lat="25.670917" lon="-100.304621">
        <ele>504.827</ele>
        <time>2020-02-03T14:13:21Z</time>
      </trkpt>
      <trkpt lat="25.67088" lon="-100.304677">
        <ele>504.316</ele>
        <time>2020-02-03T14:13:24Z</time>
      </trkpt>
      <trkpt lat="25.670848" lon="-100.304742">
        <ele>504.479</ele>
        <time>2020-02-03T14:13:27Z</time>
      </trkpt>
      <trkpt lat="25.670829" lon="-100.304791">
        <ele>504.864</ele>
        <time>2020-02-03T14:13:29Z</time>
      </trkpt>
      <trkpt lat="25.670819" lon="-100.304815">
        <ele>505.62</ele>
        <time>2020-02-03T14:13:30Z</time>
      </trkpt>
      <trkpt lat="25.670807" lon="-100.304838">
        <ele>506.627</ele>
        <time>2020-02-03T14:13:31Z</time>
      </trkpt>
      <trkpt lat="25.670789" lon="-100.304875">
        <ele>506.95</ele>
        <time>2020-02-03T14:13:33Z</time>
      </trkpt>
      <trkpt lat="25.67077" lon="-100.304917">
        <ele>507.115</ele>
        <time>2020-02-03T14:13:35Z</time>
      </trkpt>
      <trkpt lat="25.670736" lon="-100.30497">
        <ele>507.334</ele>
        <time>2020-02-03T14:13:38Z</time>
      </trkpt>
      <trkpt lat="25.670694" lon="-100.30502">
        <ele>506.056</ele>
        <time>2020-02-03T14:13:41Z</time>
      </trkpt>
      <trkpt lat="25.670678" lon="-100.30509">
        <ele>506.257</ele>
        <time>2020-02-03T14:13:44Z</time>
      </trkpt>
      <trkpt lat="25.670662" lon="-100.3051">
        <ele>506.865</ele>
        <time>2020-02-03T14:13:52Z</time>
      </trkpt>
      <trkpt lat="25.670712" lon="-100.305125">
        <ele>507.752</ele>
        <time>2020-02-03T14:14:14Z</time>
      </trkpt>
      <trkpt lat="25.670741" lon="-100.305143">
        <ele>507.889</ele>
        <time>2020-02-03T14:14:17Z</time>
      </trkpt>
      <trkpt lat="25.670768" lon="-100.305162">
        <ele>508.39</ele>
        <time>2020-02-03T14:14:20Z</time>
      </trkpt>
      <trkpt lat="25.670797" lon="-100.305206">
        <ele>507.537</ele>
        <time>2020-02-03T14:14:25Z</time>
      </trkpt>
      <trkpt lat="25.670801" lon="-100.30526">
        <ele>509.076</ele>
        <time>2020-02-03T14:14:31Z</time>
      </trkpt>
      <trkpt lat="25.670785" lon="-100.305316">
        <ele>508.785</ele>
        <time>2020-02-03T14:14:37Z</time>
      </trkpt>
      <trkpt lat="25.670739" lon="-100.305344">
        <ele>508.996</ele>
        <time>2020-02-03T14:14:40Z</time>
      </trkpt>
      <trkpt lat="25.670689" lon="-100.305356">
        <ele>507.843</ele>
        <time>2020-02-03T14:14:42Z</time>
      </trkpt>
      <trkpt lat="25.670643" lon="-100.305355">
        <ele>505.127</ele>
        <time>2020-02-03T14:14:44Z</time>
      </trkpt>
      <trkpt lat="25.670557" lon="-100.30537">
        <ele>504.43</ele>
        <time>2020-02-03T14:14:48Z</time>
      </trkpt>
      <trkpt lat="25.670533" lon="-100.305375">
        <ele>503.241</ele>
        <time>2020-02-03T14:14:49Z</time>
      </trkpt>
      <trkpt lat="25.670508" lon="-100.30538">
        <ele>499.87</ele>
        <time>2020-02-03T14:14:50Z</time>
      </trkpt>
      <trkpt lat="25.670466" lon="-100.305401">
        <ele>498.688</ele>
        <time>2020-02-03T14:14:53Z</time>
      </trkpt>
      <trkpt lat="25.670461" lon="-100.305458">
        <ele>497.889</ele>
        <time>2020-02-03T14:14:57Z</time>
      </trkpt>
      <trkpt lat="25.670464" lon="-100.305529">
        <ele>499.395</ele>
        <time>2020-02-03T14:15:00Z</time>
      </trkpt>
      <trkpt lat="25.670492" lon="-100.305589">
        <ele>501.783</ele>
        <time>2020-02-03T14:15:03Z</time>
      </trkpt>
      <trkpt lat="25.670519" lon="-100.305653">
        <ele>502.005</ele>
        <time>2020-02-03T14:15:06Z</time>
      </trkpt>
      <trkpt lat="25.670521" lon="-100.305709">
        <ele>504.29</ele>
        <time>2020-02-03T14:15:08Z</time>
      </trkpt>
      <trkpt lat="25.670522" lon="-100.305738">
        <ele>506.217</ele>
        <time>2020-02-03T14:15:09Z</time>
      </trkpt>
      <trkpt lat="25.670532" lon="-100.305797">
        <ele>505.923</ele>
        <time>2020-02-03T14:15:11Z</time>
      </trkpt>
      <trkpt lat="25.670568" lon="-100.305849">
        <ele>506.783</ele>
        <time>2020-02-03T14:15:13Z</time>
      </trkpt>
      <trkpt lat="25.670626" lon="-100.30588">
        <ele>504.832</ele>
        <time>2020-02-03T14:15:15Z</time>
      </trkpt>
      <trkpt lat="25.670678" lon="-100.305892">
        <ele>503.026</ele>
        <time>2020-02-03T14:15:17Z</time>
      </trkpt>
      <trkpt lat="25.670768" lon="-100.305901">
        <ele>497.858</ele>
        <time>2020-02-03T14:15:20Z</time>
      </trkpt>
      <trkpt lat="25.670848" lon="-100.305926">
        <ele>495.749</ele>
        <time>2020-02-03T14:15:23Z</time>
      </trkpt>
      <trkpt lat="25.670885" lon="-100.305937">
        <ele>494.497</ele>
        <time>2020-02-03T14:15:25Z</time>
      </trkpt>
      <trkpt lat="25.670909" lon="-100.305945">
        <ele>502.438</ele>
        <time>2020-02-03T14:15:27Z</time>
      </trkpt>
      <trkpt lat="25.670934" lon="-100.305996">
        <ele>501.296</ele>
        <time>2020-02-03T14:15:32Z</time>
      </trkpt>
      <trkpt lat="25.670937" lon="-100.306053">
        <ele>500.319</ele>
        <time>2020-02-03T14:15:34Z</time>
      </trkpt>
      <trkpt lat="25.670938" lon="-100.306086">
        <ele>500.125</ele>
        <time>2020-02-03T14:15:35Z</time>
      </trkpt>
      <trkpt lat="25.670942" lon="-100.306127">
        <ele>497.395</ele>
        <time>2020-02-03T14:15:36Z</time>
      </trkpt>
      <trkpt lat="25.670963" lon="-100.30621">
        <ele>495.701</ele>
        <time>2020-02-03T14:15:38Z</time>
      </trkpt>
      <trkpt lat="25.670977" lon="-100.306254">
        <ele>496.239</ele>
        <time>2020-02-03T14:15:39Z</time>
      </trkpt>
      <trkpt lat="25.670987" lon="-100.306297">
        <ele>495.73</ele>
        <time>2020-02-03T14:15:40Z</time>
      </trkpt>
      <trkpt lat="25.670998" lon="-100.306382">
        <ele>495.364</ele>
        <time>2020-02-03T14:15:42Z</time>
      </trkpt>
      <trkpt lat="25.671017" lon="-100.306456">
        <ele>494.492</ele>
        <time>2020-02-03T14:15:44Z</time>
      </trkpt>
      <trkpt lat="25.671028" lon="-100.306488">
        <ele>493.582</ele>
        <time>2020-02-03T14:15:45Z</time>
      </trkpt>
      <trkpt lat="25.671039" lon="-100.306559">
        <ele>493.464</ele>
        <time>2020-02-03T14:15:47Z</time>
      </trkpt>
      <trkpt lat="25.671046" lon="-100.306594">
        <ele>490.607</ele>
        <time>2020-02-03T14:15:48Z</time>
      </trkpt>
      <trkpt lat="25.671055" lon="-100.306627">
        <ele>490.351</ele>
        <time>2020-02-03T14:15:49Z</time>
      </trkpt>
      <trkpt lat="25.671084" lon="-100.306696">
        <ele>491.326</ele>
        <time>2020-02-03T14:15:51Z</time>
      </trkpt>
      <trkpt lat="25.671096" lon="-100.306724">
        <ele>491.08</ele>
        <time>2020-02-03T14:15:52Z</time>
      </trkpt>
      <trkpt lat="25.671118" lon="-100.306822">
        <ele>490.921</ele>
        <time>2020-02-03T14:15:55Z</time>
      </trkpt>
      <trkpt lat="25.671103" lon="-100.306921">
        <ele>491.685</ele>
        <time>2020-02-03T14:15:58Z</time>
      </trkpt>
      <trkpt lat="25.671101" lon="-100.306982">
        <ele>492.606</ele>
        <time>2020-02-03T14:16:00Z</time>
      </trkpt>
      <trkpt lat="25.671102" lon="-100.307083">
        <ele>493.034</ele>
        <time>2020-02-03T14:16:03Z</time>
      </trkpt>
      <trkpt lat="25.671092" lon="-100.307148">
        <ele>493.885</ele>
        <time>2020-02-03T14:16:05Z</time>
      </trkpt>
      <trkpt lat="25.671088" lon="-100.307182">
        <ele>493.844</ele>
        <time>2020-02-03T14:16:06Z</time>
      </trkpt>
      <trkpt lat="25.671093" lon="-100.307247">
        <ele>493.351</ele>
        <time>2020-02-03T14:16:08Z</time>
      </trkpt>
      <trkpt lat="25.671108" lon="-100.307305">
        <ele>494.167</ele>
        <time>2020-02-03T14:16:10Z</time>
      </trkpt>
      <trkpt lat="25.671115" lon="-100.307362">
        <ele>494.453</ele>
        <time>2020-02-03T14:16:12Z</time>
      </trkpt>
      <trkpt lat="25.671117" lon="-100.307419">
        <ele>495.654</ele>
        <time>2020-02-03T14:16:14Z</time>
      </trkpt>
      <trkpt lat="25.671116" lon="-100.307449">
        <ele>495.864</ele>
        <time>2020-02-03T14:16:15Z</time>
      </trkpt>
      <trkpt lat="25.671118" lon="-100.307476">
        <ele>495.646</ele>
        <time>2020-02-03T14:16:16Z</time>
      </trkpt>
      <trkpt lat="25.671118" lon="-100.307505">
        <ele>496.987</ele>
        <time>2020-02-03T14:16:17Z</time>
      </trkpt>
      <trkpt lat="25.671119" lon="-100.307535">
        <ele>496.727</ele>
        <time>2020-02-03T14:16:18Z</time>
      </trkpt>
      <trkpt lat="25.671121" lon="-100.307566">
        <ele>496.49</ele>
        <time>2020-02-03T14:16:19Z</time>
      </trkpt>
      <trkpt lat="25.671124" lon="-100.307597">
        <ele>496.409</ele>
        <time>2020-02-03T14:16:20Z</time>
      </trkpt>
      <trkpt lat="25.671123" lon="-100.307665">
        <ele>496.803</ele>
        <time>2020-02-03T14:16:22Z</time>
      </trkpt>
      <trkpt lat="25.671108" lon="-100.307767">
        <ele>497.931</ele>
        <time>2020-02-03T14:16:25Z</time>
      </trkpt>
      <trkpt lat="25.671109" lon="-100.307837">
        <ele>496.877</ele>
        <time>2020-02-03T14:16:27Z</time>
      </trkpt>
      <trkpt lat="25.671114" lon="-100.307904">
        <ele>497.785</ele>
        <time>2020-02-03T14:16:29Z</time>
      </trkpt>
      <trkpt lat="25.671118" lon="-100.307934">
        <ele>498.174</ele>
        <time>2020-02-03T14:16:30Z</time>
      </trkpt>
      <trkpt lat="25.671121" lon="-100.307996">
        <ele>499.509</ele>
        <time>2020-02-03T14:16:32Z</time>
      </trkpt>
      <trkpt lat="25.671121" lon="-100.308044">
        <ele>501.622</ele>
        <time>2020-02-03T14:16:34Z</time>
      </trkpt>
      <trkpt lat="25.671116" lon="-100.308127">
        <ele>503.215</ele>
        <time>2020-02-03T14:16:37Z</time>
      </trkpt>
      <trkpt lat="25.67109" lon="-100.30817">
        <ele>503.827</ele>
        <time>2020-02-03T14:16:39Z</time>
      </trkpt>
      <trkpt lat="25.671043" lon="-100.308222">
        <ele>503.937</ele>
        <time>2020-02-03T14:16:42Z</time>
      </trkpt>
      <trkpt lat="25.670998" lon="-100.308243">
        <ele>504.248</ele>
        <time>2020-02-03T14:16:44Z</time>
      </trkpt>
      <trkpt lat="25.670943" lon="-100.308245">
        <ele>503.914</ele>
        <time>2020-02-03T14:16:46Z</time>
      </trkpt>
      <trkpt lat="25.670883" lon="-100.308236">
        <ele>504.936</ele>
        <time>2020-02-03T14:16:48Z</time>
      </trkpt>
      <trkpt lat="25.670799" lon="-100.308236">
        <ele>505.386</ele>
        <time>2020-02-03T14:16:51Z</time>
      </trkpt>
      <trkpt lat="25.670771" lon="-100.308236">
        <ele>504.652</ele>
        <time>2020-02-03T14:16:52Z</time>
      </trkpt>
      <trkpt lat="25.670744" lon="-100.308234">
        <ele>505.062</ele>
        <time>2020-02-03T14:16:53Z</time>
      </trkpt>
      <trkpt lat="25.670717" lon="-100.308234">
        <ele>504.961</ele>
        <time>2020-02-03T14:16:54Z</time>
      </trkpt>
      <trkpt lat="25.670691" lon="-100.308232">
        <ele>505.299</ele>
        <time>2020-02-03T14:16:55Z</time>
      </trkpt>
      <trkpt lat="25.670665" lon="-100.30823">
        <ele>504.143</ele>
        <time>2020-02-03T14:16:56Z</time>
      </trkpt>
      <trkpt lat="25.670617" lon="-100.308237">
        <ele>504.737</ele>
        <time>2020-02-03T14:16:58Z</time>
      </trkpt>
      <trkpt lat="25.670568" lon="-100.308252">
        <ele>504.266</ele>
        <time>2020-02-03T14:17:00Z</time>
      </trkpt>
      <trkpt lat="25.670542" lon="-100.30826">
        <ele>504.523</ele>
        <time>2020-02-03T14:17:01Z</time>
      </trkpt>
      <trkpt lat="25.670517" lon="-100.308266">
        <ele>504.115</ele>
        <time>2020-02-03T14:17:02Z</time>
      </trkpt>
      <trkpt lat="25.670467" lon="-100.308268">
        <ele>504.02</ele>
        <time>2020-02-03T14:17:04Z</time>
      </trkpt>
      <trkpt lat="25.670442" lon="-100.308269">
        <ele>507.908</ele>
        <time>2020-02-03T14:17:05Z</time>
      </trkpt>
      <trkpt lat="25.670393" lon="-100.308283">
        <ele>508.325</ele>
        <time>2020-02-03T14:17:07Z</time>
      </trkpt>
      <trkpt lat="25.670355" lon="-100.308316">
        <ele>509.821</ele>
        <time>2020-02-03T14:17:09Z</time>
      </trkpt>
      <trkpt lat="25.670323" lon="-100.308361">
        <ele>510.63</ele>
        <time>2020-02-03T14:17:11Z</time>
      </trkpt>
      <trkpt lat="25.670306" lon="-100.308383">
        <ele>509.707</ele>
        <time>2020-02-03T14:17:12Z</time>
      </trkpt>
      <trkpt lat="25.670256" lon="-100.308413">
        <ele>510.18</ele>
        <time>2020-02-03T14:17:14Z</time>
      </trkpt>
      <trkpt lat="25.670198" lon="-100.308431">
        <ele>511.724</ele>
        <time>2020-02-03T14:17:16Z</time>
      </trkpt>
      <trkpt lat="25.670142" lon="-100.308438">
        <ele>511.684</ele>
        <time>2020-02-03T14:17:18Z</time>
      </trkpt>
      <trkpt lat="25.670114" lon="-100.30844">
        <ele>512.097</ele>
        <time>2020-02-03T14:17:19Z</time>
      </trkpt>
      <trkpt lat="25.67006" lon="-100.308446">
        <ele>512.43</ele>
        <time>2020-02-03T14:17:21Z</time>
      </trkpt>
      <trkpt lat="25.670032" lon="-100.308447">
        <ele>513.568</ele>
        <time>2020-02-03T14:17:22Z</time>
      </trkpt>
      <trkpt lat="25.669978" lon="-100.308453">
        <ele>514.129</ele>
        <time>2020-02-03T14:17:24Z</time>
      </trkpt>
      <trkpt lat="25.669952" lon="-100.308458">
        <ele>516.441</ele>
        <time>2020-02-03T14:17:25Z</time>
      </trkpt>
      <trkpt lat="25.669924" lon="-100.308464">
        <ele>519.758</ele>
        <time>2020-02-03T14:17:26Z</time>
      </trkpt>
      <trkpt lat="25.669845" lon="-100.308498">
        <ele>520.286</ele>
        <time>2020-02-03T14:17:29Z</time>
      </trkpt>
      <trkpt lat="25.669795" lon="-100.308528">
        <ele>521.495</ele>
        <time>2020-02-03T14:17:31Z</time>
      </trkpt>
      <trkpt lat="25.66974" lon="-100.308524">
        <ele>521.794</ele>
        <time>2020-02-03T14:17:34Z</time>
      </trkpt>
      <trkpt lat="25.669685" lon="-100.308515">
        <ele>521.734</ele>
        <time>2020-02-03T14:17:37Z</time>
      </trkpt>
      <trkpt lat="25.669616" lon="-100.308521">
        <ele>521.609</ele>
        <time>2020-02-03T14:17:39Z</time>
      </trkpt>
      <trkpt lat="25.669547" lon="-100.308522">
        <ele>521.436</ele>
        <time>2020-02-03T14:17:41Z</time>
      </trkpt>
      <trkpt lat="25.669502" lon="-100.308541">
        <ele>521.154</ele>
        <time>2020-02-03T14:17:43Z</time>
      </trkpt>
      <trkpt lat="25.669452" lon="-100.308576">
        <ele>522.302</ele>
        <time>2020-02-03T14:17:45Z</time>
      </trkpt>
      <trkpt lat="25.66943" lon="-100.308593">
        <ele>522.614</ele>
        <time>2020-02-03T14:17:46Z</time>
      </trkpt>
      <trkpt lat="25.669406" lon="-100.30861">
        <ele>523.219</ele>
        <time>2020-02-03T14:17:47Z</time>
      </trkpt>
      <trkpt lat="25.669386" lon="-100.308625">
        <ele>523.305</ele>
        <time>2020-02-03T14:17:48Z</time>
      </trkpt>
      <trkpt lat="25.669355" lon="-100.308644">
        <ele>524.893</ele>
        <time>2020-02-03T14:17:50Z</time>
      </trkpt>
      <trkpt lat="25.669274" lon="-100.308661">
        <ele>525.071</ele>
        <time>2020-02-03T14:17:53Z</time>
      </trkpt>
      <trkpt lat="25.669219" lon="-100.308657">
        <ele>525.39</ele>
        <time>2020-02-03T14:17:55Z</time>
      </trkpt>
      <trkpt lat="25.669191" lon="-100.308655">
        <ele>525.138</ele>
        <time>2020-02-03T14:17:56Z</time>
      </trkpt>
      <trkpt lat="25.669134" lon="-100.308645">
        <ele>524.912</ele>
        <time>2020-02-03T14:17:58Z</time>
      </trkpt>
      <trkpt lat="25.66911" lon="-100.308642">
        <ele>524.983</ele>
        <time>2020-02-03T14:17:59Z</time>
      </trkpt>
      <trkpt lat="25.669071" lon="-100.308636">
        <ele>524.809</ele>
        <time>2020-02-03T14:18:01Z</time>
      </trkpt>
      <trkpt lat="25.669048" lon="-100.308631">
        <ele>526.021</ele>
        <time>2020-02-03T14:18:02Z</time>
      </trkpt>
      <trkpt lat="25.668992" lon="-100.30863">
        <ele>525.56</ele>
        <time>2020-02-03T14:18:04Z</time>
      </trkpt>
      <trkpt lat="25.66893" lon="-100.308644">
        <ele>525.972</ele>
        <time>2020-02-03T14:18:06Z</time>
      </trkpt>
      <trkpt lat="25.668898" lon="-100.308651">
        <ele>526.642</ele>
        <time>2020-02-03T14:18:07Z</time>
      </trkpt>
      <trkpt lat="25.668866" lon="-100.308659">
        <ele>527.168</ele>
        <time>2020-02-03T14:18:08Z</time>
      </trkpt>
      <trkpt lat="25.668835" lon="-100.308665">
        <ele>524.181</ele>
        <time>2020-02-03T14:18:09Z</time>
      </trkpt>
      <trkpt lat="25.668804" lon="-100.30867">
        <ele>524.285</ele>
        <time>2020-02-03T14:18:10Z</time>
      </trkpt>
      <trkpt lat="25.668774" lon="-100.308676">
        <ele>524.895</ele>
        <time>2020-02-03T14:18:11Z</time>
      </trkpt>
      <trkpt lat="25.668746" lon="-100.308685">
        <ele>524.237</ele>
        <time>2020-02-03T14:18:12Z</time>
      </trkpt>
      <trkpt lat="25.668719" lon="-100.308695">
        <ele>524.055</ele>
        <time>2020-02-03T14:18:13Z</time>
      </trkpt>
      <trkpt lat="25.668645" lon="-100.308737">
        <ele>524.946</ele>
        <time>2020-02-03T14:18:16Z</time>
      </trkpt>
      <trkpt lat="25.668597" lon="-100.308745">
        <ele>523.702</ele>
        <time>2020-02-03T14:18:18Z</time>
      </trkpt>
      <trkpt lat="25.66855" lon="-100.308744">
        <ele>523.989</ele>
        <time>2020-02-03T14:18:20Z</time>
      </trkpt>
      <trkpt lat="25.668503" lon="-100.308757">
        <ele>523.781</ele>
        <time>2020-02-03T14:18:22Z</time>
      </trkpt>
      <trkpt lat="25.668436" lon="-100.30878">
        <ele>523.304</ele>
        <time>2020-02-03T14:18:25Z</time>
      </trkpt>
      <trkpt lat="25.668369" lon="-100.308782">
        <ele>523.188</ele>
        <time>2020-02-03T14:18:28Z</time>
      </trkpt>
      <trkpt lat="25.668324" lon="-100.308797">
        <ele>522.805</ele>
        <time>2020-02-03T14:18:30Z</time>
      </trkpt>
      <trkpt lat="25.668299" lon="-100.308804">
        <ele>522.68</ele>
        <time>2020-02-03T14:18:31Z</time>
      </trkpt>
      <trkpt lat="25.668273" lon="-100.308813">
        <ele>521.625</ele>
        <time>2020-02-03T14:18:32Z</time>
      </trkpt>
      <trkpt lat="25.668248" lon="-100.30882">
        <ele>518.902</ele>
        <time>2020-02-03T14:18:33Z</time>
      </trkpt>
      <trkpt lat="25.668223" lon="-100.308826">
        <ele>519.54</ele>
        <time>2020-02-03T14:18:34Z</time>
      </trkpt>
      <trkpt lat="25.668199" lon="-100.308834">
        <ele>520.634</ele>
        <time>2020-02-03T14:18:35Z</time>
      </trkpt>
      <trkpt lat="25.668152" lon="-100.308861">
        <ele>520.825</ele>
        <time>2020-02-03T14:18:37Z</time>
      </trkpt>
      <trkpt lat="25.668111" lon="-100.308895">
        <ele>521.17</ele>
        <time>2020-02-03T14:18:39Z</time>
      </trkpt>
      <trkpt lat="25.668039" lon="-100.308917">
        <ele>524.308</ele>
        <time>2020-02-03T14:18:42Z</time>
      </trkpt>
      <trkpt lat="25.667982" lon="-100.308926">
        <ele>524.867</ele>
        <time>2020-02-03T14:18:44Z</time>
      </trkpt>
      <trkpt lat="25.667931" lon="-100.308944">
        <ele>524.699</ele>
        <time>2020-02-03T14:18:46Z</time>
      </trkpt>
      <trkpt lat="25.667906" lon="-100.308953">
        <ele>524.5</ele>
        <time>2020-02-03T14:18:47Z</time>
      </trkpt>
      <trkpt lat="25.66788" lon="-100.308961">
        <ele>524.177</ele>
        <time>2020-02-03T14:18:48Z</time>
      </trkpt>
      <trkpt lat="25.667795" lon="-100.308974">
        <ele>524.773</ele>
        <time>2020-02-03T14:18:51Z</time>
      </trkpt>
      <trkpt lat="25.667772" lon="-100.30898">
        <ele>524.267</ele>
        <time>2020-02-03T14:18:52Z</time>
      </trkpt>
      <trkpt lat="25.667748" lon="-100.308986">
        <ele>523.776</ele>
        <time>2020-02-03T14:18:53Z</time>
      </trkpt>
      <trkpt lat="25.667724" lon="-100.308991">
        <ele>523.771</ele>
        <time>2020-02-03T14:18:54Z</time>
      </trkpt>
      <trkpt lat="25.667698" lon="-100.308998">
        <ele>521.668</ele>
        <time>2020-02-03T14:18:55Z</time>
      </trkpt>
      <trkpt lat="25.667671" lon="-100.309005">
        <ele>521.256</ele>
        <time>2020-02-03T14:18:56Z</time>
      </trkpt>
      <trkpt lat="25.667643" lon="-100.309011">
        <ele>520.467</ele>
        <time>2020-02-03T14:18:57Z</time>
      </trkpt>
      <trkpt lat="25.667616" lon="-100.309015">
        <ele>520.986</ele>
        <time>2020-02-03T14:18:58Z</time>
      </trkpt>
      <trkpt lat="25.667588" lon="-100.309018">
        <ele>519.301</ele>
        <time>2020-02-03T14:18:59Z</time>
      </trkpt>
      <trkpt lat="25.667549" lon="-100.309057">
        <ele>517.455</ele>
        <time>2020-02-03T14:19:02Z</time>
      </trkpt>
      <trkpt lat="25.667551" lon="-100.309108">
        <ele>516.905</ele>
        <time>2020-02-03T14:19:04Z</time>
      </trkpt>
      <trkpt lat="25.667533" lon="-100.309154">
        <ele>516.69</ele>
        <time>2020-02-03T14:19:06Z</time>
      </trkpt>
      <trkpt lat="25.667495" lon="-100.309212">
        <ele>515.971</ele>
        <time>2020-02-03T14:19:09Z</time>
      </trkpt>
      <trkpt lat="25.66748" lon="-100.309285">
        <ele>516.306</ele>
        <time>2020-02-03T14:19:12Z</time>
      </trkpt>
      <trkpt lat="25.667478" lon="-100.309341">
        <ele>516.421</ele>
        <time>2020-02-03T14:19:14Z</time>
      </trkpt>
      <trkpt lat="25.667477" lon="-100.309369">
        <ele>516.697</ele>
        <time>2020-02-03T14:19:15Z</time>
      </trkpt>
      <trkpt lat="25.667477" lon="-100.309398">
        <ele>516.392</ele>
        <time>2020-02-03T14:19:16Z</time>
      </trkpt>
      <trkpt lat="25.667489" lon="-100.309455">
        <ele>516.135</ele>
        <time>2020-02-03T14:19:18Z</time>
      </trkpt>
      <trkpt lat="25.667506" lon="-100.309511">
        <ele>515.543</ele>
        <time>2020-02-03T14:19:20Z</time>
      </trkpt>
      <trkpt lat="25.667515" lon="-100.309539">
        <ele>518.476</ele>
        <time>2020-02-03T14:19:21Z</time>
      </trkpt>
      <trkpt lat="25.667537" lon="-100.309591">
        <ele>518.255</ele>
        <time>2020-02-03T14:19:23Z</time>
      </trkpt>
      <trkpt lat="25.667546" lon="-100.309615">
        <ele>518.422</ele>
        <time>2020-02-03T14:19:24Z</time>
      </trkpt>
      <trkpt lat="25.667554" lon="-100.30964">
        <ele>517.648</ele>
        <time>2020-02-03T14:19:25Z</time>
      </trkpt>
      <trkpt lat="25.667565" lon="-100.309695">
        <ele>517.99</ele>
        <time>2020-02-03T14:19:27Z</time>
      </trkpt>
      <trkpt lat="25.667572" lon="-100.309722">
        <ele>517.817</ele>
        <time>2020-02-03T14:19:28Z</time>
      </trkpt>
      <trkpt lat="25.667582" lon="-100.309748">
        <ele>516.644</ele>
        <time>2020-02-03T14:19:29Z</time>
      </trkpt>
      <trkpt lat="25.667592" lon="-100.309779">
        <ele>516.58</ele>
        <time>2020-02-03T14:19:30Z</time>
      </trkpt>
      <trkpt lat="25.667602" lon="-100.309808">
        <ele>516.414</ele>
        <time>2020-02-03T14:19:31Z</time>
      </trkpt>
      <trkpt lat="25.667623" lon="-100.309896">
        <ele>516.816</ele>
        <time>2020-02-03T14:19:34Z</time>
      </trkpt>
      <trkpt lat="25.667631" lon="-100.309926">
        <ele>518.513</ele>
        <time>2020-02-03T14:19:35Z</time>
      </trkpt>
      <trkpt lat="25.667638" lon="-100.309957">
        <ele>519.122</ele>
        <time>2020-02-03T14:19:36Z</time>
      </trkpt>
      <trkpt lat="25.667647" lon="-100.309989">
        <ele>519.318</ele>
        <time>2020-02-03T14:19:37Z</time>
      </trkpt>
      <trkpt lat="25.667655" lon="-100.31002">
        <ele>519.634</ele>
        <time>2020-02-03T14:19:38Z</time>
      </trkpt>
      <trkpt lat="25.667669" lon="-100.31008">
        <ele>519.985</ele>
        <time>2020-02-03T14:19:40Z</time>
      </trkpt>
      <trkpt lat="25.667678" lon="-100.310178">
        <ele>519.359</ele>
        <time>2020-02-03T14:19:43Z</time>
      </trkpt>
      <trkpt lat="25.667691" lon="-100.310234">
        <ele>518.649</ele>
        <time>2020-02-03T14:19:45Z</time>
      </trkpt>
      <trkpt lat="25.6677" lon="-100.310261">
        <ele>518.219</ele>
        <time>2020-02-03T14:19:46Z</time>
      </trkpt>
      <trkpt lat="25.667707" lon="-100.31029">
        <ele>518.16</ele>
        <time>2020-02-03T14:19:47Z</time>
      </trkpt>
      <trkpt lat="25.667713" lon="-100.31032">
        <ele>518.765</ele>
        <time>2020-02-03T14:19:48Z</time>
      </trkpt>
      <trkpt lat="25.667718" lon="-100.31035">
        <ele>519.89</ele>
        <time>2020-02-03T14:19:49Z</time>
      </trkpt>
      <trkpt lat="25.667722" lon="-100.310383">
        <ele>519.946</ele>
        <time>2020-02-03T14:19:50Z</time>
      </trkpt>
      <trkpt lat="25.667736" lon="-100.310442">
        <ele>520.582</ele>
        <time>2020-02-03T14:19:52Z</time>
      </trkpt>
      <trkpt lat="25.667743" lon="-100.310469">
        <ele>519.338</ele>
        <time>2020-02-03T14:19:53Z</time>
      </trkpt>
      <trkpt lat="25.667754" lon="-100.310526">
        <ele>518.732</ele>
        <time>2020-02-03T14:19:55Z</time>
      </trkpt>
      <trkpt lat="25.667781" lon="-100.310622">
        <ele>518.18</ele>
        <time>2020-02-03T14:19:59Z</time>
      </trkpt>
      <trkpt lat="25.667758" lon="-100.310661">
        <ele>519.203</ele>
        <time>2020-02-03T14:20:06Z</time>
      </trkpt>
      <trkpt lat="25.667771" lon="-100.310719">
        <ele>519.717</ele>
        <time>2020-02-03T14:20:13Z</time>
      </trkpt>
      <trkpt lat="25.667754" lon="-100.310767">
        <ele>520.177</ele>
        <time>2020-02-03T14:20:15Z</time>
      </trkpt>
      <trkpt lat="25.667708" lon="-100.310801">
        <ele>520.584</ele>
        <time>2020-02-03T14:20:17Z</time>
      </trkpt>
      <trkpt lat="25.66763" lon="-100.310842">
        <ele>520.328</ele>
        <time>2020-02-03T14:20:20Z</time>
      </trkpt>
      <trkpt lat="25.667571" lon="-100.310854">
        <ele>519.491</ele>
        <time>2020-02-03T14:20:22Z</time>
      </trkpt>
      <trkpt lat="25.667537" lon="-100.310858">
        <ele>519.718</ele>
        <time>2020-02-03T14:20:23Z</time>
      </trkpt>
      <trkpt lat="25.667506" lon="-100.310861">
        <ele>519.08</ele>
        <time>2020-02-03T14:20:24Z</time>
      </trkpt>
      <trkpt lat="25.667476" lon="-100.310865">
        <ele>519.653</ele>
        <time>2020-02-03T14:20:25Z</time>
      </trkpt>
      <trkpt lat="25.667447" lon="-100.31087">
        <ele>519.712</ele>
        <time>2020-02-03T14:20:26Z</time>
      </trkpt>
      <trkpt lat="25.667417" lon="-100.310875">
        <ele>516.327</ele>
        <time>2020-02-03T14:20:27Z</time>
      </trkpt>
      <trkpt lat="25.667385" lon="-100.310882">
        <ele>515.616</ele>
        <time>2020-02-03T14:20:28Z</time>
      </trkpt>
      <trkpt lat="25.667298" lon="-100.310904">
        <ele>516.506</ele>
        <time>2020-02-03T14:20:31Z</time>
      </trkpt>
      <trkpt lat="25.667245" lon="-100.310918">
        <ele>518.028</ele>
        <time>2020-02-03T14:20:33Z</time>
      </trkpt>
      <trkpt lat="25.667221" lon="-100.310939">
        <ele>517.745</ele>
        <time>2020-02-03T14:20:40Z</time>
      </trkpt>
      <trkpt lat="25.66718" lon="-100.311001">
        <ele>518.167</ele>
        <time>2020-02-03T14:20:47Z</time>
      </trkpt>
      <trkpt lat="25.667162" lon="-100.31103">
        <ele>519.46</ele>
        <time>2020-02-03T14:20:50Z</time>
      </trkpt>
      <trkpt lat="25.667167" lon="-100.311123">
        <ele>521.722</ele>
        <time>2020-02-03T14:20:54Z</time>
      </trkpt>
      <trkpt lat="25.667153" lon="-100.311174">
        <ele>521.994</ele>
        <time>2020-02-03T14:20:56Z</time>
      </trkpt>
      <trkpt lat="25.667148" lon="-100.3112">
        <ele>521.618</ele>
        <time>2020-02-03T14:20:57Z</time>
      </trkpt>
      <trkpt lat="25.667134" lon="-100.311313">
        <ele>521.747</ele>
        <time>2020-02-03T14:21:01Z</time>
      </trkpt>
      <trkpt lat="25.667117" lon="-100.311365">
        <ele>521.288</ele>
        <time>2020-02-03T14:21:03Z</time>
      </trkpt>
      <trkpt lat="25.667096" lon="-100.311439">
        <ele>521.393</ele>
        <time>2020-02-03T14:21:08Z</time>
      </trkpt>
      <trkpt lat="25.66707" lon="-100.311528">
        <ele>521.015</ele>
        <time>2020-02-03T14:21:11Z</time>
      </trkpt>
      <trkpt lat="25.667062" lon="-100.311638">
        <ele>522.016</ele>
        <time>2020-02-03T14:21:14Z</time>
      </trkpt>
      <trkpt lat="25.667069" lon="-100.311705">
        <ele>525.661</ele>
        <time>2020-02-03T14:21:16Z</time>
      </trkpt>
      <trkpt lat="25.667074" lon="-100.311737">
        <ele>527.008</ele>
        <time>2020-02-03T14:21:17Z</time>
      </trkpt>
      <trkpt lat="25.667078" lon="-100.31177">
        <ele>526.012</ele>
        <time>2020-02-03T14:21:18Z</time>
      </trkpt>
      <trkpt lat="25.667083" lon="-100.311806">
        <ele>525.849</ele>
        <time>2020-02-03T14:21:19Z</time>
      </trkpt>
      <trkpt lat="25.667087" lon="-100.311844">
        <ele>524.006</ele>
        <time>2020-02-03T14:21:20Z</time>
      </trkpt>
      <trkpt lat="25.667091" lon="-100.311929">
        <ele>523.697</ele>
        <time>2020-02-03T14:21:23Z</time>
      </trkpt>
      <trkpt lat="25.667119" lon="-100.311973">
        <ele>524.406</ele>
        <time>2020-02-03T14:21:25Z</time>
      </trkpt>
      <trkpt lat="25.667163" lon="-100.31203">
        <ele>524.682</ele>
        <time>2020-02-03T14:21:27Z</time>
      </trkpt>
      <trkpt lat="25.667184" lon="-100.312059">
        <ele>524.276</ele>
        <time>2020-02-03T14:21:28Z</time>
      </trkpt>
      <trkpt lat="25.667215" lon="-100.312126">
        <ele>524.125</ele>
        <time>2020-02-03T14:21:30Z</time>
      </trkpt>
      <trkpt lat="25.667228" lon="-100.312162">
        <ele>523.931</ele>
        <time>2020-02-03T14:21:31Z</time>
      </trkpt>
      <trkpt lat="25.667241" lon="-100.312198">
        <ele>522.125</ele>
        <time>2020-02-03T14:21:32Z</time>
      </trkpt>
      <trkpt lat="25.667277" lon="-100.312296">
        <ele>522.313</ele>
        <time>2020-02-03T14:21:35Z</time>
      </trkpt>
      <trkpt lat="25.667286" lon="-100.312369">
        <ele>521.369</ele>
        <time>2020-02-03T14:21:37Z</time>
      </trkpt>
      <trkpt lat="25.667292" lon="-100.312403">
        <ele>520.601</ele>
        <time>2020-02-03T14:21:38Z</time>
      </trkpt>
      <trkpt lat="25.667298" lon="-100.312429">
        <ele>521.123</ele>
        <time>2020-02-03T14:21:39Z</time>
      </trkpt>
      <trkpt lat="25.667311" lon="-100.31248">
        <ele>521.044</ele>
        <time>2020-02-03T14:21:41Z</time>
      </trkpt>
      <trkpt lat="25.667322" lon="-100.312514">
        <ele>520.471</ele>
        <time>2020-02-03T14:21:42Z</time>
      </trkpt>
      <trkpt lat="25.667333" lon="-100.31255">
        <ele>520.747</ele>
        <time>2020-02-03T14:21:43Z</time>
      </trkpt>
      <trkpt lat="25.667341" lon="-100.312582">
        <ele>521.208</ele>
        <time>2020-02-03T14:21:44Z</time>
      </trkpt>
      <trkpt lat="25.667336" lon="-100.312631">
        <ele>520.439</ele>
        <time>2020-02-03T14:21:46Z</time>
      </trkpt>
      <trkpt lat="25.667308" lon="-100.312697">
        <ele>520.462</ele>
        <time>2020-02-03T14:21:49Z</time>
      </trkpt>
      <trkpt lat="25.667295" lon="-100.312748">
        <ele>521.272</ele>
        <time>2020-02-03T14:21:51Z</time>
      </trkpt>
      <trkpt lat="25.667299" lon="-100.312822">
        <ele>522.053</ele>
        <time>2020-02-03T14:21:53Z</time>
      </trkpt>
      <trkpt lat="25.667324" lon="-100.312897">
        <ele>523.67</ele>
        <time>2020-02-03T14:21:55Z</time>
      </trkpt>
      <trkpt lat="25.667339" lon="-100.312934">
        <ele>524.328</ele>
        <time>2020-02-03T14:21:56Z</time>
      </trkpt>
      <trkpt lat="25.667352" lon="-100.31297">
        <ele>525.568</ele>
        <time>2020-02-03T14:21:57Z</time>
      </trkpt>
      <trkpt lat="25.667363" lon="-100.313003">
        <ele>525.32</ele>
        <time>2020-02-03T14:21:58Z</time>
      </trkpt>
      <trkpt lat="25.667372" lon="-100.313036">
        <ele>525.079</ele>
        <time>2020-02-03T14:21:59Z</time>
      </trkpt>
      <trkpt lat="25.66738" lon="-100.313069">
        <ele>524.726</ele>
        <time>2020-02-03T14:22:00Z</time>
      </trkpt>
      <trkpt lat="25.667385" lon="-100.313101">
        <ele>524.83</ele>
        <time>2020-02-03T14:22:01Z</time>
      </trkpt>
      <trkpt lat="25.667392" lon="-100.313134">
        <ele>525.002</ele>
        <time>2020-02-03T14:22:02Z</time>
      </trkpt>
      <trkpt lat="25.6674" lon="-100.313167">
        <ele>525.675</ele>
        <time>2020-02-03T14:22:03Z</time>
      </trkpt>
      <trkpt lat="25.667407" lon="-100.3132">
        <ele>525.52</ele>
        <time>2020-02-03T14:22:04Z</time>
      </trkpt>
      <trkpt lat="25.667411" lon="-100.313273">
        <ele>526.228</ele>
        <time>2020-02-03T14:22:06Z</time>
      </trkpt>
      <trkpt lat="25.667413" lon="-100.313304">
        <ele>524.359</ele>
        <time>2020-02-03T14:22:07Z</time>
      </trkpt>
      <trkpt lat="25.667415" lon="-100.313336">
        <ele>525.619</ele>
        <time>2020-02-03T14:22:08Z</time>
      </trkpt>
      <trkpt lat="25.667425" lon="-100.313397">
        <ele>526.175</ele>
        <time>2020-02-03T14:22:10Z</time>
      </trkpt>
      <trkpt lat="25.667428" lon="-100.313427">
        <ele>526.668</ele>
        <time>2020-02-03T14:22:11Z</time>
      </trkpt>
      <trkpt lat="25.66743" lon="-100.313454">
        <ele>527.204</ele>
        <time>2020-02-03T14:22:12Z</time>
      </trkpt>
      <trkpt lat="25.667435" lon="-100.31348">
        <ele>527.767</ele>
        <time>2020-02-03T14:22:13Z</time>
      </trkpt>
      <trkpt lat="25.66744" lon="-100.313508">
        <ele>527.688</ele>
        <time>2020-02-03T14:22:14Z</time>
      </trkpt>
      <trkpt lat="25.66746" lon="-100.313579">
        <ele>527.657</ele>
        <time>2020-02-03T14:22:17Z</time>
      </trkpt>
      <trkpt lat="25.667468" lon="-100.313621">
        <ele>528.018</ele>
        <time>2020-02-03T14:22:19Z</time>
      </trkpt>
      <trkpt lat="25.667485" lon="-100.313676">
        <ele>528.214</ele>
        <time>2020-02-03T14:22:21Z</time>
      </trkpt>
      <trkpt lat="25.667492" lon="-100.313703">
        <ele>527.87</ele>
        <time>2020-02-03T14:22:22Z</time>
      </trkpt>
      <trkpt lat="25.667501" lon="-100.313767">
        <ele>528.119</ele>
        <time>2020-02-03T14:22:24Z</time>
      </trkpt>
      <trkpt lat="25.667504" lon="-100.3138">
        <ele>528.026</ele>
        <time>2020-02-03T14:22:25Z</time>
      </trkpt>
      <trkpt lat="25.667511" lon="-100.313865">
        <ele>528.157</ele>
        <time>2020-02-03T14:22:27Z</time>
      </trkpt>
      <trkpt lat="25.66753" lon="-100.313929">
        <ele>529.001</ele>
        <time>2020-02-03T14:22:29Z</time>
      </trkpt>
      <trkpt lat="25.667538" lon="-100.313958">
        <ele>528.304</ele>
        <time>2020-02-03T14:22:30Z</time>
      </trkpt>
      <trkpt lat="25.667545" lon="-100.313988">
        <ele>528.925</ele>
        <time>2020-02-03T14:22:31Z</time>
      </trkpt>
      <trkpt lat="25.667552" lon="-100.314017">
        <ele>529.188</ele>
        <time>2020-02-03T14:22:32Z</time>
      </trkpt>
      <trkpt lat="25.667568" lon="-100.314075">
        <ele>528.613</ele>
        <time>2020-02-03T14:22:34Z</time>
      </trkpt>
      <trkpt lat="25.667578" lon="-100.314123">
        <ele>528.998</ele>
        <time>2020-02-03T14:22:36Z</time>
      </trkpt>
      <trkpt lat="25.667599" lon="-100.314184">
        <ele>529.511</ele>
        <time>2020-02-03T14:22:39Z</time>
      </trkpt>
      <trkpt lat="25.667607" lon="-100.314213">
        <ele>530.222</ele>
        <time>2020-02-03T14:22:40Z</time>
      </trkpt>
      <trkpt lat="25.667613" lon="-100.314243">
        <ele>531.805</ele>
        <time>2020-02-03T14:22:41Z</time>
      </trkpt>
      <trkpt lat="25.667633" lon="-100.314334">
        <ele>532.238</ele>
        <time>2020-02-03T14:22:44Z</time>
      </trkpt>
      <trkpt lat="25.667656" lon="-100.314385">
        <ele>532.122</ele>
        <time>2020-02-03T14:22:46Z</time>
      </trkpt>
      <trkpt lat="25.667668" lon="-100.314411">
        <ele>531.738</ele>
        <time>2020-02-03T14:22:47Z</time>
      </trkpt>
      <trkpt lat="25.667679" lon="-100.314436">
        <ele>531.958</ele>
        <time>2020-02-03T14:22:48Z</time>
      </trkpt>
      <trkpt lat="25.66769" lon="-100.314486">
        <ele>532.635</ele>
        <time>2020-02-03T14:22:50Z</time>
      </trkpt>
      <trkpt lat="25.66768" lon="-100.31456">
        <ele>533.362</ele>
        <time>2020-02-03T14:22:53Z</time>
      </trkpt>
      <trkpt lat="25.667686" lon="-100.314618">
        <ele>533.827</ele>
        <time>2020-02-03T14:22:55Z</time>
      </trkpt>
      <trkpt lat="25.66769" lon="-100.314647">
        <ele>524.284</ele>
        <time>2020-02-03T14:22:56Z</time>
      </trkpt>
      <trkpt lat="25.667693" lon="-100.314676">
        <ele>528.554</ele>
        <time>2020-02-03T14:22:57Z</time>
      </trkpt>
      <trkpt lat="25.667706" lon="-100.314734">
        <ele>531.548</ele>
        <time>2020-02-03T14:22:59Z</time>
      </trkpt>
      <trkpt lat="25.667711" lon="-100.314763">
        <ele>531.967</ele>
        <time>2020-02-03T14:23:00Z</time>
      </trkpt>
      <trkpt lat="25.667708" lon="-100.314831">
        <ele>534.571</ele>
        <time>2020-02-03T14:23:02Z</time>
      </trkpt>
      <trkpt lat="25.667697" lon="-100.314901">
        <ele>535.318</ele>
        <time>2020-02-03T14:23:04Z</time>
      </trkpt>
      <trkpt lat="25.667702" lon="-100.314964">
        <ele>535.035</ele>
        <time>2020-02-03T14:23:06Z</time>
      </trkpt>
      <trkpt lat="25.667714" lon="-100.315021">
        <ele>535.154</ele>
        <time>2020-02-03T14:23:08Z</time>
      </trkpt>
      <trkpt lat="25.667719" lon="-100.315049">
        <ele>532.219</ele>
        <time>2020-02-03T14:23:09Z</time>
      </trkpt>
      <trkpt lat="25.66774" lon="-100.315114">
        <ele>529.772</ele>
        <time>2020-02-03T14:23:12Z</time>
      </trkpt>
      <trkpt lat="25.66775" lon="-100.31514">
        <ele>528.62</ele>
        <time>2020-02-03T14:23:13Z</time>
      </trkpt>
      <trkpt lat="25.667763" lon="-100.315199">
        <ele>529.887</ele>
        <time>2020-02-03T14:23:15Z</time>
      </trkpt>
      <trkpt lat="25.667759" lon="-100.315256">
        <ele>530.814</ele>
        <time>2020-02-03T14:23:17Z</time>
      </trkpt>
      <trkpt lat="25.667743" lon="-100.315312">
        <ele>530.491</ele>
        <time>2020-02-03T14:23:20Z</time>
      </trkpt>
      <trkpt lat="25.667731" lon="-100.315356">
        <ele>529.837</ele>
        <time>2020-02-03T14:23:22Z</time>
      </trkpt>
      <trkpt lat="25.667724" lon="-100.31538">
        <ele>529.758</ele>
        <time>2020-02-03T14:23:23Z</time>
      </trkpt>
      <trkpt lat="25.667707" lon="-100.315454">
        <ele>529.249</ele>
        <time>2020-02-03T14:23:26Z</time>
      </trkpt>
      <trkpt lat="25.667699" lon="-100.315484">
        <ele>530.117</ele>
        <time>2020-02-03T14:23:27Z</time>
      </trkpt>
      <trkpt lat="25.667697" lon="-100.31557">
        <ele>530.165</ele>
        <time>2020-02-03T14:23:29Z</time>
      </trkpt>
      <trkpt lat="25.667693" lon="-100.315616">
        <ele>530.29</ele>
        <time>2020-02-03T14:23:30Z</time>
      </trkpt>
      <trkpt lat="25.667676" lon="-100.315693">
        <ele>531.042</ele>
        <time>2020-02-03T14:23:32Z</time>
      </trkpt>
      <trkpt lat="25.667666" lon="-100.315732">
        <ele>530.504</ele>
        <time>2020-02-03T14:23:33Z</time>
      </trkpt>
      <trkpt lat="25.667657" lon="-100.315774">
        <ele>528.406</ele>
        <time>2020-02-03T14:23:34Z</time>
      </trkpt>
      <trkpt lat="25.667651" lon="-100.315814">
        <ele>526.01</ele>
        <time>2020-02-03T14:23:35Z</time>
      </trkpt>
      <trkpt lat="25.667647" lon="-100.315854">
        <ele>526.383</ele>
        <time>2020-02-03T14:23:36Z</time>
      </trkpt>
      <trkpt lat="25.667643" lon="-100.315892">
        <ele>527.095</ele>
        <time>2020-02-03T14:23:37Z</time>
      </trkpt>
      <trkpt lat="25.667645" lon="-100.315966">
        <ele>527.727</ele>
        <time>2020-02-03T14:23:39Z</time>
      </trkpt>
      <trkpt lat="25.66765" lon="-100.316003">
        <ele>527.666</ele>
        <time>2020-02-03T14:23:40Z</time>
      </trkpt>
      <trkpt lat="25.667653" lon="-100.316042">
        <ele>527.937</ele>
        <time>2020-02-03T14:23:41Z</time>
      </trkpt>
      <trkpt lat="25.667657" lon="-100.31608">
        <ele>529.105</ele>
        <time>2020-02-03T14:23:42Z</time>
      </trkpt>
      <trkpt lat="25.667664" lon="-100.316119">
        <ele>529.889</ele>
        <time>2020-02-03T14:23:43Z</time>
      </trkpt>
      <trkpt lat="25.667669" lon="-100.316156">
        <ele>531.618</ele>
        <time>2020-02-03T14:23:44Z</time>
      </trkpt>
      <trkpt lat="25.667674" lon="-100.316188">
        <ele>532.7</ele>
        <time>2020-02-03T14:23:45Z</time>
      </trkpt>
      <trkpt lat="25.667678" lon="-100.316219">
        <ele>528.67</ele>
        <time>2020-02-03T14:23:46Z</time>
      </trkpt>
      <trkpt lat="25.667681" lon="-100.316287">
        <ele>529.909</ele>
        <time>2020-02-03T14:23:48Z</time>
      </trkpt>
      <trkpt lat="25.667695" lon="-100.316346">
        <ele>530.643</ele>
        <time>2020-02-03T14:23:50Z</time>
      </trkpt>
      <trkpt lat="25.66771" lon="-100.316393">
        <ele>532.41</ele>
        <time>2020-02-03T14:23:52Z</time>
      </trkpt>
      <trkpt lat="25.66772" lon="-100.316424">
        <ele>533.853</ele>
        <time>2020-02-03T14:23:53Z</time>
      </trkpt>
      <trkpt lat="25.667729" lon="-100.316455">
        <ele>530.011</ele>
        <time>2020-02-03T14:23:54Z</time>
      </trkpt>
      <trkpt lat="25.667737" lon="-100.316485">
        <ele>530.412</ele>
        <time>2020-02-03T14:23:55Z</time>
      </trkpt>
      <trkpt lat="25.667742" lon="-100.316547">
        <ele>530.952</ele>
        <time>2020-02-03T14:23:57Z</time>
      </trkpt>
      <trkpt lat="25.667744" lon="-100.316585">
        <ele>531.46</ele>
        <time>2020-02-03T14:23:59Z</time>
      </trkpt>
      <trkpt lat="25.667764" lon="-100.316652">
        <ele>532.195</ele>
        <time>2020-02-03T14:24:02Z</time>
      </trkpt>
      <trkpt lat="25.667774" lon="-100.316708">
        <ele>532.914</ele>
        <time>2020-02-03T14:24:04Z</time>
      </trkpt>
      <trkpt lat="25.667779" lon="-100.316739">
        <ele>533.392</ele>
        <time>2020-02-03T14:24:05Z</time>
      </trkpt>
      <trkpt lat="25.667783" lon="-100.31677">
        <ele>531.707</ele>
        <time>2020-02-03T14:24:06Z</time>
      </trkpt>
      <trkpt lat="25.667789" lon="-100.316798">
        <ele>527.399</ele>
        <time>2020-02-03T14:24:07Z</time>
      </trkpt>
      <trkpt lat="25.667803" lon="-100.316846">
        <ele>526.375</ele>
        <time>2020-02-03T14:24:09Z</time>
      </trkpt>
      <trkpt lat="25.667799" lon="-100.316921">
        <ele>525.294</ele>
        <time>2020-02-03T14:24:12Z</time>
      </trkpt>
      <trkpt lat="25.667781" lon="-100.317029">
        <ele>524.848</ele>
        <time>2020-02-03T14:24:15Z</time>
      </trkpt>
      <trkpt lat="25.667786" lon="-100.317094">
        <ele>524.434</ele>
        <time>2020-02-03T14:24:18Z</time>
      </trkpt>
      <trkpt lat="25.667796" lon="-100.317168">
        <ele>524.152</ele>
        <time>2020-02-03T14:24:21Z</time>
      </trkpt>
      <trkpt lat="25.66781" lon="-100.317227">
        <ele>523.426</ele>
        <time>2020-02-03T14:24:23Z</time>
      </trkpt>
      <trkpt lat="25.667816" lon="-100.317254">
        <ele>522.726</ele>
        <time>2020-02-03T14:24:24Z</time>
      </trkpt>
      <trkpt lat="25.667818" lon="-100.317328">
        <ele>523.254</ele>
        <time>2020-02-03T14:24:26Z</time>
      </trkpt>
      <trkpt lat="25.667811" lon="-100.317404">
        <ele>522.929</ele>
        <time>2020-02-03T14:24:28Z</time>
      </trkpt>
      <trkpt lat="25.667807" lon="-100.317441">
        <ele>522.551</ele>
        <time>2020-02-03T14:24:29Z</time>
      </trkpt>
      <trkpt lat="25.667803" lon="-100.317477">
        <ele>521.341</ele>
        <time>2020-02-03T14:24:30Z</time>
      </trkpt>
      <trkpt lat="25.667801" lon="-100.317512">
        <ele>520.62</ele>
        <time>2020-02-03T14:24:31Z</time>
      </trkpt>
      <trkpt lat="25.6678" lon="-100.317546">
        <ele>520.857</ele>
        <time>2020-02-03T14:24:32Z</time>
      </trkpt>
      <trkpt lat="25.6678" lon="-100.317581">
        <ele>520.025</ele>
        <time>2020-02-03T14:24:33Z</time>
      </trkpt>
      <trkpt lat="25.66781" lon="-100.317691">
        <ele>520.698</ele>
        <time>2020-02-03T14:24:36Z</time>
      </trkpt>
      <trkpt lat="25.667812" lon="-100.317727">
        <ele>520.812</ele>
        <time>2020-02-03T14:24:37Z</time>
      </trkpt>
      <trkpt lat="25.667812" lon="-100.317763">
        <ele>520.1</ele>
        <time>2020-02-03T14:24:38Z</time>
      </trkpt>
      <trkpt lat="25.667815" lon="-100.317834">
        <ele>519.268</ele>
        <time>2020-02-03T14:24:40Z</time>
      </trkpt>
      <trkpt lat="25.667816" lon="-100.317869">
        <ele>519.97</ele>
        <time>2020-02-03T14:24:41Z</time>
      </trkpt>
      <trkpt lat="25.66782" lon="-100.317906">
        <ele>520.89</ele>
        <time>2020-02-03T14:24:42Z</time>
      </trkpt>
      <trkpt lat="25.667827" lon="-100.317975">
        <ele>520.365</ele>
        <time>2020-02-03T14:24:44Z</time>
      </trkpt>
      <trkpt lat="25.66784" lon="-100.318037">
        <ele>520.774</ele>
        <time>2020-02-03T14:24:46Z</time>
      </trkpt>
      <trkpt lat="25.667849" lon="-100.318067">
        <ele>520.477</ele>
        <time>2020-02-03T14:24:47Z</time>
      </trkpt>
      <trkpt lat="25.667877" lon="-100.318124">
        <ele>521.177</ele>
        <time>2020-02-03T14:24:49Z</time>
      </trkpt>
      <trkpt lat="25.667891" lon="-100.318152">
        <ele>521.339</ele>
        <time>2020-02-03T14:24:50Z</time>
      </trkpt>
      <trkpt lat="25.667904" lon="-100.318182">
        <ele>522.015</ele>
        <time>2020-02-03T14:24:51Z</time>
      </trkpt>
      <trkpt lat="25.667914" lon="-100.318213">
        <ele>521.42</ele>
        <time>2020-02-03T14:24:52Z</time>
      </trkpt>
      <trkpt lat="25.667927" lon="-100.318275">
        <ele>521.49</ele>
        <time>2020-02-03T14:24:54Z</time>
      </trkpt>
      <trkpt lat="25.667932" lon="-100.318302">
        <ele>522.005</ele>
        <time>2020-02-03T14:24:55Z</time>
      </trkpt>
      <trkpt lat="25.667937" lon="-100.318329">
        <ele>521.041</ele>
        <time>2020-02-03T14:24:56Z</time>
      </trkpt>
      <trkpt lat="25.667945" lon="-100.318356">
        <ele>521.214</ele>
        <time>2020-02-03T14:24:57Z</time>
      </trkpt>
      <trkpt lat="25.667953" lon="-100.318382">
        <ele>521.543</ele>
        <time>2020-02-03T14:24:58Z</time>
      </trkpt>
      <trkpt lat="25.667958" lon="-100.318409">
        <ele>522.13</ele>
        <time>2020-02-03T14:24:59Z</time>
      </trkpt>
      <trkpt lat="25.667956" lon="-100.318471">
        <ele>522.405</ele>
        <time>2020-02-03T14:25:01Z</time>
      </trkpt>
      <trkpt lat="25.667956" lon="-100.318501">
        <ele>522.161</ele>
        <time>2020-02-03T14:25:02Z</time>
      </trkpt>
      <trkpt lat="25.667956" lon="-100.318535">
        <ele>521.669</ele>
        <time>2020-02-03T14:25:03Z</time>
      </trkpt>
      <trkpt lat="25.667959" lon="-100.31857">
        <ele>521.181</ele>
        <time>2020-02-03T14:25:04Z</time>
      </trkpt>
      <trkpt lat="25.667961" lon="-100.318603">
        <ele>521.307</ele>
        <time>2020-02-03T14:25:05Z</time>
      </trkpt>
      <trkpt lat="25.667962" lon="-100.318636">
        <ele>522.219</ele>
        <time>2020-02-03T14:25:06Z</time>
      </trkpt>
      <trkpt lat="25.667964" lon="-100.318664">
        <ele>522.46</ele>
        <time>2020-02-03T14:25:07Z</time>
      </trkpt>
      <trkpt lat="25.667963" lon="-100.318693">
        <ele>523.07</ele>
        <time>2020-02-03T14:25:08Z</time>
      </trkpt>
      <trkpt lat="25.667963" lon="-100.318726">
        <ele>522.905</ele>
        <time>2020-02-03T14:25:09Z</time>
      </trkpt>
      <trkpt lat="25.667971" lon="-100.31879">
        <ele>524.554</ele>
        <time>2020-02-03T14:25:11Z</time>
      </trkpt>
      <trkpt lat="25.667975" lon="-100.318823">
        <ele>525.427</ele>
        <time>2020-02-03T14:25:12Z</time>
      </trkpt>
      <trkpt lat="25.667978" lon="-100.318857">
        <ele>525.336</ele>
        <time>2020-02-03T14:25:13Z</time>
      </trkpt>
      <trkpt lat="25.667979" lon="-100.31889">
        <ele>524.815</ele>
        <time>2020-02-03T14:25:14Z</time>
      </trkpt>
      <trkpt lat="25.667982" lon="-100.31892">
        <ele>523.82</ele>
        <time>2020-02-03T14:25:15Z</time>
      </trkpt>
      <trkpt lat="25.667991" lon="-100.318983">
        <ele>523.945</ele>
        <time>2020-02-03T14:25:17Z</time>
      </trkpt>
      <trkpt lat="25.667996" lon="-100.319014">
        <ele>524.436</ele>
        <time>2020-02-03T14:25:18Z</time>
      </trkpt>
      <trkpt lat="25.668003" lon="-100.319045">
        <ele>523.619</ele>
        <time>2020-02-03T14:25:19Z</time>
      </trkpt>
      <trkpt lat="25.668009" lon="-100.319077">
        <ele>523.89</ele>
        <time>2020-02-03T14:25:20Z</time>
      </trkpt>
      <trkpt lat="25.668015" lon="-100.319109">
        <ele>524.574</ele>
        <time>2020-02-03T14:25:21Z</time>
      </trkpt>
      <trkpt lat="25.668021" lon="-100.319142">
        <ele>524.574</ele>
        <time>2020-02-03T14:25:22Z</time>
      </trkpt>
      <trkpt lat="25.668034" lon="-100.319205">
        <ele>524.574</ele>
        <time>2020-02-03T14:25:24Z</time>
      </trkpt>
      <trkpt lat="25.668058" lon="-100.3193">
        <ele>516.622</ele>
        <time>2020-02-03T14:25:27Z</time>
      </trkpt>
      <trkpt lat="25.66806" lon="-100.319361">
        <ele>515.651</ele>
        <time>2020-02-03T14:25:29Z</time>
      </trkpt>
      <trkpt lat="25.668037" lon="-100.319446">
        <ele>515.208</ele>
        <time>2020-02-03T14:25:32Z</time>
      </trkpt>
      <trkpt lat="25.668037" lon="-100.319446">
        <ele>514.792</ele>
        <time>2020-02-03T14:25:38Z</time>
      </trkpt>
      <trkpt lat="25.668037" lon="-100.319446">
        <ele>515.044</ele>
        <time>2020-02-03T14:25:39Z</time>
      </trkpt>
      <trkpt lat="25.6681" lon="-100.319509">
        <ele>515.496</ele>
        <time>2020-02-03T14:25:47Z</time>
      </trkpt>
      <trkpt lat="25.668129" lon="-100.319538">
        <ele>512.881</ele>
        <time>2020-02-03T14:25:49Z</time>
      </trkpt>
      <trkpt lat="25.668159" lon="-100.319589">
        <ele>513.745</ele>
        <time>2020-02-03T14:25:52Z</time>
      </trkpt>
      <trkpt lat="25.668159" lon="-100.31967">
        <ele>514.853</ele>
        <time>2020-02-03T14:25:54Z</time>
      </trkpt>
      <trkpt lat="25.668158" lon="-100.319758">
        <ele>518.774</ele>
        <time>2020-02-03T14:25:56Z</time>
      </trkpt>
      <trkpt lat="25.668164" lon="-100.319841">
        <ele>519.071</ele>
        <time>2020-02-03T14:25:58Z</time>
      </trkpt>
      <trkpt lat="25.668194" lon="-100.319955">
        <ele>519.275</ele>
        <time>2020-02-03T14:26:01Z</time>
      </trkpt>
      <trkpt lat="25.668245" lon="-100.320048">
        <ele>522.59</ele>
        <time>2020-02-03T14:26:04Z</time>
      </trkpt>
      <trkpt lat="25.668263" lon="-100.32008">
        <ele>522.773</ele>
        <time>2020-02-03T14:26:05Z</time>
      </trkpt>
      <trkpt lat="25.668273" lon="-100.320142">
        <ele>522.47</ele>
        <time>2020-02-03T14:26:07Z</time>
      </trkpt>
      <trkpt lat="25.668275" lon="-100.320208">
        <ele>522.227</ele>
        <time>2020-02-03T14:26:10Z</time>
      </trkpt>
      <trkpt lat="25.668295" lon="-100.320255">
        <ele>522.853</ele>
        <time>2020-02-03T14:26:12Z</time>
      </trkpt>
      <trkpt lat="25.668309" lon="-100.320318">
        <ele>522.378</ele>
        <time>2020-02-03T14:26:14Z</time>
      </trkpt>
      <trkpt lat="25.668314" lon="-100.320349">
        <ele>522.337</ele>
        <time>2020-02-03T14:26:15Z</time>
      </trkpt>
      <trkpt lat="25.668321" lon="-100.320378">
        <ele>521.979</ele>
        <time>2020-02-03T14:26:16Z</time>
      </trkpt>
      <trkpt lat="25.66833" lon="-100.32041">
        <ele>521.6</ele>
        <time>2020-02-03T14:26:17Z</time>
      </trkpt>
      <trkpt lat="25.668337" lon="-100.320446">
        <ele>521.68</ele>
        <time>2020-02-03T14:26:18Z</time>
      </trkpt>
      <trkpt lat="25.668343" lon="-100.320483">
        <ele>520.46</ele>
        <time>2020-02-03T14:26:19Z</time>
      </trkpt>
      <trkpt lat="25.66835" lon="-100.320519">
        <ele>520.654</ele>
        <time>2020-02-03T14:26:20Z</time>
      </trkpt>
      <trkpt lat="25.668355" lon="-100.320555">
        <ele>521.227</ele>
        <time>2020-02-03T14:26:21Z</time>
      </trkpt>
      <trkpt lat="25.668362" lon="-100.320589">
        <ele>521.955</ele>
        <time>2020-02-03T14:26:22Z</time>
      </trkpt>
      <trkpt lat="25.668403" lon="-100.320682">
        <ele>522.24</ele>
        <time>2020-02-03T14:26:25Z</time>
      </trkpt>
      <trkpt lat="25.668416" lon="-100.320713">
        <ele>522.126</ele>
        <time>2020-02-03T14:26:26Z</time>
      </trkpt>
      <trkpt lat="25.668433" lon="-100.320777">
        <ele>522.816</ele>
        <time>2020-02-03T14:26:28Z</time>
      </trkpt>
      <trkpt lat="25.668446" lon="-100.320847">
        <ele>523.337</ele>
        <time>2020-02-03T14:26:30Z</time>
      </trkpt>
      <trkpt lat="25.668452" lon="-100.320881">
        <ele>523.06</ele>
        <time>2020-02-03T14:26:31Z</time>
      </trkpt>
      <trkpt lat="25.668457" lon="-100.320913">
        <ele>522.402</ele>
        <time>2020-02-03T14:26:32Z</time>
      </trkpt>
      <trkpt lat="25.668463" lon="-100.320945">
        <ele>522.397</ele>
        <time>2020-02-03T14:26:33Z</time>
      </trkpt>
      <trkpt lat="25.668469" lon="-100.320976">
        <ele>522.444</ele>
        <time>2020-02-03T14:26:34Z</time>
      </trkpt>
      <trkpt lat="25.668475" lon="-100.321007">
        <ele>522.509</ele>
        <time>2020-02-03T14:26:35Z</time>
      </trkpt>
      <trkpt lat="25.66848" lon="-100.321036">
        <ele>522.42</ele>
        <time>2020-02-03T14:26:36Z</time>
      </trkpt>
      <trkpt lat="25.668485" lon="-100.321066">
        <ele>522.293</ele>
        <time>2020-02-03T14:26:37Z</time>
      </trkpt>
      <trkpt lat="25.66849" lon="-100.321095">
        <ele>522.286</ele>
        <time>2020-02-03T14:26:38Z</time>
      </trkpt>
      <trkpt lat="25.668506" lon="-100.321148">
        <ele>521.815</ele>
        <time>2020-02-03T14:26:40Z</time>
      </trkpt>
      <trkpt lat="25.668517" lon="-100.321178">
        <ele>523.069</ele>
        <time>2020-02-03T14:26:41Z</time>
      </trkpt>
      <trkpt lat="25.668526" lon="-100.321239">
        <ele>521.408</ele>
        <time>2020-02-03T14:26:43Z</time>
      </trkpt>
      <trkpt lat="25.668528" lon="-100.32127">
        <ele>520.683</ele>
        <time>2020-02-03T14:26:44Z</time>
      </trkpt>
      <trkpt lat="25.668531" lon="-100.3213">
        <ele>521.199</ele>
        <time>2020-02-03T14:26:45Z</time>
      </trkpt>
      <trkpt lat="25.668535" lon="-100.321331">
        <ele>521.32</ele>
        <time>2020-02-03T14:26:46Z</time>
      </trkpt>
      <trkpt lat="25.668559" lon="-100.32142">
        <ele>521.754</ele>
        <time>2020-02-03T14:26:49Z</time>
      </trkpt>
      <trkpt lat="25.668584" lon="-100.321477">
        <ele>521.78</ele>
        <time>2020-02-03T14:26:51Z</time>
      </trkpt>
      <trkpt lat="25.668624" lon="-100.321555">
        <ele>523.282</ele>
        <time>2020-02-03T14:26:54Z</time>
      </trkpt>
      <trkpt lat="25.668635" lon="-100.321614">
        <ele>523.311</ele>
        <time>2020-02-03T14:26:56Z</time>
      </trkpt>
      <trkpt lat="25.66864" lon="-100.321675">
        <ele>521.797</ele>
        <time>2020-02-03T14:26:58Z</time>
      </trkpt>
      <trkpt lat="25.668648" lon="-100.321734">
        <ele>522.009</ele>
        <time>2020-02-03T14:27:00Z</time>
      </trkpt>
      <trkpt lat="25.668641" lon="-100.321831">
        <ele>522.026</ele>
        <time>2020-02-03T14:27:03Z</time>
      </trkpt>
      <trkpt lat="25.668652" lon="-100.321898">
        <ele>522.623</ele>
        <time>2020-02-03T14:27:05Z</time>
      </trkpt>
      <trkpt lat="25.668659" lon="-100.32193">
        <ele>520.991</ele>
        <time>2020-02-03T14:27:06Z</time>
      </trkpt>
      <trkpt lat="25.668666" lon="-100.32196">
        <ele>520.768</ele>
        <time>2020-02-03T14:27:07Z</time>
      </trkpt>
      <trkpt lat="25.668671" lon="-100.321991">
        <ele>522.096</ele>
        <time>2020-02-03T14:27:08Z</time>
      </trkpt>
      <trkpt lat="25.668674" lon="-100.322023">
        <ele>521.924</ele>
        <time>2020-02-03T14:27:09Z</time>
      </trkpt>
      <trkpt lat="25.668681" lon="-100.322058">
        <ele>520.631</ele>
        <time>2020-02-03T14:27:10Z</time>
      </trkpt>
      <trkpt lat="25.66869" lon="-100.322092">
        <ele>519.462</ele>
        <time>2020-02-03T14:27:11Z</time>
      </trkpt>
      <trkpt lat="25.6687" lon="-100.322125">
        <ele>519.077</ele>
        <time>2020-02-03T14:27:12Z</time>
      </trkpt>
      <trkpt lat="25.668711" lon="-100.32216">
        <ele>517.616</ele>
        <time>2020-02-03T14:27:13Z</time>
      </trkpt>
      <trkpt lat="25.668723" lon="-100.322193">
        <ele>518.904</ele>
        <time>2020-02-03T14:27:14Z</time>
      </trkpt>
      <trkpt lat="25.668734" lon="-100.322226">
        <ele>520.45</ele>
        <time>2020-02-03T14:27:15Z</time>
      </trkpt>
      <trkpt lat="25.668744" lon="-100.32226">
        <ele>520.608</ele>
        <time>2020-02-03T14:27:16Z</time>
      </trkpt>
      <trkpt lat="25.668756" lon="-100.322326">
        <ele>520.345</ele>
        <time>2020-02-03T14:27:18Z</time>
      </trkpt>
      <trkpt lat="25.668756" lon="-100.322397">
        <ele>519.805</ele>
        <time>2020-02-03T14:27:20Z</time>
      </trkpt>
      <trkpt lat="25.668753" lon="-100.322432">
        <ele>519.603</ele>
        <time>2020-02-03T14:27:21Z</time>
      </trkpt>
      <trkpt lat="25.668749" lon="-100.322555">
        <ele>520.323</ele>
        <time>2020-02-03T14:27:25Z</time>
      </trkpt>
      <trkpt lat="25.668746" lon="-100.322587">
        <ele>520.834</ele>
        <time>2020-02-03T14:27:26Z</time>
      </trkpt>
      <trkpt lat="25.668753" lon="-100.322653">
        <ele>521.699</ele>
        <time>2020-02-03T14:27:28Z</time>
      </trkpt>
      <trkpt lat="25.668773" lon="-100.32271">
        <ele>522.929</ele>
        <time>2020-02-03T14:27:30Z</time>
      </trkpt>
      <trkpt lat="25.668783" lon="-100.322739">
        <ele>523.193</ele>
        <time>2020-02-03T14:27:31Z</time>
      </trkpt>
      <trkpt lat="25.668794" lon="-100.322767">
        <ele>523.377</ele>
        <time>2020-02-03T14:27:32Z</time>
      </trkpt>
      <trkpt lat="25.66883" lon="-100.322824">
        <ele>524.507</ele>
        <time>2020-02-03T14:27:34Z</time>
      </trkpt>
      <trkpt lat="25.668847" lon="-100.322853">
        <ele>523.09</ele>
        <time>2020-02-03T14:27:35Z</time>
      </trkpt>
      <trkpt lat="25.668872" lon="-100.322922">
        <ele>522.406</ele>
        <time>2020-02-03T14:27:37Z</time>
      </trkpt>
      <trkpt lat="25.668884" lon="-100.322957">
        <ele>522.291</ele>
        <time>2020-02-03T14:27:38Z</time>
      </trkpt>
      <trkpt lat="25.668896" lon="-100.322993">
        <ele>522.827</ele>
        <time>2020-02-03T14:27:39Z</time>
      </trkpt>
      <trkpt lat="25.668919" lon="-100.323106">
        <ele>522.386</ele>
        <time>2020-02-03T14:27:42Z</time>
      </trkpt>
      <trkpt lat="25.668925" lon="-100.32314">
        <ele>522.535</ele>
        <time>2020-02-03T14:27:43Z</time>
      </trkpt>
      <trkpt lat="25.668929" lon="-100.323171">
        <ele>522.792</ele>
        <time>2020-02-03T14:27:44Z</time>
      </trkpt>
      <trkpt lat="25.668935" lon="-100.323203">
        <ele>523.421</ele>
        <time>2020-02-03T14:27:45Z</time>
      </trkpt>
      <trkpt lat="25.668958" lon="-100.323269">
        <ele>523.017</ele>
        <time>2020-02-03T14:27:47Z</time>
      </trkpt>
      <trkpt lat="25.668981" lon="-100.323327">
        <ele>523.639</ele>
        <time>2020-02-03T14:27:49Z</time>
      </trkpt>
      <trkpt lat="25.669" lon="-100.323394">
        <ele>522.543</ele>
        <time>2020-02-03T14:27:51Z</time>
      </trkpt>
      <trkpt lat="25.669022" lon="-100.323458">
        <ele>521.373</ele>
        <time>2020-02-03T14:27:53Z</time>
      </trkpt>
      <trkpt lat="25.669023" lon="-100.323522">
        <ele>521.142</ele>
        <time>2020-02-03T14:27:55Z</time>
      </trkpt>
      <trkpt lat="25.669027" lon="-100.323555">
        <ele>519.88</ele>
        <time>2020-02-03T14:27:56Z</time>
      </trkpt>
      <trkpt lat="25.669028" lon="-100.323589">
        <ele>517.692</ele>
        <time>2020-02-03T14:27:57Z</time>
      </trkpt>
      <trkpt lat="25.669028" lon="-100.323623">
        <ele>518.288</ele>
        <time>2020-02-03T14:27:58Z</time>
      </trkpt>
      <trkpt lat="25.669029" lon="-100.323656">
        <ele>517.701</ele>
        <time>2020-02-03T14:27:59Z</time>
      </trkpt>
      <trkpt lat="25.669028" lon="-100.323686">
        <ele>517.639</ele>
        <time>2020-02-03T14:28:00Z</time>
      </trkpt>
      <trkpt lat="25.66903" lon="-100.323716">
        <ele>517.668</ele>
        <time>2020-02-03T14:28:01Z</time>
      </trkpt>
      <trkpt lat="25.669043" lon="-100.323788">
        <ele>517.659</ele>
        <time>2020-02-03T14:28:04Z</time>
      </trkpt>
      <trkpt lat="25.669063" lon="-100.323844">
        <ele>519.307</ele>
        <time>2020-02-03T14:28:06Z</time>
      </trkpt>
      <trkpt lat="25.669086" lon="-100.323897">
        <ele>521.359</ele>
        <time>2020-02-03T14:28:08Z</time>
      </trkpt>
      <trkpt lat="25.6691" lon="-100.323923">
        <ele>520.886</ele>
        <time>2020-02-03T14:28:09Z</time>
      </trkpt>
      <trkpt lat="25.669112" lon="-100.32395">
        <ele>522.44</ele>
        <time>2020-02-03T14:28:10Z</time>
      </trkpt>
      <trkpt lat="25.669124" lon="-100.323976">
        <ele>521.801</ele>
        <time>2020-02-03T14:28:11Z</time>
      </trkpt>
      <trkpt lat="25.66914" lon="-100.324033">
        <ele>522.823</ele>
        <time>2020-02-03T14:28:13Z</time>
      </trkpt>
      <trkpt lat="25.669149" lon="-100.324123">
        <ele>523.53</ele>
        <time>2020-02-03T14:28:16Z</time>
      </trkpt>
      <trkpt lat="25.669148" lon="-100.324184">
        <ele>524.451</ele>
        <time>2020-02-03T14:28:18Z</time>
      </trkpt>
      <trkpt lat="25.669144" lon="-100.324239">
        <ele>524.517</ele>
        <time>2020-02-03T14:28:20Z</time>
      </trkpt>
      <trkpt lat="25.669142" lon="-100.324265">
        <ele>525.577</ele>
        <time>2020-02-03T14:28:21Z</time>
      </trkpt>
      <trkpt lat="25.669137" lon="-100.324346">
        <ele>525.967</ele>
        <time>2020-02-03T14:28:24Z</time>
      </trkpt>
      <trkpt lat="25.669143" lon="-100.324402">
        <ele>526.972</ele>
        <time>2020-02-03T14:28:26Z</time>
      </trkpt>
      <trkpt lat="25.669146" lon="-100.324431">
        <ele>527.397</ele>
        <time>2020-02-03T14:28:27Z</time>
      </trkpt>
      <trkpt lat="25.669148" lon="-100.324461">
        <ele>527.477</ele>
        <time>2020-02-03T14:28:28Z</time>
      </trkpt>
      <trkpt lat="25.66915" lon="-100.324489">
        <ele>527.96</ele>
        <time>2020-02-03T14:28:29Z</time>
      </trkpt>
      <trkpt lat="25.669152" lon="-100.324515">
        <ele>528.091</ele>
        <time>2020-02-03T14:28:30Z</time>
      </trkpt>
      <trkpt lat="25.669152" lon="-100.324541">
        <ele>529.256</ele>
        <time>2020-02-03T14:28:31Z</time>
      </trkpt>
      <trkpt lat="25.669147" lon="-100.324592">
        <ele>529.082</ele>
        <time>2020-02-03T14:28:33Z</time>
      </trkpt>
      <trkpt lat="25.669145" lon="-100.324636">
        <ele>528.368</ele>
        <time>2020-02-03T14:28:35Z</time>
      </trkpt>
      <trkpt lat="25.669154" lon="-100.324709">
        <ele>528.808</ele>
        <time>2020-02-03T14:28:38Z</time>
      </trkpt>
      <trkpt lat="25.669156" lon="-100.324765">
        <ele>528.961</ele>
        <time>2020-02-03T14:28:40Z</time>
      </trkpt>
      <trkpt lat="25.669158" lon="-100.324794">
        <ele>529.99</ele>
        <time>2020-02-03T14:28:41Z</time>
      </trkpt>
      <trkpt lat="25.669161" lon="-100.324821">
        <ele>529.383</ele>
        <time>2020-02-03T14:28:42Z</time>
      </trkpt>
      <trkpt lat="25.669166" lon="-100.324847">
        <ele>528.53</ele>
        <time>2020-02-03T14:28:43Z</time>
      </trkpt>
      <trkpt lat="25.669169" lon="-100.324875">
        <ele>527.846</ele>
        <time>2020-02-03T14:28:44Z</time>
      </trkpt>
      <trkpt lat="25.66917" lon="-100.324904">
        <ele>526.837</ele>
        <time>2020-02-03T14:28:45Z</time>
      </trkpt>
      <trkpt lat="25.669171" lon="-100.324933">
        <ele>525.964</ele>
        <time>2020-02-03T14:28:46Z</time>
      </trkpt>
      <trkpt lat="25.669172" lon="-100.324964">
        <ele>525.698</ele>
        <time>2020-02-03T14:28:47Z</time>
      </trkpt>
      <trkpt lat="25.669182" lon="-100.325019">
        <ele>525.904</ele>
        <time>2020-02-03T14:28:49Z</time>
      </trkpt>
      <trkpt lat="25.669205" lon="-100.325102">
        <ele>525.441</ele>
        <time>2020-02-03T14:28:52Z</time>
      </trkpt>
      <trkpt lat="25.669211" lon="-100.325129">
        <ele>524.977</ele>
        <time>2020-02-03T14:28:53Z</time>
      </trkpt>
      <trkpt lat="25.669217" lon="-100.325156">
        <ele>524.377</ele>
        <time>2020-02-03T14:28:54Z</time>
      </trkpt>
      <trkpt lat="25.669221" lon="-100.325184">
        <ele>523.264</ele>
        <time>2020-02-03T14:28:55Z</time>
      </trkpt>
      <trkpt lat="25.669225" lon="-100.325216">
        <ele>522.799</ele>
        <time>2020-02-03T14:28:56Z</time>
      </trkpt>
      <trkpt lat="25.669229" lon="-100.325247">
        <ele>522.985</ele>
        <time>2020-02-03T14:28:57Z</time>
      </trkpt>
      <trkpt lat="25.669235" lon="-100.32528">
        <ele>522.952</ele>
        <time>2020-02-03T14:28:58Z</time>
      </trkpt>
      <trkpt lat="25.669238" lon="-100.325311">
        <ele>523.753</ele>
        <time>2020-02-03T14:28:59Z</time>
      </trkpt>
      <trkpt lat="25.669242" lon="-100.325342">
        <ele>522.63</ele>
        <time>2020-02-03T14:29:00Z</time>
      </trkpt>
      <trkpt lat="25.669245" lon="-100.325372">
        <ele>522.772</ele>
        <time>2020-02-03T14:29:01Z</time>
      </trkpt>
      <trkpt lat="25.669249" lon="-100.325402">
        <ele>522.539</ele>
        <time>2020-02-03T14:29:02Z</time>
      </trkpt>
      <trkpt lat="25.669254" lon="-100.325431">
        <ele>522.475</ele>
        <time>2020-02-03T14:29:03Z</time>
      </trkpt>
      <trkpt lat="25.669258" lon="-100.325462">
        <ele>523.485</ele>
        <time>2020-02-03T14:29:04Z</time>
      </trkpt>
      <trkpt lat="25.66926" lon="-100.325494">
        <ele>523.146</ele>
        <time>2020-02-03T14:29:05Z</time>
      </trkpt>
      <trkpt lat="25.66926" lon="-100.325524">
        <ele>522.626</ele>
        <time>2020-02-03T14:29:06Z</time>
      </trkpt>
      <trkpt lat="25.66926" lon="-100.325554">
        <ele>523.885</ele>
        <time>2020-02-03T14:29:07Z</time>
      </trkpt>
      <trkpt lat="25.669262" lon="-100.325584">
        <ele>523.583</ele>
        <time>2020-02-03T14:29:08Z</time>
      </trkpt>
      <trkpt lat="25.669265" lon="-100.325614">
        <ele>522.453</ele>
        <time>2020-02-03T14:29:09Z</time>
      </trkpt>
      <trkpt lat="25.669269" lon="-100.325645">
        <ele>522.817</ele>
        <time>2020-02-03T14:29:10Z</time>
      </trkpt>
      <trkpt lat="25.66927" lon="-100.325678">
        <ele>523.083</ele>
        <time>2020-02-03T14:29:11Z</time>
      </trkpt>
      <trkpt lat="25.669269" lon="-100.325711">
        <ele>523.334</ele>
        <time>2020-02-03T14:29:12Z</time>
      </trkpt>
      <trkpt lat="25.669269" lon="-100.325744">
        <ele>523.136</ele>
        <time>2020-02-03T14:29:13Z</time>
      </trkpt>
      <trkpt lat="25.669271" lon="-100.325774">
        <ele>520.535</ele>
        <time>2020-02-03T14:29:14Z</time>
      </trkpt>
      <trkpt lat="25.669274" lon="-100.325805">
        <ele>521.308</ele>
        <time>2020-02-03T14:29:15Z</time>
      </trkpt>
      <trkpt lat="25.669278" lon="-100.325836">
        <ele>520.565</ele>
        <time>2020-02-03T14:29:16Z</time>
      </trkpt>
      <trkpt lat="25.669283" lon="-100.325867">
        <ele>520.93</ele>
        <time>2020-02-03T14:29:17Z</time>
      </trkpt>
      <trkpt lat="25.669288" lon="-100.325896">
        <ele>520.607</ele>
        <time>2020-02-03T14:29:18Z</time>
      </trkpt>
      <trkpt lat="25.669326" lon="-100.325967">
        <ele>520.584</ele>
        <time>2020-02-03T14:29:21Z</time>
      </trkpt>
      <trkpt lat="25.669341" lon="-100.326043">
        <ele>520.788</ele>
        <time>2020-02-03T14:29:24Z</time>
      </trkpt>
      <trkpt lat="25.669364" lon="-100.326094">
        <ele>520.653</ele>
        <time>2020-02-03T14:29:26Z</time>
      </trkpt>
      <trkpt lat="25.669374" lon="-100.32612">
        <ele>520.943</ele>
        <time>2020-02-03T14:29:27Z</time>
      </trkpt>
      <trkpt lat="25.669383" lon="-100.326147">
        <ele>520.621</ele>
        <time>2020-02-03T14:29:28Z</time>
      </trkpt>
      <trkpt lat="25.669389" lon="-100.326173">
        <ele>520.821</ele>
        <time>2020-02-03T14:29:29Z</time>
      </trkpt>
      <trkpt lat="25.669394" lon="-100.326201">
        <ele>521.381</ele>
        <time>2020-02-03T14:29:30Z</time>
      </trkpt>
      <trkpt lat="25.669396" lon="-100.326256">
        <ele>521.494</ele>
        <time>2020-02-03T14:29:32Z</time>
      </trkpt>
      <trkpt lat="25.669407" lon="-100.326319">
        <ele>519.961</ele>
        <time>2020-02-03T14:29:34Z</time>
      </trkpt>
      <trkpt lat="25.669411" lon="-100.326347">
        <ele>519.202</ele>
        <time>2020-02-03T14:29:35Z</time>
      </trkpt>
      <trkpt lat="25.669415" lon="-100.326375">
        <ele>520.326</ele>
        <time>2020-02-03T14:29:36Z</time>
      </trkpt>
      <trkpt lat="25.669419" lon="-100.326402">
        <ele>520.464</ele>
        <time>2020-02-03T14:29:37Z</time>
      </trkpt>
      <trkpt lat="25.669423" lon="-100.326428">
        <ele>520.254</ele>
        <time>2020-02-03T14:29:38Z</time>
      </trkpt>
      <trkpt lat="25.669426" lon="-100.326453">
        <ele>520.25</ele>
        <time>2020-02-03T14:29:39Z</time>
      </trkpt>
      <trkpt lat="25.669428" lon="-100.32648">
        <ele>521.239</ele>
        <time>2020-02-03T14:29:40Z</time>
      </trkpt>
      <trkpt lat="25.669425" lon="-100.326538">
        <ele>522.371</ele>
        <time>2020-02-03T14:29:42Z</time>
      </trkpt>
      <trkpt lat="25.669426" lon="-100.326567">
        <ele>523.028</ele>
        <time>2020-02-03T14:29:43Z</time>
      </trkpt>
      <trkpt lat="25.669428" lon="-100.326597">
        <ele>523.23</ele>
        <time>2020-02-03T14:29:44Z</time>
      </trkpt>
      <trkpt lat="25.66944" lon="-100.326654">
        <ele>523.875</ele>
        <time>2020-02-03T14:29:46Z</time>
      </trkpt>
      <trkpt lat="25.669446" lon="-100.326682">
        <ele>524.064</ele>
        <time>2020-02-03T14:29:47Z</time>
      </trkpt>
      <trkpt lat="25.669454" lon="-100.326712">
        <ele>524.015</ele>
        <time>2020-02-03T14:29:48Z</time>
      </trkpt>
      <trkpt lat="25.669463" lon="-100.326744">
        <ele>525.271</ele>
        <time>2020-02-03T14:29:49Z</time>
      </trkpt>
      <trkpt lat="25.66947" lon="-100.326778">
        <ele>526.028</ele>
        <time>2020-02-03T14:29:50Z</time>
      </trkpt>
      <trkpt lat="25.669477" lon="-100.326811">
        <ele>528.047</ele>
        <time>2020-02-03T14:29:51Z</time>
      </trkpt>
      <trkpt lat="25.669481" lon="-100.326845">
        <ele>528.726</ele>
        <time>2020-02-03T14:29:52Z</time>
      </trkpt>
      <trkpt lat="25.669486" lon="-100.326878">
        <ele>529.401</ele>
        <time>2020-02-03T14:29:53Z</time>
      </trkpt>
      <trkpt lat="25.669493" lon="-100.32691">
        <ele>530.462</ele>
        <time>2020-02-03T14:29:54Z</time>
      </trkpt>
      <trkpt lat="25.6695" lon="-100.32694">
        <ele>530.582</ele>
        <time>2020-02-03T14:29:55Z</time>
      </trkpt>
      <trkpt lat="25.669521" lon="-100.326995">
        <ele>530.434</ele>
        <time>2020-02-03T14:29:57Z</time>
      </trkpt>
      <trkpt lat="25.669534" lon="-100.327024">
        <ele>528.491</ele>
        <time>2020-02-03T14:29:58Z</time>
      </trkpt>
      <trkpt lat="25.669545" lon="-100.327055">
        <ele>528.255</ele>
        <time>2020-02-03T14:29:59Z</time>
      </trkpt>
      <trkpt lat="25.669555" lon="-100.327087">
        <ele>528.571</ele>
        <time>2020-02-03T14:30:00Z</time>
      </trkpt>
      <trkpt lat="25.669564" lon="-100.327118">
        <ele>528.267</ele>
        <time>2020-02-03T14:30:01Z</time>
      </trkpt>
      <trkpt lat="25.669573" lon="-100.327147">
        <ele>528.23</ele>
        <time>2020-02-03T14:30:02Z</time>
      </trkpt>
      <trkpt lat="25.669581" lon="-100.327174">
        <ele>528.248</ele>
        <time>2020-02-03T14:30:03Z</time>
      </trkpt>
      <trkpt lat="25.669586" lon="-100.327201">
        <ele>527.471</ele>
        <time>2020-02-03T14:30:04Z</time>
      </trkpt>
      <trkpt lat="25.669594" lon="-100.327228">
        <ele>526.143</ele>
        <time>2020-02-03T14:30:05Z</time>
      </trkpt>
      <trkpt lat="25.669618" lon="-100.32728">
        <ele>524.154</ele>
        <time>2020-02-03T14:30:07Z</time>
      </trkpt>
      <trkpt lat="25.66963" lon="-100.327309">
        <ele>524.103</ele>
        <time>2020-02-03T14:30:08Z</time>
      </trkpt>
      <trkpt lat="25.669642" lon="-100.327338">
        <ele>522.896</ele>
        <time>2020-02-03T14:30:09Z</time>
      </trkpt>
      <trkpt lat="25.669652" lon="-100.327367">
        <ele>523.248</ele>
        <time>2020-02-03T14:30:10Z</time>
      </trkpt>
      <trkpt lat="25.669661" lon="-100.327467">
        <ele>522.681</ele>
        <time>2020-02-03T14:30:13Z</time>
      </trkpt>
      <trkpt lat="25.669664" lon="-100.327537">
        <ele>523.582</ele>
        <time>2020-02-03T14:30:15Z</time>
      </trkpt>
      <trkpt lat="25.669678" lon="-100.327601">
        <ele>524.793</ele>
        <time>2020-02-03T14:30:17Z</time>
      </trkpt>
      <trkpt lat="25.669704" lon="-100.327688">
        <ele>526.033</ele>
        <time>2020-02-03T14:30:20Z</time>
      </trkpt>
      <trkpt lat="25.669714" lon="-100.32775">
        <ele>526.011</ele>
        <time>2020-02-03T14:30:22Z</time>
      </trkpt>
      <trkpt lat="25.669719" lon="-100.327783">
        <ele>526.169</ele>
        <time>2020-02-03T14:30:23Z</time>
      </trkpt>
      <trkpt lat="25.669726" lon="-100.327818">
        <ele>526.388</ele>
        <time>2020-02-03T14:30:24Z</time>
      </trkpt>
      <trkpt lat="25.669746" lon="-100.327878">
        <ele>526.331</ele>
        <time>2020-02-03T14:30:26Z</time>
      </trkpt>
      <trkpt lat="25.669757" lon="-100.327906">
        <ele>526.353</ele>
        <time>2020-02-03T14:30:27Z</time>
      </trkpt>
      <trkpt lat="25.669767" lon="-100.327935">
        <ele>525.396</ele>
        <time>2020-02-03T14:30:28Z</time>
      </trkpt>
      <trkpt lat="25.669775" lon="-100.327964">
        <ele>525.525</ele>
        <time>2020-02-03T14:30:29Z</time>
      </trkpt>
      <trkpt lat="25.669785" lon="-100.327993">
        <ele>526.552</ele>
        <time>2020-02-03T14:30:30Z</time>
      </trkpt>
      <trkpt lat="25.669794" lon="-100.328021">
        <ele>527.202</ele>
        <time>2020-02-03T14:30:31Z</time>
      </trkpt>
      <trkpt lat="25.669803" lon="-100.32805">
        <ele>528.812</ele>
        <time>2020-02-03T14:30:32Z</time>
      </trkpt>
      <trkpt lat="25.669814" lon="-100.328079">
        <ele>529.053</ele>
        <time>2020-02-03T14:30:33Z</time>
      </trkpt>
      <trkpt lat="25.669826" lon="-100.328111">
        <ele>527.821</ele>
        <time>2020-02-03T14:30:34Z</time>
      </trkpt>
      <trkpt lat="25.669836" lon="-100.328143">
        <ele>528.04</ele>
        <time>2020-02-03T14:30:35Z</time>
      </trkpt>
      <trkpt lat="25.669847" lon="-100.328176">
        <ele>527.77</ele>
        <time>2020-02-03T14:30:36Z</time>
      </trkpt>
      <trkpt lat="25.669875" lon="-100.328233">
        <ele>528.75</ele>
        <time>2020-02-03T14:30:38Z</time>
      </trkpt>
      <trkpt lat="25.669904" lon="-100.328284">
        <ele>529.353</ele>
        <time>2020-02-03T14:30:40Z</time>
      </trkpt>
      <trkpt lat="25.669914" lon="-100.328342">
        <ele>529.387</ele>
        <time>2020-02-03T14:30:42Z</time>
      </trkpt>
      <trkpt lat="25.669915" lon="-100.328403">
        <ele>530.218</ele>
        <time>2020-02-03T14:30:44Z</time>
      </trkpt>
      <trkpt lat="25.669914" lon="-100.328434">
        <ele>530.023</ele>
        <time>2020-02-03T14:30:45Z</time>
      </trkpt>
      <trkpt lat="25.669919" lon="-100.3285">
        <ele>530.957</ele>
        <time>2020-02-03T14:30:47Z</time>
      </trkpt>
      <trkpt lat="25.669938" lon="-100.3286">
        <ele>530.932</ele>
        <time>2020-02-03T14:30:50Z</time>
      </trkpt>
      <trkpt lat="25.669945" lon="-100.328632">
        <ele>531.137</ele>
        <time>2020-02-03T14:30:51Z</time>
      </trkpt>
      <trkpt lat="25.669951" lon="-100.328663">
        <ele>530.291</ele>
        <time>2020-02-03T14:30:52Z</time>
      </trkpt>
      <trkpt lat="25.669957" lon="-100.328694">
        <ele>525.337</ele>
        <time>2020-02-03T14:30:53Z</time>
      </trkpt>
      <trkpt lat="25.669963" lon="-100.328727">
        <ele>522.146</ele>
        <time>2020-02-03T14:30:54Z</time>
      </trkpt>
      <trkpt lat="25.669969" lon="-100.328759">
        <ele>522.922</ele>
        <time>2020-02-03T14:30:55Z</time>
      </trkpt>
      <trkpt lat="25.669977" lon="-100.32879">
        <ele>523.545</ele>
        <time>2020-02-03T14:30:56Z</time>
      </trkpt>
      <trkpt lat="25.669978" lon="-100.328868">
        <ele>523.337</ele>
        <time>2020-02-03T14:30:59Z</time>
      </trkpt>
      <trkpt lat="25.669971" lon="-100.328923">
        <ele>523.991</ele>
        <time>2020-02-03T14:31:01Z</time>
      </trkpt>
      <trkpt lat="25.66997" lon="-100.328973">
        <ele>524.46</ele>
        <time>2020-02-03T14:31:03Z</time>
      </trkpt>
      <trkpt lat="25.669967" lon="-100.329026">
        <ele>524.543</ele>
        <time>2020-02-03T14:31:05Z</time>
      </trkpt>
      <trkpt lat="25.669983" lon="-100.329112">
        <ele>525.432</ele>
        <time>2020-02-03T14:31:08Z</time>
      </trkpt>
      <trkpt lat="25.669987" lon="-100.329139">
        <ele>525.736</ele>
        <time>2020-02-03T14:31:09Z</time>
      </trkpt>
      <trkpt lat="25.669992" lon="-100.329168">
        <ele>526.923</ele>
        <time>2020-02-03T14:31:10Z</time>
      </trkpt>
      <trkpt lat="25.669997" lon="-100.329198">
        <ele>528.194</ele>
        <time>2020-02-03T14:31:11Z</time>
      </trkpt>
      <trkpt lat="25.670001" lon="-100.329289">
        <ele>527.425</ele>
        <time>2020-02-03T14:31:14Z</time>
      </trkpt>
      <trkpt lat="25.670011" lon="-100.329349">
        <ele>526.9</ele>
        <time>2020-02-03T14:31:16Z</time>
      </trkpt>
      <trkpt lat="25.670017" lon="-100.329379">
        <ele>526.069</ele>
        <time>2020-02-03T14:31:17Z</time>
      </trkpt>
      <trkpt lat="25.670024" lon="-100.32941">
        <ele>525.288</ele>
        <time>2020-02-03T14:31:18Z</time>
      </trkpt>
      <trkpt lat="25.670044" lon="-100.329471">
        <ele>524.901</ele>
        <time>2020-02-03T14:31:20Z</time>
      </trkpt>
      <trkpt lat="25.670056" lon="-100.329534">
        <ele>524.907</ele>
        <time>2020-02-03T14:31:22Z</time>
      </trkpt>
      <trkpt lat="25.670061" lon="-100.329601">
        <ele>524.386</ele>
        <time>2020-02-03T14:31:24Z</time>
      </trkpt>
      <trkpt lat="25.670065" lon="-100.329633">
        <ele>524.661</ele>
        <time>2020-02-03T14:31:25Z</time>
      </trkpt>
      <trkpt lat="25.670068" lon="-100.329662">
        <ele>525.022</ele>
        <time>2020-02-03T14:31:26Z</time>
      </trkpt>
      <trkpt lat="25.670071" lon="-100.329694">
        <ele>523.255</ele>
        <time>2020-02-03T14:31:27Z</time>
      </trkpt>
      <trkpt lat="25.670074" lon="-100.329722">
        <ele>524.626</ele>
        <time>2020-02-03T14:31:28Z</time>
      </trkpt>
      <trkpt lat="25.670076" lon="-100.32975">
        <ele>524.211</ele>
        <time>2020-02-03T14:31:29Z</time>
      </trkpt>
      <trkpt lat="25.670079" lon="-100.329778">
        <ele>525.234</ele>
        <time>2020-02-03T14:31:30Z</time>
      </trkpt>
      <trkpt lat="25.670081" lon="-100.32982">
        <ele>524.529</ele>
        <time>2020-02-03T14:31:32Z</time>
      </trkpt>
      <trkpt lat="25.670076" lon="-100.329873">
        <ele>524.43</ele>
        <time>2020-02-03T14:31:34Z</time>
      </trkpt>
      <trkpt lat="25.670075" lon="-100.329901">
        <ele>523.573</ele>
        <time>2020-02-03T14:31:35Z</time>
      </trkpt>
      <trkpt lat="25.670082" lon="-100.329957">
        <ele>523.665</ele>
        <time>2020-02-03T14:31:37Z</time>
      </trkpt>
      <trkpt lat="25.670094" lon="-100.330016">
        <ele>523.964</ele>
        <time>2020-02-03T14:31:39Z</time>
      </trkpt>
      <trkpt lat="25.670098" lon="-100.330099">
        <ele>524.711</ele>
        <time>2020-02-03T14:31:42Z</time>
      </trkpt>
      <trkpt lat="25.670084" lon="-100.330182">
        <ele>524.261</ele>
        <time>2020-02-03T14:31:45Z</time>
      </trkpt>
      <trkpt lat="25.670084" lon="-100.330257">
        <ele>524.743</ele>
        <time>2020-02-03T14:31:48Z</time>
      </trkpt>
      <trkpt lat="25.670094" lon="-100.330314">
        <ele>526.011</ele>
        <time>2020-02-03T14:31:50Z</time>
      </trkpt>
      <trkpt lat="25.670099" lon="-100.330345">
        <ele>525.818</ele>
        <time>2020-02-03T14:31:51Z</time>
      </trkpt>
      <trkpt lat="25.670103" lon="-100.330375">
        <ele>524.65</ele>
        <time>2020-02-03T14:31:52Z</time>
      </trkpt>
      <trkpt lat="25.670109" lon="-100.330406">
        <ele>524.618</ele>
        <time>2020-02-03T14:31:53Z</time>
      </trkpt>
      <trkpt lat="25.670118" lon="-100.330456">
        <ele>525.877</ele>
        <time>2020-02-03T14:31:55Z</time>
      </trkpt>
      <trkpt lat="25.670116" lon="-100.33052">
        <ele>525.06</ele>
        <time>2020-02-03T14:31:58Z</time>
      </trkpt>
      <trkpt lat="25.670106" lon="-100.330605">
        <ele>525.568</ele>
        <time>2020-02-03T14:32:01Z</time>
      </trkpt>
      <trkpt lat="25.670105" lon="-100.33066">
        <ele>525.63</ele>
        <time>2020-02-03T14:32:03Z</time>
      </trkpt>
      <trkpt lat="25.670105" lon="-100.330689">
        <ele>525.603</ele>
        <time>2020-02-03T14:32:04Z</time>
      </trkpt>
      <trkpt lat="25.670113" lon="-100.330744">
        <ele>525.131</ele>
        <time>2020-02-03T14:32:06Z</time>
      </trkpt>
      <trkpt lat="25.670116" lon="-100.330771">
        <ele>525.063</ele>
        <time>2020-02-03T14:32:07Z</time>
      </trkpt>
      <trkpt lat="25.670117" lon="-100.330799">
        <ele>524.485</ele>
        <time>2020-02-03T14:32:08Z</time>
      </trkpt>
      <trkpt lat="25.670117" lon="-100.330827">
        <ele>525.039</ele>
        <time>2020-02-03T14:32:09Z</time>
      </trkpt>
      <trkpt lat="25.670116" lon="-100.330858">
        <ele>523.42</ele>
        <time>2020-02-03T14:32:10Z</time>
      </trkpt>
      <trkpt lat="25.670115" lon="-100.330888">
        <ele>524.327</ele>
        <time>2020-02-03T14:32:11Z</time>
      </trkpt>
      <trkpt lat="25.670117" lon="-100.330944">
        <ele>525.019</ele>
        <time>2020-02-03T14:32:13Z</time>
      </trkpt>
      <trkpt lat="25.670112" lon="-100.330998">
        <ele>525.29</ele>
        <time>2020-02-03T14:32:15Z</time>
      </trkpt>
      <trkpt lat="25.6701" lon="-100.331051">
        <ele>525.598</ele>
        <time>2020-02-03T14:32:17Z</time>
      </trkpt>
      <trkpt lat="25.670098" lon="-100.331104">
        <ele>526.532</ele>
        <time>2020-02-03T14:32:19Z</time>
      </trkpt>
      <trkpt lat="25.670121" lon="-100.331182">
        <ele>526.477</ele>
        <time>2020-02-03T14:32:22Z</time>
      </trkpt>
      <trkpt lat="25.670129" lon="-100.33121">
        <ele>526.841</ele>
        <time>2020-02-03T14:32:23Z</time>
      </trkpt>
      <trkpt lat="25.670136" lon="-100.331238">
        <ele>525.82</ele>
        <time>2020-02-03T14:32:24Z</time>
      </trkpt>
      <trkpt lat="25.670142" lon="-100.331267">
        <ele>525.31</ele>
        <time>2020-02-03T14:32:25Z</time>
      </trkpt>
      <trkpt lat="25.670146" lon="-100.331296">
        <ele>524.964</ele>
        <time>2020-02-03T14:32:26Z</time>
      </trkpt>
      <trkpt lat="25.670149" lon="-100.331324">
        <ele>524.681</ele>
        <time>2020-02-03T14:32:27Z</time>
      </trkpt>
      <trkpt lat="25.670153" lon="-100.331352">
        <ele>523.835</ele>
        <time>2020-02-03T14:32:28Z</time>
      </trkpt>
      <trkpt lat="25.670157" lon="-100.331381">
        <ele>523.357</ele>
        <time>2020-02-03T14:32:29Z</time>
      </trkpt>
      <trkpt lat="25.670159" lon="-100.331411">
        <ele>523.199</ele>
        <time>2020-02-03T14:32:30Z</time>
      </trkpt>
      <trkpt lat="25.67016" lon="-100.33144">
        <ele>523.136</ele>
        <time>2020-02-03T14:32:31Z</time>
      </trkpt>
      <trkpt lat="25.670161" lon="-100.331471">
        <ele>522.821</ele>
        <time>2020-02-03T14:32:32Z</time>
      </trkpt>
      <trkpt lat="25.670161" lon="-100.331503">
        <ele>523.688</ele>
        <time>2020-02-03T14:32:33Z</time>
      </trkpt>
      <trkpt lat="25.67016" lon="-100.331536">
        <ele>524.617</ele>
        <time>2020-02-03T14:32:34Z</time>
      </trkpt>
      <trkpt lat="25.670158" lon="-100.331569">
        <ele>523.909</ele>
        <time>2020-02-03T14:32:35Z</time>
      </trkpt>
      <trkpt lat="25.670158" lon="-100.331602">
        <ele>523.971</ele>
        <time>2020-02-03T14:32:36Z</time>
      </trkpt>
      <trkpt lat="25.670157" lon="-100.331634">
        <ele>524.19</ele>
        <time>2020-02-03T14:32:37Z</time>
      </trkpt>
      <trkpt lat="25.670157" lon="-100.331667">
        <ele>524.582</ele>
        <time>2020-02-03T14:32:38Z</time>
      </trkpt>
      <trkpt lat="25.670157" lon="-100.331697">
        <ele>525.223</ele>
        <time>2020-02-03T14:32:39Z</time>
      </trkpt>
      <trkpt lat="25.670157" lon="-100.331727">
        <ele>525.635</ele>
        <time>2020-02-03T14:32:40Z</time>
      </trkpt>
      <trkpt lat="25.670157" lon="-100.331755">
        <ele>526.709</ele>
        <time>2020-02-03T14:32:41Z</time>
      </trkpt>
      <trkpt lat="25.670159" lon="-100.331783">
        <ele>526.779</ele>
        <time>2020-02-03T14:32:42Z</time>
      </trkpt>
      <trkpt lat="25.67016" lon="-100.331812">
        <ele>527.05</ele>
        <time>2020-02-03T14:32:43Z</time>
      </trkpt>
      <trkpt lat="25.67016" lon="-100.331841">
        <ele>527.841</ele>
        <time>2020-02-03T14:32:44Z</time>
      </trkpt>
      <trkpt lat="25.670159" lon="-100.33187">
        <ele>528.132</ele>
        <time>2020-02-03T14:32:45Z</time>
      </trkpt>
      <trkpt lat="25.670158" lon="-100.331901">
        <ele>529.193</ele>
        <time>2020-02-03T14:32:46Z</time>
      </trkpt>
      <trkpt lat="25.670157" lon="-100.331932">
        <ele>529.099</ele>
        <time>2020-02-03T14:32:47Z</time>
      </trkpt>
      <trkpt lat="25.670158" lon="-100.331963">
        <ele>529.053</ele>
        <time>2020-02-03T14:32:48Z</time>
      </trkpt>
      <trkpt lat="25.670158" lon="-100.331995">
        <ele>529.599</ele>
        <time>2020-02-03T14:32:49Z</time>
      </trkpt>
      <trkpt lat="25.670157" lon="-100.332026">
        <ele>529.778</ele>
        <time>2020-02-03T14:32:50Z</time>
      </trkpt>
      <trkpt lat="25.670162" lon="-100.332088">
        <ele>531.172</ele>
        <time>2020-02-03T14:32:52Z</time>
      </trkpt>
      <trkpt lat="25.670163" lon="-100.33212">
        <ele>533.11</ele>
        <time>2020-02-03T14:32:53Z</time>
      </trkpt>
      <trkpt lat="25.670155" lon="-100.332186">
        <ele>533.432</ele>
        <time>2020-02-03T14:32:55Z</time>
      </trkpt>
      <trkpt lat="25.670151" lon="-100.332217">
        <ele>534.166</ele>
        <time>2020-02-03T14:32:56Z</time>
      </trkpt>
      <trkpt lat="25.670146" lon="-100.332247">
        <ele>536.037</ele>
        <time>2020-02-03T14:32:57Z</time>
      </trkpt>
      <trkpt lat="25.670147" lon="-100.332309">
        <ele>535.759</ele>
        <time>2020-02-03T14:32:59Z</time>
      </trkpt>
      <trkpt lat="25.670155" lon="-100.332367">
        <ele>535.764</ele>
        <time>2020-02-03T14:33:01Z</time>
      </trkpt>
      <trkpt lat="25.670158" lon="-100.332395">
        <ele>535.543</ele>
        <time>2020-02-03T14:33:02Z</time>
      </trkpt>
      <trkpt lat="25.67016" lon="-100.332457">
        <ele>535.522</ele>
        <time>2020-02-03T14:33:04Z</time>
      </trkpt>
      <trkpt lat="25.670172" lon="-100.332518">
        <ele>535.449</ele>
        <time>2020-02-03T14:33:06Z</time>
      </trkpt>
      <trkpt lat="25.670191" lon="-100.332576">
        <ele>535.371</ele>
        <time>2020-02-03T14:33:08Z</time>
      </trkpt>
      <trkpt lat="25.670213" lon="-100.332684">
        <ele>535.368</ele>
        <time>2020-02-03T14:33:12Z</time>
      </trkpt>
      <trkpt lat="25.670203" lon="-100.332742">
        <ele>535.879</ele>
        <time>2020-02-03T14:33:14Z</time>
      </trkpt>
      <trkpt lat="25.670201" lon="-100.332816">
        <ele>536.556</ele>
        <time>2020-02-03T14:33:17Z</time>
      </trkpt>
      <trkpt lat="25.6702" lon="-100.332845">
        <ele>537.503</ele>
        <time>2020-02-03T14:33:18Z</time>
      </trkpt>
      <trkpt lat="25.670197" lon="-100.332876">
        <ele>536.735</ele>
        <time>2020-02-03T14:33:19Z</time>
      </trkpt>
      <trkpt lat="25.670191" lon="-100.332935">
        <ele>536.306</ele>
        <time>2020-02-03T14:33:21Z</time>
      </trkpt>
      <trkpt lat="25.670188" lon="-100.332963">
        <ele>536.619</ele>
        <time>2020-02-03T14:33:22Z</time>
      </trkpt>
      <trkpt lat="25.670177" lon="-100.333015">
        <ele>535.899</ele>
        <time>2020-02-03T14:33:24Z</time>
      </trkpt>
      <trkpt lat="25.670177" lon="-100.333068">
        <ele>534.398</ele>
        <time>2020-02-03T14:33:26Z</time>
      </trkpt>
      <trkpt lat="25.67019" lon="-100.333124">
        <ele>534.225</ele>
        <time>2020-02-03T14:33:28Z</time>
      </trkpt>
      <trkpt lat="25.670195" lon="-100.333182">
        <ele>535.715</ele>
        <time>2020-02-03T14:33:30Z</time>
      </trkpt>
      <trkpt lat="25.670196" lon="-100.333211">
        <ele>534.906</ele>
        <time>2020-02-03T14:33:31Z</time>
      </trkpt>
      <trkpt lat="25.670198" lon="-100.333239">
        <ele>537.046</ele>
        <time>2020-02-03T14:33:32Z</time>
      </trkpt>
      <trkpt lat="25.670201" lon="-100.333268">
        <ele>537.046</ele>
        <time>2020-02-03T14:33:33Z</time>
      </trkpt>
      <trkpt lat="25.670201" lon="-100.333297">
        <ele>537.046</ele>
        <time>2020-02-03T14:33:34Z</time>
      </trkpt>
      <trkpt lat="25.670201" lon="-100.333353">
        <ele>534.758</ele>
        <time>2020-02-03T14:33:36Z</time>
      </trkpt>
      <trkpt lat="25.670216" lon="-100.333426">
        <ele>535.843</ele>
        <time>2020-02-03T14:33:40Z</time>
      </trkpt>
      <trkpt lat="25.670219" lon="-100.333483">
        <ele>535.508</ele>
        <time>2020-02-03T14:33:44Z</time>
      </trkpt>
      <trkpt lat="25.670219" lon="-100.333483">
        <ele>534.595</ele>
        <time>2020-02-03T14:33:51Z</time>
      </trkpt>
      <trkpt lat="25.670219" lon="-100.333483">
        <ele>534.94</ele>
        <time>2020-02-03T14:33:52Z</time>
      </trkpt>
      <trkpt lat="25.670255" lon="-100.333542">
        <ele>534.781</ele>
        <time>2020-02-03T14:34:19Z</time>
      </trkpt>
      <trkpt lat="25.670259" lon="-100.333612">
        <ele>533.481</ele>
        <time>2020-02-03T14:34:22Z</time>
      </trkpt>
      <trkpt lat="25.670315" lon="-100.33363">
        <ele>532.87</ele>
        <time>2020-02-03T14:34:25Z</time>
      </trkpt>
      <trkpt lat="25.670395" lon="-100.333622">
        <ele>533.002</ele>
        <time>2020-02-03T14:34:28Z</time>
      </trkpt>
      <trkpt lat="25.670424" lon="-100.333617">
        <ele>533.185</ele>
        <time>2020-02-03T14:34:29Z</time>
      </trkpt>
      <trkpt lat="25.670486" lon="-100.333602">
        <ele>533.85</ele>
        <time>2020-02-03T14:34:31Z</time>
      </trkpt>
      <trkpt lat="25.670583" lon="-100.333592">
        <ele>533.707</ele>
        <time>2020-02-03T14:34:34Z</time>
      </trkpt>
      <trkpt lat="25.670616" lon="-100.33359">
        <ele>533.897</ele>
        <time>2020-02-03T14:34:35Z</time>
      </trkpt>
      <trkpt lat="25.670649" lon="-100.333587">
        <ele>534.041</ele>
        <time>2020-02-03T14:34:36Z</time>
      </trkpt>
      <trkpt lat="25.670679" lon="-100.333582">
        <ele>534.359</ele>
        <time>2020-02-03T14:34:37Z</time>
      </trkpt>
      <trkpt lat="25.670739" lon="-100.333573">
        <ele>534.071</ele>
        <time>2020-02-03T14:34:39Z</time>
      </trkpt>
      <trkpt lat="25.67077" lon="-100.333569">
        <ele>534.3</ele>
        <time>2020-02-03T14:34:40Z</time>
      </trkpt>
      <trkpt lat="25.6708" lon="-100.333565">
        <ele>534.431</ele>
        <time>2020-02-03T14:34:41Z</time>
      </trkpt>
      <trkpt lat="25.670895" lon="-100.333545">
        <ele>534.764</ele>
        <time>2020-02-03T14:34:44Z</time>
      </trkpt>
      <trkpt lat="25.670928" lon="-100.333538">
        <ele>536.12</ele>
        <time>2020-02-03T14:34:45Z</time>
      </trkpt>
      <trkpt lat="25.670961" lon="-100.333527">
        <ele>536.334</ele>
        <time>2020-02-03T14:34:46Z</time>
      </trkpt>
      <trkpt lat="25.670993" lon="-100.333518">
        <ele>536.369</ele>
        <time>2020-02-03T14:34:47Z</time>
      </trkpt>
      <trkpt lat="25.671024" lon="-100.33351">
        <ele>537.559</ele>
        <time>2020-02-03T14:34:48Z</time>
      </trkpt>
      <trkpt lat="25.671055" lon="-100.333504">
        <ele>537.103</ele>
        <time>2020-02-03T14:34:49Z</time>
      </trkpt>
      <trkpt lat="25.671085" lon="-100.333499">
        <ele>537.041</ele>
        <time>2020-02-03T14:34:50Z</time>
      </trkpt>
      <trkpt lat="25.671115" lon="-100.333492">
        <ele>538.195</ele>
        <time>2020-02-03T14:34:51Z</time>
      </trkpt>
      <trkpt lat="25.671144" lon="-100.333485">
        <ele>537.983</ele>
        <time>2020-02-03T14:34:52Z</time>
      </trkpt>
      <trkpt lat="25.671195" lon="-100.333471">
        <ele>537.999</ele>
        <time>2020-02-03T14:34:54Z</time>
      </trkpt>
      <trkpt lat="25.67122" lon="-100.333463">
        <ele>537.995</ele>
        <time>2020-02-03T14:34:55Z</time>
      </trkpt>
      <trkpt lat="25.671244" lon="-100.333457">
        <ele>538.485</ele>
        <time>2020-02-03T14:34:56Z</time>
      </trkpt>
      <trkpt lat="25.671295" lon="-100.333448">
        <ele>539.952</ele>
        <time>2020-02-03T14:34:58Z</time>
      </trkpt>
      <trkpt lat="25.671342" lon="-100.333443">
        <ele>539.758</ele>
        <time>2020-02-03T14:35:00Z</time>
      </trkpt>
      <trkpt lat="25.671366" lon="-100.333441">
        <ele>540.143</ele>
        <time>2020-02-03T14:35:01Z</time>
      </trkpt>
      <trkpt lat="25.671413" lon="-100.333432">
        <ele>537.915</ele>
        <time>2020-02-03T14:35:03Z</time>
      </trkpt>
      <trkpt lat="25.671439" lon="-100.333426">
        <ele>538.625</ele>
        <time>2020-02-03T14:35:04Z</time>
      </trkpt>
      <trkpt lat="25.671515" lon="-100.333417">
        <ele>538.801</ele>
        <time>2020-02-03T14:35:07Z</time>
      </trkpt>
      <trkpt lat="25.671542" lon="-100.333412">
        <ele>539.646</ele>
        <time>2020-02-03T14:35:08Z</time>
      </trkpt>
      <trkpt lat="25.671599" lon="-100.333396">
        <ele>540.506</ele>
        <time>2020-02-03T14:35:10Z</time>
      </trkpt>
      <trkpt lat="25.671627" lon="-100.333389">
        <ele>540.626</ele>
        <time>2020-02-03T14:35:11Z</time>
      </trkpt>
      <trkpt lat="25.671655" lon="-100.333385">
        <ele>540.486</ele>
        <time>2020-02-03T14:35:12Z</time>
      </trkpt>
      <trkpt lat="25.671683" lon="-100.33338">
        <ele>541.06</ele>
        <time>2020-02-03T14:35:13Z</time>
      </trkpt>
      <trkpt lat="25.671711" lon="-100.333374">
        <ele>541.288</ele>
        <time>2020-02-03T14:35:14Z</time>
      </trkpt>
      <trkpt lat="25.671738" lon="-100.333367">
        <ele>540.753</ele>
        <time>2020-02-03T14:35:15Z</time>
      </trkpt>
      <trkpt lat="25.671766" lon="-100.333362">
        <ele>540.473</ele>
        <time>2020-02-03T14:35:16Z</time>
      </trkpt>
      <trkpt lat="25.671794" lon="-100.333357">
        <ele>539.712</ele>
        <time>2020-02-03T14:35:17Z</time>
      </trkpt>
      <trkpt lat="25.671821" lon="-100.333353">
        <ele>538.813</ele>
        <time>2020-02-03T14:35:18Z</time>
      </trkpt>
      <trkpt lat="25.671848" lon="-100.333349">
        <ele>539.036</ele>
        <time>2020-02-03T14:35:19Z</time>
      </trkpt>
      <trkpt lat="25.671874" lon="-100.333344">
        <ele>538.674</ele>
        <time>2020-02-03T14:35:20Z</time>
      </trkpt>
      <trkpt lat="25.671901" lon="-100.333337">
        <ele>538.399</ele>
        <time>2020-02-03T14:35:21Z</time>
      </trkpt>
      <trkpt lat="25.671928" lon="-100.333328">
        <ele>538.288</ele>
        <time>2020-02-03T14:35:22Z</time>
      </trkpt>
      <trkpt lat="25.671955" lon="-100.33332">
        <ele>537.94</ele>
        <time>2020-02-03T14:35:23Z</time>
      </trkpt>
      <trkpt lat="25.671982" lon="-100.333313">
        <ele>537.723</ele>
        <time>2020-02-03T14:35:24Z</time>
      </trkpt>
      <trkpt lat="25.67201" lon="-100.333305">
        <ele>537.771</ele>
        <time>2020-02-03T14:35:25Z</time>
      </trkpt>
      <trkpt lat="25.672039" lon="-100.333297">
        <ele>537.601</ele>
        <time>2020-02-03T14:35:26Z</time>
      </trkpt>
      <trkpt lat="25.672069" lon="-100.333289">
        <ele>537.373</ele>
        <time>2020-02-03T14:35:27Z</time>
      </trkpt>
      <trkpt lat="25.672098" lon="-100.33328">
        <ele>536.774</ele>
        <time>2020-02-03T14:35:28Z</time>
      </trkpt>
      <trkpt lat="25.672128" lon="-100.333272">
        <ele>537.284</ele>
        <time>2020-02-03T14:35:29Z</time>
      </trkpt>
      <trkpt lat="25.672218" lon="-100.333225">
        <ele>537.556</ele>
        <time>2020-02-03T14:35:32Z</time>
      </trkpt>
      <trkpt lat="25.672246" lon="-100.333213">
        <ele>537.94</ele>
        <time>2020-02-03T14:35:33Z</time>
      </trkpt>
      <trkpt lat="25.672305" lon="-100.3332">
        <ele>538.405</ele>
        <time>2020-02-03T14:35:35Z</time>
      </trkpt>
      <trkpt lat="25.672369" lon="-100.3332">
        <ele>539.039</ele>
        <time>2020-02-03T14:35:37Z</time>
      </trkpt>
      <trkpt lat="25.672399" lon="-100.3332">
        <ele>538.637</ele>
        <time>2020-02-03T14:35:38Z</time>
      </trkpt>
      <trkpt lat="25.672457" lon="-100.333191">
        <ele>539.46</ele>
        <time>2020-02-03T14:35:40Z</time>
      </trkpt>
      <trkpt lat="25.672517" lon="-100.333174">
        <ele>538.874</ele>
        <time>2020-02-03T14:35:42Z</time>
      </trkpt>
      <trkpt lat="25.672547" lon="-100.333165">
        <ele>539.151</ele>
        <time>2020-02-03T14:35:43Z</time>
      </trkpt>
      <trkpt lat="25.672574" lon="-100.333157">
        <ele>539.288</ele>
        <time>2020-02-03T14:35:44Z</time>
      </trkpt>
      <trkpt lat="25.672601" lon="-100.333151">
        <ele>539.649</ele>
        <time>2020-02-03T14:35:45Z</time>
      </trkpt>
      <trkpt lat="25.672627" lon="-100.333144">
        <ele>539.163</ele>
        <time>2020-02-03T14:35:46Z</time>
      </trkpt>
      <trkpt lat="25.672677" lon="-100.333138">
        <ele>538.176</ele>
        <time>2020-02-03T14:35:48Z</time>
      </trkpt>
      <trkpt lat="25.672703" lon="-100.333134">
        <ele>537.417</ele>
        <time>2020-02-03T14:35:49Z</time>
      </trkpt>
      <trkpt lat="25.672728" lon="-100.333129">
        <ele>538.729</ele>
        <time>2020-02-03T14:35:50Z</time>
      </trkpt>
      <trkpt lat="25.672779" lon="-100.333125">
        <ele>536.206</ele>
        <time>2020-02-03T14:35:52Z</time>
      </trkpt>
      <trkpt lat="25.672806" lon="-100.333122">
        <ele>536.469</ele>
        <time>2020-02-03T14:35:53Z</time>
      </trkpt>
      <trkpt lat="25.672879" lon="-100.333153">
        <ele>535.604</ele>
        <time>2020-02-03T14:35:56Z</time>
      </trkpt>
      <trkpt lat="25.672909" lon="-100.333206">
        <ele>534.875</ele>
        <time>2020-02-03T14:35:58Z</time>
      </trkpt>
      <trkpt lat="25.672911" lon="-100.333276">
        <ele>534.753</ele>
        <time>2020-02-03T14:36:00Z</time>
      </trkpt>
      <trkpt lat="25.672909" lon="-100.333368">
        <ele>534.905</ele>
        <time>2020-02-03T14:36:03Z</time>
      </trkpt>
      <trkpt lat="25.672916" lon="-100.333429">
        <ele>534.88</ele>
        <time>2020-02-03T14:36:05Z</time>
      </trkpt>
      <trkpt lat="25.672919" lon="-100.333458">
        <ele>533.113</ele>
        <time>2020-02-03T14:36:06Z</time>
      </trkpt>
      <trkpt lat="25.672922" lon="-100.333485">
        <ele>533.064</ele>
        <time>2020-02-03T14:36:07Z</time>
      </trkpt>
      <trkpt lat="25.672926" lon="-100.333511">
        <ele>532.584</ele>
        <time>2020-02-03T14:36:08Z</time>
      </trkpt>
      <trkpt lat="25.672932" lon="-100.333536">
        <ele>532.125</ele>
        <time>2020-02-03T14:36:09Z</time>
      </trkpt>
      <trkpt lat="25.672936" lon="-100.333561">
        <ele>533.052</ele>
        <time>2020-02-03T14:36:10Z</time>
      </trkpt>
      <trkpt lat="25.672933" lon="-100.333617">
        <ele>532.628</ele>
        <time>2020-02-03T14:36:12Z</time>
      </trkpt>
      <trkpt lat="25.672931" lon="-100.333644">
        <ele>533.714</ele>
        <time>2020-02-03T14:36:13Z</time>
      </trkpt>
      <trkpt lat="25.672931" lon="-100.333673">
        <ele>533.713</ele>
        <time>2020-02-03T14:36:14Z</time>
      </trkpt>
      <trkpt lat="25.672931" lon="-100.3337">
        <ele>533.457</ele>
        <time>2020-02-03T14:36:15Z</time>
      </trkpt>
      <trkpt lat="25.672933" lon="-100.333732">
        <ele>532.672</ele>
        <time>2020-02-03T14:36:16Z</time>
      </trkpt>
      <trkpt lat="25.672935" lon="-100.333762">
        <ele>532.328</ele>
        <time>2020-02-03T14:36:17Z</time>
      </trkpt>
      <trkpt lat="25.672949" lon="-100.333825">
        <ele>532.163</ele>
        <time>2020-02-03T14:36:19Z</time>
      </trkpt>
      <trkpt lat="25.672957" lon="-100.333856">
        <ele>532.093</ele>
        <time>2020-02-03T14:36:20Z</time>
      </trkpt>
      <trkpt lat="25.672964" lon="-100.333889">
        <ele>532.635</ele>
        <time>2020-02-03T14:36:21Z</time>
      </trkpt>
      <trkpt lat="25.67297" lon="-100.333919">
        <ele>531.866</ele>
        <time>2020-02-03T14:36:22Z</time>
      </trkpt>
      <trkpt lat="25.672977" lon="-100.333963">
        <ele>531.767</ele>
        <time>2020-02-03T14:36:24Z</time>
      </trkpt>
      <trkpt lat="25.672983" lon="-100.33401">
        <ele>531.447</ele>
        <time>2020-02-03T14:36:26Z</time>
      </trkpt>
      <trkpt lat="25.672977" lon="-100.334073">
        <ele>531.294</ele>
        <time>2020-02-03T14:36:28Z</time>
      </trkpt>
      <trkpt lat="25.672974" lon="-100.334103">
        <ele>529.891</ele>
        <time>2020-02-03T14:36:29Z</time>
      </trkpt>
      <trkpt lat="25.672995" lon="-100.334184">
        <ele>529.988</ele>
        <time>2020-02-03T14:36:32Z</time>
      </trkpt>
      <trkpt lat="25.673016" lon="-100.334235">
        <ele>530.139</ele>
        <time>2020-02-03T14:36:34Z</time>
      </trkpt>
      <trkpt lat="25.673025" lon="-100.334262">
        <ele>529.865</ele>
        <time>2020-02-03T14:36:35Z</time>
      </trkpt>
      <trkpt lat="25.673039" lon="-100.334317">
        <ele>530.241</ele>
        <time>2020-02-03T14:36:37Z</time>
      </trkpt>
      <trkpt lat="25.673046" lon="-100.334373">
        <ele>529.962</ele>
        <time>2020-02-03T14:36:39Z</time>
      </trkpt>
      <trkpt lat="25.67305" lon="-100.334401">
        <ele>529.153</ele>
        <time>2020-02-03T14:36:40Z</time>
      </trkpt>
      <trkpt lat="25.673054" lon="-100.334428">
        <ele>528.075</ele>
        <time>2020-02-03T14:36:41Z</time>
      </trkpt>
      <trkpt lat="25.673059" lon="-100.334456">
        <ele>527.799</ele>
        <time>2020-02-03T14:36:42Z</time>
      </trkpt>
      <trkpt lat="25.673065" lon="-100.334484">
        <ele>527.858</ele>
        <time>2020-02-03T14:36:43Z</time>
      </trkpt>
      <trkpt lat="25.673082" lon="-100.33454">
        <ele>528.654</ele>
        <time>2020-02-03T14:36:45Z</time>
      </trkpt>
      <trkpt lat="25.673094" lon="-100.334599">
        <ele>528.43</ele>
        <time>2020-02-03T14:36:47Z</time>
      </trkpt>
      <trkpt lat="25.6731" lon="-100.334658">
        <ele>527.179</ele>
        <time>2020-02-03T14:36:49Z</time>
      </trkpt>
      <trkpt lat="25.673103" lon="-100.334683">
        <ele>527.583</ele>
        <time>2020-02-03T14:36:50Z</time>
      </trkpt>
      <trkpt lat="25.673104" lon="-100.334709">
        <ele>526.828</ele>
        <time>2020-02-03T14:36:51Z</time>
      </trkpt>
      <trkpt lat="25.673107" lon="-100.334737">
        <ele>527.299</ele>
        <time>2020-02-03T14:36:52Z</time>
      </trkpt>
      <trkpt lat="25.673112" lon="-100.334766">
        <ele>529.005</ele>
        <time>2020-02-03T14:36:53Z</time>
      </trkpt>
      <trkpt lat="25.673117" lon="-100.334793">
        <ele>530.221</ele>
        <time>2020-02-03T14:36:54Z</time>
      </trkpt>
      <trkpt lat="25.673122" lon="-100.334818">
        <ele>529.799</ele>
        <time>2020-02-03T14:36:55Z</time>
      </trkpt>
      <trkpt lat="25.673133" lon="-100.334867">
        <ele>530.129</ele>
        <time>2020-02-03T14:36:57Z</time>
      </trkpt>
      <trkpt lat="25.673139" lon="-100.334894">
        <ele>530.72</ele>
        <time>2020-02-03T14:36:58Z</time>
      </trkpt>
      <trkpt lat="25.673147" lon="-100.334956">
        <ele>530.445</ele>
        <time>2020-02-03T14:37:00Z</time>
      </trkpt>
      <trkpt lat="25.673152" lon="-100.334989">
        <ele>530.244</ele>
        <time>2020-02-03T14:37:01Z</time>
      </trkpt>
      <trkpt lat="25.673157" lon="-100.335021">
        <ele>531.008</ele>
        <time>2020-02-03T14:37:02Z</time>
      </trkpt>
      <trkpt lat="25.673161" lon="-100.335052">
        <ele>529.922</ele>
        <time>2020-02-03T14:37:03Z</time>
      </trkpt>
      <trkpt lat="25.673165" lon="-100.335083">
        <ele>529.919</ele>
        <time>2020-02-03T14:37:04Z</time>
      </trkpt>
      <trkpt lat="25.673168" lon="-100.335112">
        <ele>529.935</ele>
        <time>2020-02-03T14:37:05Z</time>
      </trkpt>
      <trkpt lat="25.673171" lon="-100.335139">
        <ele>530.563</ele>
        <time>2020-02-03T14:37:06Z</time>
      </trkpt>
      <trkpt lat="25.673176" lon="-100.335167">
        <ele>530.992</ele>
        <time>2020-02-03T14:37:07Z</time>
      </trkpt>
      <trkpt lat="25.673179" lon="-100.335223">
        <ele>531.479</ele>
        <time>2020-02-03T14:37:09Z</time>
      </trkpt>
      <trkpt lat="25.67318" lon="-100.335249">
        <ele>531.646</ele>
        <time>2020-02-03T14:37:10Z</time>
      </trkpt>
      <trkpt lat="25.673182" lon="-100.335274">
        <ele>531.444</ele>
        <time>2020-02-03T14:37:11Z</time>
      </trkpt>
      <trkpt lat="25.673191" lon="-100.335324">
        <ele>533.248</ele>
        <time>2020-02-03T14:37:13Z</time>
      </trkpt>
      <trkpt lat="25.673202" lon="-100.33538">
        <ele>532.936</ele>
        <time>2020-02-03T14:37:15Z</time>
      </trkpt>
      <trkpt lat="25.673208" lon="-100.33541">
        <ele>532.962</ele>
        <time>2020-02-03T14:37:16Z</time>
      </trkpt>
      <trkpt lat="25.673214" lon="-100.335439">
        <ele>532.351</ele>
        <time>2020-02-03T14:37:17Z</time>
      </trkpt>
      <trkpt lat="25.673229" lon="-100.335492">
        <ele>531.57</ele>
        <time>2020-02-03T14:37:19Z</time>
      </trkpt>
      <trkpt lat="25.673245" lon="-100.335574">
        <ele>530.755</ele>
        <time>2020-02-03T14:37:22Z</time>
      </trkpt>
      <trkpt lat="25.673263" lon="-100.335621">
        <ele>530.069</ele>
        <time>2020-02-03T14:37:24Z</time>
      </trkpt>
      <trkpt lat="25.673275" lon="-100.335651">
        <ele>530.276</ele>
        <time>2020-02-03T14:37:25Z</time>
      </trkpt>
      <trkpt lat="25.673306" lon="-100.335705">
        <ele>530.504</ele>
        <time>2020-02-03T14:37:27Z</time>
      </trkpt>
      <trkpt lat="25.67332" lon="-100.335734">
        <ele>529.719</ele>
        <time>2020-02-03T14:37:28Z</time>
      </trkpt>
      <trkpt lat="25.673333" lon="-100.335765">
        <ele>529.941</ele>
        <time>2020-02-03T14:37:29Z</time>
      </trkpt>
      <trkpt lat="25.673347" lon="-100.335797">
        <ele>529.711</ele>
        <time>2020-02-03T14:37:30Z</time>
      </trkpt>
      <trkpt lat="25.673371" lon="-100.335865">
        <ele>529.891</ele>
        <time>2020-02-03T14:37:32Z</time>
      </trkpt>
      <trkpt lat="25.673374" lon="-100.335939">
        <ele>530.005</ele>
        <time>2020-02-03T14:37:34Z</time>
      </trkpt>
      <trkpt lat="25.673367" lon="-100.336011">
        <ele>532.128</ele>
        <time>2020-02-03T14:37:36Z</time>
      </trkpt>
      <trkpt lat="25.673366" lon="-100.336047">
        <ele>532.28</ele>
        <time>2020-02-03T14:37:37Z</time>
      </trkpt>
      <trkpt lat="25.673366" lon="-100.336082">
        <ele>532.996</ele>
        <time>2020-02-03T14:37:38Z</time>
      </trkpt>
      <trkpt lat="25.673368" lon="-100.336118">
        <ele>532.839</ele>
        <time>2020-02-03T14:37:39Z</time>
      </trkpt>
      <trkpt lat="25.673371" lon="-100.336153">
        <ele>533.106</ele>
        <time>2020-02-03T14:37:40Z</time>
      </trkpt>
      <trkpt lat="25.673387" lon="-100.336226">
        <ele>532.929</ele>
        <time>2020-02-03T14:37:42Z</time>
      </trkpt>
      <trkpt lat="25.673394" lon="-100.336261">
        <ele>533.331</ele>
        <time>2020-02-03T14:37:43Z</time>
      </trkpt>
      <trkpt lat="25.673399" lon="-100.336297">
        <ele>533.147</ele>
        <time>2020-02-03T14:37:44Z</time>
      </trkpt>
      <trkpt lat="25.673404" lon="-100.336333">
        <ele>531.317</ele>
        <time>2020-02-03T14:37:45Z</time>
      </trkpt>
      <trkpt lat="25.673411" lon="-100.336365">
        <ele>531.116</ele>
        <time>2020-02-03T14:37:46Z</time>
      </trkpt>
      <trkpt lat="25.673426" lon="-100.336424">
        <ele>531.027</ele>
        <time>2020-02-03T14:37:48Z</time>
      </trkpt>
      <trkpt lat="25.673435" lon="-100.336452">
        <ele>531.289</ele>
        <time>2020-02-03T14:37:49Z</time>
      </trkpt>
      <trkpt lat="25.673442" lon="-100.336482">
        <ele>531.188</ele>
        <time>2020-02-03T14:37:50Z</time>
      </trkpt>
      <trkpt lat="25.673435" lon="-100.336534">
        <ele>531.349</ele>
        <time>2020-02-03T14:37:52Z</time>
      </trkpt>
      <trkpt lat="25.673419" lon="-100.336585">
        <ele>531.487</ele>
        <time>2020-02-03T14:37:54Z</time>
      </trkpt>
      <trkpt lat="25.673417" lon="-100.336643">
        <ele>532.015</ele>
        <time>2020-02-03T14:37:56Z</time>
      </trkpt>
      <trkpt lat="25.673418" lon="-100.336707">
        <ele>532.419</ele>
        <time>2020-02-03T14:37:59Z</time>
      </trkpt>
      <trkpt lat="25.673417" lon="-100.336738">
        <ele>532.037</ele>
        <time>2020-02-03T14:38:00Z</time>
      </trkpt>
      <trkpt lat="25.673408" lon="-100.336799">
        <ele>531.868</ele>
        <time>2020-02-03T14:38:02Z</time>
      </trkpt>
      <trkpt lat="25.67341" lon="-100.336855">
        <ele>531.74</ele>
        <time>2020-02-03T14:38:04Z</time>
      </trkpt>
      <trkpt lat="25.673427" lon="-100.336905">
        <ele>532.035</ele>
        <time>2020-02-03T14:38:06Z</time>
      </trkpt>
      <trkpt lat="25.673435" lon="-100.336929">
        <ele>532.315</ele>
        <time>2020-02-03T14:38:07Z</time>
      </trkpt>
      <trkpt lat="25.673442" lon="-100.336953">
        <ele>532.503</ele>
        <time>2020-02-03T14:38:08Z</time>
      </trkpt>
      <trkpt lat="25.673457" lon="-100.336999">
        <ele>533.596</ele>
        <time>2020-02-03T14:38:10Z</time>
      </trkpt>
      <trkpt lat="25.673466" lon="-100.337024">
        <ele>533.522</ele>
        <time>2020-02-03T14:38:11Z</time>
      </trkpt>
      <trkpt lat="25.673474" lon="-100.337049">
        <ele>532.843</ele>
        <time>2020-02-03T14:38:12Z</time>
      </trkpt>
      <trkpt lat="25.673482" lon="-100.337074">
        <ele>532.944</ele>
        <time>2020-02-03T14:38:13Z</time>
      </trkpt>
      <trkpt lat="25.67349" lon="-100.337098">
        <ele>533.205</ele>
        <time>2020-02-03T14:38:14Z</time>
      </trkpt>
      <trkpt lat="25.67351" lon="-100.337147">
        <ele>532.84</ele>
        <time>2020-02-03T14:38:16Z</time>
      </trkpt>
      <trkpt lat="25.67352" lon="-100.337172">
        <ele>534.439</ele>
        <time>2020-02-03T14:38:17Z</time>
      </trkpt>
      <trkpt lat="25.673534" lon="-100.337225">
        <ele>535.3</ele>
        <time>2020-02-03T14:38:19Z</time>
      </trkpt>
      <trkpt lat="25.67354" lon="-100.337253">
        <ele>535.202</ele>
        <time>2020-02-03T14:38:20Z</time>
      </trkpt>
      <trkpt lat="25.673547" lon="-100.33728">
        <ele>533.901</ele>
        <time>2020-02-03T14:38:21Z</time>
      </trkpt>
      <trkpt lat="25.673552" lon="-100.337297">
        <ele>533.528</ele>
        <time>2020-02-03T14:38:28Z</time>
      </trkpt>
      <trkpt lat="25.673554" lon="-100.337371">
        <ele>533.564</ele>
        <time>2020-02-03T14:38:34Z</time>
      </trkpt>
      <trkpt lat="25.673589" lon="-100.337464">
        <ele>533.565</ele>
        <time>2020-02-03T14:38:37Z</time>
      </trkpt>
      <trkpt lat="25.673601" lon="-100.337492">
        <ele>534.019</ele>
        <time>2020-02-03T14:38:38Z</time>
      </trkpt>
      <trkpt lat="25.673615" lon="-100.337552">
        <ele>533.931</ele>
        <time>2020-02-03T14:38:40Z</time>
      </trkpt>
      <trkpt lat="25.673623" lon="-100.337614">
        <ele>533.402</ele>
        <time>2020-02-03T14:38:42Z</time>
      </trkpt>
      <trkpt lat="25.673625" lon="-100.337646">
        <ele>533.281</ele>
        <time>2020-02-03T14:38:43Z</time>
      </trkpt>
      <trkpt lat="25.673627" lon="-100.337676">
        <ele>533.096</ele>
        <time>2020-02-03T14:38:44Z</time>
      </trkpt>
      <trkpt lat="25.67363" lon="-100.337705">
        <ele>533.816</ele>
        <time>2020-02-03T14:38:45Z</time>
      </trkpt>
      <trkpt lat="25.673634" lon="-100.337734">
        <ele>534.374</ele>
        <time>2020-02-03T14:38:46Z</time>
      </trkpt>
      <trkpt lat="25.673637" lon="-100.337764">
        <ele>534.257</ele>
        <time>2020-02-03T14:38:47Z</time>
      </trkpt>
      <trkpt lat="25.673638" lon="-100.337794">
        <ele>533.428</ele>
        <time>2020-02-03T14:38:48Z</time>
      </trkpt>
      <trkpt lat="25.673641" lon="-100.337822">
        <ele>535.977</ele>
        <time>2020-02-03T14:38:49Z</time>
      </trkpt>
      <trkpt lat="25.673659" lon="-100.337901">
        <ele>536.504</ele>
        <time>2020-02-03T14:38:52Z</time>
      </trkpt>
      <trkpt lat="25.673664" lon="-100.337925">
        <ele>536.866</ele>
        <time>2020-02-03T14:38:53Z</time>
      </trkpt>
      <trkpt lat="25.673677" lon="-100.337972">
        <ele>536.695</ele>
        <time>2020-02-03T14:38:55Z</time>
      </trkpt>
      <trkpt lat="25.673682" lon="-100.338023">
        <ele>537.71</ele>
        <time>2020-02-03T14:38:57Z</time>
      </trkpt>
      <trkpt lat="25.673684" lon="-100.338054">
        <ele>538.358</ele>
        <time>2020-02-03T14:38:58Z</time>
      </trkpt>
      <trkpt lat="25.673685" lon="-100.338085">
        <ele>538.817</ele>
        <time>2020-02-03T14:38:59Z</time>
      </trkpt>
      <trkpt lat="25.673683" lon="-100.338115">
        <ele>538.526</ele>
        <time>2020-02-03T14:39:00Z</time>
      </trkpt>
      <trkpt lat="25.673683" lon="-100.338142">
        <ele>537.861</ele>
        <time>2020-02-03T14:39:01Z</time>
      </trkpt>
      <trkpt lat="25.673692" lon="-100.338195">
        <ele>538.019</ele>
        <time>2020-02-03T14:39:03Z</time>
      </trkpt>
      <trkpt lat="25.673697" lon="-100.33822">
        <ele>538.01</ele>
        <time>2020-02-03T14:39:04Z</time>
      </trkpt>
      <trkpt lat="25.673703" lon="-100.338245">
        <ele>537.41</ele>
        <time>2020-02-03T14:39:05Z</time>
      </trkpt>
      <trkpt lat="25.673708" lon="-100.33827">
        <ele>536.647</ele>
        <time>2020-02-03T14:39:06Z</time>
      </trkpt>
      <trkpt lat="25.673715" lon="-100.338296">
        <ele>536.479</ele>
        <time>2020-02-03T14:39:07Z</time>
      </trkpt>
      <trkpt lat="25.673723" lon="-100.33832">
        <ele>537.754</ele>
        <time>2020-02-03T14:39:08Z</time>
      </trkpt>
      <trkpt lat="25.673729" lon="-100.338344">
        <ele>537.607</ele>
        <time>2020-02-03T14:39:09Z</time>
      </trkpt>
      <trkpt lat="25.673733" lon="-100.338394">
        <ele>537.517</ele>
        <time>2020-02-03T14:39:11Z</time>
      </trkpt>
      <trkpt lat="25.673732" lon="-100.338445">
        <ele>537.094</ele>
        <time>2020-02-03T14:39:13Z</time>
      </trkpt>
      <trkpt lat="25.673733" lon="-100.338472">
        <ele>537.923</ele>
        <time>2020-02-03T14:39:14Z</time>
      </trkpt>
      <trkpt lat="25.673734" lon="-100.338502">
        <ele>538.035</ele>
        <time>2020-02-03T14:39:15Z</time>
      </trkpt>
      <trkpt lat="25.673736" lon="-100.33853">
        <ele>538.646</ele>
        <time>2020-02-03T14:39:16Z</time>
      </trkpt>
      <trkpt lat="25.673747" lon="-100.338588">
        <ele>540.486</ele>
        <time>2020-02-03T14:39:18Z</time>
      </trkpt>
      <trkpt lat="25.673763" lon="-100.338637">
        <ele>540.963</ele>
        <time>2020-02-03T14:39:20Z</time>
      </trkpt>
      <trkpt lat="25.673772" lon="-100.338661">
        <ele>541.438</ele>
        <time>2020-02-03T14:39:21Z</time>
      </trkpt>
      <trkpt lat="25.673783" lon="-100.338687">
        <ele>541.143</ele>
        <time>2020-02-03T14:39:22Z</time>
      </trkpt>
      <trkpt lat="25.673792" lon="-100.338713">
        <ele>540.202</ele>
        <time>2020-02-03T14:39:23Z</time>
      </trkpt>
      <trkpt lat="25.673803" lon="-100.338804">
        <ele>539.387</ele>
        <time>2020-02-03T14:39:26Z</time>
      </trkpt>
      <trkpt lat="25.673798" lon="-100.33886">
        <ele>539.137</ele>
        <time>2020-02-03T14:39:28Z</time>
      </trkpt>
      <trkpt lat="25.673796" lon="-100.33889">
        <ele>538.927</ele>
        <time>2020-02-03T14:39:29Z</time>
      </trkpt>
      <trkpt lat="25.673796" lon="-100.33892">
        <ele>538.746</ele>
        <time>2020-02-03T14:39:30Z</time>
      </trkpt>
      <trkpt lat="25.673797" lon="-100.338967">
        <ele>538.41</ele>
        <time>2020-02-03T14:39:32Z</time>
      </trkpt>
      <trkpt lat="25.673801" lon="-100.339019">
        <ele>538.301</ele>
        <time>2020-02-03T14:39:34Z</time>
      </trkpt>
      <trkpt lat="25.673801" lon="-100.339074">
        <ele>538.438</ele>
        <time>2020-02-03T14:39:36Z</time>
      </trkpt>
      <trkpt lat="25.673809" lon="-100.339131">
        <ele>538.068</ele>
        <time>2020-02-03T14:39:38Z</time>
      </trkpt>
      <trkpt lat="25.673813" lon="-100.339159">
        <ele>538.128</ele>
        <time>2020-02-03T14:39:39Z</time>
      </trkpt>
      <trkpt lat="25.673817" lon="-100.339188">
        <ele>538.958</ele>
        <time>2020-02-03T14:39:40Z</time>
      </trkpt>
      <trkpt lat="25.673822" lon="-100.33922">
        <ele>539.608</ele>
        <time>2020-02-03T14:39:41Z</time>
      </trkpt>
      <trkpt lat="25.673828" lon="-100.339252">
        <ele>540.515</ele>
        <time>2020-02-03T14:39:42Z</time>
      </trkpt>
      <trkpt lat="25.673836" lon="-100.339283">
        <ele>541.702</ele>
        <time>2020-02-03T14:39:43Z</time>
      </trkpt>
      <trkpt lat="25.673845" lon="-100.339313">
        <ele>542.439</ele>
        <time>2020-02-03T14:39:44Z</time>
      </trkpt>
      <trkpt lat="25.673854" lon="-100.339344">
        <ele>543.49</ele>
        <time>2020-02-03T14:39:45Z</time>
      </trkpt>
      <trkpt lat="25.673864" lon="-100.339372">
        <ele>543.286</ele>
        <time>2020-02-03T14:39:46Z</time>
      </trkpt>
      <trkpt lat="25.673873" lon="-100.3394">
        <ele>542.641</ele>
        <time>2020-02-03T14:39:47Z</time>
      </trkpt>
      <trkpt lat="25.673882" lon="-100.339425">
        <ele>542.767</ele>
        <time>2020-02-03T14:39:48Z</time>
      </trkpt>
      <trkpt lat="25.673893" lon="-100.339452">
        <ele>543.981</ele>
        <time>2020-02-03T14:39:49Z</time>
      </trkpt>
      <trkpt lat="25.673903" lon="-100.33948">
        <ele>543.544</ele>
        <time>2020-02-03T14:39:50Z</time>
      </trkpt>
      <trkpt lat="25.67391" lon="-100.339505">
        <ele>543.307</ele>
        <time>2020-02-03T14:39:51Z</time>
      </trkpt>
      <trkpt lat="25.673916" lon="-100.339531">
        <ele>543.746</ele>
        <time>2020-02-03T14:39:52Z</time>
      </trkpt>
      <trkpt lat="25.67392" lon="-100.339557">
        <ele>544.734</ele>
        <time>2020-02-03T14:39:53Z</time>
      </trkpt>
      <trkpt lat="25.673925" lon="-100.339581">
        <ele>545.46</ele>
        <time>2020-02-03T14:39:54Z</time>
      </trkpt>
      <trkpt lat="25.67393" lon="-100.339607">
        <ele>546.318</ele>
        <time>2020-02-03T14:39:55Z</time>
      </trkpt>
      <trkpt lat="25.673935" lon="-100.339632">
        <ele>546.755</ele>
        <time>2020-02-03T14:39:56Z</time>
      </trkpt>
      <trkpt lat="25.673939" lon="-100.339657">
        <ele>543.395</ele>
        <time>2020-02-03T14:39:57Z</time>
      </trkpt>
      <trkpt lat="25.673944" lon="-100.339684">
        <ele>548.523</ele>
        <time>2020-02-03T14:39:58Z</time>
      </trkpt>
      <trkpt lat="25.67395" lon="-100.339708">
        <ele>547.565</ele>
        <time>2020-02-03T14:39:59Z</time>
      </trkpt>
      <trkpt lat="25.673956" lon="-100.33978">
        <ele>547.889</ele>
        <time>2020-02-03T14:40:02Z</time>
      </trkpt>
      <trkpt lat="25.673958" lon="-100.339806">
        <ele>548.693</ele>
        <time>2020-02-03T14:40:03Z</time>
      </trkpt>
      <trkpt lat="25.673961" lon="-100.339831">
        <ele>548.652</ele>
        <time>2020-02-03T14:40:04Z</time>
      </trkpt>
      <trkpt lat="25.673946" lon="-100.33989">
        <ele>550.797</ele>
        <time>2020-02-03T14:40:29Z</time>
      </trkpt>
      <trkpt lat="25.673956" lon="-100.33994">
        <ele>551.349</ele>
        <time>2020-02-03T14:40:31Z</time>
      </trkpt>
      <trkpt lat="25.67396" lon="-100.339965">
        <ele>551.513</ele>
        <time>2020-02-03T14:40:32Z</time>
      </trkpt>
      <trkpt lat="25.673965" lon="-100.339989">
        <ele>551.313</ele>
        <time>2020-02-03T14:40:33Z</time>
      </trkpt>
      <trkpt lat="25.673969" lon="-100.340014">
        <ele>551.669</ele>
        <time>2020-02-03T14:40:34Z</time>
      </trkpt>
      <trkpt lat="25.673975" lon="-100.340064">
        <ele>552.153</ele>
        <time>2020-02-03T14:40:36Z</time>
      </trkpt>
      <trkpt lat="25.67398" lon="-100.340113">
        <ele>552.827</ele>
        <time>2020-02-03T14:40:38Z</time>
      </trkpt>
      <trkpt lat="25.673983" lon="-100.340138">
        <ele>553.152</ele>
        <time>2020-02-03T14:40:39Z</time>
      </trkpt>
      <trkpt lat="25.673993" lon="-100.340191">
        <ele>552.972</ele>
        <time>2020-02-03T14:40:41Z</time>
      </trkpt>
      <trkpt lat="25.673998" lon="-100.340217">
        <ele>552.688</ele>
        <time>2020-02-03T14:40:42Z</time>
      </trkpt>
      <trkpt lat="25.674004" lon="-100.340243">
        <ele>553.748</ele>
        <time>2020-02-03T14:40:43Z</time>
      </trkpt>
      <trkpt lat="25.67401" lon="-100.340272">
        <ele>553.477</ele>
        <time>2020-02-03T14:40:44Z</time>
      </trkpt>
      <trkpt lat="25.674015" lon="-100.3403">
        <ele>553.427</ele>
        <time>2020-02-03T14:40:45Z</time>
      </trkpt>
      <trkpt lat="25.674019" lon="-100.340329">
        <ele>553.441</ele>
        <time>2020-02-03T14:40:46Z</time>
      </trkpt>
      <trkpt lat="25.674023" lon="-100.340356">
        <ele>554.601</ele>
        <time>2020-02-03T14:40:47Z</time>
      </trkpt>
      <trkpt lat="25.674029" lon="-100.340383">
        <ele>555.619</ele>
        <time>2020-02-03T14:40:48Z</time>
      </trkpt>
      <trkpt lat="25.674036" lon="-100.34042">
        <ele>556.772</ele>
        <time>2020-02-03T14:40:50Z</time>
      </trkpt>
      <trkpt lat="25.674043" lon="-100.340468">
        <ele>558.522</ele>
        <time>2020-02-03T14:40:52Z</time>
      </trkpt>
      <trkpt lat="25.674045" lon="-100.340493">
        <ele>559.456</ele>
        <time>2020-02-03T14:40:53Z</time>
      </trkpt>
      <trkpt lat="25.674056" lon="-100.340544">
        <ele>559.274</ele>
        <time>2020-02-03T14:40:56Z</time>
      </trkpt>
      <trkpt lat="25.674064" lon="-100.340593">
        <ele>559.612</ele>
        <time>2020-02-03T14:40:59Z</time>
      </trkpt>
      <trkpt lat="25.674078" lon="-100.34065">
        <ele>559.655</ele>
        <time>2020-02-03T14:41:02Z</time>
      </trkpt>
      <trkpt lat="25.674087" lon="-100.340728">
        <ele>562.042</ele>
        <time>2020-02-03T14:41:05Z</time>
      </trkpt>
      <trkpt lat="25.674088" lon="-100.340755">
        <ele>561.474</ele>
        <time>2020-02-03T14:41:06Z</time>
      </trkpt>
      <trkpt lat="25.674083" lon="-100.340805">
        <ele>560.662</ele>
        <time>2020-02-03T14:41:08Z</time>
      </trkpt>
      <trkpt lat="25.674079" lon="-100.34083">
        <ele>558.53</ele>
        <time>2020-02-03T14:41:09Z</time>
      </trkpt>
      <trkpt lat="25.674081" lon="-100.340887">
        <ele>554.351</ele>
        <time>2020-02-03T14:41:11Z</time>
      </trkpt>
      <trkpt lat="25.6741" lon="-100.340932">
        <ele>555.055</ele>
        <time>2020-02-03T14:41:14Z</time>
      </trkpt>
      <trkpt lat="25.674112" lon="-100.341004">
        <ele>561.466</ele>
        <time>2020-02-03T14:41:17Z</time>
      </trkpt>
      <trkpt lat="25.674117" lon="-100.341049">
        <ele>558.726</ele>
        <time>2020-02-03T14:41:19Z</time>
      </trkpt>
      <trkpt lat="25.674121" lon="-100.341082">
        <ele>558.451</ele>
        <time>2020-02-03T14:41:21Z</time>
      </trkpt>
      <trkpt lat="25.674138" lon="-100.341147">
        <ele>559.405</ele>
        <time>2020-02-03T14:41:25Z</time>
      </trkpt>
      <trkpt lat="25.674149" lon="-100.341213">
        <ele>559.793</ele>
        <time>2020-02-03T14:41:28Z</time>
      </trkpt>
      <trkpt lat="25.674149" lon="-100.341213">
        <ele>560.65</ele>
        <time>2020-02-03T14:41:40Z</time>
      </trkpt>
      <trkpt lat="25.674149" lon="-100.341213">
        <ele>560.42</ele>
        <time>2020-02-03T14:43:10Z</time>
      </trkpt>
      <trkpt lat="25.67423" lon="-100.341317">
        <ele>560.469</ele>
        <time>2020-02-03T14:43:11Z</time>
      </trkpt>
      <trkpt lat="25.674276" lon="-100.341351">
        <ele>560.235</ele>
        <time>2020-02-03T14:43:27Z</time>
      </trkpt>
      <trkpt lat="25.67431" lon="-100.34141">
        <ele>560.657</ele>
        <time>2020-02-03T14:43:30Z</time>
      </trkpt>
      <trkpt lat="25.674334" lon="-100.341478">
        <ele>560.96</ele>
        <time>2020-02-03T14:43:32Z</time>
      </trkpt>
      <trkpt lat="25.674348" lon="-100.341516">
        <ele>561.053</ele>
        <time>2020-02-03T14:43:33Z</time>
      </trkpt>
      <trkpt lat="25.674364" lon="-100.34155">
        <ele>560.668</ele>
        <time>2020-02-03T14:43:34Z</time>
      </trkpt>
      <trkpt lat="25.674376" lon="-100.341581">
        <ele>560.089</ele>
        <time>2020-02-03T14:43:35Z</time>
      </trkpt>
      <trkpt lat="25.674388" lon="-100.341609">
        <ele>561.364</ele>
        <time>2020-02-03T14:43:36Z</time>
      </trkpt>
      <trkpt lat="25.674402" lon="-100.341637">
        <ele>561.024</ele>
        <time>2020-02-03T14:43:37Z</time>
      </trkpt>
      <trkpt lat="25.674416" lon="-100.341663">
        <ele>559.402</ele>
        <time>2020-02-03T14:43:38Z</time>
      </trkpt>
      <trkpt lat="25.674431" lon="-100.34169">
        <ele>561.468</ele>
        <time>2020-02-03T14:43:39Z</time>
      </trkpt>
      <trkpt lat="25.674446" lon="-100.341719">
        <ele>562.474</ele>
        <time>2020-02-03T14:43:40Z</time>
      </trkpt>
      <trkpt lat="25.674458" lon="-100.341748">
        <ele>562.359</ele>
        <time>2020-02-03T14:43:41Z</time>
      </trkpt>
      <trkpt lat="25.674472" lon="-100.341774">
        <ele>564.47</ele>
        <time>2020-02-03T14:43:42Z</time>
      </trkpt>
      <trkpt lat="25.674487" lon="-100.341799">
        <ele>566.575</ele>
        <time>2020-02-03T14:43:43Z</time>
      </trkpt>
      <trkpt lat="25.674501" lon="-100.341824">
        <ele>566.9</ele>
        <time>2020-02-03T14:43:44Z</time>
      </trkpt>
      <trkpt lat="25.674522" lon="-100.341854">
        <ele>567.418</ele>
        <time>2020-02-03T14:43:46Z</time>
      </trkpt>
      <trkpt lat="25.674552" lon="-100.341893">
        <ele>567.197</ele>
        <time>2020-02-03T14:43:48Z</time>
      </trkpt>
      <trkpt lat="25.674581" lon="-100.341942">
        <ele>568.074</ele>
        <time>2020-02-03T14:43:50Z</time>
      </trkpt>
      <trkpt lat="25.674597" lon="-100.341966">
        <ele>567.693</ele>
        <time>2020-02-03T14:43:51Z</time>
      </trkpt>
      <trkpt lat="25.674619" lon="-100.342005">
        <ele>567.738</ele>
        <time>2020-02-03T14:43:53Z</time>
      </trkpt>
      <trkpt lat="25.674666" lon="-100.342066">
        <ele>568.194</ele>
        <time>2020-02-03T14:43:56Z</time>
      </trkpt>
      <trkpt lat="25.674683" lon="-100.342086">
        <ele>568.243</ele>
        <time>2020-02-03T14:43:57Z</time>
      </trkpt>
      <trkpt lat="25.674701" lon="-100.342105">
        <ele>566.662</ele>
        <time>2020-02-03T14:43:58Z</time>
      </trkpt>
      <trkpt lat="25.674719" lon="-100.342124">
        <ele>567.101</ele>
        <time>2020-02-03T14:43:59Z</time>
      </trkpt>
      <trkpt lat="25.674736" lon="-100.342144">
        <ele>567.823</ele>
        <time>2020-02-03T14:44:00Z</time>
      </trkpt>
      <trkpt lat="25.674752" lon="-100.342198">
        <ele>567.493</ele>
        <time>2020-02-03T14:44:02Z</time>
      </trkpt>
      <trkpt lat="25.674772" lon="-100.342264">
        <ele>568.488</ele>
        <time>2020-02-03T14:44:05Z</time>
      </trkpt>
      <trkpt lat="25.674817" lon="-100.342323">
        <ele>567.412</ele>
        <time>2020-02-03T14:44:08Z</time>
      </trkpt>
      <trkpt lat="25.674836" lon="-100.342343">
        <ele>567.682</ele>
        <time>2020-02-03T14:44:09Z</time>
      </trkpt>
      <trkpt lat="25.674854" lon="-100.342361">
        <ele>567.596</ele>
        <time>2020-02-03T14:44:10Z</time>
      </trkpt>
      <trkpt lat="25.674886" lon="-100.342397">
        <ele>567.653</ele>
        <time>2020-02-03T14:44:12Z</time>
      </trkpt>
      <trkpt lat="25.674915" lon="-100.342438">
        <ele>568.555</ele>
        <time>2020-02-03T14:44:14Z</time>
      </trkpt>
      <trkpt lat="25.674928" lon="-100.342459">
        <ele>569.161</ele>
        <time>2020-02-03T14:44:15Z</time>
      </trkpt>
      <trkpt lat="25.674976" lon="-100.34251">
        <ele>567.88</ele>
        <time>2020-02-03T14:44:18Z</time>
      </trkpt>
      <trkpt lat="25.674998" lon="-100.342537">
        <ele>569.812</ele>
        <time>2020-02-03T14:44:20Z</time>
      </trkpt>
      <trkpt lat="25.675027" lon="-100.342575">
        <ele>569.687</ele>
        <time>2020-02-03T14:44:22Z</time>
      </trkpt>
      <trkpt lat="25.675042" lon="-100.342598">
        <ele>570.302</ele>
        <time>2020-02-03T14:44:23Z</time>
      </trkpt>
      <trkpt lat="25.675057" lon="-100.342621">
        <ele>570.874</ele>
        <time>2020-02-03T14:44:24Z</time>
      </trkpt>
      <trkpt lat="25.675074" lon="-100.342644">
        <ele>571.991</ele>
        <time>2020-02-03T14:44:25Z</time>
      </trkpt>
      <trkpt lat="25.675092" lon="-100.342666">
        <ele>572.437</ele>
        <time>2020-02-03T14:44:26Z</time>
      </trkpt>
      <trkpt lat="25.675123" lon="-100.342701">
        <ele>572.602</ele>
        <time>2020-02-03T14:44:28Z</time>
      </trkpt>
      <trkpt lat="25.675153" lon="-100.342766">
        <ele>573.076</ele>
        <time>2020-02-03T14:44:31Z</time>
      </trkpt>
      <trkpt lat="25.675164" lon="-100.34279">
        <ele>574.346</ele>
        <time>2020-02-03T14:44:32Z</time>
      </trkpt>
      <trkpt lat="25.675228" lon="-100.342874">
        <ele>573.7</ele>
        <time>2020-02-03T14:44:36Z</time>
      </trkpt>
      <trkpt lat="25.675261" lon="-100.342911">
        <ele>574.048</ele>
        <time>2020-02-03T14:44:38Z</time>
      </trkpt>
      <trkpt lat="25.675277" lon="-100.342931">
        <ele>573.478</ele>
        <time>2020-02-03T14:44:39Z</time>
      </trkpt>
      <trkpt lat="25.675294" lon="-100.342951">
        <ele>573.288</ele>
        <time>2020-02-03T14:44:40Z</time>
      </trkpt>
      <trkpt lat="25.675311" lon="-100.34297">
        <ele>572.515</ele>
        <time>2020-02-03T14:44:41Z</time>
      </trkpt>
      <trkpt lat="25.675328" lon="-100.342988">
        <ele>571.984</ele>
        <time>2020-02-03T14:44:42Z</time>
      </trkpt>
      <trkpt lat="25.675346" lon="-100.343007">
        <ele>570.735</ele>
        <time>2020-02-03T14:44:43Z</time>
      </trkpt>
      <trkpt lat="25.675376" lon="-100.343036">
        <ele>570.945</ele>
        <time>2020-02-03T14:44:45Z</time>
      </trkpt>
      <trkpt lat="25.675394" lon="-100.343053">
        <ele>570.372</ele>
        <time>2020-02-03T14:44:46Z</time>
      </trkpt>
      <trkpt lat="25.675412" lon="-100.343069">
        <ele>571.068</ele>
        <time>2020-02-03T14:44:47Z</time>
      </trkpt>
      <trkpt lat="25.675458" lon="-100.343118">
        <ele>570.283</ele>
        <time>2020-02-03T14:44:50Z</time>
      </trkpt>
      <trkpt lat="25.675488" lon="-100.343146">
        <ele>569.604</ele>
        <time>2020-02-03T14:44:52Z</time>
      </trkpt>
      <trkpt lat="25.67552" lon="-100.343174">
        <ele>569.856</ele>
        <time>2020-02-03T14:44:54Z</time>
      </trkpt>
      <trkpt lat="25.675572" lon="-100.343212">
        <ele>570.801</ele>
        <time>2020-02-03T14:44:57Z</time>
      </trkpt>
      <trkpt lat="25.675621" lon="-100.343262">
        <ele>570.485</ele>
        <time>2020-02-03T14:45:00Z</time>
      </trkpt>
      <trkpt lat="25.675638" lon="-100.343281">
        <ele>570.288</ele>
        <time>2020-02-03T14:45:01Z</time>
      </trkpt>
      <trkpt lat="25.675654" lon="-100.343303">
        <ele>570.564</ele>
        <time>2020-02-03T14:45:02Z</time>
      </trkpt>
      <trkpt lat="25.675672" lon="-100.343325">
        <ele>572.36</ele>
        <time>2020-02-03T14:45:03Z</time>
      </trkpt>
      <trkpt lat="25.675687" lon="-100.343348">
        <ele>573.031</ele>
        <time>2020-02-03T14:45:04Z</time>
      </trkpt>
      <trkpt lat="25.675747" lon="-100.343401">
        <ele>572.551</ele>
        <time>2020-02-03T14:45:07Z</time>
      </trkpt>
      <trkpt lat="25.675765" lon="-100.343418">
        <ele>572.825</ele>
        <time>2020-02-03T14:45:08Z</time>
      </trkpt>
      <trkpt lat="25.67579" lon="-100.343461">
        <ele>573.404</ele>
        <time>2020-02-03T14:45:10Z</time>
      </trkpt>
      <trkpt lat="25.675802" lon="-100.343483">
        <ele>573.605</ele>
        <time>2020-02-03T14:45:11Z</time>
      </trkpt>
      <trkpt lat="25.675814" lon="-100.343504">
        <ele>573.387</ele>
        <time>2020-02-03T14:45:12Z</time>
      </trkpt>
      <trkpt lat="25.675829" lon="-100.343526">
        <ele>574.015</ele>
        <time>2020-02-03T14:45:13Z</time>
      </trkpt>
      <trkpt lat="25.675843" lon="-100.343547">
        <ele>572.826</ele>
        <time>2020-02-03T14:45:14Z</time>
      </trkpt>
      <trkpt lat="25.675878" lon="-100.343587">
        <ele>572.302</ele>
        <time>2020-02-03T14:45:16Z</time>
      </trkpt>
      <trkpt lat="25.675898" lon="-100.343606">
        <ele>572.28</ele>
        <time>2020-02-03T14:45:17Z</time>
      </trkpt>
      <trkpt lat="25.675918" lon="-100.343626">
        <ele>573.217</ele>
        <time>2020-02-03T14:45:18Z</time>
      </trkpt>
      <trkpt lat="25.675936" lon="-100.343648">
        <ele>573.026</ele>
        <time>2020-02-03T14:45:19Z</time>
      </trkpt>
      <trkpt lat="25.675953" lon="-100.343669">
        <ele>572.696</ele>
        <time>2020-02-03T14:45:20Z</time>
      </trkpt>
      <trkpt lat="25.675971" lon="-100.343692">
        <ele>573.449</ele>
        <time>2020-02-03T14:45:21Z</time>
      </trkpt>
      <trkpt lat="25.676008" lon="-100.343733">
        <ele>575.082</ele>
        <time>2020-02-03T14:45:23Z</time>
      </trkpt>
      <trkpt lat="25.676044" lon="-100.343778">
        <ele>574.903</ele>
        <time>2020-02-03T14:45:25Z</time>
      </trkpt>
      <trkpt lat="25.676062" lon="-100.343799">
        <ele>574.881</ele>
        <time>2020-02-03T14:45:26Z</time>
      </trkpt>
      <trkpt lat="25.6761" lon="-100.343837">
        <ele>576.267</ele>
        <time>2020-02-03T14:45:28Z</time>
      </trkpt>
      <trkpt lat="25.676119" lon="-100.343855">
        <ele>577.486</ele>
        <time>2020-02-03T14:45:29Z</time>
      </trkpt>
      <trkpt lat="25.676137" lon="-100.343873">
        <ele>577.27</ele>
        <time>2020-02-03T14:45:30Z</time>
      </trkpt>
      <trkpt lat="25.676175" lon="-100.343928">
        <ele>577.09</ele>
        <time>2020-02-03T14:45:33Z</time>
      </trkpt>
      <trkpt lat="25.676212" lon="-100.343965">
        <ele>576.91</ele>
        <time>2020-02-03T14:45:35Z</time>
      </trkpt>
      <trkpt lat="25.676229" lon="-100.343982">
        <ele>577.295</ele>
        <time>2020-02-03T14:45:36Z</time>
      </trkpt>
      <trkpt lat="25.676263" lon="-100.344013">
        <ele>578.655</ele>
        <time>2020-02-03T14:45:38Z</time>
      </trkpt>
      <trkpt lat="25.676296" lon="-100.344043">
        <ele>577.899</ele>
        <time>2020-02-03T14:45:40Z</time>
      </trkpt>
      <trkpt lat="25.676337" lon="-100.344101">
        <ele>576.911</ele>
        <time>2020-02-03T14:45:43Z</time>
      </trkpt>
      <trkpt lat="25.67635" lon="-100.344121">
        <ele>578.015</ele>
        <time>2020-02-03T14:45:44Z</time>
      </trkpt>
      <trkpt lat="25.676363" lon="-100.344143">
        <ele>577.744</ele>
        <time>2020-02-03T14:45:45Z</time>
      </trkpt>
      <trkpt lat="25.676371" lon="-100.344216">
        <ele>580.344</ele>
        <time>2020-02-03T14:45:48Z</time>
      </trkpt>
      <trkpt lat="25.676359" lon="-100.344272">
        <ele>580.265</ele>
        <time>2020-02-03T14:45:50Z</time>
      </trkpt>
      <trkpt lat="25.676339" lon="-100.344323">
        <ele>581.419</ele>
        <time>2020-02-03T14:45:52Z</time>
      </trkpt>
      <trkpt lat="25.676285" lon="-100.344365">
        <ele>582.088</ele>
        <time>2020-02-03T14:45:55Z</time>
      </trkpt>
      <trkpt lat="25.676235" lon="-100.344368">
        <ele>583.018</ele>
        <time>2020-02-03T14:45:57Z</time>
      </trkpt>
      <trkpt lat="25.676193" lon="-100.344343">
        <ele>583.507</ele>
        <time>2020-02-03T14:45:59Z</time>
      </trkpt>
      <trkpt lat="25.67616" lon="-100.344306">
        <ele>584.895</ele>
        <time>2020-02-03T14:46:01Z</time>
      </trkpt>
      <trkpt lat="25.676103" lon="-100.344259">
        <ele>584.972</ele>
        <time>2020-02-03T14:46:04Z</time>
      </trkpt>
      <trkpt lat="25.676081" lon="-100.344241">
        <ele>584.938</ele>
        <time>2020-02-03T14:46:05Z</time>
      </trkpt>
      <trkpt lat="25.676041" lon="-100.344202">
        <ele>585.553</ele>
        <time>2020-02-03T14:46:08Z</time>
      </trkpt>
      <trkpt lat="25.675999" lon="-100.344177">
        <ele>585.367</ele>
        <time>2020-02-03T14:46:10Z</time>
      </trkpt>
      <trkpt lat="25.675977" lon="-100.344164">
        <ele>585.141</ele>
        <time>2020-02-03T14:46:11Z</time>
      </trkpt>
      <trkpt lat="25.675955" lon="-100.344152">
        <ele>586.36</ele>
        <time>2020-02-03T14:46:12Z</time>
      </trkpt>
      <trkpt lat="25.675932" lon="-100.344139">
        <ele>586.287</ele>
        <time>2020-02-03T14:46:13Z</time>
      </trkpt>
      <trkpt lat="25.67591" lon="-100.344127">
        <ele>586.185</ele>
        <time>2020-02-03T14:46:14Z</time>
      </trkpt>
      <trkpt lat="25.675888" lon="-100.344116">
        <ele>586.013</ele>
        <time>2020-02-03T14:46:15Z</time>
      </trkpt>
      <trkpt lat="25.675864" lon="-100.344104">
        <ele>586.229</ele>
        <time>2020-02-03T14:46:16Z</time>
      </trkpt>
      <trkpt lat="25.675841" lon="-100.344091">
        <ele>586.467</ele>
        <time>2020-02-03T14:46:17Z</time>
      </trkpt>
      <trkpt lat="25.675819" lon="-100.344077">
        <ele>586.555</ele>
        <time>2020-02-03T14:46:18Z</time>
      </trkpt>
      <trkpt lat="25.67578" lon="-100.344042">
        <ele>586.594</ele>
        <time>2020-02-03T14:46:20Z</time>
      </trkpt>
      <trkpt lat="25.675761" lon="-100.344025">
        <ele>586.389</ele>
        <time>2020-02-03T14:46:21Z</time>
      </trkpt>
      <trkpt lat="25.675726" lon="-100.343986">
        <ele>587.189</ele>
        <time>2020-02-03T14:46:23Z</time>
      </trkpt>
      <trkpt lat="25.675707" lon="-100.343968">
        <ele>587.981</ele>
        <time>2020-02-03T14:46:24Z</time>
      </trkpt>
      <trkpt lat="25.675667" lon="-100.343939">
        <ele>589.639</ele>
        <time>2020-02-03T14:46:26Z</time>
      </trkpt>
      <trkpt lat="25.675622" lon="-100.343917">
        <ele>589.776</ele>
        <time>2020-02-03T14:46:28Z</time>
      </trkpt>
      <trkpt lat="25.675599" lon="-100.343905">
        <ele>590.29</ele>
        <time>2020-02-03T14:46:29Z</time>
      </trkpt>
      <trkpt lat="25.675577" lon="-100.343893">
        <ele>590.787</ele>
        <time>2020-02-03T14:46:30Z</time>
      </trkpt>
      <trkpt lat="25.675557" lon="-100.343881">
        <ele>590.271</ele>
        <time>2020-02-03T14:46:31Z</time>
      </trkpt>
      <trkpt lat="25.675535" lon="-100.343869">
        <ele>592.02</ele>
        <time>2020-02-03T14:46:32Z</time>
      </trkpt>
      <trkpt lat="25.675497" lon="-100.343852">
        <ele>592.041</ele>
        <time>2020-02-03T14:46:34Z</time>
      </trkpt>
      <trkpt lat="25.675457" lon="-100.343804">
        <ele>592.311</ele>
        <time>2020-02-03T14:46:39Z</time>
      </trkpt>
      <trkpt lat="25.67541" lon="-100.343784">
        <ele>594.334</ele>
        <time>2020-02-03T14:46:44Z</time>
      </trkpt>
      <trkpt lat="25.675353" lon="-100.343765">
        <ele>594.128</ele>
        <time>2020-02-03T14:46:48Z</time>
      </trkpt>
      <trkpt lat="25.675308" lon="-100.343723">
        <ele>595.339</ele>
        <time>2020-02-03T14:46:50Z</time>
      </trkpt>
      <trkpt lat="25.675274" lon="-100.343684">
        <ele>595.522</ele>
        <time>2020-02-03T14:46:52Z</time>
      </trkpt>
      <trkpt lat="25.675235" lon="-100.343647">
        <ele>595.333</ele>
        <time>2020-02-03T14:46:55Z</time>
      </trkpt>
      <trkpt lat="25.675237" lon="-100.343588">
        <ele>594.623</ele>
        <time>2020-02-03T14:47:00Z</time>
      </trkpt>
      <trkpt lat="25.675208" lon="-100.34354">
        <ele>595.545</ele>
        <time>2020-02-03T14:47:05Z</time>
      </trkpt>
      <trkpt lat="25.675173" lon="-100.343496">
        <ele>596.016</ele>
        <time>2020-02-03T14:47:10Z</time>
      </trkpt>
      <trkpt lat="25.675156" lon="-100.343473">
        <ele>595.723</ele>
        <time>2020-02-03T14:47:12Z</time>
      </trkpt>
      <trkpt lat="25.675113" lon="-100.343439">
        <ele>596.326</ele>
        <time>2020-02-03T14:47:17Z</time>
      </trkpt>
      <trkpt lat="25.675066" lon="-100.343417">
        <ele>596.921</ele>
        <time>2020-02-03T14:47:21Z</time>
      </trkpt>
      <trkpt lat="25.675036" lon="-100.343404">
        <ele>597.949</ele>
        <time>2020-02-03T14:47:23Z</time>
      </trkpt>
      <trkpt lat="25.67499" lon="-100.343376">
        <ele>598.987</ele>
        <time>2020-02-03T14:47:25Z</time>
      </trkpt>
      <trkpt lat="25.674966" lon="-100.343361">
        <ele>600.023</ele>
        <time>2020-02-03T14:47:26Z</time>
      </trkpt>
      <trkpt lat="25.674943" lon="-100.343347">
        <ele>600.722</ele>
        <time>2020-02-03T14:47:27Z</time>
      </trkpt>
      <trkpt lat="25.67492" lon="-100.343332">
        <ele>600.323</ele>
        <time>2020-02-03T14:47:28Z</time>
      </trkpt>
      <trkpt lat="25.674897" lon="-100.343317">
        <ele>600.642</ele>
        <time>2020-02-03T14:47:29Z</time>
      </trkpt>
      <trkpt lat="25.674874" lon="-100.343302">
        <ele>598.572</ele>
        <time>2020-02-03T14:47:30Z</time>
      </trkpt>
      <trkpt lat="25.674851" lon="-100.343288">
        <ele>599.862</ele>
        <time>2020-02-03T14:47:31Z</time>
      </trkpt>
      <trkpt lat="25.674829" lon="-100.343272">
        <ele>599.555</ele>
        <time>2020-02-03T14:47:32Z</time>
      </trkpt>
      <trkpt lat="25.674807" lon="-100.343255">
        <ele>601.22</ele>
        <time>2020-02-03T14:47:33Z</time>
      </trkpt>
      <trkpt lat="25.674786" lon="-100.343239">
        <ele>594.434</ele>
        <time>2020-02-03T14:47:34Z</time>
      </trkpt>
      <trkpt lat="25.67474" lon="-100.343216">
        <ele>598.742</ele>
        <time>2020-02-03T14:47:36Z</time>
      </trkpt>
      <trkpt lat="25.674704" lon="-100.343199">
        <ele>599.354</ele>
        <time>2020-02-03T14:47:38Z</time>
      </trkpt>
      <trkpt lat="25.674638" lon="-100.343174">
        <ele>598.033</ele>
        <time>2020-02-03T14:47:41Z</time>
      </trkpt>
      <trkpt lat="25.674596" lon="-100.343148">
        <ele>589.957</ele>
        <time>2020-02-03T14:47:43Z</time>
      </trkpt>
      <trkpt lat="25.674577" lon="-100.343134">
        <ele>593.272</ele>
        <time>2020-02-03T14:47:44Z</time>
      </trkpt>
      <trkpt lat="25.674538" lon="-100.34311">
        <ele>596.174</ele>
        <time>2020-02-03T14:47:46Z</time>
      </trkpt>
      <trkpt lat="25.674476" lon="-100.343082">
        <ele>598.756</ele>
        <time>2020-02-03T14:47:49Z</time>
      </trkpt>
      <trkpt lat="25.674438" lon="-100.343062">
        <ele>600.481</ele>
        <time>2020-02-03T14:47:51Z</time>
      </trkpt>
      <trkpt lat="25.674417" lon="-100.343051">
        <ele>599.884</ele>
        <time>2020-02-03T14:47:52Z</time>
      </trkpt>
      <trkpt lat="25.674356" lon="-100.343015">
        <ele>600.162</ele>
        <time>2020-02-03T14:47:55Z</time>
      </trkpt>
      <trkpt lat="25.674316" lon="-100.342983">
        <ele>600.062</ele>
        <time>2020-02-03T14:47:57Z</time>
      </trkpt>
      <trkpt lat="25.674294" lon="-100.342968">
        <ele>601.757</ele>
        <time>2020-02-03T14:47:58Z</time>
      </trkpt>
      <trkpt lat="25.674271" lon="-100.342953">
        <ele>603.148</ele>
        <time>2020-02-03T14:47:59Z</time>
      </trkpt>
      <trkpt lat="25.674247" lon="-100.342937">
        <ele>602.718</ele>
        <time>2020-02-03T14:48:00Z</time>
      </trkpt>
      <trkpt lat="25.674224" lon="-100.342918">
        <ele>601.741</ele>
        <time>2020-02-03T14:48:01Z</time>
      </trkpt>
      <trkpt lat="25.67418" lon="-100.342877">
        <ele>600.548</ele>
        <time>2020-02-03T14:48:03Z</time>
      </trkpt>
      <trkpt lat="25.674132" lon="-100.342845">
        <ele>600.039</ele>
        <time>2020-02-03T14:48:05Z</time>
      </trkpt>
      <trkpt lat="25.674083" lon="-100.342818">
        <ele>599.61</ele>
        <time>2020-02-03T14:48:07Z</time>
      </trkpt>
      <trkpt lat="25.674061" lon="-100.342805">
        <ele>595.538</ele>
        <time>2020-02-03T14:48:08Z</time>
      </trkpt>
      <trkpt lat="25.67404" lon="-100.342793">
        <ele>598.248</ele>
        <time>2020-02-03T14:48:09Z</time>
      </trkpt>
      <trkpt lat="25.673976" lon="-100.342778">
        <ele>599.354</ele>
        <time>2020-02-03T14:48:12Z</time>
      </trkpt>
      <trkpt lat="25.673922" lon="-100.342792">
        <ele>600.421</ele>
        <time>2020-02-03T14:48:15Z</time>
      </trkpt>
      <trkpt lat="25.673868" lon="-100.342829">
        <ele>600.712</ele>
        <time>2020-02-03T14:48:18Z</time>
      </trkpt>
      <trkpt lat="25.673846" lon="-100.342844">
        <ele>600.602</ele>
        <time>2020-02-03T14:48:20Z</time>
      </trkpt>
      <trkpt lat="25.673804" lon="-100.342861">
        <ele>599.115</ele>
        <time>2020-02-03T14:48:24Z</time>
      </trkpt>
      <trkpt lat="25.673762" lon="-100.342891">
        <ele>598.934</ele>
        <time>2020-02-03T14:48:28Z</time>
      </trkpt>
      <trkpt lat="25.673726" lon="-100.342937">
        <ele>598.312</ele>
        <time>2020-02-03T14:48:33Z</time>
      </trkpt>
      <trkpt lat="25.673714" lon="-100.342996">
        <ele>598.193</ele>
        <time>2020-02-03T14:48:38Z</time>
      </trkpt>
      <trkpt lat="25.673715" lon="-100.343052">
        <ele>598.415</ele>
        <time>2020-02-03T14:48:43Z</time>
      </trkpt>
      <trkpt lat="25.673714" lon="-100.343085">
        <ele>599.388</ele>
        <time>2020-02-03T14:48:46Z</time>
      </trkpt>
      <trkpt lat="25.673709" lon="-100.343119">
        <ele>600.315</ele>
        <time>2020-02-03T14:48:49Z</time>
      </trkpt>
      <trkpt lat="25.673715" lon="-100.343182">
        <ele>600.699</ele>
        <time>2020-02-03T14:48:54Z</time>
      </trkpt>
      <trkpt lat="25.673718" lon="-100.343219">
        <ele>601.289</ele>
        <time>2020-02-03T14:48:57Z</time>
      </trkpt>
      <trkpt lat="25.67372" lon="-100.343246">
        <ele>595.11</ele>
        <time>2020-02-03T14:48:59Z</time>
      </trkpt>
      <trkpt lat="25.673731" lon="-100.343301">
        <ele>595.756</ele>
        <time>2020-02-03T14:49:04Z</time>
      </trkpt>
      <trkpt lat="25.673729" lon="-100.343356">
        <ele>596.811</ele>
        <time>2020-02-03T14:49:09Z</time>
      </trkpt>
      <trkpt lat="25.673746" lon="-100.343402">
        <ele>597.723</ele>
        <time>2020-02-03T14:49:13Z</time>
      </trkpt>
      <trkpt lat="25.673759" lon="-100.343456">
        <ele>596.374</ele>
        <time>2020-02-03T14:49:17Z</time>
      </trkpt>
      <trkpt lat="25.673769" lon="-100.343489">
        <ele>596.996</ele>
        <time>2020-02-03T14:49:20Z</time>
      </trkpt>
      <trkpt lat="25.673797" lon="-100.343532">
        <ele>597.343</ele>
        <time>2020-02-03T14:49:25Z</time>
      </trkpt>
      <trkpt lat="25.673815" lon="-100.343601">
        <ele>596.883</ele>
        <time>2020-02-03T14:49:31Z</time>
      </trkpt>
      <trkpt lat="25.673837" lon="-100.343658">
        <ele>597.521</ele>
        <time>2020-02-03T14:49:33Z</time>
      </trkpt>
      <trkpt lat="25.673847" lon="-100.343716">
        <ele>598.005</ele>
        <time>2020-02-03T14:49:35Z</time>
      </trkpt>
      <trkpt lat="25.673851" lon="-100.343744">
        <ele>598.526</ele>
        <time>2020-02-03T14:49:36Z</time>
      </trkpt>
      <trkpt lat="25.673855" lon="-100.343774">
        <ele>599.162</ele>
        <time>2020-02-03T14:49:37Z</time>
      </trkpt>
      <trkpt lat="25.673861" lon="-100.343805">
        <ele>599.594</ele>
        <time>2020-02-03T14:49:38Z</time>
      </trkpt>
      <trkpt lat="25.673867" lon="-100.343835">
        <ele>598.964</ele>
        <time>2020-02-03T14:49:39Z</time>
      </trkpt>
      <trkpt lat="25.673871" lon="-100.343866">
        <ele>598.891</ele>
        <time>2020-02-03T14:49:40Z</time>
      </trkpt>
      <trkpt lat="25.673888" lon="-100.343925">
        <ele>598.328</ele>
        <time>2020-02-03T14:49:42Z</time>
      </trkpt>
      <trkpt lat="25.673899" lon="-100.343955">
        <ele>596.19</ele>
        <time>2020-02-03T14:49:43Z</time>
      </trkpt>
      <trkpt lat="25.673912" lon="-100.343985">
        <ele>595.55</ele>
        <time>2020-02-03T14:49:44Z</time>
      </trkpt>
      <trkpt lat="25.673926" lon="-100.344012">
        <ele>596.838</ele>
        <time>2020-02-03T14:49:45Z</time>
      </trkpt>
      <trkpt lat="25.673941" lon="-100.34404">
        <ele>597.685</ele>
        <time>2020-02-03T14:49:46Z</time>
      </trkpt>
      <trkpt lat="25.673956" lon="-100.344064">
        <ele>596.491</ele>
        <time>2020-02-03T14:49:47Z</time>
      </trkpt>
      <trkpt lat="25.673993" lon="-100.344101">
        <ele>596.48</ele>
        <time>2020-02-03T14:49:49Z</time>
      </trkpt>
      <trkpt lat="25.674012" lon="-100.344117">
        <ele>596.878</ele>
        <time>2020-02-03T14:49:50Z</time>
      </trkpt>
      <trkpt lat="25.674054" lon="-100.344146">
        <ele>597.196</ele>
        <time>2020-02-03T14:49:52Z</time>
      </trkpt>
      <trkpt lat="25.674074" lon="-100.344161">
        <ele>598.237</ele>
        <time>2020-02-03T14:49:53Z</time>
      </trkpt>
      <trkpt lat="25.674095" lon="-100.344176">
        <ele>598.602</ele>
        <time>2020-02-03T14:49:54Z</time>
      </trkpt>
      <trkpt lat="25.674116" lon="-100.344193">
        <ele>599.188</ele>
        <time>2020-02-03T14:49:55Z</time>
      </trkpt>
      <trkpt lat="25.674135" lon="-100.344208">
        <ele>600.551</ele>
        <time>2020-02-03T14:49:56Z</time>
      </trkpt>
      <trkpt lat="25.674165" lon="-100.344257">
        <ele>600.937</ele>
        <time>2020-02-03T14:49:59Z</time>
      </trkpt>
      <trkpt lat="25.674177" lon="-100.344282">
        <ele>600.286</ele>
        <time>2020-02-03T14:50:00Z</time>
      </trkpt>
      <trkpt lat="25.674189" lon="-100.344307">
        <ele>601.602</ele>
        <time>2020-02-03T14:50:01Z</time>
      </trkpt>
      <trkpt lat="25.674201" lon="-100.344332">
        <ele>602.864</ele>
        <time>2020-02-03T14:50:02Z</time>
      </trkpt>
      <trkpt lat="25.674212" lon="-100.344357">
        <ele>602.99</ele>
        <time>2020-02-03T14:50:03Z</time>
      </trkpt>
      <trkpt lat="25.674223" lon="-100.344379">
        <ele>604.521</ele>
        <time>2020-02-03T14:50:04Z</time>
      </trkpt>
      <trkpt lat="25.674253" lon="-100.344419">
        <ele>607.059</ele>
        <time>2020-02-03T14:50:06Z</time>
      </trkpt>
      <trkpt lat="25.674288" lon="-100.344452">
        <ele>608.76</ele>
        <time>2020-02-03T14:50:08Z</time>
      </trkpt>
      <trkpt lat="25.674325" lon="-100.3445">
        <ele>609.077</ele>
        <time>2020-02-03T14:50:11Z</time>
      </trkpt>
      <trkpt lat="25.674367" lon="-100.344525">
        <ele>609.415</ele>
        <time>2020-02-03T14:50:14Z</time>
      </trkpt>
      <trkpt lat="25.674416" lon="-100.344502">
        <ele>611.107</ele>
        <time>2020-02-03T14:50:17Z</time>
      </trkpt>
      <trkpt lat="25.674441" lon="-100.344451">
        <ele>611.482</ele>
        <time>2020-02-03T14:50:20Z</time>
      </trkpt>
      <trkpt lat="25.674436" lon="-100.344398">
        <ele>612.048</ele>
        <time>2020-02-03T14:50:23Z</time>
      </trkpt>
      <trkpt lat="25.674421" lon="-100.344339">
        <ele>610.901</ele>
        <time>2020-02-03T14:50:26Z</time>
      </trkpt>
      <trkpt lat="25.674424" lon="-100.344285">
        <ele>612.643</ele>
        <time>2020-02-03T14:50:29Z</time>
      </trkpt>
      <trkpt lat="25.674429" lon="-100.344246">
        <ele>613.156</ele>
        <time>2020-02-03T14:50:31Z</time>
      </trkpt>
      <trkpt lat="25.674432" lon="-100.34419">
        <ele>614.546</ele>
        <time>2020-02-03T14:50:34Z</time>
      </trkpt>
      <trkpt lat="25.674446" lon="-100.344131">
        <ele>614.343</ele>
        <time>2020-02-03T14:50:37Z</time>
      </trkpt>
      <trkpt lat="25.674452" lon="-100.344097">
        <ele>614.564</ele>
        <time>2020-02-03T14:50:39Z</time>
      </trkpt>
      <trkpt lat="25.674484" lon="-100.344048">
        <ele>614.223</ele>
        <time>2020-02-03T14:50:43Z</time>
      </trkpt>
      <trkpt lat="25.674522" lon="-100.344017">
        <ele>614.239</ele>
        <time>2020-02-03T14:50:49Z</time>
      </trkpt>
      <trkpt lat="25.674571" lon="-100.343998">
        <ele>616.792</ele>
        <time>2020-02-03T14:50:55Z</time>
      </trkpt>
      <trkpt lat="25.674619" lon="-100.344008">
        <ele>618.653</ele>
        <time>2020-02-03T14:51:00Z</time>
      </trkpt>
      <trkpt lat="25.674663" lon="-100.344046">
        <ele>618.285</ele>
        <time>2020-02-03T14:51:06Z</time>
      </trkpt>
      <trkpt lat="25.674687" lon="-100.344064">
        <ele>618.698</ele>
        <time>2020-02-03T14:51:08Z</time>
      </trkpt>
      <trkpt lat="25.674717" lon="-100.34409">
        <ele>619.321</ele>
        <time>2020-02-03T14:51:10Z</time>
      </trkpt>
      <trkpt lat="25.674749" lon="-100.344137">
        <ele>619.06</ele>
        <time>2020-02-03T14:51:13Z</time>
      </trkpt>
      <trkpt lat="25.674767" lon="-100.344166">
        <ele>619.367</ele>
        <time>2020-02-03T14:51:16Z</time>
      </trkpt>
      <trkpt lat="25.674807" lon="-100.344199">
        <ele>619.409</ele>
        <time>2020-02-03T14:51:21Z</time>
      </trkpt>
      <trkpt lat="25.674844" lon="-100.34424">
        <ele>621.124</ele>
        <time>2020-02-03T14:51:27Z</time>
      </trkpt>
      <trkpt lat="25.674881" lon="-100.344269">
        <ele>622.025</ele>
        <time>2020-02-03T14:51:33Z</time>
      </trkpt>
      <trkpt lat="25.674908" lon="-100.344288">
        <ele>624.244</ele>
        <time>2020-02-03T14:51:37Z</time>
      </trkpt>
      <trkpt lat="25.674942" lon="-100.344323">
        <ele>624.481</ele>
        <time>2020-02-03T14:51:44Z</time>
      </trkpt>
      <trkpt lat="25.674985" lon="-100.34435">
        <ele>625.164</ele>
        <time>2020-02-03T14:51:50Z</time>
      </trkpt>
      <trkpt lat="25.675024" lon="-100.344386">
        <ele>627.093</ele>
        <time>2020-02-03T14:51:55Z</time>
      </trkpt>
      <trkpt lat="25.675056" lon="-100.344425">
        <ele>627.621</ele>
        <time>2020-02-03T14:52:00Z</time>
      </trkpt>
      <trkpt lat="25.675099" lon="-100.344464">
        <ele>629.246</ele>
        <time>2020-02-03T14:52:04Z</time>
      </trkpt>
      <trkpt lat="25.675131" lon="-100.344497">
        <ele>633.052</ele>
        <time>2020-02-03T14:52:06Z</time>
      </trkpt>
      <trkpt lat="25.67515" lon="-100.344551">
        <ele>633.34</ele>
        <time>2020-02-03T14:52:10Z</time>
      </trkpt>
      <trkpt lat="25.675157" lon="-100.344579">
        <ele>632.845</ele>
        <time>2020-02-03T14:52:12Z</time>
      </trkpt>
      <trkpt lat="25.675166" lon="-100.344613">
        <ele>634.596</ele>
        <time>2020-02-03T14:52:15Z</time>
      </trkpt>
      <trkpt lat="25.675174" lon="-100.344646">
        <ele>634.492</ele>
        <time>2020-02-03T14:52:18Z</time>
      </trkpt>
      <trkpt lat="25.675182" lon="-100.344698">
        <ele>633.777</ele>
        <time>2020-02-03T14:52:24Z</time>
      </trkpt>
      <trkpt lat="25.675198" lon="-100.344747">
        <ele>632.215</ele>
        <time>2020-02-03T14:52:29Z</time>
      </trkpt>
      <trkpt lat="25.675223" lon="-100.344789">
        <ele>633.258</ele>
        <time>2020-02-03T14:52:33Z</time>
      </trkpt>
      <trkpt lat="25.675236" lon="-100.34481">
        <ele>634.013</ele>
        <time>2020-02-03T14:52:35Z</time>
      </trkpt>
      <trkpt lat="25.675279" lon="-100.344843">
        <ele>634.686</ele>
        <time>2020-02-03T14:52:41Z</time>
      </trkpt>
      <trkpt lat="25.675303" lon="-100.344896">
        <ele>634.611</ele>
        <time>2020-02-03T14:52:47Z</time>
      </trkpt>
      <trkpt lat="25.675333" lon="-100.344943">
        <ele>634.95</ele>
        <time>2020-02-03T14:52:52Z</time>
      </trkpt>
      <trkpt lat="25.675353" lon="-100.344973">
        <ele>635.057</ele>
        <time>2020-02-03T14:52:55Z</time>
      </trkpt>
      <trkpt lat="25.675389" lon="-100.345012">
        <ele>635.313</ele>
        <time>2020-02-03T14:52:58Z</time>
      </trkpt>
      <trkpt lat="25.675414" lon="-100.345044">
        <ele>635.972</ele>
        <time>2020-02-03T14:53:00Z</time>
      </trkpt>
      <trkpt lat="25.675427" lon="-100.345065">
        <ele>636.686</ele>
        <time>2020-02-03T14:53:01Z</time>
      </trkpt>
      <trkpt lat="25.675441" lon="-100.345086">
        <ele>637.611</ele>
        <time>2020-02-03T14:53:02Z</time>
      </trkpt>
      <trkpt lat="25.675472" lon="-100.345152">
        <ele>636.547</ele>
        <time>2020-02-03T14:53:05Z</time>
      </trkpt>
      <trkpt lat="25.675492" lon="-100.345196">
        <ele>633.114</ele>
        <time>2020-02-03T14:53:07Z</time>
      </trkpt>
      <trkpt lat="25.675514" lon="-100.345239">
        <ele>637.414</ele>
        <time>2020-02-03T14:53:09Z</time>
      </trkpt>
      <trkpt lat="25.675533" lon="-100.345279">
        <ele>637.351</ele>
        <time>2020-02-03T14:53:11Z</time>
      </trkpt>
      <trkpt lat="25.675555" lon="-100.345338">
        <ele>638.427</ele>
        <time>2020-02-03T14:53:14Z</time>
      </trkpt>
      <trkpt lat="25.675569" lon="-100.345368">
        <ele>638.895</ele>
        <time>2020-02-03T14:53:16Z</time>
      </trkpt>
      <trkpt lat="25.67558" lon="-100.345395">
        <ele>639.08</ele>
        <time>2020-02-03T14:53:19Z</time>
      </trkpt>
      <trkpt lat="25.67561" lon="-100.345435">
        <ele>640.225</ele>
        <time>2020-02-03T14:53:24Z</time>
      </trkpt>
      <trkpt lat="25.67563" lon="-100.345487">
        <ele>639.662</ele>
        <time>2020-02-03T14:53:29Z</time>
      </trkpt>
      <trkpt lat="25.675648" lon="-100.345535">
        <ele>641.824</ele>
        <time>2020-02-03T14:53:33Z</time>
      </trkpt>
      <trkpt lat="25.675668" lon="-100.345578">
        <ele>643.083</ele>
        <time>2020-02-03T14:53:35Z</time>
      </trkpt>
      <trkpt lat="25.675688" lon="-100.345619">
        <ele>641.959</ele>
        <time>2020-02-03T14:53:37Z</time>
      </trkpt>
      <trkpt lat="25.675701" lon="-100.345669">
        <ele>627.982</ele>
        <time>2020-02-03T14:53:39Z</time>
      </trkpt>
      <trkpt lat="25.675727" lon="-100.345732">
        <ele>629.92</ele>
        <time>2020-02-03T14:53:42Z</time>
      </trkpt>
      <trkpt lat="25.675756" lon="-100.345783">
        <ele>639.42</ele>
        <time>2020-02-03T14:53:45Z</time>
      </trkpt>
      <trkpt lat="25.675804" lon="-100.345806">
        <ele>643.379</ele>
        <time>2020-02-03T14:53:48Z</time>
      </trkpt>
      <trkpt lat="25.675861" lon="-100.345812">
        <ele>634.997</ele>
        <time>2020-02-03T14:53:52Z</time>
      </trkpt>
      <trkpt lat="25.675913" lon="-100.345839">
        <ele>641.009</ele>
        <time>2020-02-03T14:53:56Z</time>
      </trkpt>
      <trkpt lat="25.675946" lon="-100.345879">
        <ele>648.805</ele>
        <time>2020-02-03T14:53:59Z</time>
      </trkpt>
      <trkpt lat="25.675964" lon="-100.345904">
        <ele>647.665</ele>
        <time>2020-02-03T14:54:01Z</time>
      </trkpt>
      <trkpt lat="25.675989" lon="-100.345952">
        <ele>648.212</ele>
        <time>2020-02-03T14:54:04Z</time>
      </trkpt>
      <trkpt lat="25.676004" lon="-100.345984">
        <ele>648.052</ele>
        <time>2020-02-03T14:54:06Z</time>
      </trkpt>
      <trkpt lat="25.676032" lon="-100.346025">
        <ele>649.584</ele>
        <time>2020-02-03T14:54:09Z</time>
      </trkpt>
      <trkpt lat="25.676052" lon="-100.34606">
        <ele>649.179</ele>
        <time>2020-02-03T14:54:11Z</time>
      </trkpt>
      <trkpt lat="25.676075" lon="-100.346111">
        <ele>654.297</ele>
        <time>2020-02-03T14:54:14Z</time>
      </trkpt>
      <trkpt lat="25.676112" lon="-100.34615">
        <ele>645.232</ele>
        <time>2020-02-03T14:54:18Z</time>
      </trkpt>
      <trkpt lat="25.676133" lon="-100.346175">
        <ele>646.945</ele>
        <time>2020-02-03T14:54:20Z</time>
      </trkpt>
      <trkpt lat="25.676151" lon="-100.346196">
        <ele>648.389</ele>
        <time>2020-02-03T14:54:22Z</time>
      </trkpt>
      <trkpt lat="25.676168" lon="-100.346214">
        <ele>648.961</ele>
        <time>2020-02-03T14:54:24Z</time>
      </trkpt>
      <trkpt lat="25.676195" lon="-100.346242">
        <ele>651.128</ele>
        <time>2020-02-03T14:54:28Z</time>
      </trkpt>
      <trkpt lat="25.676217" lon="-100.346297">
        <ele>651.37</ele>
        <time>2020-02-03T14:54:34Z</time>
      </trkpt>
      <trkpt lat="25.676217" lon="-100.346297">
        <ele>650.738</ele>
        <time>2020-02-03T14:54:54Z</time>
      </trkpt>
      <trkpt lat="25.676217" lon="-100.346297">
        <ele>652.373</ele>
        <time>2020-02-03T15:19:13Z</time>
      </trkpt>
      <trkpt lat="25.676096" lon="-100.346152">
        <ele>618.001</ele>
        <time>2020-02-03T15:19:14Z</time>
      </trkpt>
      <trkpt lat="25.676057" lon="-100.346114">
        <ele>636.482</ele>
        <time>2020-02-03T15:19:25Z</time>
      </trkpt>
      <trkpt lat="25.676031" lon="-100.346084">
        <ele>639.74</ele>
        <time>2020-02-03T15:19:28Z</time>
      </trkpt>
      <trkpt lat="25.676003" lon="-100.34605">
        <ele>643.305</ele>
        <time>2020-02-03T15:19:30Z</time>
      </trkpt>
      <trkpt lat="25.675973" lon="-100.346011">
        <ele>645.953</ele>
        <time>2020-02-03T15:19:32Z</time>
      </trkpt>
      <trkpt lat="25.675958" lon="-100.345989">
        <ele>645.429</ele>
        <time>2020-02-03T15:19:33Z</time>
      </trkpt>
      <trkpt lat="25.675942" lon="-100.345963">
        <ele>644.858</ele>
        <time>2020-02-03T15:19:34Z</time>
      </trkpt>
      <trkpt lat="25.675927" lon="-100.345936">
        <ele>643.13</ele>
        <time>2020-02-03T15:19:35Z</time>
      </trkpt>
      <trkpt lat="25.675912" lon="-100.345907">
        <ele>642.431</ele>
        <time>2020-02-03T15:19:36Z</time>
      </trkpt>
      <trkpt lat="25.675898" lon="-100.345881">
        <ele>643.27</ele>
        <time>2020-02-03T15:19:37Z</time>
      </trkpt>
      <trkpt lat="25.675865" lon="-100.345831">
        <ele>644.597</ele>
        <time>2020-02-03T15:19:39Z</time>
      </trkpt>
      <trkpt lat="25.675851" lon="-100.345808">
        <ele>645.273</ele>
        <time>2020-02-03T15:19:40Z</time>
      </trkpt>
      <trkpt lat="25.675806" lon="-100.345758">
        <ele>645.287</ele>
        <time>2020-02-03T15:19:43Z</time>
      </trkpt>
      <trkpt lat="25.675743" lon="-100.345739">
        <ele>644.608</ele>
        <time>2020-02-03T15:19:46Z</time>
      </trkpt>
      <trkpt lat="25.675699" lon="-100.345705">
        <ele>644.706</ele>
        <time>2020-02-03T15:19:49Z</time>
      </trkpt>
      <trkpt lat="25.675675" lon="-100.345652">
        <ele>642.122</ele>
        <time>2020-02-03T15:19:52Z</time>
      </trkpt>
      <trkpt lat="25.675654" lon="-100.345586">
        <ele>641.777</ele>
        <time>2020-02-03T15:19:55Z</time>
      </trkpt>
      <trkpt lat="25.675633" lon="-100.345541">
        <ele>641.982</ele>
        <time>2020-02-03T15:19:57Z</time>
      </trkpt>
      <trkpt lat="25.675621" lon="-100.345517">
        <ele>642.12</ele>
        <time>2020-02-03T15:19:58Z</time>
      </trkpt>
      <trkpt lat="25.675607" lon="-100.345491">
        <ele>641.508</ele>
        <time>2020-02-03T15:19:59Z</time>
      </trkpt>
      <trkpt lat="25.675594" lon="-100.345465">
        <ele>643.32</ele>
        <time>2020-02-03T15:20:00Z</time>
      </trkpt>
      <trkpt lat="25.675581" lon="-100.34544">
        <ele>642.901</ele>
        <time>2020-02-03T15:20:01Z</time>
      </trkpt>
      <trkpt lat="25.675567" lon="-100.345415">
        <ele>642.8</ele>
        <time>2020-02-03T15:20:02Z</time>
      </trkpt>
      <trkpt lat="25.675555" lon="-100.34539">
        <ele>642.246</ele>
        <time>2020-02-03T15:20:03Z</time>
      </trkpt>
      <trkpt lat="25.675525" lon="-100.34531">
        <ele>641.732</ele>
        <time>2020-02-03T15:20:06Z</time>
      </trkpt>
      <trkpt lat="25.675497" lon="-100.345265">
        <ele>644.523</ele>
        <time>2020-02-03T15:20:08Z</time>
      </trkpt>
      <trkpt lat="25.675483" lon="-100.345242">
        <ele>642.921</ele>
        <time>2020-02-03T15:20:09Z</time>
      </trkpt>
      <trkpt lat="25.675471" lon="-100.345219">
        <ele>641.001</ele>
        <time>2020-02-03T15:20:10Z</time>
      </trkpt>
      <trkpt lat="25.675445" lon="-100.345172">
        <ele>641.649</ele>
        <time>2020-02-03T15:20:12Z</time>
      </trkpt>
      <trkpt lat="25.675423" lon="-100.345121">
        <ele>640.604</ele>
        <time>2020-02-03T15:20:14Z</time>
      </trkpt>
      <trkpt lat="25.675393" lon="-100.345076">
        <ele>638.271</ele>
        <time>2020-02-03T15:20:16Z</time>
      </trkpt>
      <trkpt lat="25.675377" lon="-100.345053">
        <ele>638.059</ele>
        <time>2020-02-03T15:20:17Z</time>
      </trkpt>
      <trkpt lat="25.675364" lon="-100.345031">
        <ele>637.574</ele>
        <time>2020-02-03T15:20:18Z</time>
      </trkpt>
      <trkpt lat="25.675351" lon="-100.345009">
        <ele>638.041</ele>
        <time>2020-02-03T15:20:19Z</time>
      </trkpt>
      <trkpt lat="25.67532" lon="-100.344971">
        <ele>636.247</ele>
        <time>2020-02-03T15:20:21Z</time>
      </trkpt>
      <trkpt lat="25.675305" lon="-100.344951">
        <ele>636.217</ele>
        <time>2020-02-03T15:20:22Z</time>
      </trkpt>
      <trkpt lat="25.675283" lon="-100.344906">
        <ele>635.776</ele>
        <time>2020-02-03T15:20:24Z</time>
      </trkpt>
      <trkpt lat="25.675272" lon="-100.344883">
        <ele>636.25</ele>
        <time>2020-02-03T15:20:25Z</time>
      </trkpt>
      <trkpt lat="25.675261" lon="-100.34486">
        <ele>636.013</ele>
        <time>2020-02-03T15:20:26Z</time>
      </trkpt>
      <trkpt lat="25.675237" lon="-100.344799">
        <ele>635.181</ele>
        <time>2020-02-03T15:20:29Z</time>
      </trkpt>
      <trkpt lat="25.675223" lon="-100.344756">
        <ele>634.668</ele>
        <time>2020-02-03T15:20:31Z</time>
      </trkpt>
      <trkpt lat="25.675214" lon="-100.344703">
        <ele>634.373</ele>
        <time>2020-02-03T15:20:33Z</time>
      </trkpt>
      <trkpt lat="25.675211" lon="-100.344672">
        <ele>634.443</ele>
        <time>2020-02-03T15:20:35Z</time>
      </trkpt>
      <trkpt lat="25.675183" lon="-100.344632">
        <ele>633.523</ele>
        <time>2020-02-03T15:20:37Z</time>
      </trkpt>
      <trkpt lat="25.675168" lon="-100.344609">
        <ele>632.721</ele>
        <time>2020-02-03T15:20:38Z</time>
      </trkpt>
      <trkpt lat="25.675155" lon="-100.344551">
        <ele>632.672</ele>
        <time>2020-02-03T15:20:40Z</time>
      </trkpt>
      <trkpt lat="25.675146" lon="-100.344484">
        <ele>632.22</ele>
        <time>2020-02-03T15:20:42Z</time>
      </trkpt>
      <trkpt lat="25.675113" lon="-100.344439">
        <ele>630.081</ele>
        <time>2020-02-03T15:20:44Z</time>
      </trkpt>
      <trkpt lat="25.675045" lon="-100.344394">
        <ele>630.085</ele>
        <time>2020-02-03T15:20:47Z</time>
      </trkpt>
      <trkpt lat="25.675023" lon="-100.344379">
        <ele>630.009</ele>
        <time>2020-02-03T15:20:48Z</time>
      </trkpt>
      <trkpt lat="25.675" lon="-100.344364">
        <ele>629.35</ele>
        <time>2020-02-03T15:20:49Z</time>
      </trkpt>
      <trkpt lat="25.67498" lon="-100.344349">
        <ele>627.344</ele>
        <time>2020-02-03T15:20:50Z</time>
      </trkpt>
      <trkpt lat="25.674944" lon="-100.344313">
        <ele>626.109</ele>
        <time>2020-02-03T15:20:52Z</time>
      </trkpt>
      <trkpt lat="25.674912" lon="-100.344276">
        <ele>625.952</ele>
        <time>2020-02-03T15:20:54Z</time>
      </trkpt>
      <trkpt lat="25.674896" lon="-100.344258">
        <ele>621.797</ele>
        <time>2020-02-03T15:20:55Z</time>
      </trkpt>
      <trkpt lat="25.674879" lon="-100.34424">
        <ele>621.264</ele>
        <time>2020-02-03T15:20:56Z</time>
      </trkpt>
      <trkpt lat="25.674828" lon="-100.344197">
        <ele>619.637</ele>
        <time>2020-02-03T15:20:59Z</time>
      </trkpt>
      <trkpt lat="25.674783" lon="-100.344143">
        <ele>618.26</ele>
        <time>2020-02-03T15:21:02Z</time>
      </trkpt>
      <trkpt lat="25.674755" lon="-100.344102">
        <ele>619.177</ele>
        <time>2020-02-03T15:21:04Z</time>
      </trkpt>
      <trkpt lat="25.674741" lon="-100.34408">
        <ele>613.363</ele>
        <time>2020-02-03T15:21:05Z</time>
      </trkpt>
      <trkpt lat="25.674696" lon="-100.344026">
        <ele>613.031</ele>
        <time>2020-02-03T15:21:08Z</time>
      </trkpt>
      <trkpt lat="25.674646" lon="-100.343983">
        <ele>612.806</ele>
        <time>2020-02-03T15:21:11Z</time>
      </trkpt>
      <trkpt lat="25.674614" lon="-100.343954">
        <ele>612.16</ele>
        <time>2020-02-03T15:21:13Z</time>
      </trkpt>
      <trkpt lat="25.674558" lon="-100.343949">
        <ele>611.013</ele>
        <time>2020-02-03T15:21:16Z</time>
      </trkpt>
      <trkpt lat="25.674514" lon="-100.343979">
        <ele>611.197</ele>
        <time>2020-02-03T15:21:18Z</time>
      </trkpt>
      <trkpt lat="25.674485" lon="-100.344018">
        <ele>611.51</ele>
        <time>2020-02-03T15:21:20Z</time>
      </trkpt>
      <trkpt lat="25.674453" lon="-100.344088">
        <ele>612.44</ele>
        <time>2020-02-03T15:21:23Z</time>
      </trkpt>
      <trkpt lat="25.674433" lon="-100.344129">
        <ele>609.146</ele>
        <time>2020-02-03T15:21:25Z</time>
      </trkpt>
      <trkpt lat="25.674422" lon="-100.344152">
        <ele>606.781</ele>
        <time>2020-02-03T15:21:26Z</time>
      </trkpt>
      <trkpt lat="25.67441" lon="-100.344227">
        <ele>605.469</ele>
        <time>2020-02-03T15:21:29Z</time>
      </trkpt>
      <trkpt lat="25.674414" lon="-100.344278">
        <ele>605.016</ele>
        <time>2020-02-03T15:21:31Z</time>
      </trkpt>
      <trkpt lat="25.674425" lon="-100.344331">
        <ele>604.356</ele>
        <time>2020-02-03T15:21:33Z</time>
      </trkpt>
      <trkpt lat="25.67444" lon="-100.344383">
        <ele>603.605</ele>
        <time>2020-02-03T15:21:35Z</time>
      </trkpt>
      <trkpt lat="25.674446" lon="-100.344409">
        <ele>602.526</ele>
        <time>2020-02-03T15:21:36Z</time>
      </trkpt>
      <trkpt lat="25.67445" lon="-100.344468">
        <ele>603.215</ele>
        <time>2020-02-03T15:21:39Z</time>
      </trkpt>
      <trkpt lat="25.674434" lon="-100.34454">
        <ele>602.837</ele>
        <time>2020-02-03T15:21:42Z</time>
      </trkpt>
      <trkpt lat="25.674379" lon="-100.34456">
        <ele>602.641</ele>
        <time>2020-02-03T15:21:46Z</time>
      </trkpt>
      <trkpt lat="25.674325" lon="-100.344508">
        <ele>602.339</ele>
        <time>2020-02-03T15:21:49Z</time>
      </trkpt>
      <trkpt lat="25.67428" lon="-100.344435">
        <ele>603.094</ele>
        <time>2020-02-03T15:21:52Z</time>
      </trkpt>
      <trkpt lat="25.674258" lon="-100.344384">
        <ele>604.047</ele>
        <time>2020-02-03T15:21:54Z</time>
      </trkpt>
      <trkpt lat="25.674245" lon="-100.344358">
        <ele>603.61</ele>
        <time>2020-02-03T15:21:55Z</time>
      </trkpt>
      <trkpt lat="25.674232" lon="-100.344333">
        <ele>603.051</ele>
        <time>2020-02-03T15:21:56Z</time>
      </trkpt>
      <trkpt lat="25.67422" lon="-100.344307">
        <ele>601.838</ele>
        <time>2020-02-03T15:21:57Z</time>
      </trkpt>
      <trkpt lat="25.674207" lon="-100.344284">
        <ele>602.192</ele>
        <time>2020-02-03T15:21:58Z</time>
      </trkpt>
      <trkpt lat="25.674194" lon="-100.344261">
        <ele>601.735</ele>
        <time>2020-02-03T15:21:59Z</time>
      </trkpt>
      <trkpt lat="25.674181" lon="-100.344239">
        <ele>599.321</ele>
        <time>2020-02-03T15:22:00Z</time>
      </trkpt>
      <trkpt lat="25.674167" lon="-100.344212">
        <ele>599.244</ele>
        <time>2020-02-03T15:22:01Z</time>
      </trkpt>
      <trkpt lat="25.67415" lon="-100.344183">
        <ele>598.634</ele>
        <time>2020-02-03T15:22:02Z</time>
      </trkpt>
      <trkpt lat="25.67413" lon="-100.344155">
        <ele>600.146</ele>
        <time>2020-02-03T15:22:03Z</time>
      </trkpt>
      <trkpt lat="25.674084" lon="-100.344109">
        <ele>599.953</ele>
        <time>2020-02-03T15:22:05Z</time>
      </trkpt>
      <trkpt lat="25.674041" lon="-100.344078">
        <ele>600.0</ele>
        <time>2020-02-03T15:22:07Z</time>
      </trkpt>
      <trkpt lat="25.674003" lon="-100.344053">
        <ele>598.786</ele>
        <time>2020-02-03T15:22:09Z</time>
      </trkpt>
      <trkpt lat="25.673958" lon="-100.344026">
        <ele>598.029</ele>
        <time>2020-02-03T15:22:11Z</time>
      </trkpt>
      <trkpt lat="25.67393" lon="-100.343977">
        <ele>597.461</ele>
        <time>2020-02-03T15:22:13Z</time>
      </trkpt>
      <trkpt lat="25.673892" lon="-100.343899">
        <ele>597.051</ele>
        <time>2020-02-03T15:22:16Z</time>
      </trkpt>
      <trkpt lat="25.673881" lon="-100.343875">
        <ele>596.457</ele>
        <time>2020-02-03T15:22:17Z</time>
      </trkpt>
      <trkpt lat="25.673865" lon="-100.343822">
        <ele>595.44</ele>
        <time>2020-02-03T15:22:19Z</time>
      </trkpt>
      <trkpt lat="25.673859" lon="-100.343766">
        <ele>595.106</ele>
        <time>2020-02-03T15:22:21Z</time>
      </trkpt>
      <trkpt lat="25.673856" lon="-100.343738">
        <ele>593.962</ele>
        <time>2020-02-03T15:22:22Z</time>
      </trkpt>
      <trkpt lat="25.673852" lon="-100.343709">
        <ele>592.201</ele>
        <time>2020-02-03T15:22:23Z</time>
      </trkpt>
      <trkpt lat="25.673847" lon="-100.343679">
        <ele>593.494</ele>
        <time>2020-02-03T15:22:24Z</time>
      </trkpt>
      <trkpt lat="25.67384" lon="-100.343649">
        <ele>593.957</ele>
        <time>2020-02-03T15:22:25Z</time>
      </trkpt>
      <trkpt lat="25.673833" lon="-100.343588">
        <ele>593.999</ele>
        <time>2020-02-03T15:22:27Z</time>
      </trkpt>
      <trkpt lat="25.673828" lon="-100.343556">
        <ele>594.478</ele>
        <time>2020-02-03T15:22:28Z</time>
      </trkpt>
      <trkpt lat="25.673822" lon="-100.343525">
        <ele>594.962</ele>
        <time>2020-02-03T15:22:29Z</time>
      </trkpt>
      <trkpt lat="25.673821" lon="-100.343463">
        <ele>595.207</ele>
        <time>2020-02-03T15:22:31Z</time>
      </trkpt>
      <trkpt lat="25.673821" lon="-100.343433">
        <ele>595.308</ele>
        <time>2020-02-03T15:22:32Z</time>
      </trkpt>
      <trkpt lat="25.673806" lon="-100.343375">
        <ele>597.015</ele>
        <time>2020-02-03T15:22:34Z</time>
      </trkpt>
      <trkpt lat="25.673782" lon="-100.343322">
        <ele>597.11</ele>
        <time>2020-02-03T15:22:38Z</time>
      </trkpt>
      <trkpt lat="25.673766" lon="-100.343266">
        <ele>597.029</ele>
        <time>2020-02-03T15:22:40Z</time>
      </trkpt>
      <trkpt lat="25.67376" lon="-100.343238">
        <ele>597.806</ele>
        <time>2020-02-03T15:22:41Z</time>
      </trkpt>
      <trkpt lat="25.673753" lon="-100.34318">
        <ele>597.58</ele>
        <time>2020-02-03T15:22:43Z</time>
      </trkpt>
      <trkpt lat="25.67375" lon="-100.343151">
        <ele>595.783</ele>
        <time>2020-02-03T15:22:44Z</time>
      </trkpt>
      <trkpt lat="25.673746" lon="-100.343123">
        <ele>595.628</ele>
        <time>2020-02-03T15:22:45Z</time>
      </trkpt>
      <trkpt lat="25.673747" lon="-100.343034">
        <ele>596.948</ele>
        <time>2020-02-03T15:22:48Z</time>
      </trkpt>
      <trkpt lat="25.673757" lon="-100.34297">
        <ele>596.004</ele>
        <time>2020-02-03T15:22:50Z</time>
      </trkpt>
      <trkpt lat="25.673776" lon="-100.34291">
        <ele>596.6</ele>
        <time>2020-02-03T15:22:52Z</time>
      </trkpt>
      <trkpt lat="25.673788" lon="-100.342882">
        <ele>595.856</ele>
        <time>2020-02-03T15:22:53Z</time>
      </trkpt>
      <trkpt lat="25.673818" lon="-100.342834">
        <ele>595.541</ele>
        <time>2020-02-03T15:22:55Z</time>
      </trkpt>
      <trkpt lat="25.673833" lon="-100.342812">
        <ele>595.084</ele>
        <time>2020-02-03T15:22:56Z</time>
      </trkpt>
      <trkpt lat="25.67385" lon="-100.342791">
        <ele>595.969</ele>
        <time>2020-02-03T15:22:57Z</time>
      </trkpt>
      <trkpt lat="25.673889" lon="-100.342759">
        <ele>594.585</ele>
        <time>2020-02-03T15:22:59Z</time>
      </trkpt>
      <trkpt lat="25.673933" lon="-100.342748">
        <ele>595.148</ele>
        <time>2020-02-03T15:23:01Z</time>
      </trkpt>
      <trkpt lat="25.674005" lon="-100.342755">
        <ele>595.396</ele>
        <time>2020-02-03T15:23:04Z</time>
      </trkpt>
      <trkpt lat="25.674055" lon="-100.34277">
        <ele>595.389</ele>
        <time>2020-02-03T15:23:06Z</time>
      </trkpt>
      <trkpt lat="25.674103" lon="-100.342794">
        <ele>595.653</ele>
        <time>2020-02-03T15:23:08Z</time>
      </trkpt>
      <trkpt lat="25.674147" lon="-100.342822">
        <ele>595.924</ele>
        <time>2020-02-03T15:23:10Z</time>
      </trkpt>
      <trkpt lat="25.674169" lon="-100.342837">
        <ele>595.922</ele>
        <time>2020-02-03T15:23:11Z</time>
      </trkpt>
      <trkpt lat="25.67419" lon="-100.342851">
        <ele>595.422</ele>
        <time>2020-02-03T15:23:12Z</time>
      </trkpt>
      <trkpt lat="25.674212" lon="-100.342867">
        <ele>594.314</ele>
        <time>2020-02-03T15:23:13Z</time>
      </trkpt>
      <trkpt lat="25.674233" lon="-100.342882">
        <ele>593.388</ele>
        <time>2020-02-03T15:23:14Z</time>
      </trkpt>
      <trkpt lat="25.674255" lon="-100.342897">
        <ele>593.349</ele>
        <time>2020-02-03T15:23:15Z</time>
      </trkpt>
      <trkpt lat="25.674276" lon="-100.342911">
        <ele>594.085</ele>
        <time>2020-02-03T15:23:16Z</time>
      </trkpt>
      <trkpt lat="25.674297" lon="-100.342924">
        <ele>594.914</ele>
        <time>2020-02-03T15:23:17Z</time>
      </trkpt>
      <trkpt lat="25.674318" lon="-100.342938">
        <ele>595.253</ele>
        <time>2020-02-03T15:23:18Z</time>
      </trkpt>
      <trkpt lat="25.674339" lon="-100.342951">
        <ele>595.999</ele>
        <time>2020-02-03T15:23:19Z</time>
      </trkpt>
      <trkpt lat="25.674359" lon="-100.342964">
        <ele>596.088</ele>
        <time>2020-02-03T15:23:20Z</time>
      </trkpt>
      <trkpt lat="25.674379" lon="-100.342977">
        <ele>595.872</ele>
        <time>2020-02-03T15:23:21Z</time>
      </trkpt>
      <trkpt lat="25.674417" lon="-100.343004">
        <ele>595.273</ele>
        <time>2020-02-03T15:23:23Z</time>
      </trkpt>
      <trkpt lat="25.674466" lon="-100.343051">
        <ele>595.597</ele>
        <time>2020-02-03T15:23:26Z</time>
      </trkpt>
      <trkpt lat="25.674499" lon="-100.343088">
        <ele>595.86</ele>
        <time>2020-02-03T15:23:28Z</time>
      </trkpt>
      <trkpt lat="25.674518" lon="-100.343107">
        <ele>596.651</ele>
        <time>2020-02-03T15:23:29Z</time>
      </trkpt>
      <trkpt lat="25.674541" lon="-100.343126">
        <ele>597.332</ele>
        <time>2020-02-03T15:23:30Z</time>
      </trkpt>
      <trkpt lat="25.674564" lon="-100.343143">
        <ele>597.387</ele>
        <time>2020-02-03T15:23:31Z</time>
      </trkpt>
      <trkpt lat="25.674587" lon="-100.34316">
        <ele>598.65</ele>
        <time>2020-02-03T15:23:32Z</time>
      </trkpt>
      <trkpt lat="25.674611" lon="-100.343175">
        <ele>598.609</ele>
        <time>2020-02-03T15:23:33Z</time>
      </trkpt>
      <trkpt lat="25.674637" lon="-100.34319">
        <ele>598.274</ele>
        <time>2020-02-03T15:23:34Z</time>
      </trkpt>
      <trkpt lat="25.674661" lon="-100.343206">
        <ele>597.38</ele>
        <time>2020-02-03T15:23:35Z</time>
      </trkpt>
      <trkpt lat="25.674688" lon="-100.343221">
        <ele>598.705</ele>
        <time>2020-02-03T15:23:36Z</time>
      </trkpt>
      <trkpt lat="25.674715" lon="-100.343235">
        <ele>590.202</ele>
        <time>2020-02-03T15:23:37Z</time>
      </trkpt>
      <trkpt lat="25.674742" lon="-100.343248">
        <ele>592.296</ele>
        <time>2020-02-03T15:23:38Z</time>
      </trkpt>
      <trkpt lat="25.674766" lon="-100.343263">
        <ele>595.78</ele>
        <time>2020-02-03T15:23:39Z</time>
      </trkpt>
      <trkpt lat="25.674791" lon="-100.343276">
        <ele>590.805</ele>
        <time>2020-02-03T15:23:40Z</time>
      </trkpt>
      <trkpt lat="25.674815" lon="-100.343288">
        <ele>594.573</ele>
        <time>2020-02-03T15:23:41Z</time>
      </trkpt>
      <trkpt lat="25.67484" lon="-100.343301">
        <ele>595.996</ele>
        <time>2020-02-03T15:23:42Z</time>
      </trkpt>
      <trkpt lat="25.674864" lon="-100.343317">
        <ele>595.794</ele>
        <time>2020-02-03T15:23:43Z</time>
      </trkpt>
      <trkpt lat="25.674913" lon="-100.343354">
        <ele>595.539</ele>
        <time>2020-02-03T15:23:45Z</time>
      </trkpt>
      <trkpt lat="25.674956" lon="-100.343393">
        <ele>595.173</ele>
        <time>2020-02-03T15:23:47Z</time>
      </trkpt>
      <trkpt lat="25.675033" lon="-100.343436">
        <ele>593.882</ele>
        <time>2020-02-03T15:23:50Z</time>
      </trkpt>
      <trkpt lat="25.675062" lon="-100.343453">
        <ele>593.75</ele>
        <time>2020-02-03T15:23:51Z</time>
      </trkpt>
      <trkpt lat="25.675106" lon="-100.343501">
        <ele>593.326</ele>
        <time>2020-02-03T15:23:53Z</time>
      </trkpt>
      <trkpt lat="25.675126" lon="-100.343526">
        <ele>592.316</ele>
        <time>2020-02-03T15:23:54Z</time>
      </trkpt>
      <trkpt lat="25.675173" lon="-100.343566">
        <ele>591.176</ele>
        <time>2020-02-03T15:23:56Z</time>
      </trkpt>
      <trkpt lat="25.675223" lon="-100.343606">
        <ele>590.179</ele>
        <time>2020-02-03T15:23:58Z</time>
      </trkpt>
      <trkpt lat="25.675271" lon="-100.343652">
        <ele>589.994</ele>
        <time>2020-02-03T15:24:00Z</time>
      </trkpt>
      <trkpt lat="25.675291" lon="-100.343675">
        <ele>589.879</ele>
        <time>2020-02-03T15:24:01Z</time>
      </trkpt>
      <trkpt lat="25.67534" lon="-100.343712">
        <ele>590.815</ele>
        <time>2020-02-03T15:24:03Z</time>
      </trkpt>
      <trkpt lat="25.675394" lon="-100.343745">
        <ele>590.782</ele>
        <time>2020-02-03T15:24:05Z</time>
      </trkpt>
      <trkpt lat="25.67544" lon="-100.343785">
        <ele>590.567</ele>
        <time>2020-02-03T15:24:07Z</time>
      </trkpt>
      <trkpt lat="25.67549" lon="-100.343815">
        <ele>590.437</ele>
        <time>2020-02-03T15:24:09Z</time>
      </trkpt>
      <trkpt lat="25.675513" lon="-100.343829">
        <ele>589.743</ele>
        <time>2020-02-03T15:24:10Z</time>
      </trkpt>
      <trkpt lat="25.675555" lon="-100.343869">
        <ele>590.02</ele>
        <time>2020-02-03T15:24:12Z</time>
      </trkpt>
      <trkpt lat="25.675578" lon="-100.343892">
        <ele>589.803</ele>
        <time>2020-02-03T15:24:13Z</time>
      </trkpt>
      <trkpt lat="25.675627" lon="-100.343928">
        <ele>590.016</ele>
        <time>2020-02-03T15:24:15Z</time>
      </trkpt>
      <trkpt lat="25.675653" lon="-100.343944">
        <ele>590.133</ele>
        <time>2020-02-03T15:24:16Z</time>
      </trkpt>
      <trkpt lat="25.67568" lon="-100.34396">
        <ele>589.172</ele>
        <time>2020-02-03T15:24:17Z</time>
      </trkpt>
      <trkpt lat="25.675705" lon="-100.343976">
        <ele>589.328</ele>
        <time>2020-02-03T15:24:18Z</time>
      </trkpt>
      <trkpt lat="25.675732" lon="-100.343992">
        <ele>587.594</ele>
        <time>2020-02-03T15:24:19Z</time>
      </trkpt>
      <trkpt lat="25.675758" lon="-100.344008">
        <ele>588.312</ele>
        <time>2020-02-03T15:24:20Z</time>
      </trkpt>
      <trkpt lat="25.675783" lon="-100.344024">
        <ele>588.34</ele>
        <time>2020-02-03T15:24:21Z</time>
      </trkpt>
      <trkpt lat="25.675835" lon="-100.344054">
        <ele>587.332</ele>
        <time>2020-02-03T15:24:23Z</time>
      </trkpt>
      <trkpt lat="25.675881" lon="-100.344092">
        <ele>587.002</ele>
        <time>2020-02-03T15:24:25Z</time>
      </trkpt>
      <trkpt lat="25.675922" lon="-100.344137">
        <ele>587.406</ele>
        <time>2020-02-03T15:24:27Z</time>
      </trkpt>
      <trkpt lat="25.675969" lon="-100.344172">
        <ele>586.563</ele>
        <time>2020-02-03T15:24:29Z</time>
      </trkpt>
      <trkpt lat="25.67602" lon="-100.344204">
        <ele>585.861</ele>
        <time>2020-02-03T15:24:31Z</time>
      </trkpt>
      <trkpt lat="25.676061" lon="-100.344243">
        <ele>584.533</ele>
        <time>2020-02-03T15:24:33Z</time>
      </trkpt>
      <trkpt lat="25.676098" lon="-100.344282">
        <ele>585.056</ele>
        <time>2020-02-03T15:24:35Z</time>
      </trkpt>
      <trkpt lat="25.676144" lon="-100.344305">
        <ele>584.641</ele>
        <time>2020-02-03T15:24:37Z</time>
      </trkpt>
      <trkpt lat="25.676196" lon="-100.344316">
        <ele>584.147</ele>
        <time>2020-02-03T15:24:39Z</time>
      </trkpt>
      <trkpt lat="25.676248" lon="-100.344313">
        <ele>585.341</ele>
        <time>2020-02-03T15:24:41Z</time>
      </trkpt>
      <trkpt lat="25.676305" lon="-100.344278">
        <ele>584.13</ele>
        <time>2020-02-03T15:24:43Z</time>
      </trkpt>
      <trkpt lat="25.676337" lon="-100.34421">
        <ele>583.203</ele>
        <time>2020-02-03T15:24:45Z</time>
      </trkpt>
      <trkpt lat="25.676323" lon="-100.344133">
        <ele>582.171</ele>
        <time>2020-02-03T15:24:47Z</time>
      </trkpt>
      <trkpt lat="25.676281" lon="-100.344071">
        <ele>581.772</ele>
        <time>2020-02-03T15:24:49Z</time>
      </trkpt>
      <trkpt lat="25.676261" lon="-100.344047">
        <ele>582.409</ele>
        <time>2020-02-03T15:24:50Z</time>
      </trkpt>
      <trkpt lat="25.676244" lon="-100.344024">
        <ele>581.692</ele>
        <time>2020-02-03T15:24:51Z</time>
      </trkpt>
      <trkpt lat="25.676205" lon="-100.343984">
        <ele>581.299</ele>
        <time>2020-02-03T15:24:53Z</time>
      </trkpt>
      <trkpt lat="25.676186" lon="-100.343964">
        <ele>581.004</ele>
        <time>2020-02-03T15:24:54Z</time>
      </trkpt>
      <trkpt lat="25.676146" lon="-100.343915">
        <ele>581.137</ele>
        <time>2020-02-03T15:24:56Z</time>
      </trkpt>
      <trkpt lat="25.676124" lon="-100.343891">
        <ele>581.452</ele>
        <time>2020-02-03T15:24:57Z</time>
      </trkpt>
      <trkpt lat="25.676101" lon="-100.343868">
        <ele>581.249</ele>
        <time>2020-02-03T15:24:58Z</time>
      </trkpt>
      <trkpt lat="25.676078" lon="-100.343846">
        <ele>580.939</ele>
        <time>2020-02-03T15:24:59Z</time>
      </trkpt>
      <trkpt lat="25.676036" lon="-100.343803">
        <ele>581.839</ele>
        <time>2020-02-03T15:25:01Z</time>
      </trkpt>
      <trkpt lat="25.676013" lon="-100.34378">
        <ele>581.641</ele>
        <time>2020-02-03T15:25:02Z</time>
      </trkpt>
      <trkpt lat="25.675991" lon="-100.343755">
        <ele>579.277</ele>
        <time>2020-02-03T15:25:03Z</time>
      </trkpt>
      <trkpt lat="25.675971" lon="-100.34373">
        <ele>578.794</ele>
        <time>2020-02-03T15:25:04Z</time>
      </trkpt>
      <trkpt lat="25.67594" lon="-100.343674">
        <ele>579.205</ele>
        <time>2020-02-03T15:25:06Z</time>
      </trkpt>
      <trkpt lat="25.675925" lon="-100.343647">
        <ele>578.764</ele>
        <time>2020-02-03T15:25:07Z</time>
      </trkpt>
      <trkpt lat="25.675888" lon="-100.343602">
        <ele>578.882</ele>
        <time>2020-02-03T15:25:09Z</time>
      </trkpt>
      <trkpt lat="25.675869" lon="-100.343581">
        <ele>577.676</ele>
        <time>2020-02-03T15:25:10Z</time>
      </trkpt>
      <trkpt lat="25.67585" lon="-100.343559">
        <ele>577.668</ele>
        <time>2020-02-03T15:25:11Z</time>
      </trkpt>
      <trkpt lat="25.675832" lon="-100.343535">
        <ele>578.873</ele>
        <time>2020-02-03T15:25:12Z</time>
      </trkpt>
      <trkpt lat="25.675813" lon="-100.343511">
        <ele>579.813</ele>
        <time>2020-02-03T15:25:13Z</time>
      </trkpt>
      <trkpt lat="25.675775" lon="-100.343462">
        <ele>576.982</ele>
        <time>2020-02-03T15:25:15Z</time>
      </trkpt>
      <trkpt lat="25.675756" lon="-100.343437">
        <ele>578.082</ele>
        <time>2020-02-03T15:25:16Z</time>
      </trkpt>
      <trkpt lat="25.675739" lon="-100.343413">
        <ele>578.515</ele>
        <time>2020-02-03T15:25:17Z</time>
      </trkpt>
      <trkpt lat="25.675721" lon="-100.343392">
        <ele>578.377</ele>
        <time>2020-02-03T15:25:18Z</time>
      </trkpt>
      <trkpt lat="25.675703" lon="-100.343371">
        <ele>578.38</ele>
        <time>2020-02-03T15:25:19Z</time>
      </trkpt>
      <trkpt lat="25.675686" lon="-100.34335">
        <ele>578.626</ele>
        <time>2020-02-03T15:25:20Z</time>
      </trkpt>
      <trkpt lat="25.675669" lon="-100.34333">
        <ele>578.338</ele>
        <time>2020-02-03T15:25:21Z</time>
      </trkpt>
      <trkpt lat="25.67565" lon="-100.343309">
        <ele>578.0</ele>
        <time>2020-02-03T15:25:22Z</time>
      </trkpt>
      <trkpt lat="25.675632" lon="-100.343286">
        <ele>577.024</ele>
        <time>2020-02-03T15:25:23Z</time>
      </trkpt>
      <trkpt lat="25.675613" lon="-100.343263">
        <ele>576.658</ele>
        <time>2020-02-03T15:25:24Z</time>
      </trkpt>
      <trkpt lat="25.675593" lon="-100.343243">
        <ele>575.297</ele>
        <time>2020-02-03T15:25:25Z</time>
      </trkpt>
      <trkpt lat="25.675574" lon="-100.343224">
        <ele>575.725</ele>
        <time>2020-02-03T15:25:26Z</time>
      </trkpt>
      <trkpt lat="25.675556" lon="-100.343202">
        <ele>576.931</ele>
        <time>2020-02-03T15:25:27Z</time>
      </trkpt>
      <trkpt lat="25.675538" lon="-100.343181">
        <ele>576.537</ele>
        <time>2020-02-03T15:25:28Z</time>
      </trkpt>
      <trkpt lat="25.675504" lon="-100.34313">
        <ele>577.934</ele>
        <time>2020-02-03T15:25:30Z</time>
      </trkpt>
      <trkpt lat="25.675467" lon="-100.343084">
        <ele>578.027</ele>
        <time>2020-02-03T15:25:32Z</time>
      </trkpt>
      <trkpt lat="25.675448" lon="-100.34306">
        <ele>576.701</ele>
        <time>2020-02-03T15:25:33Z</time>
      </trkpt>
      <trkpt lat="25.675431" lon="-100.343035">
        <ele>576.318</ele>
        <time>2020-02-03T15:25:34Z</time>
      </trkpt>
      <trkpt lat="25.675415" lon="-100.343012">
        <ele>575.383</ele>
        <time>2020-02-03T15:25:35Z</time>
      </trkpt>
      <trkpt lat="25.675378" lon="-100.342977">
        <ele>575.859</ele>
        <time>2020-02-03T15:25:37Z</time>
      </trkpt>
      <trkpt lat="25.675358" lon="-100.342957">
        <ele>574.153</ele>
        <time>2020-02-03T15:25:38Z</time>
      </trkpt>
      <trkpt lat="25.675308" lon="-100.342885">
        <ele>571.706</ele>
        <time>2020-02-03T15:25:41Z</time>
      </trkpt>
      <trkpt lat="25.675276" lon="-100.342831">
        <ele>571.764</ele>
        <time>2020-02-03T15:25:43Z</time>
      </trkpt>
      <trkpt lat="25.675261" lon="-100.342805">
        <ele>571.008</ele>
        <time>2020-02-03T15:25:44Z</time>
      </trkpt>
      <trkpt lat="25.675245" lon="-100.342777">
        <ele>568.793</ele>
        <time>2020-02-03T15:25:45Z</time>
      </trkpt>
      <trkpt lat="25.675191" lon="-100.342704">
        <ele>567.54</ele>
        <time>2020-02-03T15:25:48Z</time>
      </trkpt>
      <trkpt lat="25.675148" lon="-100.342667">
        <ele>568.326</ele>
        <time>2020-02-03T15:25:50Z</time>
      </trkpt>
      <trkpt lat="25.675127" lon="-100.342651">
        <ele>568.683</ele>
        <time>2020-02-03T15:25:51Z</time>
      </trkpt>
      <trkpt lat="25.675107" lon="-100.342635">
        <ele>569.203</ele>
        <time>2020-02-03T15:25:52Z</time>
      </trkpt>
      <trkpt lat="25.675071" lon="-100.342596">
        <ele>569.326</ele>
        <time>2020-02-03T15:25:54Z</time>
      </trkpt>
      <trkpt lat="25.675038" lon="-100.342556">
        <ele>569.792</ele>
        <time>2020-02-03T15:25:56Z</time>
      </trkpt>
      <trkpt lat="25.675023" lon="-100.342534">
        <ele>569.648</ele>
        <time>2020-02-03T15:25:57Z</time>
      </trkpt>
      <trkpt lat="25.675007" lon="-100.342514">
        <ele>568.441</ele>
        <time>2020-02-03T15:25:58Z</time>
      </trkpt>
      <trkpt lat="25.674954" lon="-100.342468">
        <ele>568.521</ele>
        <time>2020-02-03T15:26:01Z</time>
      </trkpt>
      <trkpt lat="25.674919" lon="-100.342433">
        <ele>568.216</ele>
        <time>2020-02-03T15:26:03Z</time>
      </trkpt>
      <trkpt lat="25.674878" lon="-100.342348">
        <ele>568.402</ele>
        <time>2020-02-03T15:26:06Z</time>
      </trkpt>
      <trkpt lat="25.674864" lon="-100.342319">
        <ele>567.255</ele>
        <time>2020-02-03T15:26:07Z</time>
      </trkpt>
      <trkpt lat="25.674848" lon="-100.342291">
        <ele>567.337</ele>
        <time>2020-02-03T15:26:08Z</time>
      </trkpt>
      <trkpt lat="25.67483" lon="-100.342264">
        <ele>567.64</ele>
        <time>2020-02-03T15:26:09Z</time>
      </trkpt>
      <trkpt lat="25.674788" lon="-100.342224">
        <ele>566.128</ele>
        <time>2020-02-03T15:26:11Z</time>
      </trkpt>
      <trkpt lat="25.674768" lon="-100.342203">
        <ele>566.423</ele>
        <time>2020-02-03T15:26:12Z</time>
      </trkpt>
      <trkpt lat="25.674735" lon="-100.342161">
        <ele>565.09</ele>
        <time>2020-02-03T15:26:14Z</time>
      </trkpt>
      <trkpt lat="25.674721" lon="-100.34214">
        <ele>565.473</ele>
        <time>2020-02-03T15:26:15Z</time>
      </trkpt>
      <trkpt lat="25.674707" lon="-100.342117">
        <ele>563.735</ele>
        <time>2020-02-03T15:26:16Z</time>
      </trkpt>
      <trkpt lat="25.674693" lon="-100.342093">
        <ele>563.511</ele>
        <time>2020-02-03T15:26:17Z</time>
      </trkpt>
      <trkpt lat="25.674678" lon="-100.34207">
        <ele>563.12</ele>
        <time>2020-02-03T15:26:18Z</time>
      </trkpt>
      <trkpt lat="25.674663" lon="-100.342046">
        <ele>562.12</ele>
        <time>2020-02-03T15:26:19Z</time>
      </trkpt>
      <trkpt lat="25.674649" lon="-100.34202">
        <ele>562.242</ele>
        <time>2020-02-03T15:26:20Z</time>
      </trkpt>
      <trkpt lat="25.674635" lon="-100.341994">
        <ele>562.844</ele>
        <time>2020-02-03T15:26:21Z</time>
      </trkpt>
      <trkpt lat="25.674603" lon="-100.341948">
        <ele>563.158</ele>
        <time>2020-02-03T15:26:23Z</time>
      </trkpt>
      <trkpt lat="25.674574" lon="-100.341896">
        <ele>563.629</ele>
        <time>2020-02-03T15:26:25Z</time>
      </trkpt>
      <trkpt lat="25.67456" lon="-100.34187">
        <ele>564.528</ele>
        <time>2020-02-03T15:26:26Z</time>
      </trkpt>
      <trkpt lat="25.674518" lon="-100.341796">
        <ele>564.672</ele>
        <time>2020-02-03T15:26:29Z</time>
      </trkpt>
      <trkpt lat="25.674505" lon="-100.341769">
        <ele>564.367</ele>
        <time>2020-02-03T15:26:30Z</time>
      </trkpt>
      <trkpt lat="25.674485" lon="-100.341709">
        <ele>565.807</ele>
        <time>2020-02-03T15:26:32Z</time>
      </trkpt>
      <trkpt lat="25.674461" lon="-100.341659">
        <ele>565.061</ele>
        <time>2020-02-03T15:26:34Z</time>
      </trkpt>
      <trkpt lat="25.67445" lon="-100.341636">
        <ele>565.234</ele>
        <time>2020-02-03T15:26:35Z</time>
      </trkpt>
      <trkpt lat="25.674438" lon="-100.341612">
        <ele>564.653</ele>
        <time>2020-02-03T15:26:36Z</time>
      </trkpt>
      <trkpt lat="25.674425" lon="-100.341555">
        <ele>564.726</ele>
        <time>2020-02-03T15:26:38Z</time>
      </trkpt>
      <trkpt lat="25.674419" lon="-100.341496">
        <ele>563.263</ele>
        <time>2020-02-03T15:26:40Z</time>
      </trkpt>
      <trkpt lat="25.674417" lon="-100.341464">
        <ele>563.161</ele>
        <time>2020-02-03T15:26:41Z</time>
      </trkpt>
      <trkpt lat="25.674414" lon="-100.341432">
        <ele>563.094</ele>
        <time>2020-02-03T15:26:42Z</time>
      </trkpt>
      <trkpt lat="25.67441" lon="-100.341402">
        <ele>562.244</ele>
        <time>2020-02-03T15:26:43Z</time>
      </trkpt>
      <trkpt lat="25.674385" lon="-100.341349">
        <ele>561.94</ele>
        <time>2020-02-03T15:26:45Z</time>
      </trkpt>
      <trkpt lat="25.674346" lon="-100.341311">
        <ele>562.245</ele>
        <time>2020-02-03T15:26:47Z</time>
      </trkpt>
      <trkpt lat="25.674326" lon="-100.34129">
        <ele>562.413</ele>
        <time>2020-02-03T15:26:48Z</time>
      </trkpt>
      <trkpt lat="25.674308" lon="-100.341271">
        <ele>562.069</ele>
        <time>2020-02-03T15:26:49Z</time>
      </trkpt>
      <trkpt lat="25.674273" lon="-100.341226">
        <ele>562.344</ele>
        <time>2020-02-03T15:26:51Z</time>
      </trkpt>
      <trkpt lat="25.674257" lon="-100.341203">
        <ele>563.567</ele>
        <time>2020-02-03T15:26:52Z</time>
      </trkpt>
      <trkpt lat="25.674242" lon="-100.341181">
        <ele>563.604</ele>
        <time>2020-02-03T15:26:53Z</time>
      </trkpt>
      <trkpt lat="25.674226" lon="-100.341157">
        <ele>563.197</ele>
        <time>2020-02-03T15:26:54Z</time>
      </trkpt>
      <trkpt lat="25.674212" lon="-100.341132">
        <ele>563.21</ele>
        <time>2020-02-03T15:26:55Z</time>
      </trkpt>
      <trkpt lat="25.674191" lon="-100.341078">
        <ele>562.752</ele>
        <time>2020-02-03T15:26:57Z</time>
      </trkpt>
      <trkpt lat="25.674182" lon="-100.341051">
        <ele>561.879</ele>
        <time>2020-02-03T15:26:58Z</time>
      </trkpt>
      <trkpt lat="25.674174" lon="-100.341022">
        <ele>560.542</ele>
        <time>2020-02-03T15:26:59Z</time>
      </trkpt>
      <trkpt lat="25.674167" lon="-100.340994">
        <ele>561.801</ele>
        <time>2020-02-03T15:27:00Z</time>
      </trkpt>
      <trkpt lat="25.674162" lon="-100.340967">
        <ele>561.076</ele>
        <time>2020-02-03T15:27:01Z</time>
      </trkpt>
      <trkpt lat="25.674157" lon="-100.340939">
        <ele>561.375</ele>
        <time>2020-02-03T15:27:02Z</time>
      </trkpt>
      <trkpt lat="25.674153" lon="-100.34091">
        <ele>561.379</ele>
        <time>2020-02-03T15:27:03Z</time>
      </trkpt>
      <trkpt lat="25.67415" lon="-100.340881">
        <ele>560.989</ele>
        <time>2020-02-03T15:27:04Z</time>
      </trkpt>
      <trkpt lat="25.674148" lon="-100.340851">
        <ele>559.628</ele>
        <time>2020-02-03T15:27:05Z</time>
      </trkpt>
      <trkpt lat="25.674148" lon="-100.340789">
        <ele>557.728</ele>
        <time>2020-02-03T15:27:07Z</time>
      </trkpt>
      <trkpt lat="25.674152" lon="-100.34073">
        <ele>557.461</ele>
        <time>2020-02-03T15:27:09Z</time>
      </trkpt>
      <trkpt lat="25.674145" lon="-100.340669">
        <ele>558.289</ele>
        <time>2020-02-03T15:27:11Z</time>
      </trkpt>
      <trkpt lat="25.67413" lon="-100.340614">
        <ele>557.328</ele>
        <time>2020-02-03T15:27:13Z</time>
      </trkpt>
      <trkpt lat="25.674124" lon="-100.34055">
        <ele>556.867</ele>
        <time>2020-02-03T15:27:15Z</time>
      </trkpt>
      <trkpt lat="25.674123" lon="-100.34052">
        <ele>556.464</ele>
        <time>2020-02-03T15:27:16Z</time>
      </trkpt>
      <trkpt lat="25.674122" lon="-100.340487">
        <ele>556.434</ele>
        <time>2020-02-03T15:27:17Z</time>
      </trkpt>
      <trkpt lat="25.674121" lon="-100.340455">
        <ele>556.136</ele>
        <time>2020-02-03T15:27:18Z</time>
      </trkpt>
      <trkpt lat="25.674119" lon="-100.34042">
        <ele>555.868</ele>
        <time>2020-02-03T15:27:19Z</time>
      </trkpt>
      <trkpt lat="25.674116" lon="-100.340385">
        <ele>554.951</ele>
        <time>2020-02-03T15:27:20Z</time>
      </trkpt>
      <trkpt lat="25.674112" lon="-100.340353">
        <ele>555.224</ele>
        <time>2020-02-03T15:27:21Z</time>
      </trkpt>
      <trkpt lat="25.674101" lon="-100.340294">
        <ele>554.674</ele>
        <time>2020-02-03T15:27:23Z</time>
      </trkpt>
      <trkpt lat="25.674093" lon="-100.340266">
        <ele>554.145</ele>
        <time>2020-02-03T15:27:24Z</time>
      </trkpt>
      <trkpt lat="25.674086" lon="-100.340239">
        <ele>554.63</ele>
        <time>2020-02-03T15:27:25Z</time>
      </trkpt>
      <trkpt lat="25.67408" lon="-100.340212">
        <ele>554.726</ele>
        <time>2020-02-03T15:27:26Z</time>
      </trkpt>
      <trkpt lat="25.674076" lon="-100.340184">
        <ele>555.15</ele>
        <time>2020-02-03T15:27:27Z</time>
      </trkpt>
      <trkpt lat="25.674074" lon="-100.340158">
        <ele>556.13</ele>
        <time>2020-02-03T15:27:28Z</time>
      </trkpt>
      <trkpt lat="25.674074" lon="-100.34013">
        <ele>556.042</ele>
        <time>2020-02-03T15:27:29Z</time>
      </trkpt>
      <trkpt lat="25.674076" lon="-100.340076">
        <ele>555.775</ele>
        <time>2020-02-03T15:27:31Z</time>
      </trkpt>
      <trkpt lat="25.674075" lon="-100.340048">
        <ele>555.668</ele>
        <time>2020-02-03T15:27:32Z</time>
      </trkpt>
      <trkpt lat="25.674067" lon="-100.339993">
        <ele>555.159</ele>
        <time>2020-02-03T15:27:34Z</time>
      </trkpt>
      <trkpt lat="25.674064" lon="-100.339937">
        <ele>552.812</ele>
        <time>2020-02-03T15:27:36Z</time>
      </trkpt>
      <trkpt lat="25.674064" lon="-100.339907">
        <ele>552.445</ele>
        <time>2020-02-03T15:27:37Z</time>
      </trkpt>
      <trkpt lat="25.674064" lon="-100.339878">
        <ele>552.195</ele>
        <time>2020-02-03T15:27:38Z</time>
      </trkpt>
      <trkpt lat="25.674065" lon="-100.339849">
        <ele>552.073</ele>
        <time>2020-02-03T15:27:39Z</time>
      </trkpt>
      <trkpt lat="25.674051" lon="-100.339765">
        <ele>552.362</ele>
        <time>2020-02-03T15:27:42Z</time>
      </trkpt>
      <trkpt lat="25.674045" lon="-100.339736">
        <ele>552.574</ele>
        <time>2020-02-03T15:27:43Z</time>
      </trkpt>
      <trkpt lat="25.67404" lon="-100.339705">
        <ele>553.08</ele>
        <time>2020-02-03T15:27:44Z</time>
      </trkpt>
      <trkpt lat="25.674035" lon="-100.339674">
        <ele>553.507</ele>
        <time>2020-02-03T15:27:45Z</time>
      </trkpt>
      <trkpt lat="25.67403" lon="-100.339642">
        <ele>552.393</ele>
        <time>2020-02-03T15:27:46Z</time>
      </trkpt>
      <trkpt lat="25.674027" lon="-100.33961">
        <ele>552.013</ele>
        <time>2020-02-03T15:27:47Z</time>
      </trkpt>
      <trkpt lat="25.674025" lon="-100.339579">
        <ele>552.682</ele>
        <time>2020-02-03T15:27:48Z</time>
      </trkpt>
      <trkpt lat="25.674023" lon="-100.339549">
        <ele>552.228</ele>
        <time>2020-02-03T15:27:49Z</time>
      </trkpt>
      <trkpt lat="25.674022" lon="-100.339519">
        <ele>552.269</ele>
        <time>2020-02-03T15:27:50Z</time>
      </trkpt>
      <trkpt lat="25.674019" lon="-100.33949">
        <ele>552.014</ele>
        <time>2020-02-03T15:27:51Z</time>
      </trkpt>
      <trkpt lat="25.674017" lon="-100.33946">
        <ele>552.399</ele>
        <time>2020-02-03T15:27:52Z</time>
      </trkpt>
      <trkpt lat="25.674014" lon="-100.339429">
        <ele>551.958</ele>
        <time>2020-02-03T15:27:53Z</time>
      </trkpt>
      <trkpt lat="25.674005" lon="-100.339369">
        <ele>551.387</ele>
        <time>2020-02-03T15:27:55Z</time>
      </trkpt>
      <trkpt lat="25.673979" lon="-100.339274">
        <ele>549.678</ele>
        <time>2020-02-03T15:27:58Z</time>
      </trkpt>
      <trkpt lat="25.673969" lon="-100.339242">
        <ele>551.002</ele>
        <time>2020-02-03T15:27:59Z</time>
      </trkpt>
      <trkpt lat="25.673945" lon="-100.339189">
        <ele>551.371</ele>
        <time>2020-02-03T15:28:01Z</time>
      </trkpt>
      <trkpt lat="25.673934" lon="-100.339163">
        <ele>551.555</ele>
        <time>2020-02-03T15:28:02Z</time>
      </trkpt>
      <trkpt lat="25.673925" lon="-100.339136">
        <ele>551.763</ele>
        <time>2020-02-03T15:28:03Z</time>
      </trkpt>
      <trkpt lat="25.673916" lon="-100.339109">
        <ele>552.031</ele>
        <time>2020-02-03T15:28:04Z</time>
      </trkpt>
      <trkpt lat="25.673907" lon="-100.339081">
        <ele>551.127</ele>
        <time>2020-02-03T15:28:05Z</time>
      </trkpt>
      <trkpt lat="25.673899" lon="-100.339052">
        <ele>549.291</ele>
        <time>2020-02-03T15:28:06Z</time>
      </trkpt>
      <trkpt lat="25.673892" lon="-100.339022">
        <ele>548.569</ele>
        <time>2020-02-03T15:28:07Z</time>
      </trkpt>
      <trkpt lat="25.673885" lon="-100.338992">
        <ele>548.523</ele>
        <time>2020-02-03T15:28:08Z</time>
      </trkpt>
      <trkpt lat="25.673878" lon="-100.338962">
        <ele>548.295</ele>
        <time>2020-02-03T15:28:09Z</time>
      </trkpt>
      <trkpt lat="25.673872" lon="-100.33893">
        <ele>549.506</ele>
        <time>2020-02-03T15:28:10Z</time>
      </trkpt>
      <trkpt lat="25.673869" lon="-100.338873">
        <ele>548.818</ele>
        <time>2020-02-03T15:28:12Z</time>
      </trkpt>
      <trkpt lat="25.673865" lon="-100.338847">
        <ele>548.882</ele>
        <time>2020-02-03T15:28:13Z</time>
      </trkpt>
      <trkpt lat="25.673841" lon="-100.338791">
        <ele>548.833</ele>
        <time>2020-02-03T15:28:15Z</time>
      </trkpt>
      <trkpt lat="25.673817" lon="-100.338741">
        <ele>548.041</ele>
        <time>2020-02-03T15:28:17Z</time>
      </trkpt>
      <trkpt lat="25.67381" lon="-100.33869">
        <ele>547.799</ele>
        <time>2020-02-03T15:28:19Z</time>
      </trkpt>
      <trkpt lat="25.673807" lon="-100.338662">
        <ele>548.499</ele>
        <time>2020-02-03T15:28:20Z</time>
      </trkpt>
      <trkpt lat="25.673805" lon="-100.338634">
        <ele>548.899</ele>
        <time>2020-02-03T15:28:21Z</time>
      </trkpt>
      <trkpt lat="25.673802" lon="-100.338603">
        <ele>547.979</ele>
        <time>2020-02-03T15:28:22Z</time>
      </trkpt>
      <trkpt lat="25.673802" lon="-100.338569">
        <ele>547.004</ele>
        <time>2020-02-03T15:28:23Z</time>
      </trkpt>
      <trkpt lat="25.673801" lon="-100.338537">
        <ele>547.691</ele>
        <time>2020-02-03T15:28:24Z</time>
      </trkpt>
      <trkpt lat="25.673801" lon="-100.338508">
        <ele>547.58</ele>
        <time>2020-02-03T15:28:25Z</time>
      </trkpt>
      <trkpt lat="25.673799" lon="-100.338478">
        <ele>546.987</ele>
        <time>2020-02-03T15:28:26Z</time>
      </trkpt>
      <trkpt lat="25.673796" lon="-100.338448">
        <ele>546.161</ele>
        <time>2020-02-03T15:28:27Z</time>
      </trkpt>
      <trkpt lat="25.673782" lon="-100.33839">
        <ele>546.362</ele>
        <time>2020-02-03T15:28:29Z</time>
      </trkpt>
      <trkpt lat="25.673774" lon="-100.338363">
        <ele>546.162</ele>
        <time>2020-02-03T15:28:30Z</time>
      </trkpt>
      <trkpt lat="25.673767" lon="-100.338335">
        <ele>546.038</ele>
        <time>2020-02-03T15:28:31Z</time>
      </trkpt>
      <trkpt lat="25.673759" lon="-100.338306">
        <ele>545.928</ele>
        <time>2020-02-03T15:28:32Z</time>
      </trkpt>
      <trkpt lat="25.67375" lon="-100.338276">
        <ele>545.816</ele>
        <time>2020-02-03T15:28:33Z</time>
      </trkpt>
      <trkpt lat="25.673743" lon="-100.338242">
        <ele>546.882</ele>
        <time>2020-02-03T15:28:34Z</time>
      </trkpt>
      <trkpt lat="25.673736" lon="-100.338207">
        <ele>546.935</ele>
        <time>2020-02-03T15:28:35Z</time>
      </trkpt>
      <trkpt lat="25.67373" lon="-100.338173">
        <ele>545.905</ele>
        <time>2020-02-03T15:28:36Z</time>
      </trkpt>
      <trkpt lat="25.673725" lon="-100.33814">
        <ele>545.965</ele>
        <time>2020-02-03T15:28:37Z</time>
      </trkpt>
      <trkpt lat="25.673718" lon="-100.338108">
        <ele>546.221</ele>
        <time>2020-02-03T15:28:38Z</time>
      </trkpt>
      <trkpt lat="25.673712" lon="-100.338077">
        <ele>544.085</ele>
        <time>2020-02-03T15:28:39Z</time>
      </trkpt>
      <trkpt lat="25.673705" lon="-100.338047">
        <ele>543.934</ele>
        <time>2020-02-03T15:28:40Z</time>
      </trkpt>
      <trkpt lat="25.673697" lon="-100.338017">
        <ele>544.264</ele>
        <time>2020-02-03T15:28:41Z</time>
      </trkpt>
      <trkpt lat="25.673691" lon="-100.337986">
        <ele>543.462</ele>
        <time>2020-02-03T15:28:42Z</time>
      </trkpt>
      <trkpt lat="25.673682" lon="-100.337893">
        <ele>543.629</ele>
        <time>2020-02-03T15:28:45Z</time>
      </trkpt>
      <trkpt lat="25.67368" lon="-100.337864">
        <ele>543.407</ele>
        <time>2020-02-03T15:28:46Z</time>
      </trkpt>
      <trkpt lat="25.673678" lon="-100.337833">
        <ele>543.461</ele>
        <time>2020-02-03T15:28:47Z</time>
      </trkpt>
      <trkpt lat="25.673677" lon="-100.337801">
        <ele>544.074</ele>
        <time>2020-02-03T15:28:48Z</time>
      </trkpt>
      <trkpt lat="25.673677" lon="-100.337766">
        <ele>544.317</ele>
        <time>2020-02-03T15:28:49Z</time>
      </trkpt>
      <trkpt lat="25.673678" lon="-100.337676">
        <ele>544.448</ele>
        <time>2020-02-03T15:28:52Z</time>
      </trkpt>
      <trkpt lat="25.673661" lon="-100.337596">
        <ele>544.563</ele>
        <time>2020-02-03T15:28:55Z</time>
      </trkpt>
      <trkpt lat="25.673653" lon="-100.337568">
        <ele>544.227</ele>
        <time>2020-02-03T15:28:56Z</time>
      </trkpt>
      <trkpt lat="25.673646" lon="-100.33754">
        <ele>543.879</ele>
        <time>2020-02-03T15:28:57Z</time>
      </trkpt>
      <trkpt lat="25.67364" lon="-100.337512">
        <ele>543.443</ele>
        <time>2020-02-03T15:28:58Z</time>
      </trkpt>
      <trkpt lat="25.673634" lon="-100.337484">
        <ele>543.897</ele>
        <time>2020-02-03T15:28:59Z</time>
      </trkpt>
      <trkpt lat="25.673629" lon="-100.337456">
        <ele>543.259</ele>
        <time>2020-02-03T15:29:00Z</time>
      </trkpt>
      <trkpt lat="25.673625" lon="-100.337427">
        <ele>543.022</ele>
        <time>2020-02-03T15:29:01Z</time>
      </trkpt>
      <trkpt lat="25.673623" lon="-100.337397">
        <ele>543.73</ele>
        <time>2020-02-03T15:29:02Z</time>
      </trkpt>
      <trkpt lat="25.67362" lon="-100.337369">
        <ele>542.357</ele>
        <time>2020-02-03T15:29:03Z</time>
      </trkpt>
      <trkpt lat="25.673614" lon="-100.337341">
        <ele>543.719</ele>
        <time>2020-02-03T15:29:04Z</time>
      </trkpt>
      <trkpt lat="25.673608" lon="-100.337316">
        <ele>543.495</ele>
        <time>2020-02-03T15:29:05Z</time>
      </trkpt>
      <trkpt lat="25.673601" lon="-100.33729">
        <ele>543.312</ele>
        <time>2020-02-03T15:29:06Z</time>
      </trkpt>
      <trkpt lat="25.673594" lon="-100.337262">
        <ele>543.383</ele>
        <time>2020-02-03T15:29:07Z</time>
      </trkpt>
      <trkpt lat="25.673584" lon="-100.337206">
        <ele>543.581</ele>
        <time>2020-02-03T15:29:09Z</time>
      </trkpt>
      <trkpt lat="25.67358" lon="-100.337176">
        <ele>543.407</ele>
        <time>2020-02-03T15:29:10Z</time>
      </trkpt>
      <trkpt lat="25.673578" lon="-100.337145">
        <ele>545.084</ele>
        <time>2020-02-03T15:29:11Z</time>
      </trkpt>
      <trkpt lat="25.673576" lon="-100.337114">
        <ele>545.055</ele>
        <time>2020-02-03T15:29:12Z</time>
      </trkpt>
      <trkpt lat="25.673573" lon="-100.337087">
        <ele>543.898</ele>
        <time>2020-02-03T15:29:13Z</time>
      </trkpt>
      <trkpt lat="25.673569" lon="-100.33703">
        <ele>543.126</ele>
        <time>2020-02-03T15:29:15Z</time>
      </trkpt>
      <trkpt lat="25.673568" lon="-100.336999">
        <ele>542.176</ele>
        <time>2020-02-03T15:29:16Z</time>
      </trkpt>
      <trkpt lat="25.673565" lon="-100.336968">
        <ele>542.275</ele>
        <time>2020-02-03T15:29:17Z</time>
      </trkpt>
      <trkpt lat="25.673551" lon="-100.336903">
        <ele>541.483</ele>
        <time>2020-02-03T15:29:19Z</time>
      </trkpt>
      <trkpt lat="25.673542" lon="-100.336872">
        <ele>541.984</ele>
        <time>2020-02-03T15:29:20Z</time>
      </trkpt>
      <trkpt lat="25.673534" lon="-100.336842">
        <ele>542.044</ele>
        <time>2020-02-03T15:29:21Z</time>
      </trkpt>
      <trkpt lat="25.673526" lon="-100.33681">
        <ele>541.29</ele>
        <time>2020-02-03T15:29:22Z</time>
      </trkpt>
      <trkpt lat="25.673517" lon="-100.336779">
        <ele>538.486</ele>
        <time>2020-02-03T15:29:23Z</time>
      </trkpt>
      <trkpt lat="25.673506" lon="-100.336747">
        <ele>539.622</ele>
        <time>2020-02-03T15:29:24Z</time>
      </trkpt>
      <trkpt lat="25.673499" lon="-100.336718">
        <ele>539.291</ele>
        <time>2020-02-03T15:29:25Z</time>
      </trkpt>
      <trkpt lat="25.67349" lon="-100.336692">
        <ele>538.918</ele>
        <time>2020-02-03T15:29:26Z</time>
      </trkpt>
      <trkpt lat="25.673484" lon="-100.336667">
        <ele>538.348</ele>
        <time>2020-02-03T15:29:27Z</time>
      </trkpt>
      <trkpt lat="25.673476" lon="-100.336642">
        <ele>538.171</ele>
        <time>2020-02-03T15:29:28Z</time>
      </trkpt>
      <trkpt lat="25.673461" lon="-100.336597">
        <ele>537.858</ele>
        <time>2020-02-03T15:29:30Z</time>
      </trkpt>
      <trkpt lat="25.673452" lon="-100.336522">
        <ele>537.349</ele>
        <time>2020-02-03T15:29:33Z</time>
      </trkpt>
      <trkpt lat="25.673447" lon="-100.336494">
        <ele>537.706</ele>
        <time>2020-02-03T15:29:34Z</time>
      </trkpt>
      <trkpt lat="25.673421" lon="-100.336439">
        <ele>538.208</ele>
        <time>2020-02-03T15:29:37Z</time>
      </trkpt>
      <trkpt lat="25.673401" lon="-100.336358">
        <ele>539.317</ele>
        <time>2020-02-03T15:29:40Z</time>
      </trkpt>
      <trkpt lat="25.673396" lon="-100.336329">
        <ele>539.086</ele>
        <time>2020-02-03T15:29:41Z</time>
      </trkpt>
      <trkpt lat="25.673388" lon="-100.336271">
        <ele>541.306</ele>
        <time>2020-02-03T15:29:43Z</time>
      </trkpt>
      <trkpt lat="25.673382" lon="-100.336242">
        <ele>540.833</ele>
        <time>2020-02-03T15:29:44Z</time>
      </trkpt>
      <trkpt lat="25.673374" lon="-100.336211">
        <ele>538.812</ele>
        <time>2020-02-03T15:29:45Z</time>
      </trkpt>
      <trkpt lat="25.673358" lon="-100.336153">
        <ele>538.778</ele>
        <time>2020-02-03T15:29:47Z</time>
      </trkpt>
      <trkpt lat="25.673351" lon="-100.336122">
        <ele>538.531</ele>
        <time>2020-02-03T15:29:48Z</time>
      </trkpt>
      <trkpt lat="25.673347" lon="-100.336027">
        <ele>538.937</ele>
        <time>2020-02-03T15:29:51Z</time>
      </trkpt>
      <trkpt lat="25.673349" lon="-100.335962">
        <ele>538.721</ele>
        <time>2020-02-03T15:29:53Z</time>
      </trkpt>
      <trkpt lat="25.673333" lon="-100.335904">
        <ele>538.191</ele>
        <time>2020-02-03T15:29:55Z</time>
      </trkpt>
      <trkpt lat="25.673324" lon="-100.335873">
        <ele>537.984</ele>
        <time>2020-02-03T15:29:56Z</time>
      </trkpt>
      <trkpt lat="25.673307" lon="-100.33578">
        <ele>537.768</ele>
        <time>2020-02-03T15:29:59Z</time>
      </trkpt>
      <trkpt lat="25.673301" lon="-100.335747">
        <ele>537.861</ele>
        <time>2020-02-03T15:30:00Z</time>
      </trkpt>
      <trkpt lat="25.673293" lon="-100.335685">
        <ele>538.246</ele>
        <time>2020-02-03T15:30:02Z</time>
      </trkpt>
      <trkpt lat="25.673289" lon="-100.335656">
        <ele>535.347</ele>
        <time>2020-02-03T15:30:03Z</time>
      </trkpt>
      <trkpt lat="25.673285" lon="-100.335627">
        <ele>535.006</ele>
        <time>2020-02-03T15:30:04Z</time>
      </trkpt>
      <trkpt lat="25.673285" lon="-100.335569">
        <ele>534.606</ele>
        <time>2020-02-03T15:30:06Z</time>
      </trkpt>
      <trkpt lat="25.673286" lon="-100.335539">
        <ele>534.503</ele>
        <time>2020-02-03T15:30:07Z</time>
      </trkpt>
      <trkpt lat="25.673286" lon="-100.335508">
        <ele>534.361</ele>
        <time>2020-02-03T15:30:08Z</time>
      </trkpt>
      <trkpt lat="25.673275" lon="-100.335445">
        <ele>534.014</ele>
        <time>2020-02-03T15:30:10Z</time>
      </trkpt>
      <trkpt lat="25.673269" lon="-100.335413">
        <ele>533.462</ele>
        <time>2020-02-03T15:30:11Z</time>
      </trkpt>
      <trkpt lat="25.673263" lon="-100.335381">
        <ele>533.421</ele>
        <time>2020-02-03T15:30:12Z</time>
      </trkpt>
      <trkpt lat="25.673256" lon="-100.335349">
        <ele>533.176</ele>
        <time>2020-02-03T15:30:13Z</time>
      </trkpt>
      <trkpt lat="25.673248" lon="-100.335323">
        <ele>533.037</ele>
        <time>2020-02-03T15:30:14Z</time>
      </trkpt>
      <trkpt lat="25.67324" lon="-100.335295">
        <ele>534.139</ele>
        <time>2020-02-03T15:30:15Z</time>
      </trkpt>
      <trkpt lat="25.673233" lon="-100.335267">
        <ele>533.734</ele>
        <time>2020-02-03T15:30:16Z</time>
      </trkpt>
      <trkpt lat="25.673226" lon="-100.335238">
        <ele>533.592</ele>
        <time>2020-02-03T15:30:17Z</time>
      </trkpt>
      <trkpt lat="25.673219" lon="-100.335209">
        <ele>534.346</ele>
        <time>2020-02-03T15:30:18Z</time>
      </trkpt>
      <trkpt lat="25.673213" lon="-100.335179">
        <ele>534.586</ele>
        <time>2020-02-03T15:30:19Z</time>
      </trkpt>
      <trkpt lat="25.673207" lon="-100.33515">
        <ele>535.558</ele>
        <time>2020-02-03T15:30:20Z</time>
      </trkpt>
      <trkpt lat="25.673203" lon="-100.335121">
        <ele>535.579</ele>
        <time>2020-02-03T15:30:21Z</time>
      </trkpt>
      <trkpt lat="25.673199" lon="-100.335091">
        <ele>535.216</ele>
        <time>2020-02-03T15:30:22Z</time>
      </trkpt>
      <trkpt lat="25.673195" lon="-100.335061">
        <ele>532.225</ele>
        <time>2020-02-03T15:30:23Z</time>
      </trkpt>
      <trkpt lat="25.673193" lon="-100.335029">
        <ele>532.115</ele>
        <time>2020-02-03T15:30:24Z</time>
      </trkpt>
      <trkpt lat="25.67319" lon="-100.334998">
        <ele>531.992</ele>
        <time>2020-02-03T15:30:25Z</time>
      </trkpt>
      <trkpt lat="25.673185" lon="-100.334968">
        <ele>531.961</ele>
        <time>2020-02-03T15:30:26Z</time>
      </trkpt>
      <trkpt lat="25.673181" lon="-100.334936">
        <ele>531.533</ele>
        <time>2020-02-03T15:30:27Z</time>
      </trkpt>
      <trkpt lat="25.673175" lon="-100.334905">
        <ele>531.151</ele>
        <time>2020-02-03T15:30:28Z</time>
      </trkpt>
      <trkpt lat="25.673173" lon="-100.334845">
        <ele>531.165</ele>
        <time>2020-02-03T15:30:30Z</time>
      </trkpt>
      <trkpt lat="25.673173" lon="-100.334815">
        <ele>531.978</ele>
        <time>2020-02-03T15:30:31Z</time>
      </trkpt>
      <trkpt lat="25.673171" lon="-100.334785">
        <ele>531.865</ele>
        <time>2020-02-03T15:30:32Z</time>
      </trkpt>
      <trkpt lat="25.673162" lon="-100.334731">
        <ele>532.907</ele>
        <time>2020-02-03T15:30:34Z</time>
      </trkpt>
      <trkpt lat="25.673146" lon="-100.334684">
        <ele>534.319</ele>
        <time>2020-02-03T15:30:36Z</time>
      </trkpt>
      <trkpt lat="25.673125" lon="-100.334639">
        <ele>534.961</ele>
        <time>2020-02-03T15:30:38Z</time>
      </trkpt>
      <trkpt lat="25.673112" lon="-100.334616">
        <ele>534.979</ele>
        <time>2020-02-03T15:30:39Z</time>
      </trkpt>
      <trkpt lat="25.673098" lon="-100.334592">
        <ele>534.372</ele>
        <time>2020-02-03T15:30:40Z</time>
      </trkpt>
      <trkpt lat="25.673084" lon="-100.334566">
        <ele>534.643</ele>
        <time>2020-02-03T15:30:41Z</time>
      </trkpt>
      <trkpt lat="25.673071" lon="-100.33454">
        <ele>534.665</ele>
        <time>2020-02-03T15:30:42Z</time>
      </trkpt>
      <trkpt lat="25.673053" lon="-100.334486">
        <ele>534.299</ele>
        <time>2020-02-03T15:30:44Z</time>
      </trkpt>
      <trkpt lat="25.673046" lon="-100.334458">
        <ele>534.043</ele>
        <time>2020-02-03T15:30:45Z</time>
      </trkpt>
      <trkpt lat="25.673039" lon="-100.334428">
        <ele>532.007</ele>
        <time>2020-02-03T15:30:46Z</time>
      </trkpt>
      <trkpt lat="25.673034" lon="-100.334396">
        <ele>532.529</ele>
        <time>2020-02-03T15:30:47Z</time>
      </trkpt>
      <trkpt lat="25.67303" lon="-100.334363">
        <ele>532.396</ele>
        <time>2020-02-03T15:30:48Z</time>
      </trkpt>
      <trkpt lat="25.673026" lon="-100.334331">
        <ele>532.233</ele>
        <time>2020-02-03T15:30:49Z</time>
      </trkpt>
      <trkpt lat="25.673022" lon="-100.334298">
        <ele>532.137</ele>
        <time>2020-02-03T15:30:50Z</time>
      </trkpt>
      <trkpt lat="25.673019" lon="-100.334267">
        <ele>532.214</ele>
        <time>2020-02-03T15:30:51Z</time>
      </trkpt>
      <trkpt lat="25.673016" lon="-100.334235">
        <ele>532.65</ele>
        <time>2020-02-03T15:30:52Z</time>
      </trkpt>
      <trkpt lat="25.673008" lon="-100.334175">
        <ele>533.088</ele>
        <time>2020-02-03T15:30:54Z</time>
      </trkpt>
      <trkpt lat="25.672985" lon="-100.334114">
        <ele>533.326</ele>
        <time>2020-02-03T15:30:56Z</time>
      </trkpt>
      <trkpt lat="25.672973" lon="-100.334091">
        <ele>532.886</ele>
        <time>2020-02-03T15:30:57Z</time>
      </trkpt>
      <trkpt lat="25.672952" lon="-100.334038">
        <ele>532.949</ele>
        <time>2020-02-03T15:30:59Z</time>
      </trkpt>
      <trkpt lat="25.672938" lon="-100.333997">
        <ele>532.635</ele>
        <time>2020-02-03T15:31:01Z</time>
      </trkpt>
      <trkpt lat="25.672946" lon="-100.333943">
        <ele>532.211</ele>
        <time>2020-02-03T15:31:04Z</time>
      </trkpt>
      <trkpt lat="25.672954" lon="-100.333875">
        <ele>531.341</ele>
        <time>2020-02-03T15:31:07Z</time>
      </trkpt>
      <trkpt lat="25.672929" lon="-100.333787">
        <ele>531.751</ele>
        <time>2020-02-03T15:31:10Z</time>
      </trkpt>
      <trkpt lat="25.672923" lon="-100.333759">
        <ele>532.198</ele>
        <time>2020-02-03T15:31:11Z</time>
      </trkpt>
      <trkpt lat="25.672903" lon="-100.333702">
        <ele>533.477</ele>
        <time>2020-02-03T15:31:13Z</time>
      </trkpt>
      <trkpt lat="25.672876" lon="-100.333615">
        <ele>533.454</ele>
        <time>2020-02-03T15:31:16Z</time>
      </trkpt>
      <trkpt lat="25.67287" lon="-100.333554">
        <ele>533.654</ele>
        <time>2020-02-03T15:31:18Z</time>
      </trkpt>
      <trkpt lat="25.672869" lon="-100.333524">
        <ele>535.158</ele>
        <time>2020-02-03T15:31:19Z</time>
      </trkpt>
      <trkpt lat="25.672868" lon="-100.333495">
        <ele>533.105</ele>
        <time>2020-02-03T15:31:20Z</time>
      </trkpt>
      <trkpt lat="25.672866" lon="-100.333466">
        <ele>532.659</ele>
        <time>2020-02-03T15:31:21Z</time>
      </trkpt>
      <trkpt lat="25.672863" lon="-100.333435">
        <ele>531.709</ele>
        <time>2020-02-03T15:31:22Z</time>
      </trkpt>
      <trkpt lat="25.672859" lon="-100.333406">
        <ele>531.046</ele>
        <time>2020-02-03T15:31:23Z</time>
      </trkpt>
      <trkpt lat="25.672845" lon="-100.333347">
        <ele>532.202</ele>
        <time>2020-02-03T15:31:25Z</time>
      </trkpt>
      <trkpt lat="25.672836" lon="-100.333316">
        <ele>532.349</ele>
        <time>2020-02-03T15:31:26Z</time>
      </trkpt>
      <trkpt lat="25.672828" lon="-100.333285">
        <ele>532.795</ele>
        <time>2020-02-03T15:31:27Z</time>
      </trkpt>
      <trkpt lat="25.672819" lon="-100.333259">
        <ele>532.265</ele>
        <time>2020-02-03T15:31:28Z</time>
      </trkpt>
      <trkpt lat="25.672778" lon="-100.33318">
        <ele>532.415</ele>
        <time>2020-02-03T15:31:31Z</time>
      </trkpt>
      <trkpt lat="25.672754" lon="-100.333125">
        <ele>531.654</ele>
        <time>2020-02-03T15:31:33Z</time>
      </trkpt>
      <trkpt lat="25.672717" lon="-100.333084">
        <ele>533.438</ele>
        <time>2020-02-03T15:31:35Z</time>
      </trkpt>
      <trkpt lat="25.672665" lon="-100.333069">
        <ele>533.71</ele>
        <time>2020-02-03T15:31:37Z</time>
      </trkpt>
      <trkpt lat="25.672608" lon="-100.333074">
        <ele>533.737</ele>
        <time>2020-02-03T15:31:39Z</time>
      </trkpt>
      <trkpt lat="25.672525" lon="-100.333102">
        <ele>534.372</ele>
        <time>2020-02-03T15:31:42Z</time>
      </trkpt>
      <trkpt lat="25.672499" lon="-100.333113">
        <ele>534.714</ele>
        <time>2020-02-03T15:31:43Z</time>
      </trkpt>
      <trkpt lat="25.672474" lon="-100.333126">
        <ele>534.285</ele>
        <time>2020-02-03T15:31:44Z</time>
      </trkpt>
      <trkpt lat="25.672449" lon="-100.333139">
        <ele>534.726</ele>
        <time>2020-02-03T15:31:45Z</time>
      </trkpt>
      <trkpt lat="25.672425" lon="-100.333153">
        <ele>535.19</ele>
        <time>2020-02-03T15:31:46Z</time>
      </trkpt>
      <trkpt lat="25.672401" lon="-100.333165">
        <ele>535.503</ele>
        <time>2020-02-03T15:31:47Z</time>
      </trkpt>
      <trkpt lat="25.672357" lon="-100.333196">
        <ele>535.514</ele>
        <time>2020-02-03T15:31:49Z</time>
      </trkpt>
      <trkpt lat="25.672309" lon="-100.333219">
        <ele>535.248</ele>
        <time>2020-02-03T15:31:51Z</time>
      </trkpt>
      <trkpt lat="25.672258" lon="-100.333223">
        <ele>536.304</ele>
        <time>2020-02-03T15:31:53Z</time>
      </trkpt>
      <trkpt lat="25.672233" lon="-100.333223">
        <ele>535.581</ele>
        <time>2020-02-03T15:31:54Z</time>
      </trkpt>
      <trkpt lat="25.672207" lon="-100.333227">
        <ele>535.535</ele>
        <time>2020-02-03T15:31:55Z</time>
      </trkpt>
      <trkpt lat="25.672181" lon="-100.333229">
        <ele>534.912</ele>
        <time>2020-02-03T15:31:56Z</time>
      </trkpt>
      <trkpt lat="25.672152" lon="-100.33323">
        <ele>534.37</ele>
        <time>2020-02-03T15:31:57Z</time>
      </trkpt>
      <trkpt lat="25.672125" lon="-100.333233">
        <ele>534.385</ele>
        <time>2020-02-03T15:31:58Z</time>
      </trkpt>
      <trkpt lat="25.672098" lon="-100.333234">
        <ele>534.262</ele>
        <time>2020-02-03T15:31:59Z</time>
      </trkpt>
      <trkpt lat="25.672073" lon="-100.333238">
        <ele>534.269</ele>
        <time>2020-02-03T15:32:00Z</time>
      </trkpt>
      <trkpt lat="25.672" lon="-100.333254">
        <ele>534.269</ele>
        <time>2020-02-03T15:32:03Z</time>
      </trkpt>
      <trkpt lat="25.671933" lon="-100.33325">
        <ele>534.269</ele>
        <time>2020-02-03T15:32:06Z</time>
      </trkpt>
      <trkpt lat="25.671887" lon="-100.333265">
        <ele>533.758</ele>
        <time>2020-02-03T15:32:08Z</time>
      </trkpt>
      <trkpt lat="25.671864" lon="-100.333272">
        <ele>536.625</ele>
        <time>2020-02-03T15:32:09Z</time>
      </trkpt>
      <trkpt lat="25.671814" lon="-100.333281">
        <ele>537.117</ele>
        <time>2020-02-03T15:32:11Z</time>
      </trkpt>
      <trkpt lat="25.67179" lon="-100.333286">
        <ele>536.37</ele>
        <time>2020-02-03T15:32:12Z</time>
      </trkpt>
      <trkpt lat="25.671765" lon="-100.333292">
        <ele>534.911</ele>
        <time>2020-02-03T15:32:13Z</time>
      </trkpt>
      <trkpt lat="25.67174" lon="-100.3333">
        <ele>534.702</ele>
        <time>2020-02-03T15:32:14Z</time>
      </trkpt>
      <trkpt lat="25.671682" lon="-100.333318">
        <ele>534.834</ele>
        <time>2020-02-03T15:32:18Z</time>
      </trkpt>
      <trkpt lat="25.671682" lon="-100.333318">
        <ele>535.088</ele>
        <time>2020-02-03T15:32:26Z</time>
      </trkpt>
      <trkpt lat="25.671682" lon="-100.333318">
        <ele>539.176</ele>
        <time>2020-02-03T15:32:28Z</time>
      </trkpt>
      <trkpt lat="25.671653" lon="-100.333278">
        <ele>541.033</ele>
        <time>2020-02-03T15:32:29Z</time>
      </trkpt>
      <trkpt lat="25.671642" lon="-100.333222">
        <ele>539.332</ele>
        <time>2020-02-03T15:32:32Z</time>
      </trkpt>
      <trkpt lat="25.67162" lon="-100.333174">
        <ele>538.842</ele>
        <time>2020-02-03T15:32:36Z</time>
      </trkpt>
      <trkpt lat="25.671609" lon="-100.333149">
        <ele>539.172</ele>
        <time>2020-02-03T15:32:37Z</time>
      </trkpt>
      <trkpt lat="25.671593" lon="-100.333093">
        <ele>538.6</ele>
        <time>2020-02-03T15:32:39Z</time>
      </trkpt>
      <trkpt lat="25.671584" lon="-100.333035">
        <ele>538.496</ele>
        <time>2020-02-03T15:32:41Z</time>
      </trkpt>
      <trkpt lat="25.671579" lon="-100.333004">
        <ele>536.98</ele>
        <time>2020-02-03T15:32:42Z</time>
      </trkpt>
      <trkpt lat="25.671574" lon="-100.332973">
        <ele>536.887</ele>
        <time>2020-02-03T15:32:43Z</time>
      </trkpt>
      <trkpt lat="25.671544" lon="-100.332874">
        <ele>536.648</ele>
        <time>2020-02-03T15:32:46Z</time>
      </trkpt>
      <trkpt lat="25.671536" lon="-100.332849">
        <ele>536.21</ele>
        <time>2020-02-03T15:32:47Z</time>
      </trkpt>
      <trkpt lat="25.671529" lon="-100.332814">
        <ele>535.898</ele>
        <time>2020-02-03T15:32:49Z</time>
      </trkpt>
      <trkpt lat="25.67152" lon="-100.33278">
        <ele>537.013</ele>
        <time>2020-02-03T15:32:50Z</time>
      </trkpt>
      <trkpt lat="25.67151" lon="-100.332669">
        <ele>536.468</ele>
        <time>2020-02-03T15:32:53Z</time>
      </trkpt>
      <trkpt lat="25.671511" lon="-100.332578">
        <ele>536.692</ele>
        <time>2020-02-03T15:32:56Z</time>
      </trkpt>
      <trkpt lat="25.671502" lon="-100.332497">
        <ele>536.74</ele>
        <time>2020-02-03T15:32:59Z</time>
      </trkpt>
      <trkpt lat="25.6715" lon="-100.332462">
        <ele>536.68</ele>
        <time>2020-02-03T15:33:00Z</time>
      </trkpt>
      <trkpt lat="25.671497" lon="-100.332428">
        <ele>537.406</ele>
        <time>2020-02-03T15:33:01Z</time>
      </trkpt>
      <trkpt lat="25.671483" lon="-100.332364">
        <ele>537.822</ele>
        <time>2020-02-03T15:33:03Z</time>
      </trkpt>
      <trkpt lat="25.671477" lon="-100.332333">
        <ele>537.847</ele>
        <time>2020-02-03T15:33:04Z</time>
      </trkpt>
      <trkpt lat="25.671471" lon="-100.3323">
        <ele>537.761</ele>
        <time>2020-02-03T15:33:05Z</time>
      </trkpt>
      <trkpt lat="25.671464" lon="-100.332267">
        <ele>537.502</ele>
        <time>2020-02-03T15:33:06Z</time>
      </trkpt>
      <trkpt lat="25.671456" lon="-100.332234">
        <ele>538.743</ele>
        <time>2020-02-03T15:33:07Z</time>
      </trkpt>
      <trkpt lat="25.671447" lon="-100.332201">
        <ele>536.425</ele>
        <time>2020-02-03T15:33:08Z</time>
      </trkpt>
      <trkpt lat="25.671438" lon="-100.332169">
        <ele>537.205</ele>
        <time>2020-02-03T15:33:09Z</time>
      </trkpt>
      <trkpt lat="25.671431" lon="-100.332137">
        <ele>537.206</ele>
        <time>2020-02-03T15:33:10Z</time>
      </trkpt>
      <trkpt lat="25.671425" lon="-100.332107">
        <ele>537.617</ele>
        <time>2020-02-03T15:33:11Z</time>
      </trkpt>
      <trkpt lat="25.671421" lon="-100.332076">
        <ele>538.206</ele>
        <time>2020-02-03T15:33:12Z</time>
      </trkpt>
      <trkpt lat="25.671416" lon="-100.332045">
        <ele>537.907</ele>
        <time>2020-02-03T15:33:13Z</time>
      </trkpt>
      <trkpt lat="25.671411" lon="-100.332012">
        <ele>538.362</ele>
        <time>2020-02-03T15:33:14Z</time>
      </trkpt>
      <trkpt lat="25.671405" lon="-100.33198">
        <ele>538.432</ele>
        <time>2020-02-03T15:33:15Z</time>
      </trkpt>
      <trkpt lat="25.671398" lon="-100.331944">
        <ele>538.722</ele>
        <time>2020-02-03T15:33:16Z</time>
      </trkpt>
      <trkpt lat="25.671392" lon="-100.331911">
        <ele>539.216</ele>
        <time>2020-02-03T15:33:17Z</time>
      </trkpt>
      <trkpt lat="25.671384" lon="-100.331878">
        <ele>540.097</ele>
        <time>2020-02-03T15:33:18Z</time>
      </trkpt>
      <trkpt lat="25.671377" lon="-100.331844">
        <ele>539.518</ele>
        <time>2020-02-03T15:33:19Z</time>
      </trkpt>
      <trkpt lat="25.671371" lon="-100.331809">
        <ele>539.137</ele>
        <time>2020-02-03T15:33:20Z</time>
      </trkpt>
      <trkpt lat="25.671366" lon="-100.331776">
        <ele>538.968</ele>
        <time>2020-02-03T15:33:21Z</time>
      </trkpt>
      <trkpt lat="25.671358" lon="-100.331746">
        <ele>538.15</ele>
        <time>2020-02-03T15:33:22Z</time>
      </trkpt>
      <trkpt lat="25.67135" lon="-100.331716">
        <ele>538.203</ele>
        <time>2020-02-03T15:33:23Z</time>
      </trkpt>
      <trkpt lat="25.671343" lon="-100.331684">
        <ele>537.3</ele>
        <time>2020-02-03T15:33:24Z</time>
      </trkpt>
      <trkpt lat="25.671335" lon="-100.331624">
        <ele>536.973</ele>
        <time>2020-02-03T15:33:26Z</time>
      </trkpt>
      <trkpt lat="25.671332" lon="-100.331596">
        <ele>537.371</ele>
        <time>2020-02-03T15:33:27Z</time>
      </trkpt>
      <trkpt lat="25.671327" lon="-100.331548">
        <ele>536.724</ele>
        <time>2020-02-03T15:33:29Z</time>
      </trkpt>
      <trkpt lat="25.671323" lon="-100.331518">
        <ele>537.238</ele>
        <time>2020-02-03T15:33:30Z</time>
      </trkpt>
      <trkpt lat="25.671319" lon="-100.331488">
        <ele>538.216</ele>
        <time>2020-02-03T15:33:31Z</time>
      </trkpt>
      <trkpt lat="25.671307" lon="-100.33143">
        <ele>538.489</ele>
        <time>2020-02-03T15:33:33Z</time>
      </trkpt>
      <trkpt lat="25.671291" lon="-100.331371">
        <ele>538.469</ele>
        <time>2020-02-03T15:33:35Z</time>
      </trkpt>
      <trkpt lat="25.671282" lon="-100.331316">
        <ele>538.292</ele>
        <time>2020-02-03T15:33:37Z</time>
      </trkpt>
      <trkpt lat="25.671276" lon="-100.331264">
        <ele>538.228</ele>
        <time>2020-02-03T15:33:39Z</time>
      </trkpt>
      <trkpt lat="25.671261" lon="-100.331205">
        <ele>537.544</ele>
        <time>2020-02-03T15:33:41Z</time>
      </trkpt>
      <trkpt lat="25.671254" lon="-100.331168">
        <ele>537.142</ele>
        <time>2020-02-03T15:33:42Z</time>
      </trkpt>
      <trkpt lat="25.67125" lon="-100.331131">
        <ele>536.848</ele>
        <time>2020-02-03T15:33:43Z</time>
      </trkpt>
      <trkpt lat="25.671243" lon="-100.331055">
        <ele>536.844</ele>
        <time>2020-02-03T15:33:45Z</time>
      </trkpt>
      <trkpt lat="25.67124" lon="-100.331025">
        <ele>537.829</ele>
        <time>2020-02-03T15:33:46Z</time>
      </trkpt>
      <trkpt lat="25.671237" lon="-100.330994">
        <ele>537.437</ele>
        <time>2020-02-03T15:33:47Z</time>
      </trkpt>
      <trkpt lat="25.671235" lon="-100.330925">
        <ele>537.745</ele>
        <time>2020-02-03T15:33:49Z</time>
      </trkpt>
      <trkpt lat="25.671235" lon="-100.330892">
        <ele>537.904</ele>
        <time>2020-02-03T15:33:50Z</time>
      </trkpt>
      <trkpt lat="25.671233" lon="-100.330859">
        <ele>539.398</ele>
        <time>2020-02-03T15:33:51Z</time>
      </trkpt>
      <trkpt lat="25.671209" lon="-100.330768">
        <ele>538.868</ele>
        <time>2020-02-03T15:33:54Z</time>
      </trkpt>
      <trkpt lat="25.671202" lon="-100.33074">
        <ele>537.16</ele>
        <time>2020-02-03T15:33:55Z</time>
      </trkpt>
      <trkpt lat="25.671197" lon="-100.330712">
        <ele>536.316</ele>
        <time>2020-02-03T15:33:56Z</time>
      </trkpt>
      <trkpt lat="25.67119" lon="-100.330682">
        <ele>534.27</ele>
        <time>2020-02-03T15:33:57Z</time>
      </trkpt>
      <trkpt lat="25.671185" lon="-100.330651">
        <ele>533.969</ele>
        <time>2020-02-03T15:33:58Z</time>
      </trkpt>
      <trkpt lat="25.67118" lon="-100.330619">
        <ele>533.23</ele>
        <time>2020-02-03T15:33:59Z</time>
      </trkpt>
      <trkpt lat="25.671176" lon="-100.330586">
        <ele>533.464</ele>
        <time>2020-02-03T15:34:00Z</time>
      </trkpt>
      <trkpt lat="25.671174" lon="-100.330551">
        <ele>533.758</ele>
        <time>2020-02-03T15:34:01Z</time>
      </trkpt>
      <trkpt lat="25.671164" lon="-100.330487">
        <ele>533.798</ele>
        <time>2020-02-03T15:34:03Z</time>
      </trkpt>
      <trkpt lat="25.671139" lon="-100.330397">
        <ele>533.715</ele>
        <time>2020-02-03T15:34:06Z</time>
      </trkpt>
      <trkpt lat="25.671128" lon="-100.330366">
        <ele>534.801</ele>
        <time>2020-02-03T15:34:07Z</time>
      </trkpt>
      <trkpt lat="25.671114" lon="-100.330335">
        <ele>535.027</ele>
        <time>2020-02-03T15:34:08Z</time>
      </trkpt>
      <trkpt lat="25.671099" lon="-100.330273">
        <ele>534.442</ele>
        <time>2020-02-03T15:34:10Z</time>
      </trkpt>
      <trkpt lat="25.671094" lon="-100.330243">
        <ele>534.229</ele>
        <time>2020-02-03T15:34:11Z</time>
      </trkpt>
      <trkpt lat="25.671087" lon="-100.330213">
        <ele>534.409</ele>
        <time>2020-02-03T15:34:12Z</time>
      </trkpt>
      <trkpt lat="25.671081" lon="-100.330183">
        <ele>534.016</ele>
        <time>2020-02-03T15:34:13Z</time>
      </trkpt>
      <trkpt lat="25.671079" lon="-100.330124">
        <ele>534.23</ele>
        <time>2020-02-03T15:34:15Z</time>
      </trkpt>
      <trkpt lat="25.671079" lon="-100.33009">
        <ele>535.335</ele>
        <time>2020-02-03T15:34:16Z</time>
      </trkpt>
      <trkpt lat="25.67107" lon="-100.330026">
        <ele>535.838</ele>
        <time>2020-02-03T15:34:18Z</time>
      </trkpt>
      <trkpt lat="25.671065" lon="-100.329997">
        <ele>535.999</ele>
        <time>2020-02-03T15:34:19Z</time>
      </trkpt>
      <trkpt lat="25.67106" lon="-100.329965">
        <ele>535.889</ele>
        <time>2020-02-03T15:34:20Z</time>
      </trkpt>
      <trkpt lat="25.671054" lon="-100.329934">
        <ele>535.791</ele>
        <time>2020-02-03T15:34:21Z</time>
      </trkpt>
      <trkpt lat="25.671035" lon="-100.329875">
        <ele>535.19</ele>
        <time>2020-02-03T15:34:23Z</time>
      </trkpt>
      <trkpt lat="25.671025" lon="-100.329845">
        <ele>535.043</ele>
        <time>2020-02-03T15:34:24Z</time>
      </trkpt>
      <trkpt lat="25.671017" lon="-100.329815">
        <ele>532.898</ele>
        <time>2020-02-03T15:34:25Z</time>
      </trkpt>
      <trkpt lat="25.671009" lon="-100.329751">
        <ele>532.391</ele>
        <time>2020-02-03T15:34:27Z</time>
      </trkpt>
      <trkpt lat="25.671006" lon="-100.329686">
        <ele>532.341</ele>
        <time>2020-02-03T15:34:29Z</time>
      </trkpt>
      <trkpt lat="25.671004" lon="-100.329655">
        <ele>532.149</ele>
        <time>2020-02-03T15:34:30Z</time>
      </trkpt>
      <trkpt lat="25.671004" lon="-100.329625">
        <ele>532.064</ele>
        <time>2020-02-03T15:34:31Z</time>
      </trkpt>
      <trkpt lat="25.671001" lon="-100.329594">
        <ele>533.339</ele>
        <time>2020-02-03T15:34:32Z</time>
      </trkpt>
      <trkpt lat="25.670999" lon="-100.329563">
        <ele>533.456</ele>
        <time>2020-02-03T15:34:33Z</time>
      </trkpt>
      <trkpt lat="25.670995" lon="-100.329513">
        <ele>534.699</ele>
        <time>2020-02-03T15:34:35Z</time>
      </trkpt>
      <trkpt lat="25.670981" lon="-100.329456">
        <ele>535.193</ele>
        <time>2020-02-03T15:34:37Z</time>
      </trkpt>
      <trkpt lat="25.670961" lon="-100.329404">
        <ele>535.398</ele>
        <time>2020-02-03T15:34:39Z</time>
      </trkpt>
      <trkpt lat="25.670949" lon="-100.329381">
        <ele>534.949</ele>
        <time>2020-02-03T15:34:40Z</time>
      </trkpt>
      <trkpt lat="25.670939" lon="-100.329356">
        <ele>534.308</ele>
        <time>2020-02-03T15:34:41Z</time>
      </trkpt>
      <trkpt lat="25.670928" lon="-100.329329">
        <ele>533.795</ele>
        <time>2020-02-03T15:34:42Z</time>
      </trkpt>
      <trkpt lat="25.670914" lon="-100.329275">
        <ele>534.148</ele>
        <time>2020-02-03T15:34:44Z</time>
      </trkpt>
      <trkpt lat="25.670917" lon="-100.329214">
        <ele>534.195</ele>
        <time>2020-02-03T15:34:46Z</time>
      </trkpt>
      <trkpt lat="25.670917" lon="-100.329183">
        <ele>535.174</ele>
        <time>2020-02-03T15:34:47Z</time>
      </trkpt>
      <trkpt lat="25.670903" lon="-100.329125">
        <ele>535.573</ele>
        <time>2020-02-03T15:34:49Z</time>
      </trkpt>
      <trkpt lat="25.670895" lon="-100.329096">
        <ele>534.695</ele>
        <time>2020-02-03T15:34:50Z</time>
      </trkpt>
      <trkpt lat="25.670887" lon="-100.329065">
        <ele>534.191</ele>
        <time>2020-02-03T15:34:51Z</time>
      </trkpt>
      <trkpt lat="25.670881" lon="-100.329033">
        <ele>534.779</ele>
        <time>2020-02-03T15:34:52Z</time>
      </trkpt>
      <trkpt lat="25.670874" lon="-100.329004">
        <ele>534.922</ele>
        <time>2020-02-03T15:34:53Z</time>
      </trkpt>
      <trkpt lat="25.670868" lon="-100.328974">
        <ele>535.16</ele>
        <time>2020-02-03T15:34:54Z</time>
      </trkpt>
      <trkpt lat="25.670861" lon="-100.328943">
        <ele>533.739</ele>
        <time>2020-02-03T15:34:55Z</time>
      </trkpt>
      <trkpt lat="25.670855" lon="-100.328915">
        <ele>534.172</ele>
        <time>2020-02-03T15:34:56Z</time>
      </trkpt>
      <trkpt lat="25.670848" lon="-100.328886">
        <ele>531.686</ele>
        <time>2020-02-03T15:34:57Z</time>
      </trkpt>
      <trkpt lat="25.670842" lon="-100.328859">
        <ele>530.537</ele>
        <time>2020-02-03T15:34:58Z</time>
      </trkpt>
      <trkpt lat="25.670835" lon="-100.328829">
        <ele>529.967</ele>
        <time>2020-02-03T15:34:59Z</time>
      </trkpt>
      <trkpt lat="25.670831" lon="-100.328799">
        <ele>529.874</ele>
        <time>2020-02-03T15:35:00Z</time>
      </trkpt>
      <trkpt lat="25.670827" lon="-100.32877">
        <ele>529.587</ele>
        <time>2020-02-03T15:35:01Z</time>
      </trkpt>
      <trkpt lat="25.670823" lon="-100.328738">
        <ele>530.392</ele>
        <time>2020-02-03T15:35:02Z</time>
      </trkpt>
      <trkpt lat="25.670818" lon="-100.328689">
        <ele>529.962</ele>
        <time>2020-02-03T15:35:04Z</time>
      </trkpt>
      <trkpt lat="25.670815" lon="-100.328657">
        <ele>529.971</ele>
        <time>2020-02-03T15:35:05Z</time>
      </trkpt>
      <trkpt lat="25.670802" lon="-100.3286">
        <ele>529.79</ele>
        <time>2020-02-03T15:35:07Z</time>
      </trkpt>
      <trkpt lat="25.670785" lon="-100.32855">
        <ele>530.717</ele>
        <time>2020-02-03T15:35:09Z</time>
      </trkpt>
      <trkpt lat="25.670773" lon="-100.328512">
        <ele>530.873</ele>
        <time>2020-02-03T15:35:11Z</time>
      </trkpt>
      <trkpt lat="25.670767" lon="-100.328487">
        <ele>529.961</ele>
        <time>2020-02-03T15:35:12Z</time>
      </trkpt>
      <trkpt lat="25.670759" lon="-100.328459">
        <ele>530.927</ele>
        <time>2020-02-03T15:35:13Z</time>
      </trkpt>
      <trkpt lat="25.670753" lon="-100.328392">
        <ele>532.443</ele>
        <time>2020-02-03T15:35:15Z</time>
      </trkpt>
      <trkpt lat="25.670751" lon="-100.328359">
        <ele>532.526</ele>
        <time>2020-02-03T15:35:16Z</time>
      </trkpt>
      <trkpt lat="25.670749" lon="-100.328326">
        <ele>533.982</ele>
        <time>2020-02-03T15:35:17Z</time>
      </trkpt>
      <trkpt lat="25.670747" lon="-100.328293">
        <ele>534.028</ele>
        <time>2020-02-03T15:35:18Z</time>
      </trkpt>
      <trkpt lat="25.670744" lon="-100.328234">
        <ele>532.592</ele>
        <time>2020-02-03T15:35:20Z</time>
      </trkpt>
      <trkpt lat="25.670735" lon="-100.328174">
        <ele>530.908</ele>
        <time>2020-02-03T15:35:22Z</time>
      </trkpt>
      <trkpt lat="25.670732" lon="-100.328146">
        <ele>530.491</ele>
        <time>2020-02-03T15:35:23Z</time>
      </trkpt>
      <trkpt lat="25.670727" lon="-100.328116">
        <ele>530.55</ele>
        <time>2020-02-03T15:35:24Z</time>
      </trkpt>
      <trkpt lat="25.670693" lon="-100.328061">
        <ele>531.362</ele>
        <time>2020-02-03T15:35:27Z</time>
      </trkpt>
      <trkpt lat="25.670661" lon="-100.328016">
        <ele>530.125</ele>
        <time>2020-02-03T15:35:29Z</time>
      </trkpt>
      <trkpt lat="25.670647" lon="-100.327993">
        <ele>529.75</ele>
        <time>2020-02-03T15:35:30Z</time>
      </trkpt>
      <trkpt lat="25.670631" lon="-100.327945">
        <ele>530.052</ele>
        <time>2020-02-03T15:35:32Z</time>
      </trkpt>
      <trkpt lat="25.670624" lon="-100.327917">
        <ele>530.299</ele>
        <time>2020-02-03T15:35:33Z</time>
      </trkpt>
      <trkpt lat="25.670617" lon="-100.327889">
        <ele>530.844</ele>
        <time>2020-02-03T15:35:34Z</time>
      </trkpt>
      <trkpt lat="25.670615" lon="-100.327835">
        <ele>530.711</ele>
        <time>2020-02-03T15:35:36Z</time>
      </trkpt>
      <trkpt lat="25.67062" lon="-100.327774">
        <ele>530.853</ele>
        <time>2020-02-03T15:35:38Z</time>
      </trkpt>
      <trkpt lat="25.670614" lon="-100.327715">
        <ele>530.587</ele>
        <time>2020-02-03T15:35:40Z</time>
      </trkpt>
      <trkpt lat="25.670612" lon="-100.327684">
        <ele>530.002</ele>
        <time>2020-02-03T15:35:41Z</time>
      </trkpt>
      <trkpt lat="25.670611" lon="-100.327635">
        <ele>530.066</ele>
        <time>2020-02-03T15:35:43Z</time>
      </trkpt>
      <trkpt lat="25.67061" lon="-100.327605">
        <ele>529.578</ele>
        <time>2020-02-03T15:35:44Z</time>
      </trkpt>
      <trkpt lat="25.670607" lon="-100.327575">
        <ele>530.198</ele>
        <time>2020-02-03T15:35:45Z</time>
      </trkpt>
      <trkpt lat="25.670605" lon="-100.327545">
        <ele>531.1</ele>
        <time>2020-02-03T15:35:46Z</time>
      </trkpt>
      <trkpt lat="25.670602" lon="-100.327514">
        <ele>532.208</ele>
        <time>2020-02-03T15:35:47Z</time>
      </trkpt>
      <trkpt lat="25.670598" lon="-100.327482">
        <ele>531.591</ele>
        <time>2020-02-03T15:35:48Z</time>
      </trkpt>
      <trkpt lat="25.670589" lon="-100.327416">
        <ele>532.27</ele>
        <time>2020-02-03T15:35:50Z</time>
      </trkpt>
      <trkpt lat="25.670586" lon="-100.327384">
        <ele>532.415</ele>
        <time>2020-02-03T15:35:51Z</time>
      </trkpt>
      <trkpt lat="25.670581" lon="-100.327351">
        <ele>532.513</ele>
        <time>2020-02-03T15:35:52Z</time>
      </trkpt>
      <trkpt lat="25.670576" lon="-100.327319">
        <ele>533.086</ele>
        <time>2020-02-03T15:35:53Z</time>
      </trkpt>
      <trkpt lat="25.67057" lon="-100.32729">
        <ele>532.429</ele>
        <time>2020-02-03T15:35:54Z</time>
      </trkpt>
      <trkpt lat="25.670564" lon="-100.32726">
        <ele>531.834</ele>
        <time>2020-02-03T15:35:55Z</time>
      </trkpt>
      <trkpt lat="25.670559" lon="-100.327229">
        <ele>531.26</ele>
        <time>2020-02-03T15:35:56Z</time>
      </trkpt>
      <trkpt lat="25.670555" lon="-100.3272">
        <ele>530.483</ele>
        <time>2020-02-03T15:35:57Z</time>
      </trkpt>
      <trkpt lat="25.670545" lon="-100.327143">
        <ele>530.801</ele>
        <time>2020-02-03T15:35:59Z</time>
      </trkpt>
      <trkpt lat="25.670538" lon="-100.327113">
        <ele>530.944</ele>
        <time>2020-02-03T15:36:00Z</time>
      </trkpt>
      <trkpt lat="25.67053" lon="-100.327081">
        <ele>531.331</ele>
        <time>2020-02-03T15:36:01Z</time>
      </trkpt>
      <trkpt lat="25.670523" lon="-100.327051">
        <ele>532.28</ele>
        <time>2020-02-03T15:36:02Z</time>
      </trkpt>
      <trkpt lat="25.670516" lon="-100.32702">
        <ele>532.144</ele>
        <time>2020-02-03T15:36:03Z</time>
      </trkpt>
      <trkpt lat="25.67051" lon="-100.326959">
        <ele>532.457</ele>
        <time>2020-02-03T15:36:05Z</time>
      </trkpt>
      <trkpt lat="25.670508" lon="-100.326931">
        <ele>531.735</ele>
        <time>2020-02-03T15:36:06Z</time>
      </trkpt>
      <trkpt lat="25.670505" lon="-100.326902">
        <ele>532.738</ele>
        <time>2020-02-03T15:36:07Z</time>
      </trkpt>
      <trkpt lat="25.670502" lon="-100.326875">
        <ele>532.748</ele>
        <time>2020-02-03T15:36:08Z</time>
      </trkpt>
      <trkpt lat="25.670496" lon="-100.326825">
        <ele>532.421</ele>
        <time>2020-02-03T15:36:10Z</time>
      </trkpt>
      <trkpt lat="25.670477" lon="-100.326749">
        <ele>532.035</ele>
        <time>2020-02-03T15:36:13Z</time>
      </trkpt>
      <trkpt lat="25.670469" lon="-100.326721">
        <ele>531.359</ele>
        <time>2020-02-03T15:36:14Z</time>
      </trkpt>
      <trkpt lat="25.670461" lon="-100.32669">
        <ele>531.194</ele>
        <time>2020-02-03T15:36:15Z</time>
      </trkpt>
      <trkpt lat="25.670454" lon="-100.32666">
        <ele>530.948</ele>
        <time>2020-02-03T15:36:16Z</time>
      </trkpt>
      <trkpt lat="25.670449" lon="-100.32663">
        <ele>530.696</ele>
        <time>2020-02-03T15:36:17Z</time>
      </trkpt>
      <trkpt lat="25.670445" lon="-100.326602">
        <ele>531.413</ele>
        <time>2020-02-03T15:36:18Z</time>
      </trkpt>
      <trkpt lat="25.670442" lon="-100.326571">
        <ele>532.527</ele>
        <time>2020-02-03T15:36:19Z</time>
      </trkpt>
      <trkpt lat="25.670438" lon="-100.326542">
        <ele>532.449</ele>
        <time>2020-02-03T15:36:20Z</time>
      </trkpt>
      <trkpt lat="25.670433" lon="-100.326513">
        <ele>531.556</ele>
        <time>2020-02-03T15:36:21Z</time>
      </trkpt>
      <trkpt lat="25.670429" lon="-100.326484">
        <ele>532.216</ele>
        <time>2020-02-03T15:36:22Z</time>
      </trkpt>
      <trkpt lat="25.670424" lon="-100.326456">
        <ele>533.352</ele>
        <time>2020-02-03T15:36:23Z</time>
      </trkpt>
      <trkpt lat="25.670421" lon="-100.326426">
        <ele>533.917</ele>
        <time>2020-02-03T15:36:24Z</time>
      </trkpt>
      <trkpt lat="25.670418" lon="-100.326397">
        <ele>533.466</ele>
        <time>2020-02-03T15:36:25Z</time>
      </trkpt>
      <trkpt lat="25.670415" lon="-100.326367">
        <ele>534.111</ele>
        <time>2020-02-03T15:36:26Z</time>
      </trkpt>
      <trkpt lat="25.6704" lon="-100.326304">
        <ele>534.674</ele>
        <time>2020-02-03T15:36:28Z</time>
      </trkpt>
      <trkpt lat="25.670374" lon="-100.326243">
        <ele>534.045</ele>
        <time>2020-02-03T15:36:30Z</time>
      </trkpt>
      <trkpt lat="25.67037" lon="-100.32615">
        <ele>533.663</ele>
        <time>2020-02-03T15:36:33Z</time>
      </trkpt>
      <trkpt lat="25.670371" lon="-100.326119">
        <ele>533.746</ele>
        <time>2020-02-03T15:36:34Z</time>
      </trkpt>
      <trkpt lat="25.670357" lon="-100.326055">
        <ele>533.518</ele>
        <time>2020-02-03T15:36:36Z</time>
      </trkpt>
      <trkpt lat="25.670349" lon="-100.326022">
        <ele>532.319</ele>
        <time>2020-02-03T15:36:37Z</time>
      </trkpt>
      <trkpt lat="25.670343" lon="-100.32599">
        <ele>532.493</ele>
        <time>2020-02-03T15:36:38Z</time>
      </trkpt>
      <trkpt lat="25.670337" lon="-100.325958">
        <ele>532.825</ele>
        <time>2020-02-03T15:36:39Z</time>
      </trkpt>
      <trkpt lat="25.670332" lon="-100.325926">
        <ele>533.558</ele>
        <time>2020-02-03T15:36:40Z</time>
      </trkpt>
      <trkpt lat="25.670328" lon="-100.325895">
        <ele>532.096</ele>
        <time>2020-02-03T15:36:41Z</time>
      </trkpt>
      <trkpt lat="25.670324" lon="-100.325864">
        <ele>532.322</ele>
        <time>2020-02-03T15:36:42Z</time>
      </trkpt>
      <trkpt lat="25.670319" lon="-100.325833">
        <ele>532.641</ele>
        <time>2020-02-03T15:36:43Z</time>
      </trkpt>
      <trkpt lat="25.670314" lon="-100.325803">
        <ele>531.798</ele>
        <time>2020-02-03T15:36:44Z</time>
      </trkpt>
      <trkpt lat="25.670307" lon="-100.325772">
        <ele>531.641</ele>
        <time>2020-02-03T15:36:45Z</time>
      </trkpt>
      <trkpt lat="25.6703" lon="-100.325741">
        <ele>530.823</ele>
        <time>2020-02-03T15:36:46Z</time>
      </trkpt>
      <trkpt lat="25.670294" lon="-100.32571">
        <ele>529.448</ele>
        <time>2020-02-03T15:36:47Z</time>
      </trkpt>
      <trkpt lat="25.670287" lon="-100.325681">
        <ele>529.32</ele>
        <time>2020-02-03T15:36:48Z</time>
      </trkpt>
      <trkpt lat="25.670279" lon="-100.325653">
        <ele>529.633</ele>
        <time>2020-02-03T15:36:49Z</time>
      </trkpt>
      <trkpt lat="25.670273" lon="-100.325628">
        <ele>528.519</ele>
        <time>2020-02-03T15:36:50Z</time>
      </trkpt>
      <trkpt lat="25.670268" lon="-100.325574">
        <ele>528.717</ele>
        <time>2020-02-03T15:36:52Z</time>
      </trkpt>
      <trkpt lat="25.670267" lon="-100.325487">
        <ele>528.524</ele>
        <time>2020-02-03T15:36:55Z</time>
      </trkpt>
      <trkpt lat="25.670254" lon="-100.325431">
        <ele>527.752</ele>
        <time>2020-02-03T15:36:57Z</time>
      </trkpt>
      <trkpt lat="25.670247" lon="-100.325402">
        <ele>528.317</ele>
        <time>2020-02-03T15:36:58Z</time>
      </trkpt>
      <trkpt lat="25.670243" lon="-100.325371">
        <ele>526.575</ele>
        <time>2020-02-03T15:36:59Z</time>
      </trkpt>
      <trkpt lat="25.67024" lon="-100.32534">
        <ele>526.958</ele>
        <time>2020-02-03T15:37:00Z</time>
      </trkpt>
      <trkpt lat="25.670239" lon="-100.32531">
        <ele>526.895</ele>
        <time>2020-02-03T15:37:01Z</time>
      </trkpt>
      <trkpt lat="25.670238" lon="-100.325278">
        <ele>528.083</ele>
        <time>2020-02-03T15:37:02Z</time>
      </trkpt>
      <trkpt lat="25.670238" lon="-100.325245">
        <ele>527.74</ele>
        <time>2020-02-03T15:37:03Z</time>
      </trkpt>
      <trkpt lat="25.670236" lon="-100.325215">
        <ele>528.099</ele>
        <time>2020-02-03T15:37:04Z</time>
      </trkpt>
      <trkpt lat="25.670234" lon="-100.325185">
        <ele>527.316</ele>
        <time>2020-02-03T15:37:05Z</time>
      </trkpt>
      <trkpt lat="25.67023" lon="-100.325158">
        <ele>528.156</ele>
        <time>2020-02-03T15:37:06Z</time>
      </trkpt>
      <trkpt lat="25.670218" lon="-100.325104">
        <ele>528.832</ele>
        <time>2020-02-03T15:37:08Z</time>
      </trkpt>
      <trkpt lat="25.670212" lon="-100.325042">
        <ele>528.543</ele>
        <time>2020-02-03T15:37:10Z</time>
      </trkpt>
      <trkpt lat="25.670209" lon="-100.325013">
        <ele>528.949</ele>
        <time>2020-02-03T15:37:11Z</time>
      </trkpt>
      <trkpt lat="25.670206" lon="-100.32498">
        <ele>529.63</ele>
        <time>2020-02-03T15:37:12Z</time>
      </trkpt>
      <trkpt lat="25.670188" lon="-100.324883">
        <ele>530.292</ele>
        <time>2020-02-03T15:37:15Z</time>
      </trkpt>
      <trkpt lat="25.670181" lon="-100.324853">
        <ele>529.641</ele>
        <time>2020-02-03T15:37:16Z</time>
      </trkpt>
      <trkpt lat="25.670176" lon="-100.324821">
        <ele>530.223</ele>
        <time>2020-02-03T15:37:17Z</time>
      </trkpt>
      <trkpt lat="25.670171" lon="-100.32479">
        <ele>530.931</ele>
        <time>2020-02-03T15:37:18Z</time>
      </trkpt>
      <trkpt lat="25.670164" lon="-100.324759">
        <ele>530.772</ele>
        <time>2020-02-03T15:37:19Z</time>
      </trkpt>
      <trkpt lat="25.670157" lon="-100.32473">
        <ele>531.489</ele>
        <time>2020-02-03T15:37:20Z</time>
      </trkpt>
      <trkpt lat="25.67015" lon="-100.3247">
        <ele>532.209</ele>
        <time>2020-02-03T15:37:21Z</time>
      </trkpt>
      <trkpt lat="25.670145" lon="-100.324603">
        <ele>531.87</ele>
        <time>2020-02-03T15:37:24Z</time>
      </trkpt>
      <trkpt lat="25.670142" lon="-100.324572">
        <ele>532.82</ele>
        <time>2020-02-03T15:37:25Z</time>
      </trkpt>
      <trkpt lat="25.670124" lon="-100.324479">
        <ele>533.426</ele>
        <time>2020-02-03T15:37:28Z</time>
      </trkpt>
      <trkpt lat="25.670119" lon="-100.324415">
        <ele>532.014</ele>
        <time>2020-02-03T15:37:30Z</time>
      </trkpt>
      <trkpt lat="25.670118" lon="-100.324385">
        <ele>533.085</ele>
        <time>2020-02-03T15:37:31Z</time>
      </trkpt>
      <trkpt lat="25.670114" lon="-100.324355">
        <ele>533.447</ele>
        <time>2020-02-03T15:37:32Z</time>
      </trkpt>
      <trkpt lat="25.670109" lon="-100.324327">
        <ele>532.789</ele>
        <time>2020-02-03T15:37:33Z</time>
      </trkpt>
      <trkpt lat="25.670103" lon="-100.324297">
        <ele>532.412</ele>
        <time>2020-02-03T15:37:34Z</time>
      </trkpt>
      <trkpt lat="25.670097" lon="-100.324267">
        <ele>532.611</ele>
        <time>2020-02-03T15:37:35Z</time>
      </trkpt>
      <trkpt lat="25.670089" lon="-100.324239">
        <ele>533.994</ele>
        <time>2020-02-03T15:37:36Z</time>
      </trkpt>
      <trkpt lat="25.670083" lon="-100.324211">
        <ele>533.271</ele>
        <time>2020-02-03T15:37:37Z</time>
      </trkpt>
      <trkpt lat="25.670077" lon="-100.324184">
        <ele>532.531</ele>
        <time>2020-02-03T15:37:38Z</time>
      </trkpt>
      <trkpt lat="25.670073" lon="-100.324157">
        <ele>532.633</ele>
        <time>2020-02-03T15:37:39Z</time>
      </trkpt>
      <trkpt lat="25.670069" lon="-100.324127">
        <ele>532.371</ele>
        <time>2020-02-03T15:37:40Z</time>
      </trkpt>
      <trkpt lat="25.670065" lon="-100.324099">
        <ele>532.301</ele>
        <time>2020-02-03T15:37:41Z</time>
      </trkpt>
      <trkpt lat="25.67005" lon="-100.324046">
        <ele>532.747</ele>
        <time>2020-02-03T15:37:43Z</time>
      </trkpt>
      <trkpt lat="25.670042" lon="-100.32402">
        <ele>532.074</ele>
        <time>2020-02-03T15:37:44Z</time>
      </trkpt>
      <trkpt lat="25.670035" lon="-100.323993">
        <ele>530.959</ele>
        <time>2020-02-03T15:37:45Z</time>
      </trkpt>
      <trkpt lat="25.670029" lon="-100.323964">
        <ele>530.824</ele>
        <time>2020-02-03T15:37:46Z</time>
      </trkpt>
      <trkpt lat="25.670024" lon="-100.323936">
        <ele>530.786</ele>
        <time>2020-02-03T15:37:47Z</time>
      </trkpt>
      <trkpt lat="25.670019" lon="-100.323908">
        <ele>529.469</ele>
        <time>2020-02-03T15:37:48Z</time>
      </trkpt>
      <trkpt lat="25.670015" lon="-100.32388">
        <ele>529.559</ele>
        <time>2020-02-03T15:37:49Z</time>
      </trkpt>
      <trkpt lat="25.670011" lon="-100.323852">
        <ele>527.526</ele>
        <time>2020-02-03T15:37:50Z</time>
      </trkpt>
      <trkpt lat="25.670006" lon="-100.323825">
        <ele>526.264</ele>
        <time>2020-02-03T15:37:51Z</time>
      </trkpt>
      <trkpt lat="25.67" lon="-100.323799">
        <ele>527.018</ele>
        <time>2020-02-03T15:37:52Z</time>
      </trkpt>
      <trkpt lat="25.669995" lon="-100.32377">
        <ele>527.491</ele>
        <time>2020-02-03T15:37:53Z</time>
      </trkpt>
      <trkpt lat="25.669992" lon="-100.32374">
        <ele>528.787</ele>
        <time>2020-02-03T15:37:54Z</time>
      </trkpt>
      <trkpt lat="25.669987" lon="-100.323711">
        <ele>527.158</ele>
        <time>2020-02-03T15:37:55Z</time>
      </trkpt>
      <trkpt lat="25.669983" lon="-100.32368">
        <ele>527.33</ele>
        <time>2020-02-03T15:37:56Z</time>
      </trkpt>
      <trkpt lat="25.669979" lon="-100.323648">
        <ele>528.801</ele>
        <time>2020-02-03T15:37:57Z</time>
      </trkpt>
      <trkpt lat="25.669976" lon="-100.323615">
        <ele>529.16</ele>
        <time>2020-02-03T15:37:58Z</time>
      </trkpt>
      <trkpt lat="25.669971" lon="-100.323585">
        <ele>527.87</ele>
        <time>2020-02-03T15:37:59Z</time>
      </trkpt>
      <trkpt lat="25.669968" lon="-100.323559">
        <ele>528.062</ele>
        <time>2020-02-03T15:38:00Z</time>
      </trkpt>
      <trkpt lat="25.669964" lon="-100.323509">
        <ele>528.709</ele>
        <time>2020-02-03T15:38:02Z</time>
      </trkpt>
      <trkpt lat="25.669962" lon="-100.32348">
        <ele>526.857</ele>
        <time>2020-02-03T15:38:03Z</time>
      </trkpt>
      <trkpt lat="25.669951" lon="-100.323425">
        <ele>529.646</ele>
        <time>2020-02-03T15:38:05Z</time>
      </trkpt>
      <trkpt lat="25.669946" lon="-100.323399">
        <ele>529.452</ele>
        <time>2020-02-03T15:38:06Z</time>
      </trkpt>
      <trkpt lat="25.669942" lon="-100.323372">
        <ele>530.043</ele>
        <time>2020-02-03T15:38:07Z</time>
      </trkpt>
      <trkpt lat="25.669937" lon="-100.323345">
        <ele>528.677</ele>
        <time>2020-02-03T15:38:08Z</time>
      </trkpt>
      <trkpt lat="25.669933" lon="-100.323318">
        <ele>528.574</ele>
        <time>2020-02-03T15:38:09Z</time>
      </trkpt>
      <trkpt lat="25.669927" lon="-100.323291">
        <ele>528.722</ele>
        <time>2020-02-03T15:38:10Z</time>
      </trkpt>
      <trkpt lat="25.669921" lon="-100.323265">
        <ele>528.599</ele>
        <time>2020-02-03T15:38:11Z</time>
      </trkpt>
      <trkpt lat="25.669914" lon="-100.323239">
        <ele>529.013</ele>
        <time>2020-02-03T15:38:12Z</time>
      </trkpt>
      <trkpt lat="25.669896" lon="-100.323187">
        <ele>530.672</ele>
        <time>2020-02-03T15:38:14Z</time>
      </trkpt>
      <trkpt lat="25.669903" lon="-100.323104">
        <ele>532.182</ele>
        <time>2020-02-03T15:38:17Z</time>
      </trkpt>
      <trkpt lat="25.669906" lon="-100.323074">
        <ele>531.928</ele>
        <time>2020-02-03T15:38:18Z</time>
      </trkpt>
      <trkpt lat="25.669897" lon="-100.323014">
        <ele>530.49</ele>
        <time>2020-02-03T15:38:20Z</time>
      </trkpt>
      <trkpt lat="25.669879" lon="-100.32296">
        <ele>529.746</ele>
        <time>2020-02-03T15:38:22Z</time>
      </trkpt>
      <trkpt lat="25.66987" lon="-100.322935">
        <ele>529.212</ele>
        <time>2020-02-03T15:38:23Z</time>
      </trkpt>
      <trkpt lat="25.669857" lon="-100.322909">
        <ele>530.602</ele>
        <time>2020-02-03T15:38:24Z</time>
      </trkpt>
      <trkpt lat="25.669846" lon="-100.322883">
        <ele>532.185</ele>
        <time>2020-02-03T15:38:25Z</time>
      </trkpt>
      <trkpt lat="25.669836" lon="-100.322856">
        <ele>532.856</ele>
        <time>2020-02-03T15:38:26Z</time>
      </trkpt>
      <trkpt lat="25.669828" lon="-100.322761">
        <ele>532.53</ele>
        <time>2020-02-03T15:38:29Z</time>
      </trkpt>
      <trkpt lat="25.669822" lon="-100.322727">
        <ele>531.69</ele>
        <time>2020-02-03T15:38:30Z</time>
      </trkpt>
      <trkpt lat="25.669817" lon="-100.322702">
        <ele>531.421</ele>
        <time>2020-02-03T15:38:31Z</time>
      </trkpt>
      <trkpt lat="25.669813" lon="-100.322676">
        <ele>531.188</ele>
        <time>2020-02-03T15:38:32Z</time>
      </trkpt>
      <trkpt lat="25.669808" lon="-100.322644">
        <ele>530.685</ele>
        <time>2020-02-03T15:38:33Z</time>
      </trkpt>
      <trkpt lat="25.669802" lon="-100.322612">
        <ele>531.099</ele>
        <time>2020-02-03T15:38:34Z</time>
      </trkpt>
      <trkpt lat="25.669776" lon="-100.322518">
        <ele>531.188</ele>
        <time>2020-02-03T15:38:37Z</time>
      </trkpt>
      <trkpt lat="25.669765" lon="-100.322449">
        <ele>530.66</ele>
        <time>2020-02-03T15:38:39Z</time>
      </trkpt>
      <trkpt lat="25.66976" lon="-100.322414">
        <ele>529.301</ele>
        <time>2020-02-03T15:38:40Z</time>
      </trkpt>
      <trkpt lat="25.669754" lon="-100.322379">
        <ele>529.568</ele>
        <time>2020-02-03T15:38:41Z</time>
      </trkpt>
      <trkpt lat="25.669746" lon="-100.322344">
        <ele>529.991</ele>
        <time>2020-02-03T15:38:42Z</time>
      </trkpt>
      <trkpt lat="25.669739" lon="-100.322308">
        <ele>531.752</ele>
        <time>2020-02-03T15:38:43Z</time>
      </trkpt>
      <trkpt lat="25.669734" lon="-100.322273">
        <ele>532.204</ele>
        <time>2020-02-03T15:38:44Z</time>
      </trkpt>
      <trkpt lat="25.669731" lon="-100.322237">
        <ele>531.546</ele>
        <time>2020-02-03T15:38:45Z</time>
      </trkpt>
      <trkpt lat="25.669728" lon="-100.322202">
        <ele>531.877</ele>
        <time>2020-02-03T15:38:46Z</time>
      </trkpt>
      <trkpt lat="25.669724" lon="-100.322167">
        <ele>531.69</ele>
        <time>2020-02-03T15:38:47Z</time>
      </trkpt>
      <trkpt lat="25.669717" lon="-100.322132">
        <ele>530.665</ele>
        <time>2020-02-03T15:38:48Z</time>
      </trkpt>
      <trkpt lat="25.669694" lon="-100.32207">
        <ele>530.064</ele>
        <time>2020-02-03T15:38:50Z</time>
      </trkpt>
      <trkpt lat="25.669681" lon="-100.322041">
        <ele>530.124</ele>
        <time>2020-02-03T15:38:51Z</time>
      </trkpt>
      <trkpt lat="25.669667" lon="-100.321983">
        <ele>530.339</ele>
        <time>2020-02-03T15:38:53Z</time>
      </trkpt>
      <trkpt lat="25.66966" lon="-100.321919">
        <ele>531.327</ele>
        <time>2020-02-03T15:38:55Z</time>
      </trkpt>
      <trkpt lat="25.669656" lon="-100.321887">
        <ele>531.345</ele>
        <time>2020-02-03T15:38:56Z</time>
      </trkpt>
      <trkpt lat="25.669652" lon="-100.321857">
        <ele>532.586</ele>
        <time>2020-02-03T15:38:57Z</time>
      </trkpt>
      <trkpt lat="25.669647" lon="-100.321827">
        <ele>533.007</ele>
        <time>2020-02-03T15:38:58Z</time>
      </trkpt>
      <trkpt lat="25.66964" lon="-100.321768">
        <ele>534.801</ele>
        <time>2020-02-03T15:39:00Z</time>
      </trkpt>
      <trkpt lat="25.669635" lon="-100.321741">
        <ele>535.251</ele>
        <time>2020-02-03T15:39:01Z</time>
      </trkpt>
      <trkpt lat="25.669628" lon="-100.321707">
        <ele>536.008</ele>
        <time>2020-02-03T15:39:02Z</time>
      </trkpt>
      <trkpt lat="25.669623" lon="-100.321678">
        <ele>536.054</ele>
        <time>2020-02-03T15:39:03Z</time>
      </trkpt>
      <trkpt lat="25.669616" lon="-100.321639">
        <ele>535.462</ele>
        <time>2020-02-03T15:39:05Z</time>
      </trkpt>
      <trkpt lat="25.669608" lon="-100.321606">
        <ele>536.058</ele>
        <time>2020-02-03T15:39:06Z</time>
      </trkpt>
      <trkpt lat="25.6696" lon="-100.321575">
        <ele>535.522</ele>
        <time>2020-02-03T15:39:07Z</time>
      </trkpt>
      <trkpt lat="25.669577" lon="-100.321528">
        <ele>534.977</ele>
        <time>2020-02-03T15:39:09Z</time>
      </trkpt>
      <trkpt lat="25.669561" lon="-100.321471">
        <ele>535.537</ele>
        <time>2020-02-03T15:39:11Z</time>
      </trkpt>
      <trkpt lat="25.669558" lon="-100.321408">
        <ele>534.822</ele>
        <time>2020-02-03T15:39:13Z</time>
      </trkpt>
      <trkpt lat="25.669556" lon="-100.32138">
        <ele>534.656</ele>
        <time>2020-02-03T15:39:14Z</time>
      </trkpt>
      <trkpt lat="25.669544" lon="-100.321328">
        <ele>533.507</ele>
        <time>2020-02-03T15:39:16Z</time>
      </trkpt>
      <trkpt lat="25.669524" lon="-100.321277">
        <ele>533.436</ele>
        <time>2020-02-03T15:39:18Z</time>
      </trkpt>
      <trkpt lat="25.669516" lon="-100.32125">
        <ele>533.273</ele>
        <time>2020-02-03T15:39:19Z</time>
      </trkpt>
      <trkpt lat="25.669506" lon="-100.321223">
        <ele>533.126</ele>
        <time>2020-02-03T15:39:20Z</time>
      </trkpt>
      <trkpt lat="25.669496" lon="-100.321195">
        <ele>531.662</ele>
        <time>2020-02-03T15:39:21Z</time>
      </trkpt>
      <trkpt lat="25.669488" lon="-100.321166">
        <ele>532.219</ele>
        <time>2020-02-03T15:39:22Z</time>
      </trkpt>
      <trkpt lat="25.669481" lon="-100.321101">
        <ele>530.181</ele>
        <time>2020-02-03T15:39:24Z</time>
      </trkpt>
      <trkpt lat="25.669479" lon="-100.321068">
        <ele>530.41</ele>
        <time>2020-02-03T15:39:25Z</time>
      </trkpt>
      <trkpt lat="25.669477" lon="-100.321038">
        <ele>530.726</ele>
        <time>2020-02-03T15:39:26Z</time>
      </trkpt>
      <trkpt lat="25.669472" lon="-100.321008">
        <ele>531.736</ele>
        <time>2020-02-03T15:39:27Z</time>
      </trkpt>
      <trkpt lat="25.669467" lon="-100.32098">
        <ele>531.15</ele>
        <time>2020-02-03T15:39:28Z</time>
      </trkpt>
      <trkpt lat="25.669453" lon="-100.320928">
        <ele>531.161</ele>
        <time>2020-02-03T15:39:30Z</time>
      </trkpt>
      <trkpt lat="25.669448" lon="-100.320902">
        <ele>531.52</ele>
        <time>2020-02-03T15:39:31Z</time>
      </trkpt>
      <trkpt lat="25.669442" lon="-100.320849">
        <ele>531.3</ele>
        <time>2020-02-03T15:39:33Z</time>
      </trkpt>
      <trkpt lat="25.669435" lon="-100.320793">
        <ele>531.831</ele>
        <time>2020-02-03T15:39:35Z</time>
      </trkpt>
      <trkpt lat="25.669431" lon="-100.320766">
        <ele>531.152</ele>
        <time>2020-02-03T15:39:36Z</time>
      </trkpt>
      <trkpt lat="25.669425" lon="-100.32074">
        <ele>529.508</ele>
        <time>2020-02-03T15:39:37Z</time>
      </trkpt>
      <trkpt lat="25.669384" lon="-100.320685">
        <ele>527.499</ele>
        <time>2020-02-03T15:39:40Z</time>
      </trkpt>
      <trkpt lat="25.669351" lon="-100.320624">
        <ele>528.51</ele>
        <time>2020-02-03T15:39:43Z</time>
      </trkpt>
      <trkpt lat="25.669347" lon="-100.32056">
        <ele>527.038</ele>
        <time>2020-02-03T15:39:45Z</time>
      </trkpt>
      <trkpt lat="25.669344" lon="-100.320526">
        <ele>530.025</ele>
        <time>2020-02-03T15:39:46Z</time>
      </trkpt>
      <trkpt lat="25.669338" lon="-100.320491">
        <ele>530.272</ele>
        <time>2020-02-03T15:39:47Z</time>
      </trkpt>
      <trkpt lat="25.669333" lon="-100.320457">
        <ele>531.164</ele>
        <time>2020-02-03T15:39:48Z</time>
      </trkpt>
      <trkpt lat="25.669324" lon="-100.320388">
        <ele>527.244</ele>
        <time>2020-02-03T15:39:50Z</time>
      </trkpt>
      <trkpt lat="25.6693" lon="-100.320338">
        <ele>525.211</ele>
        <time>2020-02-03T15:39:53Z</time>
      </trkpt>
      <trkpt lat="25.669298" lon="-100.320271">
        <ele>523.625</ele>
        <time>2020-02-03T15:39:57Z</time>
      </trkpt>
      <trkpt lat="25.669334" lon="-100.320229">
        <ele>522.848</ele>
        <time>2020-02-03T15:40:01Z</time>
      </trkpt>
      <trkpt lat="25.669375" lon="-100.32023">
        <ele>523.778</ele>
        <time>2020-02-03T15:40:10Z</time>
      </trkpt>
      <trkpt lat="25.669357" lon="-100.320167">
        <ele>525.73</ele>
        <time>2020-02-03T15:40:27Z</time>
      </trkpt>
      <trkpt lat="25.669335" lon="-100.32012">
        <ele>526.159</ele>
        <time>2020-02-03T15:40:29Z</time>
      </trkpt>
      <trkpt lat="25.66932" lon="-100.320095">
        <ele>523.657</ele>
        <time>2020-02-03T15:40:30Z</time>
      </trkpt>
      <trkpt lat="25.669308" lon="-100.320072">
        <ele>523.661</ele>
        <time>2020-02-03T15:40:31Z</time>
      </trkpt>
      <trkpt lat="25.66929" lon="-100.320039">
        <ele>525.269</ele>
        <time>2020-02-03T15:40:33Z</time>
      </trkpt>
      <trkpt lat="25.669262" lon="-100.319968">
        <ele>526.424</ele>
        <time>2020-02-03T15:40:36Z</time>
      </trkpt>
      <trkpt lat="25.669249" lon="-100.319938">
        <ele>531.707</ele>
        <time>2020-02-03T15:40:37Z</time>
      </trkpt>
      <trkpt lat="25.669236" lon="-100.319908">
        <ele>527.016</ele>
        <time>2020-02-03T15:40:38Z</time>
      </trkpt>
      <trkpt lat="25.669201" lon="-100.319837">
        <ele>525.963</ele>
        <time>2020-02-03T15:40:41Z</time>
      </trkpt>
      <trkpt lat="25.669191" lon="-100.31978">
        <ele>524.136</ele>
        <time>2020-02-03T15:40:44Z</time>
      </trkpt>
      <trkpt lat="25.669198" lon="-100.31972">
        <ele>525.507</ele>
        <time>2020-02-03T15:40:47Z</time>
      </trkpt>
      <trkpt lat="25.669188" lon="-100.319614">
        <ele>526.742</ele>
        <time>2020-02-03T15:40:50Z</time>
      </trkpt>
      <trkpt lat="25.669174" lon="-100.319541">
        <ele>527.279</ele>
        <time>2020-02-03T15:40:52Z</time>
      </trkpt>
      <trkpt lat="25.669159" lon="-100.319468">
        <ele>525.958</ele>
        <time>2020-02-03T15:40:54Z</time>
      </trkpt>
      <trkpt lat="25.669149" lon="-100.319396">
        <ele>526.095</ele>
        <time>2020-02-03T15:40:56Z</time>
      </trkpt>
      <trkpt lat="25.669126" lon="-100.319331">
        <ele>525.601</ele>
        <time>2020-02-03T15:40:58Z</time>
      </trkpt>
      <trkpt lat="25.669064" lon="-100.319222">
        <ele>526.139</ele>
        <time>2020-02-03T15:41:03Z</time>
      </trkpt>
      <trkpt lat="25.66904" lon="-100.319154">
        <ele>524.813</ele>
        <time>2020-02-03T15:41:05Z</time>
      </trkpt>
      <trkpt lat="25.668978" lon="-100.319072">
        <ele>524.124</ele>
        <time>2020-02-03T15:41:08Z</time>
      </trkpt>
      <trkpt lat="25.668941" lon="-100.319009">
        <ele>523.627</ele>
        <time>2020-02-03T15:41:10Z</time>
      </trkpt>
      <trkpt lat="25.668926" lon="-100.318976">
        <ele>525.042</ele>
        <time>2020-02-03T15:41:11Z</time>
      </trkpt>
      <trkpt lat="25.668905" lon="-100.31891">
        <ele>525.526</ele>
        <time>2020-02-03T15:41:13Z</time>
      </trkpt>
      <trkpt lat="25.668895" lon="-100.318876">
        <ele>526.02</ele>
        <time>2020-02-03T15:41:14Z</time>
      </trkpt>
      <trkpt lat="25.668885" lon="-100.318844">
        <ele>525.275</ele>
        <time>2020-02-03T15:41:15Z</time>
      </trkpt>
      <trkpt lat="25.668877" lon="-100.318811">
        <ele>524.5</ele>
        <time>2020-02-03T15:41:16Z</time>
      </trkpt>
      <trkpt lat="25.668869" lon="-100.318779">
        <ele>523.529</ele>
        <time>2020-02-03T15:41:17Z</time>
      </trkpt>
      <trkpt lat="25.668859" lon="-100.318748">
        <ele>523.642</ele>
        <time>2020-02-03T15:41:18Z</time>
      </trkpt>
      <trkpt lat="25.668849" lon="-100.318716">
        <ele>523.157</ele>
        <time>2020-02-03T15:41:19Z</time>
      </trkpt>
      <trkpt lat="25.668838" lon="-100.318684">
        <ele>522.859</ele>
        <time>2020-02-03T15:41:20Z</time>
      </trkpt>
      <trkpt lat="25.668829" lon="-100.318651">
        <ele>522.977</ele>
        <time>2020-02-03T15:41:21Z</time>
      </trkpt>
      <trkpt lat="25.668823" lon="-100.318618">
        <ele>522.569</ele>
        <time>2020-02-03T15:41:22Z</time>
      </trkpt>
      <trkpt lat="25.668819" lon="-100.318586">
        <ele>523.186</ele>
        <time>2020-02-03T15:41:23Z</time>
      </trkpt>
      <trkpt lat="25.668816" lon="-100.318554">
        <ele>526.576</ele>
        <time>2020-02-03T15:41:24Z</time>
      </trkpt>
      <trkpt lat="25.668813" lon="-100.318521">
        <ele>526.836</ele>
        <time>2020-02-03T15:41:25Z</time>
      </trkpt>
      <trkpt lat="25.668809" lon="-100.318486">
        <ele>527.971</ele>
        <time>2020-02-03T15:41:26Z</time>
      </trkpt>
      <trkpt lat="25.668803" lon="-100.318453">
        <ele>528.441</ele>
        <time>2020-02-03T15:41:27Z</time>
      </trkpt>
      <trkpt lat="25.668804" lon="-100.31839">
        <ele>530.083</ele>
        <time>2020-02-03T15:41:29Z</time>
      </trkpt>
      <trkpt lat="25.668806" lon="-100.318359">
        <ele>530.167</ele>
        <time>2020-02-03T15:41:30Z</time>
      </trkpt>
      <trkpt lat="25.668797" lon="-100.318295">
        <ele>529.914</ele>
        <time>2020-02-03T15:41:32Z</time>
      </trkpt>
      <trkpt lat="25.668781" lon="-100.318227">
        <ele>530.551</ele>
        <time>2020-02-03T15:41:34Z</time>
      </trkpt>
      <trkpt lat="25.668773" lon="-100.318124">
        <ele>529.462</ele>
        <time>2020-02-03T15:41:37Z</time>
      </trkpt>
      <trkpt lat="25.668772" lon="-100.31808">
        <ele>529.574</ele>
        <time>2020-02-03T15:41:38Z</time>
      </trkpt>
      <trkpt lat="25.668774" lon="-100.318036">
        <ele>529.435</ele>
        <time>2020-02-03T15:41:39Z</time>
      </trkpt>
      <trkpt lat="25.668781" lon="-100.317953">
        <ele>529.411</ele>
        <time>2020-02-03T15:41:41Z</time>
      </trkpt>
      <trkpt lat="25.668799" lon="-100.317882">
        <ele>529.413</ele>
        <time>2020-02-03T15:41:43Z</time>
      </trkpt>
      <trkpt lat="25.668804" lon="-100.317828">
        <ele>529.875</ele>
        <time>2020-02-03T15:41:45Z</time>
      </trkpt>
      <trkpt lat="25.66882" lon="-100.317775">
        <ele>530.78</ele>
        <time>2020-02-03T15:41:49Z</time>
      </trkpt>
      <trkpt lat="25.668827" lon="-100.317712">
        <ele>531.079</ele>
        <time>2020-02-03T15:41:51Z</time>
      </trkpt>
      <trkpt lat="25.668828" lon="-100.317644">
        <ele>528.492</ele>
        <time>2020-02-03T15:41:53Z</time>
      </trkpt>
      <trkpt lat="25.668821" lon="-100.317581">
        <ele>528.407</ele>
        <time>2020-02-03T15:41:56Z</time>
      </trkpt>
      <trkpt lat="25.668819" lon="-100.317548">
        <ele>529.094</ele>
        <time>2020-02-03T15:41:57Z</time>
      </trkpt>
      <trkpt lat="25.668817" lon="-100.317513">
        <ele>528.833</ele>
        <time>2020-02-03T15:41:58Z</time>
      </trkpt>
      <trkpt lat="25.668816" lon="-100.317479">
        <ele>527.589</ele>
        <time>2020-02-03T15:41:59Z</time>
      </trkpt>
      <trkpt lat="25.668812" lon="-100.317408">
        <ele>529.552</ele>
        <time>2020-02-03T15:42:01Z</time>
      </trkpt>
      <trkpt lat="25.668807" lon="-100.317373">
        <ele>530.099</ele>
        <time>2020-02-03T15:42:02Z</time>
      </trkpt>
      <trkpt lat="25.668773" lon="-100.317306">
        <ele>532.372</ele>
        <time>2020-02-03T15:42:04Z</time>
      </trkpt>
      <trkpt lat="25.668699" lon="-100.317276">
        <ele>530.83</ele>
        <time>2020-02-03T15:42:06Z</time>
      </trkpt>
      <trkpt lat="25.668582" lon="-100.317288">
        <ele>531.058</ele>
        <time>2020-02-03T15:42:09Z</time>
      </trkpt>
      <trkpt lat="25.668512" lon="-100.317308">
        <ele>532.338</ele>
        <time>2020-02-03T15:42:11Z</time>
      </trkpt>
      <trkpt lat="25.668449" lon="-100.317316">
        <ele>532.666</ele>
        <time>2020-02-03T15:42:13Z</time>
      </trkpt>
      <trkpt lat="25.668387" lon="-100.317321">
        <ele>532.717</ele>
        <time>2020-02-03T15:42:15Z</time>
      </trkpt>
      <trkpt lat="25.668323" lon="-100.31737">
        <ele>534.976</ele>
        <time>2020-02-03T15:42:19Z</time>
      </trkpt>
      <trkpt lat="25.668244" lon="-100.317354">
        <ele>534.208</ele>
        <time>2020-02-03T15:42:22Z</time>
      </trkpt>
      <trkpt lat="25.668172" lon="-100.317334">
        <ele>533.28</ele>
        <time>2020-02-03T15:42:24Z</time>
      </trkpt>
      <trkpt lat="25.668099" lon="-100.317326">
        <ele>531.069</ele>
        <time>2020-02-03T15:42:26Z</time>
      </trkpt>
      <trkpt lat="25.668032" lon="-100.31733">
        <ele>531.255</ele>
        <time>2020-02-03T15:42:28Z</time>
      </trkpt>
      <trkpt lat="25.668001" lon="-100.317334">
        <ele>530.682</ele>
        <time>2020-02-03T15:42:29Z</time>
      </trkpt>
      <trkpt lat="25.667905" lon="-100.317353">
        <ele>530.198</ele>
        <time>2020-02-03T15:42:32Z</time>
      </trkpt>
      <trkpt lat="25.667875" lon="-100.317359">
        <ele>530.25</ele>
        <time>2020-02-03T15:42:33Z</time>
      </trkpt>
      <trkpt lat="25.667817" lon="-100.317342">
        <ele>530.335</ele>
        <time>2020-02-03T15:42:35Z</time>
      </trkpt>
      <trkpt lat="25.667761" lon="-100.317314">
        <ele>527.895</ele>
        <time>2020-02-03T15:42:37Z</time>
      </trkpt>
      <trkpt lat="25.66769" lon="-100.317193">
        <ele>526.642</ele>
        <time>2020-02-03T15:42:42Z</time>
      </trkpt>
      <trkpt lat="25.667703" lon="-100.317143">
        <ele>526.067</ele>
        <time>2020-02-03T15:42:44Z</time>
      </trkpt>
      <trkpt lat="25.667725" lon="-100.317089">
        <ele>526.523</ele>
        <time>2020-02-03T15:42:46Z</time>
      </trkpt>
      <trkpt lat="25.667737" lon="-100.317054">
        <ele>525.36</ele>
        <time>2020-02-03T15:42:47Z</time>
      </trkpt>
      <trkpt lat="25.667748" lon="-100.317019">
        <ele>525.971</ele>
        <time>2020-02-03T15:42:48Z</time>
      </trkpt>
      <trkpt lat="25.667773" lon="-100.31695">
        <ele>527.345</ele>
        <time>2020-02-03T15:42:50Z</time>
      </trkpt>
      <trkpt lat="25.667791" lon="-100.316849">
        <ele>528.236</ele>
        <time>2020-02-03T15:42:53Z</time>
      </trkpt>
      <trkpt lat="25.667798" lon="-100.316816">
        <ele>527.191</ele>
        <time>2020-02-03T15:42:54Z</time>
      </trkpt>
      <trkpt lat="25.667802" lon="-100.316783">
        <ele>526.519</ele>
        <time>2020-02-03T15:42:55Z</time>
      </trkpt>
      <trkpt lat="25.667799" lon="-100.316722">
        <ele>527.716</ele>
        <time>2020-02-03T15:42:57Z</time>
      </trkpt>
      <trkpt lat="25.667792" lon="-100.31666">
        <ele>530.396</ele>
        <time>2020-02-03T15:42:59Z</time>
      </trkpt>
      <trkpt lat="25.667789" lon="-100.316631">
        <ele>530.781</ele>
        <time>2020-02-03T15:43:00Z</time>
      </trkpt>
      <trkpt lat="25.667803" lon="-100.316575">
        <ele>532.71</ele>
        <time>2020-02-03T15:43:02Z</time>
      </trkpt>
      <trkpt lat="25.667821" lon="-100.316519">
        <ele>531.854</ele>
        <time>2020-02-03T15:43:04Z</time>
      </trkpt>
      <trkpt lat="25.667831" lon="-100.316448">
        <ele>532.421</ele>
        <time>2020-02-03T15:43:06Z</time>
      </trkpt>
      <trkpt lat="25.66781" lon="-100.316354">
        <ele>531.213</ele>
        <time>2020-02-03T15:43:11Z</time>
      </trkpt>
      <trkpt lat="25.667803" lon="-100.31632">
        <ele>531.603</ele>
        <time>2020-02-03T15:43:12Z</time>
      </trkpt>
      <trkpt lat="25.667791" lon="-100.31624">
        <ele>532.41</ele>
        <time>2020-02-03T15:43:14Z</time>
      </trkpt>
      <trkpt lat="25.667782" lon="-100.316174">
        <ele>528.713</ele>
        <time>2020-02-03T15:43:16Z</time>
      </trkpt>
      <trkpt lat="25.667779" lon="-100.316065">
        <ele>529.241</ele>
        <time>2020-02-03T15:43:19Z</time>
      </trkpt>
      <trkpt lat="25.667756" lon="-100.315945">
        <ele>530.56</ele>
        <time>2020-02-03T15:43:23Z</time>
      </trkpt>
      <trkpt lat="25.667752" lon="-100.315915">
        <ele>528.571</ele>
        <time>2020-02-03T15:43:24Z</time>
      </trkpt>
      <trkpt lat="25.667747" lon="-100.315888">
        <ele>528.971</ele>
        <time>2020-02-03T15:43:25Z</time>
      </trkpt>
      <trkpt lat="25.667725" lon="-100.315842">
        <ele>525.859</ele>
        <time>2020-02-03T15:43:27Z</time>
      </trkpt>
      <trkpt lat="25.667695" lon="-100.315795">
        <ele>525.477</ele>
        <time>2020-02-03T15:43:29Z</time>
      </trkpt>
      <trkpt lat="25.667678" lon="-100.315737">
        <ele>525.233</ele>
        <time>2020-02-03T15:43:31Z</time>
      </trkpt>
      <trkpt lat="25.667675" lon="-100.315676">
        <ele>525.86</ele>
        <time>2020-02-03T15:43:33Z</time>
      </trkpt>
      <trkpt lat="25.667695" lon="-100.31563">
        <ele>527.731</ele>
        <time>2020-02-03T15:43:37Z</time>
      </trkpt>
      <trkpt lat="25.667695" lon="-100.315599">
        <ele>526.769</ele>
        <time>2020-02-03T15:43:43Z</time>
      </trkpt>
      <trkpt lat="25.667644" lon="-100.315576">
        <ele>527.756</ele>
        <time>2020-02-03T15:44:23Z</time>
      </trkpt>
      <trkpt lat="25.667636" lon="-100.315501">
        <ele>528.488</ele>
        <time>2020-02-03T15:44:38Z</time>
      </trkpt>
      <trkpt lat="25.6676" lon="-100.315457">
        <ele>527.479</ele>
        <time>2020-02-03T15:44:40Z</time>
      </trkpt>
      <trkpt lat="25.667616" lon="-100.315367">
        <ele>527.689</ele>
        <time>2020-02-03T15:44:44Z</time>
      </trkpt>
      <trkpt lat="25.667623" lon="-100.31533">
        <ele>529.555</ele>
        <time>2020-02-03T15:44:45Z</time>
      </trkpt>
      <trkpt lat="25.667649" lon="-100.315214">
        <ele>529.942</ele>
        <time>2020-02-03T15:44:48Z</time>
      </trkpt>
      <trkpt lat="25.667658" lon="-100.315176">
        <ele>531.526</ele>
        <time>2020-02-03T15:44:49Z</time>
      </trkpt>
      <trkpt lat="25.667673" lon="-100.315015">
        <ele>530.002</ele>
        <time>2020-02-03T15:44:53Z</time>
      </trkpt>
      <trkpt lat="25.667632" lon="-100.314897">
        <ele>529.56</ele>
        <time>2020-02-03T15:44:56Z</time>
      </trkpt>
      <trkpt lat="25.667617" lon="-100.314809">
        <ele>529.14</ele>
        <time>2020-02-03T15:44:58Z</time>
      </trkpt>
      <trkpt lat="25.667617" lon="-100.31472">
        <ele>527.816</ele>
        <time>2020-02-03T15:45:00Z</time>
      </trkpt>
      <trkpt lat="25.667617" lon="-100.314681">
        <ele>528.139</ele>
        <time>2020-02-03T15:45:01Z</time>
      </trkpt>
      <trkpt lat="25.667618" lon="-100.314646">
        <ele>528.207</ele>
        <time>2020-02-03T15:45:02Z</time>
      </trkpt>
      <trkpt lat="25.667619" lon="-100.314541">
        <ele>529.479</ele>
        <time>2020-02-03T15:45:05Z</time>
      </trkpt>
      <trkpt lat="25.667616" lon="-100.314502">
        <ele>530.126</ele>
        <time>2020-02-03T15:45:06Z</time>
      </trkpt>
      <trkpt lat="25.667617" lon="-100.314424">
        <ele>529.176</ele>
        <time>2020-02-03T15:45:08Z</time>
      </trkpt>
      <trkpt lat="25.667591" lon="-100.314315">
        <ele>529.64</ele>
        <time>2020-02-03T15:45:11Z</time>
      </trkpt>
      <trkpt lat="25.66758" lon="-100.314278">
        <ele>530.233</ele>
        <time>2020-02-03T15:45:12Z</time>
      </trkpt>
      <trkpt lat="25.66757" lon="-100.314241">
        <ele>530.772</ele>
        <time>2020-02-03T15:45:13Z</time>
      </trkpt>
      <trkpt lat="25.667561" lon="-100.31421">
        <ele>531.731</ele>
        <time>2020-02-03T15:45:14Z</time>
      </trkpt>
      <trkpt lat="25.667554" lon="-100.314179">
        <ele>531.358</ele>
        <time>2020-02-03T15:45:15Z</time>
      </trkpt>
      <trkpt lat="25.667555" lon="-100.314116">
        <ele>531.901</ele>
        <time>2020-02-03T15:45:17Z</time>
      </trkpt>
      <trkpt lat="25.667558" lon="-100.314085">
        <ele>529.453</ele>
        <time>2020-02-03T15:45:18Z</time>
      </trkpt>
      <trkpt lat="25.667554" lon="-100.314017">
        <ele>528.497</ele>
        <time>2020-02-03T15:45:20Z</time>
      </trkpt>
      <trkpt lat="25.667553" lon="-100.313986">
        <ele>529.284</ele>
        <time>2020-02-03T15:45:21Z</time>
      </trkpt>
      <trkpt lat="25.667554" lon="-100.313955">
        <ele>527.935</ele>
        <time>2020-02-03T15:45:22Z</time>
      </trkpt>
      <trkpt lat="25.667544" lon="-100.313893">
        <ele>528.782</ele>
        <time>2020-02-03T15:45:24Z</time>
      </trkpt>
      <trkpt lat="25.667517" lon="-100.313828">
        <ele>529.714</ele>
        <time>2020-02-03T15:45:26Z</time>
      </trkpt>
      <trkpt lat="25.667498" lon="-100.313762">
        <ele>529.994</ele>
        <time>2020-02-03T15:45:28Z</time>
      </trkpt>
      <trkpt lat="25.667491" lon="-100.313694">
        <ele>530.355</ele>
        <time>2020-02-03T15:45:30Z</time>
      </trkpt>
      <trkpt lat="25.667493" lon="-100.313626">
        <ele>532.924</ele>
        <time>2020-02-03T15:45:32Z</time>
      </trkpt>
      <trkpt lat="25.667483" lon="-100.313561">
        <ele>533.739</ele>
        <time>2020-02-03T15:45:34Z</time>
      </trkpt>
      <trkpt lat="25.667471" lon="-100.313495">
        <ele>536.352</ele>
        <time>2020-02-03T15:45:36Z</time>
      </trkpt>
      <trkpt lat="25.667465" lon="-100.313462">
        <ele>537.561</ele>
        <time>2020-02-03T15:45:37Z</time>
      </trkpt>
      <trkpt lat="25.667444" lon="-100.313398">
        <ele>537.123</ele>
        <time>2020-02-03T15:45:39Z</time>
      </trkpt>
      <trkpt lat="25.667434" lon="-100.313336">
        <ele>536.281</ele>
        <time>2020-02-03T15:45:41Z</time>
      </trkpt>
      <trkpt lat="25.667432" lon="-100.313302">
        <ele>536.511</ele>
        <time>2020-02-03T15:45:42Z</time>
      </trkpt>
      <trkpt lat="25.667427" lon="-100.313238">
        <ele>536.773</ele>
        <time>2020-02-03T15:45:44Z</time>
      </trkpt>
      <trkpt lat="25.667423" lon="-100.313197">
        <ele>535.945</ele>
        <time>2020-02-03T15:45:46Z</time>
      </trkpt>
      <trkpt lat="25.667429" lon="-100.313131">
        <ele>534.251</ele>
        <time>2020-02-03T15:45:48Z</time>
      </trkpt>
      <trkpt lat="25.667392" lon="-100.31306">
        <ele>534.372</ele>
        <time>2020-02-03T15:45:51Z</time>
      </trkpt>
      <trkpt lat="25.66736" lon="-100.312998">
        <ele>532.028</ele>
        <time>2020-02-03T15:45:53Z</time>
      </trkpt>
      <trkpt lat="25.667345" lon="-100.312932">
        <ele>531.593</ele>
        <time>2020-02-03T15:45:55Z</time>
      </trkpt>
      <trkpt lat="25.667355" lon="-100.312863">
        <ele>530.644</ele>
        <time>2020-02-03T15:45:57Z</time>
      </trkpt>
      <trkpt lat="25.667357" lon="-100.312829">
        <ele>526.664</ele>
        <time>2020-02-03T15:45:58Z</time>
      </trkpt>
      <trkpt lat="25.667348" lon="-100.312736">
        <ele>525.687</ele>
        <time>2020-02-03T15:46:01Z</time>
      </trkpt>
      <trkpt lat="25.667344" lon="-100.312709">
        <ele>526.222</ele>
        <time>2020-02-03T15:46:02Z</time>
      </trkpt>
      <trkpt lat="25.667339" lon="-100.312679">
        <ele>526.742</ele>
        <time>2020-02-03T15:46:03Z</time>
      </trkpt>
      <trkpt lat="25.667316" lon="-100.312617">
        <ele>526.993</ele>
        <time>2020-02-03T15:46:05Z</time>
      </trkpt>
      <trkpt lat="25.667302" lon="-100.312587">
        <ele>527.107</ele>
        <time>2020-02-03T15:46:06Z</time>
      </trkpt>
      <trkpt lat="25.667286" lon="-100.312503">
        <ele>527.524</ele>
        <time>2020-02-03T15:46:09Z</time>
      </trkpt>
      <trkpt lat="25.667305" lon="-100.312383">
        <ele>525.729</ele>
        <time>2020-02-03T15:46:13Z</time>
      </trkpt>
      <trkpt lat="25.667297" lon="-100.312304">
        <ele>526.364</ele>
        <time>2020-02-03T15:46:16Z</time>
      </trkpt>
      <trkpt lat="25.667288" lon="-100.312237">
        <ele>527.53</ele>
        <time>2020-02-03T15:46:18Z</time>
      </trkpt>
      <trkpt lat="25.66727" lon="-100.312159">
        <ele>527.685</ele>
        <time>2020-02-03T15:46:21Z</time>
      </trkpt>
      <trkpt lat="25.667255" lon="-100.31206">
        <ele>527.232</ele>
        <time>2020-02-03T15:46:24Z</time>
      </trkpt>
      <trkpt lat="25.667253" lon="-100.312029">
        <ele>527.519</ele>
        <time>2020-02-03T15:46:25Z</time>
      </trkpt>
      <trkpt lat="25.667244" lon="-100.311974">
        <ele>527.432</ele>
        <time>2020-02-03T15:46:27Z</time>
      </trkpt>
      <trkpt lat="25.667223" lon="-100.311907">
        <ele>528.332</ele>
        <time>2020-02-03T15:46:29Z</time>
      </trkpt>
      <trkpt lat="25.6672" lon="-100.311848">
        <ele>527.7</ele>
        <time>2020-02-03T15:46:31Z</time>
      </trkpt>
      <trkpt lat="25.667188" lon="-100.311782">
        <ele>528.437</ele>
        <time>2020-02-03T15:46:33Z</time>
      </trkpt>
      <trkpt lat="25.667174" lon="-100.311696">
        <ele>527.124</ele>
        <time>2020-02-03T15:46:36Z</time>
      </trkpt>
      <trkpt lat="25.667133" lon="-100.31156">
        <ele>527.433</ele>
        <time>2020-02-03T15:46:41Z</time>
      </trkpt>
      <trkpt lat="25.667134" lon="-100.311495">
        <ele>527.813</ele>
        <time>2020-02-03T15:46:43Z</time>
      </trkpt>
      <trkpt lat="25.667137" lon="-100.311463">
        <ele>527.014</ele>
        <time>2020-02-03T15:46:44Z</time>
      </trkpt>
      <trkpt lat="25.667141" lon="-100.311431">
        <ele>526.544</ele>
        <time>2020-02-03T15:46:45Z</time>
      </trkpt>
      <trkpt lat="25.667143" lon="-100.311399">
        <ele>526.083</ele>
        <time>2020-02-03T15:46:46Z</time>
      </trkpt>
      <trkpt lat="25.667136" lon="-100.311323">
        <ele>525.357</ele>
        <time>2020-02-03T15:46:49Z</time>
      </trkpt>
      <trkpt lat="25.667125" lon="-100.311261">
        <ele>525.357</ele>
        <time>2020-02-03T15:46:51Z</time>
      </trkpt>
      <trkpt lat="25.667119" lon="-100.311205">
        <ele>525.357</ele>
        <time>2020-02-03T15:46:53Z</time>
      </trkpt>
      <trkpt lat="25.667099" lon="-100.311144">
        <ele>522.371</ele>
        <time>2020-02-03T15:46:55Z</time>
      </trkpt>
      <trkpt lat="25.667091" lon="-100.311111">
        <ele>521.983</ele>
        <time>2020-02-03T15:46:56Z</time>
      </trkpt>
      <trkpt lat="25.667085" lon="-100.311078">
        <ele>521.024</ele>
        <time>2020-02-03T15:46:57Z</time>
      </trkpt>
      <trkpt lat="25.667079" lon="-100.311009">
        <ele>520.753</ele>
        <time>2020-02-03T15:46:59Z</time>
      </trkpt>
      <trkpt lat="25.667076" lon="-100.310977">
        <ele>520.561</ele>
        <time>2020-02-03T15:47:00Z</time>
      </trkpt>
      <trkpt lat="25.667073" lon="-100.310946">
        <ele>520.921</ele>
        <time>2020-02-03T15:47:01Z</time>
      </trkpt>
      <trkpt lat="25.667069" lon="-100.31092">
        <ele>519.447</ele>
        <time>2020-02-03T15:47:03Z</time>
      </trkpt>
      <trkpt lat="25.667069" lon="-100.31092">
        <ele>519.476</ele>
        <time>2020-02-03T15:47:11Z</time>
      </trkpt>
      <trkpt lat="25.667069" lon="-100.31092">
        <ele>518.582</ele>
        <time>2020-02-03T15:47:12Z</time>
      </trkpt>
      <trkpt lat="25.667067" lon="-100.310865">
        <ele>518.394</ele>
        <time>2020-02-03T15:47:15Z</time>
      </trkpt>
      <trkpt lat="25.667071" lon="-100.310813">
        <ele>517.892</ele>
        <time>2020-02-03T15:47:19Z</time>
      </trkpt>
      <trkpt lat="25.667065" lon="-100.310763">
        <ele>518.191</ele>
        <time>2020-02-03T15:47:21Z</time>
      </trkpt>
      <trkpt lat="25.667062" lon="-100.310736">
        <ele>518.551</ele>
        <time>2020-02-03T15:47:22Z</time>
      </trkpt>
      <trkpt lat="25.667059" lon="-100.310704">
        <ele>519.181</ele>
        <time>2020-02-03T15:47:23Z</time>
      </trkpt>
      <trkpt lat="25.667064" lon="-100.31064">
        <ele>518.73</ele>
        <time>2020-02-03T15:47:25Z</time>
      </trkpt>
      <trkpt lat="25.667083" lon="-100.310579">
        <ele>518.204</ele>
        <time>2020-02-03T15:47:27Z</time>
      </trkpt>
      <trkpt lat="25.667116" lon="-100.310523">
        <ele>518.547</ele>
        <time>2020-02-03T15:47:29Z</time>
      </trkpt>
      <trkpt lat="25.667156" lon="-100.310474">
        <ele>517.978</ele>
        <time>2020-02-03T15:47:31Z</time>
      </trkpt>
      <trkpt lat="25.667189" lon="-100.310422">
        <ele>518.163</ele>
        <time>2020-02-03T15:47:33Z</time>
      </trkpt>
      <trkpt lat="25.667206" lon="-100.310394">
        <ele>518.531</ele>
        <time>2020-02-03T15:47:34Z</time>
      </trkpt>
      <trkpt lat="25.667223" lon="-100.310367">
        <ele>519.117</ele>
        <time>2020-02-03T15:47:35Z</time>
      </trkpt>
      <trkpt lat="25.667241" lon="-100.31034">
        <ele>518.509</ele>
        <time>2020-02-03T15:47:36Z</time>
      </trkpt>
      <trkpt lat="25.667258" lon="-100.310314">
        <ele>518.249</ele>
        <time>2020-02-03T15:47:37Z</time>
      </trkpt>
      <trkpt lat="25.667275" lon="-100.310288">
        <ele>517.777</ele>
        <time>2020-02-03T15:47:38Z</time>
      </trkpt>
      <trkpt lat="25.667292" lon="-100.310261">
        <ele>518.674</ele>
        <time>2020-02-03T15:47:39Z</time>
      </trkpt>
      <trkpt lat="25.66731" lon="-100.310235">
        <ele>518.641</ele>
        <time>2020-02-03T15:47:40Z</time>
      </trkpt>
      <trkpt lat="25.667327" lon="-100.310212">
        <ele>518.154</ele>
        <time>2020-02-03T15:47:41Z</time>
      </trkpt>
      <trkpt lat="25.667356" lon="-100.310163">
        <ele>516.804</ele>
        <time>2020-02-03T15:47:43Z</time>
      </trkpt>
      <trkpt lat="25.667371" lon="-100.310138">
        <ele>514.989</ele>
        <time>2020-02-03T15:47:44Z</time>
      </trkpt>
      <trkpt lat="25.667387" lon="-100.310114">
        <ele>514.458</ele>
        <time>2020-02-03T15:47:45Z</time>
      </trkpt>
      <trkpt lat="25.667447" lon="-100.310055">
        <ele>513.122</ele>
        <time>2020-02-03T15:47:48Z</time>
      </trkpt>
      <trkpt lat="25.667479" lon="-100.310007">
        <ele>513.333</ele>
        <time>2020-02-03T15:47:50Z</time>
      </trkpt>
      <trkpt lat="25.667503" lon="-100.309953">
        <ele>513.12</ele>
        <time>2020-02-03T15:47:52Z</time>
      </trkpt>
      <trkpt lat="25.667536" lon="-100.309903">
        <ele>513.034</ele>
        <time>2020-02-03T15:47:54Z</time>
      </trkpt>
      <trkpt lat="25.667553" lon="-100.309878">
        <ele>512.476</ele>
        <time>2020-02-03T15:47:55Z</time>
      </trkpt>
      <trkpt lat="25.667597" lon="-100.309844">
        <ele>513.89</ele>
        <time>2020-02-03T15:47:57Z</time>
      </trkpt>
      <trkpt lat="25.667617" lon="-100.309828">
        <ele>513.291</ele>
        <time>2020-02-03T15:47:58Z</time>
      </trkpt>
      <trkpt lat="25.667635" lon="-100.309777">
        <ele>515.138</ele>
        <time>2020-02-03T15:48:00Z</time>
      </trkpt>
      <trkpt lat="25.667623" lon="-100.309713">
        <ele>515.913</ele>
        <time>2020-02-03T15:48:02Z</time>
      </trkpt>
      <trkpt lat="25.667586" lon="-100.309616">
        <ele>515.901</ele>
        <time>2020-02-03T15:48:05Z</time>
      </trkpt>
      <trkpt lat="25.667574" lon="-100.309584">
        <ele>516.086</ele>
        <time>2020-02-03T15:48:06Z</time>
      </trkpt>
      <trkpt lat="25.667564" lon="-100.309551">
        <ele>517.331</ele>
        <time>2020-02-03T15:48:07Z</time>
      </trkpt>
      <trkpt lat="25.66756" lon="-100.309485">
        <ele>514.831</ele>
        <time>2020-02-03T15:48:09Z</time>
      </trkpt>
      <trkpt lat="25.667585" lon="-100.309388">
        <ele>513.18</ele>
        <time>2020-02-03T15:48:12Z</time>
      </trkpt>
      <trkpt lat="25.667613" lon="-100.309326">
        <ele>513.675</ele>
        <time>2020-02-03T15:48:14Z</time>
      </trkpt>
      <trkpt lat="25.667627" lon="-100.309297">
        <ele>513.637</ele>
        <time>2020-02-03T15:48:15Z</time>
      </trkpt>
      <trkpt lat="25.667643" lon="-100.309234">
        <ele>513.419</ele>
        <time>2020-02-03T15:48:17Z</time>
      </trkpt>
      <trkpt lat="25.667639" lon="-100.30917">
        <ele>513.755</ele>
        <time>2020-02-03T15:48:19Z</time>
      </trkpt>
      <trkpt lat="25.667635" lon="-100.309138">
        <ele>513.427</ele>
        <time>2020-02-03T15:48:20Z</time>
      </trkpt>
      <trkpt lat="25.667632" lon="-100.309106">
        <ele>513.054</ele>
        <time>2020-02-03T15:48:21Z</time>
      </trkpt>
      <trkpt lat="25.667632" lon="-100.309073">
        <ele>512.996</ele>
        <time>2020-02-03T15:48:22Z</time>
      </trkpt>
      <trkpt lat="25.667631" lon="-100.309041">
        <ele>512.944</ele>
        <time>2020-02-03T15:48:24Z</time>
      </trkpt>
      <trkpt lat="25.66763" lon="-100.30901">
        <ele>513.626</ele>
        <time>2020-02-03T15:48:26Z</time>
      </trkpt>
      <trkpt lat="25.66768" lon="-100.308989">
        <ele>513.087</ele>
        <time>2020-02-03T15:48:28Z</time>
      </trkpt>
      <trkpt lat="25.667743" lon="-100.308979">
        <ele>512.352</ele>
        <time>2020-02-03T15:48:30Z</time>
      </trkpt>
      <trkpt lat="25.667776" lon="-100.308973">
        <ele>513.376</ele>
        <time>2020-02-03T15:48:31Z</time>
      </trkpt>
      <trkpt lat="25.667806" lon="-100.308969">
        <ele>513.897</ele>
        <time>2020-02-03T15:48:32Z</time>
      </trkpt>
      <trkpt lat="25.667834" lon="-100.308966">
        <ele>513.728</ele>
        <time>2020-02-03T15:48:33Z</time>
      </trkpt>
      <trkpt lat="25.667861" lon="-100.308962">
        <ele>513.22</ele>
        <time>2020-02-03T15:48:34Z</time>
      </trkpt>
      <trkpt lat="25.667886" lon="-100.308957">
        <ele>512.392</ele>
        <time>2020-02-03T15:48:35Z</time>
      </trkpt>
      <trkpt lat="25.667913" lon="-100.30895">
        <ele>512.614</ele>
        <time>2020-02-03T15:48:36Z</time>
      </trkpt>
      <trkpt lat="25.667939" lon="-100.308942">
        <ele>512.307</ele>
        <time>2020-02-03T15:48:37Z</time>
      </trkpt>
      <trkpt lat="25.667966" lon="-100.308935">
        <ele>512.401</ele>
        <time>2020-02-03T15:48:38Z</time>
      </trkpt>
      <trkpt lat="25.667991" lon="-100.308928">
        <ele>512.343</ele>
        <time>2020-02-03T15:48:39Z</time>
      </trkpt>
      <trkpt lat="25.668017" lon="-100.308921">
        <ele>512.341</ele>
        <time>2020-02-03T15:48:40Z</time>
      </trkpt>
      <trkpt lat="25.668071" lon="-100.308905">
        <ele>512.524</ele>
        <time>2020-02-03T15:48:42Z</time>
      </trkpt>
      <trkpt lat="25.668098" lon="-100.308898">
        <ele>511.7</ele>
        <time>2020-02-03T15:48:43Z</time>
      </trkpt>
      <trkpt lat="25.668125" lon="-100.308894">
        <ele>512.295</ele>
        <time>2020-02-03T15:48:44Z</time>
      </trkpt>
      <trkpt lat="25.668205" lon="-100.308889">
        <ele>512.602</ele>
        <time>2020-02-03T15:48:47Z</time>
      </trkpt>
      <trkpt lat="25.66826" lon="-100.308876">
        <ele>514.192</ele>
        <time>2020-02-03T15:48:49Z</time>
      </trkpt>
      <trkpt lat="25.668289" lon="-100.308868">
        <ele>514.281</ele>
        <time>2020-02-03T15:48:50Z</time>
      </trkpt>
      <trkpt lat="25.668319" lon="-100.308862">
        <ele>514.456</ele>
        <time>2020-02-03T15:48:51Z</time>
      </trkpt>
      <trkpt lat="25.668349" lon="-100.308857">
        <ele>515.52</ele>
        <time>2020-02-03T15:48:52Z</time>
      </trkpt>
      <trkpt lat="25.668379" lon="-100.308853">
        <ele>515.848</ele>
        <time>2020-02-03T15:48:53Z</time>
      </trkpt>
      <trkpt lat="25.668425" lon="-100.308846">
        <ele>517.09</ele>
        <time>2020-02-03T15:48:55Z</time>
      </trkpt>
      <trkpt lat="25.668453" lon="-100.30884">
        <ele>517.894</ele>
        <time>2020-02-03T15:48:57Z</time>
      </trkpt>
      <trkpt lat="25.66852" lon="-100.308828">
        <ele>519.603</ele>
        <time>2020-02-03T15:49:00Z</time>
      </trkpt>
      <trkpt lat="25.668573" lon="-100.30883">
        <ele>520.214</ele>
        <time>2020-02-03T15:49:02Z</time>
      </trkpt>
      <trkpt lat="25.668629" lon="-100.308799">
        <ele>520.753</ele>
        <time>2020-02-03T15:49:05Z</time>
      </trkpt>
      <trkpt lat="25.668665" lon="-100.308766">
        <ele>522.329</ele>
        <time>2020-02-03T15:49:08Z</time>
      </trkpt>
      <trkpt lat="25.668756" lon="-100.308751">
        <ele>523.123</ele>
        <time>2020-02-03T15:49:12Z</time>
      </trkpt>
      <trkpt lat="25.668812" lon="-100.30873">
        <ele>523.213</ele>
        <time>2020-02-03T15:49:14Z</time>
      </trkpt>
      <trkpt lat="25.66884" lon="-100.308717">
        <ele>523.249</ele>
        <time>2020-02-03T15:49:15Z</time>
      </trkpt>
      <trkpt lat="25.668869" lon="-100.308705">
        <ele>524.003</ele>
        <time>2020-02-03T15:49:16Z</time>
      </trkpt>
      <trkpt lat="25.668898" lon="-100.308691">
        <ele>523.588</ele>
        <time>2020-02-03T15:49:17Z</time>
      </trkpt>
      <trkpt lat="25.668925" lon="-100.308677">
        <ele>524.179</ele>
        <time>2020-02-03T15:49:18Z</time>
      </trkpt>
      <trkpt lat="25.668951" lon="-100.308663">
        <ele>524.307</ele>
        <time>2020-02-03T15:49:19Z</time>
      </trkpt>
      <trkpt lat="25.668979" lon="-100.308649">
        <ele>522.67</ele>
        <time>2020-02-03T15:49:20Z</time>
      </trkpt>
      <trkpt lat="25.669009" lon="-100.308631">
        <ele>520.473</ele>
        <time>2020-02-03T15:49:21Z</time>
      </trkpt>
      <trkpt lat="25.669039" lon="-100.308612">
        <ele>518.874</ele>
        <time>2020-02-03T15:49:22Z</time>
      </trkpt>
      <trkpt lat="25.669067" lon="-100.308595">
        <ele>514.924</ele>
        <time>2020-02-03T15:49:23Z</time>
      </trkpt>
      <trkpt lat="25.669096" lon="-100.30858">
        <ele>513.418</ele>
        <time>2020-02-03T15:49:24Z</time>
      </trkpt>
      <trkpt lat="25.669124" lon="-100.308568">
        <ele>512.677</ele>
        <time>2020-02-03T15:49:25Z</time>
      </trkpt>
      <trkpt lat="25.669152" lon="-100.308557">
        <ele>512.45</ele>
        <time>2020-02-03T15:49:26Z</time>
      </trkpt>
      <trkpt lat="25.669178" lon="-100.308545">
        <ele>513.038</ele>
        <time>2020-02-03T15:49:27Z</time>
      </trkpt>
      <trkpt lat="25.669206" lon="-100.308534">
        <ele>511.657</ele>
        <time>2020-02-03T15:49:28Z</time>
      </trkpt>
      <trkpt lat="25.669243" lon="-100.308523">
        <ele>510.796</ele>
        <time>2020-02-03T15:49:30Z</time>
      </trkpt>
      <trkpt lat="25.669297" lon="-100.308528">
        <ele>510.925</ele>
        <time>2020-02-03T15:49:32Z</time>
      </trkpt>
      <trkpt lat="25.669352" lon="-100.308549">
        <ele>510.886</ele>
        <time>2020-02-03T15:49:34Z</time>
      </trkpt>
      <trkpt lat="25.669473" lon="-100.308566">
        <ele>511.043</ele>
        <time>2020-02-03T15:49:38Z</time>
      </trkpt>
      <trkpt lat="25.669503" lon="-100.30857">
        <ele>510.787</ele>
        <time>2020-02-03T15:49:39Z</time>
      </trkpt>
      <trkpt lat="25.669557" lon="-100.308566">
        <ele>509.97</ele>
        <time>2020-02-03T15:49:41Z</time>
      </trkpt>
      <trkpt lat="25.669615" lon="-100.308561">
        <ele>510.542</ele>
        <time>2020-02-03T15:49:43Z</time>
      </trkpt>
      <trkpt lat="25.669704" lon="-100.308573">
        <ele>510.553</ele>
        <time>2020-02-03T15:49:46Z</time>
      </trkpt>
      <trkpt lat="25.669759" lon="-100.308568">
        <ele>511.032</ele>
        <time>2020-02-03T15:49:48Z</time>
      </trkpt>
      <trkpt lat="25.669826" lon="-100.308525">
        <ele>511.276</ele>
        <time>2020-02-03T15:49:52Z</time>
      </trkpt>
      <trkpt lat="25.66988" lon="-100.308515">
        <ele>510.702</ele>
        <time>2020-02-03T15:49:54Z</time>
      </trkpt>
      <trkpt lat="25.669908" lon="-100.308513">
        <ele>509.577</ele>
        <time>2020-02-03T15:49:55Z</time>
      </trkpt>
      <trkpt lat="25.669934" lon="-100.308508">
        <ele>509.376</ele>
        <time>2020-02-03T15:49:56Z</time>
      </trkpt>
      <trkpt lat="25.669962" lon="-100.308504">
        <ele>508.81</ele>
        <time>2020-02-03T15:49:57Z</time>
      </trkpt>
      <trkpt lat="25.669992" lon="-100.308502">
        <ele>512.504</ele>
        <time>2020-02-03T15:49:58Z</time>
      </trkpt>
      <trkpt lat="25.670024" lon="-100.308498">
        <ele>512.056</ele>
        <time>2020-02-03T15:49:59Z</time>
      </trkpt>
      <trkpt lat="25.670053" lon="-100.308495">
        <ele>510.984</ele>
        <time>2020-02-03T15:50:00Z</time>
      </trkpt>
      <trkpt lat="25.670081" lon="-100.308489">
        <ele>511.371</ele>
        <time>2020-02-03T15:50:01Z</time>
      </trkpt>
      <trkpt lat="25.670108" lon="-100.308483">
        <ele>511.058</ele>
        <time>2020-02-03T15:50:02Z</time>
      </trkpt>
      <trkpt lat="25.67013" lon="-100.308476">
        <ele>511.062</ele>
        <time>2020-02-03T15:50:03Z</time>
      </trkpt>
      <trkpt lat="25.670152" lon="-100.30842">
        <ele>511.113</ele>
        <time>2020-02-03T15:50:06Z</time>
      </trkpt>
      <trkpt lat="25.670149" lon="-100.308364">
        <ele>511.114</ele>
        <time>2020-02-03T15:50:08Z</time>
      </trkpt>
      <trkpt lat="25.670184" lon="-100.308314">
        <ele>511.009</ele>
        <time>2020-02-03T15:50:11Z</time>
      </trkpt>
      <trkpt lat="25.670243" lon="-100.308307">
        <ele>510.358</ele>
        <time>2020-02-03T15:50:13Z</time>
      </trkpt>
      <trkpt lat="25.67027" lon="-100.308303">
        <ele>510.016</ele>
        <time>2020-02-03T15:50:14Z</time>
      </trkpt>
      <trkpt lat="25.670321" lon="-100.308288">
        <ele>508.689</ele>
        <time>2020-02-03T15:50:16Z</time>
      </trkpt>
      <trkpt lat="25.670351" lon="-100.30828">
        <ele>509.015</ele>
        <time>2020-02-03T15:50:17Z</time>
      </trkpt>
      <trkpt lat="25.670383" lon="-100.308272">
        <ele>509.663</ele>
        <time>2020-02-03T15:50:18Z</time>
      </trkpt>
      <trkpt lat="25.670414" lon="-100.308265">
        <ele>509.438</ele>
        <time>2020-02-03T15:50:19Z</time>
      </trkpt>
      <trkpt lat="25.670444" lon="-100.308259">
        <ele>509.598</ele>
        <time>2020-02-03T15:50:20Z</time>
      </trkpt>
      <trkpt lat="25.67047" lon="-100.308251">
        <ele>510.116</ele>
        <time>2020-02-03T15:50:21Z</time>
      </trkpt>
      <trkpt lat="25.670494" lon="-100.308242">
        <ele>510.245</ele>
        <time>2020-02-03T15:50:22Z</time>
      </trkpt>
      <trkpt lat="25.670517" lon="-100.308231">
        <ele>507.689</ele>
        <time>2020-02-03T15:50:23Z</time>
      </trkpt>
      <trkpt lat="25.670542" lon="-100.308223">
        <ele>506.781</ele>
        <time>2020-02-03T15:50:24Z</time>
      </trkpt>
      <trkpt lat="25.670566" lon="-100.308215">
        <ele>507.119</ele>
        <time>2020-02-03T15:50:25Z</time>
      </trkpt>
      <trkpt lat="25.670605" lon="-100.308206">
        <ele>508.388</ele>
        <time>2020-02-03T15:50:27Z</time>
      </trkpt>
      <trkpt lat="25.670654" lon="-100.308207">
        <ele>509.904</ele>
        <time>2020-02-03T15:50:29Z</time>
      </trkpt>
      <trkpt lat="25.670679" lon="-100.308206">
        <ele>510.84</ele>
        <time>2020-02-03T15:50:30Z</time>
      </trkpt>
      <trkpt lat="25.670705" lon="-100.308204">
        <ele>511.261</ele>
        <time>2020-02-03T15:50:31Z</time>
      </trkpt>
      <trkpt lat="25.670755" lon="-100.308198">
        <ele>510.956</ele>
        <time>2020-02-03T15:50:33Z</time>
      </trkpt>
      <trkpt lat="25.670803" lon="-100.308209">
        <ele>512.138</ele>
        <time>2020-02-03T15:50:35Z</time>
      </trkpt>
      <trkpt lat="25.670852" lon="-100.30822">
        <ele>512.338</ele>
        <time>2020-02-03T15:50:37Z</time>
      </trkpt>
      <trkpt lat="25.670905" lon="-100.308212">
        <ele>513.47</ele>
        <time>2020-02-03T15:50:39Z</time>
      </trkpt>
      <trkpt lat="25.670959" lon="-100.308194">
        <ele>513.477</ele>
        <time>2020-02-03T15:50:41Z</time>
      </trkpt>
      <trkpt lat="25.670984" lon="-100.308187">
        <ele>512.553</ele>
        <time>2020-02-03T15:50:42Z</time>
      </trkpt>
      <trkpt lat="25.671009" lon="-100.308179">
        <ele>511.479</ele>
        <time>2020-02-03T15:50:43Z</time>
      </trkpt>
      <trkpt lat="25.671055" lon="-100.308159">
        <ele>509.694</ele>
        <time>2020-02-03T15:50:45Z</time>
      </trkpt>
      <trkpt lat="25.671081" lon="-100.308149">
        <ele>509.533</ele>
        <time>2020-02-03T15:50:46Z</time>
      </trkpt>
      <trkpt lat="25.671107" lon="-100.308141">
        <ele>509.384</ele>
        <time>2020-02-03T15:50:47Z</time>
      </trkpt>
      <trkpt lat="25.671133" lon="-100.308133">
        <ele>509.096</ele>
        <time>2020-02-03T15:50:48Z</time>
      </trkpt>
      <trkpt lat="25.671157" lon="-100.308124">
        <ele>509.536</ele>
        <time>2020-02-03T15:50:49Z</time>
      </trkpt>
      <trkpt lat="25.671187" lon="-100.308087">
        <ele>508.072</ele>
        <time>2020-02-03T15:50:51Z</time>
      </trkpt>
      <trkpt lat="25.671186" lon="-100.308033">
        <ele>508.336</ele>
        <time>2020-02-03T15:50:53Z</time>
      </trkpt>
      <trkpt lat="25.671179" lon="-100.307977">
        <ele>508.707</ele>
        <time>2020-02-03T15:50:55Z</time>
      </trkpt>
      <trkpt lat="25.671168" lon="-100.3079">
        <ele>509.199</ele>
        <time>2020-02-03T15:50:58Z</time>
      </trkpt>
      <trkpt lat="25.671156" lon="-100.30785">
        <ele>508.361</ele>
        <time>2020-02-03T15:51:00Z</time>
      </trkpt>
      <trkpt lat="25.671153" lon="-100.307779">
        <ele>509.812</ele>
        <time>2020-02-03T15:51:03Z</time>
      </trkpt>
      <trkpt lat="25.671148" lon="-100.307721">
        <ele>508.263</ele>
        <time>2020-02-03T15:51:06Z</time>
      </trkpt>
      <trkpt lat="25.67114" lon="-100.307649">
        <ele>508.521</ele>
        <time>2020-02-03T15:51:09Z</time>
      </trkpt>
      <trkpt lat="25.671148" lon="-100.307577">
        <ele>508.755</ele>
        <time>2020-02-03T15:51:12Z</time>
      </trkpt>
      <trkpt lat="25.671145" lon="-100.307511">
        <ele>509.94</ele>
        <time>2020-02-03T15:51:15Z</time>
      </trkpt>
      <trkpt lat="25.671132" lon="-100.30744">
        <ele>512.166</ele>
        <time>2020-02-03T15:51:18Z</time>
      </trkpt>
      <trkpt lat="25.671133" lon="-100.307374">
        <ele>514.033</ele>
        <time>2020-02-03T15:51:21Z</time>
      </trkpt>
      <trkpt lat="25.671139" lon="-100.307309">
        <ele>514.729</ele>
        <time>2020-02-03T15:51:24Z</time>
      </trkpt>
      <trkpt lat="25.671162" lon="-100.307241">
        <ele>515.302</ele>
        <time>2020-02-03T15:51:27Z</time>
      </trkpt>
      <trkpt lat="25.671167" lon="-100.307185">
        <ele>514.457</ele>
        <time>2020-02-03T15:51:29Z</time>
      </trkpt>
      <trkpt lat="25.671177" lon="-100.307102">
        <ele>513.326</ele>
        <time>2020-02-03T15:51:32Z</time>
      </trkpt>
      <trkpt lat="25.671183" lon="-100.307047">
        <ele>512.701</ele>
        <time>2020-02-03T15:51:34Z</time>
      </trkpt>
      <trkpt lat="25.671192" lon="-100.307001">
        <ele>510.924</ele>
        <time>2020-02-03T15:51:36Z</time>
      </trkpt>
      <trkpt lat="25.671199" lon="-100.306951">
        <ele>513.014</ele>
        <time>2020-02-03T15:51:38Z</time>
      </trkpt>
      <trkpt lat="25.671185" lon="-100.306869">
        <ele>513.029</ele>
        <time>2020-02-03T15:51:41Z</time>
      </trkpt>
      <trkpt lat="25.671192" lon="-100.30681">
        <ele>515.589</ele>
        <time>2020-02-03T15:51:43Z</time>
      </trkpt>
      <trkpt lat="25.671205" lon="-100.30675">
        <ele>515.639</ele>
        <time>2020-02-03T15:51:45Z</time>
      </trkpt>
      <trkpt lat="25.671241" lon="-100.306661">
        <ele>515.131</ele>
        <time>2020-02-03T15:51:48Z</time>
      </trkpt>
      <trkpt lat="25.671254" lon="-100.306629">
        <ele>514.054</ele>
        <time>2020-02-03T15:51:49Z</time>
      </trkpt>
      <trkpt lat="25.671266" lon="-100.306573">
        <ele>510.771</ele>
        <time>2020-02-03T15:51:51Z</time>
      </trkpt>
      <trkpt lat="25.671253" lon="-100.306517">
        <ele>510.521</ele>
        <time>2020-02-03T15:51:53Z</time>
      </trkpt>
      <trkpt lat="25.671257" lon="-100.30646">
        <ele>509.462</ele>
        <time>2020-02-03T15:51:55Z</time>
      </trkpt>
      <trkpt lat="25.671259" lon="-100.306413">
        <ele>509.144</ele>
        <time>2020-02-03T15:51:57Z</time>
      </trkpt>
      <trkpt lat="25.671238" lon="-100.306337">
        <ele>509.911</ele>
        <time>2020-02-03T15:52:00Z</time>
      </trkpt>
      <trkpt lat="25.671231" lon="-100.306268">
        <ele>509.519</ele>
        <time>2020-02-03T15:52:03Z</time>
      </trkpt>
      <trkpt lat="25.671227" lon="-100.306242">
        <ele>508.736</ele>
        <time>2020-02-03T15:52:05Z</time>
      </trkpt>
      <trkpt lat="25.671113" lon="-100.306183">
        <ele>508.528</ele>
        <time>2020-02-03T15:52:10Z</time>
      </trkpt>
      <trkpt lat="25.671074" lon="-100.306157">
        <ele>509.805</ele>
        <time>2020-02-03T15:52:11Z</time>
      </trkpt>
      <trkpt lat="25.671015" lon="-100.306086">
        <ele>508.97</ele>
        <time>2020-02-03T15:52:13Z</time>
      </trkpt>
      <trkpt lat="25.670957" lon="-100.306032">
        <ele>508.902</ele>
        <time>2020-02-03T15:52:15Z</time>
      </trkpt>
      <trkpt lat="25.670902" lon="-100.305988">
        <ele>508.316</ele>
        <time>2020-02-03T15:52:17Z</time>
      </trkpt>
      <trkpt lat="25.670878" lon="-100.305969">
        <ele>508.56</ele>
        <time>2020-02-03T15:52:18Z</time>
      </trkpt>
      <trkpt lat="25.670859" lon="-100.305955">
        <ele>504.169</ele>
        <time>2020-02-03T15:52:19Z</time>
      </trkpt>
      <trkpt lat="25.670791" lon="-100.305922">
        <ele>504.508</ele>
        <time>2020-02-03T15:52:22Z</time>
      </trkpt>
      <trkpt lat="25.670733" lon="-100.305912">
        <ele>504.861</ele>
        <time>2020-02-03T15:52:24Z</time>
      </trkpt>
      <trkpt lat="25.670682" lon="-100.305912">
        <ele>504.809</ele>
        <time>2020-02-03T15:52:26Z</time>
      </trkpt>
      <trkpt lat="25.670598" lon="-100.305875">
        <ele>506.383</ele>
        <time>2020-02-03T15:52:30Z</time>
      </trkpt>
      <trkpt lat="25.670565" lon="-100.305834">
        <ele>507.229</ele>
        <time>2020-02-03T15:52:32Z</time>
      </trkpt>
      <trkpt lat="25.670546" lon="-100.305778">
        <ele>508.291</ele>
        <time>2020-02-03T15:52:34Z</time>
      </trkpt>
      <trkpt lat="25.670536" lon="-100.305726">
        <ele>506.982</ele>
        <time>2020-02-03T15:52:36Z</time>
      </trkpt>
      <trkpt lat="25.670532" lon="-100.305675">
        <ele>505.293</ele>
        <time>2020-02-03T15:52:40Z</time>
      </trkpt>
      <trkpt lat="25.670522" lon="-100.305579">
        <ele>504.829</ele>
        <time>2020-02-03T15:52:43Z</time>
      </trkpt>
      <trkpt lat="25.670522" lon="-100.305512">
        <ele>503.281</ele>
        <time>2020-02-03T15:52:45Z</time>
      </trkpt>
      <trkpt lat="25.670518" lon="-100.305458">
        <ele>502.064</ele>
        <time>2020-02-03T15:52:47Z</time>
      </trkpt>
      <trkpt lat="25.670517" lon="-100.30543">
        <ele>500.596</ele>
        <time>2020-02-03T15:52:50Z</time>
      </trkpt>
      <trkpt lat="25.670545" lon="-100.305383">
        <ele>500.409</ele>
        <time>2020-02-03T15:52:57Z</time>
      </trkpt>
      <trkpt lat="25.670591" lon="-100.305377">
        <ele>499.805</ele>
        <time>2020-02-03T15:53:03Z</time>
      </trkpt>
      <trkpt lat="25.670642" lon="-100.305378">
        <ele>499.61</ele>
        <time>2020-02-03T15:53:07Z</time>
      </trkpt>
      <trkpt lat="25.670669" lon="-100.30538">
        <ele>499.292</ele>
        <time>2020-02-03T15:53:10Z</time>
      </trkpt>
      <trkpt lat="25.670714" lon="-100.305385">
        <ele>499.642</ele>
        <time>2020-02-03T15:53:13Z</time>
      </trkpt>
      <trkpt lat="25.670756" lon="-100.305364">
        <ele>499.459</ele>
        <time>2020-02-03T15:53:15Z</time>
      </trkpt>
      <trkpt lat="25.670789" lon="-100.305319">
        <ele>498.207</ele>
        <time>2020-02-03T15:53:17Z</time>
      </trkpt>
      <trkpt lat="25.670799" lon="-100.30523">
        <ele>497.972</ele>
        <time>2020-02-03T15:53:20Z</time>
      </trkpt>
      <trkpt lat="25.670782" lon="-100.305175">
        <ele>497.799</ele>
        <time>2020-02-03T15:53:22Z</time>
      </trkpt>
      <trkpt lat="25.670749" lon="-100.305128">
        <ele>497.819</ele>
        <time>2020-02-03T15:53:24Z</time>
      </trkpt>
      <trkpt lat="25.670732" lon="-100.305105">
        <ele>498.218</ele>
        <time>2020-02-03T15:53:25Z</time>
      </trkpt>
      <trkpt lat="25.670712" lon="-100.305047">
        <ele>498.324</ele>
        <time>2020-02-03T15:53:28Z</time>
      </trkpt>
      <trkpt lat="25.670729" lon="-100.304999">
        <ele>498.898</ele>
        <time>2020-02-03T15:53:30Z</time>
      </trkpt>
      <trkpt lat="25.670759" lon="-100.304954">
        <ele>497.537</ele>
        <time>2020-02-03T15:53:32Z</time>
      </trkpt>
      <trkpt lat="25.670773" lon="-100.304931">
        <ele>497.448</ele>
        <time>2020-02-03T15:53:33Z</time>
      </trkpt>
      <trkpt lat="25.670786" lon="-100.304907">
        <ele>497.541</ele>
        <time>2020-02-03T15:53:34Z</time>
      </trkpt>
      <trkpt lat="25.670798" lon="-100.304883">
        <ele>498.146</ele>
        <time>2020-02-03T15:53:35Z</time>
      </trkpt>
      <trkpt lat="25.670811" lon="-100.304857">
        <ele>496.445</ele>
        <time>2020-02-03T15:53:36Z</time>
      </trkpt>
      <trkpt lat="25.670822" lon="-100.304831">
        <ele>497.055</ele>
        <time>2020-02-03T15:53:37Z</time>
      </trkpt>
      <trkpt lat="25.670834" lon="-100.304804">
        <ele>497.413</ele>
        <time>2020-02-03T15:53:38Z</time>
      </trkpt>
      <trkpt lat="25.670848" lon="-100.304778">
        <ele>498.142</ele>
        <time>2020-02-03T15:53:39Z</time>
      </trkpt>
      <trkpt lat="25.67086" lon="-100.304751">
        <ele>497.469</ele>
        <time>2020-02-03T15:53:40Z</time>
      </trkpt>
      <trkpt lat="25.670873" lon="-100.304725">
        <ele>497.348</ele>
        <time>2020-02-03T15:53:41Z</time>
      </trkpt>
      <trkpt lat="25.670886" lon="-100.304701">
        <ele>498.247</ele>
        <time>2020-02-03T15:53:42Z</time>
      </trkpt>
      <trkpt lat="25.670909" lon="-100.304647">
        <ele>499.18</ele>
        <time>2020-02-03T15:53:44Z</time>
      </trkpt>
      <trkpt lat="25.670922" lon="-100.304618">
        <ele>499.305</ele>
        <time>2020-02-03T15:53:45Z</time>
      </trkpt>
      <trkpt lat="25.670971" lon="-100.30455">
        <ele>500.538</ele>
        <time>2020-02-03T15:53:48Z</time>
      </trkpt>
      <trkpt lat="25.671006" lon="-100.304506">
        <ele>500.744</ele>
        <time>2020-02-03T15:53:50Z</time>
      </trkpt>
      <trkpt lat="25.671029" lon="-100.304453">
        <ele>499.539</ele>
        <time>2020-02-03T15:53:52Z</time>
      </trkpt>
      <trkpt lat="25.671059" lon="-100.304376">
        <ele>498.91</ele>
        <time>2020-02-03T15:53:55Z</time>
      </trkpt>
      <trkpt lat="25.671067" lon="-100.30435">
        <ele>498.399</ele>
        <time>2020-02-03T15:53:56Z</time>
      </trkpt>
      <trkpt lat="25.671075" lon="-100.304325">
        <ele>498.596</ele>
        <time>2020-02-03T15:53:57Z</time>
      </trkpt>
      <trkpt lat="25.671081" lon="-100.304298">
        <ele>498.542</ele>
        <time>2020-02-03T15:53:58Z</time>
      </trkpt>
      <trkpt lat="25.671086" lon="-100.304268">
        <ele>498.473</ele>
        <time>2020-02-03T15:53:59Z</time>
      </trkpt>
      <trkpt lat="25.671091" lon="-100.30424">
        <ele>499.556</ele>
        <time>2020-02-03T15:54:00Z</time>
      </trkpt>
      <trkpt lat="25.671121" lon="-100.304156">
        <ele>499.628</ele>
        <time>2020-02-03T15:54:03Z</time>
      </trkpt>
      <trkpt lat="25.671131" lon="-100.304124">
        <ele>499.834</ele>
        <time>2020-02-03T15:54:04Z</time>
      </trkpt>
      <trkpt lat="25.671139" lon="-100.304094">
        <ele>500.343</ele>
        <time>2020-02-03T15:54:05Z</time>
      </trkpt>
      <trkpt lat="25.671147" lon="-100.304063">
        <ele>500.05</ele>
        <time>2020-02-03T15:54:06Z</time>
      </trkpt>
      <trkpt lat="25.671155" lon="-100.304033">
        <ele>501.892</ele>
        <time>2020-02-03T15:54:07Z</time>
      </trkpt>
      <trkpt lat="25.671164" lon="-100.304001">
        <ele>503.05</ele>
        <time>2020-02-03T15:54:08Z</time>
      </trkpt>
      <trkpt lat="25.671172" lon="-100.303967">
        <ele>502.854</ele>
        <time>2020-02-03T15:54:09Z</time>
      </trkpt>
      <trkpt lat="25.67118" lon="-100.303933">
        <ele>503.619</ele>
        <time>2020-02-03T15:54:10Z</time>
      </trkpt>
      <trkpt lat="25.671197" lon="-100.30387">
        <ele>503.571</ele>
        <time>2020-02-03T15:54:12Z</time>
      </trkpt>
      <trkpt lat="25.671207" lon="-100.30384">
        <ele>503.916</ele>
        <time>2020-02-03T15:54:13Z</time>
      </trkpt>
      <trkpt lat="25.671216" lon="-100.303808">
        <ele>504.289</ele>
        <time>2020-02-03T15:54:14Z</time>
      </trkpt>
      <trkpt lat="25.671225" lon="-100.303776">
        <ele>504.597</ele>
        <time>2020-02-03T15:54:15Z</time>
      </trkpt>
      <trkpt lat="25.671233" lon="-100.303742">
        <ele>503.387</ele>
        <time>2020-02-03T15:54:16Z</time>
      </trkpt>
      <trkpt lat="25.671239" lon="-100.303709">
        <ele>505.8</ele>
        <time>2020-02-03T15:54:17Z</time>
      </trkpt>
      <trkpt lat="25.67125" lon="-100.303644">
        <ele>504.695</ele>
        <time>2020-02-03T15:54:19Z</time>
      </trkpt>
      <trkpt lat="25.671257" lon="-100.303612">
        <ele>504.721</ele>
        <time>2020-02-03T15:54:20Z</time>
      </trkpt>
      <trkpt lat="25.671262" lon="-100.303579">
        <ele>505.085</ele>
        <time>2020-02-03T15:54:21Z</time>
      </trkpt>
      <trkpt lat="25.671267" lon="-100.303546">
        <ele>505.595</ele>
        <time>2020-02-03T15:54:22Z</time>
      </trkpt>
      <trkpt lat="25.671273" lon="-100.303513">
        <ele>505.215</ele>
        <time>2020-02-03T15:54:23Z</time>
      </trkpt>
      <trkpt lat="25.671279" lon="-100.303479">
        <ele>504.307</ele>
        <time>2020-02-03T15:54:24Z</time>
      </trkpt>
      <trkpt lat="25.671278" lon="-100.303416">
        <ele>504.869</ele>
        <time>2020-02-03T15:54:26Z</time>
      </trkpt>
      <trkpt lat="25.671273" lon="-100.303353">
        <ele>505.14</ele>
        <time>2020-02-03T15:54:28Z</time>
      </trkpt>
      <trkpt lat="25.67127" lon="-100.303261">
        <ele>504.5</ele>
        <time>2020-02-03T15:54:31Z</time>
      </trkpt>
      <trkpt lat="25.671268" lon="-100.303232">
        <ele>503.846</ele>
        <time>2020-02-03T15:54:32Z</time>
      </trkpt>
      <trkpt lat="25.671272" lon="-100.303171">
        <ele>504.152</ele>
        <time>2020-02-03T15:54:34Z</time>
      </trkpt>
      <trkpt lat="25.671282" lon="-100.303109">
        <ele>503.852</ele>
        <time>2020-02-03T15:54:36Z</time>
      </trkpt>
      <trkpt lat="25.671288" lon="-100.303078">
        <ele>502.945</ele>
        <time>2020-02-03T15:54:37Z</time>
      </trkpt>
      <trkpt lat="25.67131" lon="-100.303007">
        <ele>501.672</ele>
        <time>2020-02-03T15:54:40Z</time>
      </trkpt>
      <trkpt lat="25.671344" lon="-100.30295">
        <ele>503.166</ele>
        <time>2020-02-03T15:54:42Z</time>
      </trkpt>
      <trkpt lat="25.671361" lon="-100.302923">
        <ele>503.98</ele>
        <time>2020-02-03T15:54:43Z</time>
      </trkpt>
      <trkpt lat="25.671378" lon="-100.302896">
        <ele>504.441</ele>
        <time>2020-02-03T15:54:44Z</time>
      </trkpt>
      <trkpt lat="25.671394" lon="-100.302868">
        <ele>502.027</ele>
        <time>2020-02-03T15:54:45Z</time>
      </trkpt>
      <trkpt lat="25.671421" lon="-100.302809">
        <ele>501.014</ele>
        <time>2020-02-03T15:54:47Z</time>
      </trkpt>
      <trkpt lat="25.671432" lon="-100.302781">
        <ele>501.57</ele>
        <time>2020-02-03T15:54:48Z</time>
      </trkpt>
      <trkpt lat="25.671441" lon="-100.302752">
        <ele>501.9</ele>
        <time>2020-02-03T15:54:49Z</time>
      </trkpt>
      <trkpt lat="25.671502" lon="-100.302671">
        <ele>502.047</ele>
        <time>2020-02-03T15:54:53Z</time>
      </trkpt>
      <trkpt lat="25.671544" lon="-100.302637">
        <ele>502.881</ele>
        <time>2020-02-03T15:54:56Z</time>
      </trkpt>
      <trkpt lat="25.671596" lon="-100.302585">
        <ele>500.289</ele>
        <time>2020-02-03T15:54:59Z</time>
      </trkpt>
      <trkpt lat="25.671616" lon="-100.302568">
        <ele>500.471</ele>
        <time>2020-02-03T15:55:00Z</time>
      </trkpt>
      <trkpt lat="25.67167" lon="-100.302535">
        <ele>501.115</ele>
        <time>2020-02-03T15:55:03Z</time>
      </trkpt>
      <trkpt lat="25.671702" lon="-100.302517">
        <ele>500.749</ele>
        <time>2020-02-03T15:55:05Z</time>
      </trkpt>
      <trkpt lat="25.671725" lon="-100.302506">
        <ele>502.125</ele>
        <time>2020-02-03T15:55:06Z</time>
      </trkpt>
      <trkpt lat="25.671777" lon="-100.302488">
        <ele>501.028</ele>
        <time>2020-02-03T15:55:08Z</time>
      </trkpt>
      <trkpt lat="25.671801" lon="-100.302478">
        <ele>500.88</ele>
        <time>2020-02-03T15:55:09Z</time>
      </trkpt>
      <trkpt lat="25.671825" lon="-100.302468">
        <ele>500.779</ele>
        <time>2020-02-03T15:55:10Z</time>
      </trkpt>
      <trkpt lat="25.671872" lon="-100.30243">
        <ele>497.709</ele>
        <time>2020-02-03T15:55:12Z</time>
      </trkpt>
      <trkpt lat="25.671895" lon="-100.302373">
        <ele>497.094</ele>
        <time>2020-02-03T15:55:15Z</time>
      </trkpt>
      <trkpt lat="25.671906" lon="-100.302323">
        <ele>497.9</ele>
        <time>2020-02-03T15:55:17Z</time>
      </trkpt>
      <trkpt lat="25.671948" lon="-100.302268">
        <ele>500.169</ele>
        <time>2020-02-03T15:55:19Z</time>
      </trkpt>
      <trkpt lat="25.671997" lon="-100.302222">
        <ele>499.908</ele>
        <time>2020-02-03T15:55:21Z</time>
      </trkpt>
      <trkpt lat="25.67204" lon="-100.302175">
        <ele>499.255</ele>
        <time>2020-02-03T15:55:23Z</time>
      </trkpt>
      <trkpt lat="25.67206" lon="-100.302153">
        <ele>499.335</ele>
        <time>2020-02-03T15:55:24Z</time>
      </trkpt>
      <trkpt lat="25.67208" lon="-100.30213">
        <ele>499.887</ele>
        <time>2020-02-03T15:55:25Z</time>
      </trkpt>
      <trkpt lat="25.6721" lon="-100.302107">
        <ele>500.904</ele>
        <time>2020-02-03T15:55:26Z</time>
      </trkpt>
      <trkpt lat="25.672133" lon="-100.302057">
        <ele>501.71</ele>
        <time>2020-02-03T15:55:28Z</time>
      </trkpt>
      <trkpt lat="25.672156" lon="-100.302017">
        <ele>502.648</ele>
        <time>2020-02-03T15:55:30Z</time>
      </trkpt>
      <trkpt lat="25.672219" lon="-100.301944">
        <ele>502.056</ele>
        <time>2020-02-03T15:55:34Z</time>
      </trkpt>
      <trkpt lat="25.672262" lon="-100.30191">
        <ele>501.926</ele>
        <time>2020-02-03T15:55:36Z</time>
      </trkpt>
      <trkpt lat="25.67229" lon="-100.301855">
        <ele>502.703</ele>
        <time>2020-02-03T15:55:38Z</time>
      </trkpt>
      <trkpt lat="25.672305" lon="-100.301824">
        <ele>503.111</ele>
        <time>2020-02-03T15:55:39Z</time>
      </trkpt>
      <trkpt lat="25.672318" lon="-100.301792">
        <ele>502.329</ele>
        <time>2020-02-03T15:55:40Z</time>
      </trkpt>
      <trkpt lat="25.672329" lon="-100.301761">
        <ele>502.052</ele>
        <time>2020-02-03T15:55:41Z</time>
      </trkpt>
      <trkpt lat="25.672355" lon="-100.3017">
        <ele>502.506</ele>
        <time>2020-02-03T15:55:43Z</time>
      </trkpt>
      <trkpt lat="25.672386" lon="-100.301642">
        <ele>502.671</ele>
        <time>2020-02-03T15:55:45Z</time>
      </trkpt>
      <trkpt lat="25.6724" lon="-100.301612">
        <ele>502.342</ele>
        <time>2020-02-03T15:55:46Z</time>
      </trkpt>
      <trkpt lat="25.672411" lon="-100.301583">
        <ele>502.923</ele>
        <time>2020-02-03T15:55:47Z</time>
      </trkpt>
      <trkpt lat="25.672426" lon="-100.301536">
        <ele>502.236</ele>
        <time>2020-02-03T15:55:49Z</time>
      </trkpt>
      <trkpt lat="25.672447" lon="-100.301483">
        <ele>502.672</ele>
        <time>2020-02-03T15:55:51Z</time>
      </trkpt>
      <trkpt lat="25.672461" lon="-100.301408">
        <ele>502.466</ele>
        <time>2020-02-03T15:55:54Z</time>
      </trkpt>
      <trkpt lat="25.672467" lon="-100.301376">
        <ele>503.352</ele>
        <time>2020-02-03T15:55:55Z</time>
      </trkpt>
      <trkpt lat="25.672486" lon="-100.301316">
        <ele>503.474</ele>
        <time>2020-02-03T15:55:57Z</time>
      </trkpt>
      <trkpt lat="25.672494" lon="-100.301286">
        <ele>503.941</ele>
        <time>2020-02-03T15:55:58Z</time>
      </trkpt>
      <trkpt lat="25.672501" lon="-100.301256">
        <ele>504.419</ele>
        <time>2020-02-03T15:55:59Z</time>
      </trkpt>
      <trkpt lat="25.672507" lon="-100.301225">
        <ele>502.958</ele>
        <time>2020-02-03T15:56:00Z</time>
      </trkpt>
      <trkpt lat="25.672513" lon="-100.301196">
        <ele>502.385</ele>
        <time>2020-02-03T15:56:01Z</time>
      </trkpt>
      <trkpt lat="25.672532" lon="-100.301142">
        <ele>503.269</ele>
        <time>2020-02-03T15:56:03Z</time>
      </trkpt>
      <trkpt lat="25.672542" lon="-100.301116">
        <ele>504.762</ele>
        <time>2020-02-03T15:56:04Z</time>
      </trkpt>
      <trkpt lat="25.672552" lon="-100.301089">
        <ele>504.118</ele>
        <time>2020-02-03T15:56:05Z</time>
      </trkpt>
      <trkpt lat="25.672559" lon="-100.301063">
        <ele>505.721</ele>
        <time>2020-02-03T15:56:06Z</time>
      </trkpt>
      <trkpt lat="25.672567" lon="-100.301038">
        <ele>507.405</ele>
        <time>2020-02-03T15:56:07Z</time>
      </trkpt>
      <trkpt lat="25.672574" lon="-100.301012">
        <ele>507.836</ele>
        <time>2020-02-03T15:56:08Z</time>
      </trkpt>
      <trkpt lat="25.672579" lon="-100.300987">
        <ele>507.484</ele>
        <time>2020-02-03T15:56:09Z</time>
      </trkpt>
      <trkpt lat="25.672582" lon="-100.300935">
        <ele>505.135</ele>
        <time>2020-02-03T15:56:11Z</time>
      </trkpt>
      <trkpt lat="25.672597" lon="-100.30088">
        <ele>504.727</ele>
        <time>2020-02-03T15:56:14Z</time>
      </trkpt>
      <trkpt lat="25.67261" lon="-100.300838">
        <ele>504.451</ele>
        <time>2020-02-03T15:56:16Z</time>
      </trkpt>
      <trkpt lat="25.672624" lon="-100.300717">
        <ele>503.759</ele>
        <time>2020-02-03T15:56:20Z</time>
      </trkpt>
      <trkpt lat="25.672623" lon="-100.300654">
        <ele>503.604</ele>
        <time>2020-02-03T15:56:22Z</time>
      </trkpt>
      <trkpt lat="25.672632" lon="-100.300601">
        <ele>503.835</ele>
        <time>2020-02-03T15:56:24Z</time>
      </trkpt>
      <trkpt lat="25.672621" lon="-100.300551">
        <ele>505.173</ele>
        <time>2020-02-03T15:56:29Z</time>
      </trkpt>
      <trkpt lat="25.672567" lon="-100.300515">
        <ele>506.484</ele>
        <time>2020-02-03T15:56:32Z</time>
      </trkpt>
      <trkpt lat="25.672546" lon="-100.300455">
        <ele>507.135</ele>
        <time>2020-02-03T15:56:34Z</time>
      </trkpt>
      <trkpt lat="25.672544" lon="-100.300361">
        <ele>507.241</ele>
        <time>2020-02-03T15:56:37Z</time>
      </trkpt>
      <trkpt lat="25.672542" lon="-100.300331">
        <ele>507.858</ele>
        <time>2020-02-03T15:56:38Z</time>
      </trkpt>
      <trkpt lat="25.672541" lon="-100.300298">
        <ele>508.295</ele>
        <time>2020-02-03T15:56:39Z</time>
      </trkpt>
      <trkpt lat="25.672542" lon="-100.300237">
        <ele>509.14</ele>
        <time>2020-02-03T15:56:41Z</time>
      </trkpt>
      <trkpt lat="25.672544" lon="-100.300209">
        <ele>508.825</ele>
        <time>2020-02-03T15:56:42Z</time>
      </trkpt>
      <trkpt lat="25.672543" lon="-100.300177">
        <ele>508.109</ele>
        <time>2020-02-03T15:56:43Z</time>
      </trkpt>
      <trkpt lat="25.672535" lon="-100.300114">
        <ele>507.787</ele>
        <time>2020-02-03T15:56:45Z</time>
      </trkpt>
      <trkpt lat="25.67252" lon="-100.300024">
        <ele>507.075</ele>
        <time>2020-02-03T15:56:48Z</time>
      </trkpt>
      <trkpt lat="25.672518" lon="-100.29996">
        <ele>505.552</ele>
        <time>2020-02-03T15:56:50Z</time>
      </trkpt>
      <trkpt lat="25.672512" lon="-100.299907">
        <ele>503.648</ele>
        <time>2020-02-03T15:56:52Z</time>
      </trkpt>
      <trkpt lat="25.672513" lon="-100.299849">
        <ele>503.25</ele>
        <time>2020-02-03T15:56:54Z</time>
      </trkpt>
      <trkpt lat="25.672507" lon="-100.29979">
        <ele>504.017</ele>
        <time>2020-02-03T15:56:56Z</time>
      </trkpt>
      <trkpt lat="25.672498" lon="-100.299733">
        <ele>503.899</ele>
        <time>2020-02-03T15:56:58Z</time>
      </trkpt>
      <trkpt lat="25.672495" lon="-100.299705">
        <ele>504.268</ele>
        <time>2020-02-03T15:56:59Z</time>
      </trkpt>
      <trkpt lat="25.672494" lon="-100.299674">
        <ele>503.691</ele>
        <time>2020-02-03T15:57:00Z</time>
      </trkpt>
      <trkpt lat="25.672496" lon="-100.299598">
        <ele>501.987</ele>
        <time>2020-02-03T15:57:03Z</time>
      </trkpt>
      <trkpt lat="25.672498" lon="-100.299568">
        <ele>501.797</ele>
        <time>2020-02-03T15:57:04Z</time>
      </trkpt>
      <trkpt lat="25.6725" lon="-100.299539">
        <ele>503.094</ele>
        <time>2020-02-03T15:57:05Z</time>
      </trkpt>
      <trkpt lat="25.672493" lon="-100.29948">
        <ele>503.022</ele>
        <time>2020-02-03T15:57:07Z</time>
      </trkpt>
      <trkpt lat="25.672478" lon="-100.299398">
        <ele>502.549</ele>
        <time>2020-02-03T15:57:10Z</time>
      </trkpt>
      <trkpt lat="25.672478" lon="-100.299342">
        <ele>501.948</ele>
        <time>2020-02-03T15:57:12Z</time>
      </trkpt>
      <trkpt lat="25.67248" lon="-100.299314">
        <ele>501.605</ele>
        <time>2020-02-03T15:57:13Z</time>
      </trkpt>
      <trkpt lat="25.672482" lon="-100.299285">
        <ele>502.665</ele>
        <time>2020-02-03T15:57:14Z</time>
      </trkpt>
      <trkpt lat="25.67248" lon="-100.299227">
        <ele>503.63</ele>
        <time>2020-02-03T15:57:16Z</time>
      </trkpt>
      <trkpt lat="25.672482" lon="-100.299199">
        <ele>504.217</ele>
        <time>2020-02-03T15:57:17Z</time>
      </trkpt>
      <trkpt lat="25.672482" lon="-100.299172">
        <ele>505.343</ele>
        <time>2020-02-03T15:57:18Z</time>
      </trkpt>
      <trkpt lat="25.672481" lon="-100.299145">
        <ele>506.177</ele>
        <time>2020-02-03T15:57:19Z</time>
      </trkpt>
      <trkpt lat="25.672479" lon="-100.299119">
        <ele>506.849</ele>
        <time>2020-02-03T15:57:20Z</time>
      </trkpt>
      <trkpt lat="25.672476" lon="-100.299092">
        <ele>507.939</ele>
        <time>2020-02-03T15:57:21Z</time>
      </trkpt>
      <trkpt lat="25.672462" lon="-100.299015">
        <ele>509.084</ele>
        <time>2020-02-03T15:57:24Z</time>
      </trkpt>
      <trkpt lat="25.67247" lon="-100.298957">
        <ele>510.554</ele>
        <time>2020-02-03T15:57:26Z</time>
      </trkpt>
      <trkpt lat="25.672473" lon="-100.298928">
        <ele>511.698</ele>
        <time>2020-02-03T15:57:27Z</time>
      </trkpt>
      <trkpt lat="25.672474" lon="-100.298898">
        <ele>506.833</ele>
        <time>2020-02-03T15:57:28Z</time>
      </trkpt>
      <trkpt lat="25.672467" lon="-100.298836">
        <ele>505.106</ele>
        <time>2020-02-03T15:57:30Z</time>
      </trkpt>
      <trkpt lat="25.672464" lon="-100.298805">
        <ele>504.239</ele>
        <time>2020-02-03T15:57:31Z</time>
      </trkpt>
      <trkpt lat="25.67247" lon="-100.298741">
        <ele>505.311</ele>
        <time>2020-02-03T15:57:33Z</time>
      </trkpt>
      <trkpt lat="25.672476" lon="-100.298693">
        <ele>505.284</ele>
        <time>2020-02-03T15:57:35Z</time>
      </trkpt>
      <trkpt lat="25.672479" lon="-100.29864">
        <ele>505.728</ele>
        <time>2020-02-03T15:57:37Z</time>
      </trkpt>
      <trkpt lat="25.672501" lon="-100.29858">
        <ele>506.403</ele>
        <time>2020-02-03T15:57:40Z</time>
      </trkpt>
      <trkpt lat="25.672509" lon="-100.298553">
        <ele>506.134</ele>
        <time>2020-02-03T15:57:42Z</time>
      </trkpt>
      <trkpt lat="25.6725" lon="-100.298491">
        <ele>505.889</ele>
        <time>2020-02-03T15:57:45Z</time>
      </trkpt>
      <trkpt lat="25.672497" lon="-100.298411">
        <ele>506.564</ele>
        <time>2020-02-03T15:57:48Z</time>
      </trkpt>
      <trkpt lat="25.672532" lon="-100.298357">
        <ele>506.821</ele>
        <time>2020-02-03T15:57:50Z</time>
      </trkpt>
      <trkpt lat="25.672586" lon="-100.298286">
        <ele>506.771</ele>
        <time>2020-02-03T15:57:53Z</time>
      </trkpt>
      <trkpt lat="25.672604" lon="-100.298264">
        <ele>506.693</ele>
        <time>2020-02-03T15:57:54Z</time>
      </trkpt>
      <trkpt lat="25.672654" lon="-100.298237">
        <ele>504.849</ele>
        <time>2020-02-03T15:57:56Z</time>
      </trkpt>
      <trkpt lat="25.672705" lon="-100.298214">
        <ele>505.73</ele>
        <time>2020-02-03T15:57:58Z</time>
      </trkpt>
      <trkpt lat="25.672741" lon="-100.298176">
        <ele>506.51</ele>
        <time>2020-02-03T15:58:00Z</time>
      </trkpt>
      <trkpt lat="25.672758" lon="-100.298126">
        <ele>506.166</ele>
        <time>2020-02-03T15:58:02Z</time>
      </trkpt>
      <trkpt lat="25.672757" lon="-100.298066">
        <ele>506.883</ele>
        <time>2020-02-03T15:58:04Z</time>
      </trkpt>
      <trkpt lat="25.67275" lon="-100.298002">
        <ele>506.377</ele>
        <time>2020-02-03T15:58:06Z</time>
      </trkpt>
      <trkpt lat="25.672748" lon="-100.29797">
        <ele>506.224</ele>
        <time>2020-02-03T15:58:07Z</time>
      </trkpt>
      <trkpt lat="25.672745" lon="-100.297939">
        <ele>505.976</ele>
        <time>2020-02-03T15:58:08Z</time>
      </trkpt>
      <trkpt lat="25.672742" lon="-100.297909">
        <ele>505.601</ele>
        <time>2020-02-03T15:58:09Z</time>
      </trkpt>
      <trkpt lat="25.672744" lon="-100.297854">
        <ele>505.984</ele>
        <time>2020-02-03T15:58:11Z</time>
      </trkpt>
      <trkpt lat="25.67276" lon="-100.297798">
        <ele>505.548</ele>
        <time>2020-02-03T15:58:13Z</time>
      </trkpt>
      <trkpt lat="25.672787" lon="-100.297744">
        <ele>504.225</ele>
        <time>2020-02-03T15:58:15Z</time>
      </trkpt>
      <trkpt lat="25.672801" lon="-100.297718">
        <ele>504.544</ele>
        <time>2020-02-03T15:58:16Z</time>
      </trkpt>
      <trkpt lat="25.672813" lon="-100.297696">
        <ele>503.569</ele>
        <time>2020-02-03T15:58:17Z</time>
      </trkpt>
      <trkpt lat="25.672831" lon="-100.297647">
        <ele>502.365</ele>
        <time>2020-02-03T15:58:19Z</time>
      </trkpt>
      <trkpt lat="25.672859" lon="-100.297602">
        <ele>501.308</ele>
        <time>2020-02-03T15:58:21Z</time>
      </trkpt>
      <trkpt lat="25.672891" lon="-100.297562">
        <ele>501.251</ele>
        <time>2020-02-03T15:58:23Z</time>
      </trkpt>
      <trkpt lat="25.672907" lon="-100.297542">
        <ele>501.469</ele>
        <time>2020-02-03T15:58:24Z</time>
      </trkpt>
      <trkpt lat="25.672933" lon="-100.297499">
        <ele>501.658</ele>
        <time>2020-02-03T15:58:26Z</time>
      </trkpt>
      <trkpt lat="25.672944" lon="-100.297477">
        <ele>502.034</ele>
        <time>2020-02-03T15:58:27Z</time>
      </trkpt>
      <trkpt lat="25.672957" lon="-100.297453">
        <ele>502.234</ele>
        <time>2020-02-03T15:58:28Z</time>
      </trkpt>
      <trkpt lat="25.672977" lon="-100.297408">
        <ele>502.409</ele>
        <time>2020-02-03T15:58:30Z</time>
      </trkpt>
      <trkpt lat="25.672989" lon="-100.297358">
        <ele>502.473</ele>
        <time>2020-02-03T15:58:32Z</time>
      </trkpt>
      <trkpt lat="25.672996" lon="-100.297333">
        <ele>502.623</ele>
        <time>2020-02-03T15:58:33Z</time>
      </trkpt>
      <trkpt lat="25.673032" lon="-100.297269">
        <ele>502.337</ele>
        <time>2020-02-03T15:58:36Z</time>
      </trkpt>
      <trkpt lat="25.673044" lon="-100.297248">
        <ele>502.434</ele>
        <time>2020-02-03T15:58:37Z</time>
      </trkpt>
      <trkpt lat="25.673056" lon="-100.297226">
        <ele>502.16</ele>
        <time>2020-02-03T15:58:38Z</time>
      </trkpt>
      <trkpt lat="25.673065" lon="-100.297202">
        <ele>502.43</ele>
        <time>2020-02-03T15:58:39Z</time>
      </trkpt>
      <trkpt lat="25.673074" lon="-100.297179">
        <ele>502.236</ele>
        <time>2020-02-03T15:58:40Z</time>
      </trkpt>
      <trkpt lat="25.673083" lon="-100.297154">
        <ele>502.327</ele>
        <time>2020-02-03T15:58:41Z</time>
      </trkpt>
      <trkpt lat="25.673093" lon="-100.297127">
        <ele>502.358</ele>
        <time>2020-02-03T15:58:42Z</time>
      </trkpt>
      <trkpt lat="25.673102" lon="-100.297102">
        <ele>502.78</ele>
        <time>2020-02-03T15:58:43Z</time>
      </trkpt>
      <trkpt lat="25.673111" lon="-100.297075">
        <ele>502.263</ele>
        <time>2020-02-03T15:58:44Z</time>
      </trkpt>
      <trkpt lat="25.67312" lon="-100.297049">
        <ele>501.715</ele>
        <time>2020-02-03T15:58:45Z</time>
      </trkpt>
      <trkpt lat="25.673128" lon="-100.29702">
        <ele>502.154</ele>
        <time>2020-02-03T15:58:46Z</time>
      </trkpt>
      <trkpt lat="25.673135" lon="-100.296993">
        <ele>501.938</ele>
        <time>2020-02-03T15:58:47Z</time>
      </trkpt>
      <trkpt lat="25.673141" lon="-100.296965">
        <ele>501.878</ele>
        <time>2020-02-03T15:58:48Z</time>
      </trkpt>
      <trkpt lat="25.673148" lon="-100.296939">
        <ele>501.206</ele>
        <time>2020-02-03T15:58:49Z</time>
      </trkpt>
      <trkpt lat="25.673154" lon="-100.296912">
        <ele>501.141</ele>
        <time>2020-02-03T15:58:50Z</time>
      </trkpt>
      <trkpt lat="25.673159" lon="-100.296885">
        <ele>502.513</ele>
        <time>2020-02-03T15:58:51Z</time>
      </trkpt>
      <trkpt lat="25.673162" lon="-100.296827">
        <ele>503.021</ele>
        <time>2020-02-03T15:58:53Z</time>
      </trkpt>
      <trkpt lat="25.673173" lon="-100.296768">
        <ele>501.836</ele>
        <time>2020-02-03T15:58:55Z</time>
      </trkpt>
      <trkpt lat="25.673179" lon="-100.296741">
        <ele>501.798</ele>
        <time>2020-02-03T15:58:56Z</time>
      </trkpt>
      <trkpt lat="25.673185" lon="-100.296715">
        <ele>502.107</ele>
        <time>2020-02-03T15:58:57Z</time>
      </trkpt>
      <trkpt lat="25.673191" lon="-100.296687">
        <ele>502.458</ele>
        <time>2020-02-03T15:58:58Z</time>
      </trkpt>
      <trkpt lat="25.673196" lon="-100.296659">
        <ele>502.33</ele>
        <time>2020-02-03T15:58:59Z</time>
      </trkpt>
      <trkpt lat="25.6732" lon="-100.296629">
        <ele>502.452</ele>
        <time>2020-02-03T15:59:00Z</time>
      </trkpt>
      <trkpt lat="25.673204" lon="-100.296598">
        <ele>502.184</ele>
        <time>2020-02-03T15:59:01Z</time>
      </trkpt>
      <trkpt lat="25.673221" lon="-100.296541">
        <ele>501.814</ele>
        <time>2020-02-03T15:59:03Z</time>
      </trkpt>
      <trkpt lat="25.673254" lon="-100.296497">
        <ele>501.518</ele>
        <time>2020-02-03T15:59:05Z</time>
      </trkpt>
      <trkpt lat="25.673273" lon="-100.296476">
        <ele>501.649</ele>
        <time>2020-02-03T15:59:07Z</time>
      </trkpt>
      <trkpt lat="25.673301" lon="-100.296421">
        <ele>500.226</ele>
        <time>2020-02-03T15:59:10Z</time>
      </trkpt>
      <trkpt lat="25.673323" lon="-100.296381">
        <ele>500.765</ele>
        <time>2020-02-03T15:59:12Z</time>
      </trkpt>
      <trkpt lat="25.673336" lon="-100.296359">
        <ele>501.275</ele>
        <time>2020-02-03T15:59:13Z</time>
      </trkpt>
      <trkpt lat="25.673349" lon="-100.296337">
        <ele>500.836</ele>
        <time>2020-02-03T15:59:14Z</time>
      </trkpt>
      <trkpt lat="25.673364" lon="-100.296316">
        <ele>501.43</ele>
        <time>2020-02-03T15:59:15Z</time>
      </trkpt>
      <trkpt lat="25.673379" lon="-100.296296">
        <ele>501.197</ele>
        <time>2020-02-03T15:59:16Z</time>
      </trkpt>
      <trkpt lat="25.673393" lon="-100.296276">
        <ele>501.678</ele>
        <time>2020-02-03T15:59:17Z</time>
      </trkpt>
      <trkpt lat="25.673418" lon="-100.296236">
        <ele>502.26</ele>
        <time>2020-02-03T15:59:19Z</time>
      </trkpt>
      <trkpt lat="25.673443" lon="-100.296173">
        <ele>502.315</ele>
        <time>2020-02-03T15:59:22Z</time>
      </trkpt>
      <trkpt lat="25.673479" lon="-100.29611">
        <ele>502.081</ele>
        <time>2020-02-03T15:59:25Z</time>
      </trkpt>
      <trkpt lat="25.673512" lon="-100.296071">
        <ele>502.357</ele>
        <time>2020-02-03T15:59:27Z</time>
      </trkpt>
      <trkpt lat="25.673533" lon="-100.296026">
        <ele>502.449</ele>
        <time>2020-02-03T15:59:29Z</time>
      </trkpt>
      <trkpt lat="25.673558" lon="-100.295958">
        <ele>500.622</ele>
        <time>2020-02-03T15:59:32Z</time>
      </trkpt>
      <trkpt lat="25.673583" lon="-100.295909">
        <ele>500.227</ele>
        <time>2020-02-03T15:59:34Z</time>
      </trkpt>
      <trkpt lat="25.673595" lon="-100.295884">
        <ele>499.967</ele>
        <time>2020-02-03T15:59:35Z</time>
      </trkpt>
      <trkpt lat="25.673606" lon="-100.295858">
        <ele>500.619</ele>
        <time>2020-02-03T15:59:36Z</time>
      </trkpt>
      <trkpt lat="25.673622" lon="-100.2958">
        <ele>500.65</ele>
        <time>2020-02-03T15:59:38Z</time>
      </trkpt>
      <trkpt lat="25.673629" lon="-100.295769">
        <ele>500.411</ele>
        <time>2020-02-03T15:59:39Z</time>
      </trkpt>
      <trkpt lat="25.673637" lon="-100.295738">
        <ele>500.801</ele>
        <time>2020-02-03T15:59:40Z</time>
      </trkpt>
      <trkpt lat="25.673645" lon="-100.295709">
        <ele>499.738</ele>
        <time>2020-02-03T15:59:41Z</time>
      </trkpt>
      <trkpt lat="25.673652" lon="-100.295681">
        <ele>499.224</ele>
        <time>2020-02-03T15:59:42Z</time>
      </trkpt>
      <trkpt lat="25.673661" lon="-100.295623">
        <ele>498.93</ele>
        <time>2020-02-03T15:59:44Z</time>
      </trkpt>
      <trkpt lat="25.673663" lon="-100.295594">
        <ele>499.024</ele>
        <time>2020-02-03T15:59:45Z</time>
      </trkpt>
      <trkpt lat="25.673665" lon="-100.295565">
        <ele>500.417</ele>
        <time>2020-02-03T15:59:46Z</time>
      </trkpt>
      <trkpt lat="25.673667" lon="-100.295534">
        <ele>498.699</ele>
        <time>2020-02-03T15:59:47Z</time>
      </trkpt>
      <trkpt lat="25.673674" lon="-100.295475">
        <ele>497.591</ele>
        <time>2020-02-03T15:59:49Z</time>
      </trkpt>
      <trkpt lat="25.673677" lon="-100.295443">
        <ele>497.641</ele>
        <time>2020-02-03T15:59:50Z</time>
      </trkpt>
      <trkpt lat="25.673679" lon="-100.295413">
        <ele>497.63</ele>
        <time>2020-02-03T15:59:51Z</time>
      </trkpt>
      <trkpt lat="25.67368" lon="-100.295385">
        <ele>498.007</ele>
        <time>2020-02-03T15:59:52Z</time>
      </trkpt>
      <trkpt lat="25.673682" lon="-100.295358">
        <ele>499.314</ele>
        <time>2020-02-03T15:59:53Z</time>
      </trkpt>
      <trkpt lat="25.673684" lon="-100.295329">
        <ele>500.71</ele>
        <time>2020-02-03T15:59:54Z</time>
      </trkpt>
      <trkpt lat="25.673685" lon="-100.295299">
        <ele>499.889</ele>
        <time>2020-02-03T15:59:55Z</time>
      </trkpt>
      <trkpt lat="25.673688" lon="-100.29527">
        <ele>499.188</ele>
        <time>2020-02-03T15:59:56Z</time>
      </trkpt>
      <trkpt lat="25.67369" lon="-100.29524">
        <ele>499.47</ele>
        <time>2020-02-03T15:59:57Z</time>
      </trkpt>
      <trkpt lat="25.673693" lon="-100.29521">
        <ele>499.129</ele>
        <time>2020-02-03T15:59:58Z</time>
      </trkpt>
      <trkpt lat="25.673696" lon="-100.29518">
        <ele>498.623</ele>
        <time>2020-02-03T15:59:59Z</time>
      </trkpt>
      <trkpt lat="25.673697" lon="-100.295149">
        <ele>499.74</ele>
        <time>2020-02-03T16:00:00Z</time>
      </trkpt>
      <trkpt lat="25.673696" lon="-100.295118">
        <ele>499.846</ele>
        <time>2020-02-03T16:00:01Z</time>
      </trkpt>
      <trkpt lat="25.673693" lon="-100.295086">
        <ele>500.146</ele>
        <time>2020-02-03T16:00:02Z</time>
      </trkpt>
      <trkpt lat="25.673682" lon="-100.295024">
        <ele>500.104</ele>
        <time>2020-02-03T16:00:04Z</time>
      </trkpt>
      <trkpt lat="25.673676" lon="-100.294994">
        <ele>499.637</ele>
        <time>2020-02-03T16:00:05Z</time>
      </trkpt>
      <trkpt lat="25.673671" lon="-100.294967">
        <ele>499.988</ele>
        <time>2020-02-03T16:00:06Z</time>
      </trkpt>
      <trkpt lat="25.673668" lon="-100.294939">
        <ele>500.431</ele>
        <time>2020-02-03T16:00:07Z</time>
      </trkpt>
      <trkpt lat="25.673665" lon="-100.294911">
        <ele>501.111</ele>
        <time>2020-02-03T16:00:08Z</time>
      </trkpt>
      <trkpt lat="25.673661" lon="-100.294881">
        <ele>500.531</ele>
        <time>2020-02-03T16:00:09Z</time>
      </trkpt>
      <trkpt lat="25.673644" lon="-100.294825">
        <ele>501.338</ele>
        <time>2020-02-03T16:00:11Z</time>
      </trkpt>
      <trkpt lat="25.673634" lon="-100.294798">
        <ele>502.741</ele>
        <time>2020-02-03T16:00:12Z</time>
      </trkpt>
      <trkpt lat="25.673622" lon="-100.294736">
        <ele>503.535</ele>
        <time>2020-02-03T16:00:14Z</time>
      </trkpt>
      <trkpt lat="25.673614" lon="-100.294655">
        <ele>503.236</ele>
        <time>2020-02-03T16:00:17Z</time>
      </trkpt>
      <trkpt lat="25.67361" lon="-100.294622">
        <ele>502.786</ele>
        <time>2020-02-03T16:00:18Z</time>
      </trkpt>
      <trkpt lat="25.673604" lon="-100.294591">
        <ele>502.098</ele>
        <time>2020-02-03T16:00:19Z</time>
      </trkpt>
      <trkpt lat="25.673599" lon="-100.294558">
        <ele>500.731</ele>
        <time>2020-02-03T16:00:20Z</time>
      </trkpt>
      <trkpt lat="25.673593" lon="-100.294528">
        <ele>501.855</ele>
        <time>2020-02-03T16:00:21Z</time>
      </trkpt>
      <trkpt lat="25.673587" lon="-100.2945">
        <ele>500.521</ele>
        <time>2020-02-03T16:00:22Z</time>
      </trkpt>
      <trkpt lat="25.67358" lon="-100.294471">
        <ele>500.421</ele>
        <time>2020-02-03T16:00:23Z</time>
      </trkpt>
      <trkpt lat="25.673574" lon="-100.294442">
        <ele>500.324</ele>
        <time>2020-02-03T16:00:24Z</time>
      </trkpt>
      <trkpt lat="25.673567" lon="-100.294413">
        <ele>500.497</ele>
        <time>2020-02-03T16:00:25Z</time>
      </trkpt>
      <trkpt lat="25.673559" lon="-100.294385">
        <ele>499.722</ele>
        <time>2020-02-03T16:00:26Z</time>
      </trkpt>
      <trkpt lat="25.67355" lon="-100.294358">
        <ele>500.813</ele>
        <time>2020-02-03T16:00:27Z</time>
      </trkpt>
      <trkpt lat="25.673539" lon="-100.294331">
        <ele>501.313</ele>
        <time>2020-02-03T16:00:28Z</time>
      </trkpt>
      <trkpt lat="25.673531" lon="-100.294308">
        <ele>501.915</ele>
        <time>2020-02-03T16:00:29Z</time>
      </trkpt>
      <trkpt lat="25.673515" lon="-100.294261">
        <ele>502.48</ele>
        <time>2020-02-03T16:00:31Z</time>
      </trkpt>
      <trkpt lat="25.673495" lon="-100.29421">
        <ele>502.285</ele>
        <time>2020-02-03T16:00:33Z</time>
      </trkpt>
      <trkpt lat="25.673483" lon="-100.294185">
        <ele>502.265</ele>
        <time>2020-02-03T16:00:34Z</time>
      </trkpt>
      <trkpt lat="25.67347" lon="-100.294159">
        <ele>502.19</ele>
        <time>2020-02-03T16:00:35Z</time>
      </trkpt>
      <trkpt lat="25.673456" lon="-100.294131">
        <ele>501.937</ele>
        <time>2020-02-03T16:00:36Z</time>
      </trkpt>
      <trkpt lat="25.673444" lon="-100.294103">
        <ele>499.468</ele>
        <time>2020-02-03T16:00:37Z</time>
      </trkpt>
      <trkpt lat="25.673432" lon="-100.294075">
        <ele>504.27</ele>
        <time>2020-02-03T16:00:38Z</time>
      </trkpt>
      <trkpt lat="25.673422" lon="-100.294045">
        <ele>504.275</ele>
        <time>2020-02-03T16:00:39Z</time>
      </trkpt>
      <trkpt lat="25.67341" lon="-100.294015">
        <ele>504.935</ele>
        <time>2020-02-03T16:00:40Z</time>
      </trkpt>
      <trkpt lat="25.673399" lon="-100.293988">
        <ele>504.38</ele>
        <time>2020-02-03T16:00:41Z</time>
      </trkpt>
      <trkpt lat="25.673386" lon="-100.293963">
        <ele>505.613</ele>
        <time>2020-02-03T16:00:42Z</time>
      </trkpt>
      <trkpt lat="25.673354" lon="-100.293914">
        <ele>506.059</ele>
        <time>2020-02-03T16:00:44Z</time>
      </trkpt>
      <trkpt lat="25.67333" lon="-100.293864">
        <ele>505.884</ele>
        <time>2020-02-03T16:00:46Z</time>
      </trkpt>
      <trkpt lat="25.673312" lon="-100.293807">
        <ele>505.787</ele>
        <time>2020-02-03T16:00:48Z</time>
      </trkpt>
      <trkpt lat="25.673312" lon="-100.293807">
        <ele>505.13</ele>
        <time>2020-02-03T16:00:57Z</time>
      </trkpt>
      <trkpt lat="25.673312" lon="-100.293807">
        <ele>504.856</ele>
        <time>2020-02-03T16:04:03Z</time>
      </trkpt>
      <trkpt lat="25.673298" lon="-100.293796">
        <ele>505.289</ele>
        <time>2020-02-03T16:04:04Z</time>
      </trkpt>
      <trkpt lat="25.673304" lon="-100.293733">
        <ele>505.442</ele>
        <time>2020-02-03T16:04:16Z</time>
      </trkpt>
      <trkpt lat="25.673307" lon="-100.293705">
        <ele>505.358</ele>
        <time>2020-02-03T16:04:18Z</time>
      </trkpt>
      <trkpt lat="25.673307" lon="-100.293648">
        <ele>505.115</ele>
        <time>2020-02-03T16:04:21Z</time>
      </trkpt>
      <trkpt lat="25.673309" lon="-100.293611">
        <ele>503.414</ele>
        <time>2020-02-03T16:04:22Z</time>
      </trkpt>
      <trkpt lat="25.67331" lon="-100.293509">
        <ele>503.455</ele>
        <time>2020-02-03T16:04:25Z</time>
      </trkpt>
      <trkpt lat="25.673312" lon="-100.293476">
        <ele>504.495</ele>
        <time>2020-02-03T16:04:26Z</time>
      </trkpt>
      <trkpt lat="25.673315" lon="-100.29344">
        <ele>505.669</ele>
        <time>2020-02-03T16:04:27Z</time>
      </trkpt>
      <trkpt lat="25.673316" lon="-100.293409">
        <ele>504.414</ele>
        <time>2020-02-03T16:04:28Z</time>
      </trkpt>
      <trkpt lat="25.673318" lon="-100.293384">
        <ele>503.95</ele>
        <time>2020-02-03T16:04:29Z</time>
      </trkpt>
      <trkpt lat="25.673319" lon="-100.293359">
        <ele>504.257</ele>
        <time>2020-02-03T16:04:30Z</time>
      </trkpt>
      <trkpt lat="25.67332" lon="-100.293333">
        <ele>504.326</ele>
        <time>2020-02-03T16:04:31Z</time>
      </trkpt>
      <trkpt lat="25.673315" lon="-100.293276">
        <ele>503.587</ele>
        <time>2020-02-03T16:04:33Z</time>
      </trkpt>
      <trkpt lat="25.673311" lon="-100.293245">
        <ele>504.044</ele>
        <time>2020-02-03T16:04:34Z</time>
      </trkpt>
      <trkpt lat="25.673307" lon="-100.293214">
        <ele>504.124</ele>
        <time>2020-02-03T16:04:35Z</time>
      </trkpt>
      <trkpt lat="25.673303" lon="-100.293182">
        <ele>503.798</ele>
        <time>2020-02-03T16:04:36Z</time>
      </trkpt>
      <trkpt lat="25.6733" lon="-100.29315">
        <ele>504.373</ele>
        <time>2020-02-03T16:04:37Z</time>
      </trkpt>
      <trkpt lat="25.673295" lon="-100.293119">
        <ele>504.329</ele>
        <time>2020-02-03T16:04:38Z</time>
      </trkpt>
      <trkpt lat="25.673288" lon="-100.293087">
        <ele>504.335</ele>
        <time>2020-02-03T16:04:39Z</time>
      </trkpt>
      <trkpt lat="25.673266" lon="-100.293029">
        <ele>504.124</ele>
        <time>2020-02-03T16:04:41Z</time>
      </trkpt>
      <trkpt lat="25.673255" lon="-100.293002">
        <ele>503.787</ele>
        <time>2020-02-03T16:04:42Z</time>
      </trkpt>
      <trkpt lat="25.673221" lon="-100.292952">
        <ele>504.511</ele>
        <time>2020-02-03T16:04:44Z</time>
      </trkpt>
      <trkpt lat="25.673158" lon="-100.292921">
        <ele>505.162</ele>
        <time>2020-02-03T16:04:47Z</time>
      </trkpt>
      <trkpt lat="25.673129" lon="-100.292909">
        <ele>505.217</ele>
        <time>2020-02-03T16:04:48Z</time>
      </trkpt>
      <trkpt lat="25.673076" lon="-100.292874">
        <ele>505.063</ele>
        <time>2020-02-03T16:04:50Z</time>
      </trkpt>
      <trkpt lat="25.67305" lon="-100.292854">
        <ele>504.1</ele>
        <time>2020-02-03T16:04:51Z</time>
      </trkpt>
      <trkpt lat="25.673026" lon="-100.292833">
        <ele>504.633</ele>
        <time>2020-02-03T16:04:52Z</time>
      </trkpt>
      <trkpt lat="25.673003" lon="-100.292812">
        <ele>504.618</ele>
        <time>2020-02-03T16:04:53Z</time>
      </trkpt>
      <trkpt lat="25.67298" lon="-100.292791">
        <ele>505.419</ele>
        <time>2020-02-03T16:04:54Z</time>
      </trkpt>
      <trkpt lat="25.672958" lon="-100.292772">
        <ele>504.573</ele>
        <time>2020-02-03T16:04:55Z</time>
      </trkpt>
      <trkpt lat="25.672924" lon="-100.292723">
        <ele>506.315</ele>
        <time>2020-02-03T16:04:57Z</time>
      </trkpt>
      <trkpt lat="25.672883" lon="-100.292638">
        <ele>505.543</ele>
        <time>2020-02-03T16:05:00Z</time>
      </trkpt>
      <trkpt lat="25.672869" lon="-100.292609">
        <ele>505.686</ele>
        <time>2020-02-03T16:05:01Z</time>
      </trkpt>
      <trkpt lat="25.672857" lon="-100.292578">
        <ele>506.043</ele>
        <time>2020-02-03T16:05:02Z</time>
      </trkpt>
      <trkpt lat="25.672844" lon="-100.292512">
        <ele>506.083</ele>
        <time>2020-02-03T16:05:04Z</time>
      </trkpt>
      <trkpt lat="25.67284" lon="-100.292478">
        <ele>506.826</ele>
        <time>2020-02-03T16:05:05Z</time>
      </trkpt>
      <trkpt lat="25.672819" lon="-100.292389">
        <ele>506.819</ele>
        <time>2020-02-03T16:05:08Z</time>
      </trkpt>
      <trkpt lat="25.672827" lon="-100.292321">
        <ele>505.917</ele>
        <time>2020-02-03T16:05:10Z</time>
      </trkpt>
      <trkpt lat="25.672832" lon="-100.292286">
        <ele>505.5</ele>
        <time>2020-02-03T16:05:11Z</time>
      </trkpt>
      <trkpt lat="25.672833" lon="-100.29223">
        <ele>505.759</ele>
        <time>2020-02-03T16:05:13Z</time>
      </trkpt>
      <trkpt lat="25.672832" lon="-100.292187">
        <ele>505.889</ele>
        <time>2020-02-03T16:05:15Z</time>
      </trkpt>
      <trkpt lat="25.672834" lon="-100.292156">
        <ele>505.332</ele>
        <time>2020-02-03T16:05:16Z</time>
      </trkpt>
      <trkpt lat="25.672847" lon="-100.292095">
        <ele>505.483</ele>
        <time>2020-02-03T16:05:18Z</time>
      </trkpt>
      <trkpt lat="25.672867" lon="-100.292045">
        <ele>505.405</ele>
        <time>2020-02-03T16:05:20Z</time>
      </trkpt>
      <trkpt lat="25.67288" lon="-100.292018">
        <ele>504.634</ele>
        <time>2020-02-03T16:05:21Z</time>
      </trkpt>
      <trkpt lat="25.672893" lon="-100.291993">
        <ele>505.101</ele>
        <time>2020-02-03T16:05:22Z</time>
      </trkpt>
      <trkpt lat="25.672907" lon="-100.291966">
        <ele>504.734</ele>
        <time>2020-02-03T16:05:23Z</time>
      </trkpt>
      <trkpt lat="25.67292" lon="-100.291938">
        <ele>505.438</ele>
        <time>2020-02-03T16:05:24Z</time>
      </trkpt>
      <trkpt lat="25.672932" lon="-100.291911">
        <ele>505.931</ele>
        <time>2020-02-03T16:05:25Z</time>
      </trkpt>
      <trkpt lat="25.672945" lon="-100.291887">
        <ele>505.696</ele>
        <time>2020-02-03T16:05:26Z</time>
      </trkpt>
      <trkpt lat="25.672958" lon="-100.291864">
        <ele>504.851</ele>
        <time>2020-02-03T16:05:27Z</time>
      </trkpt>
      <trkpt lat="25.672973" lon="-100.291842">
        <ele>505.435</ele>
        <time>2020-02-03T16:05:28Z</time>
      </trkpt>
      <trkpt lat="25.672986" lon="-100.291819">
        <ele>505.745</ele>
        <time>2020-02-03T16:05:29Z</time>
      </trkpt>
      <trkpt lat="25.673022" lon="-100.29177">
        <ele>505.511</ele>
        <time>2020-02-03T16:05:31Z</time>
      </trkpt>
      <trkpt lat="25.673065" lon="-100.291728">
        <ele>505.07</ele>
        <time>2020-02-03T16:05:33Z</time>
      </trkpt>
      <trkpt lat="25.673087" lon="-100.291707">
        <ele>504.022</ele>
        <time>2020-02-03T16:05:34Z</time>
      </trkpt>
      <trkpt lat="25.673106" lon="-100.291687">
        <ele>504.707</ele>
        <time>2020-02-03T16:05:35Z</time>
      </trkpt>
      <trkpt lat="25.673126" lon="-100.291664">
        <ele>504.172</ele>
        <time>2020-02-03T16:05:36Z</time>
      </trkpt>
      <trkpt lat="25.673143" lon="-100.291642">
        <ele>503.297</ele>
        <time>2020-02-03T16:05:37Z</time>
      </trkpt>
      <trkpt lat="25.673161" lon="-100.291619">
        <ele>503.305</ele>
        <time>2020-02-03T16:05:38Z</time>
      </trkpt>
      <trkpt lat="25.673176" lon="-100.291594">
        <ele>502.976</ele>
        <time>2020-02-03T16:05:39Z</time>
      </trkpt>
      <trkpt lat="25.673199" lon="-100.291538">
        <ele>503.846</ele>
        <time>2020-02-03T16:05:41Z</time>
      </trkpt>
      <trkpt lat="25.673209" lon="-100.291509">
        <ele>504.429</ele>
        <time>2020-02-03T16:05:42Z</time>
      </trkpt>
      <trkpt lat="25.673233" lon="-100.29146">
        <ele>505.322</ele>
        <time>2020-02-03T16:05:44Z</time>
      </trkpt>
      <trkpt lat="25.673251" lon="-100.291406">
        <ele>505.372</ele>
        <time>2020-02-03T16:05:46Z</time>
      </trkpt>
      <trkpt lat="25.673297" lon="-100.291341">
        <ele>504.689</ele>
        <time>2020-02-03T16:05:49Z</time>
      </trkpt>
      <trkpt lat="25.673312" lon="-100.291319">
        <ele>504.81</ele>
        <time>2020-02-03T16:05:50Z</time>
      </trkpt>
      <trkpt lat="25.673333" lon="-100.291266">
        <ele>504.482</ele>
        <time>2020-02-03T16:05:52Z</time>
      </trkpt>
      <trkpt lat="25.673343" lon="-100.291211">
        <ele>504.532</ele>
        <time>2020-02-03T16:05:54Z</time>
      </trkpt>
      <trkpt lat="25.67335" lon="-100.291185">
        <ele>503.329</ele>
        <time>2020-02-03T16:05:55Z</time>
      </trkpt>
      <trkpt lat="25.673356" lon="-100.291159">
        <ele>503.304</ele>
        <time>2020-02-03T16:05:56Z</time>
      </trkpt>
      <trkpt lat="25.673363" lon="-100.291133">
        <ele>502.853</ele>
        <time>2020-02-03T16:05:57Z</time>
      </trkpt>
      <trkpt lat="25.673371" lon="-100.291108">
        <ele>503.296</ele>
        <time>2020-02-03T16:05:58Z</time>
      </trkpt>
      <trkpt lat="25.673377" lon="-100.291083">
        <ele>501.567</ele>
        <time>2020-02-03T16:05:59Z</time>
      </trkpt>
      <trkpt lat="25.673383" lon="-100.291058">
        <ele>501.913</ele>
        <time>2020-02-03T16:06:00Z</time>
      </trkpt>
      <trkpt lat="25.673409" lon="-100.291004">
        <ele>501.247</ele>
        <time>2020-02-03T16:06:03Z</time>
      </trkpt>
      <trkpt lat="25.673419" lon="-100.290981">
        <ele>501.729</ele>
        <time>2020-02-03T16:06:04Z</time>
      </trkpt>
      <trkpt lat="25.67343" lon="-100.290959">
        <ele>502.538</ele>
        <time>2020-02-03T16:06:05Z</time>
      </trkpt>
      <trkpt lat="25.673448" lon="-100.290898">
        <ele>501.88</ele>
        <time>2020-02-03T16:06:08Z</time>
      </trkpt>
      <trkpt lat="25.673464" lon="-100.290824">
        <ele>501.628</ele>
        <time>2020-02-03T16:06:11Z</time>
      </trkpt>
      <trkpt lat="25.673469" lon="-100.290799">
        <ele>501.382</ele>
        <time>2020-02-03T16:06:12Z</time>
      </trkpt>
      <trkpt lat="25.673475" lon="-100.290774">
        <ele>502.659</ele>
        <time>2020-02-03T16:06:13Z</time>
      </trkpt>
      <trkpt lat="25.673482" lon="-100.290749">
        <ele>502.957</ele>
        <time>2020-02-03T16:06:14Z</time>
      </trkpt>
      <trkpt lat="25.673489" lon="-100.290725">
        <ele>503.119</ele>
        <time>2020-02-03T16:06:15Z</time>
      </trkpt>
      <trkpt lat="25.673501" lon="-100.290653">
        <ele>503.231</ele>
        <time>2020-02-03T16:06:18Z</time>
      </trkpt>
      <trkpt lat="25.673505" lon="-100.290601">
        <ele>502.188</ele>
        <time>2020-02-03T16:06:20Z</time>
      </trkpt>
      <trkpt lat="25.673498" lon="-100.290547">
        <ele>502.713</ele>
        <time>2020-02-03T16:06:22Z</time>
      </trkpt>
      <trkpt lat="25.673495" lon="-100.290518">
        <ele>502.57</ele>
        <time>2020-02-03T16:06:23Z</time>
      </trkpt>
      <trkpt lat="25.673501" lon="-100.290459">
        <ele>502.778</ele>
        <time>2020-02-03T16:06:25Z</time>
      </trkpt>
      <trkpt lat="25.673517" lon="-100.290405">
        <ele>502.7</ele>
        <time>2020-02-03T16:06:27Z</time>
      </trkpt>
      <trkpt lat="25.673531" lon="-100.290353">
        <ele>503.881</ele>
        <time>2020-02-03T16:06:29Z</time>
      </trkpt>
      <trkpt lat="25.673555" lon="-100.29029">
        <ele>503.8</ele>
        <time>2020-02-03T16:06:31Z</time>
      </trkpt>
      <trkpt lat="25.673565" lon="-100.290257">
        <ele>503.215</ele>
        <time>2020-02-03T16:06:32Z</time>
      </trkpt>
      <trkpt lat="25.673573" lon="-100.290224">
        <ele>502.533</ele>
        <time>2020-02-03T16:06:33Z</time>
      </trkpt>
      <trkpt lat="25.673589" lon="-100.290159">
        <ele>502.199</ele>
        <time>2020-02-03T16:06:35Z</time>
      </trkpt>
      <trkpt lat="25.673596" lon="-100.290127">
        <ele>502.28</ele>
        <time>2020-02-03T16:06:36Z</time>
      </trkpt>
      <trkpt lat="25.673604" lon="-100.2901">
        <ele>502.329</ele>
        <time>2020-02-03T16:06:37Z</time>
      </trkpt>
      <trkpt lat="25.673611" lon="-100.290072">
        <ele>502.424</ele>
        <time>2020-02-03T16:06:38Z</time>
      </trkpt>
      <trkpt lat="25.673618" lon="-100.290045">
        <ele>502.225</ele>
        <time>2020-02-03T16:06:39Z</time>
      </trkpt>
      <trkpt lat="25.673626" lon="-100.290017">
        <ele>501.914</ele>
        <time>2020-02-03T16:06:40Z</time>
      </trkpt>
      <trkpt lat="25.673645" lon="-100.28996">
        <ele>501.721</ele>
        <time>2020-02-03T16:06:42Z</time>
      </trkpt>
      <trkpt lat="25.673656" lon="-100.289932">
        <ele>501.779</ele>
        <time>2020-02-03T16:06:43Z</time>
      </trkpt>
      <trkpt lat="25.673666" lon="-100.2899">
        <ele>502.519</ele>
        <time>2020-02-03T16:06:44Z</time>
      </trkpt>
      <trkpt lat="25.673679" lon="-100.289867">
        <ele>502.692</ele>
        <time>2020-02-03T16:06:45Z</time>
      </trkpt>
      <trkpt lat="25.673691" lon="-100.289836">
        <ele>503.188</ele>
        <time>2020-02-03T16:06:46Z</time>
      </trkpt>
      <trkpt lat="25.673706" lon="-100.289804">
        <ele>503.061</ele>
        <time>2020-02-03T16:06:47Z</time>
      </trkpt>
      <trkpt lat="25.673738" lon="-100.289748">
        <ele>503.202</ele>
        <time>2020-02-03T16:06:49Z</time>
      </trkpt>
      <trkpt lat="25.673753" lon="-100.289719">
        <ele>502.826</ele>
        <time>2020-02-03T16:06:50Z</time>
      </trkpt>
      <trkpt lat="25.673768" lon="-100.289691">
        <ele>502.207</ele>
        <time>2020-02-03T16:06:51Z</time>
      </trkpt>
      <trkpt lat="25.673785" lon="-100.289663">
        <ele>502.512</ele>
        <time>2020-02-03T16:06:52Z</time>
      </trkpt>
      <trkpt lat="25.6738" lon="-100.289635">
        <ele>502.533</ele>
        <time>2020-02-03T16:06:53Z</time>
      </trkpt>
      <trkpt lat="25.673818" lon="-100.289609">
        <ele>502.61</ele>
        <time>2020-02-03T16:06:54Z</time>
      </trkpt>
      <trkpt lat="25.673835" lon="-100.289583">
        <ele>502.419</ele>
        <time>2020-02-03T16:06:55Z</time>
      </trkpt>
      <trkpt lat="25.673877" lon="-100.289532">
        <ele>502.38</ele>
        <time>2020-02-03T16:06:57Z</time>
      </trkpt>
      <trkpt lat="25.6739" lon="-100.289508">
        <ele>502.266</ele>
        <time>2020-02-03T16:06:58Z</time>
      </trkpt>
      <trkpt lat="25.673923" lon="-100.289484">
        <ele>502.076</ele>
        <time>2020-02-03T16:06:59Z</time>
      </trkpt>
      <trkpt lat="25.673946" lon="-100.289462">
        <ele>502.568</ele>
        <time>2020-02-03T16:07:00Z</time>
      </trkpt>
      <trkpt lat="25.673968" lon="-100.289441">
        <ele>501.31</ele>
        <time>2020-02-03T16:07:01Z</time>
      </trkpt>
      <trkpt lat="25.673988" lon="-100.28942">
        <ele>501.15</ele>
        <time>2020-02-03T16:07:02Z</time>
      </trkpt>
      <trkpt lat="25.67401" lon="-100.289401">
        <ele>501.914</ele>
        <time>2020-02-03T16:07:03Z</time>
      </trkpt>
      <trkpt lat="25.674032" lon="-100.289381">
        <ele>502.191</ele>
        <time>2020-02-03T16:07:04Z</time>
      </trkpt>
      <trkpt lat="25.674054" lon="-100.289362">
        <ele>502.754</ele>
        <time>2020-02-03T16:07:05Z</time>
      </trkpt>
      <trkpt lat="25.674076" lon="-100.289343">
        <ele>503.755</ele>
        <time>2020-02-03T16:07:06Z</time>
      </trkpt>
      <trkpt lat="25.674095" lon="-100.289323">
        <ele>504.587</ele>
        <time>2020-02-03T16:07:07Z</time>
      </trkpt>
      <trkpt lat="25.674113" lon="-100.289302">
        <ele>504.253</ele>
        <time>2020-02-03T16:07:08Z</time>
      </trkpt>
      <trkpt lat="25.674129" lon="-100.289281">
        <ele>505.77</ele>
        <time>2020-02-03T16:07:09Z</time>
      </trkpt>
      <trkpt lat="25.674144" lon="-100.289259">
        <ele>505.84</ele>
        <time>2020-02-03T16:07:10Z</time>
      </trkpt>
      <trkpt lat="25.67418" lon="-100.289221">
        <ele>505.693</ele>
        <time>2020-02-03T16:07:12Z</time>
      </trkpt>
      <trkpt lat="25.674223" lon="-100.289191">
        <ele>506.3</ele>
        <time>2020-02-03T16:07:14Z</time>
      </trkpt>
      <trkpt lat="25.674244" lon="-100.289176">
        <ele>506.94</ele>
        <time>2020-02-03T16:07:15Z</time>
      </trkpt>
      <trkpt lat="25.674282" lon="-100.289139">
        <ele>507.349</ele>
        <time>2020-02-03T16:07:17Z</time>
      </trkpt>
      <trkpt lat="25.674311" lon="-100.289097">
        <ele>507.659</ele>
        <time>2020-02-03T16:07:19Z</time>
      </trkpt>
      <trkpt lat="25.674334" lon="-100.289051">
        <ele>507.587</ele>
        <time>2020-02-03T16:07:21Z</time>
      </trkpt>
      <trkpt lat="25.674366" lon="-100.289015">
        <ele>507.781</ele>
        <time>2020-02-03T16:07:23Z</time>
      </trkpt>
      <trkpt lat="25.674416" lon="-100.288966">
        <ele>508.33</ele>
        <time>2020-02-03T16:07:26Z</time>
      </trkpt>
      <trkpt lat="25.674435" lon="-100.288951">
        <ele>506.329</ele>
        <time>2020-02-03T16:07:27Z</time>
      </trkpt>
      <trkpt lat="25.674485" lon="-100.288934">
        <ele>506.258</ele>
        <time>2020-02-03T16:07:29Z</time>
      </trkpt>
      <trkpt lat="25.674541" lon="-100.288927">
        <ele>505.442</ele>
        <time>2020-02-03T16:07:31Z</time>
      </trkpt>
      <trkpt lat="25.674566" lon="-100.288925">
        <ele>505.244</ele>
        <time>2020-02-03T16:07:32Z</time>
      </trkpt>
      <trkpt lat="25.674612" lon="-100.288921">
        <ele>505.023</ele>
        <time>2020-02-03T16:07:34Z</time>
      </trkpt>
      <trkpt lat="25.674636" lon="-100.288919">
        <ele>506.307</ele>
        <time>2020-02-03T16:07:35Z</time>
      </trkpt>
      <trkpt lat="25.674659" lon="-100.288919">
        <ele>505.552</ele>
        <time>2020-02-03T16:07:36Z</time>
      </trkpt>
      <trkpt lat="25.674709" lon="-100.288928">
        <ele>505.418</ele>
        <time>2020-02-03T16:07:38Z</time>
      </trkpt>
      <trkpt lat="25.674786" lon="-100.288951">
        <ele>506.22</ele>
        <time>2020-02-03T16:07:41Z</time>
      </trkpt>
      <trkpt lat="25.674835" lon="-100.288946">
        <ele>506.356</ele>
        <time>2020-02-03T16:07:43Z</time>
      </trkpt>
      <trkpt lat="25.67488" lon="-100.288911">
        <ele>506.675</ele>
        <time>2020-02-03T16:07:45Z</time>
      </trkpt>
      <trkpt lat="25.674925" lon="-100.288869">
        <ele>505.886</ele>
        <time>2020-02-03T16:07:47Z</time>
      </trkpt>
      <trkpt lat="25.674946" lon="-100.288848">
        <ele>505.61</ele>
        <time>2020-02-03T16:07:48Z</time>
      </trkpt>
      <trkpt lat="25.674966" lon="-100.288828">
        <ele>504.633</ele>
        <time>2020-02-03T16:07:49Z</time>
      </trkpt>
      <trkpt lat="25.675005" lon="-100.288786">
        <ele>506.275</ele>
        <time>2020-02-03T16:07:51Z</time>
      </trkpt>
      <trkpt lat="25.675024" lon="-100.288765">
        <ele>506.861</ele>
        <time>2020-02-03T16:07:52Z</time>
      </trkpt>
      <trkpt lat="25.67507" lon="-100.288728">
        <ele>506.59</ele>
        <time>2020-02-03T16:07:54Z</time>
      </trkpt>
      <trkpt lat="25.675096" lon="-100.28871">
        <ele>506.267</ele>
        <time>2020-02-03T16:07:55Z</time>
      </trkpt>
      <trkpt lat="25.675119" lon="-100.288691">
        <ele>506.23</ele>
        <time>2020-02-03T16:07:56Z</time>
      </trkpt>
      <trkpt lat="25.675174" lon="-100.288629">
        <ele>506.043</ele>
        <time>2020-02-03T16:07:59Z</time>
      </trkpt>
      <trkpt lat="25.6752" lon="-100.288579">
        <ele>504.405</ele>
        <time>2020-02-03T16:08:01Z</time>
      </trkpt>
      <trkpt lat="25.675213" lon="-100.288555">
        <ele>503.969</ele>
        <time>2020-02-03T16:08:02Z</time>
      </trkpt>
      <trkpt lat="25.675241" lon="-100.288508">
        <ele>504.205</ele>
        <time>2020-02-03T16:08:04Z</time>
      </trkpt>
      <trkpt lat="25.675264" lon="-100.288459">
        <ele>503.651</ele>
        <time>2020-02-03T16:08:06Z</time>
      </trkpt>
      <trkpt lat="25.675284" lon="-100.288407">
        <ele>503.831</ele>
        <time>2020-02-03T16:08:08Z</time>
      </trkpt>
      <trkpt lat="25.675317" lon="-100.288364">
        <ele>503.484</ele>
        <time>2020-02-03T16:08:10Z</time>
      </trkpt>
      <trkpt lat="25.675357" lon="-100.288327">
        <ele>504.625</ele>
        <time>2020-02-03T16:08:12Z</time>
      </trkpt>
      <trkpt lat="25.675395" lon="-100.288256">
        <ele>504.786</ele>
        <time>2020-02-03T16:08:15Z</time>
      </trkpt>
      <trkpt lat="25.675406" lon="-100.288231">
        <ele>504.69</ele>
        <time>2020-02-03T16:08:16Z</time>
      </trkpt>
      <trkpt lat="25.675436" lon="-100.288186">
        <ele>504.188</ele>
        <time>2020-02-03T16:08:18Z</time>
      </trkpt>
      <trkpt lat="25.675449" lon="-100.288165">
        <ele>504.457</ele>
        <time>2020-02-03T16:08:19Z</time>
      </trkpt>
      <trkpt lat="25.675463" lon="-100.288113">
        <ele>504.45</ele>
        <time>2020-02-03T16:08:21Z</time>
      </trkpt>
      <trkpt lat="25.675473" lon="-100.288065">
        <ele>503.293</ele>
        <time>2020-02-03T16:08:23Z</time>
      </trkpt>
      <trkpt lat="25.675517" lon="-100.288025">
        <ele>503.755</ele>
        <time>2020-02-03T16:08:26Z</time>
      </trkpt>
      <trkpt lat="25.67556" lon="-100.287999">
        <ele>502.698</ele>
        <time>2020-02-03T16:08:28Z</time>
      </trkpt>
      <trkpt lat="25.675581" lon="-100.287984">
        <ele>501.889</ele>
        <time>2020-02-03T16:08:29Z</time>
      </trkpt>
      <trkpt lat="25.675602" lon="-100.287969">
        <ele>501.703</ele>
        <time>2020-02-03T16:08:30Z</time>
      </trkpt>
      <trkpt lat="25.675623" lon="-100.287953">
        <ele>502.099</ele>
        <time>2020-02-03T16:08:31Z</time>
      </trkpt>
      <trkpt lat="25.675643" lon="-100.287935">
        <ele>502.233</ele>
        <time>2020-02-03T16:08:32Z</time>
      </trkpt>
      <trkpt lat="25.675662" lon="-100.287918">
        <ele>501.783</ele>
        <time>2020-02-03T16:08:33Z</time>
      </trkpt>
      <trkpt lat="25.675709" lon="-100.287897">
        <ele>501.604</ele>
        <time>2020-02-03T16:08:35Z</time>
      </trkpt>
      <trkpt lat="25.675754" lon="-100.28787">
        <ele>501.647</ele>
        <time>2020-02-03T16:08:37Z</time>
      </trkpt>
      <trkpt lat="25.675812" lon="-100.287817">
        <ele>501.015</ele>
        <time>2020-02-03T16:08:40Z</time>
      </trkpt>
      <trkpt lat="25.675842" lon="-100.287776">
        <ele>502.277</ele>
        <time>2020-02-03T16:08:42Z</time>
      </trkpt>
      <trkpt lat="25.675875" lon="-100.2877">
        <ele>502.644</ele>
        <time>2020-02-03T16:08:45Z</time>
      </trkpt>
      <trkpt lat="25.675889" lon="-100.287642">
        <ele>502.71</ele>
        <time>2020-02-03T16:08:47Z</time>
      </trkpt>
      <trkpt lat="25.675883" lon="-100.287583">
        <ele>501.992</ele>
        <time>2020-02-03T16:08:49Z</time>
      </trkpt>
      <trkpt lat="25.67585" lon="-100.287533">
        <ele>501.897</ele>
        <time>2020-02-03T16:08:51Z</time>
      </trkpt>
      <trkpt lat="25.675809" lon="-100.28749">
        <ele>501.576</ele>
        <time>2020-02-03T16:08:53Z</time>
      </trkpt>
      <trkpt lat="25.675766" lon="-100.287405">
        <ele>502.418</ele>
        <time>2020-02-03T16:08:56Z</time>
      </trkpt>
      <trkpt lat="25.675754" lon="-100.28734">
        <ele>502.524</ele>
        <time>2020-02-03T16:08:58Z</time>
      </trkpt>
      <trkpt lat="25.675748" lon="-100.287308">
        <ele>502.405</ele>
        <time>2020-02-03T16:08:59Z</time>
      </trkpt>
      <trkpt lat="25.675741" lon="-100.287276">
        <ele>501.945</ele>
        <time>2020-02-03T16:09:00Z</time>
      </trkpt>
      <trkpt lat="25.675734" lon="-100.287242">
        <ele>501.238</ele>
        <time>2020-02-03T16:09:01Z</time>
      </trkpt>
      <trkpt lat="25.675729" lon="-100.287207">
        <ele>500.657</ele>
        <time>2020-02-03T16:09:02Z</time>
      </trkpt>
      <trkpt lat="25.675725" lon="-100.287172">
        <ele>500.949</ele>
        <time>2020-02-03T16:09:03Z</time>
      </trkpt>
      <trkpt lat="25.675721" lon="-100.287135">
        <ele>500.258</ele>
        <time>2020-02-03T16:09:04Z</time>
      </trkpt>
      <trkpt lat="25.675718" lon="-100.287099">
        <ele>500.432</ele>
        <time>2020-02-03T16:09:05Z</time>
      </trkpt>
      <trkpt lat="25.675717" lon="-100.287064">
        <ele>500.475</ele>
        <time>2020-02-03T16:09:06Z</time>
      </trkpt>
      <trkpt lat="25.675715" lon="-100.28703">
        <ele>500.177</ele>
        <time>2020-02-03T16:09:07Z</time>
      </trkpt>
      <trkpt lat="25.675711" lon="-100.286965">
        <ele>501.279</ele>
        <time>2020-02-03T16:09:09Z</time>
      </trkpt>
      <trkpt lat="25.675709" lon="-100.286933">
        <ele>501.388</ele>
        <time>2020-02-03T16:09:10Z</time>
      </trkpt>
      <trkpt lat="25.675705" lon="-100.286901">
        <ele>500.908</ele>
        <time>2020-02-03T16:09:11Z</time>
      </trkpt>
      <trkpt lat="25.6757" lon="-100.28687">
        <ele>499.931</ele>
        <time>2020-02-03T16:09:12Z</time>
      </trkpt>
      <trkpt lat="25.675698" lon="-100.286838">
        <ele>500.24</ele>
        <time>2020-02-03T16:09:13Z</time>
      </trkpt>
      <trkpt lat="25.675697" lon="-100.286807">
        <ele>500.584</ele>
        <time>2020-02-03T16:09:14Z</time>
      </trkpt>
      <trkpt lat="25.675697" lon="-100.286777">
        <ele>500.855</ele>
        <time>2020-02-03T16:09:15Z</time>
      </trkpt>
      <trkpt lat="25.675696" lon="-100.286749">
        <ele>500.738</ele>
        <time>2020-02-03T16:09:16Z</time>
      </trkpt>
      <trkpt lat="25.675695" lon="-100.286719">
        <ele>500.548</ele>
        <time>2020-02-03T16:09:17Z</time>
      </trkpt>
      <trkpt lat="25.675694" lon="-100.286688">
        <ele>500.45</ele>
        <time>2020-02-03T16:09:18Z</time>
      </trkpt>
      <trkpt lat="25.675691" lon="-100.286657">
        <ele>500.156</ele>
        <time>2020-02-03T16:09:19Z</time>
      </trkpt>
      <trkpt lat="25.67569" lon="-100.286627">
        <ele>500.764</ele>
        <time>2020-02-03T16:09:20Z</time>
      </trkpt>
      <trkpt lat="25.675687" lon="-100.286596">
        <ele>500.436</ele>
        <time>2020-02-03T16:09:21Z</time>
      </trkpt>
      <trkpt lat="25.675684" lon="-100.286564">
        <ele>500.736</ele>
        <time>2020-02-03T16:09:22Z</time>
      </trkpt>
      <trkpt lat="25.67568" lon="-100.286534">
        <ele>501.163</ele>
        <time>2020-02-03T16:09:23Z</time>
      </trkpt>
      <trkpt lat="25.675677" lon="-100.286507">
        <ele>500.039</ele>
        <time>2020-02-03T16:09:24Z</time>
      </trkpt>
      <trkpt lat="25.675675" lon="-100.286478">
        <ele>500.358</ele>
        <time>2020-02-03T16:09:25Z</time>
      </trkpt>
      <trkpt lat="25.675671" lon="-100.286448">
        <ele>501.108</ele>
        <time>2020-02-03T16:09:26Z</time>
      </trkpt>
      <trkpt lat="25.675669" lon="-100.286418">
        <ele>501.279</ele>
        <time>2020-02-03T16:09:27Z</time>
      </trkpt>
      <trkpt lat="25.675667" lon="-100.286387">
        <ele>500.38</ele>
        <time>2020-02-03T16:09:28Z</time>
      </trkpt>
      <trkpt lat="25.675666" lon="-100.286354">
        <ele>500.421</ele>
        <time>2020-02-03T16:09:29Z</time>
      </trkpt>
      <trkpt lat="25.675664" lon="-100.286324">
        <ele>500.694</ele>
        <time>2020-02-03T16:09:30Z</time>
      </trkpt>
      <trkpt lat="25.675662" lon="-100.286294">
        <ele>501.26</ele>
        <time>2020-02-03T16:09:31Z</time>
      </trkpt>
      <trkpt lat="25.67566" lon="-100.286263">
        <ele>501.144</ele>
        <time>2020-02-03T16:09:32Z</time>
      </trkpt>
      <trkpt lat="25.675657" lon="-100.286233">
        <ele>500.595</ele>
        <time>2020-02-03T16:09:33Z</time>
      </trkpt>
      <trkpt lat="25.675653" lon="-100.286204">
        <ele>499.951</ele>
        <time>2020-02-03T16:09:34Z</time>
      </trkpt>
      <trkpt lat="25.675649" lon="-100.286146">
        <ele>499.888</ele>
        <time>2020-02-03T16:09:36Z</time>
      </trkpt>
      <trkpt lat="25.675646" lon="-100.286117">
        <ele>498.929</ele>
        <time>2020-02-03T16:09:37Z</time>
      </trkpt>
      <trkpt lat="25.67563" lon="-100.286029">
        <ele>498.429</ele>
        <time>2020-02-03T16:09:40Z</time>
      </trkpt>
      <trkpt lat="25.675625" lon="-100.285997">
        <ele>497.407</ele>
        <time>2020-02-03T16:09:41Z</time>
      </trkpt>
      <trkpt lat="25.675622" lon="-100.285964">
        <ele>497.193</ele>
        <time>2020-02-03T16:09:42Z</time>
      </trkpt>
      <trkpt lat="25.675619" lon="-100.285934">
        <ele>497.096</ele>
        <time>2020-02-03T16:09:43Z</time>
      </trkpt>
      <trkpt lat="25.675616" lon="-100.285903">
        <ele>497.769</ele>
        <time>2020-02-03T16:09:44Z</time>
      </trkpt>
      <trkpt lat="25.675613" lon="-100.285872">
        <ele>498.339</ele>
        <time>2020-02-03T16:09:45Z</time>
      </trkpt>
      <trkpt lat="25.675612" lon="-100.28584">
        <ele>498.593</ele>
        <time>2020-02-03T16:09:46Z</time>
      </trkpt>
      <trkpt lat="25.675612" lon="-100.285809">
        <ele>499.022</ele>
        <time>2020-02-03T16:09:47Z</time>
      </trkpt>
      <trkpt lat="25.675614" lon="-100.28578">
        <ele>498.485</ele>
        <time>2020-02-03T16:09:48Z</time>
      </trkpt>
      <trkpt lat="25.675615" lon="-100.285752">
        <ele>499.25</ele>
        <time>2020-02-03T16:09:49Z</time>
      </trkpt>
      <trkpt lat="25.675618" lon="-100.285726">
        <ele>498.455</ele>
        <time>2020-02-03T16:09:50Z</time>
      </trkpt>
      <trkpt lat="25.67562" lon="-100.2857">
        <ele>498.057</ele>
        <time>2020-02-03T16:09:51Z</time>
      </trkpt>
      <trkpt lat="25.675624" lon="-100.285672">
        <ele>497.933</ele>
        <time>2020-02-03T16:09:52Z</time>
      </trkpt>
      <trkpt lat="25.675625" lon="-100.285643">
        <ele>498.013</ele>
        <time>2020-02-03T16:09:53Z</time>
      </trkpt>
      <trkpt lat="25.675626" lon="-100.285613">
        <ele>498.073</ele>
        <time>2020-02-03T16:09:54Z</time>
      </trkpt>
      <trkpt lat="25.675628" lon="-100.285581">
        <ele>496.211</ele>
        <time>2020-02-03T16:09:55Z</time>
      </trkpt>
      <trkpt lat="25.67564" lon="-100.285523">
        <ele>496.881</ele>
        <time>2020-02-03T16:09:57Z</time>
      </trkpt>
      <trkpt lat="25.675644" lon="-100.285494">
        <ele>497.005</ele>
        <time>2020-02-03T16:09:58Z</time>
      </trkpt>
      <trkpt lat="25.675647" lon="-100.285466">
        <ele>496.787</ele>
        <time>2020-02-03T16:09:59Z</time>
      </trkpt>
      <trkpt lat="25.675647" lon="-100.285406">
        <ele>497.073</ele>
        <time>2020-02-03T16:10:01Z</time>
      </trkpt>
      <trkpt lat="25.675648" lon="-100.285378">
        <ele>496.29</ele>
        <time>2020-02-03T16:10:02Z</time>
      </trkpt>
      <trkpt lat="25.675649" lon="-100.285349">
        <ele>497.309</ele>
        <time>2020-02-03T16:10:03Z</time>
      </trkpt>
      <trkpt lat="25.675652" lon="-100.285321">
        <ele>499.266</ele>
        <time>2020-02-03T16:10:04Z</time>
      </trkpt>
      <trkpt lat="25.675654" lon="-100.28529">
        <ele>499.568</ele>
        <time>2020-02-03T16:10:05Z</time>
      </trkpt>
      <trkpt lat="25.675657" lon="-100.285259">
        <ele>499.353</ele>
        <time>2020-02-03T16:10:06Z</time>
      </trkpt>
      <trkpt lat="25.675658" lon="-100.285198">
        <ele>498.464</ele>
        <time>2020-02-03T16:10:08Z</time>
      </trkpt>
      <trkpt lat="25.675671" lon="-100.285142">
        <ele>498.829</ele>
        <time>2020-02-03T16:10:10Z</time>
      </trkpt>
      <trkpt lat="25.675679" lon="-100.285114">
        <ele>497.575</ele>
        <time>2020-02-03T16:10:11Z</time>
      </trkpt>
      <trkpt lat="25.675687" lon="-100.285085">
        <ele>497.202</ele>
        <time>2020-02-03T16:10:12Z</time>
      </trkpt>
      <trkpt lat="25.675692" lon="-100.284988">
        <ele>498.842</ele>
        <time>2020-02-03T16:10:15Z</time>
      </trkpt>
      <trkpt lat="25.675691" lon="-100.284924">
        <ele>497.856</ele>
        <time>2020-02-03T16:10:17Z</time>
      </trkpt>
      <trkpt lat="25.675701" lon="-100.284858">
        <ele>498.373</ele>
        <time>2020-02-03T16:10:19Z</time>
      </trkpt>
      <trkpt lat="25.675717" lon="-100.284798">
        <ele>497.266</ele>
        <time>2020-02-03T16:10:21Z</time>
      </trkpt>
      <trkpt lat="25.675733" lon="-100.284701">
        <ele>496.35</ele>
        <time>2020-02-03T16:10:24Z</time>
      </trkpt>
      <trkpt lat="25.675735" lon="-100.284638">
        <ele>496.732</ele>
        <time>2020-02-03T16:10:26Z</time>
      </trkpt>
      <trkpt lat="25.675736" lon="-100.284608">
        <ele>496.707</ele>
        <time>2020-02-03T16:10:27Z</time>
      </trkpt>
      <trkpt lat="25.675747" lon="-100.284519">
        <ele>496.374</ele>
        <time>2020-02-03T16:10:30Z</time>
      </trkpt>
      <trkpt lat="25.675746" lon="-100.284438">
        <ele>495.71</ele>
        <time>2020-02-03T16:10:33Z</time>
      </trkpt>
      <trkpt lat="25.675741" lon="-100.284379">
        <ele>495.694</ele>
        <time>2020-02-03T16:10:35Z</time>
      </trkpt>
      <trkpt lat="25.675748" lon="-100.284321">
        <ele>494.975</ele>
        <time>2020-02-03T16:10:37Z</time>
      </trkpt>
      <trkpt lat="25.675752" lon="-100.284293">
        <ele>495.018</ele>
        <time>2020-02-03T16:10:38Z</time>
      </trkpt>
      <trkpt lat="25.675754" lon="-100.284265">
        <ele>494.673</ele>
        <time>2020-02-03T16:10:39Z</time>
      </trkpt>
      <trkpt lat="25.675743" lon="-100.284209">
        <ele>494.383</ele>
        <time>2020-02-03T16:10:41Z</time>
      </trkpt>
      <trkpt lat="25.675703" lon="-100.284165">
        <ele>494.664</ele>
        <time>2020-02-03T16:10:43Z</time>
      </trkpt>
      <trkpt lat="25.675646" lon="-100.28414">
        <ele>494.602</ele>
        <time>2020-02-03T16:10:45Z</time>
      </trkpt>
      <trkpt lat="25.67558" lon="-100.284126">
        <ele>494.968</ele>
        <time>2020-02-03T16:10:47Z</time>
      </trkpt>
      <trkpt lat="25.675548" lon="-100.284116">
        <ele>495.662</ele>
        <time>2020-02-03T16:10:48Z</time>
      </trkpt>
      <trkpt lat="25.675489" lon="-100.284083">
        <ele>495.565</ele>
        <time>2020-02-03T16:10:50Z</time>
      </trkpt>
      <trkpt lat="25.67544" lon="-100.284034">
        <ele>494.857</ele>
        <time>2020-02-03T16:10:52Z</time>
      </trkpt>
      <trkpt lat="25.675383" lon="-100.283942">
        <ele>495.514</ele>
        <time>2020-02-03T16:10:55Z</time>
      </trkpt>
      <trkpt lat="25.675362" lon="-100.28388">
        <ele>495.802</ele>
        <time>2020-02-03T16:10:57Z</time>
      </trkpt>
      <trkpt lat="25.675355" lon="-100.283852">
        <ele>496.496</ele>
        <time>2020-02-03T16:10:58Z</time>
      </trkpt>
      <trkpt lat="25.675348" lon="-100.283824">
        <ele>496.376</ele>
        <time>2020-02-03T16:10:59Z</time>
      </trkpt>
      <trkpt lat="25.675343" lon="-100.283795">
        <ele>499.034</ele>
        <time>2020-02-03T16:11:00Z</time>
      </trkpt>
      <trkpt lat="25.675335" lon="-100.283767">
        <ele>502.037</ele>
        <time>2020-02-03T16:11:01Z</time>
      </trkpt>
      <trkpt lat="25.675328" lon="-100.283741">
        <ele>499.042</ele>
        <time>2020-02-03T16:11:02Z</time>
      </trkpt>
      <trkpt lat="25.675323" lon="-100.283714">
        <ele>499.427</ele>
        <time>2020-02-03T16:11:03Z</time>
      </trkpt>
      <trkpt lat="25.675318" lon="-100.283688">
        <ele>499.952</ele>
        <time>2020-02-03T16:11:04Z</time>
      </trkpt>
      <trkpt lat="25.675308" lon="-100.28364">
        <ele>499.549</ele>
        <time>2020-02-03T16:11:06Z</time>
      </trkpt>
      <trkpt lat="25.675302" lon="-100.283615">
        <ele>499.516</ele>
        <time>2020-02-03T16:11:07Z</time>
      </trkpt>
      <trkpt lat="25.675297" lon="-100.283562">
        <ele>498.372</ele>
        <time>2020-02-03T16:11:09Z</time>
      </trkpt>
      <trkpt lat="25.675293" lon="-100.283534">
        <ele>497.913</ele>
        <time>2020-02-03T16:11:10Z</time>
      </trkpt>
      <trkpt lat="25.675276" lon="-100.283479">
        <ele>497.99</ele>
        <time>2020-02-03T16:11:12Z</time>
      </trkpt>
      <trkpt lat="25.675269" lon="-100.283425">
        <ele>497.003</ele>
        <time>2020-02-03T16:11:14Z</time>
      </trkpt>
      <trkpt lat="25.67528" lon="-100.283376">
        <ele>497.86</ele>
        <time>2020-02-03T16:11:19Z</time>
      </trkpt>
      <trkpt lat="25.67528" lon="-100.283376">
        <ele>498.218</ele>
        <time>2020-02-03T16:11:20Z</time>
      </trkpt>
      <trkpt lat="25.67528" lon="-100.283376">
        <ele>500.054</ele>
        <time>2020-02-03T16:13:34Z</time>
      </trkpt>
      <trkpt lat="25.675274" lon="-100.283361">
        <ele>500.932</ele>
        <time>2020-02-03T16:13:35Z</time>
      </trkpt>
      <trkpt lat="25.675232" lon="-100.28331">
        <ele>502.41</ele>
        <time>2020-02-03T16:13:48Z</time>
      </trkpt>
      <trkpt lat="25.675219" lon="-100.283246">
        <ele>502.138</ele>
        <time>2020-02-03T16:13:50Z</time>
      </trkpt>
      <trkpt lat="25.675217" lon="-100.283189">
        <ele>501.54</ele>
        <time>2020-02-03T16:13:52Z</time>
      </trkpt>
      <trkpt lat="25.675215" lon="-100.283159">
        <ele>500.775</ele>
        <time>2020-02-03T16:13:53Z</time>
      </trkpt>
      <trkpt lat="25.675214" lon="-100.283126">
        <ele>500.557</ele>
        <time>2020-02-03T16:13:54Z</time>
      </trkpt>
      <trkpt lat="25.675213" lon="-100.283097">
        <ele>500.403</ele>
        <time>2020-02-03T16:13:55Z</time>
      </trkpt>
      <trkpt lat="25.675211" lon="-100.283071">
        <ele>501.423</ele>
        <time>2020-02-03T16:13:56Z</time>
      </trkpt>
      <trkpt lat="25.675207" lon="-100.28304">
        <ele>501.832</ele>
        <time>2020-02-03T16:13:57Z</time>
      </trkpt>
      <trkpt lat="25.675204" lon="-100.283011">
        <ele>502.509</ele>
        <time>2020-02-03T16:13:58Z</time>
      </trkpt>
      <trkpt lat="25.675202" lon="-100.282959">
        <ele>502.609</ele>
        <time>2020-02-03T16:14:00Z</time>
      </trkpt>
      <trkpt lat="25.675201" lon="-100.282923">
        <ele>502.57</ele>
        <time>2020-02-03T16:14:01Z</time>
      </trkpt>
      <trkpt lat="25.6752" lon="-100.282885">
        <ele>501.415</ele>
        <time>2020-02-03T16:14:02Z</time>
      </trkpt>
      <trkpt lat="25.675199" lon="-100.28281">
        <ele>502.743</ele>
        <time>2020-02-03T16:14:04Z</time>
      </trkpt>
      <trkpt lat="25.6752" lon="-100.28277">
        <ele>502.985</ele>
        <time>2020-02-03T16:14:05Z</time>
      </trkpt>
      <trkpt lat="25.675202" lon="-100.282732">
        <ele>502.429</ele>
        <time>2020-02-03T16:14:06Z</time>
      </trkpt>
      <trkpt lat="25.675205" lon="-100.282696">
        <ele>501.614</ele>
        <time>2020-02-03T16:14:07Z</time>
      </trkpt>
      <trkpt lat="25.675206" lon="-100.282661">
        <ele>503.936</ele>
        <time>2020-02-03T16:14:08Z</time>
      </trkpt>
      <trkpt lat="25.675208" lon="-100.282627">
        <ele>502.784</ele>
        <time>2020-02-03T16:14:09Z</time>
      </trkpt>
      <trkpt lat="25.67521" lon="-100.282594">
        <ele>502.674</ele>
        <time>2020-02-03T16:14:10Z</time>
      </trkpt>
      <trkpt lat="25.675214" lon="-100.282561">
        <ele>500.96</ele>
        <time>2020-02-03T16:14:11Z</time>
      </trkpt>
      <trkpt lat="25.675218" lon="-100.282529">
        <ele>501.919</ele>
        <time>2020-02-03T16:14:12Z</time>
      </trkpt>
      <trkpt lat="25.675222" lon="-100.282497">
        <ele>500.48</ele>
        <time>2020-02-03T16:14:13Z</time>
      </trkpt>
      <trkpt lat="25.675227" lon="-100.282466">
        <ele>499.978</ele>
        <time>2020-02-03T16:14:14Z</time>
      </trkpt>
      <trkpt lat="25.675231" lon="-100.282436">
        <ele>499.127</ele>
        <time>2020-02-03T16:14:15Z</time>
      </trkpt>
      <trkpt lat="25.675243" lon="-100.282379">
        <ele>497.415</ele>
        <time>2020-02-03T16:14:17Z</time>
      </trkpt>
      <trkpt lat="25.675247" lon="-100.282353">
        <ele>498.05</ele>
        <time>2020-02-03T16:14:18Z</time>
      </trkpt>
      <trkpt lat="25.675251" lon="-100.282325">
        <ele>498.837</ele>
        <time>2020-02-03T16:14:19Z</time>
      </trkpt>
      <trkpt lat="25.675255" lon="-100.282298">
        <ele>499.428</ele>
        <time>2020-02-03T16:14:20Z</time>
      </trkpt>
      <trkpt lat="25.675258" lon="-100.282248">
        <ele>498.35</ele>
        <time>2020-02-03T16:14:22Z</time>
      </trkpt>
      <trkpt lat="25.675267" lon="-100.282174">
        <ele>498.513</ele>
        <time>2020-02-03T16:14:25Z</time>
      </trkpt>
      <trkpt lat="25.675272" lon="-100.282131">
        <ele>498.098</ele>
        <time>2020-02-03T16:14:27Z</time>
      </trkpt>
      <trkpt lat="25.675276" lon="-100.2821">
        <ele>498.128</ele>
        <time>2020-02-03T16:14:29Z</time>
      </trkpt>
      <trkpt lat="25.675277" lon="-100.282046">
        <ele>497.812</ele>
        <time>2020-02-03T16:14:34Z</time>
      </trkpt>
      <trkpt lat="25.675289" lon="-100.281975">
        <ele>497.938</ele>
        <time>2020-02-03T16:14:37Z</time>
      </trkpt>
      <trkpt lat="25.675296" lon="-100.281929">
        <ele>498.301</ele>
        <time>2020-02-03T16:14:39Z</time>
      </trkpt>
      <trkpt lat="25.6753" lon="-100.28189">
        <ele>498.132</ele>
        <time>2020-02-03T16:14:41Z</time>
      </trkpt>
      <trkpt lat="25.675308" lon="-100.281842">
        <ele>497.953</ele>
        <time>2020-02-03T16:14:43Z</time>
      </trkpt>
      <trkpt lat="25.675325" lon="-100.281775">
        <ele>498.285</ele>
        <time>2020-02-03T16:14:46Z</time>
      </trkpt>
      <trkpt lat="25.675331" lon="-100.281724">
        <ele>499.005</ele>
        <time>2020-02-03T16:14:48Z</time>
      </trkpt>
      <trkpt lat="25.675333" lon="-100.281694">
        <ele>500.04</ele>
        <time>2020-02-03T16:14:49Z</time>
      </trkpt>
      <trkpt lat="25.675336" lon="-100.281663">
        <ele>499.857</ele>
        <time>2020-02-03T16:14:50Z</time>
      </trkpt>
      <trkpt lat="25.675339" lon="-100.281634">
        <ele>500.033</ele>
        <time>2020-02-03T16:14:51Z</time>
      </trkpt>
      <trkpt lat="25.675341" lon="-100.281605">
        <ele>501.723</ele>
        <time>2020-02-03T16:14:52Z</time>
      </trkpt>
      <trkpt lat="25.675345" lon="-100.281577">
        <ele>502.138</ele>
        <time>2020-02-03T16:14:53Z</time>
      </trkpt>
      <trkpt lat="25.675348" lon="-100.281549">
        <ele>501.722</ele>
        <time>2020-02-03T16:14:54Z</time>
      </trkpt>
      <trkpt lat="25.67535" lon="-100.28152">
        <ele>501.927</ele>
        <time>2020-02-03T16:14:55Z</time>
      </trkpt>
      <trkpt lat="25.675353" lon="-100.281493">
        <ele>500.794</ele>
        <time>2020-02-03T16:14:56Z</time>
      </trkpt>
      <trkpt lat="25.675353" lon="-100.281464">
        <ele>501.047</ele>
        <time>2020-02-03T16:14:57Z</time>
      </trkpt>
      <trkpt lat="25.675355" lon="-100.281435">
        <ele>501.214</ele>
        <time>2020-02-03T16:14:58Z</time>
      </trkpt>
      <trkpt lat="25.675358" lon="-100.281404">
        <ele>502.76</ele>
        <time>2020-02-03T16:14:59Z</time>
      </trkpt>
      <trkpt lat="25.67536" lon="-100.281373">
        <ele>501.445</ele>
        <time>2020-02-03T16:15:00Z</time>
      </trkpt>
      <trkpt lat="25.675366" lon="-100.281306">
        <ele>501.099</ele>
        <time>2020-02-03T16:15:02Z</time>
      </trkpt>
      <trkpt lat="25.675369" lon="-100.281273">
        <ele>499.426</ele>
        <time>2020-02-03T16:15:03Z</time>
      </trkpt>
      <trkpt lat="25.675373" lon="-100.281239">
        <ele>498.61</ele>
        <time>2020-02-03T16:15:04Z</time>
      </trkpt>
      <trkpt lat="25.675378" lon="-100.281206">
        <ele>498.454</ele>
        <time>2020-02-03T16:15:05Z</time>
      </trkpt>
      <trkpt lat="25.675382" lon="-100.281168">
        <ele>497.978</ele>
        <time>2020-02-03T16:15:06Z</time>
      </trkpt>
      <trkpt lat="25.675386" lon="-100.28113">
        <ele>498.064</ele>
        <time>2020-02-03T16:15:07Z</time>
      </trkpt>
      <trkpt lat="25.675389" lon="-100.281094">
        <ele>497.891</ele>
        <time>2020-02-03T16:15:08Z</time>
      </trkpt>
      <trkpt lat="25.675389" lon="-100.281027">
        <ele>499.483</ele>
        <time>2020-02-03T16:15:10Z</time>
      </trkpt>
      <trkpt lat="25.675389" lon="-100.280997">
        <ele>498.439</ele>
        <time>2020-02-03T16:15:11Z</time>
      </trkpt>
      <trkpt lat="25.675391" lon="-100.280967">
        <ele>498.55</ele>
        <time>2020-02-03T16:15:12Z</time>
      </trkpt>
      <trkpt lat="25.675404" lon="-100.280906">
        <ele>498.464</ele>
        <time>2020-02-03T16:15:14Z</time>
      </trkpt>
      <trkpt lat="25.675441" lon="-100.280855">
        <ele>498.825</ele>
        <time>2020-02-03T16:15:16Z</time>
      </trkpt>
      <trkpt lat="25.6755" lon="-100.280853">
        <ele>498.701</ele>
        <time>2020-02-03T16:15:18Z</time>
      </trkpt>
      <trkpt lat="25.675552" lon="-100.280898">
        <ele>498.551</ele>
        <time>2020-02-03T16:15:20Z</time>
      </trkpt>
      <trkpt lat="25.675604" lon="-100.281001">
        <ele>498.607</ele>
        <time>2020-02-03T16:15:23Z</time>
      </trkpt>
      <trkpt lat="25.675629" lon="-100.281074">
        <ele>498.608</ele>
        <time>2020-02-03T16:15:25Z</time>
      </trkpt>
      <trkpt lat="25.675639" lon="-100.281112">
        <ele>498.631</ele>
        <time>2020-02-03T16:15:26Z</time>
      </trkpt>
      <trkpt lat="25.675648" lon="-100.28115">
        <ele>497.832</ele>
        <time>2020-02-03T16:15:27Z</time>
      </trkpt>
      <trkpt lat="25.67566" lon="-100.281187">
        <ele>497.754</ele>
        <time>2020-02-03T16:15:28Z</time>
      </trkpt>
      <trkpt lat="25.675688" lon="-100.281256">
        <ele>496.884</ele>
        <time>2020-02-03T16:15:30Z</time>
      </trkpt>
      <trkpt lat="25.675703" lon="-100.281293">
        <ele>497.324</ele>
        <time>2020-02-03T16:15:31Z</time>
      </trkpt>
      <trkpt lat="25.675716" lon="-100.281327">
        <ele>498.297</ele>
        <time>2020-02-03T16:15:32Z</time>
      </trkpt>
      <trkpt lat="25.675745" lon="-100.281387">
        <ele>498.361</ele>
        <time>2020-02-03T16:15:34Z</time>
      </trkpt>
      <trkpt lat="25.675759" lon="-100.281415">
        <ele>498.888</ele>
        <time>2020-02-03T16:15:35Z</time>
      </trkpt>
      <trkpt lat="25.675773" lon="-100.281442">
        <ele>498.302</ele>
        <time>2020-02-03T16:15:36Z</time>
      </trkpt>
      <trkpt lat="25.675789" lon="-100.281469">
        <ele>499.356</ele>
        <time>2020-02-03T16:15:37Z</time>
      </trkpt>
      <trkpt lat="25.675803" lon="-100.281496">
        <ele>499.478</ele>
        <time>2020-02-03T16:15:38Z</time>
      </trkpt>
      <trkpt lat="25.675816" lon="-100.281523">
        <ele>499.686</ele>
        <time>2020-02-03T16:15:39Z</time>
      </trkpt>
      <trkpt lat="25.675829" lon="-100.281549">
        <ele>501.799</ele>
        <time>2020-02-03T16:15:40Z</time>
      </trkpt>
      <trkpt lat="25.675847" lon="-100.281607">
        <ele>500.74</ele>
        <time>2020-02-03T16:15:42Z</time>
      </trkpt>
      <trkpt lat="25.675885" lon="-100.281656">
        <ele>500.397</ele>
        <time>2020-02-03T16:15:44Z</time>
      </trkpt>
      <trkpt lat="25.675922" lon="-100.281694">
        <ele>500.161</ele>
        <time>2020-02-03T16:15:46Z</time>
      </trkpt>
      <trkpt lat="25.675943" lon="-100.281713">
        <ele>499.505</ele>
        <time>2020-02-03T16:15:47Z</time>
      </trkpt>
      <trkpt lat="25.675962" lon="-100.281733">
        <ele>499.383</ele>
        <time>2020-02-03T16:15:48Z</time>
      </trkpt>
      <trkpt lat="25.67598" lon="-100.281756">
        <ele>498.572</ele>
        <time>2020-02-03T16:15:49Z</time>
      </trkpt>
      <trkpt lat="25.676" lon="-100.281778">
        <ele>498.95</ele>
        <time>2020-02-03T16:15:50Z</time>
      </trkpt>
      <trkpt lat="25.676019" lon="-100.281798">
        <ele>497.45</ele>
        <time>2020-02-03T16:15:51Z</time>
      </trkpt>
      <trkpt lat="25.676059" lon="-100.281829">
        <ele>499.812</ele>
        <time>2020-02-03T16:15:53Z</time>
      </trkpt>
      <trkpt lat="25.67608" lon="-100.281844">
        <ele>501.196</ele>
        <time>2020-02-03T16:15:54Z</time>
      </trkpt>
      <trkpt lat="25.676102" lon="-100.281859">
        <ele>498.51</ele>
        <time>2020-02-03T16:15:55Z</time>
      </trkpt>
      <trkpt lat="25.676124" lon="-100.281874">
        <ele>498.762</ele>
        <time>2020-02-03T16:15:56Z</time>
      </trkpt>
      <trkpt lat="25.676177" lon="-100.281907">
        <ele>499.922</ele>
        <time>2020-02-03T16:15:58Z</time>
      </trkpt>
      <trkpt lat="25.676229" lon="-100.281937">
        <ele>499.823</ele>
        <time>2020-02-03T16:16:00Z</time>
      </trkpt>
      <trkpt lat="25.676254" lon="-100.281951">
        <ele>500.038</ele>
        <time>2020-02-03T16:16:01Z</time>
      </trkpt>
      <trkpt lat="25.67628" lon="-100.281963">
        <ele>499.654</ele>
        <time>2020-02-03T16:16:02Z</time>
      </trkpt>
      <trkpt lat="25.676304" lon="-100.281975">
        <ele>499.281</ele>
        <time>2020-02-03T16:16:03Z</time>
      </trkpt>
      <trkpt lat="25.676328" lon="-100.281986">
        <ele>497.693</ele>
        <time>2020-02-03T16:16:04Z</time>
      </trkpt>
      <trkpt lat="25.676373" lon="-100.282005">
        <ele>498.322</ele>
        <time>2020-02-03T16:16:06Z</time>
      </trkpt>
      <trkpt lat="25.676394" lon="-100.282015">
        <ele>497.992</ele>
        <time>2020-02-03T16:16:07Z</time>
      </trkpt>
      <trkpt lat="25.676416" lon="-100.282025">
        <ele>497.826</ele>
        <time>2020-02-03T16:16:08Z</time>
      </trkpt>
      <trkpt lat="25.676464" lon="-100.282038">
        <ele>497.686</ele>
        <time>2020-02-03T16:16:10Z</time>
      </trkpt>
      <trkpt lat="25.676509" lon="-100.282058">
        <ele>497.595</ele>
        <time>2020-02-03T16:16:12Z</time>
      </trkpt>
      <trkpt lat="25.676553" lon="-100.282088">
        <ele>497.511</ele>
        <time>2020-02-03T16:16:14Z</time>
      </trkpt>
      <trkpt lat="25.676575" lon="-100.282102">
        <ele>497.153</ele>
        <time>2020-02-03T16:16:15Z</time>
      </trkpt>
      <trkpt lat="25.6766" lon="-100.282116">
        <ele>496.815</ele>
        <time>2020-02-03T16:16:16Z</time>
      </trkpt>
      <trkpt lat="25.676625" lon="-100.282129">
        <ele>496.585</ele>
        <time>2020-02-03T16:16:17Z</time>
      </trkpt>
      <trkpt lat="25.676649" lon="-100.282142">
        <ele>496.306</ele>
        <time>2020-02-03T16:16:18Z</time>
      </trkpt>
      <trkpt lat="25.676697" lon="-100.282168">
        <ele>496.805</ele>
        <time>2020-02-03T16:16:20Z</time>
      </trkpt>
      <trkpt lat="25.676721" lon="-100.282181">
        <ele>496.576</ele>
        <time>2020-02-03T16:16:21Z</time>
      </trkpt>
      <trkpt lat="25.676769" lon="-100.282206">
        <ele>498.144</ele>
        <time>2020-02-03T16:16:23Z</time>
      </trkpt>
      <trkpt lat="25.676793" lon="-100.282219">
        <ele>499.87</ele>
        <time>2020-02-03T16:16:24Z</time>
      </trkpt>
      <trkpt lat="25.676817" lon="-100.282232">
        <ele>500.44</ele>
        <time>2020-02-03T16:16:25Z</time>
      </trkpt>
      <trkpt lat="25.676842" lon="-100.282243">
        <ele>500.7</ele>
        <time>2020-02-03T16:16:26Z</time>
      </trkpt>
      <trkpt lat="25.676867" lon="-100.282253">
        <ele>501.759</ele>
        <time>2020-02-03T16:16:27Z</time>
      </trkpt>
      <trkpt lat="25.676893" lon="-100.282262">
        <ele>502.203</ele>
        <time>2020-02-03T16:16:28Z</time>
      </trkpt>
      <trkpt lat="25.676918" lon="-100.282273">
        <ele>502.558</ele>
        <time>2020-02-03T16:16:29Z</time>
      </trkpt>
      <trkpt lat="25.676942" lon="-100.282285">
        <ele>502.838</ele>
        <time>2020-02-03T16:16:30Z</time>
      </trkpt>
      <trkpt lat="25.676966" lon="-100.282298">
        <ele>502.052</ele>
        <time>2020-02-03T16:16:31Z</time>
      </trkpt>
      <trkpt lat="25.676989" lon="-100.282311">
        <ele>501.654</ele>
        <time>2020-02-03T16:16:32Z</time>
      </trkpt>
      <trkpt lat="25.677012" lon="-100.282324">
        <ele>501.075</ele>
        <time>2020-02-03T16:16:33Z</time>
      </trkpt>
      <trkpt lat="25.677037" lon="-100.282339">
        <ele>500.86</ele>
        <time>2020-02-03T16:16:34Z</time>
      </trkpt>
      <trkpt lat="25.677063" lon="-100.282353">
        <ele>501.28</ele>
        <time>2020-02-03T16:16:35Z</time>
      </trkpt>
      <trkpt lat="25.677094" lon="-100.282369">
        <ele>501.272</ele>
        <time>2020-02-03T16:16:36Z</time>
      </trkpt>
      <trkpt lat="25.677126" lon="-100.282384">
        <ele>501.249</ele>
        <time>2020-02-03T16:16:37Z</time>
      </trkpt>
      <trkpt lat="25.67716" lon="-100.282399">
        <ele>500.988</ele>
        <time>2020-02-03T16:16:38Z</time>
      </trkpt>
      <trkpt lat="25.677191" lon="-100.282412">
        <ele>500.625</ele>
        <time>2020-02-03T16:16:39Z</time>
      </trkpt>
      <trkpt lat="25.677255" lon="-100.282436">
        <ele>500.16</ele>
        <time>2020-02-03T16:16:41Z</time>
      </trkpt>
      <trkpt lat="25.677285" lon="-100.282447">
        <ele>500.713</ele>
        <time>2020-02-03T16:16:42Z</time>
      </trkpt>
      <trkpt lat="25.677314" lon="-100.28246">
        <ele>500.807</ele>
        <time>2020-02-03T16:16:43Z</time>
      </trkpt>
      <trkpt lat="25.677343" lon="-100.282474">
        <ele>500.162</ele>
        <time>2020-02-03T16:16:44Z</time>
      </trkpt>
      <trkpt lat="25.677399" lon="-100.282501">
        <ele>499.771</ele>
        <time>2020-02-03T16:16:46Z</time>
      </trkpt>
      <trkpt lat="25.677428" lon="-100.282513">
        <ele>499.756</ele>
        <time>2020-02-03T16:16:47Z</time>
      </trkpt>
      <trkpt lat="25.677457" lon="-100.282526">
        <ele>499.642</ele>
        <time>2020-02-03T16:16:48Z</time>
      </trkpt>
      <trkpt lat="25.677485" lon="-100.282539">
        <ele>499.268</ele>
        <time>2020-02-03T16:16:49Z</time>
      </trkpt>
      <trkpt lat="25.677512" lon="-100.282552">
        <ele>497.605</ele>
        <time>2020-02-03T16:16:50Z</time>
      </trkpt>
      <trkpt lat="25.677541" lon="-100.282568">
        <ele>496.873</ele>
        <time>2020-02-03T16:16:51Z</time>
      </trkpt>
      <trkpt lat="25.677569" lon="-100.282582">
        <ele>497.469</ele>
        <time>2020-02-03T16:16:52Z</time>
      </trkpt>
      <trkpt lat="25.677597" lon="-100.282598">
        <ele>497.821</ele>
        <time>2020-02-03T16:16:53Z</time>
      </trkpt>
      <trkpt lat="25.677622" lon="-100.282615">
        <ele>498.22</ele>
        <time>2020-02-03T16:16:54Z</time>
      </trkpt>
      <trkpt lat="25.677646" lon="-100.28263">
        <ele>498.683</ele>
        <time>2020-02-03T16:16:55Z</time>
      </trkpt>
      <trkpt lat="25.677671" lon="-100.282644">
        <ele>498.422</ele>
        <time>2020-02-03T16:16:56Z</time>
      </trkpt>
      <trkpt lat="25.677695" lon="-100.282657">
        <ele>498.238</ele>
        <time>2020-02-03T16:16:57Z</time>
      </trkpt>
      <trkpt lat="25.677721" lon="-100.282668">
        <ele>497.42</ele>
        <time>2020-02-03T16:16:58Z</time>
      </trkpt>
      <trkpt lat="25.677743" lon="-100.282679">
        <ele>497.034</ele>
        <time>2020-02-03T16:16:59Z</time>
      </trkpt>
      <trkpt lat="25.677764" lon="-100.28269">
        <ele>496.28</ele>
        <time>2020-02-03T16:17:00Z</time>
      </trkpt>
      <trkpt lat="25.677785" lon="-100.282702">
        <ele>496.397</ele>
        <time>2020-02-03T16:17:01Z</time>
      </trkpt>
      <trkpt lat="25.677805" lon="-100.282715">
        <ele>496.838</ele>
        <time>2020-02-03T16:17:02Z</time>
      </trkpt>
      <trkpt lat="25.677862" lon="-100.282743">
        <ele>497.218</ele>
        <time>2020-02-03T16:17:05Z</time>
      </trkpt>
      <trkpt lat="25.677905" lon="-100.282759">
        <ele>497.244</ele>
        <time>2020-02-03T16:17:07Z</time>
      </trkpt>
      <trkpt lat="25.677942" lon="-100.282773">
        <ele>498.044</ele>
        <time>2020-02-03T16:17:09Z</time>
      </trkpt>
      <trkpt lat="25.677984" lon="-100.282799">
        <ele>498.078</ele>
        <time>2020-02-03T16:17:11Z</time>
      </trkpt>
      <trkpt lat="25.678008" lon="-100.282814">
        <ele>498.187</ele>
        <time>2020-02-03T16:17:12Z</time>
      </trkpt>
      <trkpt lat="25.678033" lon="-100.28283">
        <ele>498.295</ele>
        <time>2020-02-03T16:17:13Z</time>
      </trkpt>
      <trkpt lat="25.678055" lon="-100.282845">
        <ele>498.487</ele>
        <time>2020-02-03T16:17:14Z</time>
      </trkpt>
      <trkpt lat="25.678079" lon="-100.282859">
        <ele>499.185</ele>
        <time>2020-02-03T16:17:15Z</time>
      </trkpt>
      <trkpt lat="25.678104" lon="-100.282872">
        <ele>499.449</ele>
        <time>2020-02-03T16:17:16Z</time>
      </trkpt>
      <trkpt lat="25.67813" lon="-100.282886">
        <ele>500.271</ele>
        <time>2020-02-03T16:17:17Z</time>
      </trkpt>
      <trkpt lat="25.678154" lon="-100.282901">
        <ele>500.548</ele>
        <time>2020-02-03T16:17:18Z</time>
      </trkpt>
      <trkpt lat="25.678177" lon="-100.282915">
        <ele>498.945</ele>
        <time>2020-02-03T16:17:19Z</time>
      </trkpt>
      <trkpt lat="25.678201" lon="-100.282928">
        <ele>497.142</ele>
        <time>2020-02-03T16:17:20Z</time>
      </trkpt>
      <trkpt lat="25.678225" lon="-100.282943">
        <ele>497.17</ele>
        <time>2020-02-03T16:17:21Z</time>
      </trkpt>
      <trkpt lat="25.678247" lon="-100.282958">
        <ele>496.918</ele>
        <time>2020-02-03T16:17:22Z</time>
      </trkpt>
      <trkpt lat="25.678269" lon="-100.282972">
        <ele>496.385</ele>
        <time>2020-02-03T16:17:23Z</time>
      </trkpt>
      <trkpt lat="25.678291" lon="-100.282985">
        <ele>495.33</ele>
        <time>2020-02-03T16:17:24Z</time>
      </trkpt>
      <trkpt lat="25.678313" lon="-100.283001">
        <ele>495.421</ele>
        <time>2020-02-03T16:17:25Z</time>
      </trkpt>
      <trkpt lat="25.678335" lon="-100.283017">
        <ele>495.479</ele>
        <time>2020-02-03T16:17:26Z</time>
      </trkpt>
      <trkpt lat="25.678355" lon="-100.283034">
        <ele>495.708</ele>
        <time>2020-02-03T16:17:27Z</time>
      </trkpt>
      <trkpt lat="25.678376" lon="-100.283054">
        <ele>495.562</ele>
        <time>2020-02-03T16:17:28Z</time>
      </trkpt>
      <trkpt lat="25.678427" lon="-100.283125">
        <ele>495.042</ele>
        <time>2020-02-03T16:17:31Z</time>
      </trkpt>
      <trkpt lat="25.678445" lon="-100.283181">
        <ele>494.692</ele>
        <time>2020-02-03T16:17:33Z</time>
      </trkpt>
      <trkpt lat="25.678452" lon="-100.283208">
        <ele>494.661</ele>
        <time>2020-02-03T16:17:34Z</time>
      </trkpt>
      <trkpt lat="25.678493" lon="-100.283241">
        <ele>495.114</ele>
        <time>2020-02-03T16:17:36Z</time>
      </trkpt>
      <trkpt lat="25.678549" lon="-100.283237">
        <ele>495.277</ele>
        <time>2020-02-03T16:17:38Z</time>
      </trkpt>
      <trkpt lat="25.678603" lon="-100.283221">
        <ele>495.486</ele>
        <time>2020-02-03T16:17:40Z</time>
      </trkpt>
      <trkpt lat="25.678654" lon="-100.283198">
        <ele>495.795</ele>
        <time>2020-02-03T16:17:42Z</time>
      </trkpt>
      <trkpt lat="25.678678" lon="-100.283186">
        <ele>496.17</ele>
        <time>2020-02-03T16:17:43Z</time>
      </trkpt>
      <trkpt lat="25.678724" lon="-100.283158">
        <ele>495.969</ele>
        <time>2020-02-03T16:17:45Z</time>
      </trkpt>
      <trkpt lat="25.678746" lon="-100.283145">
        <ele>495.598</ele>
        <time>2020-02-03T16:17:46Z</time>
      </trkpt>
      <trkpt lat="25.678767" lon="-100.28313">
        <ele>495.271</ele>
        <time>2020-02-03T16:17:47Z</time>
      </trkpt>
      <trkpt lat="25.678789" lon="-100.283115">
        <ele>495.161</ele>
        <time>2020-02-03T16:17:48Z</time>
      </trkpt>
      <trkpt lat="25.67881" lon="-100.283099">
        <ele>496.028</ele>
        <time>2020-02-03T16:17:49Z</time>
      </trkpt>
      <trkpt lat="25.678831" lon="-100.283082">
        <ele>496.343</ele>
        <time>2020-02-03T16:17:50Z</time>
      </trkpt>
      <trkpt lat="25.67887" lon="-100.283045">
        <ele>495.652</ele>
        <time>2020-02-03T16:17:52Z</time>
      </trkpt>
      <trkpt lat="25.678888" lon="-100.283027">
        <ele>496.386</ele>
        <time>2020-02-03T16:17:53Z</time>
      </trkpt>
      <trkpt lat="25.678908" lon="-100.283008">
        <ele>497.351</ele>
        <time>2020-02-03T16:17:54Z</time>
      </trkpt>
      <trkpt lat="25.678927" lon="-100.282988">
        <ele>497.85</ele>
        <time>2020-02-03T16:17:55Z</time>
      </trkpt>
      <trkpt lat="25.678944" lon="-100.282968">
        <ele>498.938</ele>
        <time>2020-02-03T16:17:56Z</time>
      </trkpt>
      <trkpt lat="25.67896" lon="-100.282949">
        <ele>498.443</ele>
        <time>2020-02-03T16:17:57Z</time>
      </trkpt>
      <trkpt lat="25.678977" lon="-100.28293">
        <ele>497.25</ele>
        <time>2020-02-03T16:17:58Z</time>
      </trkpt>
      <trkpt lat="25.678992" lon="-100.28291">
        <ele>496.957</ele>
        <time>2020-02-03T16:17:59Z</time>
      </trkpt>
      <trkpt lat="25.679006" lon="-100.282891">
        <ele>496.4</ele>
        <time>2020-02-03T16:18:00Z</time>
      </trkpt>
      <trkpt lat="25.679041" lon="-100.282825">
        <ele>496.706</ele>
        <time>2020-02-03T16:18:03Z</time>
      </trkpt>
      <trkpt lat="25.679061" lon="-100.282778">
        <ele>496.653</ele>
        <time>2020-02-03T16:18:05Z</time>
      </trkpt>
      <trkpt lat="25.679085" lon="-100.28273">
        <ele>497.684</ele>
        <time>2020-02-03T16:18:07Z</time>
      </trkpt>
      <trkpt lat="25.679097" lon="-100.282705">
        <ele>499.02</ele>
        <time>2020-02-03T16:18:08Z</time>
      </trkpt>
      <trkpt lat="25.679109" lon="-100.28268">
        <ele>499.76</ele>
        <time>2020-02-03T16:18:09Z</time>
      </trkpt>
      <trkpt lat="25.679121" lon="-100.282656">
        <ele>499.595</ele>
        <time>2020-02-03T16:18:10Z</time>
      </trkpt>
      <trkpt lat="25.679132" lon="-100.282631">
        <ele>499.239</ele>
        <time>2020-02-03T16:18:11Z</time>
      </trkpt>
      <trkpt lat="25.679147" lon="-100.282572">
        <ele>499.596</ele>
        <time>2020-02-03T16:18:13Z</time>
      </trkpt>
      <trkpt lat="25.67915" lon="-100.282509">
        <ele>499.392</ele>
        <time>2020-02-03T16:18:15Z</time>
      </trkpt>
      <trkpt lat="25.679135" lon="-100.282447">
        <ele>499.679</ele>
        <time>2020-02-03T16:18:17Z</time>
      </trkpt>
      <trkpt lat="25.679109" lon="-100.282389">
        <ele>499.292</ele>
        <time>2020-02-03T16:18:19Z</time>
      </trkpt>
      <trkpt lat="25.679072" lon="-100.282336">
        <ele>498.948</ele>
        <time>2020-02-03T16:18:21Z</time>
      </trkpt>
      <trkpt lat="25.679054" lon="-100.282312">
        <ele>498.473</ele>
        <time>2020-02-03T16:18:22Z</time>
      </trkpt>
      <trkpt lat="25.679037" lon="-100.282291">
        <ele>498.545</ele>
        <time>2020-02-03T16:18:23Z</time>
      </trkpt>
      <trkpt lat="25.67902" lon="-100.282269">
        <ele>498.444</ele>
        <time>2020-02-03T16:18:24Z</time>
      </trkpt>
      <trkpt lat="25.679005" lon="-100.282182">
        <ele>498.758</ele>
        <time>2020-02-03T16:18:27Z</time>
      </trkpt>
      <trkpt lat="25.679044" lon="-100.282139">
        <ele>497.698</ele>
        <time>2020-02-03T16:18:29Z</time>
      </trkpt>
      <trkpt lat="25.6791" lon="-100.282119">
        <ele>497.92</ele>
        <time>2020-02-03T16:18:31Z</time>
      </trkpt>
      <trkpt lat="25.679126" lon="-100.282109">
        <ele>497.897</ele>
        <time>2020-02-03T16:18:32Z</time>
      </trkpt>
      <trkpt lat="25.679153" lon="-100.282098">
        <ele>497.825</ele>
        <time>2020-02-03T16:18:33Z</time>
      </trkpt>
      <trkpt lat="25.6792" lon="-100.282068">
        <ele>496.787</ele>
        <time>2020-02-03T16:18:35Z</time>
      </trkpt>
      <trkpt lat="25.679235" lon="-100.282022">
        <ele>497.223</ele>
        <time>2020-02-03T16:18:37Z</time>
      </trkpt>
      <trkpt lat="25.679251" lon="-100.281961">
        <ele>497.417</ele>
        <time>2020-02-03T16:18:39Z</time>
      </trkpt>
      <trkpt lat="25.679253" lon="-100.2819">
        <ele>497.358</ele>
        <time>2020-02-03T16:18:41Z</time>
      </trkpt>
      <trkpt lat="25.679254" lon="-100.28187">
        <ele>498.465</ele>
        <time>2020-02-03T16:18:42Z</time>
      </trkpt>
      <trkpt lat="25.679253" lon="-100.281841">
        <ele>498.115</ele>
        <time>2020-02-03T16:18:43Z</time>
      </trkpt>
      <trkpt lat="25.679251" lon="-100.281811">
        <ele>499.183</ele>
        <time>2020-02-03T16:18:44Z</time>
      </trkpt>
      <trkpt lat="25.67925" lon="-100.281782">
        <ele>500.892</ele>
        <time>2020-02-03T16:18:45Z</time>
      </trkpt>
      <trkpt lat="25.679249" lon="-100.281752">
        <ele>500.572</ele>
        <time>2020-02-03T16:18:46Z</time>
      </trkpt>
      <trkpt lat="25.679248" lon="-100.281722">
        <ele>498.88</ele>
        <time>2020-02-03T16:18:47Z</time>
      </trkpt>
      <trkpt lat="25.679246" lon="-100.281693">
        <ele>498.463</ele>
        <time>2020-02-03T16:18:48Z</time>
      </trkpt>
      <trkpt lat="25.679243" lon="-100.281663">
        <ele>498.249</ele>
        <time>2020-02-03T16:18:49Z</time>
      </trkpt>
      <trkpt lat="25.679241" lon="-100.281631">
        <ele>499.095</ele>
        <time>2020-02-03T16:18:50Z</time>
      </trkpt>
      <trkpt lat="25.679239" lon="-100.281601">
        <ele>498.07</ele>
        <time>2020-02-03T16:18:51Z</time>
      </trkpt>
      <trkpt lat="25.679237" lon="-100.281569">
        <ele>497.335</ele>
        <time>2020-02-03T16:18:52Z</time>
      </trkpt>
      <trkpt lat="25.679235" lon="-100.281534">
        <ele>497.525</ele>
        <time>2020-02-03T16:18:53Z</time>
      </trkpt>
      <trkpt lat="25.679232" lon="-100.281499">
        <ele>498.641</ele>
        <time>2020-02-03T16:18:54Z</time>
      </trkpt>
      <trkpt lat="25.67923" lon="-100.281464">
        <ele>499.023</ele>
        <time>2020-02-03T16:18:55Z</time>
      </trkpt>
      <trkpt lat="25.679225" lon="-100.281393">
        <ele>498.759</ele>
        <time>2020-02-03T16:18:57Z</time>
      </trkpt>
      <trkpt lat="25.679223" lon="-100.281354">
        <ele>499.945</ele>
        <time>2020-02-03T16:18:58Z</time>
      </trkpt>
      <trkpt lat="25.679208" lon="-100.281241">
        <ele>499.221</ele>
        <time>2020-02-03T16:19:01Z</time>
      </trkpt>
      <trkpt lat="25.679204" lon="-100.281205">
        <ele>498.503</ele>
        <time>2020-02-03T16:19:02Z</time>
      </trkpt>
      <trkpt lat="25.679201" lon="-100.281133">
        <ele>497.329</ele>
        <time>2020-02-03T16:19:04Z</time>
      </trkpt>
      <trkpt lat="25.6792" lon="-100.281098">
        <ele>498.972</ele>
        <time>2020-02-03T16:19:05Z</time>
      </trkpt>
      <trkpt lat="25.679198" lon="-100.281065">
        <ele>498.979</ele>
        <time>2020-02-03T16:19:06Z</time>
      </trkpt>
      <trkpt lat="25.679194" lon="-100.281032">
        <ele>498.592</ele>
        <time>2020-02-03T16:19:07Z</time>
      </trkpt>
      <trkpt lat="25.67919" lon="-100.281002">
        <ele>499.126</ele>
        <time>2020-02-03T16:19:08Z</time>
      </trkpt>
      <trkpt lat="25.679186" lon="-100.280972">
        <ele>498.781</ele>
        <time>2020-02-03T16:19:09Z</time>
      </trkpt>
      <trkpt lat="25.679183" lon="-100.280894">
        <ele>498.724</ele>
        <time>2020-02-03T16:19:12Z</time>
      </trkpt>
      <trkpt lat="25.679177" lon="-100.280836">
        <ele>499.626</ele>
        <time>2020-02-03T16:19:14Z</time>
      </trkpt>
      <trkpt lat="25.679169" lon="-100.280791">
        <ele>499.899</ele>
        <time>2020-02-03T16:19:16Z</time>
      </trkpt>
      <trkpt lat="25.679165" lon="-100.280762">
        <ele>499.786</ele>
        <time>2020-02-03T16:19:17Z</time>
      </trkpt>
      <trkpt lat="25.679157" lon="-100.280669">
        <ele>499.926</ele>
        <time>2020-02-03T16:19:20Z</time>
      </trkpt>
      <trkpt lat="25.679154" lon="-100.280644">
        <ele>500.047</ele>
        <time>2020-02-03T16:19:21Z</time>
      </trkpt>
      <trkpt lat="25.679146" lon="-100.280603">
        <ele>500.002</ele>
        <time>2020-02-03T16:19:23Z</time>
      </trkpt>
      <trkpt lat="25.679138" lon="-100.280567">
        <ele>500.455</ele>
        <time>2020-02-03T16:19:25Z</time>
      </trkpt>
      <trkpt lat="25.679135" lon="-100.280508">
        <ele>501.21</ele>
        <time>2020-02-03T16:19:27Z</time>
      </trkpt>
      <trkpt lat="25.679134" lon="-100.28048">
        <ele>500.314</ele>
        <time>2020-02-03T16:19:28Z</time>
      </trkpt>
      <trkpt lat="25.679135" lon="-100.280453">
        <ele>500.231</ele>
        <time>2020-02-03T16:19:29Z</time>
      </trkpt>
      <trkpt lat="25.679134" lon="-100.280424">
        <ele>500.171</ele>
        <time>2020-02-03T16:19:30Z</time>
      </trkpt>
      <trkpt lat="25.679134" lon="-100.280396">
        <ele>500.217</ele>
        <time>2020-02-03T16:19:31Z</time>
      </trkpt>
      <trkpt lat="25.679131" lon="-100.280365">
        <ele>500.104</ele>
        <time>2020-02-03T16:19:32Z</time>
      </trkpt>
      <trkpt lat="25.679127" lon="-100.280335">
        <ele>498.932</ele>
        <time>2020-02-03T16:19:33Z</time>
      </trkpt>
      <trkpt lat="25.679122" lon="-100.280306">
        <ele>498.838</ele>
        <time>2020-02-03T16:19:34Z</time>
      </trkpt>
      <trkpt lat="25.679117" lon="-100.280277">
        <ele>498.887</ele>
        <time>2020-02-03T16:19:35Z</time>
      </trkpt>
      <trkpt lat="25.679118" lon="-100.280218">
        <ele>499.011</ele>
        <time>2020-02-03T16:19:37Z</time>
      </trkpt>
      <trkpt lat="25.679124" lon="-100.280161">
        <ele>499.174</ele>
        <time>2020-02-03T16:19:39Z</time>
      </trkpt>
      <trkpt lat="25.679126" lon="-100.280133">
        <ele>499.367</ele>
        <time>2020-02-03T16:19:40Z</time>
      </trkpt>
      <trkpt lat="25.679127" lon="-100.280103">
        <ele>499.086</ele>
        <time>2020-02-03T16:19:41Z</time>
      </trkpt>
      <trkpt lat="25.679126" lon="-100.280073">
        <ele>497.518</ele>
        <time>2020-02-03T16:19:42Z</time>
      </trkpt>
      <trkpt lat="25.679124" lon="-100.280046">
        <ele>497.497</ele>
        <time>2020-02-03T16:19:43Z</time>
      </trkpt>
      <trkpt lat="25.67911" lon="-100.279976">
        <ele>496.786</ele>
        <time>2020-02-03T16:19:46Z</time>
      </trkpt>
      <trkpt lat="25.679106" lon="-100.27995">
        <ele>497.077</ele>
        <time>2020-02-03T16:19:47Z</time>
      </trkpt>
      <trkpt lat="25.679103" lon="-100.279925">
        <ele>496.751</ele>
        <time>2020-02-03T16:19:48Z</time>
      </trkpt>
      <trkpt lat="25.679102" lon="-100.279898">
        <ele>498.085</ele>
        <time>2020-02-03T16:19:49Z</time>
      </trkpt>
      <trkpt lat="25.679098" lon="-100.279849">
        <ele>498.743</ele>
        <time>2020-02-03T16:19:51Z</time>
      </trkpt>
      <trkpt lat="25.679097" lon="-100.279823">
        <ele>498.791</ele>
        <time>2020-02-03T16:19:52Z</time>
      </trkpt>
      <trkpt lat="25.679094" lon="-100.279797">
        <ele>499.323</ele>
        <time>2020-02-03T16:19:53Z</time>
      </trkpt>
      <trkpt lat="25.679091" lon="-100.279771">
        <ele>498.781</ele>
        <time>2020-02-03T16:19:54Z</time>
      </trkpt>
      <trkpt lat="25.679089" lon="-100.279745">
        <ele>498.034</ele>
        <time>2020-02-03T16:19:55Z</time>
      </trkpt>
      <trkpt lat="25.679086" lon="-100.279719">
        <ele>497.418</ele>
        <time>2020-02-03T16:19:56Z</time>
      </trkpt>
      <trkpt lat="25.679083" lon="-100.279694">
        <ele>495.51</ele>
        <time>2020-02-03T16:19:57Z</time>
      </trkpt>
      <trkpt lat="25.679075" lon="-100.279648">
        <ele>495.64</ele>
        <time>2020-02-03T16:19:59Z</time>
      </trkpt>
      <trkpt lat="25.67907" lon="-100.279622">
        <ele>496.859</ele>
        <time>2020-02-03T16:20:00Z</time>
      </trkpt>
      <trkpt lat="25.679065" lon="-100.279598">
        <ele>496.97</ele>
        <time>2020-02-03T16:20:01Z</time>
      </trkpt>
      <trkpt lat="25.67906" lon="-100.279573">
        <ele>498.012</ele>
        <time>2020-02-03T16:20:02Z</time>
      </trkpt>
      <trkpt lat="25.679057" lon="-100.279546">
        <ele>498.401</ele>
        <time>2020-02-03T16:20:03Z</time>
      </trkpt>
      <trkpt lat="25.679055" lon="-100.279517">
        <ele>497.531</ele>
        <time>2020-02-03T16:20:04Z</time>
      </trkpt>
      <trkpt lat="25.679053" lon="-100.279487">
        <ele>497.987</ele>
        <time>2020-02-03T16:20:05Z</time>
      </trkpt>
      <trkpt lat="25.679053" lon="-100.279459">
        <ele>498.195</ele>
        <time>2020-02-03T16:20:06Z</time>
      </trkpt>
      <trkpt lat="25.679053" lon="-100.27943">
        <ele>498.44</ele>
        <time>2020-02-03T16:20:07Z</time>
      </trkpt>
      <trkpt lat="25.679051" lon="-100.2794">
        <ele>498.71</ele>
        <time>2020-02-03T16:20:08Z</time>
      </trkpt>
      <trkpt lat="25.679049" lon="-100.279371">
        <ele>498.254</ele>
        <time>2020-02-03T16:20:09Z</time>
      </trkpt>
      <trkpt lat="25.679047" lon="-100.279344">
        <ele>498.976</ele>
        <time>2020-02-03T16:20:10Z</time>
      </trkpt>
      <trkpt lat="25.679047" lon="-100.279291">
        <ele>498.942</ele>
        <time>2020-02-03T16:20:12Z</time>
      </trkpt>
      <trkpt lat="25.679047" lon="-100.279264">
        <ele>500.048</ele>
        <time>2020-02-03T16:20:13Z</time>
      </trkpt>
      <trkpt lat="25.679045" lon="-100.279235">
        <ele>499.47</ele>
        <time>2020-02-03T16:20:14Z</time>
      </trkpt>
      <trkpt lat="25.679042" lon="-100.279206">
        <ele>499.017</ele>
        <time>2020-02-03T16:20:15Z</time>
      </trkpt>
      <trkpt lat="25.679038" lon="-100.279179">
        <ele>498.984</ele>
        <time>2020-02-03T16:20:16Z</time>
      </trkpt>
      <trkpt lat="25.679034" lon="-100.279148">
        <ele>498.96</ele>
        <time>2020-02-03T16:20:17Z</time>
      </trkpt>
      <trkpt lat="25.679029" lon="-100.279089">
        <ele>498.264</ele>
        <time>2020-02-03T16:20:19Z</time>
      </trkpt>
      <trkpt lat="25.679026" lon="-100.27906">
        <ele>499.234</ele>
        <time>2020-02-03T16:20:20Z</time>
      </trkpt>
      <trkpt lat="25.679024" lon="-100.279032">
        <ele>498.914</ele>
        <time>2020-02-03T16:20:21Z</time>
      </trkpt>
      <trkpt lat="25.679021" lon="-100.279002">
        <ele>498.957</ele>
        <time>2020-02-03T16:20:22Z</time>
      </trkpt>
      <trkpt lat="25.679015" lon="-100.278972">
        <ele>499.137</ele>
        <time>2020-02-03T16:20:23Z</time>
      </trkpt>
      <trkpt lat="25.678995" lon="-100.278916">
        <ele>499.484</ele>
        <time>2020-02-03T16:20:25Z</time>
      </trkpt>
      <trkpt lat="25.678965" lon="-100.278868">
        <ele>498.952</ele>
        <time>2020-02-03T16:20:27Z</time>
      </trkpt>
      <trkpt lat="25.678948" lon="-100.278845">
        <ele>498.646</ele>
        <time>2020-02-03T16:20:28Z</time>
      </trkpt>
      <trkpt lat="25.678932" lon="-100.278822">
        <ele>498.888</ele>
        <time>2020-02-03T16:20:29Z</time>
      </trkpt>
      <trkpt lat="25.678916" lon="-100.278798">
        <ele>497.81</ele>
        <time>2020-02-03T16:20:30Z</time>
      </trkpt>
      <trkpt lat="25.678902" lon="-100.278773">
        <ele>498.665</ele>
        <time>2020-02-03T16:20:31Z</time>
      </trkpt>
      <trkpt lat="25.678889" lon="-100.278749">
        <ele>498.105</ele>
        <time>2020-02-03T16:20:32Z</time>
      </trkpt>
      <trkpt lat="25.678867" lon="-100.278704">
        <ele>498.559</ele>
        <time>2020-02-03T16:20:34Z</time>
      </trkpt>
      <trkpt lat="25.678857" lon="-100.278682">
        <ele>499.037</ele>
        <time>2020-02-03T16:20:35Z</time>
      </trkpt>
      <trkpt lat="25.678845" lon="-100.278656">
        <ele>499.502</ele>
        <time>2020-02-03T16:20:36Z</time>
      </trkpt>
      <trkpt lat="25.678831" lon="-100.278633">
        <ele>499.051</ele>
        <time>2020-02-03T16:20:37Z</time>
      </trkpt>
      <trkpt lat="25.678815" lon="-100.2786">
        <ele>498.794</ele>
        <time>2020-02-03T16:20:39Z</time>
      </trkpt>
      <trkpt lat="25.678804" lon="-100.278526">
        <ele>498.526</ele>
        <time>2020-02-03T16:20:42Z</time>
      </trkpt>
      <trkpt lat="25.6788" lon="-100.278493">
        <ele>498.156</ele>
        <time>2020-02-03T16:20:43Z</time>
      </trkpt>
      <trkpt lat="25.678797" lon="-100.278464">
        <ele>497.612</ele>
        <time>2020-02-03T16:20:44Z</time>
      </trkpt>
      <trkpt lat="25.678797" lon="-100.278409">
        <ele>497.222</ele>
        <time>2020-02-03T16:20:46Z</time>
      </trkpt>
      <trkpt lat="25.678798" lon="-100.278382">
        <ele>497.514</ele>
        <time>2020-02-03T16:20:47Z</time>
      </trkpt>
      <trkpt lat="25.678796" lon="-100.278332">
        <ele>497.853</ele>
        <time>2020-02-03T16:20:49Z</time>
      </trkpt>
      <trkpt lat="25.678796" lon="-100.278279">
        <ele>497.219</ele>
        <time>2020-02-03T16:20:51Z</time>
      </trkpt>
      <trkpt lat="25.678796" lon="-100.278252">
        <ele>497.538</ele>
        <time>2020-02-03T16:20:52Z</time>
      </trkpt>
      <trkpt lat="25.678795" lon="-100.278223">
        <ele>497.988</ele>
        <time>2020-02-03T16:20:53Z</time>
      </trkpt>
      <trkpt lat="25.678791" lon="-100.278196">
        <ele>498.224</ele>
        <time>2020-02-03T16:20:54Z</time>
      </trkpt>
      <trkpt lat="25.678787" lon="-100.278168">
        <ele>498.519</ele>
        <time>2020-02-03T16:20:55Z</time>
      </trkpt>
      <trkpt lat="25.678793" lon="-100.278087">
        <ele>499.288</ele>
        <time>2020-02-03T16:20:58Z</time>
      </trkpt>
      <trkpt lat="25.678816" lon="-100.278038">
        <ele>499.945</ele>
        <time>2020-02-03T16:21:00Z</time>
      </trkpt>
      <trkpt lat="25.678854" lon="-100.277999">
        <ele>499.625</ele>
        <time>2020-02-03T16:21:02Z</time>
      </trkpt>
      <trkpt lat="25.678875" lon="-100.27798">
        <ele>499.869</ele>
        <time>2020-02-03T16:21:03Z</time>
      </trkpt>
      <trkpt lat="25.678895" lon="-100.277962">
        <ele>498.864</ele>
        <time>2020-02-03T16:21:04Z</time>
      </trkpt>
      <trkpt lat="25.678917" lon="-100.277946">
        <ele>498.971</ele>
        <time>2020-02-03T16:21:05Z</time>
      </trkpt>
      <trkpt lat="25.678939" lon="-100.27793">
        <ele>499.579</ele>
        <time>2020-02-03T16:21:06Z</time>
      </trkpt>
      <trkpt lat="25.678986" lon="-100.277906">
        <ele>499.86</ele>
        <time>2020-02-03T16:21:08Z</time>
      </trkpt>
      <trkpt lat="25.679035" lon="-100.277893">
        <ele>500.261</ele>
        <time>2020-02-03T16:21:10Z</time>
      </trkpt>
      <trkpt lat="25.67906" lon="-100.277888">
        <ele>499.662</ele>
        <time>2020-02-03T16:21:11Z</time>
      </trkpt>
      <trkpt lat="25.679085" lon="-100.277885">
        <ele>500.782</ele>
        <time>2020-02-03T16:21:12Z</time>
      </trkpt>
      <trkpt lat="25.67911" lon="-100.277881">
        <ele>499.12</ele>
        <time>2020-02-03T16:21:13Z</time>
      </trkpt>
      <trkpt lat="25.679134" lon="-100.277877">
        <ele>499.863</ele>
        <time>2020-02-03T16:21:14Z</time>
      </trkpt>
      <trkpt lat="25.679159" lon="-100.277874">
        <ele>497.752</ele>
        <time>2020-02-03T16:21:15Z</time>
      </trkpt>
      <trkpt lat="25.679185" lon="-100.277871">
        <ele>497.733</ele>
        <time>2020-02-03T16:21:16Z</time>
      </trkpt>
      <trkpt lat="25.679211" lon="-100.27787">
        <ele>496.751</ele>
        <time>2020-02-03T16:21:17Z</time>
      </trkpt>
      <trkpt lat="25.679237" lon="-100.277868">
        <ele>496.304</ele>
        <time>2020-02-03T16:21:18Z</time>
      </trkpt>
      <trkpt lat="25.679288" lon="-100.277865">
        <ele>496.094</ele>
        <time>2020-02-03T16:21:20Z</time>
      </trkpt>
      <trkpt lat="25.679314" lon="-100.277864">
        <ele>495.87</ele>
        <time>2020-02-03T16:21:21Z</time>
      </trkpt>
      <trkpt lat="25.67934" lon="-100.277864">
        <ele>496.091</ele>
        <time>2020-02-03T16:21:22Z</time>
      </trkpt>
      <trkpt lat="25.679366" lon="-100.277862">
        <ele>496.02</ele>
        <time>2020-02-03T16:21:23Z</time>
      </trkpt>
      <trkpt lat="25.679411" lon="-100.277846">
        <ele>496.158</ele>
        <time>2020-02-03T16:21:26Z</time>
      </trkpt>
      <trkpt lat="25.679427" lon="-100.277791">
        <ele>495.532</ele>
        <time>2020-02-03T16:21:32Z</time>
      </trkpt>
      <trkpt lat="25.679427" lon="-100.277791">
        <ele>496.705</ele>
        <time>2020-02-03T16:21:34Z</time>
      </trkpt>
      <trkpt lat="25.679427" lon="-100.277791">
        <ele>496.842</ele>
        <time>2020-02-03T16:24:13Z</time>
      </trkpt>
      <trkpt lat="25.679489" lon="-100.27774">
        <ele>496.483</ele>
        <time>2020-02-03T16:24:14Z</time>
      </trkpt>
      <trkpt lat="25.679546" lon="-100.277741">
        <ele>496.44</ele>
        <time>2020-02-03T16:24:23Z</time>
      </trkpt>
      <trkpt lat="25.679594" lon="-100.27772">
        <ele>496.5</ele>
        <time>2020-02-03T16:24:26Z</time>
      </trkpt>
      <trkpt lat="25.679642" lon="-100.277691">
        <ele>496.691</ele>
        <time>2020-02-03T16:24:29Z</time>
      </trkpt>
      <trkpt lat="25.679713" lon="-100.277666">
        <ele>495.892</ele>
        <time>2020-02-03T16:24:32Z</time>
      </trkpt>
      <trkpt lat="25.6798" lon="-100.277649">
        <ele>495.154</ele>
        <time>2020-02-03T16:24:35Z</time>
      </trkpt>
      <trkpt lat="25.679831" lon="-100.277645">
        <ele>494.91</ele>
        <time>2020-02-03T16:24:36Z</time>
      </trkpt>
      <trkpt lat="25.679861" lon="-100.277643">
        <ele>495.074</ele>
        <time>2020-02-03T16:24:37Z</time>
      </trkpt>
      <trkpt lat="25.679891" lon="-100.277641">
        <ele>496.888</ele>
        <time>2020-02-03T16:24:38Z</time>
      </trkpt>
      <trkpt lat="25.679931" lon="-100.277637">
        <ele>496.738</ele>
        <time>2020-02-03T16:24:39Z</time>
      </trkpt>
      <trkpt lat="25.679969" lon="-100.277632">
        <ele>495.826</ele>
        <time>2020-02-03T16:24:40Z</time>
      </trkpt>
      <trkpt lat="25.680009" lon="-100.277626">
        <ele>495.286</ele>
        <time>2020-02-03T16:24:41Z</time>
      </trkpt>
      <trkpt lat="25.680092" lon="-100.277617">
        <ele>494.897</ele>
        <time>2020-02-03T16:24:43Z</time>
      </trkpt>
      <trkpt lat="25.680191" lon="-100.277642">
        <ele>494.841</ele>
        <time>2020-02-03T16:24:46Z</time>
      </trkpt>
      <trkpt lat="25.68022" lon="-100.277652">
        <ele>494.849</ele>
        <time>2020-02-03T16:24:47Z</time>
      </trkpt>
      <trkpt lat="25.68025" lon="-100.277659">
        <ele>493.979</ele>
        <time>2020-02-03T16:24:48Z</time>
      </trkpt>
      <trkpt lat="25.680351" lon="-100.277671">
        <ele>493.805</ele>
        <time>2020-02-03T16:24:51Z</time>
      </trkpt>
      <trkpt lat="25.680386" lon="-100.277674">
        <ele>492.776</ele>
        <time>2020-02-03T16:24:52Z</time>
      </trkpt>
      <trkpt lat="25.68042" lon="-100.277678">
        <ele>492.608</ele>
        <time>2020-02-03T16:24:53Z</time>
      </trkpt>
      <trkpt lat="25.680455" lon="-100.277681">
        <ele>492.87</ele>
        <time>2020-02-03T16:24:54Z</time>
      </trkpt>
      <trkpt lat="25.680558" lon="-100.277678">
        <ele>494.189</ele>
        <time>2020-02-03T16:24:57Z</time>
      </trkpt>
      <trkpt lat="25.680592" lon="-100.277675">
        <ele>494.126</ele>
        <time>2020-02-03T16:24:58Z</time>
      </trkpt>
      <trkpt lat="25.680647" lon="-100.277657">
        <ele>494.882</ele>
        <time>2020-02-03T16:25:00Z</time>
      </trkpt>
      <trkpt lat="25.680701" lon="-100.277642">
        <ele>495.35</ele>
        <time>2020-02-03T16:25:02Z</time>
      </trkpt>
      <trkpt lat="25.680763" lon="-100.277646">
        <ele>495.143</ele>
        <time>2020-02-03T16:25:04Z</time>
      </trkpt>
      <trkpt lat="25.680829" lon="-100.277637">
        <ele>495.007</ele>
        <time>2020-02-03T16:25:06Z</time>
      </trkpt>
      <trkpt lat="25.680897" lon="-100.277626">
        <ele>494.77</ele>
        <time>2020-02-03T16:25:08Z</time>
      </trkpt>
      <trkpt lat="25.680962" lon="-100.277622">
        <ele>494.947</ele>
        <time>2020-02-03T16:25:10Z</time>
      </trkpt>
      <trkpt lat="25.680993" lon="-100.277621">
        <ele>495.339</ele>
        <time>2020-02-03T16:25:11Z</time>
      </trkpt>
      <trkpt lat="25.681023" lon="-100.277616">
        <ele>497.583</ele>
        <time>2020-02-03T16:25:12Z</time>
      </trkpt>
      <trkpt lat="25.681072" lon="-100.277582">
        <ele>497.439</ele>
        <time>2020-02-03T16:25:14Z</time>
      </trkpt>
      <trkpt lat="25.681082" lon="-100.27751">
        <ele>495.833</ele>
        <time>2020-02-03T16:25:16Z</time>
      </trkpt>
      <trkpt lat="25.681068" lon="-100.277432">
        <ele>498.383</ele>
        <time>2020-02-03T16:25:18Z</time>
      </trkpt>
      <trkpt lat="25.68106" lon="-100.277393">
        <ele>498.347</ele>
        <time>2020-02-03T16:25:19Z</time>
      </trkpt>
      <trkpt lat="25.681052" lon="-100.277356">
        <ele>497.454</ele>
        <time>2020-02-03T16:25:20Z</time>
      </trkpt>
      <trkpt lat="25.681048" lon="-100.27729">
        <ele>496.965</ele>
        <time>2020-02-03T16:25:22Z</time>
      </trkpt>
      <trkpt lat="25.681048" lon="-100.277256">
        <ele>497.863</ele>
        <time>2020-02-03T16:25:23Z</time>
      </trkpt>
      <trkpt lat="25.681047" lon="-100.27722">
        <ele>498.282</ele>
        <time>2020-02-03T16:25:24Z</time>
      </trkpt>
      <trkpt lat="25.681046" lon="-100.277185">
        <ele>496.956</ele>
        <time>2020-02-03T16:25:25Z</time>
      </trkpt>
      <trkpt lat="25.681045" lon="-100.27715">
        <ele>496.397</ele>
        <time>2020-02-03T16:25:26Z</time>
      </trkpt>
      <trkpt lat="25.681043" lon="-100.277114">
        <ele>496.092</ele>
        <time>2020-02-03T16:25:27Z</time>
      </trkpt>
      <trkpt lat="25.68104" lon="-100.277081">
        <ele>494.885</ele>
        <time>2020-02-03T16:25:28Z</time>
      </trkpt>
      <trkpt lat="25.681036" lon="-100.277048">
        <ele>493.352</ele>
        <time>2020-02-03T16:25:29Z</time>
      </trkpt>
      <trkpt lat="25.681032" lon="-100.277017">
        <ele>494.708</ele>
        <time>2020-02-03T16:25:30Z</time>
      </trkpt>
      <trkpt lat="25.681027" lon="-100.276952">
        <ele>494.28</ele>
        <time>2020-02-03T16:25:32Z</time>
      </trkpt>
      <trkpt lat="25.681024" lon="-100.276921">
        <ele>493.698</ele>
        <time>2020-02-03T16:25:33Z</time>
      </trkpt>
      <trkpt lat="25.681015" lon="-100.276824">
        <ele>495.441</ele>
        <time>2020-02-03T16:25:36Z</time>
      </trkpt>
      <trkpt lat="25.681012" lon="-100.27679">
        <ele>495.058</ele>
        <time>2020-02-03T16:25:37Z</time>
      </trkpt>
      <trkpt lat="25.681011" lon="-100.276726">
        <ele>494.813</ele>
        <time>2020-02-03T16:25:39Z</time>
      </trkpt>
      <trkpt lat="25.681011" lon="-100.276693">
        <ele>494.184</ele>
        <time>2020-02-03T16:25:40Z</time>
      </trkpt>
      <trkpt lat="25.68101" lon="-100.276661">
        <ele>494.294</ele>
        <time>2020-02-03T16:25:41Z</time>
      </trkpt>
      <trkpt lat="25.681009" lon="-100.276625">
        <ele>494.495</ele>
        <time>2020-02-03T16:25:42Z</time>
      </trkpt>
      <trkpt lat="25.681008" lon="-100.27659">
        <ele>493.632</ele>
        <time>2020-02-03T16:25:43Z</time>
      </trkpt>
      <trkpt lat="25.681007" lon="-100.276557">
        <ele>494.448</ele>
        <time>2020-02-03T16:25:44Z</time>
      </trkpt>
      <trkpt lat="25.681007" lon="-100.276524">
        <ele>492.727</ele>
        <time>2020-02-03T16:25:45Z</time>
      </trkpt>
      <trkpt lat="25.681005" lon="-100.276482">
        <ele>492.536</ele>
        <time>2020-02-03T16:25:47Z</time>
      </trkpt>
      <trkpt lat="25.681008" lon="-100.276424">
        <ele>492.128</ele>
        <time>2020-02-03T16:25:49Z</time>
      </trkpt>
      <trkpt lat="25.681006" lon="-100.276345">
        <ele>491.573</ele>
        <time>2020-02-03T16:25:52Z</time>
      </trkpt>
      <trkpt lat="25.680999" lon="-100.276277">
        <ele>492.102</ele>
        <time>2020-02-03T16:25:54Z</time>
      </trkpt>
      <trkpt lat="25.680998" lon="-100.276245">
        <ele>492.972</ele>
        <time>2020-02-03T16:25:55Z</time>
      </trkpt>
      <trkpt lat="25.680997" lon="-100.276214">
        <ele>492.72</ele>
        <time>2020-02-03T16:25:56Z</time>
      </trkpt>
      <trkpt lat="25.680995" lon="-100.276187">
        <ele>492.268</ele>
        <time>2020-02-03T16:25:57Z</time>
      </trkpt>
      <trkpt lat="25.681006" lon="-100.276118">
        <ele>493.506</ele>
        <time>2020-02-03T16:26:00Z</time>
      </trkpt>
      <trkpt lat="25.681012" lon="-100.276086">
        <ele>493.316</ele>
        <time>2020-02-03T16:26:01Z</time>
      </trkpt>
      <trkpt lat="25.681018" lon="-100.276019">
        <ele>493.583</ele>
        <time>2020-02-03T16:26:03Z</time>
      </trkpt>
      <trkpt lat="25.681013" lon="-100.275953">
        <ele>492.306</ele>
        <time>2020-02-03T16:26:05Z</time>
      </trkpt>
      <trkpt lat="25.681045" lon="-100.275876">
        <ele>493.397</ele>
        <time>2020-02-03T16:26:08Z</time>
      </trkpt>
      <trkpt lat="25.681095" lon="-100.27585">
        <ele>495.338</ele>
        <time>2020-02-03T16:26:10Z</time>
      </trkpt>
      <trkpt lat="25.681152" lon="-100.275846">
        <ele>494.403</ele>
        <time>2020-02-03T16:26:12Z</time>
      </trkpt>
      <trkpt lat="25.681236" lon="-100.275856">
        <ele>494.105</ele>
        <time>2020-02-03T16:26:15Z</time>
      </trkpt>
      <trkpt lat="25.681263" lon="-100.275861">
        <ele>494.424</ele>
        <time>2020-02-03T16:26:16Z</time>
      </trkpt>
      <trkpt lat="25.681289" lon="-100.275867">
        <ele>492.126</ele>
        <time>2020-02-03T16:26:17Z</time>
      </trkpt>
      <trkpt lat="25.681317" lon="-100.275874">
        <ele>494.262</ele>
        <time>2020-02-03T16:26:18Z</time>
      </trkpt>
      <trkpt lat="25.681344" lon="-100.275878">
        <ele>495.854</ele>
        <time>2020-02-03T16:26:19Z</time>
      </trkpt>
      <trkpt lat="25.68137" lon="-100.27588">
        <ele>497.152</ele>
        <time>2020-02-03T16:26:20Z</time>
      </trkpt>
      <trkpt lat="25.681424" lon="-100.275874">
        <ele>494.307</ele>
        <time>2020-02-03T16:26:22Z</time>
      </trkpt>
      <trkpt lat="25.681478" lon="-100.27586">
        <ele>493.874</ele>
        <time>2020-02-03T16:26:24Z</time>
      </trkpt>
      <trkpt lat="25.681531" lon="-100.275837">
        <ele>492.96</ele>
        <time>2020-02-03T16:26:26Z</time>
      </trkpt>
      <trkpt lat="25.681558" lon="-100.275825">
        <ele>495.006</ele>
        <time>2020-02-03T16:26:27Z</time>
      </trkpt>
      <trkpt lat="25.681583" lon="-100.275812">
        <ele>494.866</ele>
        <time>2020-02-03T16:26:28Z</time>
      </trkpt>
      <trkpt lat="25.681605" lon="-100.275799">
        <ele>495.64</ele>
        <time>2020-02-03T16:26:29Z</time>
      </trkpt>
      <trkpt lat="25.681618" lon="-100.275737">
        <ele>492.615</ele>
        <time>2020-02-03T16:26:32Z</time>
      </trkpt>
      <trkpt lat="25.68162" lon="-100.275674">
        <ele>493.169</ele>
        <time>2020-02-03T16:26:34Z</time>
      </trkpt>
      <trkpt lat="25.681618" lon="-100.275575">
        <ele>495.066</ele>
        <time>2020-02-03T16:26:37Z</time>
      </trkpt>
      <trkpt lat="25.681618" lon="-100.27554">
        <ele>493.426</ele>
        <time>2020-02-03T16:26:38Z</time>
      </trkpt>
      <trkpt lat="25.681605" lon="-100.275479">
        <ele>492.417</ele>
        <time>2020-02-03T16:26:40Z</time>
      </trkpt>
      <trkpt lat="25.681597" lon="-100.275418">
        <ele>491.988</ele>
        <time>2020-02-03T16:26:42Z</time>
      </trkpt>
      <trkpt lat="25.681585" lon="-100.275335">
        <ele>492.39</ele>
        <time>2020-02-03T16:26:45Z</time>
      </trkpt>
      <trkpt lat="25.681555" lon="-100.275225">
        <ele>492.338</ele>
        <time>2020-02-03T16:26:48Z</time>
      </trkpt>
      <trkpt lat="25.681546" lon="-100.275189">
        <ele>491.857</ele>
        <time>2020-02-03T16:26:49Z</time>
      </trkpt>
      <trkpt lat="25.681539" lon="-100.275136">
        <ele>492.035</ele>
        <time>2020-02-03T16:26:52Z</time>
      </trkpt>
      <trkpt lat="25.681536" lon="-100.275109">
        <ele>491.499</ele>
        <time>2020-02-03T16:26:53Z</time>
      </trkpt>
      <trkpt lat="25.681503" lon="-100.275023">
        <ele>491.436</ele>
        <time>2020-02-03T16:26:56Z</time>
      </trkpt>
      <trkpt lat="25.681476" lon="-100.274975">
        <ele>491.276</ele>
        <time>2020-02-03T16:26:58Z</time>
      </trkpt>
      <trkpt lat="25.681428" lon="-100.274888">
        <ele>490.78</ele>
        <time>2020-02-03T16:27:01Z</time>
      </trkpt>
      <trkpt lat="25.681409" lon="-100.274829">
        <ele>490.383</ele>
        <time>2020-02-03T16:27:03Z</time>
      </trkpt>
      <trkpt lat="25.681397" lon="-100.274799">
        <ele>490.932</ele>
        <time>2020-02-03T16:27:04Z</time>
      </trkpt>
      <trkpt lat="25.681387" lon="-100.274767">
        <ele>490.904</ele>
        <time>2020-02-03T16:27:05Z</time>
      </trkpt>
      <trkpt lat="25.681379" lon="-100.274734">
        <ele>489.152</ele>
        <time>2020-02-03T16:27:06Z</time>
      </trkpt>
      <trkpt lat="25.681335" lon="-100.274644">
        <ele>489.034</ele>
        <time>2020-02-03T16:27:09Z</time>
      </trkpt>
      <trkpt lat="25.681319" lon="-100.274616">
        <ele>489.034</ele>
        <time>2020-02-03T16:27:10Z</time>
      </trkpt>
      <trkpt lat="25.681305" lon="-100.274587">
        <ele>489.034</ele>
        <time>2020-02-03T16:27:11Z</time>
      </trkpt>
      <trkpt lat="25.681291" lon="-100.274557">
        <ele>491.651</ele>
        <time>2020-02-03T16:27:12Z</time>
      </trkpt>
      <trkpt lat="25.681279" lon="-100.274527">
        <ele>492.737</ele>
        <time>2020-02-03T16:27:13Z</time>
      </trkpt>
      <trkpt lat="25.681268" lon="-100.274496">
        <ele>492.915</ele>
        <time>2020-02-03T16:27:14Z</time>
      </trkpt>
      <trkpt lat="25.681258" lon="-100.274464">
        <ele>493.394</ele>
        <time>2020-02-03T16:27:15Z</time>
      </trkpt>
      <trkpt lat="25.681247" lon="-100.274435">
        <ele>492.78</ele>
        <time>2020-02-03T16:27:16Z</time>
      </trkpt>
      <trkpt lat="25.681219" lon="-100.274382">
        <ele>493.159</ele>
        <time>2020-02-03T16:27:18Z</time>
      </trkpt>
      <trkpt lat="25.681204" lon="-100.274355">
        <ele>493.866</ele>
        <time>2020-02-03T16:27:19Z</time>
      </trkpt>
      <trkpt lat="25.681192" lon="-100.274326">
        <ele>494.321</ele>
        <time>2020-02-03T16:27:20Z</time>
      </trkpt>
      <trkpt lat="25.681174" lon="-100.274266">
        <ele>493.897</ele>
        <time>2020-02-03T16:27:22Z</time>
      </trkpt>
      <trkpt lat="25.681163" lon="-100.274236">
        <ele>493.78</ele>
        <time>2020-02-03T16:27:23Z</time>
      </trkpt>
      <trkpt lat="25.681151" lon="-100.274207">
        <ele>493.602</ele>
        <time>2020-02-03T16:27:24Z</time>
      </trkpt>
      <trkpt lat="25.681104" lon="-100.274197">
        <ele>493.063</ele>
        <time>2020-02-03T16:27:27Z</time>
      </trkpt>
      <trkpt lat="25.681059" lon="-100.274217">
        <ele>492.749</ele>
        <time>2020-02-03T16:27:30Z</time>
      </trkpt>
      <trkpt lat="25.681059" lon="-100.274217">
        <ele>492.386</ele>
        <time>2020-02-03T16:27:36Z</time>
      </trkpt>
      <trkpt lat="25.681059" lon="-100.274217">
        <ele>492.929</ele>
        <time>2020-02-03T16:27:37Z</time>
      </trkpt>
      <trkpt lat="25.681159" lon="-100.274269">
        <ele>494.222</ele>
        <time>2020-02-03T16:28:06Z</time>
      </trkpt>
      <trkpt lat="25.681177" lon="-100.274319">
        <ele>493.715</ele>
        <time>2020-02-03T16:28:08Z</time>
      </trkpt>
      <trkpt lat="25.681196" lon="-100.274379">
        <ele>492.7</ele>
        <time>2020-02-03T16:28:11Z</time>
      </trkpt>
      <trkpt lat="25.681229" lon="-100.274421">
        <ele>494.623</ele>
        <time>2020-02-03T16:28:14Z</time>
      </trkpt>
      <trkpt lat="25.681286" lon="-100.274389">
        <ele>494.474</ele>
        <time>2020-02-03T16:28:17Z</time>
      </trkpt>
      <trkpt lat="25.681321" lon="-100.274344">
        <ele>494.549</ele>
        <time>2020-02-03T16:28:20Z</time>
      </trkpt>
      <trkpt lat="25.681301" lon="-100.274269">
        <ele>494.59</ele>
        <time>2020-02-03T16:28:23Z</time>
      </trkpt>
      <trkpt lat="25.681279" lon="-100.274222">
        <ele>494.463</ele>
        <time>2020-02-03T16:28:25Z</time>
      </trkpt>
      <trkpt lat="25.681267" lon="-100.2742">
        <ele>494.955</ele>
        <time>2020-02-03T16:28:26Z</time>
      </trkpt>
      <trkpt lat="25.681257" lon="-100.274176">
        <ele>493.71</ele>
        <time>2020-02-03T16:28:27Z</time>
      </trkpt>
      <trkpt lat="25.681246" lon="-100.274148">
        <ele>493.304</ele>
        <time>2020-02-03T16:28:28Z</time>
      </trkpt>
      <trkpt lat="25.681236" lon="-100.274122">
        <ele>492.965</ele>
        <time>2020-02-03T16:28:29Z</time>
      </trkpt>
      <trkpt lat="25.681224" lon="-100.274098">
        <ele>492.164</ele>
        <time>2020-02-03T16:28:30Z</time>
      </trkpt>
      <trkpt lat="25.681212" lon="-100.274076">
        <ele>492.601</ele>
        <time>2020-02-03T16:28:31Z</time>
      </trkpt>
      <trkpt lat="25.681193" lon="-100.274027">
        <ele>492.536</ele>
        <time>2020-02-03T16:28:33Z</time>
      </trkpt>
      <trkpt lat="25.681177" lon="-100.273972">
        <ele>492.046</ele>
        <time>2020-02-03T16:28:35Z</time>
      </trkpt>
      <trkpt lat="25.681156" lon="-100.27392">
        <ele>492.356</ele>
        <time>2020-02-03T16:28:37Z</time>
      </trkpt>
      <trkpt lat="25.681146" lon="-100.273893">
        <ele>492.153</ele>
        <time>2020-02-03T16:28:38Z</time>
      </trkpt>
      <trkpt lat="25.681136" lon="-100.273863">
        <ele>492.592</ele>
        <time>2020-02-03T16:28:39Z</time>
      </trkpt>
      <trkpt lat="25.681128" lon="-100.273834">
        <ele>491.845</ele>
        <time>2020-02-03T16:28:40Z</time>
      </trkpt>
      <trkpt lat="25.681121" lon="-100.273803">
        <ele>490.796</ele>
        <time>2020-02-03T16:28:41Z</time>
      </trkpt>
      <trkpt lat="25.681115" lon="-100.273773">
        <ele>490.977</ele>
        <time>2020-02-03T16:28:42Z</time>
      </trkpt>
      <trkpt lat="25.681108" lon="-100.273742">
        <ele>491.398</ele>
        <time>2020-02-03T16:28:43Z</time>
      </trkpt>
      <trkpt lat="25.681101" lon="-100.273713">
        <ele>491.994</ele>
        <time>2020-02-03T16:28:44Z</time>
      </trkpt>
      <trkpt lat="25.681078" lon="-100.27365">
        <ele>492.322</ele>
        <time>2020-02-03T16:28:46Z</time>
      </trkpt>
      <trkpt lat="25.681065" lon="-100.27362">
        <ele>492.327</ele>
        <time>2020-02-03T16:28:47Z</time>
      </trkpt>
      <trkpt lat="25.681054" lon="-100.273589">
        <ele>492.348</ele>
        <time>2020-02-03T16:28:48Z</time>
      </trkpt>
      <trkpt lat="25.68103" lon="-100.273527">
        <ele>492.5</ele>
        <time>2020-02-03T16:28:50Z</time>
      </trkpt>
      <trkpt lat="25.681018" lon="-100.273498">
        <ele>492.97</ele>
        <time>2020-02-03T16:28:51Z</time>
      </trkpt>
      <trkpt lat="25.681008" lon="-100.273468">
        <ele>492.593</ele>
        <time>2020-02-03T16:28:52Z</time>
      </trkpt>
      <trkpt lat="25.680999" lon="-100.273438">
        <ele>492.305</ele>
        <time>2020-02-03T16:28:53Z</time>
      </trkpt>
      <trkpt lat="25.680989" lon="-100.273408">
        <ele>492.139</ele>
        <time>2020-02-03T16:28:54Z</time>
      </trkpt>
      <trkpt lat="25.680979" lon="-100.27338">
        <ele>492.084</ele>
        <time>2020-02-03T16:28:55Z</time>
      </trkpt>
      <trkpt lat="25.68097" lon="-100.273352">
        <ele>492.025</ele>
        <time>2020-02-03T16:28:56Z</time>
      </trkpt>
      <trkpt lat="25.680951" lon="-100.273308">
        <ele>492.087</ele>
        <time>2020-02-03T16:28:58Z</time>
      </trkpt>
      <trkpt lat="25.680941" lon="-100.273284">
        <ele>493.009</ele>
        <time>2020-02-03T16:28:59Z</time>
      </trkpt>
      <trkpt lat="25.680925" lon="-100.27323">
        <ele>492.892</ele>
        <time>2020-02-03T16:29:01Z</time>
      </trkpt>
      <trkpt lat="25.680918" lon="-100.2732">
        <ele>492.907</ele>
        <time>2020-02-03T16:29:02Z</time>
      </trkpt>
      <trkpt lat="25.680911" lon="-100.273171">
        <ele>492.997</ele>
        <time>2020-02-03T16:29:03Z</time>
      </trkpt>
      <trkpt lat="25.680903" lon="-100.273142">
        <ele>493.008</ele>
        <time>2020-02-03T16:29:04Z</time>
      </trkpt>
      <trkpt lat="25.680892" lon="-100.273084">
        <ele>492.552</ele>
        <time>2020-02-03T16:29:06Z</time>
      </trkpt>
      <trkpt lat="25.680885" lon="-100.273054">
        <ele>492.237</ele>
        <time>2020-02-03T16:29:07Z</time>
      </trkpt>
      <trkpt lat="25.680877" lon="-100.273025">
        <ele>492.121</ele>
        <time>2020-02-03T16:29:08Z</time>
      </trkpt>
      <trkpt lat="25.680867" lon="-100.272996">
        <ele>491.95</ele>
        <time>2020-02-03T16:29:09Z</time>
      </trkpt>
      <trkpt lat="25.680856" lon="-100.272969">
        <ele>491.372</ele>
        <time>2020-02-03T16:29:10Z</time>
      </trkpt>
      <trkpt lat="25.680844" lon="-100.272943">
        <ele>491.718</ele>
        <time>2020-02-03T16:29:11Z</time>
      </trkpt>
      <trkpt lat="25.680833" lon="-100.272918">
        <ele>491.384</ele>
        <time>2020-02-03T16:29:12Z</time>
      </trkpt>
      <trkpt lat="25.680822" lon="-100.27289">
        <ele>491.639</ele>
        <time>2020-02-03T16:29:13Z</time>
      </trkpt>
      <trkpt lat="25.680813" lon="-100.272862">
        <ele>491.376</ele>
        <time>2020-02-03T16:29:14Z</time>
      </trkpt>
      <trkpt lat="25.680805" lon="-100.272833">
        <ele>491.133</ele>
        <time>2020-02-03T16:29:15Z</time>
      </trkpt>
      <trkpt lat="25.680795" lon="-100.272772">
        <ele>491.087</ele>
        <time>2020-02-03T16:29:17Z</time>
      </trkpt>
      <trkpt lat="25.680789" lon="-100.272743">
        <ele>491.074</ele>
        <time>2020-02-03T16:29:18Z</time>
      </trkpt>
      <trkpt lat="25.680782" lon="-100.272715">
        <ele>490.242</ele>
        <time>2020-02-03T16:29:19Z</time>
      </trkpt>
      <trkpt lat="25.680774" lon="-100.272685">
        <ele>489.723</ele>
        <time>2020-02-03T16:29:20Z</time>
      </trkpt>
      <trkpt lat="25.680766" lon="-100.272657">
        <ele>489.573</ele>
        <time>2020-02-03T16:29:21Z</time>
      </trkpt>
      <trkpt lat="25.680757" lon="-100.272628">
        <ele>488.858</ele>
        <time>2020-02-03T16:29:22Z</time>
      </trkpt>
      <trkpt lat="25.680747" lon="-100.2726">
        <ele>489.08</ele>
        <time>2020-02-03T16:29:23Z</time>
      </trkpt>
      <trkpt lat="25.680728" lon="-100.272542">
        <ele>488.952</ele>
        <time>2020-02-03T16:29:25Z</time>
      </trkpt>
      <trkpt lat="25.680719" lon="-100.272514">
        <ele>489.218</ele>
        <time>2020-02-03T16:29:26Z</time>
      </trkpt>
      <trkpt lat="25.680709" lon="-100.272484">
        <ele>488.226</ele>
        <time>2020-02-03T16:29:27Z</time>
      </trkpt>
      <trkpt lat="25.680699" lon="-100.272452">
        <ele>488.135</ele>
        <time>2020-02-03T16:29:28Z</time>
      </trkpt>
      <trkpt lat="25.680692" lon="-100.272423">
        <ele>488.026</ele>
        <time>2020-02-03T16:29:29Z</time>
      </trkpt>
      <trkpt lat="25.680686" lon="-100.272394">
        <ele>488.318</ele>
        <time>2020-02-03T16:29:30Z</time>
      </trkpt>
      <trkpt lat="25.680679" lon="-100.272365">
        <ele>488.145</ele>
        <time>2020-02-03T16:29:31Z</time>
      </trkpt>
      <trkpt lat="25.680671" lon="-100.272338">
        <ele>488.073</ele>
        <time>2020-02-03T16:29:32Z</time>
      </trkpt>
      <trkpt lat="25.680663" lon="-100.27231">
        <ele>487.854</ele>
        <time>2020-02-03T16:29:33Z</time>
      </trkpt>
      <trkpt lat="25.680652" lon="-100.272283">
        <ele>487.878</ele>
        <time>2020-02-03T16:29:34Z</time>
      </trkpt>
      <trkpt lat="25.680639" lon="-100.272257">
        <ele>487.551</ele>
        <time>2020-02-03T16:29:35Z</time>
      </trkpt>
      <trkpt lat="25.680626" lon="-100.272234">
        <ele>487.166</ele>
        <time>2020-02-03T16:29:36Z</time>
      </trkpt>
      <trkpt lat="25.680614" lon="-100.272209">
        <ele>487.092</ele>
        <time>2020-02-03T16:29:37Z</time>
      </trkpt>
      <trkpt lat="25.680596" lon="-100.272156">
        <ele>487.41</ele>
        <time>2020-02-03T16:29:39Z</time>
      </trkpt>
      <trkpt lat="25.680589" lon="-100.272128">
        <ele>486.991</ele>
        <time>2020-02-03T16:29:40Z</time>
      </trkpt>
      <trkpt lat="25.68058" lon="-100.272099">
        <ele>486.902</ele>
        <time>2020-02-03T16:29:41Z</time>
      </trkpt>
      <trkpt lat="25.680571" lon="-100.272068">
        <ele>487.126</ele>
        <time>2020-02-03T16:29:42Z</time>
      </trkpt>
      <trkpt lat="25.680564" lon="-100.27204">
        <ele>488.279</ele>
        <time>2020-02-03T16:29:43Z</time>
      </trkpt>
      <trkpt lat="25.680555" lon="-100.27201">
        <ele>487.707</ele>
        <time>2020-02-03T16:29:44Z</time>
      </trkpt>
      <trkpt lat="25.680547" lon="-100.271981">
        <ele>487.875</ele>
        <time>2020-02-03T16:29:45Z</time>
      </trkpt>
      <trkpt lat="25.680539" lon="-100.271952">
        <ele>488.058</ele>
        <time>2020-02-03T16:29:46Z</time>
      </trkpt>
      <trkpt lat="25.680531" lon="-100.271922">
        <ele>487.879</ele>
        <time>2020-02-03T16:29:47Z</time>
      </trkpt>
      <trkpt lat="25.680524" lon="-100.271893">
        <ele>487.193</ele>
        <time>2020-02-03T16:29:48Z</time>
      </trkpt>
      <trkpt lat="25.680515" lon="-100.271865">
        <ele>488.071</ele>
        <time>2020-02-03T16:29:49Z</time>
      </trkpt>
      <trkpt lat="25.680506" lon="-100.271839">
        <ele>487.653</ele>
        <time>2020-02-03T16:29:50Z</time>
      </trkpt>
      <trkpt lat="25.680497" lon="-100.271815">
        <ele>488.349</ele>
        <time>2020-02-03T16:29:51Z</time>
      </trkpt>
      <trkpt lat="25.680488" lon="-100.271788">
        <ele>488.585</ele>
        <time>2020-02-03T16:29:52Z</time>
      </trkpt>
      <trkpt lat="25.680472" lon="-100.271743">
        <ele>488.71</ele>
        <time>2020-02-03T16:29:54Z</time>
      </trkpt>
      <trkpt lat="25.680464" lon="-100.271718">
        <ele>487.471</ele>
        <time>2020-02-03T16:29:55Z</time>
      </trkpt>
      <trkpt lat="25.680456" lon="-100.271692">
        <ele>488.306</ele>
        <time>2020-02-03T16:29:56Z</time>
      </trkpt>
      <trkpt lat="25.68044" lon="-100.271641">
        <ele>487.128</ele>
        <time>2020-02-03T16:29:58Z</time>
      </trkpt>
      <trkpt lat="25.680432" lon="-100.271614">
        <ele>486.813</ele>
        <time>2020-02-03T16:29:59Z</time>
      </trkpt>
      <trkpt lat="25.680414" lon="-100.271558">
        <ele>486.989</ele>
        <time>2020-02-03T16:30:01Z</time>
      </trkpt>
      <trkpt lat="25.680406" lon="-100.271531">
        <ele>487.193</ele>
        <time>2020-02-03T16:30:02Z</time>
      </trkpt>
      <trkpt lat="25.680398" lon="-100.2715">
        <ele>486.778</ele>
        <time>2020-02-03T16:30:03Z</time>
      </trkpt>
      <trkpt lat="25.680392" lon="-100.271469">
        <ele>487.253</ele>
        <time>2020-02-03T16:30:04Z</time>
      </trkpt>
      <trkpt lat="25.680385" lon="-100.27144">
        <ele>487.31</ele>
        <time>2020-02-03T16:30:05Z</time>
      </trkpt>
      <trkpt lat="25.680379" lon="-100.271411">
        <ele>488.015</ele>
        <time>2020-02-03T16:30:06Z</time>
      </trkpt>
      <trkpt lat="25.680372" lon="-100.271381">
        <ele>487.783</ele>
        <time>2020-02-03T16:30:07Z</time>
      </trkpt>
      <trkpt lat="25.680364" lon="-100.271352">
        <ele>488.15</ele>
        <time>2020-02-03T16:30:08Z</time>
      </trkpt>
      <trkpt lat="25.680336" lon="-100.271261">
        <ele>487.347</ele>
        <time>2020-02-03T16:30:11Z</time>
      </trkpt>
      <trkpt lat="25.680326" lon="-100.271227">
        <ele>487.421</ele>
        <time>2020-02-03T16:30:12Z</time>
      </trkpt>
      <trkpt lat="25.680319" lon="-100.271193">
        <ele>487.335</ele>
        <time>2020-02-03T16:30:13Z</time>
      </trkpt>
      <trkpt lat="25.680311" lon="-100.27116">
        <ele>488.093</ele>
        <time>2020-02-03T16:30:14Z</time>
      </trkpt>
      <trkpt lat="25.680303" lon="-100.27113">
        <ele>488.281</ele>
        <time>2020-02-03T16:30:15Z</time>
      </trkpt>
      <trkpt lat="25.680281" lon="-100.271074">
        <ele>489.069</ele>
        <time>2020-02-03T16:30:17Z</time>
      </trkpt>
      <trkpt lat="25.680271" lon="-100.271046">
        <ele>487.764</ele>
        <time>2020-02-03T16:30:18Z</time>
      </trkpt>
      <trkpt lat="25.68026" lon="-100.271017">
        <ele>487.89</ele>
        <time>2020-02-03T16:30:19Z</time>
      </trkpt>
      <trkpt lat="25.680251" lon="-100.27099">
        <ele>486.959</ele>
        <time>2020-02-03T16:30:20Z</time>
      </trkpt>
      <trkpt lat="25.680242" lon="-100.270962">
        <ele>487.039</ele>
        <time>2020-02-03T16:30:21Z</time>
      </trkpt>
      <trkpt lat="25.680234" lon="-100.270935">
        <ele>487.53</ele>
        <time>2020-02-03T16:30:22Z</time>
      </trkpt>
      <trkpt lat="25.680228" lon="-100.270908">
        <ele>487.933</ele>
        <time>2020-02-03T16:30:23Z</time>
      </trkpt>
      <trkpt lat="25.680222" lon="-100.27088">
        <ele>487.714</ele>
        <time>2020-02-03T16:30:24Z</time>
      </trkpt>
      <trkpt lat="25.680216" lon="-100.270854">
        <ele>488.324</ele>
        <time>2020-02-03T16:30:25Z</time>
      </trkpt>
      <trkpt lat="25.680209" lon="-100.270826">
        <ele>487.81</ele>
        <time>2020-02-03T16:30:26Z</time>
      </trkpt>
      <trkpt lat="25.6802" lon="-100.270799">
        <ele>488.732</ele>
        <time>2020-02-03T16:30:27Z</time>
      </trkpt>
      <trkpt lat="25.680191" lon="-100.270774">
        <ele>488.755</ele>
        <time>2020-02-03T16:30:28Z</time>
      </trkpt>
      <trkpt lat="25.680182" lon="-100.27075">
        <ele>488.449</ele>
        <time>2020-02-03T16:30:29Z</time>
      </trkpt>
      <trkpt lat="25.680176" lon="-100.270725">
        <ele>488.412</ele>
        <time>2020-02-03T16:30:30Z</time>
      </trkpt>
      <trkpt lat="25.680169" lon="-100.270698">
        <ele>487.32</ele>
        <time>2020-02-03T16:30:31Z</time>
      </trkpt>
      <trkpt lat="25.680151" lon="-100.270647">
        <ele>486.819</ele>
        <time>2020-02-03T16:30:33Z</time>
      </trkpt>
      <trkpt lat="25.680131" lon="-100.270597">
        <ele>486.924</ele>
        <time>2020-02-03T16:30:35Z</time>
      </trkpt>
      <trkpt lat="25.680122" lon="-100.270571">
        <ele>486.632</ele>
        <time>2020-02-03T16:30:36Z</time>
      </trkpt>
      <trkpt lat="25.680111" lon="-100.270501">
        <ele>486.754</ele>
        <time>2020-02-03T16:30:39Z</time>
      </trkpt>
      <trkpt lat="25.680113" lon="-100.270451">
        <ele>486.374</ele>
        <time>2020-02-03T16:30:41Z</time>
      </trkpt>
      <trkpt lat="25.680131" lon="-100.270398">
        <ele>487.759</ele>
        <time>2020-02-03T16:30:43Z</time>
      </trkpt>
      <trkpt lat="25.680142" lon="-100.27037">
        <ele>487.644</ele>
        <time>2020-02-03T16:30:44Z</time>
      </trkpt>
      <trkpt lat="25.680152" lon="-100.27034">
        <ele>488.384</ele>
        <time>2020-02-03T16:30:45Z</time>
      </trkpt>
      <trkpt lat="25.680152" lon="-100.27025">
        <ele>486.706</ele>
        <time>2020-02-03T16:30:48Z</time>
      </trkpt>
      <trkpt lat="25.680138" lon="-100.270196">
        <ele>482.821</ele>
        <time>2020-02-03T16:30:50Z</time>
      </trkpt>
      <trkpt lat="25.680128" lon="-100.270163">
        <ele>482.695</ele>
        <time>2020-02-03T16:30:51Z</time>
      </trkpt>
      <trkpt lat="25.680087" lon="-100.270073">
        <ele>481.528</ele>
        <time>2020-02-03T16:30:54Z</time>
      </trkpt>
      <trkpt lat="25.680075" lon="-100.270046">
        <ele>481.693</ele>
        <time>2020-02-03T16:30:55Z</time>
      </trkpt>
      <trkpt lat="25.680063" lon="-100.270017">
        <ele>481.213</ele>
        <time>2020-02-03T16:30:56Z</time>
      </trkpt>
      <trkpt lat="25.680051" lon="-100.26999">
        <ele>482.203</ele>
        <time>2020-02-03T16:30:57Z</time>
      </trkpt>
      <trkpt lat="25.68004" lon="-100.269963">
        <ele>482.515</ele>
        <time>2020-02-03T16:30:58Z</time>
      </trkpt>
      <trkpt lat="25.68003" lon="-100.269936">
        <ele>483.725</ele>
        <time>2020-02-03T16:30:59Z</time>
      </trkpt>
      <trkpt lat="25.680021" lon="-100.269909">
        <ele>482.383</ele>
        <time>2020-02-03T16:31:00Z</time>
      </trkpt>
      <trkpt lat="25.680004" lon="-100.269862">
        <ele>482.741</ele>
        <time>2020-02-03T16:31:02Z</time>
      </trkpt>
      <trkpt lat="25.679985" lon="-100.269819">
        <ele>483.129</ele>
        <time>2020-02-03T16:31:04Z</time>
      </trkpt>
      <trkpt lat="25.679977" lon="-100.269707">
        <ele>482.425</ele>
        <time>2020-02-03T16:31:08Z</time>
      </trkpt>
      <trkpt lat="25.679975" lon="-100.269675">
        <ele>481.86</ele>
        <time>2020-02-03T16:31:09Z</time>
      </trkpt>
      <trkpt lat="25.679976" lon="-100.269644">
        <ele>480.996</ele>
        <time>2020-02-03T16:31:11Z</time>
      </trkpt>
      <trkpt lat="25.67996" lon="-100.26959">
        <ele>480.799</ele>
        <time>2020-02-03T16:31:15Z</time>
      </trkpt>
      <trkpt lat="25.679934" lon="-100.269518">
        <ele>482.123</ele>
        <time>2020-02-03T16:31:20Z</time>
      </trkpt>
      <trkpt lat="25.679927" lon="-100.269454">
        <ele>483.2</ele>
        <time>2020-02-03T16:31:22Z</time>
      </trkpt>
      <trkpt lat="25.679926" lon="-100.269403">
        <ele>483.667</ele>
        <time>2020-02-03T16:31:24Z</time>
      </trkpt>
      <trkpt lat="25.679908" lon="-100.269356">
        <ele>482.567</ele>
        <time>2020-02-03T16:31:26Z</time>
      </trkpt>
      <trkpt lat="25.679882" lon="-100.269307">
        <ele>486.06</ele>
        <time>2020-02-03T16:31:29Z</time>
      </trkpt>
      <trkpt lat="25.679886" lon="-100.269252">
        <ele>485.253</ele>
        <time>2020-02-03T16:31:31Z</time>
      </trkpt>
      <trkpt lat="25.679876" lon="-100.269203">
        <ele>485.321</ele>
        <time>2020-02-03T16:31:33Z</time>
      </trkpt>
      <trkpt lat="25.679849" lon="-100.269157">
        <ele>484.202</ele>
        <time>2020-02-03T16:31:35Z</time>
      </trkpt>
      <trkpt lat="25.679834" lon="-100.269107">
        <ele>484.529</ele>
        <time>2020-02-03T16:31:37Z</time>
      </trkpt>
      <trkpt lat="25.679826" lon="-100.269053">
        <ele>484.922</ele>
        <time>2020-02-03T16:31:39Z</time>
      </trkpt>
      <trkpt lat="25.679822" lon="-100.269025">
        <ele>486.344</ele>
        <time>2020-02-03T16:31:40Z</time>
      </trkpt>
      <trkpt lat="25.679816" lon="-100.268998">
        <ele>484.943</ele>
        <time>2020-02-03T16:31:41Z</time>
      </trkpt>
      <trkpt lat="25.679799" lon="-100.268946">
        <ele>485.433</ele>
        <time>2020-02-03T16:31:43Z</time>
      </trkpt>
      <trkpt lat="25.679791" lon="-100.26892">
        <ele>486.182</ele>
        <time>2020-02-03T16:31:44Z</time>
      </trkpt>
      <trkpt lat="25.67978" lon="-100.268867">
        <ele>485.581</ele>
        <time>2020-02-03T16:31:46Z</time>
      </trkpt>
      <trkpt lat="25.679773" lon="-100.268838">
        <ele>484.706</ele>
        <time>2020-02-03T16:31:47Z</time>
      </trkpt>
      <trkpt lat="25.679763" lon="-100.268804">
        <ele>484.549</ele>
        <time>2020-02-03T16:31:49Z</time>
      </trkpt>
      <trkpt lat="25.679735" lon="-100.268755">
        <ele>484.581</ele>
        <time>2020-02-03T16:31:51Z</time>
      </trkpt>
      <trkpt lat="25.679714" lon="-100.268697">
        <ele>484.784</ele>
        <time>2020-02-03T16:31:53Z</time>
      </trkpt>
      <trkpt lat="25.679705" lon="-100.268631">
        <ele>485.607</ele>
        <time>2020-02-03T16:31:55Z</time>
      </trkpt>
      <trkpt lat="25.6797" lon="-100.268582">
        <ele>485.794</ele>
        <time>2020-02-03T16:31:57Z</time>
      </trkpt>
      <trkpt lat="25.679699" lon="-100.268551">
        <ele>486.054</ele>
        <time>2020-02-03T16:31:58Z</time>
      </trkpt>
      <trkpt lat="25.679698" lon="-100.268523">
        <ele>485.724</ele>
        <time>2020-02-03T16:31:59Z</time>
      </trkpt>
      <trkpt lat="25.679695" lon="-100.268495">
        <ele>480.61</ele>
        <time>2020-02-03T16:32:00Z</time>
      </trkpt>
      <trkpt lat="25.679692" lon="-100.268464">
        <ele>481.365</ele>
        <time>2020-02-03T16:32:01Z</time>
      </trkpt>
      <trkpt lat="25.679679" lon="-100.268415">
        <ele>482.247</ele>
        <time>2020-02-03T16:32:03Z</time>
      </trkpt>
      <trkpt lat="25.679644" lon="-100.268365">
        <ele>481.669</ele>
        <time>2020-02-03T16:32:06Z</time>
      </trkpt>
      <trkpt lat="25.679624" lon="-100.268317">
        <ele>481.978</ele>
        <time>2020-02-03T16:32:08Z</time>
      </trkpt>
      <trkpt lat="25.679616" lon="-100.268233">
        <ele>482.653</ele>
        <time>2020-02-03T16:32:11Z</time>
      </trkpt>
      <trkpt lat="25.679614" lon="-100.268207">
        <ele>482.175</ele>
        <time>2020-02-03T16:32:12Z</time>
      </trkpt>
      <trkpt lat="25.67961" lon="-100.268157">
        <ele>481.288</ele>
        <time>2020-02-03T16:32:14Z</time>
      </trkpt>
      <trkpt lat="25.679609" lon="-100.268127">
        <ele>482.164</ele>
        <time>2020-02-03T16:32:15Z</time>
      </trkpt>
      <trkpt lat="25.679608" lon="-100.268098">
        <ele>483.4</ele>
        <time>2020-02-03T16:32:16Z</time>
      </trkpt>
      <trkpt lat="25.679607" lon="-100.268068">
        <ele>485.598</ele>
        <time>2020-02-03T16:32:17Z</time>
      </trkpt>
      <trkpt lat="25.679606" lon="-100.268039">
        <ele>486.415</ele>
        <time>2020-02-03T16:32:18Z</time>
      </trkpt>
      <trkpt lat="25.679605" lon="-100.268011">
        <ele>485.779</ele>
        <time>2020-02-03T16:32:19Z</time>
      </trkpt>
      <trkpt lat="25.679604" lon="-100.267981">
        <ele>486.888</ele>
        <time>2020-02-03T16:32:20Z</time>
      </trkpt>
      <trkpt lat="25.679603" lon="-100.267952">
        <ele>486.498</ele>
        <time>2020-02-03T16:32:21Z</time>
      </trkpt>
      <trkpt lat="25.679609" lon="-100.267898">
        <ele>485.978</ele>
        <time>2020-02-03T16:32:24Z</time>
      </trkpt>
      <trkpt lat="25.679598" lon="-100.267812">
        <ele>486.04</ele>
        <time>2020-02-03T16:32:27Z</time>
      </trkpt>
      <trkpt lat="25.679593" lon="-100.26778">
        <ele>485.717</ele>
        <time>2020-02-03T16:32:28Z</time>
      </trkpt>
      <trkpt lat="25.679589" lon="-100.26775">
        <ele>484.91</ele>
        <time>2020-02-03T16:32:29Z</time>
      </trkpt>
      <trkpt lat="25.679588" lon="-100.267719">
        <ele>484.836</ele>
        <time>2020-02-03T16:32:30Z</time>
      </trkpt>
      <trkpt lat="25.679588" lon="-100.267683">
        <ele>485.211</ele>
        <time>2020-02-03T16:32:31Z</time>
      </trkpt>
      <trkpt lat="25.679591" lon="-100.267614">
        <ele>485.098</ele>
        <time>2020-02-03T16:32:33Z</time>
      </trkpt>
      <trkpt lat="25.679592" lon="-100.26758">
        <ele>486.919</ele>
        <time>2020-02-03T16:32:34Z</time>
      </trkpt>
      <trkpt lat="25.679596" lon="-100.267515">
        <ele>486.856</ele>
        <time>2020-02-03T16:32:36Z</time>
      </trkpt>
      <trkpt lat="25.679597" lon="-100.267483">
        <ele>486.383</ele>
        <time>2020-02-03T16:32:37Z</time>
      </trkpt>
      <trkpt lat="25.679598" lon="-100.267445">
        <ele>487.043</ele>
        <time>2020-02-03T16:32:38Z</time>
      </trkpt>
      <trkpt lat="25.6796" lon="-100.267375">
        <ele>486.955</ele>
        <time>2020-02-03T16:32:40Z</time>
      </trkpt>
      <trkpt lat="25.679601" lon="-100.267343">
        <ele>487.023</ele>
        <time>2020-02-03T16:32:41Z</time>
      </trkpt>
      <trkpt lat="25.679604" lon="-100.267302">
        <ele>486.577</ele>
        <time>2020-02-03T16:32:43Z</time>
      </trkpt>
      <trkpt lat="25.679625" lon="-100.267246">
        <ele>487.106</ele>
        <time>2020-02-03T16:32:49Z</time>
      </trkpt>
      <trkpt lat="25.679626" lon="-100.267191">
        <ele>487.141</ele>
        <time>2020-02-03T16:32:53Z</time>
      </trkpt>
      <trkpt lat="25.679626" lon="-100.26716">
        <ele>487.707</ele>
        <time>2020-02-03T16:32:55Z</time>
      </trkpt>
      <trkpt lat="25.679626" lon="-100.267134">
        <ele>487.744</ele>
        <time>2020-02-03T16:32:57Z</time>
      </trkpt>
      <trkpt lat="25.679629" lon="-100.267093">
        <ele>487.722</ele>
        <time>2020-02-03T16:33:03Z</time>
      </trkpt>
      <trkpt lat="25.679631" lon="-100.26704">
        <ele>488.087</ele>
        <time>2020-02-03T16:33:09Z</time>
      </trkpt>
      <trkpt lat="25.679636" lon="-100.266995">
        <ele>487.582</ele>
        <time>2020-02-03T16:33:16Z</time>
      </trkpt>
      <trkpt lat="25.679638" lon="-100.266955">
        <ele>487.403</ele>
        <time>2020-02-03T16:33:19Z</time>
      </trkpt>
      <trkpt lat="25.679654" lon="-100.266883">
        <ele>486.618</ele>
        <time>2020-02-03T16:33:23Z</time>
      </trkpt>
      <trkpt lat="25.67966" lon="-100.26685">
        <ele>485.317</ele>
        <time>2020-02-03T16:33:24Z</time>
      </trkpt>
      <trkpt lat="25.679665" lon="-100.266818">
        <ele>485.028</ele>
        <time>2020-02-03T16:33:25Z</time>
      </trkpt>
      <trkpt lat="25.679666" lon="-100.266751">
        <ele>485.422</ele>
        <time>2020-02-03T16:33:27Z</time>
      </trkpt>
      <trkpt lat="25.679667" lon="-100.266718">
        <ele>485.109</ele>
        <time>2020-02-03T16:33:28Z</time>
      </trkpt>
      <trkpt lat="25.679669" lon="-100.266686">
        <ele>485.053</ele>
        <time>2020-02-03T16:33:29Z</time>
      </trkpt>
      <trkpt lat="25.679673" lon="-100.266655">
        <ele>485.477</ele>
        <time>2020-02-03T16:33:30Z</time>
      </trkpt>
      <trkpt lat="25.679688" lon="-100.266594">
        <ele>484.729</ele>
        <time>2020-02-03T16:33:32Z</time>
      </trkpt>
      <trkpt lat="25.679696" lon="-100.266563">
        <ele>485.917</ele>
        <time>2020-02-03T16:33:33Z</time>
      </trkpt>
      <trkpt lat="25.679702" lon="-100.266533">
        <ele>487.115</ele>
        <time>2020-02-03T16:33:34Z</time>
      </trkpt>
      <trkpt lat="25.679707" lon="-100.266503">
        <ele>496.034</ele>
        <time>2020-02-03T16:33:35Z</time>
      </trkpt>
      <trkpt lat="25.679713" lon="-100.266475">
        <ele>492.166</ele>
        <time>2020-02-03T16:33:36Z</time>
      </trkpt>
      <trkpt lat="25.67972" lon="-100.266447">
        <ele>491.611</ele>
        <time>2020-02-03T16:33:37Z</time>
      </trkpt>
      <trkpt lat="25.679728" lon="-100.266418">
        <ele>491.49</ele>
        <time>2020-02-03T16:33:38Z</time>
      </trkpt>
      <trkpt lat="25.679735" lon="-100.266391">
        <ele>490.458</ele>
        <time>2020-02-03T16:33:39Z</time>
      </trkpt>
      <trkpt lat="25.679741" lon="-100.266365">
        <ele>490.0</ele>
        <time>2020-02-03T16:33:40Z</time>
      </trkpt>
      <trkpt lat="25.679748" lon="-100.266308">
        <ele>489.853</ele>
        <time>2020-02-03T16:33:42Z</time>
      </trkpt>
      <trkpt lat="25.679751" lon="-100.26628">
        <ele>489.628</ele>
        <time>2020-02-03T16:33:43Z</time>
      </trkpt>
      <trkpt lat="25.679755" lon="-100.266252">
        <ele>487.917</ele>
        <time>2020-02-03T16:33:44Z</time>
      </trkpt>
      <trkpt lat="25.679774" lon="-100.266189">
        <ele>487.991</ele>
        <time>2020-02-03T16:33:47Z</time>
      </trkpt>
      <trkpt lat="25.679783" lon="-100.266161">
        <ele>487.713</ele>
        <time>2020-02-03T16:33:48Z</time>
      </trkpt>
      <trkpt lat="25.67979" lon="-100.266133">
        <ele>488.06</ele>
        <time>2020-02-03T16:33:49Z</time>
      </trkpt>
      <trkpt lat="25.679809" lon="-100.266079">
        <ele>488.933</ele>
        <time>2020-02-03T16:33:51Z</time>
      </trkpt>
      <trkpt lat="25.679822" lon="-100.266025">
        <ele>489.357</ele>
        <time>2020-02-03T16:33:53Z</time>
      </trkpt>
      <trkpt lat="25.679843" lon="-100.265981">
        <ele>489.57</ele>
        <time>2020-02-03T16:33:56Z</time>
      </trkpt>
      <trkpt lat="25.679843" lon="-100.265981">
        <ele>489.23</ele>
        <time>2020-02-03T16:34:06Z</time>
      </trkpt>
      <trkpt lat="25.679843" lon="-100.265981">
        <ele>489.512</ele>
        <time>2020-02-03T16:37:38Z</time>
      </trkpt>
      <trkpt lat="25.679849" lon="-100.265843">
        <ele>490.094</ele>
        <time>2020-02-03T16:37:40Z</time>
      </trkpt>
      <trkpt lat="25.679862" lon="-100.265735">
        <ele>490.908</ele>
        <time>2020-02-03T16:38:44Z</time>
      </trkpt>
      <trkpt lat="25.679867" lon="-100.265707">
        <ele>491.877</ele>
        <time>2020-02-03T16:38:48Z</time>
      </trkpt>
      <trkpt lat="25.679876" lon="-100.265664">
        <ele>492.221</ele>
        <time>2020-02-03T16:38:52Z</time>
      </trkpt>
      <trkpt lat="25.679882" lon="-100.265631">
        <ele>491.711</ele>
        <time>2020-02-03T16:38:55Z</time>
      </trkpt>
      <trkpt lat="25.679888" lon="-100.2656">
        <ele>493.064</ele>
        <time>2020-02-03T16:38:58Z</time>
      </trkpt>
      <trkpt lat="25.6799" lon="-100.265557">
        <ele>494.166</ele>
        <time>2020-02-03T16:39:02Z</time>
      </trkpt>
      <trkpt lat="25.679903" lon="-100.265506">
        <ele>494.016</ele>
        <time>2020-02-03T16:39:06Z</time>
      </trkpt>
      <trkpt lat="25.6799" lon="-100.265441">
        <ele>494.999</ele>
        <time>2020-02-03T16:39:09Z</time>
      </trkpt>
      <trkpt lat="25.679897" lon="-100.265385">
        <ele>495.099</ele>
        <time>2020-02-03T16:39:11Z</time>
      </trkpt>
      <trkpt lat="25.679896" lon="-100.265357">
        <ele>494.753</ele>
        <time>2020-02-03T16:39:12Z</time>
      </trkpt>
      <trkpt lat="25.679895" lon="-100.265327">
        <ele>495.743</ele>
        <time>2020-02-03T16:39:13Z</time>
      </trkpt>
      <trkpt lat="25.679896" lon="-100.265297">
        <ele>495.542</ele>
        <time>2020-02-03T16:39:14Z</time>
      </trkpt>
      <trkpt lat="25.679897" lon="-100.265265">
        <ele>495.264</ele>
        <time>2020-02-03T16:39:15Z</time>
      </trkpt>
      <trkpt lat="25.6799" lon="-100.265232">
        <ele>495.617</ele>
        <time>2020-02-03T16:39:16Z</time>
      </trkpt>
      <trkpt lat="25.679901" lon="-100.265197">
        <ele>495.637</ele>
        <time>2020-02-03T16:39:17Z</time>
      </trkpt>
      <trkpt lat="25.679901" lon="-100.265161">
        <ele>495.896</ele>
        <time>2020-02-03T16:39:18Z</time>
      </trkpt>
      <trkpt lat="25.679901" lon="-100.265123">
        <ele>492.994</ele>
        <time>2020-02-03T16:39:19Z</time>
      </trkpt>
      <trkpt lat="25.679901" lon="-100.265084">
        <ele>493.301</ele>
        <time>2020-02-03T16:39:20Z</time>
      </trkpt>
      <trkpt lat="25.679904" lon="-100.265045">
        <ele>493.833</ele>
        <time>2020-02-03T16:39:21Z</time>
      </trkpt>
      <trkpt lat="25.679905" lon="-100.265004">
        <ele>492.691</ele>
        <time>2020-02-03T16:39:22Z</time>
      </trkpt>
      <trkpt lat="25.679904" lon="-100.264965">
        <ele>492.461</ele>
        <time>2020-02-03T16:39:23Z</time>
      </trkpt>
      <trkpt lat="25.679895" lon="-100.264885">
        <ele>492.007</ele>
        <time>2020-02-03T16:39:25Z</time>
      </trkpt>
      <trkpt lat="25.679892" lon="-100.264842">
        <ele>490.116</ele>
        <time>2020-02-03T16:39:26Z</time>
      </trkpt>
      <trkpt lat="25.679889" lon="-100.264801">
        <ele>488.908</ele>
        <time>2020-02-03T16:39:27Z</time>
      </trkpt>
      <trkpt lat="25.679884" lon="-100.264718">
        <ele>486.091</ele>
        <time>2020-02-03T16:39:29Z</time>
      </trkpt>
      <trkpt lat="25.679884" lon="-100.264676">
        <ele>485.749</ele>
        <time>2020-02-03T16:39:30Z</time>
      </trkpt>
      <trkpt lat="25.679884" lon="-100.264635">
        <ele>485.649</ele>
        <time>2020-02-03T16:39:31Z</time>
      </trkpt>
      <trkpt lat="25.679881" lon="-100.26455">
        <ele>485.516</ele>
        <time>2020-02-03T16:39:33Z</time>
      </trkpt>
      <trkpt lat="25.679882" lon="-100.26451">
        <ele>486.823</ele>
        <time>2020-02-03T16:39:34Z</time>
      </trkpt>
      <trkpt lat="25.67988" lon="-100.26447">
        <ele>486.409</ele>
        <time>2020-02-03T16:39:35Z</time>
      </trkpt>
      <trkpt lat="25.679868" lon="-100.2644">
        <ele>486.882</ele>
        <time>2020-02-03T16:39:37Z</time>
      </trkpt>
      <trkpt lat="25.679861" lon="-100.264367">
        <ele>487.357</ele>
        <time>2020-02-03T16:39:38Z</time>
      </trkpt>
      <trkpt lat="25.679844" lon="-100.264308">
        <ele>487.608</ele>
        <time>2020-02-03T16:39:40Z</time>
      </trkpt>
      <trkpt lat="25.679829" lon="-100.264224">
        <ele>487.471</ele>
        <time>2020-02-03T16:39:43Z</time>
      </trkpt>
      <trkpt lat="25.679815" lon="-100.264175">
        <ele>487.135</ele>
        <time>2020-02-03T16:39:45Z</time>
      </trkpt>
      <trkpt lat="25.679805" lon="-100.264132">
        <ele>486.807</ele>
        <time>2020-02-03T16:39:47Z</time>
      </trkpt>
      <trkpt lat="25.67979" lon="-100.264037">
        <ele>485.995</ele>
        <time>2020-02-03T16:39:51Z</time>
      </trkpt>
      <trkpt lat="25.679786" lon="-100.26401">
        <ele>485.878</ele>
        <time>2020-02-03T16:39:52Z</time>
      </trkpt>
      <trkpt lat="25.679784" lon="-100.263982">
        <ele>485.64</ele>
        <time>2020-02-03T16:39:53Z</time>
      </trkpt>
      <trkpt lat="25.679786" lon="-100.263932">
        <ele>485.676</ele>
        <time>2020-02-03T16:39:55Z</time>
      </trkpt>
      <trkpt lat="25.679788" lon="-100.263869">
        <ele>484.505</ele>
        <time>2020-02-03T16:39:57Z</time>
      </trkpt>
      <trkpt lat="25.679789" lon="-100.26382">
        <ele>484.363</ele>
        <time>2020-02-03T16:39:59Z</time>
      </trkpt>
      <trkpt lat="25.679789" lon="-100.26379">
        <ele>485.217</ele>
        <time>2020-02-03T16:40:00Z</time>
      </trkpt>
      <trkpt lat="25.67979" lon="-100.263761">
        <ele>485.521</ele>
        <time>2020-02-03T16:40:01Z</time>
      </trkpt>
      <trkpt lat="25.679791" lon="-100.263731">
        <ele>485.423</ele>
        <time>2020-02-03T16:40:02Z</time>
      </trkpt>
      <trkpt lat="25.679799" lon="-100.263674">
        <ele>486.119</ele>
        <time>2020-02-03T16:40:04Z</time>
      </trkpt>
      <trkpt lat="25.679797" lon="-100.26358">
        <ele>487.062</ele>
        <time>2020-02-03T16:40:07Z</time>
      </trkpt>
      <trkpt lat="25.679787" lon="-100.263517">
        <ele>488.478</ele>
        <time>2020-02-03T16:40:09Z</time>
      </trkpt>
      <trkpt lat="25.67978" lon="-100.263485">
        <ele>488.784</ele>
        <time>2020-02-03T16:40:10Z</time>
      </trkpt>
      <trkpt lat="25.679771" lon="-100.263453">
        <ele>488.189</ele>
        <time>2020-02-03T16:40:11Z</time>
      </trkpt>
      <trkpt lat="25.679762" lon="-100.263423">
        <ele>487.939</ele>
        <time>2020-02-03T16:40:12Z</time>
      </trkpt>
      <trkpt lat="25.679753" lon="-100.263393">
        <ele>487.935</ele>
        <time>2020-02-03T16:40:13Z</time>
      </trkpt>
      <trkpt lat="25.67974" lon="-100.263334">
        <ele>488.244</ele>
        <time>2020-02-03T16:40:15Z</time>
      </trkpt>
      <trkpt lat="25.679734" lon="-100.263306">
        <ele>487.457</ele>
        <time>2020-02-03T16:40:16Z</time>
      </trkpt>
      <trkpt lat="25.679731" lon="-100.263277">
        <ele>488.642</ele>
        <time>2020-02-03T16:40:17Z</time>
      </trkpt>
      <trkpt lat="25.679727" lon="-100.26325">
        <ele>488.223</ele>
        <time>2020-02-03T16:40:18Z</time>
      </trkpt>
      <trkpt lat="25.679725" lon="-100.263222">
        <ele>488.364</ele>
        <time>2020-02-03T16:40:19Z</time>
      </trkpt>
      <trkpt lat="25.679723" lon="-100.263196">
        <ele>488.933</ele>
        <time>2020-02-03T16:40:20Z</time>
      </trkpt>
      <trkpt lat="25.679722" lon="-100.263169">
        <ele>488.75</ele>
        <time>2020-02-03T16:40:21Z</time>
      </trkpt>
      <trkpt lat="25.679721" lon="-100.263143">
        <ele>488.502</ele>
        <time>2020-02-03T16:40:22Z</time>
      </trkpt>
      <trkpt lat="25.679719" lon="-100.263118">
        <ele>487.851</ele>
        <time>2020-02-03T16:40:23Z</time>
      </trkpt>
      <trkpt lat="25.679716" lon="-100.263092">
        <ele>488.235</ele>
        <time>2020-02-03T16:40:24Z</time>
      </trkpt>
      <trkpt lat="25.679696" lon="-100.263006">
        <ele>488.6</ele>
        <time>2020-02-03T16:40:27Z</time>
      </trkpt>
      <trkpt lat="25.679692" lon="-100.26295">
        <ele>488.842</ele>
        <time>2020-02-03T16:40:29Z</time>
      </trkpt>
      <trkpt lat="25.679678" lon="-100.26288">
        <ele>489.206</ele>
        <time>2020-02-03T16:40:31Z</time>
      </trkpt>
      <trkpt lat="25.679671" lon="-100.262847">
        <ele>486.935</ele>
        <time>2020-02-03T16:40:32Z</time>
      </trkpt>
      <trkpt lat="25.679666" lon="-100.262815">
        <ele>488.358</ele>
        <time>2020-02-03T16:40:33Z</time>
      </trkpt>
      <trkpt lat="25.679662" lon="-100.262783">
        <ele>489.041</ele>
        <time>2020-02-03T16:40:34Z</time>
      </trkpt>
      <trkpt lat="25.679659" lon="-100.262753">
        <ele>489.189</ele>
        <time>2020-02-03T16:40:35Z</time>
      </trkpt>
      <trkpt lat="25.679657" lon="-100.262723">
        <ele>489.219</ele>
        <time>2020-02-03T16:40:36Z</time>
      </trkpt>
      <trkpt lat="25.679656" lon="-100.262692">
        <ele>489.13</ele>
        <time>2020-02-03T16:40:37Z</time>
      </trkpt>
      <trkpt lat="25.679655" lon="-100.262662">
        <ele>488.197</ele>
        <time>2020-02-03T16:40:38Z</time>
      </trkpt>
      <trkpt lat="25.679653" lon="-100.262631">
        <ele>487.978</ele>
        <time>2020-02-03T16:40:39Z</time>
      </trkpt>
      <trkpt lat="25.67965" lon="-100.2626">
        <ele>487.644</ele>
        <time>2020-02-03T16:40:40Z</time>
      </trkpt>
      <trkpt lat="25.679646" lon="-100.262566">
        <ele>487.086</ele>
        <time>2020-02-03T16:40:41Z</time>
      </trkpt>
      <trkpt lat="25.679642" lon="-100.262532">
        <ele>486.861</ele>
        <time>2020-02-03T16:40:42Z</time>
      </trkpt>
      <trkpt lat="25.679637" lon="-100.262499">
        <ele>485.828</ele>
        <time>2020-02-03T16:40:43Z</time>
      </trkpt>
      <trkpt lat="25.679633" lon="-100.262467">
        <ele>485.621</ele>
        <time>2020-02-03T16:40:44Z</time>
      </trkpt>
      <trkpt lat="25.67963" lon="-100.262434">
        <ele>485.152</ele>
        <time>2020-02-03T16:40:45Z</time>
      </trkpt>
      <trkpt lat="25.679628" lon="-100.262404">
        <ele>484.128</ele>
        <time>2020-02-03T16:40:46Z</time>
      </trkpt>
      <trkpt lat="25.679628" lon="-100.262374">
        <ele>484.477</ele>
        <time>2020-02-03T16:40:47Z</time>
      </trkpt>
      <trkpt lat="25.679627" lon="-100.262349">
        <ele>484.254</ele>
        <time>2020-02-03T16:40:48Z</time>
      </trkpt>
      <trkpt lat="25.679637" lon="-100.262279">
        <ele>484.118</ele>
        <time>2020-02-03T16:40:52Z</time>
      </trkpt>
      <trkpt lat="25.679629" lon="-100.262223">
        <ele>483.664</ele>
        <time>2020-02-03T16:40:54Z</time>
      </trkpt>
      <trkpt lat="25.679621" lon="-100.262153">
        <ele>483.849</ele>
        <time>2020-02-03T16:40:57Z</time>
      </trkpt>
      <trkpt lat="25.679617" lon="-100.26212">
        <ele>482.903</ele>
        <time>2020-02-03T16:40:58Z</time>
      </trkpt>
      <trkpt lat="25.679614" lon="-100.262089">
        <ele>482.454</ele>
        <time>2020-02-03T16:40:59Z</time>
      </trkpt>
      <trkpt lat="25.67961" lon="-100.262062">
        <ele>482.598</ele>
        <time>2020-02-03T16:41:00Z</time>
      </trkpt>
      <trkpt lat="25.679605" lon="-100.262034">
        <ele>482.386</ele>
        <time>2020-02-03T16:41:01Z</time>
      </trkpt>
      <trkpt lat="25.679598" lon="-100.262004">
        <ele>481.947</ele>
        <time>2020-02-03T16:41:02Z</time>
      </trkpt>
      <trkpt lat="25.67959" lon="-100.261974">
        <ele>484.015</ele>
        <time>2020-02-03T16:41:03Z</time>
      </trkpt>
      <trkpt lat="25.679583" lon="-100.261945">
        <ele>485.45</ele>
        <time>2020-02-03T16:41:04Z</time>
      </trkpt>
      <trkpt lat="25.679577" lon="-100.261916">
        <ele>485.319</ele>
        <time>2020-02-03T16:41:05Z</time>
      </trkpt>
      <trkpt lat="25.67957" lon="-100.261858">
        <ele>486.783</ele>
        <time>2020-02-03T16:41:07Z</time>
      </trkpt>
      <trkpt lat="25.679565" lon="-100.261827">
        <ele>487.008</ele>
        <time>2020-02-03T16:41:08Z</time>
      </trkpt>
      <trkpt lat="25.679562" lon="-100.261796">
        <ele>487.335</ele>
        <time>2020-02-03T16:41:09Z</time>
      </trkpt>
      <trkpt lat="25.679565" lon="-100.261732">
        <ele>488.027</ele>
        <time>2020-02-03T16:41:11Z</time>
      </trkpt>
      <trkpt lat="25.679566" lon="-100.261696">
        <ele>487.989</ele>
        <time>2020-02-03T16:41:12Z</time>
      </trkpt>
      <trkpt lat="25.679565" lon="-100.26166">
        <ele>487.896</ele>
        <time>2020-02-03T16:41:13Z</time>
      </trkpt>
      <trkpt lat="25.679567" lon="-100.261626">
        <ele>487.724</ele>
        <time>2020-02-03T16:41:14Z</time>
      </trkpt>
      <trkpt lat="25.67957" lon="-100.261591">
        <ele>488.858</ele>
        <time>2020-02-03T16:41:15Z</time>
      </trkpt>
      <trkpt lat="25.679581" lon="-100.261527">
        <ele>488.862</ele>
        <time>2020-02-03T16:41:17Z</time>
      </trkpt>
      <trkpt lat="25.679587" lon="-100.261494">
        <ele>487.959</ele>
        <time>2020-02-03T16:41:18Z</time>
      </trkpt>
      <trkpt lat="25.679594" lon="-100.26146">
        <ele>485.439</ele>
        <time>2020-02-03T16:41:19Z</time>
      </trkpt>
      <trkpt lat="25.6796" lon="-100.26143">
        <ele>484.263</ele>
        <time>2020-02-03T16:41:20Z</time>
      </trkpt>
      <trkpt lat="25.679605" lon="-100.261401">
        <ele>483.409</ele>
        <time>2020-02-03T16:41:21Z</time>
      </trkpt>
      <trkpt lat="25.679612" lon="-100.261371">
        <ele>482.797</ele>
        <time>2020-02-03T16:41:22Z</time>
      </trkpt>
      <trkpt lat="25.679618" lon="-100.261311">
        <ele>482.021</ele>
        <time>2020-02-03T16:41:24Z</time>
      </trkpt>
      <trkpt lat="25.679608" lon="-100.261246">
        <ele>481.105</ele>
        <time>2020-02-03T16:41:26Z</time>
      </trkpt>
      <trkpt lat="25.679604" lon="-100.261217">
        <ele>481.475</ele>
        <time>2020-02-03T16:41:27Z</time>
      </trkpt>
      <trkpt lat="25.679606" lon="-100.261159">
        <ele>481.408</ele>
        <time>2020-02-03T16:41:29Z</time>
      </trkpt>
      <trkpt lat="25.679624" lon="-100.261108">
        <ele>481.169</ele>
        <time>2020-02-03T16:41:31Z</time>
      </trkpt>
      <trkpt lat="25.679646" lon="-100.261056">
        <ele>480.859</ele>
        <time>2020-02-03T16:41:33Z</time>
      </trkpt>
      <trkpt lat="25.67968" lon="-100.260975">
        <ele>481.239</ele>
        <time>2020-02-03T16:41:36Z</time>
      </trkpt>
      <trkpt lat="25.679729" lon="-100.260862">
        <ele>480.964</ele>
        <time>2020-02-03T16:41:40Z</time>
      </trkpt>
      <trkpt lat="25.679733" lon="-100.260802">
        <ele>479.918</ele>
        <time>2020-02-03T16:41:43Z</time>
      </trkpt>
      <trkpt lat="25.679716" lon="-100.260751">
        <ele>479.347</ele>
        <time>2020-02-03T16:41:46Z</time>
      </trkpt>
      <trkpt lat="25.679705" lon="-100.260713">
        <ele>478.546</ele>
        <time>2020-02-03T16:41:48Z</time>
      </trkpt>
      <trkpt lat="25.679708" lon="-100.260655">
        <ele>477.907</ele>
        <time>2020-02-03T16:41:50Z</time>
      </trkpt>
      <trkpt lat="25.679745" lon="-100.26061">
        <ele>478.102</ele>
        <time>2020-02-03T16:41:54Z</time>
      </trkpt>
      <trkpt lat="25.679814" lon="-100.260582">
        <ele>478.313</ele>
        <time>2020-02-03T16:41:57Z</time>
      </trkpt>
      <trkpt lat="25.679869" lon="-100.26059">
        <ele>478.354</ele>
        <time>2020-02-03T16:41:59Z</time>
      </trkpt>
      <trkpt lat="25.679896" lon="-100.260595">
        <ele>478.393</ele>
        <time>2020-02-03T16:42:00Z</time>
      </trkpt>
      <trkpt lat="25.679922" lon="-100.260597">
        <ele>478.25</ele>
        <time>2020-02-03T16:42:01Z</time>
      </trkpt>
      <trkpt lat="25.679948" lon="-100.260598">
        <ele>477.638</ele>
        <time>2020-02-03T16:42:02Z</time>
      </trkpt>
      <trkpt lat="25.679974" lon="-100.260598">
        <ele>476.894</ele>
        <time>2020-02-03T16:42:03Z</time>
      </trkpt>
      <trkpt lat="25.68" lon="-100.260599">
        <ele>476.784</ele>
        <time>2020-02-03T16:42:04Z</time>
      </trkpt>
      <trkpt lat="25.680027" lon="-100.2606">
        <ele>476.589</ele>
        <time>2020-02-03T16:42:05Z</time>
      </trkpt>
      <trkpt lat="25.680053" lon="-100.260601">
        <ele>476.912</ele>
        <time>2020-02-03T16:42:06Z</time>
      </trkpt>
      <trkpt lat="25.680079" lon="-100.2606">
        <ele>476.902</ele>
        <time>2020-02-03T16:42:07Z</time>
      </trkpt>
      <trkpt lat="25.680105" lon="-100.260598">
        <ele>476.728</ele>
        <time>2020-02-03T16:42:08Z</time>
      </trkpt>
      <trkpt lat="25.680132" lon="-100.260593">
        <ele>476.721</ele>
        <time>2020-02-03T16:42:09Z</time>
      </trkpt>
      <trkpt lat="25.680161" lon="-100.260587">
        <ele>475.681</ele>
        <time>2020-02-03T16:42:10Z</time>
      </trkpt>
      <trkpt lat="25.680188" lon="-100.260582">
        <ele>475.529</ele>
        <time>2020-02-03T16:42:11Z</time>
      </trkpt>
      <trkpt lat="25.680244" lon="-100.26058">
        <ele>475.705</ele>
        <time>2020-02-03T16:42:13Z</time>
      </trkpt>
      <trkpt lat="25.680269" lon="-100.260581">
        <ele>476.654</ele>
        <time>2020-02-03T16:42:14Z</time>
      </trkpt>
      <trkpt lat="25.680294" lon="-100.26058">
        <ele>476.131</ele>
        <time>2020-02-03T16:42:15Z</time>
      </trkpt>
      <trkpt lat="25.680328" lon="-100.260578">
        <ele>475.849</ele>
        <time>2020-02-03T16:42:17Z</time>
      </trkpt>
      <trkpt lat="25.680351" lon="-100.260576">
        <ele>476.157</ele>
        <time>2020-02-03T16:42:18Z</time>
      </trkpt>
      <trkpt lat="25.680374" lon="-100.260574">
        <ele>475.759</ele>
        <time>2020-02-03T16:42:19Z</time>
      </trkpt>
      <trkpt lat="25.680398" lon="-100.260571">
        <ele>476.273</ele>
        <time>2020-02-03T16:42:20Z</time>
      </trkpt>
      <trkpt lat="25.680423" lon="-100.260567">
        <ele>476.699</ele>
        <time>2020-02-03T16:42:21Z</time>
      </trkpt>
      <trkpt lat="25.680449" lon="-100.260562">
        <ele>479.294</ele>
        <time>2020-02-03T16:42:22Z</time>
      </trkpt>
      <trkpt lat="25.680496" lon="-100.260551">
        <ele>481.309</ele>
        <time>2020-02-03T16:42:24Z</time>
      </trkpt>
      <trkpt lat="25.680519" lon="-100.260545">
        <ele>477.34</ele>
        <time>2020-02-03T16:42:25Z</time>
      </trkpt>
      <trkpt lat="25.680544" lon="-100.260538">
        <ele>478.241</ele>
        <time>2020-02-03T16:42:26Z</time>
      </trkpt>
      <trkpt lat="25.68057" lon="-100.260534">
        <ele>479.007</ele>
        <time>2020-02-03T16:42:27Z</time>
      </trkpt>
      <trkpt lat="25.680594" lon="-100.260532">
        <ele>477.994</ele>
        <time>2020-02-03T16:42:28Z</time>
      </trkpt>
      <trkpt lat="25.680659" lon="-100.260487">
        <ele>478.326</ele>
        <time>2020-02-03T16:42:32Z</time>
      </trkpt>
      <trkpt lat="25.68069" lon="-100.260444">
        <ele>477.53</ele>
        <time>2020-02-03T16:42:34Z</time>
      </trkpt>
      <trkpt lat="25.680715" lon="-100.260392">
        <ele>478.787</ele>
        <time>2020-02-03T16:42:36Z</time>
      </trkpt>
      <trkpt lat="25.68073" lon="-100.260336">
        <ele>479.667</ele>
        <time>2020-02-03T16:42:38Z</time>
      </trkpt>
      <trkpt lat="25.680732" lon="-100.260273">
        <ele>480.447</ele>
        <time>2020-02-03T16:42:40Z</time>
      </trkpt>
      <trkpt lat="25.680722" lon="-100.260179">
        <ele>481.541</ele>
        <time>2020-02-03T16:42:43Z</time>
      </trkpt>
      <trkpt lat="25.680726" lon="-100.260118">
        <ele>482.242</ele>
        <time>2020-02-03T16:42:45Z</time>
      </trkpt>
      <trkpt lat="25.680729" lon="-100.260087">
        <ele>482.805</ele>
        <time>2020-02-03T16:42:46Z</time>
      </trkpt>
      <trkpt lat="25.680735" lon="-100.260057">
        <ele>482.059</ele>
        <time>2020-02-03T16:42:47Z</time>
      </trkpt>
      <trkpt lat="25.680756" lon="-100.260001">
        <ele>482.133</ele>
        <time>2020-02-03T16:42:49Z</time>
      </trkpt>
      <trkpt lat="25.680765" lon="-100.259979">
        <ele>479.766</ele>
        <time>2020-02-03T16:42:50Z</time>
      </trkpt>
      <trkpt lat="25.680781" lon="-100.259923">
        <ele>477.377</ele>
        <time>2020-02-03T16:42:53Z</time>
      </trkpt>
      <trkpt lat="25.68079" lon="-100.259887">
        <ele>477.365</ele>
        <time>2020-02-03T16:42:55Z</time>
      </trkpt>
      <trkpt lat="25.680797" lon="-100.259849">
        <ele>478.544</ele>
        <time>2020-02-03T16:42:59Z</time>
      </trkpt>
      <trkpt lat="25.680817" lon="-100.259794">
        <ele>477.907</ele>
        <time>2020-02-03T16:43:07Z</time>
      </trkpt>
      <trkpt lat="25.680809" lon="-100.259741">
        <ele>477.746</ele>
        <time>2020-02-03T16:43:14Z</time>
      </trkpt>
      <trkpt lat="25.680805" lon="-100.259716">
        <ele>478.78</ele>
        <time>2020-02-03T16:43:16Z</time>
      </trkpt>
      <trkpt lat="25.680801" lon="-100.259691">
        <ele>477.605</ele>
        <time>2020-02-03T16:43:18Z</time>
      </trkpt>
      <trkpt lat="25.680797" lon="-100.259635">
        <ele>476.864</ele>
        <time>2020-02-03T16:43:21Z</time>
      </trkpt>
      <trkpt lat="25.680795" lon="-100.259608">
        <ele>477.346</ele>
        <time>2020-02-03T16:43:22Z</time>
      </trkpt>
      <trkpt lat="25.680793" lon="-100.259579">
        <ele>477.381</ele>
        <time>2020-02-03T16:43:23Z</time>
      </trkpt>
      <trkpt lat="25.680792" lon="-100.259548">
        <ele>478.787</ele>
        <time>2020-02-03T16:43:24Z</time>
      </trkpt>
      <trkpt lat="25.680793" lon="-100.259514">
        <ele>479.476</ele>
        <time>2020-02-03T16:43:25Z</time>
      </trkpt>
      <trkpt lat="25.680794" lon="-100.259479">
        <ele>479.988</ele>
        <time>2020-02-03T16:43:26Z</time>
      </trkpt>
      <trkpt lat="25.680795" lon="-100.259443">
        <ele>479.836</ele>
        <time>2020-02-03T16:43:27Z</time>
      </trkpt>
      <trkpt lat="25.680795" lon="-100.259409">
        <ele>479.936</ele>
        <time>2020-02-03T16:43:28Z</time>
      </trkpt>
      <trkpt lat="25.680795" lon="-100.259375">
        <ele>480.072</ele>
        <time>2020-02-03T16:43:29Z</time>
      </trkpt>
      <trkpt lat="25.680796" lon="-100.259347">
        <ele>480.15</ele>
        <time>2020-02-03T16:43:30Z</time>
      </trkpt>
      <trkpt lat="25.680799" lon="-100.259299">
        <ele>479.475</ele>
        <time>2020-02-03T16:43:32Z</time>
      </trkpt>
      <trkpt lat="25.6808" lon="-100.259271">
        <ele>479.147</ele>
        <time>2020-02-03T16:43:33Z</time>
      </trkpt>
      <trkpt lat="25.680797" lon="-100.259199">
        <ele>478.041</ele>
        <time>2020-02-03T16:43:35Z</time>
      </trkpt>
      <trkpt lat="25.680795" lon="-100.259162">
        <ele>477.998</ele>
        <time>2020-02-03T16:43:36Z</time>
      </trkpt>
      <trkpt lat="25.680794" lon="-100.259127">
        <ele>477.721</ele>
        <time>2020-02-03T16:43:37Z</time>
      </trkpt>
      <trkpt lat="25.680794" lon="-100.259088">
        <ele>476.992</ele>
        <time>2020-02-03T16:43:38Z</time>
      </trkpt>
      <trkpt lat="25.680794" lon="-100.25905">
        <ele>476.902</ele>
        <time>2020-02-03T16:43:39Z</time>
      </trkpt>
      <trkpt lat="25.680793" lon="-100.259015">
        <ele>476.73</ele>
        <time>2020-02-03T16:43:40Z</time>
      </trkpt>
      <trkpt lat="25.680793" lon="-100.25898">
        <ele>477.449</ele>
        <time>2020-02-03T16:43:41Z</time>
      </trkpt>
      <trkpt lat="25.680794" lon="-100.258945">
        <ele>477.854</ele>
        <time>2020-02-03T16:43:42Z</time>
      </trkpt>
      <trkpt lat="25.680795" lon="-100.258908">
        <ele>477.661</ele>
        <time>2020-02-03T16:43:43Z</time>
      </trkpt>
      <trkpt lat="25.680794" lon="-100.258871">
        <ele>477.17</ele>
        <time>2020-02-03T16:43:44Z</time>
      </trkpt>
      <trkpt lat="25.680791" lon="-100.258836">
        <ele>476.902</ele>
        <time>2020-02-03T16:43:45Z</time>
      </trkpt>
      <trkpt lat="25.680787" lon="-100.2588">
        <ele>477.29</ele>
        <time>2020-02-03T16:43:46Z</time>
      </trkpt>
      <trkpt lat="25.680786" lon="-100.258765">
        <ele>477.559</ele>
        <time>2020-02-03T16:43:47Z</time>
      </trkpt>
      <trkpt lat="25.680793" lon="-100.258695">
        <ele>477.083</ele>
        <time>2020-02-03T16:43:49Z</time>
      </trkpt>
      <trkpt lat="25.680797" lon="-100.25866">
        <ele>477.382</ele>
        <time>2020-02-03T16:43:50Z</time>
      </trkpt>
      <trkpt lat="25.680801" lon="-100.258628">
        <ele>477.817</ele>
        <time>2020-02-03T16:43:51Z</time>
      </trkpt>
      <trkpt lat="25.680803" lon="-100.258597">
        <ele>478.657</ele>
        <time>2020-02-03T16:43:52Z</time>
      </trkpt>
      <trkpt lat="25.680801" lon="-100.258537">
        <ele>478.123</ele>
        <time>2020-02-03T16:43:54Z</time>
      </trkpt>
      <trkpt lat="25.680799" lon="-100.258508">
        <ele>477.962</ele>
        <time>2020-02-03T16:43:55Z</time>
      </trkpt>
      <trkpt lat="25.680799" lon="-100.258477">
        <ele>477.772</ele>
        <time>2020-02-03T16:43:56Z</time>
      </trkpt>
      <trkpt lat="25.680799" lon="-100.258448">
        <ele>478.159</ele>
        <time>2020-02-03T16:43:57Z</time>
      </trkpt>
      <trkpt lat="25.6808" lon="-100.258418">
        <ele>478.24</ele>
        <time>2020-02-03T16:43:58Z</time>
      </trkpt>
      <trkpt lat="25.6808" lon="-100.258388">
        <ele>478.313</ele>
        <time>2020-02-03T16:43:59Z</time>
      </trkpt>
      <trkpt lat="25.680801" lon="-100.258356">
        <ele>479.185</ele>
        <time>2020-02-03T16:44:00Z</time>
      </trkpt>
      <trkpt lat="25.6808" lon="-100.258325">
        <ele>479.596</ele>
        <time>2020-02-03T16:44:01Z</time>
      </trkpt>
      <trkpt lat="25.680799" lon="-100.258294">
        <ele>479.619</ele>
        <time>2020-02-03T16:44:02Z</time>
      </trkpt>
      <trkpt lat="25.680797" lon="-100.258264">
        <ele>479.584</ele>
        <time>2020-02-03T16:44:03Z</time>
      </trkpt>
      <trkpt lat="25.680797" lon="-100.258235">
        <ele>479.664</ele>
        <time>2020-02-03T16:44:04Z</time>
      </trkpt>
      <trkpt lat="25.680798" lon="-100.258205">
        <ele>477.694</ele>
        <time>2020-02-03T16:44:05Z</time>
      </trkpt>
      <trkpt lat="25.6808" lon="-100.258175">
        <ele>478.331</ele>
        <time>2020-02-03T16:44:06Z</time>
      </trkpt>
      <trkpt lat="25.6808" lon="-100.258146">
        <ele>478.458</ele>
        <time>2020-02-03T16:44:07Z</time>
      </trkpt>
      <trkpt lat="25.680801" lon="-100.258118">
        <ele>479.749</ele>
        <time>2020-02-03T16:44:08Z</time>
      </trkpt>
      <trkpt lat="25.680804" lon="-100.25809">
        <ele>479.274</ele>
        <time>2020-02-03T16:44:09Z</time>
      </trkpt>
      <trkpt lat="25.680808" lon="-100.258061">
        <ele>479.603</ele>
        <time>2020-02-03T16:44:10Z</time>
      </trkpt>
      <trkpt lat="25.68081" lon="-100.258032">
        <ele>480.199</ele>
        <time>2020-02-03T16:44:11Z</time>
      </trkpt>
      <trkpt lat="25.680815" lon="-100.258002">
        <ele>479.344</ele>
        <time>2020-02-03T16:44:12Z</time>
      </trkpt>
      <trkpt lat="25.68082" lon="-100.25797">
        <ele>479.574</ele>
        <time>2020-02-03T16:44:13Z</time>
      </trkpt>
      <trkpt lat="25.680823" lon="-100.257938">
        <ele>479.229</ele>
        <time>2020-02-03T16:44:14Z</time>
      </trkpt>
      <trkpt lat="25.680825" lon="-100.257908">
        <ele>479.033</ele>
        <time>2020-02-03T16:44:15Z</time>
      </trkpt>
      <trkpt lat="25.680826" lon="-100.257877">
        <ele>478.25</ele>
        <time>2020-02-03T16:44:16Z</time>
      </trkpt>
      <trkpt lat="25.680827" lon="-100.257847">
        <ele>477.777</ele>
        <time>2020-02-03T16:44:17Z</time>
      </trkpt>
      <trkpt lat="25.68083" lon="-100.257784">
        <ele>477.112</ele>
        <time>2020-02-03T16:44:19Z</time>
      </trkpt>
      <trkpt lat="25.680831" lon="-100.257753">
        <ele>477.795</ele>
        <time>2020-02-03T16:44:20Z</time>
      </trkpt>
      <trkpt lat="25.680831" lon="-100.257721">
        <ele>479.644</ele>
        <time>2020-02-03T16:44:21Z</time>
      </trkpt>
      <trkpt lat="25.680831" lon="-100.257689">
        <ele>480.834</ele>
        <time>2020-02-03T16:44:22Z</time>
      </trkpt>
      <trkpt lat="25.680821" lon="-100.257597">
        <ele>481.193</ele>
        <time>2020-02-03T16:44:25Z</time>
      </trkpt>
      <trkpt lat="25.680824" lon="-100.257546">
        <ele>482.251</ele>
        <time>2020-02-03T16:44:27Z</time>
      </trkpt>
      <trkpt lat="25.680828" lon="-100.257521">
        <ele>482.519</ele>
        <time>2020-02-03T16:44:28Z</time>
      </trkpt>
      <trkpt lat="25.680832" lon="-100.257462">
        <ele>482.557</ele>
        <time>2020-02-03T16:44:31Z</time>
      </trkpt>
      <trkpt lat="25.680838" lon="-100.257409">
        <ele>482.697</ele>
        <time>2020-02-03T16:44:35Z</time>
      </trkpt>
      <trkpt lat="25.680823" lon="-100.25734">
        <ele>482.366</ele>
        <time>2020-02-03T16:44:37Z</time>
      </trkpt>
      <trkpt lat="25.680816" lon="-100.257307">
        <ele>480.977</ele>
        <time>2020-02-03T16:44:38Z</time>
      </trkpt>
      <trkpt lat="25.680811" lon="-100.257272">
        <ele>480.449</ele>
        <time>2020-02-03T16:44:39Z</time>
      </trkpt>
      <trkpt lat="25.68081" lon="-100.257205">
        <ele>477.44</ele>
        <time>2020-02-03T16:44:41Z</time>
      </trkpt>
      <trkpt lat="25.680817" lon="-100.257141">
        <ele>476.112</ele>
        <time>2020-02-03T16:44:43Z</time>
      </trkpt>
      <trkpt lat="25.680818" lon="-100.257109">
        <ele>475.819</ele>
        <time>2020-02-03T16:44:44Z</time>
      </trkpt>
      <trkpt lat="25.68082" lon="-100.257077">
        <ele>475.571</ele>
        <time>2020-02-03T16:44:45Z</time>
      </trkpt>
      <trkpt lat="25.680822" lon="-100.257046">
        <ele>475.028</ele>
        <time>2020-02-03T16:44:46Z</time>
      </trkpt>
      <trkpt lat="25.680821" lon="-100.257014">
        <ele>475.047</ele>
        <time>2020-02-03T16:44:47Z</time>
      </trkpt>
      <trkpt lat="25.680807" lon="-100.256946">
        <ele>476.731</ele>
        <time>2020-02-03T16:44:49Z</time>
      </trkpt>
      <trkpt lat="25.680802" lon="-100.25687">
        <ele>479.168</ele>
        <time>2020-02-03T16:44:51Z</time>
      </trkpt>
      <trkpt lat="25.680805" lon="-100.256798">
        <ele>479.964</ele>
        <time>2020-02-03T16:44:53Z</time>
      </trkpt>
      <trkpt lat="25.680809" lon="-100.256766">
        <ele>479.856</ele>
        <time>2020-02-03T16:44:54Z</time>
      </trkpt>
      <trkpt lat="25.680814" lon="-100.256736">
        <ele>480.188</ele>
        <time>2020-02-03T16:44:55Z</time>
      </trkpt>
      <trkpt lat="25.68082" lon="-100.256706">
        <ele>479.921</ele>
        <time>2020-02-03T16:44:56Z</time>
      </trkpt>
      <trkpt lat="25.680827" lon="-100.256677">
        <ele>479.674</ele>
        <time>2020-02-03T16:44:57Z</time>
      </trkpt>
      <trkpt lat="25.680833" lon="-100.256648">
        <ele>479.511</ele>
        <time>2020-02-03T16:44:58Z</time>
      </trkpt>
      <trkpt lat="25.680838" lon="-100.256619">
        <ele>481.631</ele>
        <time>2020-02-03T16:44:59Z</time>
      </trkpt>
      <trkpt lat="25.680842" lon="-100.25656">
        <ele>481.689</ele>
        <time>2020-02-03T16:45:01Z</time>
      </trkpt>
      <trkpt lat="25.680845" lon="-100.25653">
        <ele>482.338</ele>
        <time>2020-02-03T16:45:02Z</time>
      </trkpt>
      <trkpt lat="25.680837" lon="-100.256454">
        <ele>483.129</ele>
        <time>2020-02-03T16:45:05Z</time>
      </trkpt>
      <trkpt lat="25.680837" lon="-100.256386">
        <ele>482.861</ele>
        <time>2020-02-03T16:45:08Z</time>
      </trkpt>
      <trkpt lat="25.680838" lon="-100.256359">
        <ele>483.368</ele>
        <time>2020-02-03T16:45:09Z</time>
      </trkpt>
      <trkpt lat="25.68084" lon="-100.256332">
        <ele>483.361</ele>
        <time>2020-02-03T16:45:10Z</time>
      </trkpt>
      <trkpt lat="25.680841" lon="-100.256304">
        <ele>483.151</ele>
        <time>2020-02-03T16:45:11Z</time>
      </trkpt>
      <trkpt lat="25.680843" lon="-100.256277">
        <ele>483.236</ele>
        <time>2020-02-03T16:45:12Z</time>
      </trkpt>
      <trkpt lat="25.680848" lon="-100.256227">
        <ele>482.868</ele>
        <time>2020-02-03T16:45:14Z</time>
      </trkpt>
      <trkpt lat="25.680846" lon="-100.256159">
        <ele>481.227</ele>
        <time>2020-02-03T16:45:16Z</time>
      </trkpt>
      <trkpt lat="25.680846" lon="-100.256124">
        <ele>481.427</ele>
        <time>2020-02-03T16:45:17Z</time>
      </trkpt>
      <trkpt lat="25.680845" lon="-100.256089">
        <ele>482.863</ele>
        <time>2020-02-03T16:45:18Z</time>
      </trkpt>
      <trkpt lat="25.680842" lon="-100.256055">
        <ele>482.01</ele>
        <time>2020-02-03T16:45:19Z</time>
      </trkpt>
      <trkpt lat="25.680839" lon="-100.256022">
        <ele>479.313</ele>
        <time>2020-02-03T16:45:20Z</time>
      </trkpt>
      <trkpt lat="25.680838" lon="-100.255991">
        <ele>481.405</ele>
        <time>2020-02-03T16:45:21Z</time>
      </trkpt>
      <trkpt lat="25.680838" lon="-100.255963">
        <ele>481.904</ele>
        <time>2020-02-03T16:45:22Z</time>
      </trkpt>
      <trkpt lat="25.680845" lon="-100.255905">
        <ele>481.629</ele>
        <time>2020-02-03T16:45:24Z</time>
      </trkpt>
      <trkpt lat="25.680858" lon="-100.255849">
        <ele>481.154</ele>
        <time>2020-02-03T16:45:26Z</time>
      </trkpt>
      <trkpt lat="25.680858" lon="-100.255786">
        <ele>480.33</ele>
        <time>2020-02-03T16:45:28Z</time>
      </trkpt>
      <trkpt lat="25.680852" lon="-100.255718">
        <ele>479.937</ele>
        <time>2020-02-03T16:45:30Z</time>
      </trkpt>
      <trkpt lat="25.680853" lon="-100.25565">
        <ele>479.453</ele>
        <time>2020-02-03T16:45:32Z</time>
      </trkpt>
      <trkpt lat="25.680854" lon="-100.255615">
        <ele>478.941</ele>
        <time>2020-02-03T16:45:33Z</time>
      </trkpt>
      <trkpt lat="25.680853" lon="-100.255578">
        <ele>478.665</ele>
        <time>2020-02-03T16:45:34Z</time>
      </trkpt>
      <trkpt lat="25.680853" lon="-100.255541">
        <ele>478.637</ele>
        <time>2020-02-03T16:45:35Z</time>
      </trkpt>
      <trkpt lat="25.680851" lon="-100.255504">
        <ele>478.661</ele>
        <time>2020-02-03T16:45:36Z</time>
      </trkpt>
      <trkpt lat="25.680849" lon="-100.255469">
        <ele>478.743</ele>
        <time>2020-02-03T16:45:37Z</time>
      </trkpt>
      <trkpt lat="25.680848" lon="-100.255435">
        <ele>478.777</ele>
        <time>2020-02-03T16:45:38Z</time>
      </trkpt>
      <trkpt lat="25.680846" lon="-100.255402">
        <ele>478.857</ele>
        <time>2020-02-03T16:45:39Z</time>
      </trkpt>
      <trkpt lat="25.680845" lon="-100.255366">
        <ele>479.232</ele>
        <time>2020-02-03T16:45:40Z</time>
      </trkpt>
      <trkpt lat="25.680851" lon="-100.255298">
        <ele>479.205</ele>
        <time>2020-02-03T16:45:42Z</time>
      </trkpt>
      <trkpt lat="25.680865" lon="-100.255248">
        <ele>479.592</ele>
        <time>2020-02-03T16:45:44Z</time>
      </trkpt>
      <trkpt lat="25.680869" lon="-100.255194">
        <ele>479.241</ele>
        <time>2020-02-03T16:45:46Z</time>
      </trkpt>
      <trkpt lat="25.680859" lon="-100.255131">
        <ele>478.119</ele>
        <time>2020-02-03T16:45:48Z</time>
      </trkpt>
      <trkpt lat="25.680856" lon="-100.255099">
        <ele>478.52</ele>
        <time>2020-02-03T16:45:49Z</time>
      </trkpt>
      <trkpt lat="25.680854" lon="-100.255069">
        <ele>478.016</ele>
        <time>2020-02-03T16:45:50Z</time>
      </trkpt>
      <trkpt lat="25.680854" lon="-100.255039">
        <ele>476.508</ele>
        <time>2020-02-03T16:45:51Z</time>
      </trkpt>
      <trkpt lat="25.680856" lon="-100.25501">
        <ele>477.021</ele>
        <time>2020-02-03T16:45:52Z</time>
      </trkpt>
      <trkpt lat="25.680858" lon="-100.254983">
        <ele>479.35</ele>
        <time>2020-02-03T16:45:53Z</time>
      </trkpt>
      <trkpt lat="25.680858" lon="-100.254955">
        <ele>478.111</ele>
        <time>2020-02-03T16:45:54Z</time>
      </trkpt>
      <trkpt lat="25.680855" lon="-100.254926">
        <ele>477.427</ele>
        <time>2020-02-03T16:45:55Z</time>
      </trkpt>
      <trkpt lat="25.680853" lon="-100.254897">
        <ele>476.7</ele>
        <time>2020-02-03T16:45:56Z</time>
      </trkpt>
      <trkpt lat="25.680853" lon="-100.254869">
        <ele>476.598</ele>
        <time>2020-02-03T16:45:57Z</time>
      </trkpt>
      <trkpt lat="25.680853" lon="-100.25484">
        <ele>476.931</ele>
        <time>2020-02-03T16:45:58Z</time>
      </trkpt>
      <trkpt lat="25.680853" lon="-100.254812">
        <ele>477.314</ele>
        <time>2020-02-03T16:45:59Z</time>
      </trkpt>
      <trkpt lat="25.680854" lon="-100.254783">
        <ele>476.327</ele>
        <time>2020-02-03T16:46:00Z</time>
      </trkpt>
      <trkpt lat="25.680853" lon="-100.254753">
        <ele>476.26</ele>
        <time>2020-02-03T16:46:01Z</time>
      </trkpt>
      <trkpt lat="25.680853" lon="-100.254724">
        <ele>476.271</ele>
        <time>2020-02-03T16:46:02Z</time>
      </trkpt>
      <trkpt lat="25.680852" lon="-100.254695">
        <ele>477.035</ele>
        <time>2020-02-03T16:46:03Z</time>
      </trkpt>
      <trkpt lat="25.680853" lon="-100.254666">
        <ele>477.475</ele>
        <time>2020-02-03T16:46:04Z</time>
      </trkpt>
      <trkpt lat="25.680865" lon="-100.25461">
        <ele>478.321</ele>
        <time>2020-02-03T16:46:06Z</time>
      </trkpt>
      <trkpt lat="25.680873" lon="-100.254581">
        <ele>477.845</ele>
        <time>2020-02-03T16:46:07Z</time>
      </trkpt>
      <trkpt lat="25.680881" lon="-100.254524">
        <ele>478.137</ele>
        <time>2020-02-03T16:46:09Z</time>
      </trkpt>
      <trkpt lat="25.680878" lon="-100.254466">
        <ele>478.668</ele>
        <time>2020-02-03T16:46:11Z</time>
      </trkpt>
      <trkpt lat="25.680874" lon="-100.254437">
        <ele>478.003</ele>
        <time>2020-02-03T16:46:12Z</time>
      </trkpt>
      <trkpt lat="25.680877" lon="-100.254379">
        <ele>477.501</ele>
        <time>2020-02-03T16:46:14Z</time>
      </trkpt>
      <trkpt lat="25.680875" lon="-100.254309">
        <ele>477.084</ele>
        <time>2020-02-03T16:46:17Z</time>
      </trkpt>
      <trkpt lat="25.680876" lon="-100.254282">
        <ele>476.863</ele>
        <time>2020-02-03T16:46:18Z</time>
      </trkpt>
      <trkpt lat="25.680877" lon="-100.254254">
        <ele>475.174</ele>
        <time>2020-02-03T16:46:19Z</time>
      </trkpt>
      <trkpt lat="25.68088" lon="-100.254227">
        <ele>475.423</ele>
        <time>2020-02-03T16:46:20Z</time>
      </trkpt>
      <trkpt lat="25.680881" lon="-100.2542">
        <ele>474.427</ele>
        <time>2020-02-03T16:46:21Z</time>
      </trkpt>
      <trkpt lat="25.680881" lon="-100.254173">
        <ele>474.607</ele>
        <time>2020-02-03T16:46:22Z</time>
      </trkpt>
      <trkpt lat="25.68088" lon="-100.254144">
        <ele>474.737</ele>
        <time>2020-02-03T16:46:23Z</time>
      </trkpt>
      <trkpt lat="25.680878" lon="-100.254115">
        <ele>474.375</ele>
        <time>2020-02-03T16:46:24Z</time>
      </trkpt>
      <trkpt lat="25.680875" lon="-100.254086">
        <ele>475.526</ele>
        <time>2020-02-03T16:46:25Z</time>
      </trkpt>
      <trkpt lat="25.680874" lon="-100.254054">
        <ele>475.374</ele>
        <time>2020-02-03T16:46:26Z</time>
      </trkpt>
      <trkpt lat="25.680874" lon="-100.254022">
        <ele>475.566</ele>
        <time>2020-02-03T16:46:27Z</time>
      </trkpt>
      <trkpt lat="25.680877" lon="-100.253992">
        <ele>476.056</ele>
        <time>2020-02-03T16:46:28Z</time>
      </trkpt>
      <trkpt lat="25.680879" lon="-100.253963">
        <ele>476.4</ele>
        <time>2020-02-03T16:46:29Z</time>
      </trkpt>
      <trkpt lat="25.680877" lon="-100.253904">
        <ele>475.887</ele>
        <time>2020-02-03T16:46:31Z</time>
      </trkpt>
      <trkpt lat="25.680878" lon="-100.253877">
        <ele>474.963</ele>
        <time>2020-02-03T16:46:32Z</time>
      </trkpt>
      <trkpt lat="25.680881" lon="-100.253847">
        <ele>476.182</ele>
        <time>2020-02-03T16:46:33Z</time>
      </trkpt>
      <trkpt lat="25.680885" lon="-100.253788">
        <ele>475.1</ele>
        <time>2020-02-03T16:46:35Z</time>
      </trkpt>
      <trkpt lat="25.680888" lon="-100.253759">
        <ele>475.559</ele>
        <time>2020-02-03T16:46:36Z</time>
      </trkpt>
      <trkpt lat="25.680892" lon="-100.253729">
        <ele>475.629</ele>
        <time>2020-02-03T16:46:37Z</time>
      </trkpt>
      <trkpt lat="25.68091" lon="-100.253675">
        <ele>477.825</ele>
        <time>2020-02-03T16:46:39Z</time>
      </trkpt>
      <trkpt lat="25.680919" lon="-100.253647">
        <ele>479.236</ele>
        <time>2020-02-03T16:46:40Z</time>
      </trkpt>
      <trkpt lat="25.680924" lon="-100.253593">
        <ele>480.969</ele>
        <time>2020-02-03T16:46:42Z</time>
      </trkpt>
      <trkpt lat="25.68092" lon="-100.253508">
        <ele>481.924</ele>
        <time>2020-02-03T16:46:45Z</time>
      </trkpt>
      <trkpt lat="25.68092" lon="-100.25348">
        <ele>481.275</ele>
        <time>2020-02-03T16:46:46Z</time>
      </trkpt>
      <trkpt lat="25.680919" lon="-100.253451">
        <ele>480.926</ele>
        <time>2020-02-03T16:46:47Z</time>
      </trkpt>
      <trkpt lat="25.680917" lon="-100.25342">
        <ele>481.572</ele>
        <time>2020-02-03T16:46:48Z</time>
      </trkpt>
      <trkpt lat="25.680917" lon="-100.25339">
        <ele>481.997</ele>
        <time>2020-02-03T16:46:49Z</time>
      </trkpt>
      <trkpt lat="25.680917" lon="-100.25336">
        <ele>481.455</ele>
        <time>2020-02-03T16:46:50Z</time>
      </trkpt>
      <trkpt lat="25.680915" lon="-100.253328">
        <ele>476.426</ele>
        <time>2020-02-03T16:46:51Z</time>
      </trkpt>
      <trkpt lat="25.680913" lon="-100.253296">
        <ele>475.782</ele>
        <time>2020-02-03T16:46:52Z</time>
      </trkpt>
      <trkpt lat="25.680911" lon="-100.253264">
        <ele>473.955</ele>
        <time>2020-02-03T16:46:53Z</time>
      </trkpt>
      <trkpt lat="25.68091" lon="-100.253236">
        <ele>473.916</ele>
        <time>2020-02-03T16:46:54Z</time>
      </trkpt>
      <trkpt lat="25.680917" lon="-100.253174">
        <ele>475.029</ele>
        <time>2020-02-03T16:46:56Z</time>
      </trkpt>
      <trkpt lat="25.68093" lon="-100.253117">
        <ele>475.926</ele>
        <time>2020-02-03T16:46:58Z</time>
      </trkpt>
      <trkpt lat="25.680923" lon="-100.253035">
        <ele>478.611</ele>
        <time>2020-02-03T16:47:01Z</time>
      </trkpt>
      <trkpt lat="25.680922" lon="-100.253007">
        <ele>478.092</ele>
        <time>2020-02-03T16:47:02Z</time>
      </trkpt>
      <trkpt lat="25.680927" lon="-100.252949">
        <ele>477.574</ele>
        <time>2020-02-03T16:47:04Z</time>
      </trkpt>
      <trkpt lat="25.680928" lon="-100.252919">
        <ele>477.342</ele>
        <time>2020-02-03T16:47:05Z</time>
      </trkpt>
      <trkpt lat="25.680927" lon="-100.252886">
        <ele>477.083</ele>
        <time>2020-02-03T16:47:07Z</time>
      </trkpt>
      <trkpt lat="25.68094" lon="-100.252829">
        <ele>477.585</ele>
        <time>2020-02-03T16:47:14Z</time>
      </trkpt>
      <trkpt lat="25.680943" lon="-100.252774">
        <ele>478.909</ele>
        <time>2020-02-03T16:47:20Z</time>
      </trkpt>
      <trkpt lat="25.680945" lon="-100.252748">
        <ele>479.313</ele>
        <time>2020-02-03T16:47:22Z</time>
      </trkpt>
      <trkpt lat="25.680945" lon="-100.252713">
        <ele>480.485</ele>
        <time>2020-02-03T16:47:27Z</time>
      </trkpt>
      <trkpt lat="25.68098" lon="-100.252672">
        <ele>481.019</ele>
        <time>2020-02-03T16:47:34Z</time>
      </trkpt>
      <trkpt lat="25.680996" lon="-100.252652">
        <ele>481.62</ele>
        <time>2020-02-03T16:47:43Z</time>
      </trkpt>
      <trkpt lat="25.680996" lon="-100.252652">
        <ele>480.081</ele>
        <time>2020-02-03T16:47:58Z</time>
      </trkpt>
      <trkpt lat="25.680996" lon="-100.252652">
        <ele>480.084</ele>
        <time>2020-02-03T16:48:52Z</time>
      </trkpt>
      <trkpt lat="25.68097" lon="-100.25271">
        <ele>480.341</ele>
        <time>2020-02-03T16:48:53Z</time>
      </trkpt>
      <trkpt lat="25.680954" lon="-100.252652">
        <ele>480.233</ele>
        <time>2020-02-03T16:49:02Z</time>
      </trkpt>
      <trkpt lat="25.680952" lon="-100.252595">
        <ele>481.083</ele>
        <time>2020-02-03T16:49:08Z</time>
      </trkpt>
      <trkpt lat="25.680946" lon="-100.252542">
        <ele>481.371</ele>
        <time>2020-02-03T16:49:12Z</time>
      </trkpt>
      <trkpt lat="25.680945" lon="-100.252484">
        <ele>483.172</ele>
        <time>2020-02-03T16:49:14Z</time>
      </trkpt>
      <trkpt lat="25.680946" lon="-100.252438">
        <ele>483.148</ele>
        <time>2020-02-03T16:49:15Z</time>
      </trkpt>
      <trkpt lat="25.680954" lon="-100.252367">
        <ele>482.405</ele>
        <time>2020-02-03T16:49:17Z</time>
      </trkpt>
      <trkpt lat="25.680956" lon="-100.252333">
        <ele>481.385</ele>
        <time>2020-02-03T16:49:18Z</time>
      </trkpt>
      <trkpt lat="25.680956" lon="-100.252301">
        <ele>481.149</ele>
        <time>2020-02-03T16:49:19Z</time>
      </trkpt>
      <trkpt lat="25.680955" lon="-100.252273">
        <ele>480.321</ele>
        <time>2020-02-03T16:49:20Z</time>
      </trkpt>
      <trkpt lat="25.680954" lon="-100.252245">
        <ele>480.435</ele>
        <time>2020-02-03T16:49:21Z</time>
      </trkpt>
      <trkpt lat="25.680952" lon="-100.252215">
        <ele>482.424</ele>
        <time>2020-02-03T16:49:22Z</time>
      </trkpt>
      <trkpt lat="25.68095" lon="-100.252182">
        <ele>482.78</ele>
        <time>2020-02-03T16:49:23Z</time>
      </trkpt>
      <trkpt lat="25.68095" lon="-100.25215">
        <ele>482.981</ele>
        <time>2020-02-03T16:49:24Z</time>
      </trkpt>
      <trkpt lat="25.680951" lon="-100.252114">
        <ele>483.678</ele>
        <time>2020-02-03T16:49:25Z</time>
      </trkpt>
      <trkpt lat="25.680951" lon="-100.252078">
        <ele>483.928</ele>
        <time>2020-02-03T16:49:26Z</time>
      </trkpt>
      <trkpt lat="25.680951" lon="-100.252041">
        <ele>484.352</ele>
        <time>2020-02-03T16:49:27Z</time>
      </trkpt>
      <trkpt lat="25.680952" lon="-100.252006">
        <ele>484.618</ele>
        <time>2020-02-03T16:49:28Z</time>
      </trkpt>
      <trkpt lat="25.680954" lon="-100.251974">
        <ele>484.411</ele>
        <time>2020-02-03T16:49:29Z</time>
      </trkpt>
      <trkpt lat="25.680956" lon="-100.251943">
        <ele>485.093</ele>
        <time>2020-02-03T16:49:30Z</time>
      </trkpt>
      <trkpt lat="25.680967" lon="-100.251883">
        <ele>485.718</ele>
        <time>2020-02-03T16:49:32Z</time>
      </trkpt>
      <trkpt lat="25.680958" lon="-100.251826">
        <ele>485.954</ele>
        <time>2020-02-03T16:49:34Z</time>
      </trkpt>
      <trkpt lat="25.680953" lon="-100.251798">
        <ele>486.712</ele>
        <time>2020-02-03T16:49:35Z</time>
      </trkpt>
      <trkpt lat="25.680948" lon="-100.251712">
        <ele>483.691</ele>
        <time>2020-02-03T16:49:38Z</time>
      </trkpt>
      <trkpt lat="25.680944" lon="-100.251652">
        <ele>483.575</ele>
        <time>2020-02-03T16:49:40Z</time>
      </trkpt>
      <trkpt lat="25.680951" lon="-100.251593">
        <ele>483.156</ele>
        <time>2020-02-03T16:49:42Z</time>
      </trkpt>
      <trkpt lat="25.680963" lon="-100.251533">
        <ele>482.561</ele>
        <time>2020-02-03T16:49:44Z</time>
      </trkpt>
      <trkpt lat="25.680963" lon="-100.251472">
        <ele>481.603</ele>
        <time>2020-02-03T16:49:46Z</time>
      </trkpt>
      <trkpt lat="25.680973" lon="-100.251406">
        <ele>480.616</ele>
        <time>2020-02-03T16:49:48Z</time>
      </trkpt>
      <trkpt lat="25.680978" lon="-100.251378">
        <ele>479.733</ele>
        <time>2020-02-03T16:49:49Z</time>
      </trkpt>
      <trkpt lat="25.680979" lon="-100.251314">
        <ele>479.36</ele>
        <time>2020-02-03T16:49:51Z</time>
      </trkpt>
      <trkpt lat="25.680981" lon="-100.251284">
        <ele>479.553</ele>
        <time>2020-02-03T16:49:52Z</time>
      </trkpt>
      <trkpt lat="25.680984" lon="-100.251254">
        <ele>479.632</ele>
        <time>2020-02-03T16:49:53Z</time>
      </trkpt>
      <trkpt lat="25.680987" lon="-100.251223">
        <ele>480.434</ele>
        <time>2020-02-03T16:49:54Z</time>
      </trkpt>
      <trkpt lat="25.680989" lon="-100.251191">
        <ele>478.749</ele>
        <time>2020-02-03T16:49:55Z</time>
      </trkpt>
      <trkpt lat="25.68099" lon="-100.251159">
        <ele>480.577</ele>
        <time>2020-02-03T16:49:56Z</time>
      </trkpt>
      <trkpt lat="25.680992" lon="-100.251126">
        <ele>478.509</ele>
        <time>2020-02-03T16:49:57Z</time>
      </trkpt>
      <trkpt lat="25.680992" lon="-100.251095">
        <ele>478.076</ele>
        <time>2020-02-03T16:49:58Z</time>
      </trkpt>
      <trkpt lat="25.680989" lon="-100.251064">
        <ele>477.426</ele>
        <time>2020-02-03T16:49:59Z</time>
      </trkpt>
      <trkpt lat="25.680985" lon="-100.251032">
        <ele>476.737</ele>
        <time>2020-02-03T16:50:00Z</time>
      </trkpt>
      <trkpt lat="25.680982" lon="-100.250998">
        <ele>476.796</ele>
        <time>2020-02-03T16:50:01Z</time>
      </trkpt>
      <trkpt lat="25.680978" lon="-100.250965">
        <ele>477.102</ele>
        <time>2020-02-03T16:50:02Z</time>
      </trkpt>
      <trkpt lat="25.680974" lon="-100.25091">
        <ele>476.897</ele>
        <time>2020-02-03T16:50:04Z</time>
      </trkpt>
      <trkpt lat="25.680971" lon="-100.250882">
        <ele>478.313</ele>
        <time>2020-02-03T16:50:05Z</time>
      </trkpt>
      <trkpt lat="25.680968" lon="-100.250855">
        <ele>478.369</ele>
        <time>2020-02-03T16:50:06Z</time>
      </trkpt>
      <trkpt lat="25.680963" lon="-100.250827">
        <ele>478.217</ele>
        <time>2020-02-03T16:50:07Z</time>
      </trkpt>
      <trkpt lat="25.680967" lon="-100.25077">
        <ele>477.29</ele>
        <time>2020-02-03T16:50:09Z</time>
      </trkpt>
      <trkpt lat="25.680978" lon="-100.250717">
        <ele>475.864</ele>
        <time>2020-02-03T16:50:11Z</time>
      </trkpt>
      <trkpt lat="25.680982" lon="-100.250662">
        <ele>474.983</ele>
        <time>2020-02-03T16:50:13Z</time>
      </trkpt>
      <trkpt lat="25.680982" lon="-100.250635">
        <ele>473.922</ele>
        <time>2020-02-03T16:50:14Z</time>
      </trkpt>
      <trkpt lat="25.680981" lon="-100.250609">
        <ele>473.615</ele>
        <time>2020-02-03T16:50:15Z</time>
      </trkpt>
      <trkpt lat="25.680982" lon="-100.250581">
        <ele>473.664</ele>
        <time>2020-02-03T16:50:16Z</time>
      </trkpt>
      <trkpt lat="25.680984" lon="-100.250554">
        <ele>472.742</ele>
        <time>2020-02-03T16:50:17Z</time>
      </trkpt>
      <trkpt lat="25.680982" lon="-100.250484">
        <ele>472.499</ele>
        <time>2020-02-03T16:50:20Z</time>
      </trkpt>
      <trkpt lat="25.680982" lon="-100.250458">
        <ele>473.325</ele>
        <time>2020-02-03T16:50:21Z</time>
      </trkpt>
      <trkpt lat="25.680978" lon="-100.250411">
        <ele>474.018</ele>
        <time>2020-02-03T16:50:23Z</time>
      </trkpt>
      <trkpt lat="25.680969" lon="-100.250361">
        <ele>473.472</ele>
        <time>2020-02-03T16:50:25Z</time>
      </trkpt>
      <trkpt lat="25.680965" lon="-100.250336">
        <ele>473.584</ele>
        <time>2020-02-03T16:50:26Z</time>
      </trkpt>
      <trkpt lat="25.680959" lon="-100.250312">
        <ele>472.563</ele>
        <time>2020-02-03T16:50:27Z</time>
      </trkpt>
      <trkpt lat="25.680954" lon="-100.250286">
        <ele>472.546</ele>
        <time>2020-02-03T16:50:28Z</time>
      </trkpt>
      <trkpt lat="25.680953" lon="-100.250236">
        <ele>471.334</ele>
        <time>2020-02-03T16:50:30Z</time>
      </trkpt>
      <trkpt lat="25.680953" lon="-100.250209">
        <ele>471.211</ele>
        <time>2020-02-03T16:50:31Z</time>
      </trkpt>
      <trkpt lat="25.680962" lon="-100.250131">
        <ele>472.682</ele>
        <time>2020-02-03T16:50:34Z</time>
      </trkpt>
      <trkpt lat="25.680963" lon="-100.250106">
        <ele>473.117</ele>
        <time>2020-02-03T16:50:35Z</time>
      </trkpt>
      <trkpt lat="25.680959" lon="-100.250054">
        <ele>474.027</ele>
        <time>2020-02-03T16:50:37Z</time>
      </trkpt>
      <trkpt lat="25.680956" lon="-100.250027">
        <ele>473.79</ele>
        <time>2020-02-03T16:50:38Z</time>
      </trkpt>
      <trkpt lat="25.680952" lon="-100.249971">
        <ele>472.788</ele>
        <time>2020-02-03T16:50:40Z</time>
      </trkpt>
      <trkpt lat="25.680954" lon="-100.249915">
        <ele>472.355</ele>
        <time>2020-02-03T16:50:42Z</time>
      </trkpt>
      <trkpt lat="25.680954" lon="-100.249888">
        <ele>470.812</ele>
        <time>2020-02-03T16:50:43Z</time>
      </trkpt>
      <trkpt lat="25.680954" lon="-100.24986">
        <ele>470.599</ele>
        <time>2020-02-03T16:50:44Z</time>
      </trkpt>
      <trkpt lat="25.680952" lon="-100.249831">
        <ele>469.684</ele>
        <time>2020-02-03T16:50:45Z</time>
      </trkpt>
      <trkpt lat="25.680951" lon="-100.249801">
        <ele>470.509</ele>
        <time>2020-02-03T16:50:46Z</time>
      </trkpt>
      <trkpt lat="25.68095" lon="-100.249771">
        <ele>469.812</ele>
        <time>2020-02-03T16:50:47Z</time>
      </trkpt>
      <trkpt lat="25.68094" lon="-100.249713">
        <ele>469.296</ele>
        <time>2020-02-03T16:50:49Z</time>
      </trkpt>
      <trkpt lat="25.680945" lon="-100.249653">
        <ele>469.582</ele>
        <time>2020-02-03T16:50:51Z</time>
      </trkpt>
      <trkpt lat="25.680956" lon="-100.2496">
        <ele>470.57</ele>
        <time>2020-02-03T16:50:53Z</time>
      </trkpt>
      <trkpt lat="25.68096" lon="-100.249573">
        <ele>470.658</ele>
        <time>2020-02-03T16:50:54Z</time>
      </trkpt>
      <trkpt lat="25.680964" lon="-100.249544">
        <ele>470.671</ele>
        <time>2020-02-03T16:50:55Z</time>
      </trkpt>
      <trkpt lat="25.680976" lon="-100.249489">
        <ele>470.261</ele>
        <time>2020-02-03T16:50:57Z</time>
      </trkpt>
      <trkpt lat="25.680975" lon="-100.249435">
        <ele>470.249</ele>
        <time>2020-02-03T16:50:59Z</time>
      </trkpt>
      <trkpt lat="25.680972" lon="-100.249407">
        <ele>470.597</ele>
        <time>2020-02-03T16:51:00Z</time>
      </trkpt>
      <trkpt lat="25.680974" lon="-100.249347">
        <ele>470.407</ele>
        <time>2020-02-03T16:51:02Z</time>
      </trkpt>
      <trkpt lat="25.680976" lon="-100.249316">
        <ele>471.405</ele>
        <time>2020-02-03T16:51:03Z</time>
      </trkpt>
      <trkpt lat="25.680977" lon="-100.249284">
        <ele>470.164</ele>
        <time>2020-02-03T16:51:04Z</time>
      </trkpt>
      <trkpt lat="25.680977" lon="-100.249252">
        <ele>469.028</ele>
        <time>2020-02-03T16:51:05Z</time>
      </trkpt>
      <trkpt lat="25.680975" lon="-100.249222">
        <ele>468.707</ele>
        <time>2020-02-03T16:51:06Z</time>
      </trkpt>
      <trkpt lat="25.680973" lon="-100.249193">
        <ele>468.898</ele>
        <time>2020-02-03T16:51:07Z</time>
      </trkpt>
      <trkpt lat="25.68097" lon="-100.249161">
        <ele>469.058</ele>
        <time>2020-02-03T16:51:08Z</time>
      </trkpt>
      <trkpt lat="25.680966" lon="-100.24913">
        <ele>468.568</ele>
        <time>2020-02-03T16:51:09Z</time>
      </trkpt>
      <trkpt lat="25.68096" lon="-100.249098">
        <ele>468.658</ele>
        <time>2020-02-03T16:51:10Z</time>
      </trkpt>
      <trkpt lat="25.680954" lon="-100.249073">
        <ele>468.282</ele>
        <time>2020-02-03T16:51:11Z</time>
      </trkpt>
      <trkpt lat="25.680955" lon="-100.248997">
        <ele>465.628</ele>
        <time>2020-02-03T16:51:14Z</time>
      </trkpt>
      <trkpt lat="25.680956" lon="-100.248967">
        <ele>465.72</ele>
        <time>2020-02-03T16:51:15Z</time>
      </trkpt>
      <trkpt lat="25.680956" lon="-100.248939">
        <ele>467.573</ele>
        <time>2020-02-03T16:51:16Z</time>
      </trkpt>
      <trkpt lat="25.680956" lon="-100.248911">
        <ele>466.828</ele>
        <time>2020-02-03T16:51:17Z</time>
      </trkpt>
      <trkpt lat="25.680954" lon="-100.248884">
        <ele>467.585</ele>
        <time>2020-02-03T16:51:18Z</time>
      </trkpt>
      <trkpt lat="25.680952" lon="-100.248856">
        <ele>468.189</ele>
        <time>2020-02-03T16:51:19Z</time>
      </trkpt>
      <trkpt lat="25.680949" lon="-100.248827">
        <ele>468.198</ele>
        <time>2020-02-03T16:51:20Z</time>
      </trkpt>
      <trkpt lat="25.680951" lon="-100.248768">
        <ele>468.122</ele>
        <time>2020-02-03T16:51:22Z</time>
      </trkpt>
      <trkpt lat="25.680954" lon="-100.248737">
        <ele>468.768</ele>
        <time>2020-02-03T16:51:23Z</time>
      </trkpt>
      <trkpt lat="25.680955" lon="-100.248706">
        <ele>470.409</ele>
        <time>2020-02-03T16:51:24Z</time>
      </trkpt>
      <trkpt lat="25.680949" lon="-100.248643">
        <ele>471.082</ele>
        <time>2020-02-03T16:51:26Z</time>
      </trkpt>
      <trkpt lat="25.680936" lon="-100.248582">
        <ele>470.804</ele>
        <time>2020-02-03T16:51:28Z</time>
      </trkpt>
      <trkpt lat="25.680931" lon="-100.248528">
        <ele>469.797</ele>
        <time>2020-02-03T16:51:30Z</time>
      </trkpt>
      <trkpt lat="25.680929" lon="-100.248472">
        <ele>469.218</ele>
        <time>2020-02-03T16:51:32Z</time>
      </trkpt>
      <trkpt lat="25.680911" lon="-100.248416">
        <ele>469.151</ele>
        <time>2020-02-03T16:51:34Z</time>
      </trkpt>
      <trkpt lat="25.680902" lon="-100.248388">
        <ele>471.773</ele>
        <time>2020-02-03T16:51:35Z</time>
      </trkpt>
      <trkpt lat="25.680905" lon="-100.248325">
        <ele>471.599</ele>
        <time>2020-02-03T16:51:37Z</time>
      </trkpt>
      <trkpt lat="25.680914" lon="-100.248269">
        <ele>470.357</ele>
        <time>2020-02-03T16:51:39Z</time>
      </trkpt>
      <trkpt lat="25.680866" lon="-100.248226">
        <ele>468.555</ele>
        <time>2020-02-03T16:51:42Z</time>
      </trkpt>
      <trkpt lat="25.680815" lon="-100.248224">
        <ele>468.938</ele>
        <time>2020-02-03T16:51:44Z</time>
      </trkpt>
      <trkpt lat="25.680767" lon="-100.248249">
        <ele>469.444</ele>
        <time>2020-02-03T16:51:46Z</time>
      </trkpt>
      <trkpt lat="25.680721" lon="-100.248277">
        <ele>470.936</ele>
        <time>2020-02-03T16:51:48Z</time>
      </trkpt>
      <trkpt lat="25.680659" lon="-100.24827">
        <ele>470.628</ele>
        <time>2020-02-03T16:51:51Z</time>
      </trkpt>
      <trkpt lat="25.680606" lon="-100.248244">
        <ele>470.653</ele>
        <time>2020-02-03T16:51:53Z</time>
      </trkpt>
      <trkpt lat="25.680579" lon="-100.248232">
        <ele>470.459</ele>
        <time>2020-02-03T16:51:54Z</time>
      </trkpt>
      <trkpt lat="25.680531" lon="-100.248224">
        <ele>469.617</ele>
        <time>2020-02-03T16:51:56Z</time>
      </trkpt>
      <trkpt lat="25.680486" lon="-100.248239">
        <ele>470.396</ele>
        <time>2020-02-03T16:51:58Z</time>
      </trkpt>
      <trkpt lat="25.680459" lon="-100.24825">
        <ele>470.282</ele>
        <time>2020-02-03T16:51:59Z</time>
      </trkpt>
      <trkpt lat="25.680433" lon="-100.248261">
        <ele>470.639</ele>
        <time>2020-02-03T16:52:00Z</time>
      </trkpt>
      <trkpt lat="25.680378" lon="-100.248275">
        <ele>472.73</ele>
        <time>2020-02-03T16:52:02Z</time>
      </trkpt>
      <trkpt lat="25.680351" lon="-100.248281">
        <ele>473.009</ele>
        <time>2020-02-03T16:52:03Z</time>
      </trkpt>
      <trkpt lat="25.680323" lon="-100.248285">
        <ele>473.171</ele>
        <time>2020-02-03T16:52:04Z</time>
      </trkpt>
      <trkpt lat="25.680275" lon="-100.248284">
        <ele>472.921</ele>
        <time>2020-02-03T16:52:06Z</time>
      </trkpt>
      <trkpt lat="25.68022" lon="-100.248261">
        <ele>472.86</ele>
        <time>2020-02-03T16:52:09Z</time>
      </trkpt>
      <trkpt lat="25.680188" lon="-100.248222">
        <ele>473.107</ele>
        <time>2020-02-03T16:52:12Z</time>
      </trkpt>
      <trkpt lat="25.680203" lon="-100.248173">
        <ele>472.902</ele>
        <time>2020-02-03T16:52:16Z</time>
      </trkpt>
      <trkpt lat="25.680209" lon="-100.248145">
        <ele>472.94</ele>
        <time>2020-02-03T16:52:18Z</time>
      </trkpt>
      <trkpt lat="25.68022" lon="-100.248085">
        <ele>473.03</ele>
        <time>2020-02-03T16:52:21Z</time>
      </trkpt>
      <trkpt lat="25.680246" lon="-100.248043">
        <ele>472.473</ele>
        <time>2020-02-03T16:52:23Z</time>
      </trkpt>
      <trkpt lat="25.680282" lon="-100.248005">
        <ele>472.809</ele>
        <time>2020-02-03T16:52:25Z</time>
      </trkpt>
      <trkpt lat="25.680303" lon="-100.247943">
        <ele>471.191</ele>
        <time>2020-02-03T16:52:27Z</time>
      </trkpt>
      <trkpt lat="25.680306" lon="-100.247882">
        <ele>472.244</ele>
        <time>2020-02-03T16:52:29Z</time>
      </trkpt>
      <trkpt lat="25.680308" lon="-100.24785">
        <ele>469.48</ele>
        <time>2020-02-03T16:52:30Z</time>
      </trkpt>
      <trkpt lat="25.680311" lon="-100.24782">
        <ele>469.959</ele>
        <time>2020-02-03T16:52:31Z</time>
      </trkpt>
      <trkpt lat="25.680312" lon="-100.247789">
        <ele>469.881</ele>
        <time>2020-02-03T16:52:32Z</time>
      </trkpt>
      <trkpt lat="25.680313" lon="-100.247757">
        <ele>469.834</ele>
        <time>2020-02-03T16:52:33Z</time>
      </trkpt>
      <trkpt lat="25.680313" lon="-100.247727">
        <ele>469.838</ele>
        <time>2020-02-03T16:52:34Z</time>
      </trkpt>
      <trkpt lat="25.680312" lon="-100.247701">
        <ele>469.382</ele>
        <time>2020-02-03T16:52:35Z</time>
      </trkpt>
      <trkpt lat="25.680311" lon="-100.247672">
        <ele>469.283</ele>
        <time>2020-02-03T16:52:36Z</time>
      </trkpt>
      <trkpt lat="25.680312" lon="-100.24764">
        <ele>470.43</ele>
        <time>2020-02-03T16:52:37Z</time>
      </trkpt>
      <trkpt lat="25.680314" lon="-100.247607">
        <ele>470.602</ele>
        <time>2020-02-03T16:52:38Z</time>
      </trkpt>
      <trkpt lat="25.680316" lon="-100.247576">
        <ele>472.071</ele>
        <time>2020-02-03T16:52:39Z</time>
      </trkpt>
      <trkpt lat="25.68032" lon="-100.247546">
        <ele>472.349</ele>
        <time>2020-02-03T16:52:40Z</time>
      </trkpt>
      <trkpt lat="25.680324" lon="-100.247514">
        <ele>472.387</ele>
        <time>2020-02-03T16:52:41Z</time>
      </trkpt>
      <trkpt lat="25.680328" lon="-100.247484">
        <ele>472.363</ele>
        <time>2020-02-03T16:52:42Z</time>
      </trkpt>
      <trkpt lat="25.680331" lon="-100.247453">
        <ele>473.09</ele>
        <time>2020-02-03T16:52:43Z</time>
      </trkpt>
      <trkpt lat="25.680332" lon="-100.247423">
        <ele>472.674</ele>
        <time>2020-02-03T16:52:44Z</time>
      </trkpt>
      <trkpt lat="25.680335" lon="-100.247393">
        <ele>471.8</ele>
        <time>2020-02-03T16:52:45Z</time>
      </trkpt>
      <trkpt lat="25.680345" lon="-100.247337">
        <ele>471.46</ele>
        <time>2020-02-03T16:52:47Z</time>
      </trkpt>
      <trkpt lat="25.680352" lon="-100.247311">
        <ele>471.95</ele>
        <time>2020-02-03T16:52:48Z</time>
      </trkpt>
      <trkpt lat="25.680356" lon="-100.247285">
        <ele>473.204</ele>
        <time>2020-02-03T16:52:49Z</time>
      </trkpt>
      <trkpt lat="25.680367" lon="-100.247244">
        <ele>472.773</ele>
        <time>2020-02-03T16:52:51Z</time>
      </trkpt>
      <trkpt lat="25.680369" lon="-100.247192">
        <ele>473.253</ele>
        <time>2020-02-03T16:52:53Z</time>
      </trkpt>
      <trkpt lat="25.680371" lon="-100.247166">
        <ele>474.509</ele>
        <time>2020-02-03T16:52:54Z</time>
      </trkpt>
      <trkpt lat="25.680374" lon="-100.247113">
        <ele>474.615</ele>
        <time>2020-02-03T16:52:56Z</time>
      </trkpt>
      <trkpt lat="25.680375" lon="-100.247086">
        <ele>474.926</ele>
        <time>2020-02-03T16:52:57Z</time>
      </trkpt>
      <trkpt lat="25.68037" lon="-100.247032">
        <ele>474.98</ele>
        <time>2020-02-03T16:52:59Z</time>
      </trkpt>
      <trkpt lat="25.680367" lon="-100.247005">
        <ele>475.898</ele>
        <time>2020-02-03T16:53:00Z</time>
      </trkpt>
      <trkpt lat="25.680365" lon="-100.246977">
        <ele>475.586</ele>
        <time>2020-02-03T16:53:01Z</time>
      </trkpt>
      <trkpt lat="25.680366" lon="-100.24695">
        <ele>475.777</ele>
        <time>2020-02-03T16:53:02Z</time>
      </trkpt>
      <trkpt lat="25.680367" lon="-100.246921">
        <ele>474.843</ele>
        <time>2020-02-03T16:53:03Z</time>
      </trkpt>
      <trkpt lat="25.680369" lon="-100.246892">
        <ele>474.926</ele>
        <time>2020-02-03T16:53:04Z</time>
      </trkpt>
      <trkpt lat="25.680371" lon="-100.246863">
        <ele>474.567</ele>
        <time>2020-02-03T16:53:05Z</time>
      </trkpt>
      <trkpt lat="25.680374" lon="-100.246834">
        <ele>473.507</ele>
        <time>2020-02-03T16:53:06Z</time>
      </trkpt>
      <trkpt lat="25.680376" lon="-100.246807">
        <ele>473.267</ele>
        <time>2020-02-03T16:53:07Z</time>
      </trkpt>
      <trkpt lat="25.680377" lon="-100.246781">
        <ele>472.728</ele>
        <time>2020-02-03T16:53:08Z</time>
      </trkpt>
      <trkpt lat="25.680382" lon="-100.246731">
        <ele>472.23</ele>
        <time>2020-02-03T16:53:10Z</time>
      </trkpt>
      <trkpt lat="25.680385" lon="-100.246706">
        <ele>472.134</ele>
        <time>2020-02-03T16:53:11Z</time>
      </trkpt>
      <trkpt lat="25.680387" lon="-100.246678">
        <ele>473.654</ele>
        <time>2020-02-03T16:53:12Z</time>
      </trkpt>
      <trkpt lat="25.680391" lon="-100.24665">
        <ele>474.225</ele>
        <time>2020-02-03T16:53:13Z</time>
      </trkpt>
      <trkpt lat="25.680394" lon="-100.246623">
        <ele>474.478</ele>
        <time>2020-02-03T16:53:14Z</time>
      </trkpt>
      <trkpt lat="25.680397" lon="-100.246597">
        <ele>473.768</ele>
        <time>2020-02-03T16:53:15Z</time>
      </trkpt>
      <trkpt lat="25.680401" lon="-100.246546">
        <ele>473.091</ele>
        <time>2020-02-03T16:53:17Z</time>
      </trkpt>
      <trkpt lat="25.680406" lon="-100.246497">
        <ele>473.318</ele>
        <time>2020-02-03T16:53:19Z</time>
      </trkpt>
      <trkpt lat="25.680405" lon="-100.246447">
        <ele>473.202</ele>
        <time>2020-02-03T16:53:21Z</time>
      </trkpt>
      <trkpt lat="25.680406" lon="-100.246421">
        <ele>472.692</ele>
        <time>2020-02-03T16:53:22Z</time>
      </trkpt>
      <trkpt lat="25.680413" lon="-100.246367">
        <ele>472.942</ele>
        <time>2020-02-03T16:53:24Z</time>
      </trkpt>
      <trkpt lat="25.680416" lon="-100.24634">
        <ele>473.348</ele>
        <time>2020-02-03T16:53:25Z</time>
      </trkpt>
      <trkpt lat="25.680422" lon="-100.246298">
        <ele>473.547</ele>
        <time>2020-02-03T16:53:27Z</time>
      </trkpt>
      <trkpt lat="25.680431" lon="-100.24625">
        <ele>473.587</ele>
        <time>2020-02-03T16:53:29Z</time>
      </trkpt>
      <trkpt lat="25.680434" lon="-100.246174">
        <ele>474.447</ele>
        <time>2020-02-03T16:53:32Z</time>
      </trkpt>
      <trkpt lat="25.680436" lon="-100.246147">
        <ele>474.889</ele>
        <time>2020-02-03T16:53:33Z</time>
      </trkpt>
      <trkpt lat="25.680445" lon="-100.246093">
        <ele>474.987</ele>
        <time>2020-02-03T16:53:35Z</time>
      </trkpt>
      <trkpt lat="25.68045" lon="-100.246067">
        <ele>475.26</ele>
        <time>2020-02-03T16:53:36Z</time>
      </trkpt>
      <trkpt lat="25.680455" lon="-100.246042">
        <ele>476.146</ele>
        <time>2020-02-03T16:53:37Z</time>
      </trkpt>
      <trkpt lat="25.68046" lon="-100.246017">
        <ele>474.639</ele>
        <time>2020-02-03T16:53:38Z</time>
      </trkpt>
      <trkpt lat="25.680464" lon="-100.245992">
        <ele>475.44</ele>
        <time>2020-02-03T16:53:39Z</time>
      </trkpt>
      <trkpt lat="25.680468" lon="-100.245964">
        <ele>475.006</ele>
        <time>2020-02-03T16:53:40Z</time>
      </trkpt>
      <trkpt lat="25.680472" lon="-100.245935">
        <ele>474.044</ele>
        <time>2020-02-03T16:53:41Z</time>
      </trkpt>
      <trkpt lat="25.680475" lon="-100.245907">
        <ele>472.581</ele>
        <time>2020-02-03T16:53:42Z</time>
      </trkpt>
      <trkpt lat="25.680477" lon="-100.245879">
        <ele>472.126</ele>
        <time>2020-02-03T16:53:43Z</time>
      </trkpt>
      <trkpt lat="25.680479" lon="-100.245852">
        <ele>471.972</ele>
        <time>2020-02-03T16:53:44Z</time>
      </trkpt>
      <trkpt lat="25.680482" lon="-100.245824">
        <ele>472.025</ele>
        <time>2020-02-03T16:53:45Z</time>
      </trkpt>
      <trkpt lat="25.680486" lon="-100.245796">
        <ele>472.002</ele>
        <time>2020-02-03T16:53:46Z</time>
      </trkpt>
      <trkpt lat="25.68049" lon="-100.245768">
        <ele>471.71</ele>
        <time>2020-02-03T16:53:47Z</time>
      </trkpt>
      <trkpt lat="25.680494" lon="-100.24574">
        <ele>471.588</ele>
        <time>2020-02-03T16:53:48Z</time>
      </trkpt>
      <trkpt lat="25.680504" lon="-100.245685">
        <ele>471.086</ele>
        <time>2020-02-03T16:53:50Z</time>
      </trkpt>
      <trkpt lat="25.68051" lon="-100.245658">
        <ele>471.052</ele>
        <time>2020-02-03T16:53:51Z</time>
      </trkpt>
      <trkpt lat="25.680515" lon="-100.245631">
        <ele>470.785</ele>
        <time>2020-02-03T16:53:52Z</time>
      </trkpt>
      <trkpt lat="25.680521" lon="-100.245603">
        <ele>471.328</ele>
        <time>2020-02-03T16:53:53Z</time>
      </trkpt>
      <trkpt lat="25.680524" lon="-100.245543">
        <ele>471.604</ele>
        <time>2020-02-03T16:53:55Z</time>
      </trkpt>
      <trkpt lat="25.680528" lon="-100.24548">
        <ele>472.343</ele>
        <time>2020-02-03T16:53:57Z</time>
      </trkpt>
      <trkpt lat="25.680528" lon="-100.245448">
        <ele>470.965</ele>
        <time>2020-02-03T16:53:58Z</time>
      </trkpt>
      <trkpt lat="25.680524" lon="-100.245386">
        <ele>468.994</ele>
        <time>2020-02-03T16:54:00Z</time>
      </trkpt>
      <trkpt lat="25.680515" lon="-100.245305">
        <ele>470.256</ele>
        <time>2020-02-03T16:54:03Z</time>
      </trkpt>
      <trkpt lat="25.680514" lon="-100.245251">
        <ele>470.375</ele>
        <time>2020-02-03T16:54:05Z</time>
      </trkpt>
      <trkpt lat="25.680515" lon="-100.245224">
        <ele>470.457</ele>
        <time>2020-02-03T16:54:06Z</time>
      </trkpt>
      <trkpt lat="25.680518" lon="-100.245197">
        <ele>469.704</ele>
        <time>2020-02-03T16:54:07Z</time>
      </trkpt>
      <trkpt lat="25.680522" lon="-100.245172">
        <ele>469.058</ele>
        <time>2020-02-03T16:54:08Z</time>
      </trkpt>
      <trkpt lat="25.680526" lon="-100.245146">
        <ele>468.4</ele>
        <time>2020-02-03T16:54:09Z</time>
      </trkpt>
      <trkpt lat="25.68053" lon="-100.245121">
        <ele>469.418</ele>
        <time>2020-02-03T16:54:10Z</time>
      </trkpt>
      <trkpt lat="25.680534" lon="-100.245095">
        <ele>468.91</ele>
        <time>2020-02-03T16:54:11Z</time>
      </trkpt>
      <trkpt lat="25.680538" lon="-100.245068">
        <ele>468.984</ele>
        <time>2020-02-03T16:54:12Z</time>
      </trkpt>
      <trkpt lat="25.680542" lon="-100.245042">
        <ele>469.134</ele>
        <time>2020-02-03T16:54:13Z</time>
      </trkpt>
      <trkpt lat="25.680545" lon="-100.245015">
        <ele>468.415</ele>
        <time>2020-02-03T16:54:14Z</time>
      </trkpt>
      <trkpt lat="25.68055" lon="-100.244988">
        <ele>467.753</ele>
        <time>2020-02-03T16:54:15Z</time>
      </trkpt>
      <trkpt lat="25.680554" lon="-100.244961">
        <ele>467.153</ele>
        <time>2020-02-03T16:54:16Z</time>
      </trkpt>
      <trkpt lat="25.68056" lon="-100.244935">
        <ele>467.944</ele>
        <time>2020-02-03T16:54:17Z</time>
      </trkpt>
      <trkpt lat="25.680566" lon="-100.244908">
        <ele>468.032</ele>
        <time>2020-02-03T16:54:18Z</time>
      </trkpt>
      <trkpt lat="25.68057" lon="-100.244879">
        <ele>468.139</ele>
        <time>2020-02-03T16:54:19Z</time>
      </trkpt>
      <trkpt lat="25.680575" lon="-100.244794">
        <ele>468.258</ele>
        <time>2020-02-03T16:54:22Z</time>
      </trkpt>
      <trkpt lat="25.680588" lon="-100.244738">
        <ele>467.611</ele>
        <time>2020-02-03T16:54:24Z</time>
      </trkpt>
      <trkpt lat="25.680607" lon="-100.244687">
        <ele>467.358</ele>
        <time>2020-02-03T16:54:26Z</time>
      </trkpt>
      <trkpt lat="25.680618" lon="-100.244634">
        <ele>468.325</ele>
        <time>2020-02-03T16:54:28Z</time>
      </trkpt>
      <trkpt lat="25.680601" lon="-100.244564">
        <ele>473.191</ele>
        <time>2020-02-03T16:54:31Z</time>
      </trkpt>
      <trkpt lat="25.680601" lon="-100.244513">
        <ele>472.731</ele>
        <time>2020-02-03T16:54:33Z</time>
      </trkpt>
      <trkpt lat="25.680614" lon="-100.244462">
        <ele>473.186</ele>
        <time>2020-02-03T16:54:35Z</time>
      </trkpt>
      <trkpt lat="25.680619" lon="-100.244436">
        <ele>471.713</ele>
        <time>2020-02-03T16:54:36Z</time>
      </trkpt>
      <trkpt lat="25.680623" lon="-100.24441">
        <ele>470.435</ele>
        <time>2020-02-03T16:54:37Z</time>
      </trkpt>
      <trkpt lat="25.680626" lon="-100.244382">
        <ele>471.184</ele>
        <time>2020-02-03T16:54:38Z</time>
      </trkpt>
      <trkpt lat="25.680631" lon="-100.244352">
        <ele>470.909</ele>
        <time>2020-02-03T16:54:39Z</time>
      </trkpt>
      <trkpt lat="25.680637" lon="-100.24432">
        <ele>470.199</ele>
        <time>2020-02-03T16:54:40Z</time>
      </trkpt>
      <trkpt lat="25.680642" lon="-100.244289">
        <ele>469.953</ele>
        <time>2020-02-03T16:54:41Z</time>
      </trkpt>
      <trkpt lat="25.68065" lon="-100.244259">
        <ele>468.993</ele>
        <time>2020-02-03T16:54:42Z</time>
      </trkpt>
      <trkpt lat="25.680657" lon="-100.24423">
        <ele>468.604</ele>
        <time>2020-02-03T16:54:43Z</time>
      </trkpt>
      <trkpt lat="25.680682" lon="-100.244171">
        <ele>467.908</ele>
        <time>2020-02-03T16:54:45Z</time>
      </trkpt>
      <trkpt lat="25.680709" lon="-100.244096">
        <ele>467.318</ele>
        <time>2020-02-03T16:54:48Z</time>
      </trkpt>
      <trkpt lat="25.680719" lon="-100.244039">
        <ele>468.1</ele>
        <time>2020-02-03T16:54:50Z</time>
      </trkpt>
      <trkpt lat="25.680722" lon="-100.24401">
        <ele>468.028</ele>
        <time>2020-02-03T16:54:51Z</time>
      </trkpt>
      <trkpt lat="25.680725" lon="-100.243982">
        <ele>468.934</ele>
        <time>2020-02-03T16:54:52Z</time>
      </trkpt>
      <trkpt lat="25.680719" lon="-100.243926">
        <ele>467.809</ele>
        <time>2020-02-03T16:54:54Z</time>
      </trkpt>
      <trkpt lat="25.680717" lon="-100.2439">
        <ele>468.267</ele>
        <time>2020-02-03T16:54:55Z</time>
      </trkpt>
      <trkpt lat="25.68073" lon="-100.243865">
        <ele>469.355</ele>
        <time>2020-02-03T16:55:01Z</time>
      </trkpt>
      <trkpt lat="25.680687" lon="-100.243738">
        <ele>468.658</ele>
        <time>2020-02-03T16:56:36Z</time>
      </trkpt>
      <trkpt lat="25.680675" lon="-100.243708">
        <ele>468.646</ele>
        <time>2020-02-03T16:56:38Z</time>
      </trkpt>
      <trkpt lat="25.68067" lon="-100.243632">
        <ele>469.444</ele>
        <time>2020-02-03T16:56:41Z</time>
      </trkpt>
      <trkpt lat="25.680676" lon="-100.24354">
        <ele>469.759</ele>
        <time>2020-02-03T16:56:44Z</time>
      </trkpt>
      <trkpt lat="25.680685" lon="-100.243477">
        <ele>470.043</ele>
        <time>2020-02-03T16:56:46Z</time>
      </trkpt>
      <trkpt lat="25.680687" lon="-100.243404">
        <ele>470.409</ele>
        <time>2020-02-03T16:56:48Z</time>
      </trkpt>
      <trkpt lat="25.680687" lon="-100.243374">
        <ele>471.118</ele>
        <time>2020-02-03T16:56:49Z</time>
      </trkpt>
      <trkpt lat="25.680687" lon="-100.243344">
        <ele>471.531</ele>
        <time>2020-02-03T16:56:50Z</time>
      </trkpt>
      <trkpt lat="25.680695" lon="-100.243241">
        <ele>471.418</ele>
        <time>2020-02-03T16:56:53Z</time>
      </trkpt>
      <trkpt lat="25.680699" lon="-100.243173">
        <ele>472.596</ele>
        <time>2020-02-03T16:56:55Z</time>
      </trkpt>
      <trkpt lat="25.680701" lon="-100.243142">
        <ele>473.209</ele>
        <time>2020-02-03T16:56:56Z</time>
      </trkpt>
      <trkpt lat="25.680704" lon="-100.243115">
        <ele>473.137</ele>
        <time>2020-02-03T16:56:57Z</time>
      </trkpt>
      <trkpt lat="25.680706" lon="-100.24309">
        <ele>473.598</ele>
        <time>2020-02-03T16:56:58Z</time>
      </trkpt>
      <trkpt lat="25.6807" lon="-100.243033">
        <ele>473.375</ele>
        <time>2020-02-03T16:57:00Z</time>
      </trkpt>
      <trkpt lat="25.680696" lon="-100.243001">
        <ele>473.329</ele>
        <time>2020-02-03T16:57:01Z</time>
      </trkpt>
      <trkpt lat="25.680693" lon="-100.242969">
        <ele>473.237</ele>
        <time>2020-02-03T16:57:02Z</time>
      </trkpt>
      <trkpt lat="25.680686" lon="-100.242848">
        <ele>472.892</ele>
        <time>2020-02-03T16:57:06Z</time>
      </trkpt>
      <trkpt lat="25.680685" lon="-100.242816">
        <ele>472.64</ele>
        <time>2020-02-03T16:57:07Z</time>
      </trkpt>
      <trkpt lat="25.680686" lon="-100.242781">
        <ele>472.303</ele>
        <time>2020-02-03T16:57:08Z</time>
      </trkpt>
      <trkpt lat="25.680681" lon="-100.242715">
        <ele>471.289</ele>
        <time>2020-02-03T16:57:10Z</time>
      </trkpt>
      <trkpt lat="25.680679" lon="-100.242682">
        <ele>471.403</ele>
        <time>2020-02-03T16:57:11Z</time>
      </trkpt>
      <trkpt lat="25.680675" lon="-100.242618">
        <ele>471.487</ele>
        <time>2020-02-03T16:57:13Z</time>
      </trkpt>
      <trkpt lat="25.680674" lon="-100.242585">
        <ele>471.479</ele>
        <time>2020-02-03T16:57:14Z</time>
      </trkpt>
      <trkpt lat="25.680674" lon="-100.242552">
        <ele>471.701</ele>
        <time>2020-02-03T16:57:15Z</time>
      </trkpt>
      <trkpt lat="25.680677" lon="-100.242519">
        <ele>471.554</ele>
        <time>2020-02-03T16:57:16Z</time>
      </trkpt>
      <trkpt lat="25.680681" lon="-100.242485">
        <ele>471.845</ele>
        <time>2020-02-03T16:57:17Z</time>
      </trkpt>
      <trkpt lat="25.680683" lon="-100.242453">
        <ele>470.767</ele>
        <time>2020-02-03T16:57:18Z</time>
      </trkpt>
      <trkpt lat="25.680686" lon="-100.24242">
        <ele>471.06</ele>
        <time>2020-02-03T16:57:19Z</time>
      </trkpt>
      <trkpt lat="25.680687" lon="-100.242386">
        <ele>471.142</ele>
        <time>2020-02-03T16:57:20Z</time>
      </trkpt>
      <trkpt lat="25.680686" lon="-100.242353">
        <ele>470.981</ele>
        <time>2020-02-03T16:57:21Z</time>
      </trkpt>
      <trkpt lat="25.68068" lon="-100.242287">
        <ele>469.212</ele>
        <time>2020-02-03T16:57:23Z</time>
      </trkpt>
      <trkpt lat="25.680677" lon="-100.242252">
        <ele>467.427</ele>
        <time>2020-02-03T16:57:24Z</time>
      </trkpt>
      <trkpt lat="25.680678" lon="-100.242218">
        <ele>466.509</ele>
        <time>2020-02-03T16:57:25Z</time>
      </trkpt>
      <trkpt lat="25.680679" lon="-100.242186">
        <ele>467.287</ele>
        <time>2020-02-03T16:57:26Z</time>
      </trkpt>
      <trkpt lat="25.680682" lon="-100.242125">
        <ele>467.17</ele>
        <time>2020-02-03T16:57:28Z</time>
      </trkpt>
      <trkpt lat="25.680682" lon="-100.242094">
        <ele>466.829</ele>
        <time>2020-02-03T16:57:29Z</time>
      </trkpt>
      <trkpt lat="25.680681" lon="-100.242065">
        <ele>466.626</ele>
        <time>2020-02-03T16:57:30Z</time>
      </trkpt>
      <trkpt lat="25.680681" lon="-100.242036">
        <ele>466.59</ele>
        <time>2020-02-03T16:57:31Z</time>
      </trkpt>
      <trkpt lat="25.680683" lon="-100.241979">
        <ele>466.806</ele>
        <time>2020-02-03T16:57:33Z</time>
      </trkpt>
      <trkpt lat="25.680686" lon="-100.241922">
        <ele>466.678</ele>
        <time>2020-02-03T16:57:35Z</time>
      </trkpt>
      <trkpt lat="25.680687" lon="-100.241894">
        <ele>466.577</ele>
        <time>2020-02-03T16:57:36Z</time>
      </trkpt>
      <trkpt lat="25.680686" lon="-100.241865">
        <ele>466.339</ele>
        <time>2020-02-03T16:57:37Z</time>
      </trkpt>
      <trkpt lat="25.680686" lon="-100.241836">
        <ele>466.534</ele>
        <time>2020-02-03T16:57:38Z</time>
      </trkpt>
      <trkpt lat="25.680686" lon="-100.241806">
        <ele>466.647</ele>
        <time>2020-02-03T16:57:39Z</time>
      </trkpt>
      <trkpt lat="25.680686" lon="-100.241776">
        <ele>466.614</ele>
        <time>2020-02-03T16:57:40Z</time>
      </trkpt>
      <trkpt lat="25.680686" lon="-100.24175">
        <ele>467.687</ele>
        <time>2020-02-03T16:57:41Z</time>
      </trkpt>
      <trkpt lat="25.680689" lon="-100.241697">
        <ele>468.001</ele>
        <time>2020-02-03T16:57:43Z</time>
      </trkpt>
      <trkpt lat="25.680691" lon="-100.24164">
        <ele>467.017</ele>
        <time>2020-02-03T16:57:45Z</time>
      </trkpt>
      <trkpt lat="25.68069" lon="-100.24161">
        <ele>466.377</ele>
        <time>2020-02-03T16:57:46Z</time>
      </trkpt>
      <trkpt lat="25.68069" lon="-100.241548">
        <ele>466.213</ele>
        <time>2020-02-03T16:57:48Z</time>
      </trkpt>
      <trkpt lat="25.680692" lon="-100.24152">
        <ele>466.573</ele>
        <time>2020-02-03T16:57:49Z</time>
      </trkpt>
      <trkpt lat="25.680693" lon="-100.241491">
        <ele>466.082</ele>
        <time>2020-02-03T16:57:50Z</time>
      </trkpt>
      <trkpt lat="25.680694" lon="-100.241463">
        <ele>465.237</ele>
        <time>2020-02-03T16:57:51Z</time>
      </trkpt>
      <trkpt lat="25.680693" lon="-100.241434">
        <ele>464.142</ele>
        <time>2020-02-03T16:57:52Z</time>
      </trkpt>
      <trkpt lat="25.680684" lon="-100.241377">
        <ele>463.705</ele>
        <time>2020-02-03T16:57:54Z</time>
      </trkpt>
      <trkpt lat="25.680683" lon="-100.241322">
        <ele>464.156</ele>
        <time>2020-02-03T16:57:56Z</time>
      </trkpt>
      <trkpt lat="25.680683" lon="-100.241293">
        <ele>464.185</ele>
        <time>2020-02-03T16:57:57Z</time>
      </trkpt>
      <trkpt lat="25.680683" lon="-100.241266">
        <ele>464.354</ele>
        <time>2020-02-03T16:57:58Z</time>
      </trkpt>
      <trkpt lat="25.680686" lon="-100.241239">
        <ele>464.453</ele>
        <time>2020-02-03T16:57:59Z</time>
      </trkpt>
      <trkpt lat="25.680698" lon="-100.241182">
        <ele>463.789</ele>
        <time>2020-02-03T16:58:01Z</time>
      </trkpt>
      <trkpt lat="25.680706" lon="-100.241151">
        <ele>463.947</ele>
        <time>2020-02-03T16:58:02Z</time>
      </trkpt>
      <trkpt lat="25.680711" lon="-100.241118">
        <ele>464.581</ele>
        <time>2020-02-03T16:58:03Z</time>
      </trkpt>
      <trkpt lat="25.680716" lon="-100.241054">
        <ele>464.838</ele>
        <time>2020-02-03T16:58:05Z</time>
      </trkpt>
      <trkpt lat="25.680715" lon="-100.24099">
        <ele>464.58</ele>
        <time>2020-02-03T16:58:07Z</time>
      </trkpt>
      <trkpt lat="25.680718" lon="-100.240922">
        <ele>466.541</ele>
        <time>2020-02-03T16:58:09Z</time>
      </trkpt>
      <trkpt lat="25.680719" lon="-100.240888">
        <ele>466.104</ele>
        <time>2020-02-03T16:58:10Z</time>
      </trkpt>
      <trkpt lat="25.680719" lon="-100.240857">
        <ele>466.46</ele>
        <time>2020-02-03T16:58:11Z</time>
      </trkpt>
      <trkpt lat="25.680718" lon="-100.240829">
        <ele>466.503</ele>
        <time>2020-02-03T16:58:12Z</time>
      </trkpt>
      <trkpt lat="25.680716" lon="-100.2408">
        <ele>467.188</ele>
        <time>2020-02-03T16:58:13Z</time>
      </trkpt>
      <trkpt lat="25.680715" lon="-100.24077">
        <ele>467.54</ele>
        <time>2020-02-03T16:58:14Z</time>
      </trkpt>
      <trkpt lat="25.680713" lon="-100.240743">
        <ele>467.816</ele>
        <time>2020-02-03T16:58:15Z</time>
      </trkpt>
      <trkpt lat="25.680713" lon="-100.240715">
        <ele>467.234</ele>
        <time>2020-02-03T16:58:16Z</time>
      </trkpt>
      <trkpt lat="25.680723" lon="-100.240664">
        <ele>468.133</ele>
        <time>2020-02-03T16:58:18Z</time>
      </trkpt>
      <trkpt lat="25.680729" lon="-100.240637">
        <ele>468.081</ele>
        <time>2020-02-03T16:58:19Z</time>
      </trkpt>
      <trkpt lat="25.680727" lon="-100.240583">
        <ele>467.956</ele>
        <time>2020-02-03T16:58:21Z</time>
      </trkpt>
      <trkpt lat="25.680726" lon="-100.240554">
        <ele>467.944</ele>
        <time>2020-02-03T16:58:22Z</time>
      </trkpt>
      <trkpt lat="25.680724" lon="-100.240526">
        <ele>468.154</ele>
        <time>2020-02-03T16:58:23Z</time>
      </trkpt>
      <trkpt lat="25.680724" lon="-100.240498">
        <ele>468.391</ele>
        <time>2020-02-03T16:58:24Z</time>
      </trkpt>
      <trkpt lat="25.680725" lon="-100.24047">
        <ele>468.722</ele>
        <time>2020-02-03T16:58:25Z</time>
      </trkpt>
      <trkpt lat="25.680725" lon="-100.240442">
        <ele>469.174</ele>
        <time>2020-02-03T16:58:26Z</time>
      </trkpt>
      <trkpt lat="25.680725" lon="-100.240415">
        <ele>469.589</ele>
        <time>2020-02-03T16:58:27Z</time>
      </trkpt>
      <trkpt lat="25.680723" lon="-100.240386">
        <ele>469.843</ele>
        <time>2020-02-03T16:58:28Z</time>
      </trkpt>
      <trkpt lat="25.68072" lon="-100.240356">
        <ele>469.82</ele>
        <time>2020-02-03T16:58:29Z</time>
      </trkpt>
      <trkpt lat="25.680715" lon="-100.240326">
        <ele>470.092</ele>
        <time>2020-02-03T16:58:30Z</time>
      </trkpt>
      <trkpt lat="25.680712" lon="-100.240295">
        <ele>469.931</ele>
        <time>2020-02-03T16:58:31Z</time>
      </trkpt>
      <trkpt lat="25.680713" lon="-100.240231">
        <ele>470.283</ele>
        <time>2020-02-03T16:58:33Z</time>
      </trkpt>
      <trkpt lat="25.680715" lon="-100.240199">
        <ele>471.162</ele>
        <time>2020-02-03T16:58:34Z</time>
      </trkpt>
      <trkpt lat="25.680717" lon="-100.240169">
        <ele>471.557</ele>
        <time>2020-02-03T16:58:35Z</time>
      </trkpt>
      <trkpt lat="25.68072" lon="-100.24014">
        <ele>472.098</ele>
        <time>2020-02-03T16:58:36Z</time>
      </trkpt>
      <trkpt lat="25.680751" lon="-100.240064">
        <ele>472.715</ele>
        <time>2020-02-03T16:58:39Z</time>
      </trkpt>
      <trkpt lat="25.680783" lon="-100.240017">
        <ele>473.011</ele>
        <time>2020-02-03T16:58:41Z</time>
      </trkpt>
      <trkpt lat="25.680821" lon="-100.239974">
        <ele>472.904</ele>
        <time>2020-02-03T16:58:43Z</time>
      </trkpt>
      <trkpt lat="25.680839" lon="-100.23995">
        <ele>472.068</ele>
        <time>2020-02-03T16:58:44Z</time>
      </trkpt>
      <trkpt lat="25.680869" lon="-100.239897">
        <ele>471.511</ele>
        <time>2020-02-03T16:58:46Z</time>
      </trkpt>
      <trkpt lat="25.680882" lon="-100.23987">
        <ele>471.077</ele>
        <time>2020-02-03T16:58:47Z</time>
      </trkpt>
      <trkpt lat="25.680895" lon="-100.239843">
        <ele>471.738</ele>
        <time>2020-02-03T16:58:48Z</time>
      </trkpt>
      <trkpt lat="25.680908" lon="-100.239815">
        <ele>473.278</ele>
        <time>2020-02-03T16:58:49Z</time>
      </trkpt>
      <trkpt lat="25.68092" lon="-100.239787">
        <ele>473.298</ele>
        <time>2020-02-03T16:58:50Z</time>
      </trkpt>
      <trkpt lat="25.680934" lon="-100.239759">
        <ele>472.511</ele>
        <time>2020-02-03T16:58:51Z</time>
      </trkpt>
      <trkpt lat="25.680947" lon="-100.239731">
        <ele>471.93</ele>
        <time>2020-02-03T16:58:52Z</time>
      </trkpt>
      <trkpt lat="25.68096" lon="-100.239703">
        <ele>471.861</ele>
        <time>2020-02-03T16:58:53Z</time>
      </trkpt>
      <trkpt lat="25.680972" lon="-100.239673">
        <ele>472.71</ele>
        <time>2020-02-03T16:58:54Z</time>
      </trkpt>
      <trkpt lat="25.680985" lon="-100.239645">
        <ele>472.073</ele>
        <time>2020-02-03T16:58:55Z</time>
      </trkpt>
      <trkpt lat="25.681017" lon="-100.239594">
        <ele>471.425</ele>
        <time>2020-02-03T16:58:57Z</time>
      </trkpt>
      <trkpt lat="25.681032" lon="-100.239568">
        <ele>471.021</ele>
        <time>2020-02-03T16:58:58Z</time>
      </trkpt>
      <trkpt lat="25.681053" lon="-100.239514">
        <ele>469.695</ele>
        <time>2020-02-03T16:59:00Z</time>
      </trkpt>
      <trkpt lat="25.681064" lon="-100.239488">
        <ele>469.631</ele>
        <time>2020-02-03T16:59:01Z</time>
      </trkpt>
      <trkpt lat="25.681075" lon="-100.23946">
        <ele>469.77</ele>
        <time>2020-02-03T16:59:02Z</time>
      </trkpt>
      <trkpt lat="25.681084" lon="-100.239434">
        <ele>469.654</ele>
        <time>2020-02-03T16:59:03Z</time>
      </trkpt>
      <trkpt lat="25.681092" lon="-100.239407">
        <ele>468.89</ele>
        <time>2020-02-03T16:59:04Z</time>
      </trkpt>
      <trkpt lat="25.681103" lon="-100.239354">
        <ele>469.051</ele>
        <time>2020-02-03T16:59:06Z</time>
      </trkpt>
      <trkpt lat="25.681144" lon="-100.239277">
        <ele>469.176</ele>
        <time>2020-02-03T16:59:09Z</time>
      </trkpt>
      <trkpt lat="25.681177" lon="-100.239221">
        <ele>469.807</ele>
        <time>2020-02-03T16:59:11Z</time>
      </trkpt>
      <trkpt lat="25.6812" lon="-100.239163">
        <ele>469.188</ele>
        <time>2020-02-03T16:59:13Z</time>
      </trkpt>
      <trkpt lat="25.681211" lon="-100.239098">
        <ele>469.167</ele>
        <time>2020-02-03T16:59:16Z</time>
      </trkpt>
      <trkpt lat="25.68122" lon="-100.239048">
        <ele>467.456</ele>
        <time>2020-02-03T16:59:18Z</time>
      </trkpt>
      <trkpt lat="25.681245" lon="-100.239002">
        <ele>468.047</ele>
        <time>2020-02-03T16:59:20Z</time>
      </trkpt>
      <trkpt lat="25.681282" lon="-100.238959">
        <ele>467.542</ele>
        <time>2020-02-03T16:59:22Z</time>
      </trkpt>
      <trkpt lat="25.6813" lon="-100.238937">
        <ele>467.907</ele>
        <time>2020-02-03T16:59:23Z</time>
      </trkpt>
      <trkpt lat="25.68133" lon="-100.23889">
        <ele>468.207</ele>
        <time>2020-02-03T16:59:25Z</time>
      </trkpt>
      <trkpt lat="25.681345" lon="-100.23884">
        <ele>468.172</ele>
        <time>2020-02-03T16:59:27Z</time>
      </trkpt>
      <trkpt lat="25.681359" lon="-100.238769">
        <ele>467.183</ele>
        <time>2020-02-03T16:59:30Z</time>
      </trkpt>
      <trkpt lat="25.6814" lon="-100.238709">
        <ele>466.669</ele>
        <time>2020-02-03T16:59:33Z</time>
      </trkpt>
      <trkpt lat="25.681437" lon="-100.238669">
        <ele>466.895</ele>
        <time>2020-02-03T16:59:35Z</time>
      </trkpt>
      <trkpt lat="25.681466" lon="-100.238626">
        <ele>467.485</ele>
        <time>2020-02-03T16:59:37Z</time>
      </trkpt>
      <trkpt lat="25.681488" lon="-100.238577">
        <ele>467.729</ele>
        <time>2020-02-03T16:59:39Z</time>
      </trkpt>
      <trkpt lat="25.681501" lon="-100.238553">
        <ele>467.11</ele>
        <time>2020-02-03T16:59:40Z</time>
      </trkpt>
      <trkpt lat="25.681515" lon="-100.23853">
        <ele>467.112</ele>
        <time>2020-02-03T16:59:41Z</time>
      </trkpt>
      <trkpt lat="25.68153" lon="-100.238506">
        <ele>467.217</ele>
        <time>2020-02-03T16:59:42Z</time>
      </trkpt>
      <trkpt lat="25.681545" lon="-100.238484">
        <ele>467.578</ele>
        <time>2020-02-03T16:59:43Z</time>
      </trkpt>
      <trkpt lat="25.68156" lon="-100.238462">
        <ele>468.055</ele>
        <time>2020-02-03T16:59:44Z</time>
      </trkpt>
      <trkpt lat="25.681594" lon="-100.23842">
        <ele>467.986</ele>
        <time>2020-02-03T16:59:46Z</time>
      </trkpt>
      <trkpt lat="25.681618" lon="-100.238377">
        <ele>466.934</ele>
        <time>2020-02-03T16:59:48Z</time>
      </trkpt>
      <trkpt lat="25.681641" lon="-100.238313">
        <ele>467.295</ele>
        <time>2020-02-03T16:59:51Z</time>
      </trkpt>
      <trkpt lat="25.681678" lon="-100.238254">
        <ele>467.101</ele>
        <time>2020-02-03T16:59:54Z</time>
      </trkpt>
      <trkpt lat="25.681701" lon="-100.238213">
        <ele>466.944</ele>
        <time>2020-02-03T16:59:56Z</time>
      </trkpt>
      <trkpt lat="25.681733" lon="-100.238149">
        <ele>466.683</ele>
        <time>2020-02-03T16:59:59Z</time>
      </trkpt>
      <trkpt lat="25.681747" lon="-100.238081">
        <ele>466.549</ele>
        <time>2020-02-03T17:00:02Z</time>
      </trkpt>
      <trkpt lat="25.681753" lon="-100.238055">
        <ele>468.024</ele>
        <time>2020-02-03T17:00:03Z</time>
      </trkpt>
      <trkpt lat="25.681762" lon="-100.238028">
        <ele>469.523</ele>
        <time>2020-02-03T17:00:04Z</time>
      </trkpt>
      <trkpt lat="25.681788" lon="-100.237975">
        <ele>470.19</ele>
        <time>2020-02-03T17:00:06Z</time>
      </trkpt>
      <trkpt lat="25.681803" lon="-100.237948">
        <ele>470.692</ele>
        <time>2020-02-03T17:00:07Z</time>
      </trkpt>
      <trkpt lat="25.681817" lon="-100.237919">
        <ele>469.974</ele>
        <time>2020-02-03T17:00:08Z</time>
      </trkpt>
      <trkpt lat="25.681829" lon="-100.237889">
        <ele>469.452</ele>
        <time>2020-02-03T17:00:09Z</time>
      </trkpt>
      <trkpt lat="25.681841" lon="-100.237861">
        <ele>468.83</ele>
        <time>2020-02-03T17:00:10Z</time>
      </trkpt>
      <trkpt lat="25.681851" lon="-100.237831">
        <ele>468.815</ele>
        <time>2020-02-03T17:00:11Z</time>
      </trkpt>
      <trkpt lat="25.681862" lon="-100.237803">
        <ele>468.692</ele>
        <time>2020-02-03T17:00:12Z</time>
      </trkpt>
      <trkpt lat="25.681876" lon="-100.237745">
        <ele>468.871</ele>
        <time>2020-02-03T17:00:14Z</time>
      </trkpt>
      <trkpt lat="25.681884" lon="-100.237716">
        <ele>469.275</ele>
        <time>2020-02-03T17:00:15Z</time>
      </trkpt>
      <trkpt lat="25.681894" lon="-100.237686">
        <ele>469.269</ele>
        <time>2020-02-03T17:00:16Z</time>
      </trkpt>
      <trkpt lat="25.681905" lon="-100.237657">
        <ele>465.46</ele>
        <time>2020-02-03T17:00:17Z</time>
      </trkpt>
      <trkpt lat="25.681914" lon="-100.23763">
        <ele>464.519</ele>
        <time>2020-02-03T17:00:18Z</time>
      </trkpt>
      <trkpt lat="25.681923" lon="-100.237603">
        <ele>464.519</ele>
        <time>2020-02-03T17:00:19Z</time>
      </trkpt>
      <trkpt lat="25.681934" lon="-100.237574">
        <ele>464.985</ele>
        <time>2020-02-03T17:00:20Z</time>
      </trkpt>
      <trkpt lat="25.681946" lon="-100.237545">
        <ele>464.902</ele>
        <time>2020-02-03T17:00:21Z</time>
      </trkpt>
      <trkpt lat="25.681959" lon="-100.237515">
        <ele>464.842</ele>
        <time>2020-02-03T17:00:22Z</time>
      </trkpt>
      <trkpt lat="25.681969" lon="-100.237484">
        <ele>464.365</ele>
        <time>2020-02-03T17:00:23Z</time>
      </trkpt>
      <trkpt lat="25.681982" lon="-100.237405">
        <ele>463.564</ele>
        <time>2020-02-03T17:00:26Z</time>
      </trkpt>
      <trkpt lat="25.681987" lon="-100.237375">
        <ele>464.371</ele>
        <time>2020-02-03T17:00:27Z</time>
      </trkpt>
      <trkpt lat="25.681992" lon="-100.237345">
        <ele>464.452</ele>
        <time>2020-02-03T17:00:28Z</time>
      </trkpt>
      <trkpt lat="25.681997" lon="-100.237314">
        <ele>464.607</ele>
        <time>2020-02-03T17:00:29Z</time>
      </trkpt>
      <trkpt lat="25.682004" lon="-100.237284">
        <ele>464.594</ele>
        <time>2020-02-03T17:00:30Z</time>
      </trkpt>
      <trkpt lat="25.682025" lon="-100.237228">
        <ele>463.887</ele>
        <time>2020-02-03T17:00:32Z</time>
      </trkpt>
      <trkpt lat="25.682037" lon="-100.237199">
        <ele>463.507</ele>
        <time>2020-02-03T17:00:33Z</time>
      </trkpt>
      <trkpt lat="25.682047" lon="-100.237172">
        <ele>464.09</ele>
        <time>2020-02-03T17:00:34Z</time>
      </trkpt>
      <trkpt lat="25.682061" lon="-100.237116">
        <ele>463.267</ele>
        <time>2020-02-03T17:00:36Z</time>
      </trkpt>
      <trkpt lat="25.682068" lon="-100.23709">
        <ele>462.338</ele>
        <time>2020-02-03T17:00:37Z</time>
      </trkpt>
      <trkpt lat="25.682073" lon="-100.237063">
        <ele>461.99</ele>
        <time>2020-02-03T17:00:38Z</time>
      </trkpt>
      <trkpt lat="25.682077" lon="-100.237036">
        <ele>460.922</ele>
        <time>2020-02-03T17:00:39Z</time>
      </trkpt>
      <trkpt lat="25.682087" lon="-100.236972">
        <ele>462.331</ele>
        <time>2020-02-03T17:00:42Z</time>
      </trkpt>
      <trkpt lat="25.682111" lon="-100.23693">
        <ele>462.592</ele>
        <time>2020-02-03T17:00:45Z</time>
      </trkpt>
      <trkpt lat="25.682111" lon="-100.23693">
        <ele>462.483</ele>
        <time>2020-02-03T17:00:53Z</time>
      </trkpt>
      <trkpt lat="25.682155" lon="-100.236919">
        <ele>464.224</ele>
        <time>2020-02-03T17:00:54Z</time>
      </trkpt>
      <trkpt lat="25.682165" lon="-100.236866">
        <ele>463.999</ele>
        <time>2020-02-03T17:01:02Z</time>
      </trkpt>
      <trkpt lat="25.682184" lon="-100.236813">
        <ele>463.444</ele>
        <time>2020-02-03T17:01:04Z</time>
      </trkpt>
      <trkpt lat="25.682195" lon="-100.236784">
        <ele>462.757</ele>
        <time>2020-02-03T17:01:05Z</time>
      </trkpt>
      <trkpt lat="25.682206" lon="-100.236757">
        <ele>462.38</ele>
        <time>2020-02-03T17:01:06Z</time>
      </trkpt>
      <trkpt lat="25.682216" lon="-100.236728">
        <ele>462.793</ele>
        <time>2020-02-03T17:01:07Z</time>
      </trkpt>
      <trkpt lat="25.682224" lon="-100.236698">
        <ele>463.107</ele>
        <time>2020-02-03T17:01:08Z</time>
      </trkpt>
      <trkpt lat="25.682244" lon="-100.236611">
        <ele>463.703</ele>
        <time>2020-02-03T17:01:11Z</time>
      </trkpt>
      <trkpt lat="25.682263" lon="-100.236562">
        <ele>463.94</ele>
        <time>2020-02-03T17:01:13Z</time>
      </trkpt>
      <trkpt lat="25.682274" lon="-100.236537">
        <ele>463.954</ele>
        <time>2020-02-03T17:01:14Z</time>
      </trkpt>
      <trkpt lat="25.682284" lon="-100.236511">
        <ele>463.723</ele>
        <time>2020-02-03T17:01:15Z</time>
      </trkpt>
      <trkpt lat="25.682296" lon="-100.236458">
        <ele>463.053</ele>
        <time>2020-02-03T17:01:17Z</time>
      </trkpt>
      <trkpt lat="25.682319" lon="-100.236409">
        <ele>462.983</ele>
        <time>2020-02-03T17:01:19Z</time>
      </trkpt>
      <trkpt lat="25.68236" lon="-100.236365">
        <ele>463.16</ele>
        <time>2020-02-03T17:01:21Z</time>
      </trkpt>
      <trkpt lat="25.68238" lon="-100.236342">
        <ele>463.264</ele>
        <time>2020-02-03T17:01:22Z</time>
      </trkpt>
      <trkpt lat="25.68241" lon="-100.23629">
        <ele>463.085</ele>
        <time>2020-02-03T17:01:24Z</time>
      </trkpt>
      <trkpt lat="25.682434" lon="-100.236234">
        <ele>460.846</ele>
        <time>2020-02-03T17:01:26Z</time>
      </trkpt>
      <trkpt lat="25.682445" lon="-100.236204">
        <ele>462.039</ele>
        <time>2020-02-03T17:01:27Z</time>
      </trkpt>
      <trkpt lat="25.682453" lon="-100.236178">
        <ele>461.248</ele>
        <time>2020-02-03T17:01:28Z</time>
      </trkpt>
      <trkpt lat="25.682461" lon="-100.236148">
        <ele>460.859</ele>
        <time>2020-02-03T17:01:29Z</time>
      </trkpt>
      <trkpt lat="25.682469" lon="-100.236116">
        <ele>460.516</ele>
        <time>2020-02-03T17:01:30Z</time>
      </trkpt>
      <trkpt lat="25.682478" lon="-100.236087">
        <ele>460.478</ele>
        <time>2020-02-03T17:01:31Z</time>
      </trkpt>
      <trkpt lat="25.682503" lon="-100.236034">
        <ele>460.322</ele>
        <time>2020-02-03T17:01:33Z</time>
      </trkpt>
      <trkpt lat="25.682539" lon="-100.235984">
        <ele>460.787</ele>
        <time>2020-02-03T17:01:35Z</time>
      </trkpt>
      <trkpt lat="25.682557" lon="-100.235958">
        <ele>461.465</ele>
        <time>2020-02-03T17:01:36Z</time>
      </trkpt>
      <trkpt lat="25.682581" lon="-100.235905">
        <ele>461.255</ele>
        <time>2020-02-03T17:01:38Z</time>
      </trkpt>
      <trkpt lat="25.682596" lon="-100.235854">
        <ele>461.448</ele>
        <time>2020-02-03T17:01:40Z</time>
      </trkpt>
      <trkpt lat="25.682619" lon="-100.235806">
        <ele>461.395</ele>
        <time>2020-02-03T17:01:42Z</time>
      </trkpt>
      <trkpt lat="25.682631" lon="-100.235781">
        <ele>461.778</ele>
        <time>2020-02-03T17:01:43Z</time>
      </trkpt>
      <trkpt lat="25.682644" lon="-100.235756">
        <ele>461.571</ele>
        <time>2020-02-03T17:01:44Z</time>
      </trkpt>
      <trkpt lat="25.682662" lon="-100.235702">
        <ele>461.425</ele>
        <time>2020-02-03T17:01:46Z</time>
      </trkpt>
      <trkpt lat="25.682673" lon="-100.235644">
        <ele>461.723</ele>
        <time>2020-02-03T17:01:48Z</time>
      </trkpt>
      <trkpt lat="25.682678" lon="-100.235614">
        <ele>462.048</ele>
        <time>2020-02-03T17:01:49Z</time>
      </trkpt>
      <trkpt lat="25.682691" lon="-100.235555">
        <ele>462.726</ele>
        <time>2020-02-03T17:01:51Z</time>
      </trkpt>
      <trkpt lat="25.682699" lon="-100.235527">
        <ele>462.75</ele>
        <time>2020-02-03T17:01:52Z</time>
      </trkpt>
      <trkpt lat="25.682731" lon="-100.235495">
        <ele>462.334</ele>
        <time>2020-02-03T17:01:59Z</time>
      </trkpt>
      <trkpt lat="25.682707" lon="-100.235444">
        <ele>463.838</ele>
        <time>2020-02-03T17:02:05Z</time>
      </trkpt>
      <trkpt lat="25.68269" lon="-100.23539">
        <ele>462.733</ele>
        <time>2020-02-03T17:02:08Z</time>
      </trkpt>
      <trkpt lat="25.682687" lon="-100.235331">
        <ele>462.656</ele>
        <time>2020-02-03T17:02:10Z</time>
      </trkpt>
      <trkpt lat="25.68269" lon="-100.235272">
        <ele>462.209</ele>
        <time>2020-02-03T17:02:12Z</time>
      </trkpt>
      <trkpt lat="25.68269" lon="-100.235242">
        <ele>462.88</ele>
        <time>2020-02-03T17:02:13Z</time>
      </trkpt>
      <trkpt lat="25.682691" lon="-100.235212">
        <ele>463.645</ele>
        <time>2020-02-03T17:02:14Z</time>
      </trkpt>
      <trkpt lat="25.682692" lon="-100.23518">
        <ele>463.986</ele>
        <time>2020-02-03T17:02:15Z</time>
      </trkpt>
      <trkpt lat="25.682694" lon="-100.235148">
        <ele>463.961</ele>
        <time>2020-02-03T17:02:16Z</time>
      </trkpt>
      <trkpt lat="25.682694" lon="-100.235115">
        <ele>463.548</ele>
        <time>2020-02-03T17:02:17Z</time>
      </trkpt>
      <trkpt lat="25.682694" lon="-100.235082">
        <ele>464.082</ele>
        <time>2020-02-03T17:02:18Z</time>
      </trkpt>
      <trkpt lat="25.682693" lon="-100.235049">
        <ele>464.54</ele>
        <time>2020-02-03T17:02:19Z</time>
      </trkpt>
      <trkpt lat="25.682695" lon="-100.235018">
        <ele>464.994</ele>
        <time>2020-02-03T17:02:20Z</time>
      </trkpt>
      <trkpt lat="25.682696" lon="-100.234985">
        <ele>464.942</ele>
        <time>2020-02-03T17:02:21Z</time>
      </trkpt>
      <trkpt lat="25.682699" lon="-100.234954">
        <ele>465.034</ele>
        <time>2020-02-03T17:02:22Z</time>
      </trkpt>
      <trkpt lat="25.682702" lon="-100.234922">
        <ele>464.846</ele>
        <time>2020-02-03T17:02:23Z</time>
      </trkpt>
      <trkpt lat="25.682706" lon="-100.23489">
        <ele>466.277</ele>
        <time>2020-02-03T17:02:24Z</time>
      </trkpt>
      <trkpt lat="25.682711" lon="-100.234859">
        <ele>466.278</ele>
        <time>2020-02-03T17:02:25Z</time>
      </trkpt>
      <trkpt lat="25.68271" lon="-100.234769">
        <ele>466.202</ele>
        <time>2020-02-03T17:02:28Z</time>
      </trkpt>
      <trkpt lat="25.682709" lon="-100.234741">
        <ele>465.302</ele>
        <time>2020-02-03T17:02:29Z</time>
      </trkpt>
      <trkpt lat="25.682709" lon="-100.234711">
        <ele>463.064</ele>
        <time>2020-02-03T17:02:30Z</time>
      </trkpt>
      <trkpt lat="25.6827" lon="-100.234657">
        <ele>462.388</ele>
        <time>2020-02-03T17:02:32Z</time>
      </trkpt>
      <trkpt lat="25.682694" lon="-100.234631">
        <ele>462.573</ele>
        <time>2020-02-03T17:02:33Z</time>
      </trkpt>
      <trkpt lat="25.6827" lon="-100.234559">
        <ele>462.172</ele>
        <time>2020-02-03T17:02:36Z</time>
      </trkpt>
      <trkpt lat="25.682704" lon="-100.234531">
        <ele>462.057</ele>
        <time>2020-02-03T17:02:37Z</time>
      </trkpt>
      <trkpt lat="25.68271" lon="-100.234482">
        <ele>461.907</ele>
        <time>2020-02-03T17:02:39Z</time>
      </trkpt>
      <trkpt lat="25.682714" lon="-100.234456">
        <ele>461.951</ele>
        <time>2020-02-03T17:02:40Z</time>
      </trkpt>
      <trkpt lat="25.682718" lon="-100.234429">
        <ele>461.736</ele>
        <time>2020-02-03T17:02:41Z</time>
      </trkpt>
      <trkpt lat="25.682721" lon="-100.234401">
        <ele>462.622</ele>
        <time>2020-02-03T17:02:42Z</time>
      </trkpt>
      <trkpt lat="25.682723" lon="-100.234374">
        <ele>463.283</ele>
        <time>2020-02-03T17:02:43Z</time>
      </trkpt>
      <trkpt lat="25.682726" lon="-100.234347">
        <ele>463.537</ele>
        <time>2020-02-03T17:02:44Z</time>
      </trkpt>
      <trkpt lat="25.682729" lon="-100.234319">
        <ele>463.851</ele>
        <time>2020-02-03T17:02:45Z</time>
      </trkpt>
      <trkpt lat="25.682733" lon="-100.23429">
        <ele>463.353</ele>
        <time>2020-02-03T17:02:46Z</time>
      </trkpt>
      <trkpt lat="25.682735" lon="-100.234261">
        <ele>463.016</ele>
        <time>2020-02-03T17:02:47Z</time>
      </trkpt>
      <trkpt lat="25.682735" lon="-100.234233">
        <ele>462.631</ele>
        <time>2020-02-03T17:02:48Z</time>
      </trkpt>
      <trkpt lat="25.682736" lon="-100.234204">
        <ele>461.762</ele>
        <time>2020-02-03T17:02:49Z</time>
      </trkpt>
      <trkpt lat="25.682735" lon="-100.234175">
        <ele>462.127</ele>
        <time>2020-02-03T17:02:50Z</time>
      </trkpt>
      <trkpt lat="25.682736" lon="-100.234148">
        <ele>461.651</ele>
        <time>2020-02-03T17:02:51Z</time>
      </trkpt>
      <trkpt lat="25.682737" lon="-100.234121">
        <ele>461.396</ele>
        <time>2020-02-03T17:02:52Z</time>
      </trkpt>
      <trkpt lat="25.68274" lon="-100.234073">
        <ele>461.487</ele>
        <time>2020-02-03T17:02:54Z</time>
      </trkpt>
      <trkpt lat="25.68274" lon="-100.233999">
        <ele>462.125</ele>
        <time>2020-02-03T17:02:57Z</time>
      </trkpt>
      <trkpt lat="25.682741" lon="-100.233972">
        <ele>462.153</ele>
        <time>2020-02-03T17:02:58Z</time>
      </trkpt>
      <trkpt lat="25.682743" lon="-100.233944">
        <ele>461.732</ele>
        <time>2020-02-03T17:02:59Z</time>
      </trkpt>
      <trkpt lat="25.682747" lon="-100.233915">
        <ele>460.706</ele>
        <time>2020-02-03T17:03:00Z</time>
      </trkpt>
      <trkpt lat="25.682749" lon="-100.233886">
        <ele>461.443</ele>
        <time>2020-02-03T17:03:01Z</time>
      </trkpt>
      <trkpt lat="25.682752" lon="-100.233856">
        <ele>461.443</ele>
        <time>2020-02-03T17:03:02Z</time>
      </trkpt>
      <trkpt lat="25.682753" lon="-100.233824">
        <ele>461.443</ele>
        <time>2020-02-03T17:03:03Z</time>
      </trkpt>
      <trkpt lat="25.682754" lon="-100.233792">
        <ele>461.678</ele>
        <time>2020-02-03T17:03:04Z</time>
      </trkpt>
      <trkpt lat="25.682753" lon="-100.233761">
        <ele>461.151</ele>
        <time>2020-02-03T17:03:05Z</time>
      </trkpt>
      <trkpt lat="25.682752" lon="-100.23373">
        <ele>460.866</ele>
        <time>2020-02-03T17:03:06Z</time>
      </trkpt>
      <trkpt lat="25.682753" lon="-100.2337">
        <ele>461.088</ele>
        <time>2020-02-03T17:03:07Z</time>
      </trkpt>
      <trkpt lat="25.682762" lon="-100.233641">
        <ele>459.847</ele>
        <time>2020-02-03T17:03:09Z</time>
      </trkpt>
      <trkpt lat="25.682775" lon="-100.233582">
        <ele>457.43</ele>
        <time>2020-02-03T17:03:11Z</time>
      </trkpt>
      <trkpt lat="25.68278" lon="-100.233495">
        <ele>458.537</ele>
        <time>2020-02-03T17:03:14Z</time>
      </trkpt>
      <trkpt lat="25.682781" lon="-100.233466">
        <ele>458.705</ele>
        <time>2020-02-03T17:03:15Z</time>
      </trkpt>
      <trkpt lat="25.682775" lon="-100.233409">
        <ele>459.72</ele>
        <time>2020-02-03T17:03:17Z</time>
      </trkpt>
      <trkpt lat="25.68277" lon="-100.233379">
        <ele>460.175</ele>
        <time>2020-02-03T17:03:18Z</time>
      </trkpt>
      <trkpt lat="25.682772" lon="-100.23332">
        <ele>461.405</ele>
        <time>2020-02-03T17:03:20Z</time>
      </trkpt>
      <trkpt lat="25.682778" lon="-100.23326">
        <ele>459.156</ele>
        <time>2020-02-03T17:03:22Z</time>
      </trkpt>
      <trkpt lat="25.68278" lon="-100.233201">
        <ele>458.664</ele>
        <time>2020-02-03T17:03:24Z</time>
      </trkpt>
      <trkpt lat="25.682782" lon="-100.233174">
        <ele>460.184</ele>
        <time>2020-02-03T17:03:25Z</time>
      </trkpt>
      <trkpt lat="25.682784" lon="-100.233147">
        <ele>458.099</ele>
        <time>2020-02-03T17:03:26Z</time>
      </trkpt>
      <trkpt lat="25.682787" lon="-100.233121">
        <ele>456.916</ele>
        <time>2020-02-03T17:03:27Z</time>
      </trkpt>
      <trkpt lat="25.682788" lon="-100.233095">
        <ele>456.01</ele>
        <time>2020-02-03T17:03:28Z</time>
      </trkpt>
      <trkpt lat="25.682788" lon="-100.233095">
        <ele>458.119</ele>
        <time>2020-02-03T17:03:34Z</time>
      </trkpt>
      <trkpt lat="25.682788" lon="-100.233095">
        <ele>457.913</ele>
        <time>2020-02-03T17:03:35Z</time>
      </trkpt>
      <trkpt lat="25.682788" lon="-100.233095">
        <ele>457.945</ele>
        <time>2020-02-03T17:03:49Z</time>
      </trkpt>
      <trkpt lat="25.682788" lon="-100.233095">
        <ele>458.56</ele>
        <time>2020-02-03T17:04:34Z</time>
      </trkpt>
      <trkpt lat="25.682803" lon="-100.232894">
        <ele>458.985</ele>
        <time>2020-02-03T17:04:35Z</time>
      </trkpt>
      <trkpt lat="25.682803" lon="-100.232894">
        <ele>458.933</ele>
        <time>2020-02-03T17:04:40Z</time>
      </trkpt>
      <trkpt lat="25.682803" lon="-100.232894">
        <ele>459.587</ele>
        <time>2020-02-03T17:06:47Z</time>
      </trkpt>
      <trkpt lat="25.682777" lon="-100.232768">
        <ele>459.528</ele>
        <time>2020-02-03T17:06:48Z</time>
      </trkpt>
      <trkpt lat="25.682781" lon="-100.232715">
        <ele>459.619</ele>
        <time>2020-02-03T17:06:53Z</time>
      </trkpt>
      <trkpt lat="25.682782" lon="-100.232684">
        <ele>460.071</ele>
        <time>2020-02-03T17:06:56Z</time>
      </trkpt>
      <trkpt lat="25.68281" lon="-100.232644">
        <ele>459.535</ele>
        <time>2020-02-03T17:07:00Z</time>
      </trkpt>
      <trkpt lat="25.682824" lon="-100.232594">
        <ele>460.498</ele>
        <time>2020-02-03T17:07:05Z</time>
      </trkpt>
      <trkpt lat="25.682841" lon="-100.232542">
        <ele>460.416</ele>
        <time>2020-02-03T17:07:09Z</time>
      </trkpt>
      <trkpt lat="25.682835" lon="-100.232492">
        <ele>461.354</ele>
        <time>2020-02-03T17:07:12Z</time>
      </trkpt>
      <trkpt lat="25.682836" lon="-100.232438">
        <ele>462.636</ele>
        <time>2020-02-03T17:07:16Z</time>
      </trkpt>
      <trkpt lat="25.682838" lon="-100.232411">
        <ele>462.597</ele>
        <time>2020-02-03T17:07:19Z</time>
      </trkpt>
      <trkpt lat="25.682844" lon="-100.232377">
        <ele>462.679</ele>
        <time>2020-02-03T17:07:22Z</time>
      </trkpt>
      <trkpt lat="25.682867" lon="-100.232338">
        <ele>462.331</ele>
        <time>2020-02-03T17:07:30Z</time>
      </trkpt>
      <trkpt lat="25.68286" lon="-100.232276">
        <ele>462.957</ele>
        <time>2020-02-03T17:07:36Z</time>
      </trkpt>
      <trkpt lat="25.682858" lon="-100.232242">
        <ele>463.273</ele>
        <time>2020-02-03T17:07:39Z</time>
      </trkpt>
      <trkpt lat="25.682841" lon="-100.232187">
        <ele>462.268</ele>
        <time>2020-02-03T17:07:45Z</time>
      </trkpt>
      <trkpt lat="25.682833" lon="-100.232124">
        <ele>462.009</ele>
        <time>2020-02-03T17:07:50Z</time>
      </trkpt>
      <trkpt lat="25.682827" lon="-100.232085">
        <ele>461.312</ele>
        <time>2020-02-03T17:07:53Z</time>
      </trkpt>
      <trkpt lat="25.682834" lon="-100.232029">
        <ele>462.24</ele>
        <time>2020-02-03T17:07:57Z</time>
      </trkpt>
      <trkpt lat="25.68284" lon="-100.232001">
        <ele>461.943</ele>
        <time>2020-02-03T17:07:59Z</time>
      </trkpt>
      <trkpt lat="25.682845" lon="-100.231975">
        <ele>461.365</ele>
        <time>2020-02-03T17:08:01Z</time>
      </trkpt>
      <trkpt lat="25.682849" lon="-100.231948">
        <ele>458.991</ele>
        <time>2020-02-03T17:08:03Z</time>
      </trkpt>
      <trkpt lat="25.682851" lon="-100.231923">
        <ele>459.194</ele>
        <time>2020-02-03T17:08:05Z</time>
      </trkpt>
      <trkpt lat="25.682867" lon="-100.231864">
        <ele>459.369</ele>
        <time>2020-02-03T17:08:10Z</time>
      </trkpt>
      <trkpt lat="25.682871" lon="-100.23181">
        <ele>459.437</ele>
        <time>2020-02-03T17:08:14Z</time>
      </trkpt>
      <trkpt lat="25.682873" lon="-100.231781">
        <ele>460.316</ele>
        <time>2020-02-03T17:08:16Z</time>
      </trkpt>
      <trkpt lat="25.682874" lon="-100.231752">
        <ele>461.021</ele>
        <time>2020-02-03T17:08:18Z</time>
      </trkpt>
      <trkpt lat="25.682876" lon="-100.231722">
        <ele>462.477</ele>
        <time>2020-02-03T17:08:20Z</time>
      </trkpt>
      <trkpt lat="25.682877" lon="-100.231695">
        <ele>462.532</ele>
        <time>2020-02-03T17:08:22Z</time>
      </trkpt>
      <trkpt lat="25.682868" lon="-100.231635">
        <ele>462.275</ele>
        <time>2020-02-03T17:08:27Z</time>
      </trkpt>
      <trkpt lat="25.682866" lon="-100.231607">
        <ele>465.307</ele>
        <time>2020-02-03T17:08:29Z</time>
      </trkpt>
      <trkpt lat="25.682864" lon="-100.231582">
        <ele>468.57</ele>
        <time>2020-02-03T17:08:31Z</time>
      </trkpt>
      <trkpt lat="25.682861" lon="-100.231556">
        <ele>468.065</ele>
        <time>2020-02-03T17:08:33Z</time>
      </trkpt>
      <trkpt lat="25.682857" lon="-100.231524">
        <ele>467.774</ele>
        <time>2020-02-03T17:08:36Z</time>
      </trkpt>
      <trkpt lat="25.68285" lon="-100.231489">
        <ele>466.947</ele>
        <time>2020-02-03T17:08:39Z</time>
      </trkpt>
      <trkpt lat="25.682854" lon="-100.231432">
        <ele>465.643</ele>
        <time>2020-02-03T17:08:44Z</time>
      </trkpt>
      <trkpt lat="25.682844" lon="-100.231376">
        <ele>464.743</ele>
        <time>2020-02-03T17:08:49Z</time>
      </trkpt>
      <trkpt lat="25.682856" lon="-100.23132">
        <ele>464.614</ele>
        <time>2020-02-03T17:08:54Z</time>
      </trkpt>
      <trkpt lat="25.682859" lon="-100.231261">
        <ele>462.908</ele>
        <time>2020-02-03T17:08:59Z</time>
      </trkpt>
      <trkpt lat="25.68285" lon="-100.231201">
        <ele>462.908</ele>
        <time>2020-02-03T17:09:04Z</time>
      </trkpt>
      <trkpt lat="25.682853" lon="-100.231151">
        <ele>462.908</ele>
        <time>2020-02-03T17:09:08Z</time>
      </trkpt>
      <trkpt lat="25.682871" lon="-100.231098">
        <ele>460.841</ele>
        <time>2020-02-03T17:09:13Z</time>
      </trkpt>
      <trkpt lat="25.682856" lon="-100.231045">
        <ele>460.205</ele>
        <time>2020-02-03T17:09:18Z</time>
      </trkpt>
      <trkpt lat="25.682873" lon="-100.230993">
        <ele>461.488</ele>
        <time>2020-02-03T17:09:23Z</time>
      </trkpt>
      <trkpt lat="25.682881" lon="-100.230936">
        <ele>460.908</ele>
        <time>2020-02-03T17:09:28Z</time>
      </trkpt>
      <trkpt lat="25.68288" lon="-100.230882">
        <ele>461.176</ele>
        <time>2020-02-03T17:09:34Z</time>
      </trkpt>
      <trkpt lat="25.682867" lon="-100.230831">
        <ele>460.715</ele>
        <time>2020-02-03T17:09:39Z</time>
      </trkpt>
      <trkpt lat="25.682861" lon="-100.230803">
        <ele>461.846</ele>
        <time>2020-02-03T17:09:41Z</time>
      </trkpt>
      <trkpt lat="25.682869" lon="-100.230745">
        <ele>461.404</ele>
        <time>2020-02-03T17:09:46Z</time>
      </trkpt>
      <trkpt lat="25.682901" lon="-100.230699">
        <ele>460.435</ele>
        <time>2020-02-03T17:09:52Z</time>
      </trkpt>
      <trkpt lat="25.682929" lon="-100.230665">
        <ele>460.786</ele>
        <time>2020-02-03T17:09:56Z</time>
      </trkpt>
      <trkpt lat="25.682951" lon="-100.230616">
        <ele>462.22</ele>
        <time>2020-02-03T17:10:01Z</time>
      </trkpt>
      <trkpt lat="25.682991" lon="-100.230585">
        <ele>463.127</ele>
        <time>2020-02-03T17:10:06Z</time>
      </trkpt>
      <trkpt lat="25.683013" lon="-100.230531">
        <ele>461.409</ele>
        <time>2020-02-03T17:10:12Z</time>
      </trkpt>
      <trkpt lat="25.68301" lon="-100.23048">
        <ele>461.075</ele>
        <time>2020-02-03T17:10:17Z</time>
      </trkpt>
      <trkpt lat="25.683019" lon="-100.23043">
        <ele>460.1</ele>
        <time>2020-02-03T17:10:22Z</time>
      </trkpt>
      <trkpt lat="25.683021" lon="-100.23037">
        <ele>460.167</ele>
        <time>2020-02-03T17:10:27Z</time>
      </trkpt>
      <trkpt lat="25.683022" lon="-100.230343">
        <ele>461.638</ele>
        <time>2020-02-03T17:10:29Z</time>
      </trkpt>
      <trkpt lat="25.683024" lon="-100.230315">
        <ele>460.927</ele>
        <time>2020-02-03T17:10:31Z</time>
      </trkpt>
      <trkpt lat="25.683026" lon="-100.230288">
        <ele>463.115</ele>
        <time>2020-02-03T17:10:33Z</time>
      </trkpt>
      <trkpt lat="25.683027" lon="-100.230262">
        <ele>463.024</ele>
        <time>2020-02-03T17:10:35Z</time>
      </trkpt>
      <trkpt lat="25.683041" lon="-100.230212">
        <ele>463.005</ele>
        <time>2020-02-03T17:10:40Z</time>
      </trkpt>
      <trkpt lat="25.683041" lon="-100.230212">
        <ele>463.296</ele>
        <time>2020-02-03T17:10:48Z</time>
      </trkpt>
      <trkpt lat="25.683041" lon="-100.230212">
        <ele>463.337</ele>
        <time>2020-02-03T17:10:49Z</time>
      </trkpt>
      <trkpt lat="25.683071" lon="-100.230166">
        <ele>461.999</ele>
        <time>2020-02-03T17:10:55Z</time>
      </trkpt>
      <trkpt lat="25.683088" lon="-100.230145">
        <ele>462.794</ele>
        <time>2020-02-03T17:10:57Z</time>
      </trkpt>
      <trkpt lat="25.683137" lon="-100.230112">
        <ele>461.598</ele>
        <time>2020-02-03T17:11:02Z</time>
      </trkpt>
      <trkpt lat="25.683149" lon="-100.230062">
        <ele>462.625</ele>
        <time>2020-02-03T17:11:08Z</time>
      </trkpt>
      <trkpt lat="25.683141" lon="-100.230002">
        <ele>463.236</ele>
        <time>2020-02-03T17:11:12Z</time>
      </trkpt>
      <trkpt lat="25.683129" lon="-100.229953">
        <ele>463.146</ele>
        <time>2020-02-03T17:11:16Z</time>
      </trkpt>
      <trkpt lat="25.683141" lon="-100.229893">
        <ele>463.3</ele>
        <time>2020-02-03T17:11:21Z</time>
      </trkpt>
      <trkpt lat="25.683167" lon="-100.22984">
        <ele>463.004</ele>
        <time>2020-02-03T17:11:25Z</time>
      </trkpt>
      <trkpt lat="25.683178" lon="-100.229815">
        <ele>463.356</ele>
        <time>2020-02-03T17:11:27Z</time>
      </trkpt>
      <trkpt lat="25.683203" lon="-100.229769">
        <ele>463.107</ele>
        <time>2020-02-03T17:11:31Z</time>
      </trkpt>
      <trkpt lat="25.683217" lon="-100.229721">
        <ele>462.06</ele>
        <time>2020-02-03T17:11:35Z</time>
      </trkpt>
      <trkpt lat="25.683226" lon="-100.229661">
        <ele>461.125</ele>
        <time>2020-02-03T17:11:40Z</time>
      </trkpt>
      <trkpt lat="25.683244" lon="-100.229612">
        <ele>461.593</ele>
        <time>2020-02-03T17:11:45Z</time>
      </trkpt>
      <trkpt lat="25.683256" lon="-100.229582">
        <ele>461.161</ele>
        <time>2020-02-03T17:11:48Z</time>
      </trkpt>
      <trkpt lat="25.683274" lon="-100.229525">
        <ele>460.94</ele>
        <time>2020-02-03T17:11:53Z</time>
      </trkpt>
      <trkpt lat="25.683283" lon="-100.2295">
        <ele>461.069</ele>
        <time>2020-02-03T17:11:55Z</time>
      </trkpt>
      <trkpt lat="25.683292" lon="-100.229443">
        <ele>461.695</ele>
        <time>2020-02-03T17:11:59Z</time>
      </trkpt>
      <trkpt lat="25.683312" lon="-100.229397">
        <ele>460.502</ele>
        <time>2020-02-03T17:12:03Z</time>
      </trkpt>
      <trkpt lat="25.683328" lon="-100.229348">
        <ele>458.388</ele>
        <time>2020-02-03T17:12:07Z</time>
      </trkpt>
      <trkpt lat="25.683337" lon="-100.229323">
        <ele>459.404</ele>
        <time>2020-02-03T17:12:09Z</time>
      </trkpt>
      <trkpt lat="25.68335" lon="-100.229282">
        <ele>460.315</ele>
        <time>2020-02-03T17:12:12Z</time>
      </trkpt>
      <trkpt lat="25.683363" lon="-100.229249">
        <ele>460.888</ele>
        <time>2020-02-03T17:12:15Z</time>
      </trkpt>
      <trkpt lat="25.683372" lon="-100.229222">
        <ele>460.835</ele>
        <time>2020-02-03T17:12:17Z</time>
      </trkpt>
      <trkpt lat="25.683398" lon="-100.229173">
        <ele>459.842</ele>
        <time>2020-02-03T17:12:22Z</time>
      </trkpt>
      <trkpt lat="25.683413" lon="-100.229144">
        <ele>459.441</ele>
        <time>2020-02-03T17:12:25Z</time>
      </trkpt>
      <trkpt lat="25.68343" lon="-100.229111">
        <ele>458.48</ele>
        <time>2020-02-03T17:12:28Z</time>
      </trkpt>
      <trkpt lat="25.683448" lon="-100.229082">
        <ele>458.837</ele>
        <time>2020-02-03T17:12:31Z</time>
      </trkpt>
      <trkpt lat="25.683461" lon="-100.229033">
        <ele>459.543</ele>
        <time>2020-02-03T17:12:35Z</time>
      </trkpt>
      <trkpt lat="25.683468" lon="-100.229006">
        <ele>459.568</ele>
        <time>2020-02-03T17:12:37Z</time>
      </trkpt>
      <trkpt lat="25.683477" lon="-100.228981">
        <ele>459.953</ele>
        <time>2020-02-03T17:12:39Z</time>
      </trkpt>
      <trkpt lat="25.683487" lon="-100.228955">
        <ele>459.525</ele>
        <time>2020-02-03T17:12:41Z</time>
      </trkpt>
      <trkpt lat="25.683497" lon="-100.22893">
        <ele>460.687</ele>
        <time>2020-02-03T17:12:43Z</time>
      </trkpt>
      <trkpt lat="25.683504" lon="-100.228904">
        <ele>460.619</ele>
        <time>2020-02-03T17:12:45Z</time>
      </trkpt>
      <trkpt lat="25.683534" lon="-100.228862">
        <ele>459.736</ele>
        <time>2020-02-03T17:12:49Z</time>
      </trkpt>
      <trkpt lat="25.683549" lon="-100.228842">
        <ele>459.773</ele>
        <time>2020-02-03T17:12:51Z</time>
      </trkpt>
      <trkpt lat="25.683578" lon="-100.228795">
        <ele>459.327</ele>
        <time>2020-02-03T17:12:57Z</time>
      </trkpt>
      <trkpt lat="25.683592" lon="-100.228738">
        <ele>458.176</ele>
        <time>2020-02-03T17:13:00Z</time>
      </trkpt>
      <trkpt lat="25.683603" lon="-100.228694">
        <ele>457.425</ele>
        <time>2020-02-03T17:13:02Z</time>
      </trkpt>
      <trkpt lat="25.683633" lon="-100.228647">
        <ele>457.164</ele>
        <time>2020-02-03T17:13:04Z</time>
      </trkpt>
      <trkpt lat="25.683656" lon="-100.228596">
        <ele>458.845</ele>
        <time>2020-02-03T17:13:06Z</time>
      </trkpt>
      <trkpt lat="25.683667" lon="-100.228572">
        <ele>460.031</ele>
        <time>2020-02-03T17:13:07Z</time>
      </trkpt>
      <trkpt lat="25.683696" lon="-100.228528">
        <ele>460.32</ele>
        <time>2020-02-03T17:13:09Z</time>
      </trkpt>
      <trkpt lat="25.683723" lon="-100.228481">
        <ele>458.649</ele>
        <time>2020-02-03T17:13:11Z</time>
      </trkpt>
      <trkpt lat="25.683752" lon="-100.228436">
        <ele>458.935</ele>
        <time>2020-02-03T17:13:13Z</time>
      </trkpt>
      <trkpt lat="25.683771" lon="-100.22839">
        <ele>459.028</ele>
        <time>2020-02-03T17:13:15Z</time>
      </trkpt>
      <trkpt lat="25.683775" lon="-100.22834">
        <ele>458.365</ele>
        <time>2020-02-03T17:13:17Z</time>
      </trkpt>
      <trkpt lat="25.683789" lon="-100.228292">
        <ele>458.102</ele>
        <time>2020-02-03T17:13:19Z</time>
      </trkpt>
      <trkpt lat="25.683813" lon="-100.228249">
        <ele>458.398</ele>
        <time>2020-02-03T17:13:21Z</time>
      </trkpt>
      <trkpt lat="25.683823" lon="-100.228224">
        <ele>458.264</ele>
        <time>2020-02-03T17:13:22Z</time>
      </trkpt>
      <trkpt lat="25.683836" lon="-100.228198">
        <ele>458.782</ele>
        <time>2020-02-03T17:13:23Z</time>
      </trkpt>
      <trkpt lat="25.683846" lon="-100.228172">
        <ele>460.112</ele>
        <time>2020-02-03T17:13:24Z</time>
      </trkpt>
      <trkpt lat="25.683858" lon="-100.228148">
        <ele>460.49</ele>
        <time>2020-02-03T17:13:25Z</time>
      </trkpt>
      <trkpt lat="25.683872" lon="-100.228124">
        <ele>460.593</ele>
        <time>2020-02-03T17:13:26Z</time>
      </trkpt>
      <trkpt lat="25.683886" lon="-100.2281">
        <ele>458.348</ele>
        <time>2020-02-03T17:13:27Z</time>
      </trkpt>
      <trkpt lat="25.683899" lon="-100.228074">
        <ele>457.194</ele>
        <time>2020-02-03T17:13:28Z</time>
      </trkpt>
      <trkpt lat="25.683916" lon="-100.228018">
        <ele>455.7</ele>
        <time>2020-02-03T17:13:30Z</time>
      </trkpt>
      <trkpt lat="25.683926" lon="-100.227992">
        <ele>455.122</ele>
        <time>2020-02-03T17:13:31Z</time>
      </trkpt>
      <trkpt lat="25.683936" lon="-100.227966">
        <ele>455.399</ele>
        <time>2020-02-03T17:13:32Z</time>
      </trkpt>
      <trkpt lat="25.683947" lon="-100.227943">
        <ele>455.886</ele>
        <time>2020-02-03T17:13:33Z</time>
      </trkpt>
      <trkpt lat="25.683964" lon="-100.227894">
        <ele>455.394</ele>
        <time>2020-02-03T17:13:35Z</time>
      </trkpt>
      <trkpt lat="25.683973" lon="-100.227871">
        <ele>456.473</ele>
        <time>2020-02-03T17:13:36Z</time>
      </trkpt>
      <trkpt lat="25.683981" lon="-100.227847">
        <ele>456.913</ele>
        <time>2020-02-03T17:13:37Z</time>
      </trkpt>
      <trkpt lat="25.684" lon="-100.227803">
        <ele>457.159</ele>
        <time>2020-02-03T17:13:39Z</time>
      </trkpt>
      <trkpt lat="25.684024" lon="-100.227759">
        <ele>457.601</ele>
        <time>2020-02-03T17:13:41Z</time>
      </trkpt>
      <trkpt lat="25.684038" lon="-100.227738">
        <ele>458.018</ele>
        <time>2020-02-03T17:13:42Z</time>
      </trkpt>
      <trkpt lat="25.684055" lon="-100.227716">
        <ele>457.765</ele>
        <time>2020-02-03T17:13:43Z</time>
      </trkpt>
      <trkpt lat="25.684085" lon="-100.227672">
        <ele>458.096</ele>
        <time>2020-02-03T17:13:45Z</time>
      </trkpt>
      <trkpt lat="25.68411" lon="-100.227626">
        <ele>457.144</ele>
        <time>2020-02-03T17:13:47Z</time>
      </trkpt>
      <trkpt lat="25.684122" lon="-100.227601">
        <ele>457.62</ele>
        <time>2020-02-03T17:13:48Z</time>
      </trkpt>
      <trkpt lat="25.684134" lon="-100.227577">
        <ele>457.559</ele>
        <time>2020-02-03T17:13:49Z</time>
      </trkpt>
      <trkpt lat="25.684166" lon="-100.227532">
        <ele>457.446</ele>
        <time>2020-02-03T17:13:51Z</time>
      </trkpt>
      <trkpt lat="25.684182" lon="-100.22751">
        <ele>456.994</ele>
        <time>2020-02-03T17:13:52Z</time>
      </trkpt>
      <trkpt lat="25.684204" lon="-100.227461">
        <ele>456.301</ele>
        <time>2020-02-03T17:13:54Z</time>
      </trkpt>
      <trkpt lat="25.68422" lon="-100.22741">
        <ele>457.088</ele>
        <time>2020-02-03T17:13:56Z</time>
      </trkpt>
      <trkpt lat="25.684229" lon="-100.227384">
        <ele>458.244</ele>
        <time>2020-02-03T17:13:57Z</time>
      </trkpt>
      <trkpt lat="25.684233" lon="-100.227283">
        <ele>458.493</ele>
        <time>2020-02-03T17:14:01Z</time>
      </trkpt>
      <trkpt lat="25.684233" lon="-100.22724">
        <ele>458.983</ele>
        <time>2020-02-03T17:14:03Z</time>
      </trkpt>
      <trkpt lat="25.684247" lon="-100.227192">
        <ele>457.688</ele>
        <time>2020-02-03T17:14:05Z</time>
      </trkpt>
      <trkpt lat="25.684254" lon="-100.227141">
        <ele>457.955</ele>
        <time>2020-02-03T17:14:07Z</time>
      </trkpt>
      <trkpt lat="25.684257" lon="-100.227114">
        <ele>458.629</ele>
        <time>2020-02-03T17:14:08Z</time>
      </trkpt>
      <trkpt lat="25.68426" lon="-100.227087">
        <ele>458.162</ele>
        <time>2020-02-03T17:14:09Z</time>
      </trkpt>
      <trkpt lat="25.684264" lon="-100.22706">
        <ele>458.924</ele>
        <time>2020-02-03T17:14:10Z</time>
      </trkpt>
      <trkpt lat="25.684266" lon="-100.227034">
        <ele>459.854</ele>
        <time>2020-02-03T17:14:11Z</time>
      </trkpt>
      <trkpt lat="25.684267" lon="-100.226984">
        <ele>461.597</ele>
        <time>2020-02-03T17:14:13Z</time>
      </trkpt>
      <trkpt lat="25.684269" lon="-100.226958">
        <ele>461.042</ele>
        <time>2020-02-03T17:14:14Z</time>
      </trkpt>
      <trkpt lat="25.684279" lon="-100.226907">
        <ele>462.192</ele>
        <time>2020-02-03T17:14:16Z</time>
      </trkpt>
      <trkpt lat="25.684283" lon="-100.226881">
        <ele>460.812</ele>
        <time>2020-02-03T17:14:17Z</time>
      </trkpt>
      <trkpt lat="25.684288" lon="-100.226855">
        <ele>461.385</ele>
        <time>2020-02-03T17:14:18Z</time>
      </trkpt>
      <trkpt lat="25.68429" lon="-100.226829">
        <ele>460.411</ele>
        <time>2020-02-03T17:14:19Z</time>
      </trkpt>
      <trkpt lat="25.684292" lon="-100.226801">
        <ele>460.134</ele>
        <time>2020-02-03T17:14:20Z</time>
      </trkpt>
      <trkpt lat="25.684295" lon="-100.226773">
        <ele>459.888</ele>
        <time>2020-02-03T17:14:21Z</time>
      </trkpt>
      <trkpt lat="25.684308" lon="-100.22672">
        <ele>459.955</ele>
        <time>2020-02-03T17:14:23Z</time>
      </trkpt>
      <trkpt lat="25.684315" lon="-100.226695">
        <ele>460.351</ele>
        <time>2020-02-03T17:14:24Z</time>
      </trkpt>
      <trkpt lat="25.684321" lon="-100.226667">
        <ele>460.478</ele>
        <time>2020-02-03T17:14:25Z</time>
      </trkpt>
      <trkpt lat="25.684327" lon="-100.22664">
        <ele>461.11</ele>
        <time>2020-02-03T17:14:26Z</time>
      </trkpt>
      <trkpt lat="25.68433" lon="-100.226614">
        <ele>461.554</ele>
        <time>2020-02-03T17:14:27Z</time>
      </trkpt>
      <trkpt lat="25.684333" lon="-100.226587">
        <ele>462.197</ele>
        <time>2020-02-03T17:14:28Z</time>
      </trkpt>
      <trkpt lat="25.684337" lon="-100.226561">
        <ele>462.213</ele>
        <time>2020-02-03T17:14:29Z</time>
      </trkpt>
      <trkpt lat="25.684355" lon="-100.226508">
        <ele>461.652</ele>
        <time>2020-02-03T17:14:31Z</time>
      </trkpt>
      <trkpt lat="25.684363" lon="-100.226482">
        <ele>462.098</ele>
        <time>2020-02-03T17:14:32Z</time>
      </trkpt>
      <trkpt lat="25.684361" lon="-100.226376">
        <ele>462.283</ele>
        <time>2020-02-03T17:14:36Z</time>
      </trkpt>
      <trkpt lat="25.684353" lon="-100.22632">
        <ele>462.316</ele>
        <time>2020-02-03T17:14:38Z</time>
      </trkpt>
      <trkpt lat="25.684353" lon="-100.226265">
        <ele>461.994</ele>
        <time>2020-02-03T17:14:40Z</time>
      </trkpt>
      <trkpt lat="25.684354" lon="-100.226239">
        <ele>462.165</ele>
        <time>2020-02-03T17:14:41Z</time>
      </trkpt>
      <trkpt lat="25.684357" lon="-100.226214">
        <ele>462.03</ele>
        <time>2020-02-03T17:14:42Z</time>
      </trkpt>
      <trkpt lat="25.684368" lon="-100.226163">
        <ele>461.866</ele>
        <time>2020-02-03T17:14:44Z</time>
      </trkpt>
      <trkpt lat="25.684373" lon="-100.226137">
        <ele>461.901</ele>
        <time>2020-02-03T17:14:45Z</time>
      </trkpt>
      <trkpt lat="25.684377" lon="-100.226111">
        <ele>461.501</ele>
        <time>2020-02-03T17:14:46Z</time>
      </trkpt>
      <trkpt lat="25.68438" lon="-100.226085">
        <ele>461.288</ele>
        <time>2020-02-03T17:14:47Z</time>
      </trkpt>
      <trkpt lat="25.684388" lon="-100.226038">
        <ele>461.229</ele>
        <time>2020-02-03T17:14:49Z</time>
      </trkpt>
      <trkpt lat="25.68439" lon="-100.225966">
        <ele>461.286</ele>
        <time>2020-02-03T17:14:52Z</time>
      </trkpt>
      <trkpt lat="25.68439" lon="-100.225918">
        <ele>461.377</ele>
        <time>2020-02-03T17:14:54Z</time>
      </trkpt>
      <trkpt lat="25.684393" lon="-100.225842">
        <ele>461.498</ele>
        <time>2020-02-03T17:14:57Z</time>
      </trkpt>
      <trkpt lat="25.684392" lon="-100.225816">
        <ele>461.358</ele>
        <time>2020-02-03T17:14:58Z</time>
      </trkpt>
      <trkpt lat="25.684392" lon="-100.22579">
        <ele>460.448</ele>
        <time>2020-02-03T17:14:59Z</time>
      </trkpt>
      <trkpt lat="25.684392" lon="-100.225764">
        <ele>460.625</ele>
        <time>2020-02-03T17:15:00Z</time>
      </trkpt>
      <trkpt lat="25.684389" lon="-100.225714">
        <ele>461.082</ele>
        <time>2020-02-03T17:15:02Z</time>
      </trkpt>
      <trkpt lat="25.684389" lon="-100.225689">
        <ele>461.18</ele>
        <time>2020-02-03T17:15:03Z</time>
      </trkpt>
      <trkpt lat="25.684402" lon="-100.225618">
        <ele>461.424</ele>
        <time>2020-02-03T17:15:06Z</time>
      </trkpt>
      <trkpt lat="25.684413" lon="-100.225553">
        <ele>461.263</ele>
        <time>2020-02-03T17:15:09Z</time>
      </trkpt>
      <trkpt lat="25.684414" lon="-100.225502">
        <ele>461.243</ele>
        <time>2020-02-03T17:15:12Z</time>
      </trkpt>
      <trkpt lat="25.684416" lon="-100.225465">
        <ele>461.308</ele>
        <time>2020-02-03T17:15:14Z</time>
      </trkpt>
      <trkpt lat="25.684418" lon="-100.225423">
        <ele>461.345</ele>
        <time>2020-02-03T17:15:16Z</time>
      </trkpt>
      <trkpt lat="25.684419" lon="-100.225373">
        <ele>461.514</ele>
        <time>2020-02-03T17:15:18Z</time>
      </trkpt>
      <trkpt lat="25.684421" lon="-100.225348">
        <ele>461.493</ele>
        <time>2020-02-03T17:15:19Z</time>
      </trkpt>
      <trkpt lat="25.684421" lon="-100.225321">
        <ele>461.01</ele>
        <time>2020-02-03T17:15:20Z</time>
      </trkpt>
      <trkpt lat="25.68442" lon="-100.225293">
        <ele>461.196</ele>
        <time>2020-02-03T17:15:21Z</time>
      </trkpt>
      <trkpt lat="25.68442" lon="-100.225266">
        <ele>461.383</ele>
        <time>2020-02-03T17:15:22Z</time>
      </trkpt>
      <trkpt lat="25.68442" lon="-100.225239">
        <ele>461.046</ele>
        <time>2020-02-03T17:15:23Z</time>
      </trkpt>
      <trkpt lat="25.684422" lon="-100.225212">
        <ele>460.784</ele>
        <time>2020-02-03T17:15:24Z</time>
      </trkpt>
      <trkpt lat="25.684424" lon="-100.225184">
        <ele>461.207</ele>
        <time>2020-02-03T17:15:25Z</time>
      </trkpt>
      <trkpt lat="25.684427" lon="-100.225158">
        <ele>460.685</ele>
        <time>2020-02-03T17:15:26Z</time>
      </trkpt>
      <trkpt lat="25.684428" lon="-100.225132">
        <ele>461.064</ele>
        <time>2020-02-03T17:15:27Z</time>
      </trkpt>
      <trkpt lat="25.68443" lon="-100.225107">
        <ele>460.569</ele>
        <time>2020-02-03T17:15:28Z</time>
      </trkpt>
      <trkpt lat="25.684431" lon="-100.225058">
        <ele>460.954</ele>
        <time>2020-02-03T17:15:30Z</time>
      </trkpt>
      <trkpt lat="25.684421" lon="-100.224985">
        <ele>460.685</ele>
        <time>2020-02-03T17:15:33Z</time>
      </trkpt>
      <trkpt lat="25.684415" lon="-100.224936">
        <ele>460.993</ele>
        <time>2020-02-03T17:15:35Z</time>
      </trkpt>
      <trkpt lat="25.684412" lon="-100.22486">
        <ele>461.262</ele>
        <time>2020-02-03T17:15:38Z</time>
      </trkpt>
      <trkpt lat="25.684413" lon="-100.224833">
        <ele>460.997</ele>
        <time>2020-02-03T17:15:39Z</time>
      </trkpt>
      <trkpt lat="25.684414" lon="-100.224806">
        <ele>460.689</ele>
        <time>2020-02-03T17:15:40Z</time>
      </trkpt>
      <trkpt lat="25.684414" lon="-100.224779">
        <ele>460.982</ele>
        <time>2020-02-03T17:15:41Z</time>
      </trkpt>
      <trkpt lat="25.684413" lon="-100.224753">
        <ele>461.105</ele>
        <time>2020-02-03T17:15:42Z</time>
      </trkpt>
      <trkpt lat="25.684413" lon="-100.224728">
        <ele>462.48</ele>
        <time>2020-02-03T17:15:43Z</time>
      </trkpt>
      <trkpt lat="25.684411" lon="-100.224702">
        <ele>462.352</ele>
        <time>2020-02-03T17:15:44Z</time>
      </trkpt>
      <trkpt lat="25.684408" lon="-100.224653">
        <ele>462.261</ele>
        <time>2020-02-03T17:15:46Z</time>
      </trkpt>
      <trkpt lat="25.684406" lon="-100.224627">
        <ele>462.429</ele>
        <time>2020-02-03T17:15:47Z</time>
      </trkpt>
      <trkpt lat="25.684393" lon="-100.224577">
        <ele>462.368</ele>
        <time>2020-02-03T17:15:49Z</time>
      </trkpt>
      <trkpt lat="25.684385" lon="-100.224507">
        <ele>462.054</ele>
        <time>2020-02-03T17:15:52Z</time>
      </trkpt>
      <trkpt lat="25.684383" lon="-100.224461">
        <ele>462.315</ele>
        <time>2020-02-03T17:15:54Z</time>
      </trkpt>
      <trkpt lat="25.684381" lon="-100.224411">
        <ele>462.759</ele>
        <time>2020-02-03T17:15:56Z</time>
      </trkpt>
      <trkpt lat="25.684379" lon="-100.224384">
        <ele>462.19</ele>
        <time>2020-02-03T17:15:57Z</time>
      </trkpt>
      <trkpt lat="25.684376" lon="-100.224359">
        <ele>462.527</ele>
        <time>2020-02-03T17:15:58Z</time>
      </trkpt>
      <trkpt lat="25.684367" lon="-100.224306">
        <ele>462.809</ele>
        <time>2020-02-03T17:16:00Z</time>
      </trkpt>
      <trkpt lat="25.684361" lon="-100.22425">
        <ele>462.839</ele>
        <time>2020-02-03T17:16:02Z</time>
      </trkpt>
      <trkpt lat="25.684358" lon="-100.224222">
        <ele>463.099</ele>
        <time>2020-02-03T17:16:03Z</time>
      </trkpt>
      <trkpt lat="25.684355" lon="-100.224194">
        <ele>463.541</ele>
        <time>2020-02-03T17:16:04Z</time>
      </trkpt>
      <trkpt lat="25.684353" lon="-100.224167">
        <ele>463.358</ele>
        <time>2020-02-03T17:16:05Z</time>
      </trkpt>
      <trkpt lat="25.684352" lon="-100.224138">
        <ele>462.273</ele>
        <time>2020-02-03T17:16:06Z</time>
      </trkpt>
      <trkpt lat="25.684351" lon="-100.224111">
        <ele>461.766</ele>
        <time>2020-02-03T17:16:07Z</time>
      </trkpt>
      <trkpt lat="25.684349" lon="-100.224084">
        <ele>457.244</ele>
        <time>2020-02-03T17:16:08Z</time>
      </trkpt>
      <trkpt lat="25.68434" lon="-100.224032">
        <ele>457.641</ele>
        <time>2020-02-03T17:16:10Z</time>
      </trkpt>
      <trkpt lat="25.684336" lon="-100.224007">
        <ele>459.001</ele>
        <time>2020-02-03T17:16:11Z</time>
      </trkpt>
      <trkpt lat="25.684333" lon="-100.22398">
        <ele>458.503</ele>
        <time>2020-02-03T17:16:12Z</time>
      </trkpt>
      <trkpt lat="25.684332" lon="-100.223953">
        <ele>457.176</ele>
        <time>2020-02-03T17:16:13Z</time>
      </trkpt>
      <trkpt lat="25.684334" lon="-100.223873">
        <ele>457.709</ele>
        <time>2020-02-03T17:16:16Z</time>
      </trkpt>
      <trkpt lat="25.684329" lon="-100.223818">
        <ele>457.315</ele>
        <time>2020-02-03T17:16:18Z</time>
      </trkpt>
      <trkpt lat="25.684325" lon="-100.223791">
        <ele>457.182</ele>
        <time>2020-02-03T17:16:19Z</time>
      </trkpt>
      <trkpt lat="25.684322" lon="-100.223764">
        <ele>456.529</ele>
        <time>2020-02-03T17:16:20Z</time>
      </trkpt>
      <trkpt lat="25.684319" lon="-100.223737">
        <ele>455.868</ele>
        <time>2020-02-03T17:16:21Z</time>
      </trkpt>
      <trkpt lat="25.684317" lon="-100.22371">
        <ele>455.438</ele>
        <time>2020-02-03T17:16:22Z</time>
      </trkpt>
      <trkpt lat="25.684308" lon="-100.223657">
        <ele>455.452</ele>
        <time>2020-02-03T17:16:24Z</time>
      </trkpt>
      <trkpt lat="25.684305" lon="-100.223631">
        <ele>455.255</ele>
        <time>2020-02-03T17:16:25Z</time>
      </trkpt>
      <trkpt lat="25.684303" lon="-100.223578">
        <ele>455.341</ele>
        <time>2020-02-03T17:16:27Z</time>
      </trkpt>
      <trkpt lat="25.684303" lon="-100.22355">
        <ele>455.057</ele>
        <time>2020-02-03T17:16:28Z</time>
      </trkpt>
      <trkpt lat="25.684302" lon="-100.22352">
        <ele>454.937</ele>
        <time>2020-02-03T17:16:29Z</time>
      </trkpt>
      <trkpt lat="25.684302" lon="-100.223491">
        <ele>455.866</ele>
        <time>2020-02-03T17:16:30Z</time>
      </trkpt>
      <trkpt lat="25.684301" lon="-100.223461">
        <ele>455.737</ele>
        <time>2020-02-03T17:16:31Z</time>
      </trkpt>
      <trkpt lat="25.684301" lon="-100.223433">
        <ele>456.111</ele>
        <time>2020-02-03T17:16:32Z</time>
      </trkpt>
      <trkpt lat="25.684301" lon="-100.223406">
        <ele>456.692</ele>
        <time>2020-02-03T17:16:33Z</time>
      </trkpt>
      <trkpt lat="25.684297" lon="-100.223368">
        <ele>456.74</ele>
        <time>2020-02-03T17:16:35Z</time>
      </trkpt>
      <trkpt lat="25.684292" lon="-100.223331">
        <ele>457.061</ele>
        <time>2020-02-03T17:16:37Z</time>
      </trkpt>
      <trkpt lat="25.684289" lon="-100.223306">
        <ele>456.898</ele>
        <time>2020-02-03T17:16:39Z</time>
      </trkpt>
      <trkpt lat="25.684327" lon="-100.22324">
        <ele>456.644</ele>
        <time>2020-02-03T17:16:46Z</time>
      </trkpt>
      <trkpt lat="25.684328" lon="-100.223182">
        <ele>455.986</ele>
        <time>2020-02-03T17:16:48Z</time>
      </trkpt>
      <trkpt lat="25.684313" lon="-100.223114">
        <ele>455.752</ele>
        <time>2020-02-03T17:16:50Z</time>
      </trkpt>
      <trkpt lat="25.684296" lon="-100.223065">
        <ele>455.326</ele>
        <time>2020-02-03T17:16:52Z</time>
      </trkpt>
      <trkpt lat="25.684271" lon="-100.222999">
        <ele>455.98</ele>
        <time>2020-02-03T17:16:56Z</time>
      </trkpt>
      <trkpt lat="25.684252" lon="-100.22293">
        <ele>456.501</ele>
        <time>2020-02-03T17:16:58Z</time>
      </trkpt>
      <trkpt lat="25.684243" lon="-100.2229">
        <ele>457.351</ele>
        <time>2020-02-03T17:16:59Z</time>
      </trkpt>
      <trkpt lat="25.684234" lon="-100.222871">
        <ele>457.398</ele>
        <time>2020-02-03T17:17:00Z</time>
      </trkpt>
      <trkpt lat="25.684226" lon="-100.222843">
        <ele>457.23</ele>
        <time>2020-02-03T17:17:01Z</time>
      </trkpt>
      <trkpt lat="25.684216" lon="-100.222798">
        <ele>457.004</ele>
        <time>2020-02-03T17:17:03Z</time>
      </trkpt>
      <trkpt lat="25.684209" lon="-100.222747">
        <ele>456.576</ele>
        <time>2020-02-03T17:17:05Z</time>
      </trkpt>
      <trkpt lat="25.6842" lon="-100.222685">
        <ele>457.495</ele>
        <time>2020-02-03T17:17:07Z</time>
      </trkpt>
      <trkpt lat="25.684193" lon="-100.222654">
        <ele>457.626</ele>
        <time>2020-02-03T17:17:08Z</time>
      </trkpt>
      <trkpt lat="25.684192" lon="-100.222599">
        <ele>457.449</ele>
        <time>2020-02-03T17:17:10Z</time>
      </trkpt>
      <trkpt lat="25.684194" lon="-100.222572">
        <ele>458.002</ele>
        <time>2020-02-03T17:17:11Z</time>
      </trkpt>
      <trkpt lat="25.684195" lon="-100.222545">
        <ele>458.708</ele>
        <time>2020-02-03T17:17:12Z</time>
      </trkpt>
      <trkpt lat="25.684195" lon="-100.222518">
        <ele>458.306</ele>
        <time>2020-02-03T17:17:13Z</time>
      </trkpt>
      <trkpt lat="25.684194" lon="-100.222492">
        <ele>458.306</ele>
        <time>2020-02-03T17:17:14Z</time>
      </trkpt>
      <trkpt lat="25.684194" lon="-100.222465">
        <ele>456.062</ele>
        <time>2020-02-03T17:17:15Z</time>
      </trkpt>
      <trkpt lat="25.684192" lon="-100.222438">
        <ele>453.799</ele>
        <time>2020-02-03T17:17:16Z</time>
      </trkpt>
      <trkpt lat="25.684191" lon="-100.222411">
        <ele>452.163</ele>
        <time>2020-02-03T17:17:17Z</time>
      </trkpt>
      <trkpt lat="25.684189" lon="-100.222384">
        <ele>452.025</ele>
        <time>2020-02-03T17:17:18Z</time>
      </trkpt>
      <trkpt lat="25.684189" lon="-100.222332">
        <ele>452.82</ele>
        <time>2020-02-03T17:17:20Z</time>
      </trkpt>
      <trkpt lat="25.684187" lon="-100.222306">
        <ele>453.27</ele>
        <time>2020-02-03T17:17:21Z</time>
      </trkpt>
      <trkpt lat="25.684184" lon="-100.222279">
        <ele>453.198</ele>
        <time>2020-02-03T17:17:22Z</time>
      </trkpt>
      <trkpt lat="25.684173" lon="-100.222225">
        <ele>454.976</ele>
        <time>2020-02-03T17:17:24Z</time>
      </trkpt>
      <trkpt lat="25.684157" lon="-100.222175">
        <ele>455.567</ele>
        <time>2020-02-03T17:17:26Z</time>
      </trkpt>
      <trkpt lat="25.68415" lon="-100.222123">
        <ele>455.77</ele>
        <time>2020-02-03T17:17:28Z</time>
      </trkpt>
      <trkpt lat="25.684147" lon="-100.222095">
        <ele>457.447</ele>
        <time>2020-02-03T17:17:29Z</time>
      </trkpt>
      <trkpt lat="25.684146" lon="-100.222067">
        <ele>457.676</ele>
        <time>2020-02-03T17:17:30Z</time>
      </trkpt>
      <trkpt lat="25.684144" lon="-100.222038">
        <ele>456.705</ele>
        <time>2020-02-03T17:17:31Z</time>
      </trkpt>
      <trkpt lat="25.684143" lon="-100.222008">
        <ele>456.301</ele>
        <time>2020-02-03T17:17:32Z</time>
      </trkpt>
      <trkpt lat="25.684142" lon="-100.221978">
        <ele>455.599</ele>
        <time>2020-02-03T17:17:33Z</time>
      </trkpt>
      <trkpt lat="25.684143" lon="-100.221949">
        <ele>455.065</ele>
        <time>2020-02-03T17:17:34Z</time>
      </trkpt>
      <trkpt lat="25.684145" lon="-100.221919">
        <ele>453.893</ele>
        <time>2020-02-03T17:17:35Z</time>
      </trkpt>
      <trkpt lat="25.684147" lon="-100.22189">
        <ele>453.255</ele>
        <time>2020-02-03T17:17:36Z</time>
      </trkpt>
      <trkpt lat="25.68415" lon="-100.22186">
        <ele>454.684</ele>
        <time>2020-02-03T17:17:37Z</time>
      </trkpt>
      <trkpt lat="25.684154" lon="-100.221833">
        <ele>455.154</ele>
        <time>2020-02-03T17:17:38Z</time>
      </trkpt>
      <trkpt lat="25.684155" lon="-100.221806">
        <ele>456.416</ele>
        <time>2020-02-03T17:17:39Z</time>
      </trkpt>
      <trkpt lat="25.68415" lon="-100.221756">
        <ele>459.121</ele>
        <time>2020-02-03T17:17:41Z</time>
      </trkpt>
      <trkpt lat="25.68415" lon="-100.221756">
        <ele>459.638</ele>
        <time>2020-02-03T17:17:46Z</time>
      </trkpt>
      <trkpt lat="25.684146" lon="-100.221707">
        <ele>460.757</ele>
        <time>2020-02-03T17:17:47Z</time>
      </trkpt>
      <trkpt lat="25.684159" lon="-100.221656">
        <ele>460.842</ele>
        <time>2020-02-03T17:17:56Z</time>
      </trkpt>
      <trkpt lat="25.684149" lon="-100.2216">
        <ele>461.617</ele>
        <time>2020-02-03T17:18:00Z</time>
      </trkpt>
      <trkpt lat="25.684142" lon="-100.22157">
        <ele>462.176</ele>
        <time>2020-02-03T17:18:02Z</time>
      </trkpt>
      <trkpt lat="25.684137" lon="-100.221544">
        <ele>461.199</ele>
        <time>2020-02-03T17:18:04Z</time>
      </trkpt>
      <trkpt lat="25.684112" lon="-100.221486">
        <ele>461.825</ele>
        <time>2020-02-03T17:18:08Z</time>
      </trkpt>
      <trkpt lat="25.684102" lon="-100.221459">
        <ele>462.885</ele>
        <time>2020-02-03T17:18:10Z</time>
      </trkpt>
      <trkpt lat="25.684103" lon="-100.221403">
        <ele>463.178</ele>
        <time>2020-02-03T17:18:14Z</time>
      </trkpt>
      <trkpt lat="25.684092" lon="-100.221354">
        <ele>460.382</ele>
        <time>2020-02-03T17:18:18Z</time>
      </trkpt>
      <trkpt lat="25.684072" lon="-100.221305">
        <ele>459.969</ele>
        <time>2020-02-03T17:18:22Z</time>
      </trkpt>
      <trkpt lat="25.684062" lon="-100.221224">
        <ele>460.137</ele>
        <time>2020-02-03T17:18:25Z</time>
      </trkpt>
      <trkpt lat="25.684061" lon="-100.221163">
        <ele>459.755</ele>
        <time>2020-02-03T17:18:27Z</time>
      </trkpt>
      <trkpt lat="25.684061" lon="-100.221131">
        <ele>459.773</ele>
        <time>2020-02-03T17:18:28Z</time>
      </trkpt>
      <trkpt lat="25.684065" lon="-100.221068">
        <ele>459.637</ele>
        <time>2020-02-03T17:18:30Z</time>
      </trkpt>
      <trkpt lat="25.684062" lon="-100.221007">
        <ele>458.559</ele>
        <time>2020-02-03T17:18:32Z</time>
      </trkpt>
      <trkpt lat="25.684053" lon="-100.220951">
        <ele>458.095</ele>
        <time>2020-02-03T17:18:34Z</time>
      </trkpt>
      <trkpt lat="25.68404" lon="-100.220897">
        <ele>458.358</ele>
        <time>2020-02-03T17:18:36Z</time>
      </trkpt>
      <trkpt lat="25.684049" lon="-100.22084">
        <ele>459.071</ele>
        <time>2020-02-03T17:18:38Z</time>
      </trkpt>
      <trkpt lat="25.684046" lon="-100.220787">
        <ele>458.862</ele>
        <time>2020-02-03T17:18:40Z</time>
      </trkpt>
      <trkpt lat="25.684045" lon="-100.220762">
        <ele>458.458</ele>
        <time>2020-02-03T17:18:41Z</time>
      </trkpt>
      <trkpt lat="25.684035" lon="-100.220687">
        <ele>457.495</ele>
        <time>2020-02-03T17:18:44Z</time>
      </trkpt>
      <trkpt lat="25.684032" lon="-100.220632">
        <ele>457.68</ele>
        <time>2020-02-03T17:18:46Z</time>
      </trkpt>
      <trkpt lat="25.684029" lon="-100.220602">
        <ele>457.788</ele>
        <time>2020-02-03T17:18:47Z</time>
      </trkpt>
      <trkpt lat="25.684028" lon="-100.220543">
        <ele>455.83</ele>
        <time>2020-02-03T17:18:49Z</time>
      </trkpt>
      <trkpt lat="25.684029" lon="-100.220514">
        <ele>455.493</ele>
        <time>2020-02-03T17:18:50Z</time>
      </trkpt>
      <trkpt lat="25.684029" lon="-100.220488">
        <ele>456.07</ele>
        <time>2020-02-03T17:18:51Z</time>
      </trkpt>
      <trkpt lat="25.68403" lon="-100.220439">
        <ele>455.074</ele>
        <time>2020-02-03T17:18:53Z</time>
      </trkpt>
      <trkpt lat="25.684023" lon="-100.220372">
        <ele>455.701</ele>
        <time>2020-02-03T17:18:56Z</time>
      </trkpt>
      <trkpt lat="25.68402" lon="-100.220328">
        <ele>457.124</ele>
        <time>2020-02-03T17:18:58Z</time>
      </trkpt>
      <trkpt lat="25.684016" lon="-100.22028">
        <ele>458.083</ele>
        <time>2020-02-03T17:19:00Z</time>
      </trkpt>
      <trkpt lat="25.684013" lon="-100.22023">
        <ele>457.606</ele>
        <time>2020-02-03T17:19:02Z</time>
      </trkpt>
      <trkpt lat="25.683997" lon="-100.220158">
        <ele>457.581</ele>
        <time>2020-02-03T17:19:05Z</time>
      </trkpt>
      <trkpt lat="25.683993" lon="-100.220088">
        <ele>457.198</ele>
        <time>2020-02-03T17:19:08Z</time>
      </trkpt>
      <trkpt lat="25.683993" lon="-100.220061">
        <ele>458.04</ele>
        <time>2020-02-03T17:19:09Z</time>
      </trkpt>
      <trkpt lat="25.683993" lon="-100.220036">
        <ele>458.249</ele>
        <time>2020-02-03T17:19:10Z</time>
      </trkpt>
      <trkpt lat="25.683999" lon="-100.219987">
        <ele>458.171</ele>
        <time>2020-02-03T17:19:12Z</time>
      </trkpt>
      <trkpt lat="25.684003" lon="-100.219961">
        <ele>458.393</ele>
        <time>2020-02-03T17:19:13Z</time>
      </trkpt>
      <trkpt lat="25.684007" lon="-100.219893">
        <ele>459.76</ele>
        <time>2020-02-03T17:19:16Z</time>
      </trkpt>
      <trkpt lat="25.684009" lon="-100.21985">
        <ele>458.729</ele>
        <time>2020-02-03T17:19:18Z</time>
      </trkpt>
      <trkpt lat="25.684014" lon="-100.219804">
        <ele>458.611</ele>
        <time>2020-02-03T17:19:20Z</time>
      </trkpt>
      <trkpt lat="25.684018" lon="-100.219755">
        <ele>458.716</ele>
        <time>2020-02-03T17:19:22Z</time>
      </trkpt>
      <trkpt lat="25.684023" lon="-100.219705">
        <ele>457.578</ele>
        <time>2020-02-03T17:19:24Z</time>
      </trkpt>
      <trkpt lat="25.684025" lon="-100.21968">
        <ele>457.612</ele>
        <time>2020-02-03T17:19:25Z</time>
      </trkpt>
      <trkpt lat="25.68403" lon="-100.219631">
        <ele>457.4</ele>
        <time>2020-02-03T17:19:27Z</time>
      </trkpt>
      <trkpt lat="25.68403" lon="-100.219565">
        <ele>457.382</ele>
        <time>2020-02-03T17:19:30Z</time>
      </trkpt>
      <trkpt lat="25.684031" lon="-100.219517">
        <ele>455.844</ele>
        <time>2020-02-03T17:19:32Z</time>
      </trkpt>
      <trkpt lat="25.684033" lon="-100.219472">
        <ele>456.155</ele>
        <time>2020-02-03T17:19:34Z</time>
      </trkpt>
      <trkpt lat="25.684032" lon="-100.219427">
        <ele>456.175</ele>
        <time>2020-02-03T17:19:36Z</time>
      </trkpt>
      <trkpt lat="25.68403" lon="-100.219379">
        <ele>455.86</ele>
        <time>2020-02-03T17:19:38Z</time>
      </trkpt>
      <trkpt lat="25.684029" lon="-100.21931">
        <ele>456.609</ele>
        <time>2020-02-03T17:19:41Z</time>
      </trkpt>
      <trkpt lat="25.684029" lon="-100.219263">
        <ele>457.129</ele>
        <time>2020-02-03T17:19:43Z</time>
      </trkpt>
      <trkpt lat="25.684028" lon="-100.219212">
        <ele>458.022</ele>
        <time>2020-02-03T17:19:45Z</time>
      </trkpt>
      <trkpt lat="25.684023" lon="-100.219142">
        <ele>458.024</ele>
        <time>2020-02-03T17:19:49Z</time>
      </trkpt>
      <trkpt lat="25.684022" lon="-100.219113">
        <ele>457.886</ele>
        <time>2020-02-03T17:19:50Z</time>
      </trkpt>
      <trkpt lat="25.684023" lon="-100.219084">
        <ele>457.957</ele>
        <time>2020-02-03T17:19:51Z</time>
      </trkpt>
      <trkpt lat="25.684025" lon="-100.219054">
        <ele>458.606</ele>
        <time>2020-02-03T17:19:52Z</time>
      </trkpt>
      <trkpt lat="25.68403" lon="-100.219002">
        <ele>458.265</ele>
        <time>2020-02-03T17:19:54Z</time>
      </trkpt>
      <trkpt lat="25.68403" lon="-100.218946">
        <ele>457.607</ele>
        <time>2020-02-03T17:19:56Z</time>
      </trkpt>
      <trkpt lat="25.68403" lon="-100.21892">
        <ele>457.515</ele>
        <time>2020-02-03T17:19:57Z</time>
      </trkpt>
      <trkpt lat="25.684029" lon="-100.218872">
        <ele>456.836</ele>
        <time>2020-02-03T17:19:59Z</time>
      </trkpt>
      <trkpt lat="25.684026" lon="-100.21883">
        <ele>457.082</ele>
        <time>2020-02-03T17:20:01Z</time>
      </trkpt>
      <trkpt lat="25.684024" lon="-100.218786">
        <ele>457.329</ele>
        <time>2020-02-03T17:20:03Z</time>
      </trkpt>
      <trkpt lat="25.684024" lon="-100.218761">
        <ele>454.507</ele>
        <time>2020-02-03T17:20:04Z</time>
      </trkpt>
      <trkpt lat="25.684024" lon="-100.218735">
        <ele>453.97</ele>
        <time>2020-02-03T17:20:05Z</time>
      </trkpt>
      <trkpt lat="25.68402" lon="-100.218636">
        <ele>455.122</ele>
        <time>2020-02-03T17:20:09Z</time>
      </trkpt>
      <trkpt lat="25.68402" lon="-100.218611">
        <ele>456.235</ele>
        <time>2020-02-03T17:20:10Z</time>
      </trkpt>
      <trkpt lat="25.68402" lon="-100.218584">
        <ele>455.523</ele>
        <time>2020-02-03T17:20:11Z</time>
      </trkpt>
      <trkpt lat="25.684017" lon="-100.218557">
        <ele>454.61</ele>
        <time>2020-02-03T17:20:12Z</time>
      </trkpt>
      <trkpt lat="25.684005" lon="-100.218506">
        <ele>453.88</ele>
        <time>2020-02-03T17:20:14Z</time>
      </trkpt>
      <trkpt lat="25.683999" lon="-100.218482">
        <ele>452.924</ele>
        <time>2020-02-03T17:20:15Z</time>
      </trkpt>
      <trkpt lat="25.683995" lon="-100.218457">
        <ele>452.453</ele>
        <time>2020-02-03T17:20:16Z</time>
      </trkpt>
      <trkpt lat="25.683992" lon="-100.218432">
        <ele>452.182</ele>
        <time>2020-02-03T17:20:17Z</time>
      </trkpt>
      <trkpt lat="25.684" lon="-100.218358">
        <ele>453.894</ele>
        <time>2020-02-03T17:20:20Z</time>
      </trkpt>
      <trkpt lat="25.684002" lon="-100.218312">
        <ele>452.669</ele>
        <time>2020-02-03T17:20:22Z</time>
      </trkpt>
      <trkpt lat="25.684002" lon="-100.218263">
        <ele>452.465</ele>
        <time>2020-02-03T17:20:24Z</time>
      </trkpt>
      <trkpt lat="25.684003" lon="-100.218238">
        <ele>452.634</ele>
        <time>2020-02-03T17:20:25Z</time>
      </trkpt>
      <trkpt lat="25.684007" lon="-100.218187">
        <ele>452.628</ele>
        <time>2020-02-03T17:20:27Z</time>
      </trkpt>
      <trkpt lat="25.684006" lon="-100.218135">
        <ele>453.412</ele>
        <time>2020-02-03T17:20:29Z</time>
      </trkpt>
      <trkpt lat="25.684007" lon="-100.218106">
        <ele>453.389</ele>
        <time>2020-02-03T17:20:30Z</time>
      </trkpt>
      <trkpt lat="25.684009" lon="-100.218078">
        <ele>453.139</ele>
        <time>2020-02-03T17:20:31Z</time>
      </trkpt>
      <trkpt lat="25.684009" lon="-100.218052">
        <ele>452.518</ele>
        <time>2020-02-03T17:20:32Z</time>
      </trkpt>
      <trkpt lat="25.684008" lon="-100.218025">
        <ele>452.87</ele>
        <time>2020-02-03T17:20:33Z</time>
      </trkpt>
      <trkpt lat="25.684005" lon="-100.217999">
        <ele>451.972</ele>
        <time>2020-02-03T17:20:34Z</time>
      </trkpt>
      <trkpt lat="25.684002" lon="-100.217974">
        <ele>452.054</ele>
        <time>2020-02-03T17:20:35Z</time>
      </trkpt>
      <trkpt lat="25.684001" lon="-100.217948">
        <ele>452.102</ele>
        <time>2020-02-03T17:20:36Z</time>
      </trkpt>
      <trkpt lat="25.684001" lon="-100.217894">
        <ele>452.991</ele>
        <time>2020-02-03T17:20:39Z</time>
      </trkpt>
      <trkpt lat="25.684" lon="-100.217844">
        <ele>453.5</ele>
        <time>2020-02-03T17:20:41Z</time>
      </trkpt>
      <trkpt lat="25.683997" lon="-100.217795">
        <ele>453.436</ele>
        <time>2020-02-03T17:20:43Z</time>
      </trkpt>
      <trkpt lat="25.683997" lon="-100.21777">
        <ele>452.747</ele>
        <time>2020-02-03T17:20:44Z</time>
      </trkpt>
      <trkpt lat="25.683999" lon="-100.217744">
        <ele>451.711</ele>
        <time>2020-02-03T17:20:45Z</time>
      </trkpt>
      <trkpt lat="25.684" lon="-100.217697">
        <ele>451.854</ele>
        <time>2020-02-03T17:20:47Z</time>
      </trkpt>
      <trkpt lat="25.683984" lon="-100.217625">
        <ele>450.987</ele>
        <time>2020-02-03T17:20:50Z</time>
      </trkpt>
      <trkpt lat="25.683988" lon="-100.217553">
        <ele>451.054</ele>
        <time>2020-02-03T17:20:53Z</time>
      </trkpt>
      <trkpt lat="25.683996" lon="-100.217484">
        <ele>451.899</ele>
        <time>2020-02-03T17:20:56Z</time>
      </trkpt>
      <trkpt lat="25.683994" lon="-100.217433">
        <ele>451.468</ele>
        <time>2020-02-03T17:20:58Z</time>
      </trkpt>
      <trkpt lat="25.683992" lon="-100.217408">
        <ele>451.322</ele>
        <time>2020-02-03T17:20:59Z</time>
      </trkpt>
      <trkpt lat="25.683988" lon="-100.217358">
        <ele>451.658</ele>
        <time>2020-02-03T17:21:01Z</time>
      </trkpt>
      <trkpt lat="25.683988" lon="-100.217332">
        <ele>451.704</ele>
        <time>2020-02-03T17:21:02Z</time>
      </trkpt>
      <trkpt lat="25.683988" lon="-100.217307">
        <ele>452.572</ele>
        <time>2020-02-03T17:21:03Z</time>
      </trkpt>
      <trkpt lat="25.683988" lon="-100.217252">
        <ele>452.663</ele>
        <time>2020-02-03T17:21:05Z</time>
      </trkpt>
      <trkpt lat="25.683988" lon="-100.217223">
        <ele>453.18</ele>
        <time>2020-02-03T17:21:06Z</time>
      </trkpt>
      <trkpt lat="25.683987" lon="-100.217195">
        <ele>453.1</ele>
        <time>2020-02-03T17:21:07Z</time>
      </trkpt>
      <trkpt lat="25.683987" lon="-100.217168">
        <ele>452.826</ele>
        <time>2020-02-03T17:21:08Z</time>
      </trkpt>
      <trkpt lat="25.683987" lon="-100.217139">
        <ele>452.763</ele>
        <time>2020-02-03T17:21:09Z</time>
      </trkpt>
      <trkpt lat="25.683986" lon="-100.217109">
        <ele>452.481</ele>
        <time>2020-02-03T17:21:10Z</time>
      </trkpt>
      <trkpt lat="25.683986" lon="-100.217078">
        <ele>452.198</ele>
        <time>2020-02-03T17:21:11Z</time>
      </trkpt>
      <trkpt lat="25.683986" lon="-100.217047">
        <ele>452.0</ele>
        <time>2020-02-03T17:21:12Z</time>
      </trkpt>
      <trkpt lat="25.683987" lon="-100.217018">
        <ele>452.188</ele>
        <time>2020-02-03T17:21:13Z</time>
      </trkpt>
      <trkpt lat="25.683995" lon="-100.216963">
        <ele>452.687</ele>
        <time>2020-02-03T17:21:15Z</time>
      </trkpt>
      <trkpt lat="25.683998" lon="-100.216935">
        <ele>453.25</ele>
        <time>2020-02-03T17:21:16Z</time>
      </trkpt>
      <trkpt lat="25.684" lon="-100.216907">
        <ele>452.98</ele>
        <time>2020-02-03T17:21:17Z</time>
      </trkpt>
      <trkpt lat="25.684001" lon="-100.21688">
        <ele>453.713</ele>
        <time>2020-02-03T17:21:18Z</time>
      </trkpt>
      <trkpt lat="25.684012" lon="-100.216831">
        <ele>452.555</ele>
        <time>2020-02-03T17:21:20Z</time>
      </trkpt>
      <trkpt lat="25.684018" lon="-100.216806">
        <ele>449.476</ele>
        <time>2020-02-03T17:21:21Z</time>
      </trkpt>
      <trkpt lat="25.684019" lon="-100.216732">
        <ele>449.81</ele>
        <time>2020-02-03T17:21:24Z</time>
      </trkpt>
      <trkpt lat="25.684032" lon="-100.216643">
        <ele>450.687</ele>
        <time>2020-02-03T17:21:27Z</time>
      </trkpt>
      <trkpt lat="25.684032" lon="-100.216583">
        <ele>450.266</ele>
        <time>2020-02-03T17:21:29Z</time>
      </trkpt>
      <trkpt lat="25.684025" lon="-100.216522">
        <ele>449.96</ele>
        <time>2020-02-03T17:21:31Z</time>
      </trkpt>
      <trkpt lat="25.684024" lon="-100.216441">
        <ele>449.954</ele>
        <time>2020-02-03T17:21:34Z</time>
      </trkpt>
      <trkpt lat="25.684026" lon="-100.2164">
        <ele>448.27</ele>
        <time>2020-02-03T17:21:36Z</time>
      </trkpt>
      <trkpt lat="25.684026" lon="-100.216346">
        <ele>449.304</ele>
        <time>2020-02-03T17:21:38Z</time>
      </trkpt>
      <trkpt lat="25.684025" lon="-100.216318">
        <ele>449.183</ele>
        <time>2020-02-03T17:21:39Z</time>
      </trkpt>
      <trkpt lat="25.684029" lon="-100.216263">
        <ele>448.974</ele>
        <time>2020-02-03T17:21:41Z</time>
      </trkpt>
      <trkpt lat="25.684037" lon="-100.216205">
        <ele>448.842</ele>
        <time>2020-02-03T17:21:43Z</time>
      </trkpt>
      <trkpt lat="25.684036" lon="-100.21615">
        <ele>449.165</ele>
        <time>2020-02-03T17:21:45Z</time>
      </trkpt>
      <trkpt lat="25.684036" lon="-100.216122">
        <ele>448.969</ele>
        <time>2020-02-03T17:21:46Z</time>
      </trkpt>
      <trkpt lat="25.684036" lon="-100.216094">
        <ele>448.086</ele>
        <time>2020-02-03T17:21:47Z</time>
      </trkpt>
      <trkpt lat="25.684035" lon="-100.216066">
        <ele>448.064</ele>
        <time>2020-02-03T17:21:48Z</time>
      </trkpt>
      <trkpt lat="25.684036" lon="-100.216038">
        <ele>448.411</ele>
        <time>2020-02-03T17:21:49Z</time>
      </trkpt>
      <trkpt lat="25.684037" lon="-100.216009">
        <ele>447.403</ele>
        <time>2020-02-03T17:21:50Z</time>
      </trkpt>
      <trkpt lat="25.684037" lon="-100.215981">
        <ele>446.876</ele>
        <time>2020-02-03T17:21:51Z</time>
      </trkpt>
      <trkpt lat="25.684032" lon="-100.215923">
        <ele>447.007</ele>
        <time>2020-02-03T17:21:53Z</time>
      </trkpt>
      <trkpt lat="25.684031" lon="-100.215894">
        <ele>446.624</ele>
        <time>2020-02-03T17:21:54Z</time>
      </trkpt>
      <trkpt lat="25.684033" lon="-100.215839">
        <ele>445.533</ele>
        <time>2020-02-03T17:21:56Z</time>
      </trkpt>
      <trkpt lat="25.684034" lon="-100.21581">
        <ele>445.19</ele>
        <time>2020-02-03T17:21:57Z</time>
      </trkpt>
      <trkpt lat="25.684036" lon="-100.215775">
        <ele>444.71</ele>
        <time>2020-02-03T17:21:59Z</time>
      </trkpt>
      <trkpt lat="25.684047" lon="-100.215706">
        <ele>444.223</ele>
        <time>2020-02-03T17:22:03Z</time>
      </trkpt>
      <trkpt lat="25.684043" lon="-100.215654">
        <ele>444.262</ele>
        <time>2020-02-03T17:22:05Z</time>
      </trkpt>
      <trkpt lat="25.684042" lon="-100.215628">
        <ele>443.906</ele>
        <time>2020-02-03T17:22:06Z</time>
      </trkpt>
      <trkpt lat="25.684042" lon="-100.215552">
        <ele>446.307</ele>
        <time>2020-02-03T17:22:09Z</time>
      </trkpt>
      <trkpt lat="25.684043" lon="-100.215525">
        <ele>447.019</ele>
        <time>2020-02-03T17:22:10Z</time>
      </trkpt>
      <trkpt lat="25.684046" lon="-100.215499">
        <ele>445.154</ele>
        <time>2020-02-03T17:22:11Z</time>
      </trkpt>
      <trkpt lat="25.684048" lon="-100.215466">
        <ele>444.667</ele>
        <time>2020-02-03T17:22:13Z</time>
      </trkpt>
      <trkpt lat="25.684047" lon="-100.215394">
        <ele>446.66</ele>
        <time>2020-02-03T17:22:16Z</time>
      </trkpt>
      <trkpt lat="25.684046" lon="-100.215346">
        <ele>447.974</ele>
        <time>2020-02-03T17:22:18Z</time>
      </trkpt>
      <trkpt lat="25.684046" lon="-100.215319">
        <ele>448.381</ele>
        <time>2020-02-03T17:22:19Z</time>
      </trkpt>
      <trkpt lat="25.684045" lon="-100.215292">
        <ele>448.449</ele>
        <time>2020-02-03T17:22:20Z</time>
      </trkpt>
      <trkpt lat="25.684045" lon="-100.215264">
        <ele>448.492</ele>
        <time>2020-02-03T17:22:21Z</time>
      </trkpt>
      <trkpt lat="25.684043" lon="-100.215238">
        <ele>449.27</ele>
        <time>2020-02-03T17:22:22Z</time>
      </trkpt>
      <trkpt lat="25.68404" lon="-100.215213">
        <ele>449.109</ele>
        <time>2020-02-03T17:22:23Z</time>
      </trkpt>
      <trkpt lat="25.684038" lon="-100.215167">
        <ele>450.025</ele>
        <time>2020-02-03T17:22:25Z</time>
      </trkpt>
      <trkpt lat="25.684043" lon="-100.215097">
        <ele>450.634</ele>
        <time>2020-02-03T17:22:28Z</time>
      </trkpt>
      <trkpt lat="25.68404" lon="-100.215037">
        <ele>450.634</ele>
        <time>2020-02-03T17:22:31Z</time>
      </trkpt>
      <trkpt lat="25.684043" lon="-100.214964">
        <ele>450.654</ele>
        <time>2020-02-03T17:22:34Z</time>
      </trkpt>
      <trkpt lat="25.684044" lon="-100.214914">
        <ele>450.028</ele>
        <time>2020-02-03T17:22:36Z</time>
      </trkpt>
      <trkpt lat="25.684048" lon="-100.214862">
        <ele>450.157</ele>
        <time>2020-02-03T17:22:38Z</time>
      </trkpt>
      <trkpt lat="25.684049" lon="-100.214835">
        <ele>450.098</ele>
        <time>2020-02-03T17:22:39Z</time>
      </trkpt>
      <trkpt lat="25.684049" lon="-100.214809">
        <ele>448.682</ele>
        <time>2020-02-03T17:22:40Z</time>
      </trkpt>
      <trkpt lat="25.684049" lon="-100.214784">
        <ele>447.927</ele>
        <time>2020-02-03T17:22:41Z</time>
      </trkpt>
      <trkpt lat="25.684051" lon="-100.214759">
        <ele>446.598</ele>
        <time>2020-02-03T17:22:42Z</time>
      </trkpt>
      <trkpt lat="25.684052" lon="-100.214733">
        <ele>446.033</ele>
        <time>2020-02-03T17:22:43Z</time>
      </trkpt>
      <trkpt lat="25.684053" lon="-100.214708">
        <ele>446.207</ele>
        <time>2020-02-03T17:22:44Z</time>
      </trkpt>
      <trkpt lat="25.684033" lon="-100.214634">
        <ele>446.153</ele>
        <time>2020-02-03T17:22:47Z</time>
      </trkpt>
      <trkpt lat="25.68403" lon="-100.214573">
        <ele>446.13</ele>
        <time>2020-02-03T17:22:49Z</time>
      </trkpt>
      <trkpt lat="25.684052" lon="-100.214491">
        <ele>445.908</ele>
        <time>2020-02-03T17:22:52Z</time>
      </trkpt>
      <trkpt lat="25.684066" lon="-100.214447">
        <ele>445.866</ele>
        <time>2020-02-03T17:22:54Z</time>
      </trkpt>
      <trkpt lat="25.684079" lon="-100.214382">
        <ele>444.791</ele>
        <time>2020-02-03T17:22:57Z</time>
      </trkpt>
      <trkpt lat="25.68411" lon="-100.214337">
        <ele>444.562</ele>
        <time>2020-02-03T17:23:02Z</time>
      </trkpt>
      <trkpt lat="25.684115" lon="-100.214286">
        <ele>444.134</ele>
        <time>2020-02-03T17:23:06Z</time>
      </trkpt>
      <trkpt lat="25.684128" lon="-100.214238">
        <ele>444.175</ele>
        <time>2020-02-03T17:23:10Z</time>
      </trkpt>
      <trkpt lat="25.684135" lon="-100.214207">
        <ele>444.154</ele>
        <time>2020-02-03T17:23:14Z</time>
      </trkpt>
      <trkpt lat="25.684157" lon="-100.214169">
        <ele>444.382</ele>
        <time>2020-02-03T17:23:22Z</time>
      </trkpt>
      <trkpt lat="25.684173" lon="-100.214109">
        <ele>444.3</ele>
        <time>2020-02-03T17:23:40Z</time>
      </trkpt>
      <trkpt lat="25.684182" lon="-100.214086">
        <ele>446.759</ele>
        <time>2020-02-03T17:23:42Z</time>
      </trkpt>
      <trkpt lat="25.684192" lon="-100.214058">
        <ele>446.698</ele>
        <time>2020-02-03T17:23:45Z</time>
      </trkpt>
      <trkpt lat="25.684192" lon="-100.214058">
        <ele>446.85</ele>
        <time>2020-02-03T17:23:53Z</time>
      </trkpt>
      <trkpt lat="25.684207" lon="-100.214013">
        <ele>446.615</ele>
        <time>2020-02-03T17:23:54Z</time>
      </trkpt>
      <trkpt lat="25.684223" lon="-100.213976">
        <ele>447.202</ele>
        <time>2020-02-03T17:23:59Z</time>
      </trkpt>
      <trkpt lat="25.684209" lon="-100.213925">
        <ele>446.315</ele>
        <time>2020-02-03T17:24:04Z</time>
      </trkpt>
      <trkpt lat="25.684178" lon="-100.213889">
        <ele>445.667</ele>
        <time>2020-02-03T17:24:08Z</time>
      </trkpt>
      <trkpt lat="25.684156" lon="-100.213841">
        <ele>445.695</ele>
        <time>2020-02-03T17:24:14Z</time>
      </trkpt>
      <trkpt lat="25.684155" lon="-100.213787">
        <ele>445.913</ele>
        <time>2020-02-03T17:24:18Z</time>
      </trkpt>
      <trkpt lat="25.684155" lon="-100.21372">
        <ele>445.379</ele>
        <time>2020-02-03T17:24:21Z</time>
      </trkpt>
      <trkpt lat="25.684154" lon="-100.213692">
        <ele>446.009</ele>
        <time>2020-02-03T17:24:22Z</time>
      </trkpt>
      <trkpt lat="25.684158" lon="-100.213635">
        <ele>447.194</ele>
        <time>2020-02-03T17:24:24Z</time>
      </trkpt>
      <trkpt lat="25.684162" lon="-100.213608">
        <ele>446.71</ele>
        <time>2020-02-03T17:24:25Z</time>
      </trkpt>
      <trkpt lat="25.684165" lon="-100.21358">
        <ele>447.482</ele>
        <time>2020-02-03T17:24:26Z</time>
      </trkpt>
      <trkpt lat="25.684168" lon="-100.213528">
        <ele>448.261</ele>
        <time>2020-02-03T17:24:28Z</time>
      </trkpt>
      <trkpt lat="25.684168" lon="-100.213502">
        <ele>448.831</ele>
        <time>2020-02-03T17:24:29Z</time>
      </trkpt>
      <trkpt lat="25.684169" lon="-100.213476">
        <ele>449.88</ele>
        <time>2020-02-03T17:24:30Z</time>
      </trkpt>
      <trkpt lat="25.684169" lon="-100.213451">
        <ele>449.866</ele>
        <time>2020-02-03T17:24:31Z</time>
      </trkpt>
      <trkpt lat="25.68417" lon="-100.213404">
        <ele>450.151</ele>
        <time>2020-02-03T17:24:33Z</time>
      </trkpt>
      <trkpt lat="25.684168" lon="-100.213377">
        <ele>450.233</ele>
        <time>2020-02-03T17:24:34Z</time>
      </trkpt>
      <trkpt lat="25.684165" lon="-100.213352">
        <ele>450.596</ele>
        <time>2020-02-03T17:24:35Z</time>
      </trkpt>
      <trkpt lat="25.684161" lon="-100.213326">
        <ele>451.342</ele>
        <time>2020-02-03T17:24:36Z</time>
      </trkpt>
      <trkpt lat="25.684159" lon="-100.2133">
        <ele>451.165</ele>
        <time>2020-02-03T17:24:37Z</time>
      </trkpt>
      <trkpt lat="25.684157" lon="-100.21324">
        <ele>450.67</ele>
        <time>2020-02-03T17:24:39Z</time>
      </trkpt>
      <trkpt lat="25.684156" lon="-100.21321">
        <ele>450.739</ele>
        <time>2020-02-03T17:24:40Z</time>
      </trkpt>
      <trkpt lat="25.684155" lon="-100.21318">
        <ele>450.72</ele>
        <time>2020-02-03T17:24:41Z</time>
      </trkpt>
      <trkpt lat="25.684155" lon="-100.213152">
        <ele>450.994</ele>
        <time>2020-02-03T17:24:42Z</time>
      </trkpt>
      <trkpt lat="25.684154" lon="-100.213125">
        <ele>450.757</ele>
        <time>2020-02-03T17:24:43Z</time>
      </trkpt>
      <trkpt lat="25.684153" lon="-100.213074">
        <ele>450.813</ele>
        <time>2020-02-03T17:24:45Z</time>
      </trkpt>
      <trkpt lat="25.684151" lon="-100.213026">
        <ele>449.663</ele>
        <time>2020-02-03T17:24:47Z</time>
      </trkpt>
      <trkpt lat="25.68415" lon="-100.212978">
        <ele>448.873</ele>
        <time>2020-02-03T17:24:49Z</time>
      </trkpt>
      <trkpt lat="25.684163" lon="-100.212906">
        <ele>448.445</ele>
        <time>2020-02-03T17:24:52Z</time>
      </trkpt>
      <trkpt lat="25.684166" lon="-100.21288">
        <ele>448.116</ele>
        <time>2020-02-03T17:24:53Z</time>
      </trkpt>
      <trkpt lat="25.684163" lon="-100.212828">
        <ele>448.493</ele>
        <time>2020-02-03T17:24:55Z</time>
      </trkpt>
      <trkpt lat="25.684155" lon="-100.212773">
        <ele>448.75</ele>
        <time>2020-02-03T17:24:57Z</time>
      </trkpt>
      <trkpt lat="25.684149" lon="-100.212745">
        <ele>448.787</ele>
        <time>2020-02-03T17:24:58Z</time>
      </trkpt>
      <trkpt lat="25.684144" lon="-100.212717">
        <ele>448.252</ele>
        <time>2020-02-03T17:24:59Z</time>
      </trkpt>
      <trkpt lat="25.684139" lon="-100.21269">
        <ele>448.153</ele>
        <time>2020-02-03T17:25:00Z</time>
      </trkpt>
      <trkpt lat="25.684129" lon="-100.212643">
        <ele>448.408</ele>
        <time>2020-02-03T17:25:02Z</time>
      </trkpt>
      <trkpt lat="25.684121" lon="-100.212574">
        <ele>448.117</ele>
        <time>2020-02-03T17:25:05Z</time>
      </trkpt>
      <trkpt lat="25.684119" lon="-100.212549">
        <ele>448.442</ele>
        <time>2020-02-03T17:25:06Z</time>
      </trkpt>
      <trkpt lat="25.68411" lon="-100.212474">
        <ele>448.496</ele>
        <time>2020-02-03T17:25:09Z</time>
      </trkpt>
      <trkpt lat="25.684106" lon="-100.212449">
        <ele>448.536</ele>
        <time>2020-02-03T17:25:10Z</time>
      </trkpt>
      <trkpt lat="25.6841" lon="-100.212424">
        <ele>448.759</ele>
        <time>2020-02-03T17:25:11Z</time>
      </trkpt>
      <trkpt lat="25.684089" lon="-100.212375">
        <ele>448.907</ele>
        <time>2020-02-03T17:25:13Z</time>
      </trkpt>
      <trkpt lat="25.684084" lon="-100.21235">
        <ele>448.754</ele>
        <time>2020-02-03T17:25:14Z</time>
      </trkpt>
      <trkpt lat="25.684079" lon="-100.212323">
        <ele>449.236</ele>
        <time>2020-02-03T17:25:15Z</time>
      </trkpt>
      <trkpt lat="25.684077" lon="-100.212298">
        <ele>449.981</ele>
        <time>2020-02-03T17:25:16Z</time>
      </trkpt>
      <trkpt lat="25.684082" lon="-100.212246">
        <ele>449.563</ele>
        <time>2020-02-03T17:25:18Z</time>
      </trkpt>
      <trkpt lat="25.684091" lon="-100.212197">
        <ele>449.183</ele>
        <time>2020-02-03T17:25:20Z</time>
      </trkpt>
      <trkpt lat="25.684089" lon="-100.212139">
        <ele>449.201</ele>
        <time>2020-02-03T17:25:23Z</time>
      </trkpt>
      <trkpt lat="25.684061" lon="-100.212092">
        <ele>449.149</ele>
        <time>2020-02-03T17:25:27Z</time>
      </trkpt>
      <trkpt lat="25.684042" lon="-100.21203">
        <ele>449.581</ele>
        <time>2020-02-03T17:25:30Z</time>
      </trkpt>
      <trkpt lat="25.68403" lon="-100.211959">
        <ele>448.735</ele>
        <time>2020-02-03T17:25:33Z</time>
      </trkpt>
      <trkpt lat="25.684024" lon="-100.211917">
        <ele>448.617</ele>
        <time>2020-02-03T17:25:35Z</time>
      </trkpt>
      <trkpt lat="25.684021" lon="-100.211893">
        <ele>447.939</ele>
        <time>2020-02-03T17:25:36Z</time>
      </trkpt>
      <trkpt lat="25.684018" lon="-100.211868">
        <ele>447.608</ele>
        <time>2020-02-03T17:25:37Z</time>
      </trkpt>
      <trkpt lat="25.68401" lon="-100.211818">
        <ele>447.53</ele>
        <time>2020-02-03T17:25:39Z</time>
      </trkpt>
      <trkpt lat="25.684004" lon="-100.211792">
        <ele>447.344</ele>
        <time>2020-02-03T17:25:40Z</time>
      </trkpt>
      <trkpt lat="25.684" lon="-100.211766">
        <ele>447.802</ele>
        <time>2020-02-03T17:25:41Z</time>
      </trkpt>
      <trkpt lat="25.683997" lon="-100.211741">
        <ele>447.895</ele>
        <time>2020-02-03T17:25:42Z</time>
      </trkpt>
      <trkpt lat="25.683994" lon="-100.211715">
        <ele>447.847</ele>
        <time>2020-02-03T17:25:43Z</time>
      </trkpt>
      <trkpt lat="25.683991" lon="-100.21169">
        <ele>448.052</ele>
        <time>2020-02-03T17:25:44Z</time>
      </trkpt>
      <trkpt lat="25.683979" lon="-100.211638">
        <ele>448.389</ele>
        <time>2020-02-03T17:25:46Z</time>
      </trkpt>
      <trkpt lat="25.683974" lon="-100.211612">
        <ele>449.285</ele>
        <time>2020-02-03T17:25:47Z</time>
      </trkpt>
      <trkpt lat="25.683969" lon="-100.211585">
        <ele>450.741</ele>
        <time>2020-02-03T17:25:48Z</time>
      </trkpt>
      <trkpt lat="25.683966" lon="-100.211558">
        <ele>450.871</ele>
        <time>2020-02-03T17:25:49Z</time>
      </trkpt>
      <trkpt lat="25.683959" lon="-100.211505">
        <ele>450.967</ele>
        <time>2020-02-03T17:25:51Z</time>
      </trkpt>
      <trkpt lat="25.683956" lon="-100.211479">
        <ele>450.809</ele>
        <time>2020-02-03T17:25:52Z</time>
      </trkpt>
      <trkpt lat="25.683953" lon="-100.211455">
        <ele>450.72</ele>
        <time>2020-02-03T17:25:53Z</time>
      </trkpt>
      <trkpt lat="25.68395" lon="-100.211429">
        <ele>450.65</ele>
        <time>2020-02-03T17:25:54Z</time>
      </trkpt>
      <trkpt lat="25.683941" lon="-100.211381">
        <ele>450.221</ele>
        <time>2020-02-03T17:25:56Z</time>
      </trkpt>
      <trkpt lat="25.683931" lon="-100.211315">
        <ele>450.09</ele>
        <time>2020-02-03T17:25:59Z</time>
      </trkpt>
      <trkpt lat="25.683927" lon="-100.211245">
        <ele>450.151</ele>
        <time>2020-02-03T17:26:02Z</time>
      </trkpt>
      <trkpt lat="25.683927" lon="-100.211217">
        <ele>450.388</ele>
        <time>2020-02-03T17:26:03Z</time>
      </trkpt>
      <trkpt lat="25.683923" lon="-100.211188">
        <ele>450.901</ele>
        <time>2020-02-03T17:26:04Z</time>
      </trkpt>
      <trkpt lat="25.683919" lon="-100.211161">
        <ele>451.081</ele>
        <time>2020-02-03T17:26:05Z</time>
      </trkpt>
      <trkpt lat="25.683913" lon="-100.211135">
        <ele>451.286</ele>
        <time>2020-02-03T17:26:06Z</time>
      </trkpt>
      <trkpt lat="25.683904" lon="-100.211091">
        <ele>451.131</ele>
        <time>2020-02-03T17:26:08Z</time>
      </trkpt>
      <trkpt lat="25.683899" lon="-100.211065">
        <ele>450.991</ele>
        <time>2020-02-03T17:26:09Z</time>
      </trkpt>
      <trkpt lat="25.683891" lon="-100.211017">
        <ele>451.418</ele>
        <time>2020-02-03T17:26:11Z</time>
      </trkpt>
      <trkpt lat="25.683883" lon="-100.21097">
        <ele>451.301</ele>
        <time>2020-02-03T17:26:13Z</time>
      </trkpt>
      <trkpt lat="25.683869" lon="-100.210898">
        <ele>451.634</ele>
        <time>2020-02-03T17:26:16Z</time>
      </trkpt>
      <trkpt lat="25.683864" lon="-100.210846">
        <ele>451.951</ele>
        <time>2020-02-03T17:26:18Z</time>
      </trkpt>
      <trkpt lat="25.683861" lon="-100.210819">
        <ele>452.418</ele>
        <time>2020-02-03T17:26:19Z</time>
      </trkpt>
      <trkpt lat="25.683856" lon="-100.210791">
        <ele>452.38</ele>
        <time>2020-02-03T17:26:20Z</time>
      </trkpt>
      <trkpt lat="25.683854" lon="-100.21076">
        <ele>452.662</ele>
        <time>2020-02-03T17:26:21Z</time>
      </trkpt>
      <trkpt lat="25.683852" lon="-100.210727">
        <ele>452.414</ele>
        <time>2020-02-03T17:26:22Z</time>
      </trkpt>
      <trkpt lat="25.683851" lon="-100.210694">
        <ele>452.377</ele>
        <time>2020-02-03T17:26:23Z</time>
      </trkpt>
      <trkpt lat="25.683849" lon="-100.210663">
        <ele>452.245</ele>
        <time>2020-02-03T17:26:24Z</time>
      </trkpt>
      <trkpt lat="25.683845" lon="-100.210633">
        <ele>452.76</ele>
        <time>2020-02-03T17:26:25Z</time>
      </trkpt>
      <trkpt lat="25.683843" lon="-100.210603">
        <ele>452.471</ele>
        <time>2020-02-03T17:26:26Z</time>
      </trkpt>
      <trkpt lat="25.68384" lon="-100.210574">
        <ele>452.742</ele>
        <time>2020-02-03T17:26:27Z</time>
      </trkpt>
      <trkpt lat="25.683836" lon="-100.210546">
        <ele>452.231</ele>
        <time>2020-02-03T17:26:28Z</time>
      </trkpt>
      <trkpt lat="25.68382" lon="-100.210492">
        <ele>452.391</ele>
        <time>2020-02-03T17:26:30Z</time>
      </trkpt>
      <trkpt lat="25.683811" lon="-100.210466">
        <ele>453.006</ele>
        <time>2020-02-03T17:26:31Z</time>
      </trkpt>
      <trkpt lat="25.683801" lon="-100.210413">
        <ele>452.573</ele>
        <time>2020-02-03T17:26:33Z</time>
      </trkpt>
      <trkpt lat="25.683799" lon="-100.210357">
        <ele>452.217</ele>
        <time>2020-02-03T17:26:35Z</time>
      </trkpt>
      <trkpt lat="25.6838" lon="-100.210305">
        <ele>454.465</ele>
        <time>2020-02-03T17:26:37Z</time>
      </trkpt>
      <trkpt lat="25.683797" lon="-100.210252">
        <ele>454.585</ele>
        <time>2020-02-03T17:26:39Z</time>
      </trkpt>
      <trkpt lat="25.683794" lon="-100.210226">
        <ele>454.723</ele>
        <time>2020-02-03T17:26:40Z</time>
      </trkpt>
      <trkpt lat="25.683793" lon="-100.210199">
        <ele>454.857</ele>
        <time>2020-02-03T17:26:41Z</time>
      </trkpt>
      <trkpt lat="25.683793" lon="-100.210173">
        <ele>454.422</ele>
        <time>2020-02-03T17:26:42Z</time>
      </trkpt>
      <trkpt lat="25.683796" lon="-100.210116">
        <ele>454.057</ele>
        <time>2020-02-03T17:26:44Z</time>
      </trkpt>
      <trkpt lat="25.683798" lon="-100.210088">
        <ele>454.082</ele>
        <time>2020-02-03T17:26:45Z</time>
      </trkpt>
      <trkpt lat="25.683798" lon="-100.21006">
        <ele>453.676</ele>
        <time>2020-02-03T17:26:46Z</time>
      </trkpt>
      <trkpt lat="25.683798" lon="-100.21003">
        <ele>453.509</ele>
        <time>2020-02-03T17:26:47Z</time>
      </trkpt>
      <trkpt lat="25.6838" lon="-100.209999">
        <ele>453.536</ele>
        <time>2020-02-03T17:26:48Z</time>
      </trkpt>
      <trkpt lat="25.683799" lon="-100.209971">
        <ele>453.49</ele>
        <time>2020-02-03T17:26:49Z</time>
      </trkpt>
      <trkpt lat="25.683799" lon="-100.209942">
        <ele>453.421</ele>
        <time>2020-02-03T17:26:50Z</time>
      </trkpt>
      <trkpt lat="25.683799" lon="-100.209913">
        <ele>453.478</ele>
        <time>2020-02-03T17:26:51Z</time>
      </trkpt>
      <trkpt lat="25.683801" lon="-100.209885">
        <ele>453.512</ele>
        <time>2020-02-03T17:26:52Z</time>
      </trkpt>
      <trkpt lat="25.683803" lon="-100.209858">
        <ele>453.876</ele>
        <time>2020-02-03T17:26:53Z</time>
      </trkpt>
      <trkpt lat="25.683805" lon="-100.20983">
        <ele>453.605</ele>
        <time>2020-02-03T17:26:54Z</time>
      </trkpt>
      <trkpt lat="25.683805" lon="-100.209802">
        <ele>453.353</ele>
        <time>2020-02-03T17:26:55Z</time>
      </trkpt>
      <trkpt lat="25.683804" lon="-100.209775">
        <ele>453.526</ele>
        <time>2020-02-03T17:26:56Z</time>
      </trkpt>
      <trkpt lat="25.683801" lon="-100.209748">
        <ele>454.182</ele>
        <time>2020-02-03T17:26:57Z</time>
      </trkpt>
      <trkpt lat="25.6838" lon="-100.209721">
        <ele>453.872</ele>
        <time>2020-02-03T17:26:58Z</time>
      </trkpt>
      <trkpt lat="25.683799" lon="-100.209665">
        <ele>453.333</ele>
        <time>2020-02-03T17:27:00Z</time>
      </trkpt>
      <trkpt lat="25.683798" lon="-100.209638">
        <ele>452.836</ele>
        <time>2020-02-03T17:27:01Z</time>
      </trkpt>
      <trkpt lat="25.683796" lon="-100.209613">
        <ele>453.673</ele>
        <time>2020-02-03T17:27:02Z</time>
      </trkpt>
      <trkpt lat="25.683791" lon="-100.20956">
        <ele>451.356</ele>
        <time>2020-02-03T17:27:04Z</time>
      </trkpt>
      <trkpt lat="25.683787" lon="-100.209532">
        <ele>451.129</ele>
        <time>2020-02-03T17:27:05Z</time>
      </trkpt>
      <trkpt lat="25.683783" lon="-100.209503">
        <ele>452.29</ele>
        <time>2020-02-03T17:27:06Z</time>
      </trkpt>
      <trkpt lat="25.683778" lon="-100.209476">
        <ele>452.454</ele>
        <time>2020-02-03T17:27:07Z</time>
      </trkpt>
      <trkpt lat="25.683774" lon="-100.20945">
        <ele>452.64</ele>
        <time>2020-02-03T17:27:08Z</time>
      </trkpt>
      <trkpt lat="25.683771" lon="-100.209423">
        <ele>452.498</ele>
        <time>2020-02-03T17:27:09Z</time>
      </trkpt>
      <trkpt lat="25.68377" lon="-100.209395">
        <ele>451.794</ele>
        <time>2020-02-03T17:27:10Z</time>
      </trkpt>
      <trkpt lat="25.683769" lon="-100.209366">
        <ele>450.061</ele>
        <time>2020-02-03T17:27:11Z</time>
      </trkpt>
      <trkpt lat="25.683766" lon="-100.209339">
        <ele>449.548</ele>
        <time>2020-02-03T17:27:12Z</time>
      </trkpt>
      <trkpt lat="25.683764" lon="-100.209312">
        <ele>449.091</ele>
        <time>2020-02-03T17:27:13Z</time>
      </trkpt>
      <trkpt lat="25.683762" lon="-100.209284">
        <ele>448.492</ele>
        <time>2020-02-03T17:27:14Z</time>
      </trkpt>
      <trkpt lat="25.68376" lon="-100.209257">
        <ele>447.028</ele>
        <time>2020-02-03T17:27:15Z</time>
      </trkpt>
      <trkpt lat="25.683758" lon="-100.20923">
        <ele>446.634</ele>
        <time>2020-02-03T17:27:16Z</time>
      </trkpt>
      <trkpt lat="25.683758" lon="-100.209202">
        <ele>444.485</ele>
        <time>2020-02-03T17:27:17Z</time>
      </trkpt>
      <trkpt lat="25.683758" lon="-100.209173">
        <ele>444.558</ele>
        <time>2020-02-03T17:27:18Z</time>
      </trkpt>
      <trkpt lat="25.68376" lon="-100.209144">
        <ele>445.193</ele>
        <time>2020-02-03T17:27:19Z</time>
      </trkpt>
      <trkpt lat="25.683763" lon="-100.209116">
        <ele>444.536</ele>
        <time>2020-02-03T17:27:20Z</time>
      </trkpt>
      <trkpt lat="25.683766" lon="-100.209088">
        <ele>445.576</ele>
        <time>2020-02-03T17:27:21Z</time>
      </trkpt>
      <trkpt lat="25.683768" lon="-100.209059">
        <ele>447.242</ele>
        <time>2020-02-03T17:27:22Z</time>
      </trkpt>
      <trkpt lat="25.683768" lon="-100.209032">
        <ele>447.481</ele>
        <time>2020-02-03T17:27:23Z</time>
      </trkpt>
      <trkpt lat="25.683769" lon="-100.209006">
        <ele>447.528</ele>
        <time>2020-02-03T17:27:24Z</time>
      </trkpt>
      <trkpt lat="25.683769" lon="-100.20898">
        <ele>447.059</ele>
        <time>2020-02-03T17:27:25Z</time>
      </trkpt>
      <trkpt lat="25.683762" lon="-100.208923">
        <ele>446.971</ele>
        <time>2020-02-03T17:27:27Z</time>
      </trkpt>
      <trkpt lat="25.68376" lon="-100.208886">
        <ele>447.883</ele>
        <time>2020-02-03T17:27:29Z</time>
      </trkpt>
      <trkpt lat="25.683759" lon="-100.208858">
        <ele>447.812</ele>
        <time>2020-02-03T17:27:30Z</time>
      </trkpt>
      <trkpt lat="25.683759" lon="-100.208829">
        <ele>448.647</ele>
        <time>2020-02-03T17:27:31Z</time>
      </trkpt>
      <trkpt lat="25.683756" lon="-100.208801">
        <ele>448.854</ele>
        <time>2020-02-03T17:27:32Z</time>
      </trkpt>
      <trkpt lat="25.683755" lon="-100.208773">
        <ele>448.919</ele>
        <time>2020-02-03T17:27:33Z</time>
      </trkpt>
      <trkpt lat="25.683746" lon="-100.208691">
        <ele>448.586</ele>
        <time>2020-02-03T17:27:36Z</time>
      </trkpt>
      <trkpt lat="25.683749" lon="-100.208637">
        <ele>447.929</ele>
        <time>2020-02-03T17:27:38Z</time>
      </trkpt>
      <trkpt lat="25.683747" lon="-100.208577">
        <ele>446.947</ele>
        <time>2020-02-03T17:27:41Z</time>
      </trkpt>
      <trkpt lat="25.683744" lon="-100.208528">
        <ele>447.556</ele>
        <time>2020-02-03T17:27:43Z</time>
      </trkpt>
      <trkpt lat="25.68376" lon="-100.208475">
        <ele>447.962</ele>
        <time>2020-02-03T17:27:47Z</time>
      </trkpt>
      <trkpt lat="25.683758" lon="-100.208418">
        <ele>448.38</ele>
        <time>2020-02-03T17:27:54Z</time>
      </trkpt>
      <trkpt lat="25.683805" lon="-100.208384">
        <ele>448.441</ele>
        <time>2020-02-03T17:28:12Z</time>
      </trkpt>
      <trkpt lat="25.6838" lon="-100.208333">
        <ele>446.248</ele>
        <time>2020-02-03T17:28:15Z</time>
      </trkpt>
      <trkpt lat="25.683807" lon="-100.20827">
        <ele>446.408</ele>
        <time>2020-02-03T17:28:18Z</time>
      </trkpt>
      <trkpt lat="25.683819" lon="-100.208209">
        <ele>445.777</ele>
        <time>2020-02-03T17:28:21Z</time>
      </trkpt>
      <trkpt lat="25.68382" lon="-100.208153">
        <ele>444.151</ele>
        <time>2020-02-03T17:28:23Z</time>
      </trkpt>
      <trkpt lat="25.683816" lon="-100.208112">
        <ele>444.303</ele>
        <time>2020-02-03T17:28:25Z</time>
      </trkpt>
      <trkpt lat="25.683833" lon="-100.208041">
        <ele>444.376</ele>
        <time>2020-02-03T17:28:29Z</time>
      </trkpt>
      <trkpt lat="25.683858" lon="-100.207959">
        <ele>444.813</ele>
        <time>2020-02-03T17:28:32Z</time>
      </trkpt>
      <trkpt lat="25.683867" lon="-100.207932">
        <ele>444.65</ele>
        <time>2020-02-03T17:28:33Z</time>
      </trkpt>
      <trkpt lat="25.683879" lon="-100.207879">
        <ele>445.124</ele>
        <time>2020-02-03T17:28:35Z</time>
      </trkpt>
      <trkpt lat="25.683883" lon="-100.207853">
        <ele>444.92</ele>
        <time>2020-02-03T17:28:36Z</time>
      </trkpt>
      <trkpt lat="25.683887" lon="-100.207828">
        <ele>444.133</ele>
        <time>2020-02-03T17:28:37Z</time>
      </trkpt>
      <trkpt lat="25.683889" lon="-100.207776">
        <ele>443.785</ele>
        <time>2020-02-03T17:28:39Z</time>
      </trkpt>
      <trkpt lat="25.683888" lon="-100.20775">
        <ele>444.596</ele>
        <time>2020-02-03T17:28:40Z</time>
      </trkpt>
      <trkpt lat="25.683889" lon="-100.207724">
        <ele>444.654</ele>
        <time>2020-02-03T17:28:41Z</time>
      </trkpt>
      <trkpt lat="25.68389" lon="-100.207697">
        <ele>444.717</ele>
        <time>2020-02-03T17:28:42Z</time>
      </trkpt>
      <trkpt lat="25.683891" lon="-100.207671">
        <ele>444.762</ele>
        <time>2020-02-03T17:28:43Z</time>
      </trkpt>
      <trkpt lat="25.683894" lon="-100.207645">
        <ele>444.214</ele>
        <time>2020-02-03T17:28:44Z</time>
      </trkpt>
      <trkpt lat="25.683901" lon="-100.207591">
        <ele>444.802</ele>
        <time>2020-02-03T17:28:46Z</time>
      </trkpt>
      <trkpt lat="25.6839" lon="-100.207536">
        <ele>445.582</ele>
        <time>2020-02-03T17:28:48Z</time>
      </trkpt>
      <trkpt lat="25.6839" lon="-100.207509">
        <ele>446.719</ele>
        <time>2020-02-03T17:28:49Z</time>
      </trkpt>
      <trkpt lat="25.683903" lon="-100.207482">
        <ele>447.358</ele>
        <time>2020-02-03T17:28:50Z</time>
      </trkpt>
      <trkpt lat="25.683915" lon="-100.207432">
        <ele>446.26</ele>
        <time>2020-02-03T17:28:52Z</time>
      </trkpt>
      <trkpt lat="25.683944" lon="-100.20737">
        <ele>446.242</ele>
        <time>2020-02-03T17:28:55Z</time>
      </trkpt>
      <trkpt lat="25.683963" lon="-100.207327">
        <ele>446.697</ele>
        <time>2020-02-03T17:28:57Z</time>
      </trkpt>
      <trkpt lat="25.683979" lon="-100.207281">
        <ele>446.918</ele>
        <time>2020-02-03T17:28:59Z</time>
      </trkpt>
      <trkpt lat="25.683995" lon="-100.207214">
        <ele>446.075</ele>
        <time>2020-02-03T17:29:02Z</time>
      </trkpt>
      <trkpt lat="25.684023" lon="-100.207144">
        <ele>445.458</ele>
        <time>2020-02-03T17:29:05Z</time>
      </trkpt>
      <trkpt lat="25.684032" lon="-100.207114">
        <ele>446.412</ele>
        <time>2020-02-03T17:29:07Z</time>
      </trkpt>
      <trkpt lat="25.684048" lon="-100.207075">
        <ele>444.974</ele>
        <time>2020-02-03T17:29:09Z</time>
      </trkpt>
      <trkpt lat="25.684057" lon="-100.20705">
        <ele>444.672</ele>
        <time>2020-02-03T17:29:10Z</time>
      </trkpt>
      <trkpt lat="25.684064" lon="-100.207024">
        <ele>444.685</ele>
        <time>2020-02-03T17:29:11Z</time>
      </trkpt>
      <trkpt lat="25.684071" lon="-100.206995">
        <ele>445.518</ele>
        <time>2020-02-03T17:29:12Z</time>
      </trkpt>
      <trkpt lat="25.684079" lon="-100.206965">
        <ele>444.665</ele>
        <time>2020-02-03T17:29:13Z</time>
      </trkpt>
      <trkpt lat="25.684088" lon="-100.206941">
        <ele>443.715</ele>
        <time>2020-02-03T17:29:14Z</time>
      </trkpt>
      <trkpt lat="25.684101" lon="-100.206891">
        <ele>444.105</ele>
        <time>2020-02-03T17:29:16Z</time>
      </trkpt>
      <trkpt lat="25.684108" lon="-100.206862">
        <ele>444.442</ele>
        <time>2020-02-03T17:29:17Z</time>
      </trkpt>
      <trkpt lat="25.684117" lon="-100.206833">
        <ele>445.18</ele>
        <time>2020-02-03T17:29:18Z</time>
      </trkpt>
      <trkpt lat="25.684126" lon="-100.206805">
        <ele>444.809</ele>
        <time>2020-02-03T17:29:19Z</time>
      </trkpt>
      <trkpt lat="25.684137" lon="-100.206779">
        <ele>445.26</ele>
        <time>2020-02-03T17:29:20Z</time>
      </trkpt>
      <trkpt lat="25.684148" lon="-100.206753">
        <ele>444.895</ele>
        <time>2020-02-03T17:29:21Z</time>
      </trkpt>
      <trkpt lat="25.684158" lon="-100.206725">
        <ele>445.424</ele>
        <time>2020-02-03T17:29:22Z</time>
      </trkpt>
      <trkpt lat="25.684167" lon="-100.206696">
        <ele>444.842</ele>
        <time>2020-02-03T17:29:23Z</time>
      </trkpt>
      <trkpt lat="25.684177" lon="-100.206665">
        <ele>445.112</ele>
        <time>2020-02-03T17:29:24Z</time>
      </trkpt>
      <trkpt lat="25.684201" lon="-100.206611">
        <ele>443.857</ele>
        <time>2020-02-03T17:29:26Z</time>
      </trkpt>
      <trkpt lat="25.68422" lon="-100.206535">
        <ele>443.8</ele>
        <time>2020-02-03T17:29:29Z</time>
      </trkpt>
      <trkpt lat="25.684226" lon="-100.206509">
        <ele>444.866</ele>
        <time>2020-02-03T17:29:30Z</time>
      </trkpt>
      <trkpt lat="25.684242" lon="-100.206462">
        <ele>444.646</ele>
        <time>2020-02-03T17:29:32Z</time>
      </trkpt>
      <trkpt lat="25.684278" lon="-100.206397">
        <ele>443.873</ele>
        <time>2020-02-03T17:29:35Z</time>
      </trkpt>
      <trkpt lat="25.684298" lon="-100.206331">
        <ele>443.057</ele>
        <time>2020-02-03T17:29:38Z</time>
      </trkpt>
      <trkpt lat="25.684306" lon="-100.206271">
        <ele>443.502</ele>
        <time>2020-02-03T17:29:41Z</time>
      </trkpt>
      <trkpt lat="25.684327" lon="-100.206209">
        <ele>444.513</ele>
        <time>2020-02-03T17:29:44Z</time>
      </trkpt>
      <trkpt lat="25.684343" lon="-100.20617">
        <ele>443.802</ele>
        <time>2020-02-03T17:29:46Z</time>
      </trkpt>
      <trkpt lat="25.684362" lon="-100.206125">
        <ele>444.268</ele>
        <time>2020-02-03T17:29:48Z</time>
      </trkpt>
      <trkpt lat="25.684372" lon="-100.206102">
        <ele>444.186</ele>
        <time>2020-02-03T17:29:49Z</time>
      </trkpt>
      <trkpt lat="25.68438" lon="-100.206079">
        <ele>443.846</ele>
        <time>2020-02-03T17:29:50Z</time>
      </trkpt>
      <trkpt lat="25.684394" lon="-100.206022">
        <ele>443.399</ele>
        <time>2020-02-03T17:29:53Z</time>
      </trkpt>
      <trkpt lat="25.684418" lon="-100.205956">
        <ele>442.96</ele>
        <time>2020-02-03T17:29:56Z</time>
      </trkpt>
      <trkpt lat="25.684452" lon="-100.205904">
        <ele>443.188</ele>
        <time>2020-02-03T17:29:59Z</time>
      </trkpt>
      <trkpt lat="25.684501" lon="-100.205887">
        <ele>443.166</ele>
        <time>2020-02-03T17:30:03Z</time>
      </trkpt>
      <trkpt lat="25.684505" lon="-100.205811">
        <ele>443.714</ele>
        <time>2020-02-03T17:30:07Z</time>
      </trkpt>
      <trkpt lat="25.684516" lon="-100.205724">
        <ele>444.156</ele>
        <time>2020-02-03T17:30:10Z</time>
      </trkpt>
      <trkpt lat="25.684533" lon="-100.205673">
        <ele>444.544</ele>
        <time>2020-02-03T17:30:12Z</time>
      </trkpt>
      <trkpt lat="25.684542" lon="-100.205649">
        <ele>443.901</ele>
        <time>2020-02-03T17:30:13Z</time>
      </trkpt>
      <trkpt lat="25.684549" lon="-100.205625">
        <ele>443.614</ele>
        <time>2020-02-03T17:30:14Z</time>
      </trkpt>
      <trkpt lat="25.684555" lon="-100.2056">
        <ele>443.363</ele>
        <time>2020-02-03T17:30:15Z</time>
      </trkpt>
      <trkpt lat="25.684583" lon="-100.205533">
        <ele>445.025</ele>
        <time>2020-02-03T17:30:18Z</time>
      </trkpt>
      <trkpt lat="25.684601" lon="-100.205489">
        <ele>444.932</ele>
        <time>2020-02-03T17:30:20Z</time>
      </trkpt>
      <trkpt lat="25.68461" lon="-100.205466">
        <ele>445.173</ele>
        <time>2020-02-03T17:30:21Z</time>
      </trkpt>
      <trkpt lat="25.68462" lon="-100.205415">
        <ele>445.902</ele>
        <time>2020-02-03T17:30:23Z</time>
      </trkpt>
      <trkpt lat="25.684624" lon="-100.205362">
        <ele>446.084</ele>
        <time>2020-02-03T17:30:25Z</time>
      </trkpt>
      <trkpt lat="25.684653" lon="-100.205302">
        <ele>446.643</ele>
        <time>2020-02-03T17:30:28Z</time>
      </trkpt>
      <trkpt lat="25.684674" lon="-100.20526">
        <ele>446.995</ele>
        <time>2020-02-03T17:30:30Z</time>
      </trkpt>
      <trkpt lat="25.684699" lon="-100.205189">
        <ele>446.738</ele>
        <time>2020-02-03T17:30:33Z</time>
      </trkpt>
      <trkpt lat="25.684707" lon="-100.205162">
        <ele>446.881</ele>
        <time>2020-02-03T17:30:34Z</time>
      </trkpt>
      <trkpt lat="25.68472" lon="-100.205119">
        <ele>446.171</ele>
        <time>2020-02-03T17:30:36Z</time>
      </trkpt>
      <trkpt lat="25.684728" lon="-100.205092">
        <ele>446.265</ele>
        <time>2020-02-03T17:30:37Z</time>
      </trkpt>
      <trkpt lat="25.684736" lon="-100.205064">
        <ele>446.154</ele>
        <time>2020-02-03T17:30:38Z</time>
      </trkpt>
      <trkpt lat="25.684744" lon="-100.205039">
        <ele>446.08</ele>
        <time>2020-02-03T17:30:39Z</time>
      </trkpt>
      <trkpt lat="25.684753" lon="-100.205014">
        <ele>445.716</ele>
        <time>2020-02-03T17:30:40Z</time>
      </trkpt>
      <trkpt lat="25.684765" lon="-100.204987">
        <ele>445.916</ele>
        <time>2020-02-03T17:30:41Z</time>
      </trkpt>
      <trkpt lat="25.684776" lon="-100.20496">
        <ele>445.8</ele>
        <time>2020-02-03T17:30:42Z</time>
      </trkpt>
      <trkpt lat="25.684786" lon="-100.204932">
        <ele>445.89</ele>
        <time>2020-02-03T17:30:43Z</time>
      </trkpt>
      <trkpt lat="25.684796" lon="-100.204907">
        <ele>445.764</ele>
        <time>2020-02-03T17:30:44Z</time>
      </trkpt>
      <trkpt lat="25.684806" lon="-100.204881">
        <ele>445.936</ele>
        <time>2020-02-03T17:30:45Z</time>
      </trkpt>
      <trkpt lat="25.684814" lon="-100.204853">
        <ele>445.913</ele>
        <time>2020-02-03T17:30:46Z</time>
      </trkpt>
      <trkpt lat="25.68482" lon="-100.204827">
        <ele>446.015</ele>
        <time>2020-02-03T17:30:47Z</time>
      </trkpt>
      <trkpt lat="25.684828" lon="-100.204801">
        <ele>446.005</ele>
        <time>2020-02-03T17:30:48Z</time>
      </trkpt>
      <trkpt lat="25.684849" lon="-100.204751">
        <ele>445.565</ele>
        <time>2020-02-03T17:30:50Z</time>
      </trkpt>
      <trkpt lat="25.684865" lon="-100.204693">
        <ele>445.327</ele>
        <time>2020-02-03T17:30:52Z</time>
      </trkpt>
      <trkpt lat="25.684886" lon="-100.204613">
        <ele>444.52</ele>
        <time>2020-02-03T17:30:55Z</time>
      </trkpt>
      <trkpt lat="25.684894" lon="-100.204589">
        <ele>444.277</ele>
        <time>2020-02-03T17:30:56Z</time>
      </trkpt>
      <trkpt lat="25.684902" lon="-100.204564">
        <ele>444.229</ele>
        <time>2020-02-03T17:30:57Z</time>
      </trkpt>
      <trkpt lat="25.68491" lon="-100.20454">
        <ele>444.341</ele>
        <time>2020-02-03T17:30:58Z</time>
      </trkpt>
      <trkpt lat="25.684932" lon="-100.204493">
        <ele>444.118</ele>
        <time>2020-02-03T17:31:00Z</time>
      </trkpt>
      <trkpt lat="25.684942" lon="-100.204469">
        <ele>443.663</ele>
        <time>2020-02-03T17:31:01Z</time>
      </trkpt>
      <trkpt lat="25.68496" lon="-100.204422">
        <ele>443.59</ele>
        <time>2020-02-03T17:31:03Z</time>
      </trkpt>
      <trkpt lat="25.684969" lon="-100.204399">
        <ele>444.032</ele>
        <time>2020-02-03T17:31:04Z</time>
      </trkpt>
      <trkpt lat="25.684995" lon="-100.204352">
        <ele>443.787</ele>
        <time>2020-02-03T17:31:07Z</time>
      </trkpt>
      <trkpt lat="25.68503" lon="-100.204317">
        <ele>444.112</ele>
        <time>2020-02-03T17:31:10Z</time>
      </trkpt>
      <trkpt lat="25.685048" lon="-100.20427">
        <ele>444.769</ele>
        <time>2020-02-03T17:31:12Z</time>
      </trkpt>
      <trkpt lat="25.685051" lon="-100.204215">
        <ele>445.141</ele>
        <time>2020-02-03T17:31:14Z</time>
      </trkpt>
      <trkpt lat="25.685052" lon="-100.204187">
        <ele>445.758</ele>
        <time>2020-02-03T17:31:15Z</time>
      </trkpt>
      <trkpt lat="25.685052" lon="-100.204159">
        <ele>445.758</ele>
        <time>2020-02-03T17:31:16Z</time>
      </trkpt>
      <trkpt lat="25.685053" lon="-100.20413">
        <ele>445.987</ele>
        <time>2020-02-03T17:31:17Z</time>
      </trkpt>
      <trkpt lat="25.685047" lon="-100.204072">
        <ele>445.813</ele>
        <time>2020-02-03T17:31:19Z</time>
      </trkpt>
      <trkpt lat="25.685042" lon="-100.204043">
        <ele>446.01</ele>
        <time>2020-02-03T17:31:20Z</time>
      </trkpt>
      <trkpt lat="25.685038" lon="-100.204014">
        <ele>442.289</ele>
        <time>2020-02-03T17:31:21Z</time>
      </trkpt>
      <trkpt lat="25.685039" lon="-100.203956">
        <ele>443.909</ele>
        <time>2020-02-03T17:31:23Z</time>
      </trkpt>
      <trkpt lat="25.685053" lon="-100.203899">
        <ele>445.621</ele>
        <time>2020-02-03T17:31:25Z</time>
      </trkpt>
      <trkpt lat="25.685062" lon="-100.20387">
        <ele>446.579</ele>
        <time>2020-02-03T17:31:26Z</time>
      </trkpt>
      <trkpt lat="25.685069" lon="-100.203846">
        <ele>446.771</ele>
        <time>2020-02-03T17:31:27Z</time>
      </trkpt>
      <trkpt lat="25.685076" lon="-100.203821">
        <ele>446.844</ele>
        <time>2020-02-03T17:31:28Z</time>
      </trkpt>
      <trkpt lat="25.685088" lon="-100.203774">
        <ele>447.914</ele>
        <time>2020-02-03T17:31:30Z</time>
      </trkpt>
      <trkpt lat="25.685094" lon="-100.20375">
        <ele>447.338</ele>
        <time>2020-02-03T17:31:31Z</time>
      </trkpt>
      <trkpt lat="25.685106" lon="-100.203702">
        <ele>447.885</ele>
        <time>2020-02-03T17:31:33Z</time>
      </trkpt>
      <trkpt lat="25.68511" lon="-100.203676">
        <ele>446.37</ele>
        <time>2020-02-03T17:31:34Z</time>
      </trkpt>
      <trkpt lat="25.685117" lon="-100.203629">
        <ele>446.058</ele>
        <time>2020-02-03T17:31:36Z</time>
      </trkpt>
      <trkpt lat="25.685127" lon="-100.203584">
        <ele>446.386</ele>
        <time>2020-02-03T17:31:38Z</time>
      </trkpt>
      <trkpt lat="25.685142" lon="-100.203533">
        <ele>446.635</ele>
        <time>2020-02-03T17:31:40Z</time>
      </trkpt>
      <trkpt lat="25.68515" lon="-100.203478">
        <ele>446.471</ele>
        <time>2020-02-03T17:31:42Z</time>
      </trkpt>
      <trkpt lat="25.685152" lon="-100.203452">
        <ele>446.522</ele>
        <time>2020-02-03T17:31:43Z</time>
      </trkpt>
      <trkpt lat="25.685154" lon="-100.203424">
        <ele>446.899</ele>
        <time>2020-02-03T17:31:44Z</time>
      </trkpt>
      <trkpt lat="25.68515" lon="-100.203371">
        <ele>447.05</ele>
        <time>2020-02-03T17:31:46Z</time>
      </trkpt>
      <trkpt lat="25.685157" lon="-100.203299">
        <ele>447.114</ele>
        <time>2020-02-03T17:31:49Z</time>
      </trkpt>
      <trkpt lat="25.685165" lon="-100.203249">
        <ele>447.112</ele>
        <time>2020-02-03T17:31:51Z</time>
      </trkpt>
      <trkpt lat="25.685167" lon="-100.203198">
        <ele>447.683</ele>
        <time>2020-02-03T17:31:53Z</time>
      </trkpt>
      <trkpt lat="25.68517" lon="-100.203172">
        <ele>447.63</ele>
        <time>2020-02-03T17:31:54Z</time>
      </trkpt>
      <trkpt lat="25.685175" lon="-100.203145">
        <ele>447.617</ele>
        <time>2020-02-03T17:31:55Z</time>
      </trkpt>
      <trkpt lat="25.685197" lon="-100.203096">
        <ele>448.171</ele>
        <time>2020-02-03T17:31:57Z</time>
      </trkpt>
      <trkpt lat="25.685242" lon="-100.203086">
        <ele>448.138</ele>
        <time>2020-02-03T17:32:00Z</time>
      </trkpt>
      <trkpt lat="25.685241" lon="-100.203027">
        <ele>448.236</ele>
        <time>2020-02-03T17:32:06Z</time>
      </trkpt>
      <trkpt lat="25.685216" lon="-100.202973">
        <ele>448.363</ele>
        <time>2020-02-03T17:32:10Z</time>
      </trkpt>
      <trkpt lat="25.685206" lon="-100.20292">
        <ele>448.333</ele>
        <time>2020-02-03T17:32:13Z</time>
      </trkpt>
      <trkpt lat="25.685208" lon="-100.202859">
        <ele>448.391</ele>
        <time>2020-02-03T17:32:15Z</time>
      </trkpt>
      <trkpt lat="25.685217" lon="-100.202801">
        <ele>448.527</ele>
        <time>2020-02-03T17:32:17Z</time>
      </trkpt>
      <trkpt lat="25.685228" lon="-100.202747">
        <ele>448.094</ele>
        <time>2020-02-03T17:32:19Z</time>
      </trkpt>
      <trkpt lat="25.685236" lon="-100.202719">
        <ele>448.04</ele>
        <time>2020-02-03T17:32:20Z</time>
      </trkpt>
      <trkpt lat="25.685241" lon="-100.202692">
        <ele>446.979</ele>
        <time>2020-02-03T17:32:21Z</time>
      </trkpt>
      <trkpt lat="25.685248" lon="-100.202664">
        <ele>447.159</ele>
        <time>2020-02-03T17:32:22Z</time>
      </trkpt>
      <trkpt lat="25.685256" lon="-100.202637">
        <ele>446.467</ele>
        <time>2020-02-03T17:32:23Z</time>
      </trkpt>
      <trkpt lat="25.685263" lon="-100.20261">
        <ele>445.076</ele>
        <time>2020-02-03T17:32:24Z</time>
      </trkpt>
      <trkpt lat="25.685268" lon="-100.202584">
        <ele>444.978</ele>
        <time>2020-02-03T17:32:25Z</time>
      </trkpt>
      <trkpt lat="25.685272" lon="-100.202558">
        <ele>444.849</ele>
        <time>2020-02-03T17:32:26Z</time>
      </trkpt>
      <trkpt lat="25.685282" lon="-100.202506">
        <ele>444.402</ele>
        <time>2020-02-03T17:32:28Z</time>
      </trkpt>
      <trkpt lat="25.685295" lon="-100.202454">
        <ele>443.934</ele>
        <time>2020-02-03T17:32:30Z</time>
      </trkpt>
      <trkpt lat="25.685301" lon="-100.202427">
        <ele>444.38</ele>
        <time>2020-02-03T17:32:31Z</time>
      </trkpt>
      <trkpt lat="25.685307" lon="-100.2024">
        <ele>444.128</ele>
        <time>2020-02-03T17:32:32Z</time>
      </trkpt>
      <trkpt lat="25.685314" lon="-100.202374">
        <ele>444.162</ele>
        <time>2020-02-03T17:32:33Z</time>
      </trkpt>
      <trkpt lat="25.685319" lon="-100.202346">
        <ele>444.407</ele>
        <time>2020-02-03T17:32:34Z</time>
      </trkpt>
      <trkpt lat="25.685323" lon="-100.202295">
        <ele>445.17</ele>
        <time>2020-02-03T17:32:36Z</time>
      </trkpt>
      <trkpt lat="25.685325" lon="-100.202268">
        <ele>445.133</ele>
        <time>2020-02-03T17:32:37Z</time>
      </trkpt>
      <trkpt lat="25.685327" lon="-100.202242">
        <ele>444.652</ele>
        <time>2020-02-03T17:32:38Z</time>
      </trkpt>
      <trkpt lat="25.68533" lon="-100.202215">
        <ele>444.242</ele>
        <time>2020-02-03T17:32:39Z</time>
      </trkpt>
      <trkpt lat="25.685333" lon="-100.202188">
        <ele>444.734</ele>
        <time>2020-02-03T17:32:40Z</time>
      </trkpt>
      <trkpt lat="25.685337" lon="-100.202162">
        <ele>444.713</ele>
        <time>2020-02-03T17:32:41Z</time>
      </trkpt>
      <trkpt lat="25.685343" lon="-100.202136">
        <ele>445.069</ele>
        <time>2020-02-03T17:32:42Z</time>
      </trkpt>
      <trkpt lat="25.685349" lon="-100.20211">
        <ele>444.385</ele>
        <time>2020-02-03T17:32:43Z</time>
      </trkpt>
      <trkpt lat="25.685356" lon="-100.202086">
        <ele>444.428</ele>
        <time>2020-02-03T17:32:44Z</time>
      </trkpt>
      <trkpt lat="25.68537" lon="-100.202042">
        <ele>444.296</ele>
        <time>2020-02-03T17:32:46Z</time>
      </trkpt>
      <trkpt lat="25.685382" lon="-100.201999">
        <ele>444.646</ele>
        <time>2020-02-03T17:32:48Z</time>
      </trkpt>
      <trkpt lat="25.685396" lon="-100.201932">
        <ele>444.617</ele>
        <time>2020-02-03T17:32:51Z</time>
      </trkpt>
      <trkpt lat="25.685404" lon="-100.20189">
        <ele>444.621</ele>
        <time>2020-02-03T17:32:53Z</time>
      </trkpt>
      <trkpt lat="25.685412" lon="-100.201841">
        <ele>444.742</ele>
        <time>2020-02-03T17:32:55Z</time>
      </trkpt>
      <trkpt lat="25.685426" lon="-100.201793">
        <ele>445.155</ele>
        <time>2020-02-03T17:32:57Z</time>
      </trkpt>
      <trkpt lat="25.68544" lon="-100.201721">
        <ele>445.264</ele>
        <time>2020-02-03T17:33:00Z</time>
      </trkpt>
      <trkpt lat="25.685447" lon="-100.201677">
        <ele>444.99</ele>
        <time>2020-02-03T17:33:02Z</time>
      </trkpt>
      <trkpt lat="25.685449" lon="-100.201624">
        <ele>445.432</ele>
        <time>2020-02-03T17:33:05Z</time>
      </trkpt>
      <trkpt lat="25.685461" lon="-100.201553">
        <ele>445.551</ele>
        <time>2020-02-03T17:33:08Z</time>
      </trkpt>
      <trkpt lat="25.685465" lon="-100.201528">
        <ele>444.932</ele>
        <time>2020-02-03T17:33:09Z</time>
      </trkpt>
      <trkpt lat="25.685471" lon="-100.201502">
        <ele>444.452</ele>
        <time>2020-02-03T17:33:10Z</time>
      </trkpt>
      <trkpt lat="25.685478" lon="-100.201477">
        <ele>444.41</ele>
        <time>2020-02-03T17:33:11Z</time>
      </trkpt>
      <trkpt lat="25.685484" lon="-100.20145">
        <ele>443.808</ele>
        <time>2020-02-03T17:33:12Z</time>
      </trkpt>
      <trkpt lat="25.68549" lon="-100.201419">
        <ele>443.814</ele>
        <time>2020-02-03T17:33:13Z</time>
      </trkpt>
      <trkpt lat="25.685495" lon="-100.201388">
        <ele>443.454</ele>
        <time>2020-02-03T17:33:14Z</time>
      </trkpt>
      <trkpt lat="25.685499" lon="-100.201358">
        <ele>442.978</ele>
        <time>2020-02-03T17:33:15Z</time>
      </trkpt>
      <trkpt lat="25.685502" lon="-100.20133">
        <ele>442.052</ele>
        <time>2020-02-03T17:33:16Z</time>
      </trkpt>
      <trkpt lat="25.685503" lon="-100.201301">
        <ele>443.014</ele>
        <time>2020-02-03T17:33:17Z</time>
      </trkpt>
      <trkpt lat="25.685503" lon="-100.201272">
        <ele>443.357</ele>
        <time>2020-02-03T17:33:18Z</time>
      </trkpt>
      <trkpt lat="25.685505" lon="-100.201242">
        <ele>443.184</ele>
        <time>2020-02-03T17:33:19Z</time>
      </trkpt>
      <trkpt lat="25.685516" lon="-100.201188">
        <ele>443.484</ele>
        <time>2020-02-03T17:33:21Z</time>
      </trkpt>
      <trkpt lat="25.685521" lon="-100.201162">
        <ele>443.499</ele>
        <time>2020-02-03T17:33:22Z</time>
      </trkpt>
      <trkpt lat="25.68553" lon="-100.201115">
        <ele>443.413</ele>
        <time>2020-02-03T17:33:24Z</time>
      </trkpt>
      <trkpt lat="25.685534" lon="-100.20109">
        <ele>443.764</ele>
        <time>2020-02-03T17:33:25Z</time>
      </trkpt>
      <trkpt lat="25.685536" lon="-100.201064">
        <ele>443.469</ele>
        <time>2020-02-03T17:33:26Z</time>
      </trkpt>
      <trkpt lat="25.685539" lon="-100.201039">
        <ele>444.515</ele>
        <time>2020-02-03T17:33:27Z</time>
      </trkpt>
      <trkpt lat="25.685541" lon="-100.201011">
        <ele>444.174</ele>
        <time>2020-02-03T17:33:28Z</time>
      </trkpt>
      <trkpt lat="25.685545" lon="-100.200984">
        <ele>444.659</ele>
        <time>2020-02-03T17:33:29Z</time>
      </trkpt>
      <trkpt lat="25.685547" lon="-100.200957">
        <ele>443.64</ele>
        <time>2020-02-03T17:33:30Z</time>
      </trkpt>
      <trkpt lat="25.685559" lon="-100.200906">
        <ele>443.71</ele>
        <time>2020-02-03T17:33:32Z</time>
      </trkpt>
      <trkpt lat="25.685565" lon="-100.200879">
        <ele>444.279</ele>
        <time>2020-02-03T17:33:33Z</time>
      </trkpt>
      <trkpt lat="25.685571" lon="-100.20085">
        <ele>444.267</ele>
        <time>2020-02-03T17:33:34Z</time>
      </trkpt>
      <trkpt lat="25.68558" lon="-100.200764">
        <ele>444.777</ele>
        <time>2020-02-03T17:33:37Z</time>
      </trkpt>
      <trkpt lat="25.685584" lon="-100.200735">
        <ele>444.321</ele>
        <time>2020-02-03T17:33:38Z</time>
      </trkpt>
      <trkpt lat="25.685587" lon="-100.200709">
        <ele>445.019</ele>
        <time>2020-02-03T17:33:39Z</time>
      </trkpt>
      <trkpt lat="25.68559" lon="-100.200681">
        <ele>444.949</ele>
        <time>2020-02-03T17:33:40Z</time>
      </trkpt>
      <trkpt lat="25.685595" lon="-100.200655">
        <ele>444.292</ele>
        <time>2020-02-03T17:33:41Z</time>
      </trkpt>
      <trkpt lat="25.6856" lon="-100.200631">
        <ele>443.288</ele>
        <time>2020-02-03T17:33:42Z</time>
      </trkpt>
      <trkpt lat="25.685607" lon="-100.200606">
        <ele>442.982</ele>
        <time>2020-02-03T17:33:43Z</time>
      </trkpt>
      <trkpt lat="25.685618" lon="-100.200558">
        <ele>442.804</ele>
        <time>2020-02-03T17:33:45Z</time>
      </trkpt>
      <trkpt lat="25.685622" lon="-100.200533">
        <ele>442.57</ele>
        <time>2020-02-03T17:33:46Z</time>
      </trkpt>
      <trkpt lat="25.685627" lon="-100.200506">
        <ele>443.214</ele>
        <time>2020-02-03T17:33:47Z</time>
      </trkpt>
      <trkpt lat="25.68563" lon="-100.20048">
        <ele>443.452</ele>
        <time>2020-02-03T17:33:48Z</time>
      </trkpt>
      <trkpt lat="25.685632" lon="-100.200455">
        <ele>443.456</ele>
        <time>2020-02-03T17:33:49Z</time>
      </trkpt>
      <trkpt lat="25.685633" lon="-100.200429">
        <ele>439.926</ele>
        <time>2020-02-03T17:33:50Z</time>
      </trkpt>
      <trkpt lat="25.685633" lon="-100.200402">
        <ele>439.954</ele>
        <time>2020-02-03T17:33:51Z</time>
      </trkpt>
      <trkpt lat="25.685632" lon="-100.200354">
        <ele>439.767</ele>
        <time>2020-02-03T17:33:53Z</time>
      </trkpt>
      <trkpt lat="25.68564" lon="-100.200285">
        <ele>440.528</ele>
        <time>2020-02-03T17:33:56Z</time>
      </trkpt>
      <trkpt lat="25.685646" lon="-100.200237">
        <ele>441.031</ele>
        <time>2020-02-03T17:33:58Z</time>
      </trkpt>
      <trkpt lat="25.685647" lon="-100.20021">
        <ele>441.502</ele>
        <time>2020-02-03T17:33:59Z</time>
      </trkpt>
      <trkpt lat="25.685649" lon="-100.200184">
        <ele>441.231</ele>
        <time>2020-02-03T17:34:00Z</time>
      </trkpt>
      <trkpt lat="25.685651" lon="-100.200158">
        <ele>441.794</ele>
        <time>2020-02-03T17:34:01Z</time>
      </trkpt>
      <trkpt lat="25.685664" lon="-100.20011">
        <ele>442.226</ele>
        <time>2020-02-03T17:34:03Z</time>
      </trkpt>
      <trkpt lat="25.685671" lon="-100.200084">
        <ele>442.226</ele>
        <time>2020-02-03T17:34:04Z</time>
      </trkpt>
      <trkpt lat="25.685677" lon="-100.200058">
        <ele>442.226</ele>
        <time>2020-02-03T17:34:05Z</time>
      </trkpt>
      <trkpt lat="25.685681" lon="-100.200033">
        <ele>441.023</ele>
        <time>2020-02-03T17:34:06Z</time>
      </trkpt>
      <trkpt lat="25.685685" lon="-100.200008">
        <ele>439.145</ele>
        <time>2020-02-03T17:34:07Z</time>
      </trkpt>
      <trkpt lat="25.685688" lon="-100.19998">
        <ele>438.564</ele>
        <time>2020-02-03T17:34:08Z</time>
      </trkpt>
      <trkpt lat="25.685691" lon="-100.199953">
        <ele>439.536</ele>
        <time>2020-02-03T17:34:09Z</time>
      </trkpt>
      <trkpt lat="25.685694" lon="-100.199925">
        <ele>439.767</ele>
        <time>2020-02-03T17:34:10Z</time>
      </trkpt>
      <trkpt lat="25.685699" lon="-100.199899">
        <ele>439.363</ele>
        <time>2020-02-03T17:34:11Z</time>
      </trkpt>
      <trkpt lat="25.685705" lon="-100.199872">
        <ele>439.585</ele>
        <time>2020-02-03T17:34:12Z</time>
      </trkpt>
      <trkpt lat="25.685712" lon="-100.199846">
        <ele>438.533</ele>
        <time>2020-02-03T17:34:13Z</time>
      </trkpt>
      <trkpt lat="25.685718" lon="-100.199822">
        <ele>438.758</ele>
        <time>2020-02-03T17:34:14Z</time>
      </trkpt>
      <trkpt lat="25.685723" lon="-100.199797">
        <ele>438.306</ele>
        <time>2020-02-03T17:34:15Z</time>
      </trkpt>
      <trkpt lat="25.685727" lon="-100.199772">
        <ele>437.919</ele>
        <time>2020-02-03T17:34:16Z</time>
      </trkpt>
      <trkpt lat="25.685731" lon="-100.199747">
        <ele>437.054</ele>
        <time>2020-02-03T17:34:17Z</time>
      </trkpt>
      <trkpt lat="25.685743" lon="-100.199695">
        <ele>436.841</ele>
        <time>2020-02-03T17:34:20Z</time>
      </trkpt>
      <trkpt lat="25.685754" lon="-100.199654">
        <ele>437.1</ele>
        <time>2020-02-03T17:34:22Z</time>
      </trkpt>
      <trkpt lat="25.685764" lon="-100.199609">
        <ele>437.405</ele>
        <time>2020-02-03T17:34:24Z</time>
      </trkpt>
      <trkpt lat="25.685776" lon="-100.199542">
        <ele>437.938</ele>
        <time>2020-02-03T17:34:27Z</time>
      </trkpt>
      <trkpt lat="25.685781" lon="-100.199494">
        <ele>438.31</ele>
        <time>2020-02-03T17:34:29Z</time>
      </trkpt>
      <trkpt lat="25.685785" lon="-100.199469">
        <ele>437.907</ele>
        <time>2020-02-03T17:34:30Z</time>
      </trkpt>
      <trkpt lat="25.685789" lon="-100.199443">
        <ele>438.373</ele>
        <time>2020-02-03T17:34:31Z</time>
      </trkpt>
      <trkpt lat="25.685791" lon="-100.199417">
        <ele>438.393</ele>
        <time>2020-02-03T17:34:32Z</time>
      </trkpt>
      <trkpt lat="25.685806" lon="-100.199353">
        <ele>438.573</ele>
        <time>2020-02-03T17:34:34Z</time>
      </trkpt>
      <trkpt lat="25.685806" lon="-100.199353">
        <ele>438.876</ele>
        <time>2020-02-03T17:34:40Z</time>
      </trkpt>
      <trkpt lat="25.685806" lon="-100.199353">
        <ele>439.718</ele>
        <time>2020-02-03T17:34:41Z</time>
      </trkpt>
      <trkpt lat="25.685744" lon="-100.199356">
        <ele>439.236</ele>
        <time>2020-02-03T17:34:42Z</time>
      </trkpt>
      <trkpt lat="25.685728" lon="-100.199289">
        <ele>439.338</ele>
        <time>2020-02-03T17:34:51Z</time>
      </trkpt>
      <trkpt lat="25.685737" lon="-100.19923">
        <ele>439.444</ele>
        <time>2020-02-03T17:34:56Z</time>
      </trkpt>
      <trkpt lat="25.685742" lon="-100.199188">
        <ele>439.051</ele>
        <time>2020-02-03T17:35:00Z</time>
      </trkpt>
      <trkpt lat="25.685722" lon="-100.199137">
        <ele>438.629</ele>
        <time>2020-02-03T17:35:08Z</time>
      </trkpt>
      <trkpt lat="25.685729" lon="-100.199081">
        <ele>438.859</ele>
        <time>2020-02-03T17:35:14Z</time>
      </trkpt>
      <trkpt lat="25.68573" lon="-100.199056">
        <ele>438.273</ele>
        <time>2020-02-03T17:35:17Z</time>
      </trkpt>
      <trkpt lat="25.68573" lon="-100.199023">
        <ele>438.199</ele>
        <time>2020-02-03T17:35:22Z</time>
      </trkpt>
      <trkpt lat="25.685734" lon="-100.198969">
        <ele>435.917</ele>
        <time>2020-02-03T17:35:29Z</time>
      </trkpt>
      <trkpt lat="25.685738" lon="-100.198942">
        <ele>435.855</ele>
        <time>2020-02-03T17:35:32Z</time>
      </trkpt>
      <trkpt lat="25.685758" lon="-100.198888">
        <ele>435.462</ele>
        <time>2020-02-03T17:35:38Z</time>
      </trkpt>
      <trkpt lat="25.685766" lon="-100.198835">
        <ele>435.109</ele>
        <time>2020-02-03T17:35:44Z</time>
      </trkpt>
      <trkpt lat="25.68577" lon="-100.198803">
        <ele>435.114</ele>
        <time>2020-02-03T17:35:47Z</time>
      </trkpt>
      <trkpt lat="25.685776" lon="-100.198779">
        <ele>434.873</ele>
        <time>2020-02-03T17:35:49Z</time>
      </trkpt>
      <trkpt lat="25.685782" lon="-100.198755">
        <ele>434.264</ele>
        <time>2020-02-03T17:35:51Z</time>
      </trkpt>
      <trkpt lat="25.685789" lon="-100.198718">
        <ele>435.228</ele>
        <time>2020-02-03T17:35:54Z</time>
      </trkpt>
      <trkpt lat="25.685797" lon="-100.198682">
        <ele>436.814</ele>
        <time>2020-02-03T17:35:57Z</time>
      </trkpt>
      <trkpt lat="25.685803" lon="-100.198656">
        <ele>438.581</ele>
        <time>2020-02-03T17:35:59Z</time>
      </trkpt>
      <trkpt lat="25.685816" lon="-100.198618">
        <ele>438.003</ele>
        <time>2020-02-03T17:36:01Z</time>
      </trkpt>
      <trkpt lat="25.685829" lon="-100.198562">
        <ele>437.484</ele>
        <time>2020-02-03T17:36:03Z</time>
      </trkpt>
      <trkpt lat="25.685852" lon="-100.198512">
        <ele>437.62</ele>
        <time>2020-02-03T17:36:05Z</time>
      </trkpt>
      <trkpt lat="25.685869" lon="-100.198452">
        <ele>437.592</ele>
        <time>2020-02-03T17:36:07Z</time>
      </trkpt>
      <trkpt lat="25.685878" lon="-100.198422">
        <ele>437.95</ele>
        <time>2020-02-03T17:36:08Z</time>
      </trkpt>
      <trkpt lat="25.685892" lon="-100.19836">
        <ele>437.596</ele>
        <time>2020-02-03T17:36:10Z</time>
      </trkpt>
      <trkpt lat="25.685905" lon="-100.198303">
        <ele>437.404</ele>
        <time>2020-02-03T17:36:12Z</time>
      </trkpt>
      <trkpt lat="25.685934" lon="-100.198246">
        <ele>437.728</ele>
        <time>2020-02-03T17:36:15Z</time>
      </trkpt>
      <trkpt lat="25.685949" lon="-100.198214">
        <ele>438.042</ele>
        <time>2020-02-03T17:36:17Z</time>
      </trkpt>
      <trkpt lat="25.685962" lon="-100.198149">
        <ele>438.814</ele>
        <time>2020-02-03T17:36:23Z</time>
      </trkpt>
      <trkpt lat="25.685927" lon="-100.198074">
        <ele>438.989</ele>
        <time>2020-02-03T17:36:27Z</time>
      </trkpt>
      <trkpt lat="25.685928" lon="-100.197993">
        <ele>438.954</ele>
        <time>2020-02-03T17:36:30Z</time>
      </trkpt>
      <trkpt lat="25.685951" lon="-100.197947">
        <ele>437.689</ele>
        <time>2020-02-03T17:36:32Z</time>
      </trkpt>
      <trkpt lat="25.685965" lon="-100.197875">
        <ele>437.817</ele>
        <time>2020-02-03T17:36:35Z</time>
      </trkpt>
      <trkpt lat="25.68597" lon="-100.197827">
        <ele>438.097</ele>
        <time>2020-02-03T17:36:37Z</time>
      </trkpt>
      <trkpt lat="25.685976" lon="-100.197779">
        <ele>438.846</ele>
        <time>2020-02-03T17:36:39Z</time>
      </trkpt>
      <trkpt lat="25.685979" lon="-100.197753">
        <ele>437.724</ele>
        <time>2020-02-03T17:36:40Z</time>
      </trkpt>
      <trkpt lat="25.685983" lon="-100.197727">
        <ele>438.277</ele>
        <time>2020-02-03T17:36:41Z</time>
      </trkpt>
      <trkpt lat="25.685986" lon="-100.197702">
        <ele>436.779</ele>
        <time>2020-02-03T17:36:42Z</time>
      </trkpt>
      <trkpt lat="25.685989" lon="-100.197654">
        <ele>435.694</ele>
        <time>2020-02-03T17:36:44Z</time>
      </trkpt>
      <trkpt lat="25.685989" lon="-100.197629">
        <ele>435.281</ele>
        <time>2020-02-03T17:36:45Z</time>
      </trkpt>
      <trkpt lat="25.686001" lon="-100.197563">
        <ele>435.13</ele>
        <time>2020-02-03T17:36:48Z</time>
      </trkpt>
      <trkpt lat="25.686021" lon="-100.197515">
        <ele>435.348</ele>
        <time>2020-02-03T17:36:50Z</time>
      </trkpt>
      <trkpt lat="25.686032" lon="-100.197485">
        <ele>435.155</ele>
        <time>2020-02-03T17:36:52Z</time>
      </trkpt>
      <trkpt lat="25.686018" lon="-100.197438">
        <ele>435.272</ele>
        <time>2020-02-03T17:36:57Z</time>
      </trkpt>
      <trkpt lat="25.686029" lon="-100.197385">
        <ele>434.791</ele>
        <time>2020-02-03T17:37:03Z</time>
      </trkpt>
      <trkpt lat="25.686049" lon="-100.197336">
        <ele>434.9</ele>
        <time>2020-02-03T17:37:08Z</time>
      </trkpt>
      <trkpt lat="25.68606" lon="-100.197302">
        <ele>434.682</ele>
        <time>2020-02-03T17:37:11Z</time>
      </trkpt>
      <trkpt lat="25.686068" lon="-100.197276">
        <ele>434.568</ele>
        <time>2020-02-03T17:37:13Z</time>
      </trkpt>
      <trkpt lat="25.686076" lon="-100.197237">
        <ele>434.863</ele>
        <time>2020-02-03T17:37:15Z</time>
      </trkpt>
      <trkpt lat="25.686084" lon="-100.197211">
        <ele>435.55</ele>
        <time>2020-02-03T17:37:16Z</time>
      </trkpt>
      <trkpt lat="25.686091" lon="-100.197183">
        <ele>435.209</ele>
        <time>2020-02-03T17:37:17Z</time>
      </trkpt>
      <trkpt lat="25.686099" lon="-100.197152">
        <ele>437.337</ele>
        <time>2020-02-03T17:37:18Z</time>
      </trkpt>
      <trkpt lat="25.686106" lon="-100.197122">
        <ele>438.018</ele>
        <time>2020-02-03T17:37:19Z</time>
      </trkpt>
      <trkpt lat="25.686129" lon="-100.197067">
        <ele>438.52</ele>
        <time>2020-02-03T17:37:21Z</time>
      </trkpt>
      <trkpt lat="25.68614" lon="-100.19704">
        <ele>438.763</ele>
        <time>2020-02-03T17:37:22Z</time>
      </trkpt>
      <trkpt lat="25.686149" lon="-100.197014">
        <ele>438.663</ele>
        <time>2020-02-03T17:37:23Z</time>
      </trkpt>
      <trkpt lat="25.68616" lon="-100.196957">
        <ele>439.419</ele>
        <time>2020-02-03T17:37:25Z</time>
      </trkpt>
      <trkpt lat="25.686155" lon="-100.196893">
        <ele>439.667</ele>
        <time>2020-02-03T17:37:28Z</time>
      </trkpt>
      <trkpt lat="25.686132" lon="-100.196844">
        <ele>440.238</ele>
        <time>2020-02-03T17:37:31Z</time>
      </trkpt>
      <trkpt lat="25.686133" lon="-100.196789">
        <ele>438.767</ele>
        <time>2020-02-03T17:37:33Z</time>
      </trkpt>
      <trkpt lat="25.686143" lon="-100.196733">
        <ele>433.81</ele>
        <time>2020-02-03T17:37:35Z</time>
      </trkpt>
      <trkpt lat="25.686148" lon="-100.196705">
        <ele>433.493</ele>
        <time>2020-02-03T17:37:36Z</time>
      </trkpt>
      <trkpt lat="25.686153" lon="-100.196676">
        <ele>433.496</ele>
        <time>2020-02-03T17:37:37Z</time>
      </trkpt>
      <trkpt lat="25.686158" lon="-100.196651">
        <ele>433.514</ele>
        <time>2020-02-03T17:37:38Z</time>
      </trkpt>
      <trkpt lat="25.686162" lon="-100.196623">
        <ele>433.898</ele>
        <time>2020-02-03T17:37:39Z</time>
      </trkpt>
      <trkpt lat="25.686167" lon="-100.196596">
        <ele>434.386</ele>
        <time>2020-02-03T17:37:40Z</time>
      </trkpt>
      <trkpt lat="25.686185" lon="-100.196544">
        <ele>434.318</ele>
        <time>2020-02-03T17:37:42Z</time>
      </trkpt>
      <trkpt lat="25.686192" lon="-100.196519">
        <ele>435.27</ele>
        <time>2020-02-03T17:37:43Z</time>
      </trkpt>
      <trkpt lat="25.686204" lon="-100.19649">
        <ele>436.938</ele>
        <time>2020-02-03T17:37:44Z</time>
      </trkpt>
      <trkpt lat="25.686216" lon="-100.196463">
        <ele>437.477</ele>
        <time>2020-02-03T17:37:45Z</time>
      </trkpt>
      <trkpt lat="25.686227" lon="-100.196439">
        <ele>436.073</ele>
        <time>2020-02-03T17:37:46Z</time>
      </trkpt>
      <trkpt lat="25.686236" lon="-100.196416">
        <ele>436.812</ele>
        <time>2020-02-03T17:37:47Z</time>
      </trkpt>
      <trkpt lat="25.686243" lon="-100.196366">
        <ele>435.708</ele>
        <time>2020-02-03T17:37:49Z</time>
      </trkpt>
      <trkpt lat="25.686246" lon="-100.196301">
        <ele>435.471</ele>
        <time>2020-02-03T17:37:52Z</time>
      </trkpt>
      <trkpt lat="25.686241" lon="-100.196247">
        <ele>435.039</ele>
        <time>2020-02-03T17:37:55Z</time>
      </trkpt>
      <trkpt lat="25.686232" lon="-100.196196">
        <ele>434.715</ele>
        <time>2020-02-03T17:37:59Z</time>
      </trkpt>
      <trkpt lat="25.68625" lon="-100.196127">
        <ele>434.421</ele>
        <time>2020-02-03T17:38:02Z</time>
      </trkpt>
      <trkpt lat="25.68627" lon="-100.196074">
        <ele>433.893</ele>
        <time>2020-02-03T17:38:04Z</time>
      </trkpt>
      <trkpt lat="25.686282" lon="-100.196048">
        <ele>435.312</ele>
        <time>2020-02-03T17:38:05Z</time>
      </trkpt>
      <trkpt lat="25.686294" lon="-100.196023">
        <ele>434.512</ele>
        <time>2020-02-03T17:38:06Z</time>
      </trkpt>
      <trkpt lat="25.686305" lon="-100.195999">
        <ele>434.914</ele>
        <time>2020-02-03T17:38:07Z</time>
      </trkpt>
      <trkpt lat="25.686315" lon="-100.195973">
        <ele>435.081</ele>
        <time>2020-02-03T17:38:08Z</time>
      </trkpt>
      <trkpt lat="25.686323" lon="-100.19592">
        <ele>434.967</ele>
        <time>2020-02-03T17:38:10Z</time>
      </trkpt>
      <trkpt lat="25.68631" lon="-100.195868">
        <ele>436.559</ele>
        <time>2020-02-03T17:38:13Z</time>
      </trkpt>
      <trkpt lat="25.686314" lon="-100.195802">
        <ele>436.733</ele>
        <time>2020-02-03T17:38:16Z</time>
      </trkpt>
      <trkpt lat="25.686334" lon="-100.19572">
        <ele>437.011</ele>
        <time>2020-02-03T17:38:19Z</time>
      </trkpt>
      <trkpt lat="25.686339" lon="-100.195691">
        <ele>437.679</ele>
        <time>2020-02-03T17:38:20Z</time>
      </trkpt>
      <trkpt lat="25.686344" lon="-100.195664">
        <ele>439.179</ele>
        <time>2020-02-03T17:38:21Z</time>
      </trkpt>
      <trkpt lat="25.68635" lon="-100.195635">
        <ele>440.965</ele>
        <time>2020-02-03T17:38:22Z</time>
      </trkpt>
      <trkpt lat="25.686356" lon="-100.195608">
        <ele>440.117</ele>
        <time>2020-02-03T17:38:23Z</time>
      </trkpt>
      <trkpt lat="25.686382" lon="-100.195561">
        <ele>439.772</ele>
        <time>2020-02-03T17:38:25Z</time>
      </trkpt>
      <trkpt lat="25.686439" lon="-100.195495">
        <ele>439.721</ele>
        <time>2020-02-03T17:38:28Z</time>
      </trkpt>
      <trkpt lat="25.686459" lon="-100.195441">
        <ele>439.925</ele>
        <time>2020-02-03T17:38:30Z</time>
      </trkpt>
      <trkpt lat="25.686469" lon="-100.195385">
        <ele>441.349</ele>
        <time>2020-02-03T17:38:32Z</time>
      </trkpt>
      <trkpt lat="25.686476" lon="-100.195355">
        <ele>441.284</ele>
        <time>2020-02-03T17:38:33Z</time>
      </trkpt>
      <trkpt lat="25.686484" lon="-100.195326">
        <ele>441.096</ele>
        <time>2020-02-03T17:38:34Z</time>
      </trkpt>
      <trkpt lat="25.686493" lon="-100.195299">
        <ele>441.313</ele>
        <time>2020-02-03T17:38:35Z</time>
      </trkpt>
      <trkpt lat="25.686502" lon="-100.195272">
        <ele>441.32</ele>
        <time>2020-02-03T17:38:36Z</time>
      </trkpt>
      <trkpt lat="25.686512" lon="-100.195219">
        <ele>440.802</ele>
        <time>2020-02-03T17:38:38Z</time>
      </trkpt>
      <trkpt lat="25.686518" lon="-100.195165">
        <ele>440.514</ele>
        <time>2020-02-03T17:38:40Z</time>
      </trkpt>
      <trkpt lat="25.686522" lon="-100.195138">
        <ele>439.597</ele>
        <time>2020-02-03T17:38:41Z</time>
      </trkpt>
      <trkpt lat="25.686528" lon="-100.195113">
        <ele>439.003</ele>
        <time>2020-02-03T17:38:42Z</time>
      </trkpt>
      <trkpt lat="25.686532" lon="-100.195086">
        <ele>439.405</ele>
        <time>2020-02-03T17:38:43Z</time>
      </trkpt>
      <trkpt lat="25.686538" lon="-100.19506">
        <ele>439.194</ele>
        <time>2020-02-03T17:38:44Z</time>
      </trkpt>
      <trkpt lat="25.686542" lon="-100.195034">
        <ele>438.873</ele>
        <time>2020-02-03T17:38:45Z</time>
      </trkpt>
      <trkpt lat="25.686548" lon="-100.195009">
        <ele>438.517</ele>
        <time>2020-02-03T17:38:46Z</time>
      </trkpt>
      <trkpt lat="25.686577" lon="-100.194952">
        <ele>438.214</ele>
        <time>2020-02-03T17:38:48Z</time>
      </trkpt>
      <trkpt lat="25.68661" lon="-100.194903">
        <ele>438.008</ele>
        <time>2020-02-03T17:38:50Z</time>
      </trkpt>
      <trkpt lat="25.68663" lon="-100.194853">
        <ele>437.401</ele>
        <time>2020-02-03T17:38:52Z</time>
      </trkpt>
      <trkpt lat="25.686639" lon="-100.194801">
        <ele>437.473</ele>
        <time>2020-02-03T17:38:54Z</time>
      </trkpt>
      <trkpt lat="25.686633" lon="-100.194743">
        <ele>436.852</ele>
        <time>2020-02-03T17:38:56Z</time>
      </trkpt>
      <trkpt lat="25.686637" lon="-100.194689">
        <ele>435.839</ele>
        <time>2020-02-03T17:38:58Z</time>
      </trkpt>
      <trkpt lat="25.68665" lon="-100.194624">
        <ele>436.21</ele>
        <time>2020-02-03T17:39:02Z</time>
      </trkpt>
      <trkpt lat="25.686664" lon="-100.194573">
        <ele>436.283</ele>
        <time>2020-02-03T17:39:04Z</time>
      </trkpt>
      <trkpt lat="25.686693" lon="-100.194522">
        <ele>436.613</ele>
        <time>2020-02-03T17:39:06Z</time>
      </trkpt>
      <trkpt lat="25.686707" lon="-100.194497">
        <ele>436.654</ele>
        <time>2020-02-03T17:39:07Z</time>
      </trkpt>
      <trkpt lat="25.686728" lon="-100.194437">
        <ele>437.727</ele>
        <time>2020-02-03T17:39:09Z</time>
      </trkpt>
      <trkpt lat="25.686741" lon="-100.194378">
        <ele>438.539</ele>
        <time>2020-02-03T17:39:11Z</time>
      </trkpt>
      <trkpt lat="25.686747" lon="-100.194351">
        <ele>438.706</ele>
        <time>2020-02-03T17:39:12Z</time>
      </trkpt>
      <trkpt lat="25.686755" lon="-100.194307">
        <ele>438.773</ele>
        <time>2020-02-03T17:39:14Z</time>
      </trkpt>
      <trkpt lat="25.686761" lon="-100.194281">
        <ele>438.005</ele>
        <time>2020-02-03T17:39:15Z</time>
      </trkpt>
      <trkpt lat="25.686767" lon="-100.194252">
        <ele>438.594</ele>
        <time>2020-02-03T17:39:16Z</time>
      </trkpt>
      <trkpt lat="25.686772" lon="-100.194222">
        <ele>438.249</ele>
        <time>2020-02-03T17:39:17Z</time>
      </trkpt>
      <trkpt lat="25.686776" lon="-100.194192">
        <ele>438.626</ele>
        <time>2020-02-03T17:39:18Z</time>
      </trkpt>
      <trkpt lat="25.686782" lon="-100.194164">
        <ele>440.332</ele>
        <time>2020-02-03T17:39:19Z</time>
      </trkpt>
      <trkpt lat="25.686789" lon="-100.194137">
        <ele>440.97</ele>
        <time>2020-02-03T17:39:20Z</time>
      </trkpt>
      <trkpt lat="25.686798" lon="-100.19411">
        <ele>440.389</ele>
        <time>2020-02-03T17:39:21Z</time>
      </trkpt>
      <trkpt lat="25.686807" lon="-100.194083">
        <ele>439.82</ele>
        <time>2020-02-03T17:39:22Z</time>
      </trkpt>
      <trkpt lat="25.686815" lon="-100.194055">
        <ele>437.928</ele>
        <time>2020-02-03T17:39:23Z</time>
      </trkpt>
      <trkpt lat="25.686835" lon="-100.194008">
        <ele>437.416</ele>
        <time>2020-02-03T17:39:25Z</time>
      </trkpt>
      <trkpt lat="25.686852" lon="-100.193942">
        <ele>436.427</ele>
        <time>2020-02-03T17:39:28Z</time>
      </trkpt>
      <trkpt lat="25.686857" lon="-100.193916">
        <ele>436.375</ele>
        <time>2020-02-03T17:39:29Z</time>
      </trkpt>
      <trkpt lat="25.686862" lon="-100.19389">
        <ele>436.626</ele>
        <time>2020-02-03T17:39:30Z</time>
      </trkpt>
      <trkpt lat="25.686868" lon="-100.193862">
        <ele>436.99</ele>
        <time>2020-02-03T17:39:31Z</time>
      </trkpt>
      <trkpt lat="25.686877" lon="-100.193835">
        <ele>435.581</ele>
        <time>2020-02-03T17:39:32Z</time>
      </trkpt>
      <trkpt lat="25.686884" lon="-100.193807">
        <ele>435.299</ele>
        <time>2020-02-03T17:39:33Z</time>
      </trkpt>
      <trkpt lat="25.686891" lon="-100.19378">
        <ele>435.56</ele>
        <time>2020-02-03T17:39:34Z</time>
      </trkpt>
      <trkpt lat="25.686896" lon="-100.193754">
        <ele>435.19</ele>
        <time>2020-02-03T17:39:35Z</time>
      </trkpt>
      <trkpt lat="25.686904" lon="-100.193699">
        <ele>435.273</ele>
        <time>2020-02-03T17:39:37Z</time>
      </trkpt>
      <trkpt lat="25.68691" lon="-100.193648">
        <ele>433.887</ele>
        <time>2020-02-03T17:39:39Z</time>
      </trkpt>
      <trkpt lat="25.686922" lon="-100.193594">
        <ele>433.569</ele>
        <time>2020-02-03T17:39:41Z</time>
      </trkpt>
      <trkpt lat="25.68693" lon="-100.193568">
        <ele>432.864</ele>
        <time>2020-02-03T17:39:42Z</time>
      </trkpt>
      <trkpt lat="25.686936" lon="-100.193542">
        <ele>431.995</ele>
        <time>2020-02-03T17:39:43Z</time>
      </trkpt>
      <trkpt lat="25.686943" lon="-100.193487">
        <ele>432.163</ele>
        <time>2020-02-03T17:39:45Z</time>
      </trkpt>
      <trkpt lat="25.686945" lon="-100.193433">
        <ele>431.931</ele>
        <time>2020-02-03T17:39:47Z</time>
      </trkpt>
      <trkpt lat="25.686947" lon="-100.193406">
        <ele>431.796</ele>
        <time>2020-02-03T17:39:48Z</time>
      </trkpt>
      <trkpt lat="25.686949" lon="-100.19338">
        <ele>432.035</ele>
        <time>2020-02-03T17:39:49Z</time>
      </trkpt>
      <trkpt lat="25.686956" lon="-100.193322">
        <ele>434.141</ele>
        <time>2020-02-03T17:39:51Z</time>
      </trkpt>
      <trkpt lat="25.68696" lon="-100.193292">
        <ele>434.345</ele>
        <time>2020-02-03T17:39:52Z</time>
      </trkpt>
      <trkpt lat="25.686963" lon="-100.193266">
        <ele>435.009</ele>
        <time>2020-02-03T17:39:53Z</time>
      </trkpt>
      <trkpt lat="25.686968" lon="-100.193216">
        <ele>434.523</ele>
        <time>2020-02-03T17:39:55Z</time>
      </trkpt>
      <trkpt lat="25.686986" lon="-100.193146">
        <ele>431.557</ele>
        <time>2020-02-03T17:39:58Z</time>
      </trkpt>
      <trkpt lat="25.686981" lon="-100.193142">
        <ele>431.747</ele>
        <time>2020-02-03T17:40:04Z</time>
      </trkpt>
      <trkpt lat="25.686971" lon="-100.193089">
        <ele>431.58</ele>
        <time>2020-02-03T17:40:36Z</time>
      </trkpt>
      <trkpt lat="25.68698" lon="-100.193033">
        <ele>431.217</ele>
        <time>2020-02-03T17:40:40Z</time>
      </trkpt>
      <trkpt lat="25.686983" lon="-100.193001">
        <ele>430.485</ele>
        <time>2020-02-03T17:40:43Z</time>
      </trkpt>
      <trkpt lat="25.686982" lon="-100.19295">
        <ele>432.273</ele>
        <time>2020-02-03T17:40:48Z</time>
      </trkpt>
      <trkpt lat="25.687007" lon="-100.192908">
        <ele>432.714</ele>
        <time>2020-02-03T17:40:59Z</time>
      </trkpt>
      <trkpt lat="25.687017" lon="-100.192841">
        <ele>432.667</ele>
        <time>2020-02-03T17:41:04Z</time>
      </trkpt>
      <trkpt lat="25.687019" lon="-100.192814">
        <ele>432.808</ele>
        <time>2020-02-03T17:41:05Z</time>
      </trkpt>
      <trkpt lat="25.687022" lon="-100.192787">
        <ele>432.976</ele>
        <time>2020-02-03T17:41:06Z</time>
      </trkpt>
      <trkpt lat="25.687026" lon="-100.19276">
        <ele>433.195</ele>
        <time>2020-02-03T17:41:07Z</time>
      </trkpt>
      <trkpt lat="25.68703" lon="-100.192732">
        <ele>433.275</ele>
        <time>2020-02-03T17:41:08Z</time>
      </trkpt>
      <trkpt lat="25.687035" lon="-100.192705">
        <ele>433.151</ele>
        <time>2020-02-03T17:41:09Z</time>
      </trkpt>
      <trkpt lat="25.687041" lon="-100.192677">
        <ele>431.601</ele>
        <time>2020-02-03T17:41:10Z</time>
      </trkpt>
      <trkpt lat="25.687049" lon="-100.192649">
        <ele>429.543</ele>
        <time>2020-02-03T17:41:11Z</time>
      </trkpt>
      <trkpt lat="25.687058" lon="-100.192621">
        <ele>429.83</ele>
        <time>2020-02-03T17:41:12Z</time>
      </trkpt>
      <trkpt lat="25.687066" lon="-100.192594">
        <ele>430.674</ele>
        <time>2020-02-03T17:41:13Z</time>
      </trkpt>
      <trkpt lat="25.687073" lon="-100.192566">
        <ele>431.174</ele>
        <time>2020-02-03T17:41:14Z</time>
      </trkpt>
      <trkpt lat="25.687083" lon="-100.192508">
        <ele>431.831</ele>
        <time>2020-02-03T17:41:16Z</time>
      </trkpt>
      <trkpt lat="25.687121" lon="-100.192423">
        <ele>433.38</ele>
        <time>2020-02-03T17:41:19Z</time>
      </trkpt>
      <trkpt lat="25.687137" lon="-100.192359">
        <ele>433.171</ele>
        <time>2020-02-03T17:41:22Z</time>
      </trkpt>
      <trkpt lat="25.687147" lon="-100.192291">
        <ele>432.886</ele>
        <time>2020-02-03T17:41:25Z</time>
      </trkpt>
      <trkpt lat="25.687165" lon="-100.192241">
        <ele>432.531</ele>
        <time>2020-02-03T17:41:27Z</time>
      </trkpt>
      <trkpt lat="25.68719" lon="-100.19219">
        <ele>432.192</ele>
        <time>2020-02-03T17:41:29Z</time>
      </trkpt>
      <trkpt lat="25.687203" lon="-100.192132">
        <ele>431.778</ele>
        <time>2020-02-03T17:41:31Z</time>
      </trkpt>
      <trkpt lat="25.687207" lon="-100.192076">
        <ele>432.899</ele>
        <time>2020-02-03T17:41:33Z</time>
      </trkpt>
      <trkpt lat="25.687208" lon="-100.192048">
        <ele>431.865</ele>
        <time>2020-02-03T17:41:34Z</time>
      </trkpt>
      <trkpt lat="25.687212" lon="-100.191992">
        <ele>431.728</ele>
        <time>2020-02-03T17:41:36Z</time>
      </trkpt>
      <trkpt lat="25.687213" lon="-100.191933">
        <ele>432.15</ele>
        <time>2020-02-03T17:41:38Z</time>
      </trkpt>
      <trkpt lat="25.687213" lon="-100.1919">
        <ele>432.526</ele>
        <time>2020-02-03T17:41:39Z</time>
      </trkpt>
      <trkpt lat="25.687213" lon="-100.191868">
        <ele>433.0</ele>
        <time>2020-02-03T17:41:40Z</time>
      </trkpt>
      <trkpt lat="25.687212" lon="-100.191837">
        <ele>434.133</ele>
        <time>2020-02-03T17:41:41Z</time>
      </trkpt>
      <trkpt lat="25.687208" lon="-100.191777">
        <ele>434.493</ele>
        <time>2020-02-03T17:41:43Z</time>
      </trkpt>
      <trkpt lat="25.687215" lon="-100.191718">
        <ele>434.338</ele>
        <time>2020-02-03T17:41:45Z</time>
      </trkpt>
      <trkpt lat="25.687218" lon="-100.19169">
        <ele>432.437</ele>
        <time>2020-02-03T17:41:46Z</time>
      </trkpt>
      <trkpt lat="25.687221" lon="-100.191661">
        <ele>432.381</ele>
        <time>2020-02-03T17:41:47Z</time>
      </trkpt>
      <trkpt lat="25.687259" lon="-100.191606">
        <ele>433.411</ele>
        <time>2020-02-03T17:41:51Z</time>
      </trkpt>
      <trkpt lat="25.687282" lon="-100.19157">
        <ele>435.378</ele>
        <time>2020-02-03T17:41:54Z</time>
      </trkpt>
      <trkpt lat="25.687282" lon="-100.191517">
        <ele>433.459</ele>
        <time>2020-02-03T17:41:56Z</time>
      </trkpt>
      <trkpt lat="25.687279" lon="-100.19142">
        <ele>433.145</ele>
        <time>2020-02-03T17:41:59Z</time>
      </trkpt>
      <trkpt lat="25.687302" lon="-100.191357">
        <ele>434.335</ele>
        <time>2020-02-03T17:42:01Z</time>
      </trkpt>
      <trkpt lat="25.687314" lon="-100.191325">
        <ele>434.003</ele>
        <time>2020-02-03T17:42:02Z</time>
      </trkpt>
      <trkpt lat="25.687326" lon="-100.191231">
        <ele>433.826</ele>
        <time>2020-02-03T17:42:05Z</time>
      </trkpt>
      <trkpt lat="25.68732" lon="-100.191169">
        <ele>433.724</ele>
        <time>2020-02-03T17:42:07Z</time>
      </trkpt>
      <trkpt lat="25.687318" lon="-100.191139">
        <ele>434.276</ele>
        <time>2020-02-03T17:42:08Z</time>
      </trkpt>
      <trkpt lat="25.687317" lon="-100.19111">
        <ele>433.781</ele>
        <time>2020-02-03T17:42:09Z</time>
      </trkpt>
      <trkpt lat="25.687316" lon="-100.191082">
        <ele>433.697</ele>
        <time>2020-02-03T17:42:10Z</time>
      </trkpt>
      <trkpt lat="25.687317" lon="-100.191054">
        <ele>433.69</ele>
        <time>2020-02-03T17:42:11Z</time>
      </trkpt>
      <trkpt lat="25.687316" lon="-100.191011">
        <ele>433.187</ele>
        <time>2020-02-03T17:42:13Z</time>
      </trkpt>
      <trkpt lat="25.687305" lon="-100.190952">
        <ele>433.446</ele>
        <time>2020-02-03T17:42:15Z</time>
      </trkpt>
      <trkpt lat="25.687301" lon="-100.190921">
        <ele>433.419</ele>
        <time>2020-02-03T17:42:16Z</time>
      </trkpt>
      <trkpt lat="25.687306" lon="-100.190831">
        <ele>433.461</ele>
        <time>2020-02-03T17:42:19Z</time>
      </trkpt>
      <trkpt lat="25.687307" lon="-100.190802">
        <ele>432.909</ele>
        <time>2020-02-03T17:42:20Z</time>
      </trkpt>
      <trkpt lat="25.687307" lon="-100.190774">
        <ele>432.629</ele>
        <time>2020-02-03T17:42:21Z</time>
      </trkpt>
      <trkpt lat="25.687309" lon="-100.190745">
        <ele>433.512</ele>
        <time>2020-02-03T17:42:22Z</time>
      </trkpt>
      <trkpt lat="25.687322" lon="-100.190684">
        <ele>433.119</ele>
        <time>2020-02-03T17:42:24Z</time>
      </trkpt>
      <trkpt lat="25.687345" lon="-100.190632">
        <ele>432.264</ele>
        <time>2020-02-03T17:42:26Z</time>
      </trkpt>
      <trkpt lat="25.687356" lon="-100.190607">
        <ele>432.213</ele>
        <time>2020-02-03T17:42:27Z</time>
      </trkpt>
      <trkpt lat="25.687371" lon="-100.190555">
        <ele>432.445</ele>
        <time>2020-02-03T17:42:29Z</time>
      </trkpt>
      <trkpt lat="25.687379" lon="-100.190527">
        <ele>432.911</ele>
        <time>2020-02-03T17:42:30Z</time>
      </trkpt>
      <trkpt lat="25.687378" lon="-100.190454">
        <ele>432.878</ele>
        <time>2020-02-03T17:42:33Z</time>
      </trkpt>
      <trkpt lat="25.687404" lon="-100.190358">
        <ele>432.768</ele>
        <time>2020-02-03T17:42:37Z</time>
      </trkpt>
      <trkpt lat="25.687413" lon="-100.190332">
        <ele>433.148</ele>
        <time>2020-02-03T17:42:38Z</time>
      </trkpt>
      <trkpt lat="25.687423" lon="-100.190277">
        <ele>433.801</ele>
        <time>2020-02-03T17:42:40Z</time>
      </trkpt>
      <trkpt lat="25.687427" lon="-100.190246">
        <ele>434.132</ele>
        <time>2020-02-03T17:42:41Z</time>
      </trkpt>
      <trkpt lat="25.687431" lon="-100.190217">
        <ele>434.501</ele>
        <time>2020-02-03T17:42:42Z</time>
      </trkpt>
      <trkpt lat="25.687437" lon="-100.19019">
        <ele>434.483</ele>
        <time>2020-02-03T17:42:43Z</time>
      </trkpt>
      <trkpt lat="25.687443" lon="-100.190161">
        <ele>434.0</ele>
        <time>2020-02-03T17:42:44Z</time>
      </trkpt>
      <trkpt lat="25.687459" lon="-100.190101">
        <ele>433.908</ele>
        <time>2020-02-03T17:42:46Z</time>
      </trkpt>
      <trkpt lat="25.687466" lon="-100.190016">
        <ele>433.908</ele>
        <time>2020-02-03T17:42:49Z</time>
      </trkpt>
      <trkpt lat="25.68748" lon="-100.189958">
        <ele>435.234</ele>
        <time>2020-02-03T17:42:51Z</time>
      </trkpt>
      <trkpt lat="25.687487" lon="-100.189929">
        <ele>435.116</ele>
        <time>2020-02-03T17:42:52Z</time>
      </trkpt>
      <trkpt lat="25.687493" lon="-100.189901">
        <ele>435.161</ele>
        <time>2020-02-03T17:42:53Z</time>
      </trkpt>
      <trkpt lat="25.687499" lon="-100.189874">
        <ele>434.567</ele>
        <time>2020-02-03T17:42:54Z</time>
      </trkpt>
      <trkpt lat="25.687504" lon="-100.189844">
        <ele>434.696</ele>
        <time>2020-02-03T17:42:55Z</time>
      </trkpt>
      <trkpt lat="25.687508" lon="-100.189815">
        <ele>434.255</ele>
        <time>2020-02-03T17:42:56Z</time>
      </trkpt>
      <trkpt lat="25.687514" lon="-100.189786">
        <ele>434.061</ele>
        <time>2020-02-03T17:42:57Z</time>
      </trkpt>
      <trkpt lat="25.687515" lon="-100.189728">
        <ele>433.826</ele>
        <time>2020-02-03T17:43:01Z</time>
      </trkpt>
      <trkpt lat="25.687541" lon="-100.189693">
        <ele>433.417</ele>
        <time>2020-02-03T17:43:07Z</time>
      </trkpt>
      <trkpt lat="25.687539" lon="-100.189625">
        <ele>432.898</ele>
        <time>2020-02-03T17:43:17Z</time>
      </trkpt>
      <trkpt lat="25.68754" lon="-100.189579">
        <ele>432.951</ele>
        <time>2020-02-03T17:43:19Z</time>
      </trkpt>
      <trkpt lat="25.687546" lon="-100.189528">
        <ele>432.661</ele>
        <time>2020-02-03T17:43:21Z</time>
      </trkpt>
      <trkpt lat="25.68755" lon="-100.189497">
        <ele>435.472</ele>
        <time>2020-02-03T17:43:22Z</time>
      </trkpt>
      <trkpt lat="25.687553" lon="-100.189466">
        <ele>434.69</ele>
        <time>2020-02-03T17:43:23Z</time>
      </trkpt>
      <trkpt lat="25.687556" lon="-100.189433">
        <ele>433.983</ele>
        <time>2020-02-03T17:43:24Z</time>
      </trkpt>
      <trkpt lat="25.68756" lon="-100.189401">
        <ele>432.328</ele>
        <time>2020-02-03T17:43:25Z</time>
      </trkpt>
      <trkpt lat="25.687587" lon="-100.189317">
        <ele>432.835</ele>
        <time>2020-02-03T17:43:28Z</time>
      </trkpt>
      <trkpt lat="25.687595" lon="-100.189291">
        <ele>432.793</ele>
        <time>2020-02-03T17:43:29Z</time>
      </trkpt>
      <trkpt lat="25.687604" lon="-100.189239">
        <ele>432.767</ele>
        <time>2020-02-03T17:43:31Z</time>
      </trkpt>
      <trkpt lat="25.687608" lon="-100.189212">
        <ele>432.528</ele>
        <time>2020-02-03T17:43:32Z</time>
      </trkpt>
      <trkpt lat="25.687613" lon="-100.189185">
        <ele>432.946</ele>
        <time>2020-02-03T17:43:33Z</time>
      </trkpt>
      <trkpt lat="25.68762" lon="-100.189157">
        <ele>433.425</ele>
        <time>2020-02-03T17:43:34Z</time>
      </trkpt>
      <trkpt lat="25.687637" lon="-100.1891">
        <ele>433.159</ele>
        <time>2020-02-03T17:43:36Z</time>
      </trkpt>
      <trkpt lat="25.687647" lon="-100.18907">
        <ele>432.671</ele>
        <time>2020-02-03T17:43:37Z</time>
      </trkpt>
      <trkpt lat="25.687659" lon="-100.189042">
        <ele>432.518</ele>
        <time>2020-02-03T17:43:38Z</time>
      </trkpt>
      <trkpt lat="25.687672" lon="-100.189015">
        <ele>433.168</ele>
        <time>2020-02-03T17:43:39Z</time>
      </trkpt>
      <trkpt lat="25.687687" lon="-100.188989">
        <ele>433.24</ele>
        <time>2020-02-03T17:43:40Z</time>
      </trkpt>
      <trkpt lat="25.687701" lon="-100.188964">
        <ele>432.463</ele>
        <time>2020-02-03T17:43:41Z</time>
      </trkpt>
      <trkpt lat="25.687715" lon="-100.188937">
        <ele>432.045</ele>
        <time>2020-02-03T17:43:42Z</time>
      </trkpt>
      <trkpt lat="25.687727" lon="-100.188911">
        <ele>432.319</ele>
        <time>2020-02-03T17:43:43Z</time>
      </trkpt>
      <trkpt lat="25.687739" lon="-100.188884">
        <ele>432.638</ele>
        <time>2020-02-03T17:43:44Z</time>
      </trkpt>
      <trkpt lat="25.68775" lon="-100.188858">
        <ele>434.466</ele>
        <time>2020-02-03T17:43:45Z</time>
      </trkpt>
      <trkpt lat="25.68776" lon="-100.188833">
        <ele>433.409</ele>
        <time>2020-02-03T17:43:46Z</time>
      </trkpt>
      <trkpt lat="25.68777" lon="-100.188808">
        <ele>433.741</ele>
        <time>2020-02-03T17:43:47Z</time>
      </trkpt>
      <trkpt lat="25.68778" lon="-100.188781">
        <ele>434.207</ele>
        <time>2020-02-03T17:43:48Z</time>
      </trkpt>
      <trkpt lat="25.687794" lon="-100.188749">
        <ele>432.011</ele>
        <time>2020-02-03T17:43:49Z</time>
      </trkpt>
      <trkpt lat="25.687822" lon="-100.188688">
        <ele>432.403</ele>
        <time>2020-02-03T17:43:51Z</time>
      </trkpt>
      <trkpt lat="25.687859" lon="-100.188641">
        <ele>431.952</ele>
        <time>2020-02-03T17:43:53Z</time>
      </trkpt>
      <trkpt lat="25.687899" lon="-100.188598">
        <ele>432.155</ele>
        <time>2020-02-03T17:43:55Z</time>
      </trkpt>
      <trkpt lat="25.687924" lon="-100.188552">
        <ele>432.569</ele>
        <time>2020-02-03T17:43:57Z</time>
      </trkpt>
      <trkpt lat="25.687938" lon="-100.188501">
        <ele>434.969</ele>
        <time>2020-02-03T17:43:59Z</time>
      </trkpt>
      <trkpt lat="25.687944" lon="-100.188474">
        <ele>435.767</ele>
        <time>2020-02-03T17:44:00Z</time>
      </trkpt>
      <trkpt lat="25.687951" lon="-100.188447">
        <ele>437.164</ele>
        <time>2020-02-03T17:44:01Z</time>
      </trkpt>
      <trkpt lat="25.68796" lon="-100.18842">
        <ele>437.039</ele>
        <time>2020-02-03T17:44:02Z</time>
      </trkpt>
      <trkpt lat="25.687967" lon="-100.188394">
        <ele>436.797</ele>
        <time>2020-02-03T17:44:03Z</time>
      </trkpt>
      <trkpt lat="25.687975" lon="-100.18837">
        <ele>436.214</ele>
        <time>2020-02-03T17:44:04Z</time>
      </trkpt>
      <trkpt lat="25.687991" lon="-100.188324">
        <ele>435.326</ele>
        <time>2020-02-03T17:44:06Z</time>
      </trkpt>
      <trkpt lat="25.687999" lon="-100.1883">
        <ele>434.205</ele>
        <time>2020-02-03T17:44:07Z</time>
      </trkpt>
      <trkpt lat="25.68801" lon="-100.188275">
        <ele>435.001</ele>
        <time>2020-02-03T17:44:08Z</time>
      </trkpt>
      <trkpt lat="25.688019" lon="-100.188249">
        <ele>434.513</ele>
        <time>2020-02-03T17:44:09Z</time>
      </trkpt>
      <trkpt lat="25.688027" lon="-100.188225">
        <ele>434.745</ele>
        <time>2020-02-03T17:44:10Z</time>
      </trkpt>
      <trkpt lat="25.688043" lon="-100.188173">
        <ele>435.389</ele>
        <time>2020-02-03T17:44:12Z</time>
      </trkpt>
      <trkpt lat="25.68805" lon="-100.188146">
        <ele>435.711</ele>
        <time>2020-02-03T17:44:13Z</time>
      </trkpt>
      <trkpt lat="25.68806" lon="-100.188096">
        <ele>434.649</ele>
        <time>2020-02-03T17:44:15Z</time>
      </trkpt>
      <trkpt lat="25.688095" lon="-100.188011">
        <ele>434.48</ele>
        <time>2020-02-03T17:44:19Z</time>
      </trkpt>
      <trkpt lat="25.688109" lon="-100.187973">
        <ele>436.707</ele>
        <time>2020-02-03T17:44:21Z</time>
      </trkpt>
      <trkpt lat="25.688124" lon="-100.187933">
        <ele>435.827</ele>
        <time>2020-02-03T17:44:23Z</time>
      </trkpt>
      <trkpt lat="25.688139" lon="-100.187891">
        <ele>434.699</ele>
        <time>2020-02-03T17:44:25Z</time>
      </trkpt>
      <trkpt lat="25.688154" lon="-100.187833">
        <ele>434.115</ele>
        <time>2020-02-03T17:44:28Z</time>
      </trkpt>
      <trkpt lat="25.688165" lon="-100.187789">
        <ele>435.052</ele>
        <time>2020-02-03T17:44:30Z</time>
      </trkpt>
      <trkpt lat="25.688179" lon="-100.187722">
        <ele>433.552</ele>
        <time>2020-02-03T17:44:33Z</time>
      </trkpt>
      <trkpt lat="25.688217" lon="-100.187679">
        <ele>434.466</ele>
        <time>2020-02-03T17:44:38Z</time>
      </trkpt>
      <trkpt lat="25.688244" lon="-100.18763">
        <ele>434.359</ele>
        <time>2020-02-03T17:44:45Z</time>
      </trkpt>
      <trkpt lat="25.688233" lon="-100.187574">
        <ele>434.405</ele>
        <time>2020-02-03T17:44:50Z</time>
      </trkpt>
      <trkpt lat="25.68822" lon="-100.187526">
        <time>2020-02-03T17:44:54Z</time>
      </trkpt>
      <trkpt lat="25.688216" lon="-100.187466">
        <time>2020-02-03T17:44:59Z</time>
      </trkpt>
      <trkpt lat="25.688211" lon="-100.187431">
        <time>2020-02-03T17:45:02Z</time>
      </trkpt>
      <trkpt lat="25.688207" lon="-100.187403">
        <time>2020-02-03T17:45:06Z</time>
      </trkpt>
      <trkpt lat="25.688207" lon="-100.187354">
        <time>2020-02-03T17:45:14Z</time>
      </trkpt>
      <trkpt lat="25.688218" lon="-100.187304">
        <time>2020-02-03T17:45:21Z</time>
      </trkpt>
      <trkpt lat="25.688236" lon="-100.187252">
        <time>2020-02-03T17:45:31Z</time>
      </trkpt>
      <trkpt lat="25.688235" lon="-100.187199">
        <time>2020-02-03T17:45:36Z</time>
      </trkpt>
      <trkpt lat="25.688244" lon="-100.187139">
        <time>2020-02-03T17:45:41Z</time>
      </trkpt>
      <trkpt lat="25.688248" lon="-100.187084">
        <time>2020-02-03T17:45:46Z</time>
      </trkpt>
      <trkpt lat="25.688259" lon="-100.187033">
        <time>2020-02-03T17:45:51Z</time>
      </trkpt>
      <trkpt lat="25.688263" lon="-100.187007">
        <time>2020-02-03T17:45:53Z</time>
      </trkpt>
      <trkpt lat="25.688268" lon="-100.186976">
        <time>2020-02-03T17:45:56Z</time>
      </trkpt>
      <trkpt lat="25.688264" lon="-100.186925">
        <time>2020-02-03T17:46:01Z</time>
      </trkpt>
      <trkpt lat="25.688227" lon="-100.186882">
        <time>2020-02-03T17:46:07Z</time>
      </trkpt>
      <trkpt lat="25.688221" lon="-100.186853">
        <time>2020-02-03T17:46:11Z</time>
      </trkpt>
      <trkpt lat="25.688234" lon="-100.1868">
        <time>2020-02-03T17:46:17Z</time>
      </trkpt>
      <trkpt lat="25.68824" lon="-100.18677">
        <time>2020-02-03T17:46:20Z</time>
      </trkpt>
      <trkpt lat="25.688241" lon="-100.186711">
        <time>2020-02-03T17:46:25Z</time>
      </trkpt>
      <trkpt lat="25.688255" lon="-100.186662">
        <time>2020-02-03T17:46:29Z</time>
      </trkpt>
      <trkpt lat="25.688265" lon="-100.186603">
        <time>2020-02-03T17:46:34Z</time>
      </trkpt>
      <trkpt lat="25.688283" lon="-100.18655">
        <time>2020-02-03T17:46:39Z</time>
      </trkpt>
      <trkpt lat="25.688279" lon="-100.186491">
        <time>2020-02-03T17:46:45Z</time>
      </trkpt>
      <trkpt lat="25.688279" lon="-100.186491">
        <time>2020-02-03T17:47:02Z</time>
      </trkpt>
      <trkpt lat="25.688279" lon="-100.186491">
        <time>2020-02-03T17:47:02Z</time>
      </trkpt>
      <trkpt lat="25.688287" lon="-100.186379">
        <ele>436.55</ele>
        <time>2020-02-03T17:48:32Z</time>
      </trkpt>
      <trkpt lat="25.688287" lon="-100.186379">
        <ele>434.216</ele>
        <time>2020-02-03T17:48:35Z</time>
      </trkpt>
      <trkpt lat="25.688297" lon="-100.186313">
        <ele>433.306</ele>
        <time>2020-02-03T17:48:48Z</time>
      </trkpt>
      <trkpt lat="25.688299" lon="-100.186255">
        <ele>434.124</ele>
        <time>2020-02-03T17:48:51Z</time>
      </trkpt>
      <trkpt lat="25.688298" lon="-100.186217">
        <ele>434.306</ele>
        <time>2020-02-03T17:48:53Z</time>
      </trkpt>
      <trkpt lat="25.688297" lon="-100.186183">
        <ele>434.07</ele>
        <time>2020-02-03T17:48:54Z</time>
      </trkpt>
      <trkpt lat="25.688296" lon="-100.186148">
        <ele>432.975</ele>
        <time>2020-02-03T17:48:55Z</time>
      </trkpt>
      <trkpt lat="25.688294" lon="-100.18612">
        <ele>432.0</ele>
        <time>2020-02-03T17:48:56Z</time>
      </trkpt>
      <trkpt lat="25.688287" lon="-100.186061">
        <ele>432.901</ele>
        <time>2020-02-03T17:48:58Z</time>
      </trkpt>
      <trkpt lat="25.688282" lon="-100.186031">
        <ele>432.697</ele>
        <time>2020-02-03T17:48:59Z</time>
      </trkpt>
      <trkpt lat="25.688279" lon="-100.186">
        <ele>432.541</ele>
        <time>2020-02-03T17:49:00Z</time>
      </trkpt>
      <trkpt lat="25.688277" lon="-100.185969">
        <ele>432.471</ele>
        <time>2020-02-03T17:49:01Z</time>
      </trkpt>
      <trkpt lat="25.688275" lon="-100.185938">
        <ele>432.485</ele>
        <time>2020-02-03T17:49:02Z</time>
      </trkpt>
      <trkpt lat="25.688274" lon="-100.185906">
        <ele>432.125</ele>
        <time>2020-02-03T17:49:03Z</time>
      </trkpt>
      <trkpt lat="25.688271" lon="-100.185877">
        <ele>431.203</ele>
        <time>2020-02-03T17:49:04Z</time>
      </trkpt>
      <trkpt lat="25.688267" lon="-100.185847">
        <ele>430.932</ele>
        <time>2020-02-03T17:49:05Z</time>
      </trkpt>
      <trkpt lat="25.688262" lon="-100.185818">
        <ele>431.186</ele>
        <time>2020-02-03T17:49:06Z</time>
      </trkpt>
      <trkpt lat="25.688259" lon="-100.185787">
        <ele>430.256</ele>
        <time>2020-02-03T17:49:07Z</time>
      </trkpt>
      <trkpt lat="25.688259" lon="-100.185726">
        <ele>431.113</ele>
        <time>2020-02-03T17:49:09Z</time>
      </trkpt>
      <trkpt lat="25.68826" lon="-100.185693">
        <ele>431.085</ele>
        <time>2020-02-03T17:49:10Z</time>
      </trkpt>
      <trkpt lat="25.688261" lon="-100.18566">
        <ele>430.76</ele>
        <time>2020-02-03T17:49:11Z</time>
      </trkpt>
      <trkpt lat="25.688263" lon="-100.185628">
        <ele>431.628</ele>
        <time>2020-02-03T17:49:12Z</time>
      </trkpt>
      <trkpt lat="25.688265" lon="-100.185596">
        <ele>431.726</ele>
        <time>2020-02-03T17:49:13Z</time>
      </trkpt>
      <trkpt lat="25.688275" lon="-100.185537">
        <ele>432.387</ele>
        <time>2020-02-03T17:49:15Z</time>
      </trkpt>
      <trkpt lat="25.688278" lon="-100.185507">
        <ele>432.499</ele>
        <time>2020-02-03T17:49:16Z</time>
      </trkpt>
      <trkpt lat="25.688281" lon="-100.185475">
        <ele>432.779</ele>
        <time>2020-02-03T17:49:17Z</time>
      </trkpt>
      <trkpt lat="25.688284" lon="-100.185442">
        <ele>432.99</ele>
        <time>2020-02-03T17:49:18Z</time>
      </trkpt>
      <trkpt lat="25.688287" lon="-100.185409">
        <ele>432.949</ele>
        <time>2020-02-03T17:49:19Z</time>
      </trkpt>
      <trkpt lat="25.688289" lon="-100.185379">
        <ele>433.526</ele>
        <time>2020-02-03T17:49:20Z</time>
      </trkpt>
      <trkpt lat="25.688277" lon="-100.185323">
        <ele>433.296</ele>
        <time>2020-02-03T17:49:22Z</time>
      </trkpt>
      <trkpt lat="25.688271" lon="-100.185298">
        <ele>434.232</ele>
        <time>2020-02-03T17:49:23Z</time>
      </trkpt>
      <trkpt lat="25.688266" lon="-100.185224">
        <ele>434.853</ele>
        <time>2020-02-03T17:49:26Z</time>
      </trkpt>
      <trkpt lat="25.688265" lon="-100.185146">
        <ele>435.028</ele>
        <time>2020-02-03T17:49:29Z</time>
      </trkpt>
      <trkpt lat="25.688264" lon="-100.18512">
        <ele>434.605</ele>
        <time>2020-02-03T17:49:30Z</time>
      </trkpt>
      <trkpt lat="25.688263" lon="-100.185094">
        <ele>432.579</ele>
        <time>2020-02-03T17:49:31Z</time>
      </trkpt>
      <trkpt lat="25.688259" lon="-100.185042">
        <ele>431.833</ele>
        <time>2020-02-03T17:49:33Z</time>
      </trkpt>
      <trkpt lat="25.688261" lon="-100.184987">
        <ele>431.816</ele>
        <time>2020-02-03T17:49:35Z</time>
      </trkpt>
      <trkpt lat="25.688262" lon="-100.184959">
        <ele>431.947</ele>
        <time>2020-02-03T17:49:36Z</time>
      </trkpt>
      <trkpt lat="25.688262" lon="-100.18493">
        <ele>432.543</ele>
        <time>2020-02-03T17:49:37Z</time>
      </trkpt>
      <trkpt lat="25.688254" lon="-100.184872">
        <ele>432.875</ele>
        <time>2020-02-03T17:49:39Z</time>
      </trkpt>
      <trkpt lat="25.68825" lon="-100.184841">
        <ele>434.97</ele>
        <time>2020-02-03T17:49:40Z</time>
      </trkpt>
      <trkpt lat="25.688246" lon="-100.184745">
        <ele>434.557</ele>
        <time>2020-02-03T17:49:43Z</time>
      </trkpt>
      <trkpt lat="25.688243" lon="-100.184714">
        <ele>434.367</ele>
        <time>2020-02-03T17:49:44Z</time>
      </trkpt>
      <trkpt lat="25.688238" lon="-100.184683">
        <ele>434.078</ele>
        <time>2020-02-03T17:49:45Z</time>
      </trkpt>
      <trkpt lat="25.688233" lon="-100.184652">
        <ele>433.763</ele>
        <time>2020-02-03T17:49:46Z</time>
      </trkpt>
      <trkpt lat="25.688227" lon="-100.184622">
        <ele>434.118</ele>
        <time>2020-02-03T17:49:47Z</time>
      </trkpt>
      <trkpt lat="25.68822" lon="-100.184592">
        <ele>433.484</ele>
        <time>2020-02-03T17:49:48Z</time>
      </trkpt>
      <trkpt lat="25.688213" lon="-100.184562">
        <ele>433.377</ele>
        <time>2020-02-03T17:49:49Z</time>
      </trkpt>
      <trkpt lat="25.688207" lon="-100.184533">
        <ele>432.371</ele>
        <time>2020-02-03T17:49:50Z</time>
      </trkpt>
      <trkpt lat="25.688199" lon="-100.184503">
        <ele>431.779</ele>
        <time>2020-02-03T17:49:51Z</time>
      </trkpt>
      <trkpt lat="25.688191" lon="-100.184475">
        <ele>431.548</ele>
        <time>2020-02-03T17:49:52Z</time>
      </trkpt>
      <trkpt lat="25.688185" lon="-100.18445">
        <ele>431.736</ele>
        <time>2020-02-03T17:49:53Z</time>
      </trkpt>
      <trkpt lat="25.688179" lon="-100.184425">
        <ele>431.748</ele>
        <time>2020-02-03T17:49:54Z</time>
      </trkpt>
      <trkpt lat="25.688172" lon="-100.184399">
        <ele>432.957</ele>
        <time>2020-02-03T17:49:55Z</time>
      </trkpt>
      <trkpt lat="25.688166" lon="-100.184373">
        <ele>433.013</ele>
        <time>2020-02-03T17:49:56Z</time>
      </trkpt>
      <trkpt lat="25.68816" lon="-100.184346">
        <ele>432.908</ele>
        <time>2020-02-03T17:49:57Z</time>
      </trkpt>
      <trkpt lat="25.688154" lon="-100.184319">
        <ele>433.388</ele>
        <time>2020-02-03T17:49:58Z</time>
      </trkpt>
      <trkpt lat="25.688147" lon="-100.184292">
        <ele>434.447</ele>
        <time>2020-02-03T17:49:59Z</time>
      </trkpt>
      <trkpt lat="25.688138" lon="-100.184263">
        <ele>434.136</ele>
        <time>2020-02-03T17:50:00Z</time>
      </trkpt>
      <trkpt lat="25.688128" lon="-100.184234">
        <ele>431.714</ele>
        <time>2020-02-03T17:50:01Z</time>
      </trkpt>
      <trkpt lat="25.688119" lon="-100.18421">
        <ele>431.442</ele>
        <time>2020-02-03T17:50:02Z</time>
      </trkpt>
      <trkpt lat="25.688109" lon="-100.184184">
        <ele>431.725</ele>
        <time>2020-02-03T17:50:03Z</time>
      </trkpt>
      <trkpt lat="25.688074" lon="-100.18412">
        <ele>431.3</ele>
        <time>2020-02-03T17:50:06Z</time>
      </trkpt>
      <trkpt lat="25.688046" lon="-100.184054">
        <ele>431.516</ele>
        <time>2020-02-03T17:50:09Z</time>
      </trkpt>
      <trkpt lat="25.688037" lon="-100.18403">
        <ele>431.39</ele>
        <time>2020-02-03T17:50:10Z</time>
      </trkpt>
      <trkpt lat="25.688028" lon="-100.184005">
        <ele>432.134</ele>
        <time>2020-02-03T17:50:11Z</time>
      </trkpt>
      <trkpt lat="25.68802" lon="-100.18398">
        <ele>431.986</ele>
        <time>2020-02-03T17:50:12Z</time>
      </trkpt>
      <trkpt lat="25.688014" lon="-100.183956">
        <ele>430.651</ele>
        <time>2020-02-03T17:50:13Z</time>
      </trkpt>
      <trkpt lat="25.688006" lon="-100.183884">
        <ele>429.413</ele>
        <time>2020-02-03T17:50:16Z</time>
      </trkpt>
      <trkpt lat="25.687988" lon="-100.183838">
        <ele>428.139</ele>
        <time>2020-02-03T17:50:18Z</time>
      </trkpt>
      <trkpt lat="25.687967" lon="-100.183793">
        <ele>426.888</ele>
        <time>2020-02-03T17:50:20Z</time>
      </trkpt>
      <trkpt lat="25.68794" lon="-100.183725">
        <ele>426.423</ele>
        <time>2020-02-03T17:50:23Z</time>
      </trkpt>
      <trkpt lat="25.687929" lon="-100.183701">
        <ele>425.305</ele>
        <time>2020-02-03T17:50:24Z</time>
      </trkpt>
      <trkpt lat="25.687901" lon="-100.183653">
        <ele>425.028</ele>
        <time>2020-02-03T17:50:26Z</time>
      </trkpt>
      <trkpt lat="25.687886" lon="-100.183629">
        <ele>424.898</ele>
        <time>2020-02-03T17:50:27Z</time>
      </trkpt>
      <trkpt lat="25.687867" lon="-100.183574">
        <ele>425.43</ele>
        <time>2020-02-03T17:50:29Z</time>
      </trkpt>
      <trkpt lat="25.687859" lon="-100.183516">
        <ele>425.154</ele>
        <time>2020-02-03T17:50:31Z</time>
      </trkpt>
      <trkpt lat="25.687855" lon="-100.18349">
        <ele>426.243</ele>
        <time>2020-02-03T17:50:32Z</time>
      </trkpt>
      <trkpt lat="25.687839" lon="-100.18344">
        <ele>425.056</ele>
        <time>2020-02-03T17:50:34Z</time>
      </trkpt>
      <trkpt lat="25.687814" lon="-100.183362">
        <ele>426.074</ele>
        <time>2020-02-03T17:50:37Z</time>
      </trkpt>
      <trkpt lat="25.687806" lon="-100.183336">
        <ele>427.504</ele>
        <time>2020-02-03T17:50:38Z</time>
      </trkpt>
      <trkpt lat="25.687796" lon="-100.183279">
        <ele>427.637</ele>
        <time>2020-02-03T17:50:40Z</time>
      </trkpt>
      <trkpt lat="25.687792" lon="-100.18325">
        <ele>427.637</ele>
        <time>2020-02-03T17:50:41Z</time>
      </trkpt>
      <trkpt lat="25.687787" lon="-100.183223">
        <ele>427.996</ele>
        <time>2020-02-03T17:50:42Z</time>
      </trkpt>
      <trkpt lat="25.687781" lon="-100.183195">
        <ele>427.848</ele>
        <time>2020-02-03T17:50:43Z</time>
      </trkpt>
      <trkpt lat="25.687776" lon="-100.183168">
        <ele>428.593</ele>
        <time>2020-02-03T17:50:44Z</time>
      </trkpt>
      <trkpt lat="25.687769" lon="-100.18314">
        <ele>428.851</ele>
        <time>2020-02-03T17:50:45Z</time>
      </trkpt>
      <trkpt lat="25.687764" lon="-100.183082">
        <ele>428.784</ele>
        <time>2020-02-03T17:50:47Z</time>
      </trkpt>
      <trkpt lat="25.687767" lon="-100.183025">
        <ele>429.076</ele>
        <time>2020-02-03T17:50:49Z</time>
      </trkpt>
      <trkpt lat="25.687768" lon="-100.182996">
        <ele>428.544</ele>
        <time>2020-02-03T17:50:50Z</time>
      </trkpt>
      <trkpt lat="25.687768" lon="-100.182966">
        <ele>428.367</ele>
        <time>2020-02-03T17:50:51Z</time>
      </trkpt>
      <trkpt lat="25.687773" lon="-100.182911">
        <ele>428.237</ele>
        <time>2020-02-03T17:50:53Z</time>
      </trkpt>
      <trkpt lat="25.687777" lon="-100.182882">
        <ele>428.258</ele>
        <time>2020-02-03T17:50:54Z</time>
      </trkpt>
      <trkpt lat="25.687773" lon="-100.182829">
        <ele>428.303</ele>
        <time>2020-02-03T17:50:56Z</time>
      </trkpt>
      <trkpt lat="25.687767" lon="-100.182777">
        <ele>427.651</ele>
        <time>2020-02-03T17:50:58Z</time>
      </trkpt>
      <trkpt lat="25.68777" lon="-100.182727">
        <ele>428.008</ele>
        <time>2020-02-03T17:51:00Z</time>
      </trkpt>
      <trkpt lat="25.687774" lon="-100.182672">
        <ele>428.262</ele>
        <time>2020-02-03T17:51:02Z</time>
      </trkpt>
      <trkpt lat="25.687777" lon="-100.182643">
        <ele>429.075</ele>
        <time>2020-02-03T17:51:03Z</time>
      </trkpt>
      <trkpt lat="25.687781" lon="-100.182613">
        <ele>428.997</ele>
        <time>2020-02-03T17:51:04Z</time>
      </trkpt>
      <trkpt lat="25.687785" lon="-100.182584">
        <ele>429.478</ele>
        <time>2020-02-03T17:51:05Z</time>
      </trkpt>
      <trkpt lat="25.687789" lon="-100.182554">
        <ele>429.499</ele>
        <time>2020-02-03T17:51:06Z</time>
      </trkpt>
      <trkpt lat="25.687793" lon="-100.182526">
        <ele>429.382</ele>
        <time>2020-02-03T17:51:07Z</time>
      </trkpt>
      <trkpt lat="25.687797" lon="-100.182497">
        <ele>429.807</ele>
        <time>2020-02-03T17:51:08Z</time>
      </trkpt>
      <trkpt lat="25.687801" lon="-100.182469">
        <ele>429.671</ele>
        <time>2020-02-03T17:51:09Z</time>
      </trkpt>
      <trkpt lat="25.687805" lon="-100.182441">
        <ele>429.581</ele>
        <time>2020-02-03T17:51:10Z</time>
      </trkpt>
      <trkpt lat="25.68781" lon="-100.182413">
        <ele>429.872</ele>
        <time>2020-02-03T17:51:11Z</time>
      </trkpt>
      <trkpt lat="25.687814" lon="-100.182385">
        <ele>429.809</ele>
        <time>2020-02-03T17:51:12Z</time>
      </trkpt>
      <trkpt lat="25.687818" lon="-100.182356">
        <ele>429.869</ele>
        <time>2020-02-03T17:51:13Z</time>
      </trkpt>
      <trkpt lat="25.687822" lon="-100.182329">
        <ele>429.187</ele>
        <time>2020-02-03T17:51:14Z</time>
      </trkpt>
      <trkpt lat="25.687828" lon="-100.182301">
        <ele>428.387</ele>
        <time>2020-02-03T17:51:15Z</time>
      </trkpt>
      <trkpt lat="25.687846" lon="-100.182249">
        <ele>427.395</ele>
        <time>2020-02-03T17:51:17Z</time>
      </trkpt>
      <trkpt lat="25.687854" lon="-100.182222">
        <ele>427.043</ele>
        <time>2020-02-03T17:51:18Z</time>
      </trkpt>
      <trkpt lat="25.687861" lon="-100.182195">
        <ele>427.071</ele>
        <time>2020-02-03T17:51:19Z</time>
      </trkpt>
      <trkpt lat="25.687867" lon="-100.182169">
        <ele>428.408</ele>
        <time>2020-02-03T17:51:20Z</time>
      </trkpt>
      <trkpt lat="25.687873" lon="-100.182142">
        <ele>428.014</ele>
        <time>2020-02-03T17:51:21Z</time>
      </trkpt>
      <trkpt lat="25.687878" lon="-100.182114">
        <ele>428.355</ele>
        <time>2020-02-03T17:51:22Z</time>
      </trkpt>
      <trkpt lat="25.687884" lon="-100.182085">
        <ele>429.099</ele>
        <time>2020-02-03T17:51:23Z</time>
      </trkpt>
      <trkpt lat="25.68789" lon="-100.182058">
        <ele>429.024</ele>
        <time>2020-02-03T17:51:24Z</time>
      </trkpt>
      <trkpt lat="25.687896" lon="-100.182031">
        <ele>429.414</ele>
        <time>2020-02-03T17:51:25Z</time>
      </trkpt>
      <trkpt lat="25.6879" lon="-100.182004">
        <ele>429.12</ele>
        <time>2020-02-03T17:51:26Z</time>
      </trkpt>
      <trkpt lat="25.687904" lon="-100.181976">
        <ele>429.653</ele>
        <time>2020-02-03T17:51:27Z</time>
      </trkpt>
      <trkpt lat="25.687908" lon="-100.181946">
        <ele>429.418</ele>
        <time>2020-02-03T17:51:28Z</time>
      </trkpt>
      <trkpt lat="25.68791" lon="-100.181919">
        <ele>429.68</ele>
        <time>2020-02-03T17:51:29Z</time>
      </trkpt>
      <trkpt lat="25.687914" lon="-100.181891">
        <ele>429.748</ele>
        <time>2020-02-03T17:51:30Z</time>
      </trkpt>
      <trkpt lat="25.687929" lon="-100.181837">
        <ele>429.441</ele>
        <time>2020-02-03T17:51:32Z</time>
      </trkpt>
      <trkpt lat="25.687936" lon="-100.181811">
        <ele>429.682</ele>
        <time>2020-02-03T17:51:33Z</time>
      </trkpt>
      <trkpt lat="25.687942" lon="-100.181785">
        <ele>429.463</ele>
        <time>2020-02-03T17:51:34Z</time>
      </trkpt>
      <trkpt lat="25.687947" lon="-100.181759">
        <ele>428.875</ele>
        <time>2020-02-03T17:51:35Z</time>
      </trkpt>
      <trkpt lat="25.687953" lon="-100.181734">
        <ele>429.378</ele>
        <time>2020-02-03T17:51:36Z</time>
      </trkpt>
      <trkpt lat="25.687957" lon="-100.181709">
        <ele>429.823</ele>
        <time>2020-02-03T17:51:37Z</time>
      </trkpt>
      <trkpt lat="25.68796" lon="-100.181683">
        <ele>430.204</ele>
        <time>2020-02-03T17:51:38Z</time>
      </trkpt>
      <trkpt lat="25.687963" lon="-100.181656">
        <ele>430.09</ele>
        <time>2020-02-03T17:51:39Z</time>
      </trkpt>
      <trkpt lat="25.687966" lon="-100.18163">
        <ele>428.538</ele>
        <time>2020-02-03T17:51:40Z</time>
      </trkpt>
      <trkpt lat="25.68797" lon="-100.181605">
        <ele>428.423</ele>
        <time>2020-02-03T17:51:41Z</time>
      </trkpt>
      <trkpt lat="25.687979" lon="-100.181527">
        <ele>427.818</ele>
        <time>2020-02-03T17:51:44Z</time>
      </trkpt>
      <trkpt lat="25.68798" lon="-100.181501">
        <ele>427.041</ele>
        <time>2020-02-03T17:51:45Z</time>
      </trkpt>
      <trkpt lat="25.687988" lon="-100.181448">
        <ele>427.884</ele>
        <time>2020-02-03T17:51:47Z</time>
      </trkpt>
      <trkpt lat="25.687995" lon="-100.181419">
        <ele>427.35</ele>
        <time>2020-02-03T17:51:48Z</time>
      </trkpt>
      <trkpt lat="25.688003" lon="-100.181389">
        <ele>427.108</ele>
        <time>2020-02-03T17:51:49Z</time>
      </trkpt>
      <trkpt lat="25.688012" lon="-100.181361">
        <ele>427.701</ele>
        <time>2020-02-03T17:51:50Z</time>
      </trkpt>
      <trkpt lat="25.68802" lon="-100.181334">
        <ele>428.287</ele>
        <time>2020-02-03T17:51:51Z</time>
      </trkpt>
      <trkpt lat="25.688028" lon="-100.181305">
        <ele>427.903</ele>
        <time>2020-02-03T17:51:52Z</time>
      </trkpt>
      <trkpt lat="25.68804" lon="-100.181249">
        <ele>428.348</ele>
        <time>2020-02-03T17:51:54Z</time>
      </trkpt>
      <trkpt lat="25.688046" lon="-100.181219">
        <ele>427.791</ele>
        <time>2020-02-03T17:51:55Z</time>
      </trkpt>
      <trkpt lat="25.688053" lon="-100.181161">
        <ele>427.325</ele>
        <time>2020-02-03T17:51:57Z</time>
      </trkpt>
      <trkpt lat="25.688069" lon="-100.181084">
        <ele>427.5</ele>
        <time>2020-02-03T17:52:00Z</time>
      </trkpt>
      <trkpt lat="25.688073" lon="-100.181059">
        <ele>427.103</ele>
        <time>2020-02-03T17:52:01Z</time>
      </trkpt>
      <trkpt lat="25.688081" lon="-100.18101">
        <ele>426.11</ele>
        <time>2020-02-03T17:52:03Z</time>
      </trkpt>
      <trkpt lat="25.688086" lon="-100.180983">
        <ele>425.849</ele>
        <time>2020-02-03T17:52:04Z</time>
      </trkpt>
      <trkpt lat="25.688091" lon="-100.180957">
        <ele>425.445</ele>
        <time>2020-02-03T17:52:05Z</time>
      </trkpt>
      <trkpt lat="25.688096" lon="-100.18093">
        <ele>425.708</ele>
        <time>2020-02-03T17:52:06Z</time>
      </trkpt>
      <trkpt lat="25.688101" lon="-100.180905">
        <ele>426.605</ele>
        <time>2020-02-03T17:52:07Z</time>
      </trkpt>
      <trkpt lat="25.688107" lon="-100.180881">
        <ele>426.717</ele>
        <time>2020-02-03T17:52:08Z</time>
      </trkpt>
      <trkpt lat="25.688121" lon="-100.180815">
        <ele>426.429</ele>
        <time>2020-02-03T17:52:11Z</time>
      </trkpt>
      <trkpt lat="25.688133" lon="-100.180773">
        <ele>426.439</ele>
        <time>2020-02-03T17:52:13Z</time>
      </trkpt>
      <trkpt lat="25.688144" lon="-100.180708">
        <ele>426.2</ele>
        <time>2020-02-03T17:52:16Z</time>
      </trkpt>
      <trkpt lat="25.688152" lon="-100.180669">
        <ele>426.249</ele>
        <time>2020-02-03T17:52:18Z</time>
      </trkpt>
      <trkpt lat="25.68819" lon="-100.180642">
        <ele>426.379</ele>
        <time>2020-02-03T17:52:25Z</time>
      </trkpt>
      <trkpt lat="25.688208" lon="-100.180589">
        <ele>426.709</ele>
        <time>2020-02-03T17:52:29Z</time>
      </trkpt>
      <trkpt lat="25.688238" lon="-100.18054">
        <ele>427.792</ele>
        <time>2020-02-03T17:52:33Z</time>
      </trkpt>
      <trkpt lat="25.688259" lon="-100.180487">
        <ele>429.113</ele>
        <time>2020-02-03T17:52:38Z</time>
      </trkpt>
      <trkpt lat="25.688266" lon="-100.180425">
        <ele>428.691</ele>
        <time>2020-02-03T17:52:43Z</time>
      </trkpt>
      <trkpt lat="25.688261" lon="-100.18037">
        <ele>428.561</ele>
        <time>2020-02-03T17:52:47Z</time>
      </trkpt>
      <trkpt lat="25.688257" lon="-100.180343">
        <ele>428.545</ele>
        <time>2020-02-03T17:52:49Z</time>
      </trkpt>
      <trkpt lat="25.688253" lon="-100.180314">
        <ele>428.255</ele>
        <time>2020-02-03T17:52:51Z</time>
      </trkpt>
      <trkpt lat="25.688248" lon="-100.180287">
        <ele>428.382</ele>
        <time>2020-02-03T17:52:53Z</time>
      </trkpt>
      <trkpt lat="25.688249" lon="-100.180233">
        <ele>429.251</ele>
        <time>2020-02-03T17:52:57Z</time>
      </trkpt>
      <trkpt lat="25.688276" lon="-100.180186">
        <ele>429.251</ele>
        <time>2020-02-03T17:53:02Z</time>
      </trkpt>
      <trkpt lat="25.688276" lon="-100.180186">
        <ele>429.251</ele>
        <time>2020-02-03T17:53:10Z</time>
      </trkpt>
      <trkpt lat="25.688276" lon="-100.180186">
        <ele>427.307</ele>
        <time>2020-02-03T17:53:11Z</time>
      </trkpt>
      <trkpt lat="25.688296" lon="-100.180128">
        <ele>426.625</ele>
        <time>2020-02-03T17:53:23Z</time>
      </trkpt>
      <trkpt lat="25.688289" lon="-100.180074">
        <ele>426.458</ele>
        <time>2020-02-03T17:53:25Z</time>
      </trkpt>
      <trkpt lat="25.688284" lon="-100.180044">
        <ele>426.834</ele>
        <time>2020-02-03T17:53:26Z</time>
      </trkpt>
      <trkpt lat="25.688279" lon="-100.180015">
        <ele>427.599</ele>
        <time>2020-02-03T17:53:27Z</time>
      </trkpt>
      <trkpt lat="25.68827" lon="-100.179954">
        <ele>427.532</ele>
        <time>2020-02-03T17:53:29Z</time>
      </trkpt>
      <trkpt lat="25.688267" lon="-100.179894">
        <ele>427.253</ele>
        <time>2020-02-03T17:53:31Z</time>
      </trkpt>
      <trkpt lat="25.688271" lon="-100.179834">
        <ele>427.111</ele>
        <time>2020-02-03T17:53:33Z</time>
      </trkpt>
      <trkpt lat="25.688275" lon="-100.179805">
        <ele>427.281</ele>
        <time>2020-02-03T17:53:34Z</time>
      </trkpt>
      <trkpt lat="25.688278" lon="-100.179774">
        <ele>426.711</ele>
        <time>2020-02-03T17:53:35Z</time>
      </trkpt>
      <trkpt lat="25.68827" lon="-100.17972">
        <ele>426.744</ele>
        <time>2020-02-03T17:53:37Z</time>
      </trkpt>
      <trkpt lat="25.688252" lon="-100.179672">
        <ele>426.79</ele>
        <time>2020-02-03T17:53:39Z</time>
      </trkpt>
      <trkpt lat="25.688245" lon="-100.179621">
        <ele>426.774</ele>
        <time>2020-02-03T17:53:41Z</time>
      </trkpt>
      <trkpt lat="25.688251" lon="-100.179568">
        <ele>427.013</ele>
        <time>2020-02-03T17:53:43Z</time>
      </trkpt>
      <trkpt lat="25.688263" lon="-100.179515">
        <ele>427.625</ele>
        <time>2020-02-03T17:53:45Z</time>
      </trkpt>
      <trkpt lat="25.688269" lon="-100.179458">
        <ele>427.532</ele>
        <time>2020-02-03T17:53:47Z</time>
      </trkpt>
      <trkpt lat="25.688279" lon="-100.179403">
        <ele>427.572</ele>
        <time>2020-02-03T17:53:49Z</time>
      </trkpt>
      <trkpt lat="25.688293" lon="-100.179352">
        <ele>427.83</ele>
        <time>2020-02-03T17:53:51Z</time>
      </trkpt>
      <trkpt lat="25.688301" lon="-100.179327">
        <ele>427.736</ele>
        <time>2020-02-03T17:53:52Z</time>
      </trkpt>
      <trkpt lat="25.688309" lon="-100.179302">
        <ele>427.436</ele>
        <time>2020-02-03T17:53:53Z</time>
      </trkpt>
      <trkpt lat="25.688326" lon="-100.179256">
        <ele>427.603</ele>
        <time>2020-02-03T17:53:55Z</time>
      </trkpt>
      <trkpt lat="25.688342" lon="-100.179212">
        <ele>427.438</ele>
        <time>2020-02-03T17:53:57Z</time>
      </trkpt>
      <trkpt lat="25.68836" lon="-100.179166">
        <ele>427.728</ele>
        <time>2020-02-03T17:53:59Z</time>
      </trkpt>
      <trkpt lat="25.688369" lon="-100.179142">
        <ele>427.091</ele>
        <time>2020-02-03T17:54:00Z</time>
      </trkpt>
      <trkpt lat="25.688387" lon="-100.179096">
        <ele>427.261</ele>
        <time>2020-02-03T17:54:02Z</time>
      </trkpt>
      <trkpt lat="25.688396" lon="-100.179073">
        <ele>427.298</ele>
        <time>2020-02-03T17:54:03Z</time>
      </trkpt>
      <trkpt lat="25.688405" lon="-100.17905">
        <ele>428.388</ele>
        <time>2020-02-03T17:54:04Z</time>
      </trkpt>
      <trkpt lat="25.688422" lon="-100.179004">
        <ele>428.509</ele>
        <time>2020-02-03T17:54:06Z</time>
      </trkpt>
      <trkpt lat="25.688438" lon="-100.178958">
        <ele>428.317</ele>
        <time>2020-02-03T17:54:08Z</time>
      </trkpt>
      <trkpt lat="25.688445" lon="-100.178934">
        <ele>428.226</ele>
        <time>2020-02-03T17:54:09Z</time>
      </trkpt>
      <trkpt lat="25.688451" lon="-100.178909">
        <ele>428.085</ele>
        <time>2020-02-03T17:54:10Z</time>
      </trkpt>
      <trkpt lat="25.688456" lon="-100.178884">
        <ele>428.139</ele>
        <time>2020-02-03T17:54:11Z</time>
      </trkpt>
      <trkpt lat="25.688463" lon="-100.17886">
        <ele>428.242</ele>
        <time>2020-02-03T17:54:12Z</time>
      </trkpt>
      <trkpt lat="25.688471" lon="-100.178835">
        <ele>428.421</ele>
        <time>2020-02-03T17:54:13Z</time>
      </trkpt>
      <trkpt lat="25.688482" lon="-100.17881">
        <ele>428.194</ele>
        <time>2020-02-03T17:54:14Z</time>
      </trkpt>
      <trkpt lat="25.688494" lon="-100.178786">
        <ele>428.132</ele>
        <time>2020-02-03T17:54:15Z</time>
      </trkpt>
      <trkpt lat="25.688506" lon="-100.178761">
        <ele>427.984</ele>
        <time>2020-02-03T17:54:16Z</time>
      </trkpt>
      <trkpt lat="25.688518" lon="-100.178736">
        <ele>427.892</ele>
        <time>2020-02-03T17:54:17Z</time>
      </trkpt>
      <trkpt lat="25.68853" lon="-100.178711">
        <ele>427.976</ele>
        <time>2020-02-03T17:54:18Z</time>
      </trkpt>
      <trkpt lat="25.688542" lon="-100.178687">
        <ele>428.38</ele>
        <time>2020-02-03T17:54:19Z</time>
      </trkpt>
      <trkpt lat="25.688553" lon="-100.178662">
        <ele>428.064</ele>
        <time>2020-02-03T17:54:20Z</time>
      </trkpt>
      <trkpt lat="25.688564" lon="-100.178637">
        <ele>428.711</ele>
        <time>2020-02-03T17:54:21Z</time>
      </trkpt>
      <trkpt lat="25.688573" lon="-100.178612">
        <ele>428.947</ele>
        <time>2020-02-03T17:54:22Z</time>
      </trkpt>
      <trkpt lat="25.688581" lon="-100.178586">
        <ele>429.607</ele>
        <time>2020-02-03T17:54:23Z</time>
      </trkpt>
      <trkpt lat="25.688589" lon="-100.178561">
        <ele>429.646</ele>
        <time>2020-02-03T17:54:24Z</time>
      </trkpt>
      <trkpt lat="25.688598" lon="-100.178536">
        <ele>429.177</ele>
        <time>2020-02-03T17:54:25Z</time>
      </trkpt>
      <trkpt lat="25.688608" lon="-100.178513">
        <ele>429.082</ele>
        <time>2020-02-03T17:54:26Z</time>
      </trkpt>
      <trkpt lat="25.68863" lon="-100.178444">
        <ele>429.936</ele>
        <time>2020-02-03T17:54:29Z</time>
      </trkpt>
      <trkpt lat="25.688647" lon="-100.178399">
        <ele>430.156</ele>
        <time>2020-02-03T17:54:31Z</time>
      </trkpt>
      <trkpt lat="25.688657" lon="-100.178376">
        <ele>429.699</ele>
        <time>2020-02-03T17:54:32Z</time>
      </trkpt>
      <trkpt lat="25.688669" lon="-100.178353">
        <ele>429.912</ele>
        <time>2020-02-03T17:54:33Z</time>
      </trkpt>
      <trkpt lat="25.688679" lon="-100.17833">
        <ele>430.022</ele>
        <time>2020-02-03T17:54:34Z</time>
      </trkpt>
      <trkpt lat="25.688698" lon="-100.178285">
        <ele>429.566</ele>
        <time>2020-02-03T17:54:36Z</time>
      </trkpt>
      <trkpt lat="25.688707" lon="-100.178261">
        <ele>429.324</ele>
        <time>2020-02-03T17:54:37Z</time>
      </trkpt>
      <trkpt lat="25.688716" lon="-100.178237">
        <ele>429.176</ele>
        <time>2020-02-03T17:54:38Z</time>
      </trkpt>
      <trkpt lat="25.688724" lon="-100.178212">
        <ele>428.917</ele>
        <time>2020-02-03T17:54:39Z</time>
      </trkpt>
      <trkpt lat="25.688733" lon="-100.178188">
        <ele>428.9</ele>
        <time>2020-02-03T17:54:40Z</time>
      </trkpt>
      <trkpt lat="25.688744" lon="-100.178164">
        <ele>428.418</ele>
        <time>2020-02-03T17:54:41Z</time>
      </trkpt>
      <trkpt lat="25.688755" lon="-100.178138">
        <ele>428.428</ele>
        <time>2020-02-03T17:54:42Z</time>
      </trkpt>
      <trkpt lat="25.688767" lon="-100.178113">
        <ele>429.117</ele>
        <time>2020-02-03T17:54:43Z</time>
      </trkpt>
      <trkpt lat="25.688777" lon="-100.178089">
        <ele>428.936</ele>
        <time>2020-02-03T17:54:44Z</time>
      </trkpt>
      <trkpt lat="25.688787" lon="-100.178065">
        <ele>428.768</ele>
        <time>2020-02-03T17:54:45Z</time>
      </trkpt>
      <trkpt lat="25.688797" lon="-100.17804">
        <ele>428.522</ele>
        <time>2020-02-03T17:54:46Z</time>
      </trkpt>
      <trkpt lat="25.688807" lon="-100.178017">
        <ele>428.063</ele>
        <time>2020-02-03T17:54:47Z</time>
      </trkpt>
      <trkpt lat="25.688818" lon="-100.177994">
        <ele>427.977</ele>
        <time>2020-02-03T17:54:48Z</time>
      </trkpt>
      <trkpt lat="25.688828" lon="-100.177971">
        <ele>427.724</ele>
        <time>2020-02-03T17:54:49Z</time>
      </trkpt>
      <trkpt lat="25.688834" lon="-100.177892">
        <ele>427.986</ele>
        <time>2020-02-03T17:54:52Z</time>
      </trkpt>
      <trkpt lat="25.688827" lon="-100.177839">
        <ele>427.752</ele>
        <time>2020-02-03T17:54:54Z</time>
      </trkpt>
      <trkpt lat="25.688846" lon="-100.177765">
        <ele>428.484</ele>
        <time>2020-02-03T17:54:57Z</time>
      </trkpt>
      <trkpt lat="25.688867" lon="-100.177713">
        <ele>428.99</ele>
        <time>2020-02-03T17:54:59Z</time>
      </trkpt>
      <trkpt lat="25.688879" lon="-100.177687">
        <ele>428.59</ele>
        <time>2020-02-03T17:55:00Z</time>
      </trkpt>
      <trkpt lat="25.688902" lon="-100.177637">
        <ele>428.681</ele>
        <time>2020-02-03T17:55:02Z</time>
      </trkpt>
      <trkpt lat="25.688914" lon="-100.177613">
        <ele>428.591</ele>
        <time>2020-02-03T17:55:03Z</time>
      </trkpt>
      <trkpt lat="25.688926" lon="-100.177588">
        <ele>428.551</ele>
        <time>2020-02-03T17:55:04Z</time>
      </trkpt>
      <trkpt lat="25.688938" lon="-100.177562">
        <ele>428.819</ele>
        <time>2020-02-03T17:55:05Z</time>
      </trkpt>
      <trkpt lat="25.688949" lon="-100.177537">
        <ele>428.704</ele>
        <time>2020-02-03T17:55:06Z</time>
      </trkpt>
      <trkpt lat="25.68896" lon="-100.177512">
        <ele>428.782</ele>
        <time>2020-02-03T17:55:07Z</time>
      </trkpt>
      <trkpt lat="25.68897" lon="-100.177487">
        <ele>428.288</ele>
        <time>2020-02-03T17:55:08Z</time>
      </trkpt>
      <trkpt lat="25.688982" lon="-100.177462">
        <ele>428.625</ele>
        <time>2020-02-03T17:55:09Z</time>
      </trkpt>
      <trkpt lat="25.688992" lon="-100.177438">
        <ele>428.93</ele>
        <time>2020-02-03T17:55:10Z</time>
      </trkpt>
      <trkpt lat="25.689002" lon="-100.177413">
        <ele>429.111</ele>
        <time>2020-02-03T17:55:11Z</time>
      </trkpt>
      <trkpt lat="25.689012" lon="-100.177388">
        <ele>428.658</ele>
        <time>2020-02-03T17:55:12Z</time>
      </trkpt>
      <trkpt lat="25.689023" lon="-100.177364">
        <ele>428.184</ele>
        <time>2020-02-03T17:55:13Z</time>
      </trkpt>
      <trkpt lat="25.689034" lon="-100.177341">
        <ele>427.935</ele>
        <time>2020-02-03T17:55:14Z</time>
      </trkpt>
      <trkpt lat="25.689045" lon="-100.177318">
        <ele>428.069</ele>
        <time>2020-02-03T17:55:15Z</time>
      </trkpt>
      <trkpt lat="25.689055" lon="-100.177294">
        <ele>427.829</ele>
        <time>2020-02-03T17:55:16Z</time>
      </trkpt>
      <trkpt lat="25.689066" lon="-100.177271">
        <ele>428.065</ele>
        <time>2020-02-03T17:55:17Z</time>
      </trkpt>
      <trkpt lat="25.689074" lon="-100.177247">
        <ele>428.173</ele>
        <time>2020-02-03T17:55:18Z</time>
      </trkpt>
      <trkpt lat="25.689083" lon="-100.177223">
        <ele>427.573</ele>
        <time>2020-02-03T17:55:19Z</time>
      </trkpt>
      <trkpt lat="25.689095" lon="-100.177176">
        <ele>426.929</ele>
        <time>2020-02-03T17:55:21Z</time>
      </trkpt>
      <trkpt lat="25.689107" lon="-100.177128">
        <ele>426.832</ele>
        <time>2020-02-03T17:55:23Z</time>
      </trkpt>
      <trkpt lat="25.689128" lon="-100.177058">
        <ele>427.385</ele>
        <time>2020-02-03T17:55:26Z</time>
      </trkpt>
      <trkpt lat="25.689141" lon="-100.177011">
        <ele>427.468</ele>
        <time>2020-02-03T17:55:28Z</time>
      </trkpt>
      <trkpt lat="25.689152" lon="-100.176965">
        <ele>427.474</ele>
        <time>2020-02-03T17:55:30Z</time>
      </trkpt>
      <trkpt lat="25.689158" lon="-100.17694">
        <ele>426.869</ele>
        <time>2020-02-03T17:55:31Z</time>
      </trkpt>
      <trkpt lat="25.689168" lon="-100.176891">
        <ele>426.828</ele>
        <time>2020-02-03T17:55:33Z</time>
      </trkpt>
      <trkpt lat="25.689176" lon="-100.176867">
        <ele>427.107</ele>
        <time>2020-02-03T17:55:34Z</time>
      </trkpt>
      <trkpt lat="25.689181" lon="-100.176843">
        <ele>427.02</ele>
        <time>2020-02-03T17:55:35Z</time>
      </trkpt>
      <trkpt lat="25.689186" lon="-100.176817">
        <ele>426.751</ele>
        <time>2020-02-03T17:55:36Z</time>
      </trkpt>
      <trkpt lat="25.689193" lon="-100.176767">
        <ele>426.423</ele>
        <time>2020-02-03T17:55:38Z</time>
      </trkpt>
      <trkpt lat="25.689198" lon="-100.176742">
        <ele>426.388</ele>
        <time>2020-02-03T17:55:39Z</time>
      </trkpt>
      <trkpt lat="25.689203" lon="-100.176716">
        <ele>426.372</ele>
        <time>2020-02-03T17:55:40Z</time>
      </trkpt>
      <trkpt lat="25.689207" lon="-100.17669">
        <ele>425.983</ele>
        <time>2020-02-03T17:55:41Z</time>
      </trkpt>
      <trkpt lat="25.689211" lon="-100.176665">
        <ele>426.174</ele>
        <time>2020-02-03T17:55:42Z</time>
      </trkpt>
      <trkpt lat="25.689216" lon="-100.17664">
        <ele>425.651</ele>
        <time>2020-02-03T17:55:43Z</time>
      </trkpt>
      <trkpt lat="25.689231" lon="-100.176589">
        <ele>425.764</ele>
        <time>2020-02-03T17:55:45Z</time>
      </trkpt>
      <trkpt lat="25.689238" lon="-100.176562">
        <ele>425.657</ele>
        <time>2020-02-03T17:55:46Z</time>
      </trkpt>
      <trkpt lat="25.689244" lon="-100.176535">
        <ele>425.115</ele>
        <time>2020-02-03T17:55:47Z</time>
      </trkpt>
      <trkpt lat="25.689249" lon="-100.176507">
        <ele>424.954</ele>
        <time>2020-02-03T17:55:48Z</time>
      </trkpt>
      <trkpt lat="25.689262" lon="-100.176454">
        <ele>425.323</ele>
        <time>2020-02-03T17:55:50Z</time>
      </trkpt>
      <trkpt lat="25.689269" lon="-100.176427">
        <ele>425.129</ele>
        <time>2020-02-03T17:55:51Z</time>
      </trkpt>
      <trkpt lat="25.689274" lon="-100.1764">
        <ele>425.645</ele>
        <time>2020-02-03T17:55:52Z</time>
      </trkpt>
      <trkpt lat="25.689278" lon="-100.176373">
        <ele>425.505</ele>
        <time>2020-02-03T17:55:53Z</time>
      </trkpt>
      <trkpt lat="25.689281" lon="-100.176347">
        <ele>425.598</ele>
        <time>2020-02-03T17:55:54Z</time>
      </trkpt>
      <trkpt lat="25.689283" lon="-100.176321">
        <ele>426.08</ele>
        <time>2020-02-03T17:55:55Z</time>
      </trkpt>
      <trkpt lat="25.689258" lon="-100.176273">
        <ele>426.295</ele>
        <time>2020-02-03T17:56:00Z</time>
      </trkpt>
      <trkpt lat="25.689224" lon="-100.176229">
        <ele>426.69</ele>
        <time>2020-02-03T17:56:03Z</time>
      </trkpt>
      <trkpt lat="25.689203" lon="-100.176183">
        <ele>426.907</ele>
        <time>2020-02-03T17:56:05Z</time>
      </trkpt>
      <trkpt lat="25.689195" lon="-100.17613">
        <ele>427.009</ele>
        <time>2020-02-03T17:56:07Z</time>
      </trkpt>
      <trkpt lat="25.689192" lon="-100.176076">
        <ele>427.009</ele>
        <time>2020-02-03T17:56:09Z</time>
      </trkpt>
      <trkpt lat="25.68919" lon="-100.17605">
        <ele>426.965</ele>
        <time>2020-02-03T17:56:10Z</time>
      </trkpt>
      <trkpt lat="25.689186" lon="-100.176024">
        <ele>426.815</ele>
        <time>2020-02-03T17:56:11Z</time>
      </trkpt>
      <trkpt lat="25.689181" lon="-100.175998">
        <ele>427.222</ele>
        <time>2020-02-03T17:56:12Z</time>
      </trkpt>
      <trkpt lat="25.689159" lon="-100.175928">
        <ele>427.643</ele>
        <time>2020-02-03T17:56:15Z</time>
      </trkpt>
      <trkpt lat="25.689144" lon="-100.175884">
        <time>2020-02-03T17:56:17Z</time>
      </trkpt>
      <trkpt lat="25.689144" lon="-100.175884">
        <time>2020-02-03T17:56:27Z</time>
      </trkpt>
      <trkpt lat="25.689144" lon="-100.175884">
        <time>2020-02-03T17:56:29Z</time>
      </trkpt>
    </trkseg>
  </trk>
</gpx>
